<?xml version="1.0" encoding="UTF-8" standalone="no" ?>
<gpx xmlns="http://www.topografix.com/GPX/1/1" xmlns:xsi="http://www.w3.org/2001/XMLSchema-instance" xsi:schemaLocation="http://www.topografix.com/GPX/1/1 http://www.topografix.com/GPX/1/1/gpx.xsd" version="1.1" creator="VisuGPX - https://www.visugpx.com">
  <metadata>
    <name>phare de camarat</name>
    <desc><![CDATA[Gassin - Ramatuelle - Camarat]]></desc>
  </metadata>
  <trk>
    <name><![CDATA[phare de camarat_1]]></name>
    <trkseg>
      <trkpt lat="43.20619" lon="6.5674">
        <ele>94</ele>
        <time>2013-09-16T11:31:52.000Z</time>
      </trkpt>
      <trkpt lat="43.20619" lon="6.56743">
        <ele>94</ele>
        <time>2013-09-16T11:31:53.000Z</time>
      </trkpt>
      <trkpt lat="43.2062" lon="6.56745">
        <ele>94</ele>
        <time>2013-09-16T11:31:54.000Z</time>
      </trkpt>
      <trkpt lat="43.20621" lon="6.56748">
        <ele>94</ele>
        <time>2013-09-16T11:31:55.000Z</time>
      </trkpt>
      <trkpt lat="43.20621" lon="6.56751">
        <ele>95</ele>
        <time>2013-09-16T11:31:56.000Z</time>
      </trkpt>
      <trkpt lat="43.20622" lon="6.56754">
        <ele>95</ele>
        <time>2013-09-16T11:31:57.000Z</time>
      </trkpt>
      <trkpt lat="43.20623" lon="6.56755">
        <ele>95</ele>
        <time>2013-09-16T11:31:58.000Z</time>
      </trkpt>
      <trkpt lat="43.20624" lon="6.56759">
        <ele>95</ele>
        <time>2013-09-16T11:31:59.000Z</time>
      </trkpt>
      <trkpt lat="43.20625" lon="6.56762">
        <ele>95</ele>
        <time>2013-09-16T11:32:00.000Z</time>
      </trkpt>
      <trkpt lat="43.20626" lon="6.56765">
        <ele>95</ele>
        <time>2013-09-16T11:32:01.000Z</time>
      </trkpt>
      <trkpt lat="43.20627" lon="6.56767">
        <ele>95</ele>
        <time>2013-09-16T11:32:02.000Z</time>
      </trkpt>
      <trkpt lat="43.20628" lon="6.56771">
        <ele>95</ele>
        <time>2013-09-16T11:32:03.000Z</time>
      </trkpt>
      <trkpt lat="43.20629" lon="6.56773">
        <ele>95</ele>
        <time>2013-09-16T11:32:04.000Z</time>
      </trkpt>
      <trkpt lat="43.2063" lon="6.56776">
        <ele>95</ele>
        <time>2013-09-16T11:32:05.000Z</time>
      </trkpt>
      <trkpt lat="43.20631" lon="6.56778">
        <ele>95</ele>
        <time>2013-09-16T11:32:06.000Z</time>
      </trkpt>
      <trkpt lat="43.20632" lon="6.5678">
        <ele>96</ele>
        <time>2013-09-16T11:32:07.000Z</time>
      </trkpt>
      <trkpt lat="43.20633" lon="6.56782">
        <ele>96</ele>
        <time>2013-09-16T11:32:08.000Z</time>
      </trkpt>
      <trkpt lat="43.20635" lon="6.56785">
        <ele>96</ele>
        <time>2013-09-16T11:32:09.000Z</time>
      </trkpt>
      <trkpt lat="43.20636" lon="6.56787">
        <ele>96</ele>
        <time>2013-09-16T11:32:10.000Z</time>
      </trkpt>
      <trkpt lat="43.20637" lon="6.56789">
        <ele>96</ele>
        <time>2013-09-16T11:32:11.000Z</time>
      </trkpt>
      <trkpt lat="43.20639" lon="6.56792">
        <ele>96</ele>
        <time>2013-09-16T11:32:12.000Z</time>
      </trkpt>
      <trkpt lat="43.20641" lon="6.56795">
        <ele>96</ele>
        <time>2013-09-16T11:32:13.000Z</time>
      </trkpt>
      <trkpt lat="43.20642" lon="6.56798">
        <ele>96</ele>
        <time>2013-09-16T11:32:14.000Z</time>
      </trkpt>
      <trkpt lat="43.20644" lon="6.568">
        <ele>96</ele>
        <time>2013-09-16T11:32:15.000Z</time>
      </trkpt>
      <trkpt lat="43.20645" lon="6.56802">
        <ele>96</ele>
        <time>2013-09-16T11:32:16.000Z</time>
      </trkpt>
      <trkpt lat="43.20647" lon="6.56805">
        <ele>96</ele>
        <time>2013-09-16T11:32:17.000Z</time>
      </trkpt>
      <trkpt lat="43.20649" lon="6.56807">
        <ele>97</ele>
        <time>2013-09-16T11:32:18.000Z</time>
      </trkpt>
      <trkpt lat="43.2065" lon="6.5681">
        <ele>97</ele>
        <time>2013-09-16T11:32:19.000Z</time>
      </trkpt>
      <trkpt lat="43.20652" lon="6.56812">
        <ele>97</ele>
        <time>2013-09-16T11:32:20.000Z</time>
      </trkpt>
      <trkpt lat="43.20654" lon="6.56815">
        <ele>97</ele>
        <time>2013-09-16T11:32:21.000Z</time>
      </trkpt>
      <trkpt lat="43.20656" lon="6.56817">
        <ele>97</ele>
        <time>2013-09-16T11:32:22.000Z</time>
      </trkpt>
      <trkpt lat="43.20658" lon="6.56819">
        <ele>98</ele>
        <time>2013-09-16T11:32:23.000Z</time>
      </trkpt>
      <trkpt lat="43.2066" lon="6.56821">
        <ele>98</ele>
        <time>2013-09-16T11:32:24.000Z</time>
      </trkpt>
      <trkpt lat="43.20662" lon="6.56824">
        <ele>98</ele>
        <time>2013-09-16T11:32:25.000Z</time>
      </trkpt>
      <trkpt lat="43.20664" lon="6.56827">
        <ele>99</ele>
        <time>2013-09-16T11:32:26.000Z</time>
      </trkpt>
      <trkpt lat="43.20666" lon="6.5683">
        <ele>99</ele>
        <time>2013-09-16T11:32:27.000Z</time>
      </trkpt>
      <trkpt lat="43.20668" lon="6.56832">
        <ele>100</ele>
        <time>2013-09-16T11:32:28.000Z</time>
      </trkpt>
      <trkpt lat="43.2067" lon="6.56834">
        <ele>101</ele>
        <time>2013-09-16T11:32:29.000Z</time>
      </trkpt>
      <trkpt lat="43.2067" lon="6.56835">
        <ele>101</ele>
        <time>2013-09-16T11:32:30.000Z</time>
      </trkpt>
      <trkpt lat="43.20672" lon="6.56837">
        <ele>102</ele>
        <time>2013-09-16T11:32:31.000Z</time>
      </trkpt>
      <trkpt lat="43.20672" lon="6.56839">
        <ele>102</ele>
        <time>2013-09-16T11:32:32.000Z</time>
      </trkpt>
      <trkpt lat="43.20672" lon="6.56843">
        <ele>102</ele>
        <time>2013-09-16T11:32:34.000Z</time>
      </trkpt>
      <trkpt lat="43.20672" lon="6.56844">
        <ele>103</ele>
        <time>2013-09-16T11:32:35.000Z</time>
      </trkpt>
      <trkpt lat="43.20671" lon="6.56844">
        <ele>103</ele>
        <time>2013-09-16T11:32:36.000Z</time>
      </trkpt>
      <trkpt lat="43.2067" lon="6.56846">
        <ele>103</ele>
        <time>2013-09-16T11:32:37.000Z</time>
      </trkpt>
      <trkpt lat="43.20669" lon="6.56847">
        <ele>103</ele>
        <time>2013-09-16T11:32:38.000Z</time>
      </trkpt>
      <trkpt lat="43.20666" lon="6.5685">
        <ele>100</ele>
        <time>2013-09-16T11:32:39.000Z</time>
      </trkpt>
      <trkpt lat="43.20662" lon="6.56852">
        <ele>99</ele>
        <time>2013-09-16T11:32:40.000Z</time>
      </trkpt>
      <trkpt lat="43.20659" lon="6.56855">
        <ele>99</ele>
        <time>2013-09-16T11:32:41.000Z</time>
      </trkpt>
      <trkpt lat="43.20655" lon="6.56858">
        <ele>99</ele>
        <time>2013-09-16T11:32:42.000Z</time>
      </trkpt>
      <trkpt lat="43.20653" lon="6.56862">
        <ele>99</ele>
        <time>2013-09-16T11:32:43.000Z</time>
      </trkpt>
      <trkpt lat="43.20651" lon="6.56867">
        <ele>100</ele>
        <time>2013-09-16T11:32:44.000Z</time>
      </trkpt>
      <trkpt lat="43.2065" lon="6.56871">
        <ele>100</ele>
        <time>2013-09-16T11:32:45.000Z</time>
      </trkpt>
      <trkpt lat="43.20649" lon="6.56875">
        <ele>100</ele>
        <time>2013-09-16T11:32:46.000Z</time>
      </trkpt>
      <trkpt lat="43.2065" lon="6.56882">
        <ele>100</ele>
        <time>2013-09-16T11:32:48.000Z</time>
      </trkpt>
      <trkpt lat="43.20651" lon="6.56886">
        <ele>101</ele>
        <time>2013-09-16T11:32:49.000Z</time>
      </trkpt>
      <trkpt lat="43.20652" lon="6.56888">
        <ele>101</ele>
        <time>2013-09-16T11:32:50.000Z</time>
      </trkpt>
      <trkpt lat="43.20653" lon="6.56891">
        <ele>101</ele>
        <time>2013-09-16T11:32:51.000Z</time>
      </trkpt>
      <trkpt lat="43.20655" lon="6.56893">
        <ele>102</ele>
        <time>2013-09-16T11:32:52.000Z</time>
      </trkpt>
      <trkpt lat="43.20657" lon="6.56896">
        <ele>102</ele>
        <time>2013-09-16T11:32:53.000Z</time>
      </trkpt>
      <trkpt lat="43.20659" lon="6.56897">
        <ele>102</ele>
        <time>2013-09-16T11:32:54.000Z</time>
      </trkpt>
      <trkpt lat="43.20662" lon="6.56898">
        <ele>103</ele>
        <time>2013-09-16T11:32:55.000Z</time>
      </trkpt>
      <trkpt lat="43.20664" lon="6.56899">
        <ele>103</ele>
        <time>2013-09-16T11:32:56.000Z</time>
      </trkpt>
      <trkpt lat="43.20667" lon="6.56899">
        <ele>103</ele>
        <time>2013-09-16T11:32:57.000Z</time>
      </trkpt>
      <trkpt lat="43.20669" lon="6.56899">
        <ele>107</ele>
        <time>2013-09-16T11:32:58.000Z</time>
      </trkpt>
      <trkpt lat="43.20674" lon="6.569">
        <ele>107</ele>
        <time>2013-09-16T11:33:00.000Z</time>
      </trkpt>
      <trkpt lat="43.20676" lon="6.569">
        <ele>107</ele>
        <time>2013-09-16T11:33:01.000Z</time>
      </trkpt>
      <trkpt lat="43.20678" lon="6.56901">
        <ele>107</ele>
        <time>2013-09-16T11:33:02.000Z</time>
      </trkpt>
      <trkpt lat="43.20681" lon="6.56902">
        <ele>107</ele>
        <time>2013-09-16T11:33:03.000Z</time>
      </trkpt>
      <trkpt lat="43.20683" lon="6.56904">
        <ele>107</ele>
        <time>2013-09-16T11:33:04.000Z</time>
      </trkpt>
      <trkpt lat="43.20685" lon="6.56905">
        <ele>107</ele>
        <time>2013-09-16T11:33:05.000Z</time>
      </trkpt>
      <trkpt lat="43.20687" lon="6.56906">
        <ele>107</ele>
        <time>2013-09-16T11:33:06.000Z</time>
      </trkpt>
      <trkpt lat="43.20689" lon="6.56907">
        <ele>107</ele>
        <time>2013-09-16T11:33:07.000Z</time>
      </trkpt>
      <trkpt lat="43.20691" lon="6.56907">
        <ele>107</ele>
        <time>2013-09-16T11:33:08.000Z</time>
      </trkpt>
      <trkpt lat="43.20693" lon="6.56908">
        <ele>107</ele>
        <time>2013-09-16T11:33:09.000Z</time>
      </trkpt>
      <trkpt lat="43.20695" lon="6.56909">
        <ele>107</ele>
        <time>2013-09-16T11:33:10.000Z</time>
      </trkpt>
      <trkpt lat="43.20697" lon="6.56909">
        <ele>107</ele>
        <time>2013-09-16T11:33:11.000Z</time>
      </trkpt>
      <trkpt lat="43.20699" lon="6.56909">
        <ele>108</ele>
        <time>2013-09-16T11:33:12.000Z</time>
      </trkpt>
      <trkpt lat="43.20703" lon="6.56909">
        <ele>108</ele>
        <time>2013-09-16T11:33:14.000Z</time>
      </trkpt>
      <trkpt lat="43.20705" lon="6.5691">
        <ele>108</ele>
        <time>2013-09-16T11:33:15.000Z</time>
      </trkpt>
      <trkpt lat="43.20709" lon="6.56909">
        <ele>108</ele>
        <time>2013-09-16T11:33:17.000Z</time>
      </trkpt>
      <trkpt lat="43.20711" lon="6.56909">
        <ele>108</ele>
        <time>2013-09-16T11:33:18.000Z</time>
      </trkpt>
      <trkpt lat="43.20714" lon="6.56909">
        <ele>108</ele>
        <time>2013-09-16T11:33:19.000Z</time>
      </trkpt>
      <trkpt lat="43.20716" lon="6.56909">
        <ele>108</ele>
        <time>2013-09-16T11:33:20.000Z</time>
      </trkpt>
      <trkpt lat="43.20718" lon="6.56908">
        <ele>109</ele>
        <time>2013-09-16T11:33:21.000Z</time>
      </trkpt>
      <trkpt lat="43.2072" lon="6.56908">
        <ele>109</ele>
        <time>2013-09-16T11:33:22.000Z</time>
      </trkpt>
      <trkpt lat="43.20722" lon="6.56908">
        <ele>109</ele>
        <time>2013-09-16T11:33:23.000Z</time>
      </trkpt>
      <trkpt lat="43.20724" lon="6.56907">
        <ele>109</ele>
        <time>2013-09-16T11:33:24.000Z</time>
      </trkpt>
      <trkpt lat="43.20726" lon="6.56907">
        <ele>109</ele>
        <time>2013-09-16T11:33:25.000Z</time>
      </trkpt>
      <trkpt lat="43.20728" lon="6.56907">
        <ele>109</ele>
        <time>2013-09-16T11:33:26.000Z</time>
      </trkpt>
      <trkpt lat="43.2073" lon="6.56906">
        <ele>109</ele>
        <time>2013-09-16T11:33:27.000Z</time>
      </trkpt>
      <trkpt lat="43.20731" lon="6.56906">
        <ele>110</ele>
        <time>2013-09-16T11:33:28.000Z</time>
      </trkpt>
      <trkpt lat="43.20733" lon="6.56905">
        <ele>110</ele>
        <time>2013-09-16T11:33:29.000Z</time>
      </trkpt>
      <trkpt lat="43.20735" lon="6.56905">
        <ele>110</ele>
        <time>2013-09-16T11:33:30.000Z</time>
      </trkpt>
      <trkpt lat="43.20737" lon="6.56905">
        <ele>110</ele>
        <time>2013-09-16T11:33:31.000Z</time>
      </trkpt>
      <trkpt lat="43.20739" lon="6.56905">
        <ele>110</ele>
        <time>2013-09-16T11:33:32.000Z</time>
      </trkpt>
      <trkpt lat="43.20741" lon="6.56904">
        <ele>110</ele>
        <time>2013-09-16T11:33:33.000Z</time>
      </trkpt>
      <trkpt lat="43.20744" lon="6.56904">
        <ele>110</ele>
        <time>2013-09-16T11:33:34.000Z</time>
      </trkpt>
      <trkpt lat="43.20746" lon="6.56904">
        <ele>111</ele>
        <time>2013-09-16T11:33:35.000Z</time>
      </trkpt>
      <trkpt lat="43.20748" lon="6.56904">
        <ele>111</ele>
        <time>2013-09-16T11:33:36.000Z</time>
      </trkpt>
      <trkpt lat="43.20749" lon="6.56904">
        <ele>111</ele>
        <time>2013-09-16T11:33:37.000Z</time>
      </trkpt>
      <trkpt lat="43.20754" lon="6.56904">
        <ele>113</ele>
        <time>2013-09-16T11:33:40.000Z</time>
      </trkpt>
      <trkpt lat="43.20758" lon="6.56904">
        <ele>113</ele>
        <time>2013-09-16T11:33:42.000Z</time>
      </trkpt>
      <trkpt lat="43.2076" lon="6.56904">
        <ele>113</ele>
        <time>2013-09-16T11:33:43.000Z</time>
      </trkpt>
      <trkpt lat="43.20763" lon="6.56904">
        <ele>113</ele>
        <time>2013-09-16T11:33:45.000Z</time>
      </trkpt>
      <trkpt lat="43.20766" lon="6.56904">
        <ele>113</ele>
        <time>2013-09-16T11:33:46.000Z</time>
      </trkpt>
      <trkpt lat="43.20768" lon="6.56904">
        <ele>113</ele>
        <time>2013-09-16T11:33:47.000Z</time>
      </trkpt>
      <trkpt lat="43.2077" lon="6.56905">
        <ele>113</ele>
        <time>2013-09-16T11:33:48.000Z</time>
      </trkpt>
      <trkpt lat="43.20771" lon="6.56905">
        <ele>113</ele>
        <time>2013-09-16T11:33:49.000Z</time>
      </trkpt>
      <trkpt lat="43.20776" lon="6.56905">
        <ele>113</ele>
        <time>2013-09-16T11:33:51.000Z</time>
      </trkpt>
      <trkpt lat="43.20778" lon="6.56906">
        <ele>113</ele>
        <time>2013-09-16T11:33:52.000Z</time>
      </trkpt>
      <trkpt lat="43.2078" lon="6.56906">
        <ele>113</ele>
        <time>2013-09-16T11:33:53.000Z</time>
      </trkpt>
      <trkpt lat="43.20783" lon="6.56906">
        <ele>113</ele>
        <time>2013-09-16T11:33:54.000Z</time>
      </trkpt>
      <trkpt lat="43.20785" lon="6.56906">
        <ele>113</ele>
        <time>2013-09-16T11:33:55.000Z</time>
      </trkpt>
      <trkpt lat="43.20787" lon="6.56907">
        <ele>113</ele>
        <time>2013-09-16T11:33:56.000Z</time>
      </trkpt>
      <trkpt lat="43.2079" lon="6.56907">
        <ele>113</ele>
        <time>2013-09-16T11:33:57.000Z</time>
      </trkpt>
      <trkpt lat="43.20792" lon="6.56907">
        <ele>113</ele>
        <time>2013-09-16T11:33:58.000Z</time>
      </trkpt>
      <trkpt lat="43.20794" lon="6.56908">
        <ele>113</ele>
        <time>2013-09-16T11:33:59.000Z</time>
      </trkpt>
      <trkpt lat="43.20795" lon="6.56908">
        <ele>113</ele>
        <time>2013-09-16T11:34:00.000Z</time>
      </trkpt>
      <trkpt lat="43.20797" lon="6.56908">
        <ele>113</ele>
        <time>2013-09-16T11:34:01.000Z</time>
      </trkpt>
      <trkpt lat="43.20801" lon="6.56908">
        <ele>113</ele>
        <time>2013-09-16T11:34:03.000Z</time>
      </trkpt>
      <trkpt lat="43.20803" lon="6.56909">
        <ele>113</ele>
        <time>2013-09-16T11:34:04.000Z</time>
      </trkpt>
      <trkpt lat="43.20805" lon="6.5691">
        <ele>114</ele>
        <time>2013-09-16T11:34:05.000Z</time>
      </trkpt>
      <trkpt lat="43.20807" lon="6.5691">
        <ele>114</ele>
        <time>2013-09-16T11:34:06.000Z</time>
      </trkpt>
      <trkpt lat="43.2081" lon="6.56911">
        <ele>114</ele>
        <time>2013-09-16T11:34:07.000Z</time>
      </trkpt>
      <trkpt lat="43.20812" lon="6.56912">
        <ele>114</ele>
        <time>2013-09-16T11:34:08.000Z</time>
      </trkpt>
      <trkpt lat="43.20814" lon="6.56913">
        <ele>114</ele>
        <time>2013-09-16T11:34:09.000Z</time>
      </trkpt>
      <trkpt lat="43.20817" lon="6.56914">
        <ele>114</ele>
        <time>2013-09-16T11:34:10.000Z</time>
      </trkpt>
      <trkpt lat="43.20819" lon="6.56915">
        <ele>114</ele>
        <time>2013-09-16T11:34:11.000Z</time>
      </trkpt>
      <trkpt lat="43.20822" lon="6.56917">
        <ele>117</ele>
        <time>2013-09-16T11:34:12.000Z</time>
      </trkpt>
      <trkpt lat="43.20825" lon="6.56918">
        <ele>117</ele>
        <time>2013-09-16T11:34:13.000Z</time>
      </trkpt>
      <trkpt lat="43.20828" lon="6.56919">
        <ele>117</ele>
        <time>2013-09-16T11:34:14.000Z</time>
      </trkpt>
      <trkpt lat="43.2083" lon="6.56921">
        <ele>116</ele>
        <time>2013-09-16T11:34:15.000Z</time>
      </trkpt>
      <trkpt lat="43.20832" lon="6.56923">
        <ele>117</ele>
        <time>2013-09-16T11:34:16.000Z</time>
      </trkpt>
      <trkpt lat="43.20835" lon="6.56925">
        <ele>116</ele>
        <time>2013-09-16T11:34:17.000Z</time>
      </trkpt>
      <trkpt lat="43.20837" lon="6.56927">
        <ele>116</ele>
        <time>2013-09-16T11:34:18.000Z</time>
      </trkpt>
      <trkpt lat="43.20839" lon="6.56929">
        <ele>117</ele>
        <time>2013-09-16T11:34:19.000Z</time>
      </trkpt>
      <trkpt lat="43.20841" lon="6.5693">
        <ele>117</ele>
        <time>2013-09-16T11:34:20.000Z</time>
      </trkpt>
      <trkpt lat="43.20843" lon="6.56932">
        <ele>117</ele>
        <time>2013-09-16T11:34:21.000Z</time>
      </trkpt>
      <trkpt lat="43.20845" lon="6.56934">
        <ele>117</ele>
        <time>2013-09-16T11:34:22.000Z</time>
      </trkpt>
      <trkpt lat="43.20847" lon="6.56936">
        <ele>117</ele>
        <time>2013-09-16T11:34:23.000Z</time>
      </trkpt>
      <trkpt lat="43.20849" lon="6.56938">
        <ele>117</ele>
        <time>2013-09-16T11:34:24.000Z</time>
      </trkpt>
      <trkpt lat="43.20851" lon="6.56939">
        <ele>117</ele>
        <time>2013-09-16T11:34:25.000Z</time>
      </trkpt>
      <trkpt lat="43.20853" lon="6.5694">
        <ele>117</ele>
        <time>2013-09-16T11:34:26.000Z</time>
      </trkpt>
      <trkpt lat="43.20855" lon="6.56941">
        <ele>117</ele>
        <time>2013-09-16T11:34:27.000Z</time>
      </trkpt>
      <trkpt lat="43.20858" lon="6.56942">
        <ele>117</ele>
        <time>2013-09-16T11:34:28.000Z</time>
      </trkpt>
      <trkpt lat="43.2086" lon="6.56944">
        <ele>117</ele>
        <time>2013-09-16T11:34:29.000Z</time>
      </trkpt>
      <trkpt lat="43.20863" lon="6.56945">
        <ele>117</ele>
        <time>2013-09-16T11:34:30.000Z</time>
      </trkpt>
      <trkpt lat="43.20866" lon="6.56946">
        <ele>117</ele>
        <time>2013-09-16T11:34:31.000Z</time>
      </trkpt>
      <trkpt lat="43.20869" lon="6.56946">
        <ele>117</ele>
        <time>2013-09-16T11:34:32.000Z</time>
      </trkpt>
      <trkpt lat="43.20872" lon="6.56947">
        <ele>117</ele>
        <time>2013-09-16T11:34:33.000Z</time>
      </trkpt>
      <trkpt lat="43.20875" lon="6.56947">
        <ele>117</ele>
        <time>2013-09-16T11:34:34.000Z</time>
      </trkpt>
      <trkpt lat="43.20878" lon="6.56947">
        <ele>117</ele>
        <time>2013-09-16T11:34:35.000Z</time>
      </trkpt>
      <trkpt lat="43.20882" lon="6.56947">
        <ele>117</ele>
        <time>2013-09-16T11:34:36.000Z</time>
      </trkpt>
      <trkpt lat="43.20885" lon="6.56947">
        <ele>117</ele>
        <time>2013-09-16T11:34:37.000Z</time>
      </trkpt>
      <trkpt lat="43.20888" lon="6.56946">
        <ele>117</ele>
        <time>2013-09-16T11:34:38.000Z</time>
      </trkpt>
      <trkpt lat="43.20891" lon="6.56945">
        <ele>117</ele>
        <time>2013-09-16T11:34:39.000Z</time>
      </trkpt>
      <trkpt lat="43.20894" lon="6.56945">
        <ele>116</ele>
        <time>2013-09-16T11:34:40.000Z</time>
      </trkpt>
      <trkpt lat="43.20897" lon="6.56944">
        <ele>116</ele>
        <time>2013-09-16T11:34:41.000Z</time>
      </trkpt>
      <trkpt lat="43.20901" lon="6.56945">
        <ele>116</ele>
        <time>2013-09-16T11:34:42.000Z</time>
      </trkpt>
      <trkpt lat="43.20904" lon="6.56947">
        <ele>116</ele>
        <time>2013-09-16T11:34:43.000Z</time>
      </trkpt>
      <trkpt lat="43.20906" lon="6.5695">
        <ele>116</ele>
        <time>2013-09-16T11:34:44.000Z</time>
      </trkpt>
      <trkpt lat="43.20908" lon="6.56953">
        <ele>116</ele>
        <time>2013-09-16T11:34:45.000Z</time>
      </trkpt>
      <trkpt lat="43.20909" lon="6.56957">
        <ele>116</ele>
        <time>2013-09-16T11:34:46.000Z</time>
      </trkpt>
      <trkpt lat="43.20911" lon="6.5696">
        <ele>116</ele>
        <time>2013-09-16T11:34:47.000Z</time>
      </trkpt>
      <trkpt lat="43.20912" lon="6.56964">
        <ele>117</ele>
        <time>2013-09-16T11:34:48.000Z</time>
      </trkpt>
      <trkpt lat="43.20913" lon="6.56967">
        <ele>117</ele>
        <time>2013-09-16T11:34:49.000Z</time>
      </trkpt>
      <trkpt lat="43.20914" lon="6.56971">
        <ele>117</ele>
        <time>2013-09-16T11:34:50.000Z</time>
      </trkpt>
      <trkpt lat="43.20915" lon="6.56974">
        <ele>117</ele>
        <time>2013-09-16T11:34:51.000Z</time>
      </trkpt>
      <trkpt lat="43.20917" lon="6.56978">
        <ele>117</ele>
        <time>2013-09-16T11:34:52.000Z</time>
      </trkpt>
      <trkpt lat="43.20918" lon="6.56981">
        <ele>114</ele>
        <time>2013-09-16T11:34:53.000Z</time>
      </trkpt>
      <trkpt lat="43.20919" lon="6.56984">
        <ele>114</ele>
        <time>2013-09-16T11:34:54.000Z</time>
      </trkpt>
      <trkpt lat="43.2092" lon="6.56988">
        <ele>114</ele>
        <time>2013-09-16T11:34:55.000Z</time>
      </trkpt>
      <trkpt lat="43.20922" lon="6.56991">
        <ele>114</ele>
        <time>2013-09-16T11:34:56.000Z</time>
      </trkpt>
      <trkpt lat="43.20923" lon="6.56995">
        <ele>115</ele>
        <time>2013-09-16T11:34:57.000Z</time>
      </trkpt>
      <trkpt lat="43.20924" lon="6.56998">
        <ele>115</ele>
        <time>2013-09-16T11:34:58.000Z</time>
      </trkpt>
      <trkpt lat="43.20925" lon="6.57001">
        <ele>116</ele>
        <time>2013-09-16T11:34:59.000Z</time>
      </trkpt>
      <trkpt lat="43.20926" lon="6.57004">
        <ele>116</ele>
        <time>2013-09-16T11:35:00.000Z</time>
      </trkpt>
      <trkpt lat="43.20926" lon="6.57007">
        <ele>116</ele>
        <time>2013-09-16T11:35:01.000Z</time>
      </trkpt>
      <trkpt lat="43.20927" lon="6.5701">
        <ele>116</ele>
        <time>2013-09-16T11:35:02.000Z</time>
      </trkpt>
      <trkpt lat="43.20928" lon="6.57012">
        <ele>116</ele>
        <time>2013-09-16T11:35:03.000Z</time>
      </trkpt>
      <trkpt lat="43.20929" lon="6.57015">
        <ele>116</ele>
        <time>2013-09-16T11:35:04.000Z</time>
      </trkpt>
      <trkpt lat="43.2093" lon="6.57018">
        <ele>116</ele>
        <time>2013-09-16T11:35:05.000Z</time>
      </trkpt>
      <trkpt lat="43.2093" lon="6.57021">
        <ele>116</ele>
        <time>2013-09-16T11:35:06.000Z</time>
      </trkpt>
      <trkpt lat="43.20931" lon="6.57024">
        <ele>116</ele>
        <time>2013-09-16T11:35:07.000Z</time>
      </trkpt>
      <trkpt lat="43.20931" lon="6.57027">
        <ele>116</ele>
        <time>2013-09-16T11:35:08.000Z</time>
      </trkpt>
      <trkpt lat="43.20932" lon="6.5703">
        <ele>116</ele>
        <time>2013-09-16T11:35:09.000Z</time>
      </trkpt>
      <trkpt lat="43.20933" lon="6.57032">
        <ele>116</ele>
        <time>2013-09-16T11:35:10.000Z</time>
      </trkpt>
      <trkpt lat="43.20934" lon="6.57035">
        <ele>116</ele>
        <time>2013-09-16T11:35:11.000Z</time>
      </trkpt>
      <trkpt lat="43.20935" lon="6.57038">
        <ele>116</ele>
        <time>2013-09-16T11:35:12.000Z</time>
      </trkpt>
      <trkpt lat="43.20936" lon="6.57041">
        <ele>116</ele>
        <time>2013-09-16T11:35:13.000Z</time>
      </trkpt>
      <trkpt lat="43.20937" lon="6.57044">
        <ele>116</ele>
        <time>2013-09-16T11:35:14.000Z</time>
      </trkpt>
      <trkpt lat="43.20938" lon="6.57047">
        <ele>116</ele>
        <time>2013-09-16T11:35:15.000Z</time>
      </trkpt>
      <trkpt lat="43.20939" lon="6.57051">
        <ele>116</ele>
        <time>2013-09-16T11:35:16.000Z</time>
      </trkpt>
      <trkpt lat="43.2094" lon="6.57054">
        <ele>116</ele>
        <time>2013-09-16T11:35:17.000Z</time>
      </trkpt>
      <trkpt lat="43.20941" lon="6.57059">
        <ele>117</ele>
        <time>2013-09-16T11:35:18.000Z</time>
      </trkpt>
      <trkpt lat="43.20942" lon="6.57063">
        <ele>117</ele>
        <time>2013-09-16T11:35:19.000Z</time>
      </trkpt>
      <trkpt lat="43.20943" lon="6.57067">
        <ele>117</ele>
        <time>2013-09-16T11:35:20.000Z</time>
      </trkpt>
      <trkpt lat="43.20945" lon="6.57071">
        <ele>117</ele>
        <time>2013-09-16T11:35:21.000Z</time>
      </trkpt>
      <trkpt lat="43.20946" lon="6.57075">
        <ele>117</ele>
        <time>2013-09-16T11:35:22.000Z</time>
      </trkpt>
      <trkpt lat="43.20947" lon="6.57079">
        <ele>117</ele>
        <time>2013-09-16T11:35:23.000Z</time>
      </trkpt>
      <trkpt lat="43.20949" lon="6.57083">
        <ele>117</ele>
        <time>2013-09-16T11:35:24.000Z</time>
      </trkpt>
      <trkpt lat="43.2095" lon="6.57087">
        <ele>121</ele>
        <time>2013-09-16T11:35:25.000Z</time>
      </trkpt>
      <trkpt lat="43.20952" lon="6.5709">
        <ele>121</ele>
        <time>2013-09-16T11:35:26.000Z</time>
      </trkpt>
      <trkpt lat="43.20953" lon="6.57094">
        <ele>121</ele>
        <time>2013-09-16T11:35:27.000Z</time>
      </trkpt>
      <trkpt lat="43.20955" lon="6.57098">
        <ele>121</ele>
        <time>2013-09-16T11:35:28.000Z</time>
      </trkpt>
      <trkpt lat="43.20956" lon="6.57102">
        <ele>121</ele>
        <time>2013-09-16T11:35:29.000Z</time>
      </trkpt>
      <trkpt lat="43.20958" lon="6.57106">
        <ele>121</ele>
        <time>2013-09-16T11:35:30.000Z</time>
      </trkpt>
      <trkpt lat="43.2096" lon="6.57109">
        <ele>121</ele>
        <time>2013-09-16T11:35:31.000Z</time>
      </trkpt>
      <trkpt lat="43.20962" lon="6.57113">
        <ele>121</ele>
        <time>2013-09-16T11:35:32.000Z</time>
      </trkpt>
      <trkpt lat="43.20964" lon="6.57117">
        <ele>121</ele>
        <time>2013-09-16T11:35:33.000Z</time>
      </trkpt>
      <trkpt lat="43.20966" lon="6.5712">
        <ele>121</ele>
        <time>2013-09-16T11:35:34.000Z</time>
      </trkpt>
      <trkpt lat="43.20968" lon="6.57124">
        <ele>121</ele>
        <time>2013-09-16T11:35:35.000Z</time>
      </trkpt>
      <trkpt lat="43.2097" lon="6.57127">
        <ele>121</ele>
        <time>2013-09-16T11:35:36.000Z</time>
      </trkpt>
      <trkpt lat="43.20972" lon="6.57131">
        <ele>121</ele>
        <time>2013-09-16T11:35:37.000Z</time>
      </trkpt>
      <trkpt lat="43.20974" lon="6.57134">
        <ele>121</ele>
        <time>2013-09-16T11:35:38.000Z</time>
      </trkpt>
      <trkpt lat="43.20976" lon="6.57138">
        <ele>121</ele>
        <time>2013-09-16T11:35:39.000Z</time>
      </trkpt>
      <trkpt lat="43.20978" lon="6.57141">
        <ele>121</ele>
        <time>2013-09-16T11:35:40.000Z</time>
      </trkpt>
      <trkpt lat="43.2098" lon="6.57144">
        <ele>121</ele>
        <time>2013-09-16T11:35:41.000Z</time>
      </trkpt>
      <trkpt lat="43.20982" lon="6.57147">
        <ele>121</ele>
        <time>2013-09-16T11:35:42.000Z</time>
      </trkpt>
      <trkpt lat="43.20984" lon="6.57151">
        <ele>121</ele>
        <time>2013-09-16T11:35:43.000Z</time>
      </trkpt>
      <trkpt lat="43.20986" lon="6.57154">
        <ele>121</ele>
        <time>2013-09-16T11:35:44.000Z</time>
      </trkpt>
      <trkpt lat="43.20989" lon="6.57157">
        <ele>121</ele>
        <time>2013-09-16T11:35:45.000Z</time>
      </trkpt>
      <trkpt lat="43.20991" lon="6.57161">
        <ele>121</ele>
        <time>2013-09-16T11:35:46.000Z</time>
      </trkpt>
      <trkpt lat="43.20993" lon="6.57164">
        <ele>121</ele>
        <time>2013-09-16T11:35:47.000Z</time>
      </trkpt>
      <trkpt lat="43.20995" lon="6.57168">
        <ele>122</ele>
        <time>2013-09-16T11:35:48.000Z</time>
      </trkpt>
      <trkpt lat="43.20997" lon="6.57171">
        <ele>122</ele>
        <time>2013-09-16T11:35:49.000Z</time>
      </trkpt>
      <trkpt lat="43.20999" lon="6.57174">
        <ele>123</ele>
        <time>2013-09-16T11:35:50.000Z</time>
      </trkpt>
      <trkpt lat="43.21001" lon="6.57178">
        <ele>120</ele>
        <time>2013-09-16T11:35:51.000Z</time>
      </trkpt>
      <trkpt lat="43.21003" lon="6.57181">
        <ele>120</ele>
        <time>2013-09-16T11:35:52.000Z</time>
      </trkpt>
      <trkpt lat="43.21005" lon="6.57183">
        <ele>120</ele>
        <time>2013-09-16T11:35:53.000Z</time>
      </trkpt>
      <trkpt lat="43.21007" lon="6.57186">
        <ele>120</ele>
        <time>2013-09-16T11:35:54.000Z</time>
      </trkpt>
      <trkpt lat="43.21009" lon="6.57189">
        <ele>120</ele>
        <time>2013-09-16T11:35:55.000Z</time>
      </trkpt>
      <trkpt lat="43.2101" lon="6.57191">
        <ele>120</ele>
        <time>2013-09-16T11:35:56.000Z</time>
      </trkpt>
      <trkpt lat="43.21012" lon="6.57194">
        <ele>120</ele>
        <time>2013-09-16T11:35:57.000Z</time>
      </trkpt>
      <trkpt lat="43.21014" lon="6.57197">
        <ele>121</ele>
        <time>2013-09-16T11:35:58.000Z</time>
      </trkpt>
      <trkpt lat="43.21017" lon="6.572">
        <ele>121</ele>
        <time>2013-09-16T11:35:59.000Z</time>
      </trkpt>
      <trkpt lat="43.21019" lon="6.57203">
        <ele>121</ele>
        <time>2013-09-16T11:36:00.000Z</time>
      </trkpt>
      <trkpt lat="43.21021" lon="6.57206">
        <ele>121</ele>
        <time>2013-09-16T11:36:01.000Z</time>
      </trkpt>
      <trkpt lat="43.21023" lon="6.57208">
        <ele>121</ele>
        <time>2013-09-16T11:36:02.000Z</time>
      </trkpt>
      <trkpt lat="43.21025" lon="6.57211">
        <ele>121</ele>
        <time>2013-09-16T11:36:03.000Z</time>
      </trkpt>
      <trkpt lat="43.21027" lon="6.57213">
        <ele>121</ele>
        <time>2013-09-16T11:36:04.000Z</time>
      </trkpt>
      <trkpt lat="43.21029" lon="6.57215">
        <ele>121</ele>
        <time>2013-09-16T11:36:05.000Z</time>
      </trkpt>
      <trkpt lat="43.21031" lon="6.57217">
        <ele>121</ele>
        <time>2013-09-16T11:36:06.000Z</time>
      </trkpt>
      <trkpt lat="43.21033" lon="6.57219">
        <ele>121</ele>
        <time>2013-09-16T11:36:07.000Z</time>
      </trkpt>
      <trkpt lat="43.21034" lon="6.5722">
        <ele>121</ele>
        <time>2013-09-16T11:36:08.000Z</time>
      </trkpt>
      <trkpt lat="43.21035" lon="6.57222">
        <ele>121</ele>
        <time>2013-09-16T11:36:09.000Z</time>
      </trkpt>
      <trkpt lat="43.21036" lon="6.57223">
        <ele>121</ele>
        <time>2013-09-16T11:36:10.000Z</time>
      </trkpt>
      <trkpt lat="43.21038" lon="6.57224">
        <ele>121</ele>
        <time>2013-09-16T11:36:11.000Z</time>
      </trkpt>
      <trkpt lat="43.21039" lon="6.57226">
        <ele>121</ele>
        <time>2013-09-16T11:36:12.000Z</time>
      </trkpt>
      <trkpt lat="43.21041" lon="6.57227">
        <ele>121</ele>
        <time>2013-09-16T11:36:13.000Z</time>
      </trkpt>
      <trkpt lat="43.21043" lon="6.57229">
        <ele>120</ele>
        <time>2013-09-16T11:36:14.000Z</time>
      </trkpt>
      <trkpt lat="43.21045" lon="6.57231">
        <ele>120</ele>
        <time>2013-09-16T11:36:15.000Z</time>
      </trkpt>
      <trkpt lat="43.21046" lon="6.57234">
        <ele>120</ele>
        <time>2013-09-16T11:36:16.000Z</time>
      </trkpt>
      <trkpt lat="43.21048" lon="6.57236">
        <ele>120</ele>
        <time>2013-09-16T11:36:17.000Z</time>
      </trkpt>
      <trkpt lat="43.2105" lon="6.57239">
        <ele>120</ele>
        <time>2013-09-16T11:36:18.000Z</time>
      </trkpt>
      <trkpt lat="43.21052" lon="6.57241">
        <ele>120</ele>
        <time>2013-09-16T11:36:19.000Z</time>
      </trkpt>
      <trkpt lat="43.21053" lon="6.57244">
        <ele>120</ele>
        <time>2013-09-16T11:36:20.000Z</time>
      </trkpt>
      <trkpt lat="43.21055" lon="6.57247">
        <ele>120</ele>
        <time>2013-09-16T11:36:21.000Z</time>
      </trkpt>
      <trkpt lat="43.21057" lon="6.5725">
        <ele>120</ele>
        <time>2013-09-16T11:36:22.000Z</time>
      </trkpt>
      <trkpt lat="43.21059" lon="6.57253">
        <ele>123</ele>
        <time>2013-09-16T11:36:23.000Z</time>
      </trkpt>
      <trkpt lat="43.21061" lon="6.57256">
        <ele>122</ele>
        <time>2013-09-16T11:36:24.000Z</time>
      </trkpt>
      <trkpt lat="43.21063" lon="6.5726">
        <ele>122</ele>
        <time>2013-09-16T11:36:25.000Z</time>
      </trkpt>
      <trkpt lat="43.21064" lon="6.57264">
        <ele>122</ele>
        <time>2013-09-16T11:36:26.000Z</time>
      </trkpt>
      <trkpt lat="43.21066" lon="6.57268">
        <ele>123</ele>
        <time>2013-09-16T11:36:27.000Z</time>
      </trkpt>
      <trkpt lat="43.21068" lon="6.57272">
        <ele>123</ele>
        <time>2013-09-16T11:36:28.000Z</time>
      </trkpt>
      <trkpt lat="43.21069" lon="6.57277">
        <ele>123</ele>
        <time>2013-09-16T11:36:29.000Z</time>
      </trkpt>
      <trkpt lat="43.2107" lon="6.57283">
        <ele>123</ele>
        <time>2013-09-16T11:36:30.000Z</time>
      </trkpt>
      <trkpt lat="43.2107" lon="6.5729">
        <ele>124</ele>
        <time>2013-09-16T11:36:31.000Z</time>
      </trkpt>
      <trkpt lat="43.21071" lon="6.57303">
        <ele>124</ele>
        <time>2013-09-16T11:36:33.000Z</time>
      </trkpt>
      <trkpt lat="43.21071" lon="6.5731">
        <ele>124</ele>
        <time>2013-09-16T11:36:34.000Z</time>
      </trkpt>
      <trkpt lat="43.21072" lon="6.57316">
        <ele>123</ele>
        <time>2013-09-16T11:36:35.000Z</time>
      </trkpt>
      <trkpt lat="43.21073" lon="6.57323">
        <ele>123</ele>
        <time>2013-09-16T11:36:36.000Z</time>
      </trkpt>
      <trkpt lat="43.21075" lon="6.57329">
        <ele>122</ele>
        <time>2013-09-16T11:36:37.000Z</time>
      </trkpt>
      <trkpt lat="43.21077" lon="6.57335">
        <ele>122</ele>
        <time>2013-09-16T11:36:38.000Z</time>
      </trkpt>
      <trkpt lat="43.2108" lon="6.57341">
        <ele>123</ele>
        <time>2013-09-16T11:36:39.000Z</time>
      </trkpt>
      <trkpt lat="43.21083" lon="6.57346">
        <ele>124</ele>
        <time>2013-09-16T11:36:40.000Z</time>
      </trkpt>
      <trkpt lat="43.21087" lon="6.57351">
        <ele>118</ele>
        <time>2013-09-16T11:36:41.000Z</time>
      </trkpt>
      <trkpt lat="43.2109" lon="6.57356">
        <ele>118</ele>
        <time>2013-09-16T11:36:42.000Z</time>
      </trkpt>
      <trkpt lat="43.21094" lon="6.57361">
        <ele>117</ele>
        <time>2013-09-16T11:36:43.000Z</time>
      </trkpt>
      <trkpt lat="43.21097" lon="6.57366">
        <ele>117</ele>
        <time>2013-09-16T11:36:44.000Z</time>
      </trkpt>
      <trkpt lat="43.211" lon="6.57373">
        <ele>117</ele>
        <time>2013-09-16T11:36:45.000Z</time>
      </trkpt>
      <trkpt lat="43.21103" lon="6.57379">
        <ele>117</ele>
        <time>2013-09-16T11:36:46.000Z</time>
      </trkpt>
      <trkpt lat="43.21107" lon="6.57386">
        <ele>117</ele>
        <time>2013-09-16T11:36:47.000Z</time>
      </trkpt>
      <trkpt lat="43.21111" lon="6.57391">
        <ele>117</ele>
        <time>2013-09-16T11:36:48.000Z</time>
      </trkpt>
      <trkpt lat="43.21116" lon="6.57396">
        <ele>117</ele>
        <time>2013-09-16T11:36:49.000Z</time>
      </trkpt>
      <trkpt lat="43.21122" lon="6.574">
        <ele>116</ele>
        <time>2013-09-16T11:36:50.000Z</time>
      </trkpt>
      <trkpt lat="43.21128" lon="6.57404">
        <ele>116</ele>
        <time>2013-09-16T11:36:51.000Z</time>
      </trkpt>
      <trkpt lat="43.21133" lon="6.57407">
        <ele>115</ele>
        <time>2013-09-16T11:36:52.000Z</time>
      </trkpt>
      <trkpt lat="43.21137" lon="6.5741">
        <ele>115</ele>
        <time>2013-09-16T11:36:53.000Z</time>
      </trkpt>
      <trkpt lat="43.21141" lon="6.57415">
        <ele>114</ele>
        <time>2013-09-16T11:36:54.000Z</time>
      </trkpt>
      <trkpt lat="43.21143" lon="6.57421">
        <ele>115</ele>
        <time>2013-09-16T11:36:55.000Z</time>
      </trkpt>
      <trkpt lat="43.21146" lon="6.5743">
        <ele>115</ele>
        <time>2013-09-16T11:36:56.000Z</time>
      </trkpt>
      <trkpt lat="43.21147" lon="6.57439">
        <ele>115</ele>
        <time>2013-09-16T11:36:57.000Z</time>
      </trkpt>
      <trkpt lat="43.21149" lon="6.57449">
        <ele>115</ele>
        <time>2013-09-16T11:36:58.000Z</time>
      </trkpt>
      <trkpt lat="43.21151" lon="6.57459">
        <ele>115</ele>
        <time>2013-09-16T11:36:59.000Z</time>
      </trkpt>
      <trkpt lat="43.21153" lon="6.5747">
        <ele>115</ele>
        <time>2013-09-16T11:37:00.000Z</time>
      </trkpt>
      <trkpt lat="43.21156" lon="6.57479">
        <ele>115</ele>
        <time>2013-09-16T11:37:01.000Z</time>
      </trkpt>
      <trkpt lat="43.21159" lon="6.57489">
        <ele>113</ele>
        <time>2013-09-16T11:37:02.000Z</time>
      </trkpt>
      <trkpt lat="43.21163" lon="6.57499">
        <ele>112</ele>
        <time>2013-09-16T11:37:03.000Z</time>
      </trkpt>
      <trkpt lat="43.21168" lon="6.57508">
        <ele>110</ele>
        <time>2013-09-16T11:37:04.000Z</time>
      </trkpt>
      <trkpt lat="43.21172" lon="6.57516">
        <ele>109</ele>
        <time>2013-09-16T11:37:05.000Z</time>
      </trkpt>
      <trkpt lat="43.21176" lon="6.57524">
        <ele>108</ele>
        <time>2013-09-16T11:37:06.000Z</time>
      </trkpt>
      <trkpt lat="43.2118" lon="6.5753">
        <ele>108</ele>
        <time>2013-09-16T11:37:07.000Z</time>
      </trkpt>
      <trkpt lat="43.21183" lon="6.57537">
        <ele>108</ele>
        <time>2013-09-16T11:37:08.000Z</time>
      </trkpt>
      <trkpt lat="43.21185" lon="6.57543">
        <ele>108</ele>
        <time>2013-09-16T11:37:09.000Z</time>
      </trkpt>
      <trkpt lat="43.21187" lon="6.5755">
        <ele>107</ele>
        <time>2013-09-16T11:37:10.000Z</time>
      </trkpt>
      <trkpt lat="43.21189" lon="6.57558">
        <ele>107</ele>
        <time>2013-09-16T11:37:11.000Z</time>
      </trkpt>
      <trkpt lat="43.21188" lon="6.57575">
        <ele>107</ele>
        <time>2013-09-16T11:37:13.000Z</time>
      </trkpt>
      <trkpt lat="43.21186" lon="6.57583">
        <ele>108</ele>
        <time>2013-09-16T11:37:14.000Z</time>
      </trkpt>
      <trkpt lat="43.21184" lon="6.57591">
        <ele>105</ele>
        <time>2013-09-16T11:37:15.000Z</time>
      </trkpt>
      <trkpt lat="43.2118" lon="6.57599">
        <ele>105</ele>
        <time>2013-09-16T11:37:16.000Z</time>
      </trkpt>
      <trkpt lat="43.21176" lon="6.57607">
        <ele>104</ele>
        <time>2013-09-16T11:37:17.000Z</time>
      </trkpt>
      <trkpt lat="43.21171" lon="6.57614">
        <ele>103</ele>
        <time>2013-09-16T11:37:18.000Z</time>
      </trkpt>
      <trkpt lat="43.21167" lon="6.57621">
        <ele>108</ele>
        <time>2013-09-16T11:37:19.000Z</time>
      </trkpt>
      <trkpt lat="43.21162" lon="6.57628">
        <ele>108</ele>
        <time>2013-09-16T11:37:20.000Z</time>
      </trkpt>
      <trkpt lat="43.21157" lon="6.57635">
        <ele>107</ele>
        <time>2013-09-16T11:37:21.000Z</time>
      </trkpt>
      <trkpt lat="43.21152" lon="6.57642">
        <ele>107</ele>
        <time>2013-09-16T11:37:22.000Z</time>
      </trkpt>
      <trkpt lat="43.21148" lon="6.57649">
        <ele>107</ele>
        <time>2013-09-16T11:37:23.000Z</time>
      </trkpt>
      <trkpt lat="43.21145" lon="6.57657">
        <ele>106</ele>
        <time>2013-09-16T11:37:24.000Z</time>
      </trkpt>
      <trkpt lat="43.21144" lon="6.57665">
        <ele>106</ele>
        <time>2013-09-16T11:37:25.000Z</time>
      </trkpt>
      <trkpt lat="43.21144" lon="6.57673">
        <ele>102</ele>
        <time>2013-09-16T11:37:26.000Z</time>
      </trkpt>
      <trkpt lat="43.21145" lon="6.57681">
        <ele>102</ele>
        <time>2013-09-16T11:37:27.000Z</time>
      </trkpt>
      <trkpt lat="43.21148" lon="6.57689">
        <ele>102</ele>
        <time>2013-09-16T11:37:28.000Z</time>
      </trkpt>
      <trkpt lat="43.21152" lon="6.57695">
        <ele>101</ele>
        <time>2013-09-16T11:37:29.000Z</time>
      </trkpt>
      <trkpt lat="43.21156" lon="6.577">
        <ele>101</ele>
        <time>2013-09-16T11:37:30.000Z</time>
      </trkpt>
      <trkpt lat="43.21161" lon="6.57704">
        <ele>100</ele>
        <time>2013-09-16T11:37:31.000Z</time>
      </trkpt>
      <trkpt lat="43.21167" lon="6.57707">
        <ele>94</ele>
        <time>2013-09-16T11:37:32.000Z</time>
      </trkpt>
      <trkpt lat="43.21174" lon="6.57708">
        <ele>94</ele>
        <time>2013-09-16T11:37:33.000Z</time>
      </trkpt>
      <trkpt lat="43.2118" lon="6.57706">
        <ele>94</ele>
        <time>2013-09-16T11:37:34.000Z</time>
      </trkpt>
      <trkpt lat="43.21186" lon="6.57703">
        <ele>94</ele>
        <time>2013-09-16T11:37:35.000Z</time>
      </trkpt>
      <trkpt lat="43.21193" lon="6.57699">
        <ele>94</ele>
        <time>2013-09-16T11:37:36.000Z</time>
      </trkpt>
      <trkpt lat="43.212" lon="6.57695">
        <ele>94</ele>
        <time>2013-09-16T11:37:37.000Z</time>
      </trkpt>
      <trkpt lat="43.21206" lon="6.57691">
        <ele>94</ele>
        <time>2013-09-16T11:37:38.000Z</time>
      </trkpt>
      <trkpt lat="43.21212" lon="6.57688">
        <ele>93</ele>
        <time>2013-09-16T11:37:39.000Z</time>
      </trkpt>
      <trkpt lat="43.21218" lon="6.57687">
        <ele>93</ele>
        <time>2013-09-16T11:37:40.000Z</time>
      </trkpt>
      <trkpt lat="43.21225" lon="6.57689">
        <ele>93</ele>
        <time>2013-09-16T11:37:41.000Z</time>
      </trkpt>
      <trkpt lat="43.21231" lon="6.57694">
        <ele>92</ele>
        <time>2013-09-16T11:37:42.000Z</time>
      </trkpt>
      <trkpt lat="43.21236" lon="6.57698">
        <ele>92</ele>
        <time>2013-09-16T11:37:43.000Z</time>
      </trkpt>
      <trkpt lat="43.21241" lon="6.57703">
        <ele>91</ele>
        <time>2013-09-16T11:37:44.000Z</time>
      </trkpt>
      <trkpt lat="43.21246" lon="6.57708">
        <ele>91</ele>
        <time>2013-09-16T11:37:45.000Z</time>
      </trkpt>
      <trkpt lat="43.21251" lon="6.57712">
        <ele>87</ele>
        <time>2013-09-16T11:37:46.000Z</time>
      </trkpt>
      <trkpt lat="43.21256" lon="6.57717">
        <ele>86</ele>
        <time>2013-09-16T11:37:47.000Z</time>
      </trkpt>
      <trkpt lat="43.21261" lon="6.57722">
        <ele>86</ele>
        <time>2013-09-16T11:37:48.000Z</time>
      </trkpt>
      <trkpt lat="43.21265" lon="6.57728">
        <ele>86</ele>
        <time>2013-09-16T11:37:49.000Z</time>
      </trkpt>
      <trkpt lat="43.21268" lon="6.57736">
        <ele>85</ele>
        <time>2013-09-16T11:37:50.000Z</time>
      </trkpt>
      <trkpt lat="43.21271" lon="6.57743">
        <ele>85</ele>
        <time>2013-09-16T11:37:51.000Z</time>
      </trkpt>
      <trkpt lat="43.21275" lon="6.57751">
        <ele>81</ele>
        <time>2013-09-16T11:37:52.000Z</time>
      </trkpt>
      <trkpt lat="43.21279" lon="6.57757">
        <ele>81</ele>
        <time>2013-09-16T11:37:53.000Z</time>
      </trkpt>
      <trkpt lat="43.21284" lon="6.57764">
        <ele>81</ele>
        <time>2013-09-16T11:37:54.000Z</time>
      </trkpt>
      <trkpt lat="43.21288" lon="6.57772">
        <ele>80</ele>
        <time>2013-09-16T11:37:55.000Z</time>
      </trkpt>
      <trkpt lat="43.21293" lon="6.57779">
        <ele>80</ele>
        <time>2013-09-16T11:37:56.000Z</time>
      </trkpt>
      <trkpt lat="43.21297" lon="6.57787">
        <ele>80</ele>
        <time>2013-09-16T11:37:57.000Z</time>
      </trkpt>
      <trkpt lat="43.21301" lon="6.57796">
        <ele>79</ele>
        <time>2013-09-16T11:37:58.000Z</time>
      </trkpt>
      <trkpt lat="43.21305" lon="6.57806">
        <ele>79</ele>
        <time>2013-09-16T11:37:59.000Z</time>
      </trkpt>
      <trkpt lat="43.21308" lon="6.57815">
        <ele>78</ele>
        <time>2013-09-16T11:38:00.000Z</time>
      </trkpt>
      <trkpt lat="43.21313" lon="6.57823">
        <ele>78</ele>
        <time>2013-09-16T11:38:01.000Z</time>
      </trkpt>
      <trkpt lat="43.21318" lon="6.57831">
        <ele>77</ele>
        <time>2013-09-16T11:38:02.000Z</time>
      </trkpt>
      <trkpt lat="43.21324" lon="6.57838">
        <ele>75</ele>
        <time>2013-09-16T11:38:03.000Z</time>
      </trkpt>
      <trkpt lat="43.2133" lon="6.57846">
        <ele>75</ele>
        <time>2013-09-16T11:38:04.000Z</time>
      </trkpt>
      <trkpt lat="43.21337" lon="6.57853">
        <ele>72</ele>
        <time>2013-09-16T11:38:05.000Z</time>
      </trkpt>
      <trkpt lat="43.21344" lon="6.57861">
        <ele>71</ele>
        <time>2013-09-16T11:38:06.000Z</time>
      </trkpt>
      <trkpt lat="43.2135" lon="6.5787">
        <ele>71</ele>
        <time>2013-09-16T11:38:07.000Z</time>
      </trkpt>
      <trkpt lat="43.21356" lon="6.57879">
        <ele>70</ele>
        <time>2013-09-16T11:38:08.000Z</time>
      </trkpt>
      <trkpt lat="43.21361" lon="6.5789">
        <ele>70</ele>
        <time>2013-09-16T11:38:09.000Z</time>
      </trkpt>
      <trkpt lat="43.21367" lon="6.57902">
        <ele>69</ele>
        <time>2013-09-16T11:38:10.000Z</time>
      </trkpt>
      <trkpt lat="43.21372" lon="6.57913">
        <ele>69</ele>
        <time>2013-09-16T11:38:11.000Z</time>
      </trkpt>
      <trkpt lat="43.21377" lon="6.57925">
        <ele>65</ele>
        <time>2013-09-16T11:38:12.000Z</time>
      </trkpt>
      <trkpt lat="43.21382" lon="6.57935">
        <ele>65</ele>
        <time>2013-09-16T11:38:13.000Z</time>
      </trkpt>
      <trkpt lat="43.21388" lon="6.57945">
        <ele>65</ele>
        <time>2013-09-16T11:38:14.000Z</time>
      </trkpt>
      <trkpt lat="43.21393" lon="6.57955">
        <ele>64</ele>
        <time>2013-09-16T11:38:15.000Z</time>
      </trkpt>
      <trkpt lat="43.21399" lon="6.57964">
        <ele>64</ele>
        <time>2013-09-16T11:38:16.000Z</time>
      </trkpt>
      <trkpt lat="43.21405" lon="6.57973">
        <ele>64</ele>
        <time>2013-09-16T11:38:17.000Z</time>
      </trkpt>
      <trkpt lat="43.21411" lon="6.57982">
        <ele>63</ele>
        <time>2013-09-16T11:38:18.000Z</time>
      </trkpt>
      <trkpt lat="43.21417" lon="6.57991">
        <ele>61</ele>
        <time>2013-09-16T11:38:19.000Z</time>
      </trkpt>
      <trkpt lat="43.21424" lon="6.57999">
        <ele>61</ele>
        <time>2013-09-16T11:38:20.000Z</time>
      </trkpt>
      <trkpt lat="43.21431" lon="6.58005">
        <ele>61</ele>
        <time>2013-09-16T11:38:21.000Z</time>
      </trkpt>
      <trkpt lat="43.21439" lon="6.5801">
        <ele>62</ele>
        <time>2013-09-16T11:38:22.000Z</time>
      </trkpt>
      <trkpt lat="43.21447" lon="6.58014">
        <ele>62</ele>
        <time>2013-09-16T11:38:23.000Z</time>
      </trkpt>
      <trkpt lat="43.21454" lon="6.58018">
        <ele>62</ele>
        <time>2013-09-16T11:38:24.000Z</time>
      </trkpt>
      <trkpt lat="43.21461" lon="6.58022">
        <ele>62</ele>
        <time>2013-09-16T11:38:25.000Z</time>
      </trkpt>
      <trkpt lat="43.21467" lon="6.58027">
        <ele>62</ele>
        <time>2013-09-16T11:38:26.000Z</time>
      </trkpt>
      <trkpt lat="43.21473" lon="6.5803">
        <ele>62</ele>
        <time>2013-09-16T11:38:27.000Z</time>
      </trkpt>
      <trkpt lat="43.21479" lon="6.58034">
        <ele>62</ele>
        <time>2013-09-16T11:38:28.000Z</time>
      </trkpt>
      <trkpt lat="43.21485" lon="6.58036">
        <ele>62</ele>
        <time>2013-09-16T11:38:29.000Z</time>
      </trkpt>
      <trkpt lat="43.2149" lon="6.58039">
        <ele>62</ele>
        <time>2013-09-16T11:38:30.000Z</time>
      </trkpt>
      <trkpt lat="43.21494" lon="6.58042">
        <ele>62</ele>
        <time>2013-09-16T11:38:31.000Z</time>
      </trkpt>
      <trkpt lat="43.21499" lon="6.58044">
        <ele>62</ele>
        <time>2013-09-16T11:38:32.000Z</time>
      </trkpt>
      <trkpt lat="43.21502" lon="6.58047">
        <ele>63</ele>
        <time>2013-09-16T11:38:33.000Z</time>
      </trkpt>
      <trkpt lat="43.21506" lon="6.5805">
        <ele>63</ele>
        <time>2013-09-16T11:38:34.000Z</time>
      </trkpt>
      <trkpt lat="43.21509" lon="6.58052">
        <ele>63</ele>
        <time>2013-09-16T11:38:35.000Z</time>
      </trkpt>
      <trkpt lat="43.21511" lon="6.58054">
        <ele>63</ele>
        <time>2013-09-16T11:38:36.000Z</time>
      </trkpt>
      <trkpt lat="43.21513" lon="6.58056">
        <ele>63</ele>
        <time>2013-09-16T11:38:37.000Z</time>
      </trkpt>
      <trkpt lat="43.21515" lon="6.58058">
        <ele>63</ele>
        <time>2013-09-16T11:38:38.000Z</time>
      </trkpt>
      <trkpt lat="43.21516" lon="6.5806">
        <ele>63</ele>
        <time>2013-09-16T11:38:39.000Z</time>
      </trkpt>
      <trkpt lat="43.21518" lon="6.58062">
        <ele>63</ele>
        <time>2013-09-16T11:38:40.000Z</time>
      </trkpt>
      <trkpt lat="43.2152" lon="6.58064">
        <ele>63</ele>
        <time>2013-09-16T11:38:41.000Z</time>
      </trkpt>
      <trkpt lat="43.21521" lon="6.58066">
        <ele>63</ele>
        <time>2013-09-16T11:38:42.000Z</time>
      </trkpt>
      <trkpt lat="43.21523" lon="6.58067">
        <ele>63</ele>
        <time>2013-09-16T11:38:43.000Z</time>
      </trkpt>
      <trkpt lat="43.21524" lon="6.58069">
        <ele>63</ele>
        <time>2013-09-16T11:38:44.000Z</time>
      </trkpt>
      <trkpt lat="43.21526" lon="6.58071">
        <ele>63</ele>
        <time>2013-09-16T11:38:45.000Z</time>
      </trkpt>
      <trkpt lat="43.21527" lon="6.58073">
        <ele>63</ele>
        <time>2013-09-16T11:38:46.000Z</time>
      </trkpt>
      <trkpt lat="43.21529" lon="6.58075">
        <ele>63</ele>
        <time>2013-09-16T11:38:47.000Z</time>
      </trkpt>
      <trkpt lat="43.2153" lon="6.58077">
        <ele>63</ele>
        <time>2013-09-16T11:38:48.000Z</time>
      </trkpt>
      <trkpt lat="43.21531" lon="6.58078">
        <ele>63</ele>
        <time>2013-09-16T11:38:49.000Z</time>
      </trkpt>
      <trkpt lat="43.21533" lon="6.5808">
        <ele>63</ele>
        <time>2013-09-16T11:38:50.000Z</time>
      </trkpt>
      <trkpt lat="43.21534" lon="6.58082">
        <ele>64</ele>
        <time>2013-09-16T11:38:51.000Z</time>
      </trkpt>
      <trkpt lat="43.21535" lon="6.58084">
        <ele>65</ele>
        <time>2013-09-16T11:38:52.000Z</time>
      </trkpt>
      <trkpt lat="43.21536" lon="6.58085">
        <ele>66</ele>
        <time>2013-09-16T11:38:53.000Z</time>
      </trkpt>
      <trkpt lat="43.21538" lon="6.58087">
        <ele>66</ele>
        <time>2013-09-16T11:38:54.000Z</time>
      </trkpt>
      <trkpt lat="43.21539" lon="6.58088">
        <ele>66</ele>
        <time>2013-09-16T11:38:55.000Z</time>
      </trkpt>
      <trkpt lat="43.2154" lon="6.5809">
        <ele>66</ele>
        <time>2013-09-16T11:38:56.000Z</time>
      </trkpt>
      <trkpt lat="43.21542" lon="6.58091">
        <ele>66</ele>
        <time>2013-09-16T11:38:57.000Z</time>
      </trkpt>
      <trkpt lat="43.21543" lon="6.58093">
        <ele>66</ele>
        <time>2013-09-16T11:38:58.000Z</time>
      </trkpt>
      <trkpt lat="43.21544" lon="6.58094">
        <ele>66</ele>
        <time>2013-09-16T11:38:59.000Z</time>
      </trkpt>
      <trkpt lat="43.21546" lon="6.58096">
        <ele>66</ele>
        <time>2013-09-16T11:39:00.000Z</time>
      </trkpt>
      <trkpt lat="43.21547" lon="6.58098">
        <ele>66</ele>
        <time>2013-09-16T11:39:01.000Z</time>
      </trkpt>
      <trkpt lat="43.21548" lon="6.581">
        <ele>66</ele>
        <time>2013-09-16T11:39:02.000Z</time>
      </trkpt>
      <trkpt lat="43.21549" lon="6.58101">
        <ele>66</ele>
        <time>2013-09-16T11:39:03.000Z</time>
      </trkpt>
      <trkpt lat="43.21551" lon="6.58103">
        <ele>66</ele>
        <time>2013-09-16T11:39:04.000Z</time>
      </trkpt>
      <trkpt lat="43.21552" lon="6.58104">
        <ele>66</ele>
        <time>2013-09-16T11:39:05.000Z</time>
      </trkpt>
      <trkpt lat="43.21553" lon="6.58106">
        <ele>66</ele>
        <time>2013-09-16T11:39:06.000Z</time>
      </trkpt>
      <trkpt lat="43.21555" lon="6.58108">
        <ele>66</ele>
        <time>2013-09-16T11:39:07.000Z</time>
      </trkpt>
      <trkpt lat="43.21556" lon="6.58109">
        <ele>66</ele>
        <time>2013-09-16T11:39:08.000Z</time>
      </trkpt>
      <trkpt lat="43.21558" lon="6.58111">
        <ele>66</ele>
        <time>2013-09-16T11:39:09.000Z</time>
      </trkpt>
      <trkpt lat="43.21559" lon="6.58113">
        <ele>66</ele>
        <time>2013-09-16T11:39:10.000Z</time>
      </trkpt>
      <trkpt lat="43.21561" lon="6.58115">
        <ele>66</ele>
        <time>2013-09-16T11:39:11.000Z</time>
      </trkpt>
      <trkpt lat="43.21562" lon="6.58117">
        <ele>66</ele>
        <time>2013-09-16T11:39:12.000Z</time>
      </trkpt>
      <trkpt lat="43.21563" lon="6.58119">
        <ele>66</ele>
        <time>2013-09-16T11:39:13.000Z</time>
      </trkpt>
      <trkpt lat="43.21565" lon="6.58121">
        <ele>66</ele>
        <time>2013-09-16T11:39:14.000Z</time>
      </trkpt>
      <trkpt lat="43.21566" lon="6.58123">
        <ele>66</ele>
        <time>2013-09-16T11:39:15.000Z</time>
      </trkpt>
      <trkpt lat="43.21568" lon="6.58124">
        <ele>66</ele>
        <time>2013-09-16T11:39:16.000Z</time>
      </trkpt>
      <trkpt lat="43.21569" lon="6.58127">
        <ele>67</ele>
        <time>2013-09-16T11:39:17.000Z</time>
      </trkpt>
      <trkpt lat="43.2157" lon="6.58129">
        <ele>67</ele>
        <time>2013-09-16T11:39:18.000Z</time>
      </trkpt>
      <trkpt lat="43.21572" lon="6.58131">
        <ele>67</ele>
        <time>2013-09-16T11:39:19.000Z</time>
      </trkpt>
      <trkpt lat="43.21573" lon="6.58133">
        <ele>67</ele>
        <time>2013-09-16T11:39:20.000Z</time>
      </trkpt>
      <trkpt lat="43.21575" lon="6.58135">
        <ele>67</ele>
        <time>2013-09-16T11:39:21.000Z</time>
      </trkpt>
      <trkpt lat="43.21576" lon="6.58137">
        <ele>67</ele>
        <time>2013-09-16T11:39:22.000Z</time>
      </trkpt>
      <trkpt lat="43.21577" lon="6.58139">
        <ele>67</ele>
        <time>2013-09-16T11:39:23.000Z</time>
      </trkpt>
      <trkpt lat="43.21579" lon="6.58141">
        <ele>67</ele>
        <time>2013-09-16T11:39:24.000Z</time>
      </trkpt>
      <trkpt lat="43.2158" lon="6.58143">
        <ele>67</ele>
        <time>2013-09-16T11:39:25.000Z</time>
      </trkpt>
      <trkpt lat="43.21581" lon="6.58145">
        <ele>67</ele>
        <time>2013-09-16T11:39:26.000Z</time>
      </trkpt>
      <trkpt lat="43.21582" lon="6.58147">
        <ele>67</ele>
        <time>2013-09-16T11:39:27.000Z</time>
      </trkpt>
      <trkpt lat="43.21584" lon="6.58149">
        <ele>68</ele>
        <time>2013-09-16T11:39:28.000Z</time>
      </trkpt>
      <trkpt lat="43.21585" lon="6.58152">
        <ele>68</ele>
        <time>2013-09-16T11:39:29.000Z</time>
      </trkpt>
      <trkpt lat="43.21586" lon="6.58154">
        <ele>68</ele>
        <time>2013-09-16T11:39:30.000Z</time>
      </trkpt>
      <trkpt lat="43.21587" lon="6.58156">
        <ele>68</ele>
        <time>2013-09-16T11:39:31.000Z</time>
      </trkpt>
      <trkpt lat="43.21588" lon="6.58158">
        <ele>69</ele>
        <time>2013-09-16T11:39:32.000Z</time>
      </trkpt>
      <trkpt lat="43.21589" lon="6.58161">
        <ele>69</ele>
        <time>2013-09-16T11:39:33.000Z</time>
      </trkpt>
      <trkpt lat="43.2159" lon="6.58163">
        <ele>69</ele>
        <time>2013-09-16T11:39:34.000Z</time>
      </trkpt>
      <trkpt lat="43.21591" lon="6.58165">
        <ele>69</ele>
        <time>2013-09-16T11:39:35.000Z</time>
      </trkpt>
      <trkpt lat="43.21592" lon="6.58168">
        <ele>70</ele>
        <time>2013-09-16T11:39:36.000Z</time>
      </trkpt>
      <trkpt lat="43.21593" lon="6.5817">
        <ele>70</ele>
        <time>2013-09-16T11:39:37.000Z</time>
      </trkpt>
      <trkpt lat="43.21594" lon="6.58172">
        <ele>70</ele>
        <time>2013-09-16T11:39:38.000Z</time>
      </trkpt>
      <trkpt lat="43.21595" lon="6.58175">
        <ele>71</ele>
        <time>2013-09-16T11:39:39.000Z</time>
      </trkpt>
      <trkpt lat="43.21596" lon="6.58177">
        <ele>71</ele>
        <time>2013-09-16T11:39:40.000Z</time>
      </trkpt>
      <trkpt lat="43.21596" lon="6.58179">
        <ele>71</ele>
        <time>2013-09-16T11:39:41.000Z</time>
      </trkpt>
      <trkpt lat="43.21597" lon="6.58182">
        <ele>71</ele>
        <time>2013-09-16T11:39:42.000Z</time>
      </trkpt>
      <trkpt lat="43.21598" lon="6.58184">
        <ele>71</ele>
        <time>2013-09-16T11:39:43.000Z</time>
      </trkpt>
      <trkpt lat="43.21599" lon="6.58187">
        <ele>71</ele>
        <time>2013-09-16T11:39:44.000Z</time>
      </trkpt>
      <trkpt lat="43.21599" lon="6.58189">
        <ele>72</ele>
        <time>2013-09-16T11:39:45.000Z</time>
      </trkpt>
      <trkpt lat="43.216" lon="6.58192">
        <ele>72</ele>
        <time>2013-09-16T11:39:46.000Z</time>
      </trkpt>
      <trkpt lat="43.216" lon="6.58194">
        <ele>72</ele>
        <time>2013-09-16T11:39:47.000Z</time>
      </trkpt>
      <trkpt lat="43.21601" lon="6.58196">
        <ele>72</ele>
        <time>2013-09-16T11:39:48.000Z</time>
      </trkpt>
      <trkpt lat="43.21601" lon="6.58199">
        <ele>72</ele>
        <time>2013-09-16T11:39:49.000Z</time>
      </trkpt>
      <trkpt lat="43.21601" lon="6.58201">
        <ele>72</ele>
        <time>2013-09-16T11:39:50.000Z</time>
      </trkpt>
      <trkpt lat="43.21602" lon="6.58203">
        <ele>72</ele>
        <time>2013-09-16T11:39:51.000Z</time>
      </trkpt>
      <trkpt lat="43.21602" lon="6.58205">
        <ele>72</ele>
        <time>2013-09-16T11:39:52.000Z</time>
      </trkpt>
      <trkpt lat="43.21603" lon="6.58207">
        <ele>73</ele>
        <time>2013-09-16T11:39:53.000Z</time>
      </trkpt>
      <trkpt lat="43.21603" lon="6.58209">
        <ele>73</ele>
        <time>2013-09-16T11:39:54.000Z</time>
      </trkpt>
      <trkpt lat="43.21603" lon="6.58211">
        <ele>73</ele>
        <time>2013-09-16T11:39:55.000Z</time>
      </trkpt>
      <trkpt lat="43.21604" lon="6.58212">
        <ele>73</ele>
        <time>2013-09-16T11:39:56.000Z</time>
      </trkpt>
      <trkpt lat="43.21604" lon="6.58214">
        <ele>73</ele>
        <time>2013-09-16T11:39:57.000Z</time>
      </trkpt>
      <trkpt lat="43.21604" lon="6.58216">
        <ele>73</ele>
        <time>2013-09-16T11:39:58.000Z</time>
      </trkpt>
      <trkpt lat="43.21605" lon="6.58218">
        <ele>73</ele>
        <time>2013-09-16T11:39:59.000Z</time>
      </trkpt>
      <trkpt lat="43.21605" lon="6.5822">
        <ele>73</ele>
        <time>2013-09-16T11:40:00.000Z</time>
      </trkpt>
      <trkpt lat="43.21605" lon="6.58221">
        <ele>73</ele>
        <time>2013-09-16T11:40:01.000Z</time>
      </trkpt>
      <trkpt lat="43.21605" lon="6.58223">
        <ele>73</ele>
        <time>2013-09-16T11:40:02.000Z</time>
      </trkpt>
      <trkpt lat="43.21605" lon="6.58225">
        <ele>74</ele>
        <time>2013-09-16T11:40:03.000Z</time>
      </trkpt>
      <trkpt lat="43.21606" lon="6.58227">
        <ele>74</ele>
        <time>2013-09-16T11:40:04.000Z</time>
      </trkpt>
      <trkpt lat="43.21606" lon="6.58229">
        <ele>74</ele>
        <time>2013-09-16T11:40:05.000Z</time>
      </trkpt>
      <trkpt lat="43.21606" lon="6.58231">
        <ele>74</ele>
        <time>2013-09-16T11:40:06.000Z</time>
      </trkpt>
      <trkpt lat="43.21606" lon="6.58233">
        <ele>74</ele>
        <time>2013-09-16T11:40:07.000Z</time>
      </trkpt>
      <trkpt lat="43.21607" lon="6.58235">
        <ele>74</ele>
        <time>2013-09-16T11:40:08.000Z</time>
      </trkpt>
      <trkpt lat="43.21607" lon="6.58237">
        <ele>74</ele>
        <time>2013-09-16T11:40:09.000Z</time>
      </trkpt>
      <trkpt lat="43.21607" lon="6.58239">
        <ele>74</ele>
        <time>2013-09-16T11:40:10.000Z</time>
      </trkpt>
      <trkpt lat="43.21607" lon="6.58244">
        <ele>74</ele>
        <time>2013-09-16T11:40:12.000Z</time>
      </trkpt>
      <trkpt lat="43.21607" lon="6.58246">
        <ele>74</ele>
        <time>2013-09-16T11:40:13.000Z</time>
      </trkpt>
      <trkpt lat="43.21608" lon="6.58248">
        <ele>74</ele>
        <time>2013-09-16T11:40:14.000Z</time>
      </trkpt>
      <trkpt lat="43.21608" lon="6.5825">
        <ele>77</ele>
        <time>2013-09-16T11:40:15.000Z</time>
      </trkpt>
      <trkpt lat="43.21608" lon="6.58252">
        <ele>77</ele>
        <time>2013-09-16T11:40:16.000Z</time>
      </trkpt>
      <trkpt lat="43.21609" lon="6.58254">
        <ele>77</ele>
        <time>2013-09-16T11:40:17.000Z</time>
      </trkpt>
      <trkpt lat="43.21609" lon="6.58257">
        <ele>77</ele>
        <time>2013-09-16T11:40:18.000Z</time>
      </trkpt>
      <trkpt lat="43.2161" lon="6.58259">
        <ele>77</ele>
        <time>2013-09-16T11:40:19.000Z</time>
      </trkpt>
      <trkpt lat="43.2161" lon="6.58261">
        <ele>77</ele>
        <time>2013-09-16T11:40:20.000Z</time>
      </trkpt>
      <trkpt lat="43.2161" lon="6.58264">
        <ele>77</ele>
        <time>2013-09-16T11:40:21.000Z</time>
      </trkpt>
      <trkpt lat="43.2161" lon="6.58266">
        <ele>77</ele>
        <time>2013-09-16T11:40:22.000Z</time>
      </trkpt>
      <trkpt lat="43.21611" lon="6.58269">
        <ele>77</ele>
        <time>2013-09-16T11:40:23.000Z</time>
      </trkpt>
      <trkpt lat="43.21612" lon="6.58271">
        <ele>77</ele>
        <time>2013-09-16T11:40:24.000Z</time>
      </trkpt>
      <trkpt lat="43.21612" lon="6.58274">
        <ele>77</ele>
        <time>2013-09-16T11:40:25.000Z</time>
      </trkpt>
      <trkpt lat="43.21613" lon="6.58277">
        <ele>77</ele>
        <time>2013-09-16T11:40:26.000Z</time>
      </trkpt>
      <trkpt lat="43.21613" lon="6.58279">
        <ele>77</ele>
        <time>2013-09-16T11:40:27.000Z</time>
      </trkpt>
      <trkpt lat="43.21614" lon="6.58281">
        <ele>77</ele>
        <time>2013-09-16T11:40:28.000Z</time>
      </trkpt>
      <trkpt lat="43.21615" lon="6.58283">
        <ele>78</ele>
        <time>2013-09-16T11:40:29.000Z</time>
      </trkpt>
      <trkpt lat="43.21616" lon="6.58286">
        <ele>78</ele>
        <time>2013-09-16T11:40:30.000Z</time>
      </trkpt>
      <trkpt lat="43.21617" lon="6.58288">
        <ele>78</ele>
        <time>2013-09-16T11:40:31.000Z</time>
      </trkpt>
      <trkpt lat="43.21617" lon="6.5829">
        <ele>78</ele>
        <time>2013-09-16T11:40:32.000Z</time>
      </trkpt>
      <trkpt lat="43.21618" lon="6.58291">
        <ele>78</ele>
        <time>2013-09-16T11:40:33.000Z</time>
      </trkpt>
      <trkpt lat="43.21619" lon="6.58293">
        <ele>78</ele>
        <time>2013-09-16T11:40:34.000Z</time>
      </trkpt>
      <trkpt lat="43.21619" lon="6.58295">
        <ele>78</ele>
        <time>2013-09-16T11:40:35.000Z</time>
      </trkpt>
      <trkpt lat="43.2162" lon="6.58296">
        <ele>78</ele>
        <time>2013-09-16T11:40:36.000Z</time>
      </trkpt>
      <trkpt lat="43.21621" lon="6.58298">
        <ele>78</ele>
        <time>2013-09-16T11:40:37.000Z</time>
      </trkpt>
      <trkpt lat="43.21621" lon="6.583">
        <ele>78</ele>
        <time>2013-09-16T11:40:38.000Z</time>
      </trkpt>
      <trkpt lat="43.21622" lon="6.58302">
        <ele>78</ele>
        <time>2013-09-16T11:40:39.000Z</time>
      </trkpt>
      <trkpt lat="43.21622" lon="6.58303">
        <ele>78</ele>
        <time>2013-09-16T11:40:40.000Z</time>
      </trkpt>
      <trkpt lat="43.21623" lon="6.58305">
        <ele>78</ele>
        <time>2013-09-16T11:40:41.000Z</time>
      </trkpt>
      <trkpt lat="43.21623" lon="6.58307">
        <ele>78</ele>
        <time>2013-09-16T11:40:42.000Z</time>
      </trkpt>
      <trkpt lat="43.21624" lon="6.58309">
        <ele>78</ele>
        <time>2013-09-16T11:40:43.000Z</time>
      </trkpt>
      <trkpt lat="43.21625" lon="6.5831">
        <ele>78</ele>
        <time>2013-09-16T11:40:44.000Z</time>
      </trkpt>
      <trkpt lat="43.21625" lon="6.58312">
        <ele>78</ele>
        <time>2013-09-16T11:40:45.000Z</time>
      </trkpt>
      <trkpt lat="43.21626" lon="6.58314">
        <ele>78</ele>
        <time>2013-09-16T11:40:46.000Z</time>
      </trkpt>
      <trkpt lat="43.21627" lon="6.58315">
        <ele>78</ele>
        <time>2013-09-16T11:40:47.000Z</time>
      </trkpt>
      <trkpt lat="43.21628" lon="6.58317">
        <ele>78</ele>
        <time>2013-09-16T11:40:48.000Z</time>
      </trkpt>
      <trkpt lat="43.21628" lon="6.58318">
        <ele>78</ele>
        <time>2013-09-16T11:40:49.000Z</time>
      </trkpt>
      <trkpt lat="43.21629" lon="6.5832">
        <ele>78</ele>
        <time>2013-09-16T11:40:50.000Z</time>
      </trkpt>
      <trkpt lat="43.2163" lon="6.58321">
        <ele>78</ele>
        <time>2013-09-16T11:40:51.000Z</time>
      </trkpt>
      <trkpt lat="43.21631" lon="6.58323">
        <ele>78</ele>
        <time>2013-09-16T11:40:52.000Z</time>
      </trkpt>
      <trkpt lat="43.21631" lon="6.58324">
        <ele>78</ele>
        <time>2013-09-16T11:40:53.000Z</time>
      </trkpt>
      <trkpt lat="43.21632" lon="6.58326">
        <ele>78</ele>
        <time>2013-09-16T11:40:54.000Z</time>
      </trkpt>
      <trkpt lat="43.21632" lon="6.58327">
        <ele>78</ele>
        <time>2013-09-16T11:40:55.000Z</time>
      </trkpt>
      <trkpt lat="43.21633" lon="6.58329">
        <ele>78</ele>
        <time>2013-09-16T11:40:56.000Z</time>
      </trkpt>
      <trkpt lat="43.21633" lon="6.5833">
        <ele>78</ele>
        <time>2013-09-16T11:40:57.000Z</time>
      </trkpt>
      <trkpt lat="43.21634" lon="6.58332">
        <ele>78</ele>
        <time>2013-09-16T11:40:58.000Z</time>
      </trkpt>
      <trkpt lat="43.21634" lon="6.58333">
        <ele>78</ele>
        <time>2013-09-16T11:40:59.000Z</time>
      </trkpt>
      <trkpt lat="43.21635" lon="6.58335">
        <ele>82</ele>
        <time>2013-09-16T11:41:00.000Z</time>
      </trkpt>
      <trkpt lat="43.21635" lon="6.58336">
        <ele>82</ele>
        <time>2013-09-16T11:41:01.000Z</time>
      </trkpt>
      <trkpt lat="43.21636" lon="6.58338">
        <ele>82</ele>
        <time>2013-09-16T11:41:02.000Z</time>
      </trkpt>
      <trkpt lat="43.21636" lon="6.58339">
        <ele>82</ele>
        <time>2013-09-16T11:41:03.000Z</time>
      </trkpt>
      <trkpt lat="43.21637" lon="6.58341">
        <ele>82</ele>
        <time>2013-09-16T11:41:04.000Z</time>
      </trkpt>
      <trkpt lat="43.21637" lon="6.58342">
        <ele>82</ele>
        <time>2013-09-16T11:41:05.000Z</time>
      </trkpt>
      <trkpt lat="43.21637" lon="6.58344">
        <ele>82</ele>
        <time>2013-09-16T11:41:06.000Z</time>
      </trkpt>
      <trkpt lat="43.21637" lon="6.58346">
        <ele>82</ele>
        <time>2013-09-16T11:41:07.000Z</time>
      </trkpt>
      <trkpt lat="43.21638" lon="6.58349">
        <ele>82</ele>
        <time>2013-09-16T11:41:09.000Z</time>
      </trkpt>
      <trkpt lat="43.21638" lon="6.58353">
        <ele>82</ele>
        <time>2013-09-16T11:41:12.000Z</time>
      </trkpt>
      <trkpt lat="43.21638" lon="6.58355">
        <ele>82</ele>
        <time>2013-09-16T11:41:13.000Z</time>
      </trkpt>
      <trkpt lat="43.21638" lon="6.58356">
        <ele>82</ele>
        <time>2013-09-16T11:41:14.000Z</time>
      </trkpt>
      <trkpt lat="43.21639" lon="6.58358">
        <ele>82</ele>
        <time>2013-09-16T11:41:15.000Z</time>
      </trkpt>
      <trkpt lat="43.21639" lon="6.5836">
        <ele>82</ele>
        <time>2013-09-16T11:41:16.000Z</time>
      </trkpt>
      <trkpt lat="43.21639" lon="6.58361">
        <ele>83</ele>
        <time>2013-09-16T11:41:17.000Z</time>
      </trkpt>
      <trkpt lat="43.21639" lon="6.58364">
        <ele>83</ele>
        <time>2013-09-16T11:41:19.000Z</time>
      </trkpt>
      <trkpt lat="43.21639" lon="6.58366">
        <ele>83</ele>
        <time>2013-09-16T11:41:20.000Z</time>
      </trkpt>
      <trkpt lat="43.21639" lon="6.58368">
        <ele>83</ele>
        <time>2013-09-16T11:41:21.000Z</time>
      </trkpt>
      <trkpt lat="43.2164" lon="6.58369">
        <ele>83</ele>
        <time>2013-09-16T11:41:22.000Z</time>
      </trkpt>
      <trkpt lat="43.2164" lon="6.58371">
        <ele>83</ele>
        <time>2013-09-16T11:41:23.000Z</time>
      </trkpt>
      <trkpt lat="43.21641" lon="6.58373">
        <ele>83</ele>
        <time>2013-09-16T11:41:24.000Z</time>
      </trkpt>
      <trkpt lat="43.21641" lon="6.58375">
        <ele>83</ele>
        <time>2013-09-16T11:41:25.000Z</time>
      </trkpt>
      <trkpt lat="43.21642" lon="6.58377">
        <ele>83</ele>
        <time>2013-09-16T11:41:26.000Z</time>
      </trkpt>
      <trkpt lat="43.21642" lon="6.58379">
        <ele>83</ele>
        <time>2013-09-16T11:41:27.000Z</time>
      </trkpt>
      <trkpt lat="43.21643" lon="6.5838">
        <ele>83</ele>
        <time>2013-09-16T11:41:28.000Z</time>
      </trkpt>
      <trkpt lat="43.21643" lon="6.58382">
        <ele>84</ele>
        <time>2013-09-16T11:41:29.000Z</time>
      </trkpt>
      <trkpt lat="43.21643" lon="6.58384">
        <ele>84</ele>
        <time>2013-09-16T11:41:30.000Z</time>
      </trkpt>
      <trkpt lat="43.21644" lon="6.58386">
        <ele>84</ele>
        <time>2013-09-16T11:41:31.000Z</time>
      </trkpt>
      <trkpt lat="43.21644" lon="6.58388">
        <ele>84</ele>
        <time>2013-09-16T11:41:32.000Z</time>
      </trkpt>
      <trkpt lat="43.21645" lon="6.5839">
        <ele>84</ele>
        <time>2013-09-16T11:41:33.000Z</time>
      </trkpt>
      <trkpt lat="43.21645" lon="6.58392">
        <ele>84</ele>
        <time>2013-09-16T11:41:34.000Z</time>
      </trkpt>
      <trkpt lat="43.21645" lon="6.58394">
        <ele>84</ele>
        <time>2013-09-16T11:41:35.000Z</time>
      </trkpt>
      <trkpt lat="43.21646" lon="6.58396">
        <ele>84</ele>
        <time>2013-09-16T11:41:36.000Z</time>
      </trkpt>
      <trkpt lat="43.21646" lon="6.58398">
        <ele>84</ele>
        <time>2013-09-16T11:41:37.000Z</time>
      </trkpt>
      <trkpt lat="43.21646" lon="6.58399">
        <ele>84</ele>
        <time>2013-09-16T11:41:38.000Z</time>
      </trkpt>
      <trkpt lat="43.21647" lon="6.58401">
        <ele>84</ele>
        <time>2013-09-16T11:41:39.000Z</time>
      </trkpt>
      <trkpt lat="43.21647" lon="6.58403">
        <ele>84</ele>
        <time>2013-09-16T11:41:40.000Z</time>
      </trkpt>
      <trkpt lat="43.21647" lon="6.58405">
        <ele>84</ele>
        <time>2013-09-16T11:41:41.000Z</time>
      </trkpt>
      <trkpt lat="43.21648" lon="6.58407">
        <ele>84</ele>
        <time>2013-09-16T11:41:42.000Z</time>
      </trkpt>
      <trkpt lat="43.21648" lon="6.58409">
        <ele>85</ele>
        <time>2013-09-16T11:41:43.000Z</time>
      </trkpt>
      <trkpt lat="43.21648" lon="6.58411">
        <ele>85</ele>
        <time>2013-09-16T11:41:44.000Z</time>
      </trkpt>
      <trkpt lat="43.21649" lon="6.58413">
        <ele>85</ele>
        <time>2013-09-16T11:41:45.000Z</time>
      </trkpt>
      <trkpt lat="43.21649" lon="6.58415">
        <ele>85</ele>
        <time>2013-09-16T11:41:46.000Z</time>
      </trkpt>
      <trkpt lat="43.21649" lon="6.58417">
        <ele>89</ele>
        <time>2013-09-16T11:41:47.000Z</time>
      </trkpt>
      <trkpt lat="43.2165" lon="6.58421">
        <ele>89</ele>
        <time>2013-09-16T11:41:49.000Z</time>
      </trkpt>
      <trkpt lat="43.2165" lon="6.58425">
        <ele>89</ele>
        <time>2013-09-16T11:41:51.000Z</time>
      </trkpt>
      <trkpt lat="43.2165" lon="6.58427">
        <ele>89</ele>
        <time>2013-09-16T11:41:52.000Z</time>
      </trkpt>
      <trkpt lat="43.2165" lon="6.58429">
        <ele>90</ele>
        <time>2013-09-16T11:41:53.000Z</time>
      </trkpt>
      <trkpt lat="43.21651" lon="6.58431">
        <ele>90</ele>
        <time>2013-09-16T11:41:54.000Z</time>
      </trkpt>
      <trkpt lat="43.21651" lon="6.58433">
        <ele>90</ele>
        <time>2013-09-16T11:41:55.000Z</time>
      </trkpt>
      <trkpt lat="43.21651" lon="6.58435">
        <ele>90</ele>
        <time>2013-09-16T11:41:56.000Z</time>
      </trkpt>
      <trkpt lat="43.21652" lon="6.58437">
        <ele>90</ele>
        <time>2013-09-16T11:41:57.000Z</time>
      </trkpt>
      <trkpt lat="43.21652" lon="6.58439">
        <ele>91</ele>
        <time>2013-09-16T11:41:58.000Z</time>
      </trkpt>
      <trkpt lat="43.21653" lon="6.58442">
        <ele>91</ele>
        <time>2013-09-16T11:41:59.000Z</time>
      </trkpt>
      <trkpt lat="43.21653" lon="6.58444">
        <ele>91</ele>
        <time>2013-09-16T11:42:00.000Z</time>
      </trkpt>
      <trkpt lat="43.21653" lon="6.58446">
        <ele>91</ele>
        <time>2013-09-16T11:42:01.000Z</time>
      </trkpt>
      <trkpt lat="43.21653" lon="6.58448">
        <ele>91</ele>
        <time>2013-09-16T11:42:02.000Z</time>
      </trkpt>
      <trkpt lat="43.21654" lon="6.5845">
        <ele>92</ele>
        <time>2013-09-16T11:42:03.000Z</time>
      </trkpt>
      <trkpt lat="43.21654" lon="6.58452">
        <ele>92</ele>
        <time>2013-09-16T11:42:04.000Z</time>
      </trkpt>
      <trkpt lat="43.21654" lon="6.58454">
        <ele>92</ele>
        <time>2013-09-16T11:42:05.000Z</time>
      </trkpt>
      <trkpt lat="43.21654" lon="6.58456">
        <ele>92</ele>
        <time>2013-09-16T11:42:06.000Z</time>
      </trkpt>
      <trkpt lat="43.21654" lon="6.58458">
        <ele>92</ele>
        <time>2013-09-16T11:42:07.000Z</time>
      </trkpt>
      <trkpt lat="43.21655" lon="6.5846">
        <ele>93</ele>
        <time>2013-09-16T11:42:08.000Z</time>
      </trkpt>
      <trkpt lat="43.21655" lon="6.58463">
        <ele>93</ele>
        <time>2013-09-16T11:42:09.000Z</time>
      </trkpt>
      <trkpt lat="43.21655" lon="6.58465">
        <ele>93</ele>
        <time>2013-09-16T11:42:10.000Z</time>
      </trkpt>
      <trkpt lat="43.21656" lon="6.58467">
        <ele>93</ele>
        <time>2013-09-16T11:42:11.000Z</time>
      </trkpt>
      <trkpt lat="43.21655" lon="6.58469">
        <ele>93</ele>
        <time>2013-09-16T11:42:12.000Z</time>
      </trkpt>
      <trkpt lat="43.21655" lon="6.58471">
        <ele>93</ele>
        <time>2013-09-16T11:42:13.000Z</time>
      </trkpt>
      <trkpt lat="43.21655" lon="6.58473">
        <ele>94</ele>
        <time>2013-09-16T11:42:14.000Z</time>
      </trkpt>
      <trkpt lat="43.21656" lon="6.58475">
        <ele>94</ele>
        <time>2013-09-16T11:42:15.000Z</time>
      </trkpt>
      <trkpt lat="43.21656" lon="6.58477">
        <ele>94</ele>
        <time>2013-09-16T11:42:16.000Z</time>
      </trkpt>
      <trkpt lat="43.21657" lon="6.58479">
        <ele>94</ele>
        <time>2013-09-16T11:42:17.000Z</time>
      </trkpt>
      <trkpt lat="43.21657" lon="6.58481">
        <ele>94</ele>
        <time>2013-09-16T11:42:18.000Z</time>
      </trkpt>
      <trkpt lat="43.21658" lon="6.58483">
        <ele>94</ele>
        <time>2013-09-16T11:42:19.000Z</time>
      </trkpt>
      <trkpt lat="43.21658" lon="6.58485">
        <ele>94</ele>
        <time>2013-09-16T11:42:20.000Z</time>
      </trkpt>
      <trkpt lat="43.21659" lon="6.58487">
        <ele>94</ele>
        <time>2013-09-16T11:42:21.000Z</time>
      </trkpt>
      <trkpt lat="43.2166" lon="6.58488">
        <ele>94</ele>
        <time>2013-09-16T11:42:22.000Z</time>
      </trkpt>
      <trkpt lat="43.21661" lon="6.5849">
        <ele>94</ele>
        <time>2013-09-16T11:42:23.000Z</time>
      </trkpt>
      <trkpt lat="43.21662" lon="6.58492">
        <ele>95</ele>
        <time>2013-09-16T11:42:24.000Z</time>
      </trkpt>
      <trkpt lat="43.21663" lon="6.58494">
        <ele>95</ele>
        <time>2013-09-16T11:42:25.000Z</time>
      </trkpt>
      <trkpt lat="43.21663" lon="6.58496">
        <ele>95</ele>
        <time>2013-09-16T11:42:26.000Z</time>
      </trkpt>
      <trkpt lat="43.21664" lon="6.58497">
        <ele>95</ele>
        <time>2013-09-16T11:42:27.000Z</time>
      </trkpt>
      <trkpt lat="43.21665" lon="6.58499">
        <ele>95</ele>
        <time>2013-09-16T11:42:28.000Z</time>
      </trkpt>
      <trkpt lat="43.21666" lon="6.58501">
        <ele>95</ele>
        <time>2013-09-16T11:42:29.000Z</time>
      </trkpt>
      <trkpt lat="43.21667" lon="6.58503">
        <ele>96</ele>
        <time>2013-09-16T11:42:30.000Z</time>
      </trkpt>
      <trkpt lat="43.21668" lon="6.58505">
        <ele>96</ele>
        <time>2013-09-16T11:42:31.000Z</time>
      </trkpt>
      <trkpt lat="43.21669" lon="6.58507">
        <ele>96</ele>
        <time>2013-09-16T11:42:32.000Z</time>
      </trkpt>
      <trkpt lat="43.2167" lon="6.58509">
        <ele>97</ele>
        <time>2013-09-16T11:42:33.000Z</time>
      </trkpt>
      <trkpt lat="43.21671" lon="6.5851">
        <ele>97</ele>
        <time>2013-09-16T11:42:34.000Z</time>
      </trkpt>
      <trkpt lat="43.21672" lon="6.58512">
        <ele>97</ele>
        <time>2013-09-16T11:42:35.000Z</time>
      </trkpt>
      <trkpt lat="43.21673" lon="6.58514">
        <ele>98</ele>
        <time>2013-09-16T11:42:36.000Z</time>
      </trkpt>
      <trkpt lat="43.21674" lon="6.58516">
        <ele>98</ele>
        <time>2013-09-16T11:42:37.000Z</time>
      </trkpt>
      <trkpt lat="43.21675" lon="6.58518">
        <ele>98</ele>
        <time>2013-09-16T11:42:38.000Z</time>
      </trkpt>
      <trkpt lat="43.21676" lon="6.58519">
        <ele>98</ele>
        <time>2013-09-16T11:42:39.000Z</time>
      </trkpt>
      <trkpt lat="43.21677" lon="6.58521">
        <ele>98</ele>
        <time>2013-09-16T11:42:40.000Z</time>
      </trkpt>
      <trkpt lat="43.21678" lon="6.58522">
        <ele>99</ele>
        <time>2013-09-16T11:42:41.000Z</time>
      </trkpt>
      <trkpt lat="43.21679" lon="6.58524">
        <ele>99</ele>
        <time>2013-09-16T11:42:42.000Z</time>
      </trkpt>
      <trkpt lat="43.21681" lon="6.58526">
        <ele>99</ele>
        <time>2013-09-16T11:42:43.000Z</time>
      </trkpt>
      <trkpt lat="43.21682" lon="6.58528">
        <ele>99</ele>
        <time>2013-09-16T11:42:44.000Z</time>
      </trkpt>
      <trkpt lat="43.21684" lon="6.58529">
        <ele>99</ele>
        <time>2013-09-16T11:42:45.000Z</time>
      </trkpt>
      <trkpt lat="43.21685" lon="6.58531">
        <ele>100</ele>
        <time>2013-09-16T11:42:46.000Z</time>
      </trkpt>
      <trkpt lat="43.21687" lon="6.58533">
        <ele>100</ele>
        <time>2013-09-16T11:42:47.000Z</time>
      </trkpt>
      <trkpt lat="43.21689" lon="6.58534">
        <ele>100</ele>
        <time>2013-09-16T11:42:48.000Z</time>
      </trkpt>
      <trkpt lat="43.21692" lon="6.58536">
        <ele>100</ele>
        <time>2013-09-16T11:42:49.000Z</time>
      </trkpt>
      <trkpt lat="43.21695" lon="6.58537">
        <ele>100</ele>
        <time>2013-09-16T11:42:50.000Z</time>
      </trkpt>
      <trkpt lat="43.21698" lon="6.58539">
        <ele>100</ele>
        <time>2013-09-16T11:42:51.000Z</time>
      </trkpt>
      <trkpt lat="43.21702" lon="6.58539">
        <ele>100</ele>
        <time>2013-09-16T11:42:52.000Z</time>
      </trkpt>
      <trkpt lat="43.21706" lon="6.5854">
        <ele>100</ele>
        <time>2013-09-16T11:42:53.000Z</time>
      </trkpt>
      <trkpt lat="43.2171" lon="6.58539">
        <ele>100</ele>
        <time>2013-09-16T11:42:54.000Z</time>
      </trkpt>
      <trkpt lat="43.21714" lon="6.58538">
        <ele>100</ele>
        <time>2013-09-16T11:42:55.000Z</time>
      </trkpt>
      <trkpt lat="43.21717" lon="6.58536">
        <ele>100</ele>
        <time>2013-09-16T11:42:56.000Z</time>
      </trkpt>
      <trkpt lat="43.2172" lon="6.58533">
        <ele>100</ele>
        <time>2013-09-16T11:42:57.000Z</time>
      </trkpt>
      <trkpt lat="43.21722" lon="6.58532">
        <ele>100</ele>
        <time>2013-09-16T11:42:58.000Z</time>
      </trkpt>
      <trkpt lat="43.21724" lon="6.5853">
        <ele>99</ele>
        <time>2013-09-16T11:42:59.000Z</time>
      </trkpt>
      <trkpt lat="43.21726" lon="6.58529">
        <ele>99</ele>
        <time>2013-09-16T11:43:00.000Z</time>
      </trkpt>
      <trkpt lat="43.21727" lon="6.58528">
        <ele>99</ele>
        <time>2013-09-16T11:43:01.000Z</time>
      </trkpt>
      <trkpt lat="43.21728" lon="6.58526">
        <ele>99</ele>
        <time>2013-09-16T11:43:02.000Z</time>
      </trkpt>
      <trkpt lat="43.2173" lon="6.58525">
        <ele>99</ele>
        <time>2013-09-16T11:43:03.000Z</time>
      </trkpt>
      <trkpt lat="43.21731" lon="6.58525">
        <ele>99</ele>
        <time>2013-09-16T11:43:04.000Z</time>
      </trkpt>
      <trkpt lat="43.21732" lon="6.58524">
        <ele>99</ele>
        <time>2013-09-16T11:43:05.000Z</time>
      </trkpt>
      <trkpt lat="43.21733" lon="6.58523">
        <ele>99</ele>
        <time>2013-09-16T11:43:06.000Z</time>
      </trkpt>
      <trkpt lat="43.21734" lon="6.58522">
        <ele>99</ele>
        <time>2013-09-16T11:43:07.000Z</time>
      </trkpt>
      <trkpt lat="43.21734" lon="6.58522">
        <ele>99</ele>
        <time>2013-09-16T11:43:08.000Z</time>
      </trkpt>
      <trkpt lat="43.21735" lon="6.58521">
        <ele>99</ele>
        <time>2013-09-16T11:43:09.000Z</time>
      </trkpt>
      <trkpt lat="43.21736" lon="6.5852">
        <ele>99</ele>
        <time>2013-09-16T11:43:10.000Z</time>
      </trkpt>
      <trkpt lat="43.21737" lon="6.58519">
        <ele>99</ele>
        <time>2013-09-16T11:43:11.000Z</time>
      </trkpt>
      <trkpt lat="43.21738" lon="6.58518">
        <ele>98</ele>
        <time>2013-09-16T11:43:12.000Z</time>
      </trkpt>
      <trkpt lat="43.21739" lon="6.58518">
        <ele>98</ele>
        <time>2013-09-16T11:43:13.000Z</time>
      </trkpt>
      <trkpt lat="43.2174" lon="6.58517">
        <ele>98</ele>
        <time>2013-09-16T11:43:14.000Z</time>
      </trkpt>
      <trkpt lat="43.2174" lon="6.58516">
        <ele>98</ele>
        <time>2013-09-16T11:43:15.000Z</time>
      </trkpt>
      <trkpt lat="43.21741" lon="6.58515">
        <ele>98</ele>
        <time>2013-09-16T11:43:16.000Z</time>
      </trkpt>
      <trkpt lat="43.21742" lon="6.58515">
        <ele>98</ele>
        <time>2013-09-16T11:43:17.000Z</time>
      </trkpt>
      <trkpt lat="43.21743" lon="6.58514">
        <ele>98</ele>
        <time>2013-09-16T11:43:18.000Z</time>
      </trkpt>
      <trkpt lat="43.21744" lon="6.58513">
        <ele>98</ele>
        <time>2013-09-16T11:43:19.000Z</time>
      </trkpt>
      <trkpt lat="43.21745" lon="6.58513">
        <ele>98</ele>
        <time>2013-09-16T11:43:20.000Z</time>
      </trkpt>
      <trkpt lat="43.21747" lon="6.58513">
        <ele>98</ele>
        <time>2013-09-16T11:43:21.000Z</time>
      </trkpt>
      <trkpt lat="43.21748" lon="6.58512">
        <ele>98</ele>
        <time>2013-09-16T11:43:22.000Z</time>
      </trkpt>
      <trkpt lat="43.21749" lon="6.58512">
        <ele>98</ele>
        <time>2013-09-16T11:43:23.000Z</time>
      </trkpt>
      <trkpt lat="43.2175" lon="6.58511">
        <ele>97</ele>
        <time>2013-09-16T11:43:24.000Z</time>
      </trkpt>
      <trkpt lat="43.21751" lon="6.58511">
        <ele>99</ele>
        <time>2013-09-16T11:43:25.000Z</time>
      </trkpt>
      <trkpt lat="43.21752" lon="6.5851">
        <ele>99</ele>
        <time>2013-09-16T11:43:26.000Z</time>
      </trkpt>
      <trkpt lat="43.21753" lon="6.5851">
        <ele>99</ele>
        <time>2013-09-16T11:43:27.000Z</time>
      </trkpt>
      <trkpt lat="43.21754" lon="6.58511">
        <ele>99</ele>
        <time>2013-09-16T11:43:28.000Z</time>
      </trkpt>
      <trkpt lat="43.21756" lon="6.58511">
        <ele>99</ele>
        <time>2013-09-16T11:43:29.000Z</time>
      </trkpt>
      <trkpt lat="43.21757" lon="6.58512">
        <ele>99</ele>
        <time>2013-09-16T11:43:30.000Z</time>
      </trkpt>
      <trkpt lat="43.21758" lon="6.58512">
        <ele>99</ele>
        <time>2013-09-16T11:43:31.000Z</time>
      </trkpt>
      <trkpt lat="43.2176" lon="6.58512">
        <ele>100</ele>
        <time>2013-09-16T11:43:32.000Z</time>
      </trkpt>
      <trkpt lat="43.21761" lon="6.58513">
        <ele>100</ele>
        <time>2013-09-16T11:43:33.000Z</time>
      </trkpt>
      <trkpt lat="43.21762" lon="6.58514">
        <ele>100</ele>
        <time>2013-09-16T11:43:34.000Z</time>
      </trkpt>
      <trkpt lat="43.21763" lon="6.58514">
        <ele>100</ele>
        <time>2013-09-16T11:43:35.000Z</time>
      </trkpt>
      <trkpt lat="43.21764" lon="6.58515">
        <ele>101</ele>
        <time>2013-09-16T11:43:36.000Z</time>
      </trkpt>
      <trkpt lat="43.21765" lon="6.58516">
        <ele>101</ele>
        <time>2013-09-16T11:43:37.000Z</time>
      </trkpt>
      <trkpt lat="43.21766" lon="6.58517">
        <ele>101</ele>
        <time>2013-09-16T11:43:38.000Z</time>
      </trkpt>
      <trkpt lat="43.21767" lon="6.58518">
        <ele>101</ele>
        <time>2013-09-16T11:43:39.000Z</time>
      </trkpt>
      <trkpt lat="43.21768" lon="6.58519">
        <ele>101</ele>
        <time>2013-09-16T11:43:40.000Z</time>
      </trkpt>
      <trkpt lat="43.21769" lon="6.5852">
        <ele>101</ele>
        <time>2013-09-16T11:43:41.000Z</time>
      </trkpt>
      <trkpt lat="43.2177" lon="6.58521">
        <ele>102</ele>
        <time>2013-09-16T11:43:42.000Z</time>
      </trkpt>
      <trkpt lat="43.21771" lon="6.58522">
        <ele>102</ele>
        <time>2013-09-16T11:43:43.000Z</time>
      </trkpt>
      <trkpt lat="43.21772" lon="6.58523">
        <ele>102</ele>
        <time>2013-09-16T11:43:44.000Z</time>
      </trkpt>
      <trkpt lat="43.21773" lon="6.58523">
        <ele>102</ele>
        <time>2013-09-16T11:43:45.000Z</time>
      </trkpt>
      <trkpt lat="43.21774" lon="6.58524">
        <ele>102</ele>
        <time>2013-09-16T11:43:46.000Z</time>
      </trkpt>
      <trkpt lat="43.21774" lon="6.58525">
        <ele>102</ele>
        <time>2013-09-16T11:43:47.000Z</time>
      </trkpt>
      <trkpt lat="43.21775" lon="6.58526">
        <ele>102</ele>
        <time>2013-09-16T11:43:48.000Z</time>
      </trkpt>
      <trkpt lat="43.21776" lon="6.58526">
        <ele>102</ele>
        <time>2013-09-16T11:43:49.000Z</time>
      </trkpt>
      <trkpt lat="43.21777" lon="6.58527">
        <ele>102</ele>
        <time>2013-09-16T11:43:50.000Z</time>
      </trkpt>
      <trkpt lat="43.21778" lon="6.58528">
        <ele>103</ele>
        <time>2013-09-16T11:43:51.000Z</time>
      </trkpt>
      <trkpt lat="43.21779" lon="6.58529">
        <ele>103</ele>
        <time>2013-09-16T11:43:52.000Z</time>
      </trkpt>
      <trkpt lat="43.2178" lon="6.5853">
        <ele>103</ele>
        <time>2013-09-16T11:43:53.000Z</time>
      </trkpt>
      <trkpt lat="43.21781" lon="6.5853">
        <ele>103</ele>
        <time>2013-09-16T11:43:54.000Z</time>
      </trkpt>
      <trkpt lat="43.21782" lon="6.58531">
        <ele>103</ele>
        <time>2013-09-16T11:43:55.000Z</time>
      </trkpt>
      <trkpt lat="43.21783" lon="6.58531">
        <ele>103</ele>
        <time>2013-09-16T11:43:56.000Z</time>
      </trkpt>
      <trkpt lat="43.21784" lon="6.58532">
        <ele>103</ele>
        <time>2013-09-16T11:43:57.000Z</time>
      </trkpt>
      <trkpt lat="43.21785" lon="6.58533">
        <ele>103</ele>
        <time>2013-09-16T11:43:58.000Z</time>
      </trkpt>
      <trkpt lat="43.21786" lon="6.58533">
        <ele>103</ele>
        <time>2013-09-16T11:43:59.000Z</time>
      </trkpt>
      <trkpt lat="43.21787" lon="6.58534">
        <ele>103</ele>
        <time>2013-09-16T11:44:00.000Z</time>
      </trkpt>
      <trkpt lat="43.21789" lon="6.58534">
        <ele>104</ele>
        <time>2013-09-16T11:44:01.000Z</time>
      </trkpt>
      <trkpt lat="43.2179" lon="6.58535">
        <ele>104</ele>
        <time>2013-09-16T11:44:02.000Z</time>
      </trkpt>
      <trkpt lat="43.21791" lon="6.58536">
        <ele>104</ele>
        <time>2013-09-16T11:44:03.000Z</time>
      </trkpt>
      <trkpt lat="43.21792" lon="6.58537">
        <ele>104</ele>
        <time>2013-09-16T11:44:04.000Z</time>
      </trkpt>
      <trkpt lat="43.21793" lon="6.58537">
        <ele>104</ele>
        <time>2013-09-16T11:44:05.000Z</time>
      </trkpt>
      <trkpt lat="43.21794" lon="6.58538">
        <ele>104</ele>
        <time>2013-09-16T11:44:06.000Z</time>
      </trkpt>
      <trkpt lat="43.21795" lon="6.58539">
        <ele>104</ele>
        <time>2013-09-16T11:44:07.000Z</time>
      </trkpt>
      <trkpt lat="43.21796" lon="6.58539">
        <ele>104</ele>
        <time>2013-09-16T11:44:08.000Z</time>
      </trkpt>
      <trkpt lat="43.21797" lon="6.5854">
        <ele>104</ele>
        <time>2013-09-16T11:44:09.000Z</time>
      </trkpt>
      <trkpt lat="43.21798" lon="6.58541">
        <ele>104</ele>
        <time>2013-09-16T11:44:10.000Z</time>
      </trkpt>
      <trkpt lat="43.21799" lon="6.58541">
        <ele>104</ele>
        <time>2013-09-16T11:44:11.000Z</time>
      </trkpt>
      <trkpt lat="43.21801" lon="6.58542">
        <ele>104</ele>
        <time>2013-09-16T11:44:12.000Z</time>
      </trkpt>
      <trkpt lat="43.21802" lon="6.58543">
        <ele>105</ele>
        <time>2013-09-16T11:44:13.000Z</time>
      </trkpt>
      <trkpt lat="43.21803" lon="6.58543">
        <ele>105</ele>
        <time>2013-09-16T11:44:14.000Z</time>
      </trkpt>
      <trkpt lat="43.21804" lon="6.58544">
        <ele>105</ele>
        <time>2013-09-16T11:44:15.000Z</time>
      </trkpt>
      <trkpt lat="43.21805" lon="6.58545">
        <ele>105</ele>
        <time>2013-09-16T11:44:16.000Z</time>
      </trkpt>
      <trkpt lat="43.21806" lon="6.58546">
        <ele>105</ele>
        <time>2013-09-16T11:44:17.000Z</time>
      </trkpt>
      <trkpt lat="43.21807" lon="6.58547">
        <ele>105</ele>
        <time>2013-09-16T11:44:18.000Z</time>
      </trkpt>
      <trkpt lat="43.21808" lon="6.58547">
        <ele>105</ele>
        <time>2013-09-16T11:44:19.000Z</time>
      </trkpt>
      <trkpt lat="43.21809" lon="6.58549">
        <ele>105</ele>
        <time>2013-09-16T11:44:20.000Z</time>
      </trkpt>
      <trkpt lat="43.2181" lon="6.5855">
        <ele>105</ele>
        <time>2013-09-16T11:44:21.000Z</time>
      </trkpt>
      <trkpt lat="43.21811" lon="6.58551">
        <ele>105</ele>
        <time>2013-09-16T11:44:22.000Z</time>
      </trkpt>
      <trkpt lat="43.21811" lon="6.58553">
        <ele>106</ele>
        <time>2013-09-16T11:44:23.000Z</time>
      </trkpt>
      <trkpt lat="43.21812" lon="6.58554">
        <ele>106</ele>
        <time>2013-09-16T11:44:24.000Z</time>
      </trkpt>
      <trkpt lat="43.21812" lon="6.58555">
        <ele>106</ele>
        <time>2013-09-16T11:44:25.000Z</time>
      </trkpt>
      <trkpt lat="43.21813" lon="6.58556">
        <ele>106</ele>
        <time>2013-09-16T11:44:27.000Z</time>
      </trkpt>
      <trkpt lat="43.21813" lon="6.58557">
        <ele>106</ele>
        <time>2013-09-16T11:44:29.000Z</time>
      </trkpt>
      <trkpt lat="43.21813" lon="6.58558">
        <ele>106</ele>
        <time>2013-09-16T11:44:30.000Z</time>
      </trkpt>
      <trkpt lat="43.21814" lon="6.58559">
        <ele>106</ele>
        <time>2013-09-16T11:44:31.000Z</time>
      </trkpt>
      <trkpt lat="43.21814" lon="6.5856">
        <ele>106</ele>
        <time>2013-09-16T11:44:32.000Z</time>
      </trkpt>
      <trkpt lat="43.21814" lon="6.5856">
        <ele>106</ele>
        <time>2013-09-16T11:44:33.000Z</time>
      </trkpt>
      <trkpt lat="43.21814" lon="6.58561">
        <ele>106</ele>
        <time>2013-09-16T11:44:34.000Z</time>
      </trkpt>
      <trkpt lat="43.21815" lon="6.58562">
        <ele>107</ele>
        <time>2013-09-16T11:44:35.000Z</time>
      </trkpt>
      <trkpt lat="43.21815" lon="6.58563">
        <ele>107</ele>
        <time>2013-09-16T11:44:36.000Z</time>
      </trkpt>
      <trkpt lat="43.21815" lon="6.58564">
        <ele>107</ele>
        <time>2013-09-16T11:44:37.000Z</time>
      </trkpt>
      <trkpt lat="43.21815" lon="6.58565">
        <ele>107</ele>
        <time>2013-09-16T11:44:38.000Z</time>
      </trkpt>
      <trkpt lat="43.21816" lon="6.58566">
        <ele>107</ele>
        <time>2013-09-16T11:44:39.000Z</time>
      </trkpt>
      <trkpt lat="43.21816" lon="6.58567">
        <ele>107</ele>
        <time>2013-09-16T11:44:40.000Z</time>
      </trkpt>
      <trkpt lat="43.21816" lon="6.58568">
        <ele>107</ele>
        <time>2013-09-16T11:44:41.000Z</time>
      </trkpt>
      <trkpt lat="43.21816" lon="6.5857">
        <ele>107</ele>
        <time>2013-09-16T11:44:43.000Z</time>
      </trkpt>
      <trkpt lat="43.21817" lon="6.58571">
        <ele>107</ele>
        <time>2013-09-16T11:44:44.000Z</time>
      </trkpt>
      <trkpt lat="43.21817" lon="6.58572">
        <ele>108</ele>
        <time>2013-09-16T11:44:45.000Z</time>
      </trkpt>
      <trkpt lat="43.21817" lon="6.58573">
        <ele>108</ele>
        <time>2013-09-16T11:44:46.000Z</time>
      </trkpt>
      <trkpt lat="43.21817" lon="6.58574">
        <ele>108</ele>
        <time>2013-09-16T11:44:47.000Z</time>
      </trkpt>
      <trkpt lat="43.21818" lon="6.58575">
        <ele>108</ele>
        <time>2013-09-16T11:44:48.000Z</time>
      </trkpt>
      <trkpt lat="43.21818" lon="6.58576">
        <ele>108</ele>
        <time>2013-09-16T11:44:49.000Z</time>
      </trkpt>
      <trkpt lat="43.21818" lon="6.58577">
        <ele>108</ele>
        <time>2013-09-16T11:44:50.000Z</time>
      </trkpt>
      <trkpt lat="43.21818" lon="6.58578">
        <ele>108</ele>
        <time>2013-09-16T11:44:51.000Z</time>
      </trkpt>
      <trkpt lat="43.21819" lon="6.58579">
        <ele>108</ele>
        <time>2013-09-16T11:44:52.000Z</time>
      </trkpt>
      <trkpt lat="43.21819" lon="6.58581">
        <ele>108</ele>
        <time>2013-09-16T11:44:53.000Z</time>
      </trkpt>
      <trkpt lat="43.21819" lon="6.58582">
        <ele>109</ele>
        <time>2013-09-16T11:44:54.000Z</time>
      </trkpt>
      <trkpt lat="43.2182" lon="6.58583">
        <ele>109</ele>
        <time>2013-09-16T11:44:55.000Z</time>
      </trkpt>
      <trkpt lat="43.2182" lon="6.58584">
        <ele>110</ele>
        <time>2013-09-16T11:44:56.000Z</time>
      </trkpt>
      <trkpt lat="43.21821" lon="6.58585">
        <ele>110</ele>
        <time>2013-09-16T11:44:57.000Z</time>
      </trkpt>
      <trkpt lat="43.21821" lon="6.58586">
        <ele>110</ele>
        <time>2013-09-16T11:44:58.000Z</time>
      </trkpt>
      <trkpt lat="43.21821" lon="6.58588">
        <ele>110</ele>
        <time>2013-09-16T11:44:59.000Z</time>
      </trkpt>
      <trkpt lat="43.21821" lon="6.58589">
        <ele>110</ele>
        <time>2013-09-16T11:45:00.000Z</time>
      </trkpt>
      <trkpt lat="43.21822" lon="6.5859">
        <ele>110</ele>
        <time>2013-09-16T11:45:01.000Z</time>
      </trkpt>
      <trkpt lat="43.21822" lon="6.58591">
        <ele>110</ele>
        <time>2013-09-16T11:45:02.000Z</time>
      </trkpt>
      <trkpt lat="43.21823" lon="6.58592">
        <ele>110</ele>
        <time>2013-09-16T11:45:03.000Z</time>
      </trkpt>
      <trkpt lat="43.21823" lon="6.58593">
        <ele>110</ele>
        <time>2013-09-16T11:45:04.000Z</time>
      </trkpt>
      <trkpt lat="43.21823" lon="6.58594">
        <ele>110</ele>
        <time>2013-09-16T11:45:05.000Z</time>
      </trkpt>
      <trkpt lat="43.21824" lon="6.58595">
        <ele>110</ele>
        <time>2013-09-16T11:45:06.000Z</time>
      </trkpt>
      <trkpt lat="43.21824" lon="6.58596">
        <ele>110</ele>
        <time>2013-09-16T11:45:07.000Z</time>
      </trkpt>
      <trkpt lat="43.21824" lon="6.58596">
        <ele>110</ele>
        <time>2013-09-16T11:45:08.000Z</time>
      </trkpt>
      <trkpt lat="43.21825" lon="6.58597">
        <ele>110</ele>
        <time>2013-09-16T11:45:09.000Z</time>
      </trkpt>
      <trkpt lat="43.21825" lon="6.58598">
        <ele>110</ele>
        <time>2013-09-16T11:45:10.000Z</time>
      </trkpt>
      <trkpt lat="43.21825" lon="6.58598">
        <ele>110</ele>
        <time>2013-09-16T11:45:18.000Z</time>
      </trkpt>
      <trkpt lat="43.21825" lon="6.58598">
        <ele>110</ele>
        <time>2013-09-16T11:45:23.000Z</time>
      </trkpt>
      <trkpt lat="43.21826" lon="6.58599">
        <ele>110</ele>
        <time>2013-09-16T11:45:24.000Z</time>
      </trkpt>
      <trkpt lat="43.21826" lon="6.586">
        <ele>110</ele>
        <time>2013-09-16T11:45:25.000Z</time>
      </trkpt>
      <trkpt lat="43.21827" lon="6.58601">
        <ele>110</ele>
        <time>2013-09-16T11:45:26.000Z</time>
      </trkpt>
      <trkpt lat="43.21827" lon="6.58602">
        <ele>110</ele>
        <time>2013-09-16T11:45:27.000Z</time>
      </trkpt>
      <trkpt lat="43.21828" lon="6.58603">
        <ele>110</ele>
        <time>2013-09-16T11:45:28.000Z</time>
      </trkpt>
      <trkpt lat="43.21828" lon="6.58604">
        <ele>110</ele>
        <time>2013-09-16T11:45:29.000Z</time>
      </trkpt>
      <trkpt lat="43.21829" lon="6.58605">
        <ele>110</ele>
        <time>2013-09-16T11:45:30.000Z</time>
      </trkpt>
      <trkpt lat="43.2183" lon="6.58606">
        <ele>110</ele>
        <time>2013-09-16T11:45:31.000Z</time>
      </trkpt>
      <trkpt lat="43.2183" lon="6.58607">
        <ele>110</ele>
        <time>2013-09-16T11:45:32.000Z</time>
      </trkpt>
      <trkpt lat="43.21831" lon="6.58608">
        <ele>110</ele>
        <time>2013-09-16T11:45:33.000Z</time>
      </trkpt>
      <trkpt lat="43.21832" lon="6.58609">
        <ele>110</ele>
        <time>2013-09-16T11:45:34.000Z</time>
      </trkpt>
      <trkpt lat="43.21832" lon="6.5861">
        <ele>110</ele>
        <time>2013-09-16T11:45:35.000Z</time>
      </trkpt>
      <trkpt lat="43.21833" lon="6.58611">
        <ele>110</ele>
        <time>2013-09-16T11:45:36.000Z</time>
      </trkpt>
      <trkpt lat="43.21834" lon="6.58612">
        <ele>114</ele>
        <time>2013-09-16T11:45:37.000Z</time>
      </trkpt>
      <trkpt lat="43.21835" lon="6.58612">
        <ele>114</ele>
        <time>2013-09-16T11:45:38.000Z</time>
      </trkpt>
      <trkpt lat="43.21835" lon="6.58613">
        <ele>114</ele>
        <time>2013-09-16T11:45:39.000Z</time>
      </trkpt>
      <trkpt lat="43.21836" lon="6.58614">
        <ele>114</ele>
        <time>2013-09-16T11:45:40.000Z</time>
      </trkpt>
      <trkpt lat="43.21837" lon="6.58615">
        <ele>114</ele>
        <time>2013-09-16T11:45:41.000Z</time>
      </trkpt>
      <trkpt lat="43.21838" lon="6.58616">
        <ele>114</ele>
        <time>2013-09-16T11:45:42.000Z</time>
      </trkpt>
      <trkpt lat="43.21839" lon="6.58617">
        <ele>114</ele>
        <time>2013-09-16T11:45:43.000Z</time>
      </trkpt>
      <trkpt lat="43.2184" lon="6.58618">
        <ele>114</ele>
        <time>2013-09-16T11:45:44.000Z</time>
      </trkpt>
      <trkpt lat="43.2184" lon="6.58618">
        <ele>114</ele>
        <time>2013-09-16T11:45:45.000Z</time>
      </trkpt>
      <trkpt lat="43.21841" lon="6.58619">
        <ele>114</ele>
        <time>2013-09-16T11:45:46.000Z</time>
      </trkpt>
      <trkpt lat="43.21842" lon="6.5862">
        <ele>114</ele>
        <time>2013-09-16T11:45:47.000Z</time>
      </trkpt>
      <trkpt lat="43.21843" lon="6.58621">
        <ele>114</ele>
        <time>2013-09-16T11:45:48.000Z</time>
      </trkpt>
      <trkpt lat="43.21843" lon="6.58621">
        <ele>114</ele>
        <time>2013-09-16T11:45:49.000Z</time>
      </trkpt>
      <trkpt lat="43.21844" lon="6.58622">
        <ele>114</ele>
        <time>2013-09-16T11:45:50.000Z</time>
      </trkpt>
      <trkpt lat="43.21845" lon="6.58623">
        <ele>114</ele>
        <time>2013-09-16T11:45:51.000Z</time>
      </trkpt>
      <trkpt lat="43.21846" lon="6.58624">
        <ele>114</ele>
        <time>2013-09-16T11:45:52.000Z</time>
      </trkpt>
      <trkpt lat="43.21847" lon="6.58625">
        <ele>114</ele>
        <time>2013-09-16T11:45:53.000Z</time>
      </trkpt>
      <trkpt lat="43.21848" lon="6.58626">
        <ele>114</ele>
        <time>2013-09-16T11:45:54.000Z</time>
      </trkpt>
      <trkpt lat="43.21848" lon="6.58627">
        <ele>114</ele>
        <time>2013-09-16T11:45:55.000Z</time>
      </trkpt>
      <trkpt lat="43.21849" lon="6.58628">
        <ele>114</ele>
        <time>2013-09-16T11:45:56.000Z</time>
      </trkpt>
      <trkpt lat="43.21849" lon="6.58628">
        <ele>114</ele>
        <time>2013-09-16T11:45:57.000Z</time>
      </trkpt>
      <trkpt lat="43.2185" lon="6.58628">
        <ele>114</ele>
        <time>2013-09-16T11:45:58.000Z</time>
      </trkpt>
      <trkpt lat="43.2185" lon="6.58629">
        <ele>114</ele>
        <time>2013-09-16T11:45:59.000Z</time>
      </trkpt>
      <trkpt lat="43.21851" lon="6.58629">
        <ele>114</ele>
        <time>2013-09-16T11:46:00.000Z</time>
      </trkpt>
      <trkpt lat="43.21851" lon="6.58629">
        <ele>114</ele>
        <time>2013-09-16T11:46:01.000Z</time>
      </trkpt>
      <trkpt lat="43.21851" lon="6.5863">
        <ele>114</ele>
        <time>2013-09-16T11:46:02.000Z</time>
      </trkpt>
      <trkpt lat="43.21852" lon="6.58631">
        <ele>114</ele>
        <time>2013-09-16T11:46:03.000Z</time>
      </trkpt>
      <trkpt lat="43.21853" lon="6.58632">
        <ele>114</ele>
        <time>2013-09-16T11:46:04.000Z</time>
      </trkpt>
      <trkpt lat="43.21854" lon="6.58633">
        <ele>114</ele>
        <time>2013-09-16T11:46:05.000Z</time>
      </trkpt>
      <trkpt lat="43.21854" lon="6.58634">
        <ele>114</ele>
        <time>2013-09-16T11:46:06.000Z</time>
      </trkpt>
      <trkpt lat="43.21856" lon="6.58635">
        <ele>114</ele>
        <time>2013-09-16T11:46:07.000Z</time>
      </trkpt>
      <trkpt lat="43.21857" lon="6.58636">
        <ele>114</ele>
        <time>2013-09-16T11:46:08.000Z</time>
      </trkpt>
      <trkpt lat="43.21858" lon="6.58637">
        <ele>114</ele>
        <time>2013-09-16T11:46:09.000Z</time>
      </trkpt>
      <trkpt lat="43.21859" lon="6.58638">
        <ele>114</ele>
        <time>2013-09-16T11:46:10.000Z</time>
      </trkpt>
      <trkpt lat="43.21861" lon="6.5864">
        <ele>114</ele>
        <time>2013-09-16T11:46:11.000Z</time>
      </trkpt>
      <trkpt lat="43.21862" lon="6.58641">
        <ele>114</ele>
        <time>2013-09-16T11:46:12.000Z</time>
      </trkpt>
      <trkpt lat="43.21863" lon="6.58643">
        <ele>115</ele>
        <time>2013-09-16T11:46:13.000Z</time>
      </trkpt>
      <trkpt lat="43.21865" lon="6.58644">
        <ele>115</ele>
        <time>2013-09-16T11:46:14.000Z</time>
      </trkpt>
      <trkpt lat="43.21866" lon="6.58645">
        <ele>115</ele>
        <time>2013-09-16T11:46:15.000Z</time>
      </trkpt>
      <trkpt lat="43.21868" lon="6.58647">
        <ele>115</ele>
        <time>2013-09-16T11:46:16.000Z</time>
      </trkpt>
      <trkpt lat="43.2187" lon="6.58648">
        <ele>115</ele>
        <time>2013-09-16T11:46:17.000Z</time>
      </trkpt>
      <trkpt lat="43.21872" lon="6.5865">
        <ele>115</ele>
        <time>2013-09-16T11:46:18.000Z</time>
      </trkpt>
      <trkpt lat="43.21874" lon="6.58652">
        <ele>115</ele>
        <time>2013-09-16T11:46:19.000Z</time>
      </trkpt>
      <trkpt lat="43.21876" lon="6.58653">
        <ele>115</ele>
        <time>2013-09-16T11:46:20.000Z</time>
      </trkpt>
      <trkpt lat="43.21878" lon="6.58654">
        <ele>116</ele>
        <time>2013-09-16T11:46:21.000Z</time>
      </trkpt>
      <trkpt lat="43.2188" lon="6.58655">
        <ele>116</ele>
        <time>2013-09-16T11:46:22.000Z</time>
      </trkpt>
      <trkpt lat="43.21882" lon="6.58657">
        <ele>116</ele>
        <time>2013-09-16T11:46:23.000Z</time>
      </trkpt>
      <trkpt lat="43.21885" lon="6.58658">
        <ele>116</ele>
        <time>2013-09-16T11:46:24.000Z</time>
      </trkpt>
      <trkpt lat="43.21887" lon="6.58659">
        <ele>116</ele>
        <time>2013-09-16T11:46:25.000Z</time>
      </trkpt>
      <trkpt lat="43.21889" lon="6.5866">
        <ele>117</ele>
        <time>2013-09-16T11:46:26.000Z</time>
      </trkpt>
      <trkpt lat="43.21892" lon="6.58662">
        <ele>117</ele>
        <time>2013-09-16T11:46:27.000Z</time>
      </trkpt>
      <trkpt lat="43.21894" lon="6.58663">
        <ele>117</ele>
        <time>2013-09-16T11:46:28.000Z</time>
      </trkpt>
      <trkpt lat="43.21896" lon="6.58664">
        <ele>117</ele>
        <time>2013-09-16T11:46:29.000Z</time>
      </trkpt>
      <trkpt lat="43.21898" lon="6.58665">
        <ele>118</ele>
        <time>2013-09-16T11:46:30.000Z</time>
      </trkpt>
      <trkpt lat="43.21899" lon="6.58666">
        <ele>118</ele>
        <time>2013-09-16T11:46:31.000Z</time>
      </trkpt>
      <trkpt lat="43.21901" lon="6.58667">
        <ele>119</ele>
        <time>2013-09-16T11:46:32.000Z</time>
      </trkpt>
      <trkpt lat="43.21903" lon="6.58668">
        <ele>119</ele>
        <time>2013-09-16T11:46:33.000Z</time>
      </trkpt>
      <trkpt lat="43.21905" lon="6.58669">
        <ele>119</ele>
        <time>2013-09-16T11:46:34.000Z</time>
      </trkpt>
      <trkpt lat="43.21907" lon="6.58669">
        <ele>120</ele>
        <time>2013-09-16T11:46:35.000Z</time>
      </trkpt>
      <trkpt lat="43.21909" lon="6.5867">
        <ele>120</ele>
        <time>2013-09-16T11:46:36.000Z</time>
      </trkpt>
      <trkpt lat="43.21911" lon="6.58671">
        <ele>120</ele>
        <time>2013-09-16T11:46:37.000Z</time>
      </trkpt>
      <trkpt lat="43.21913" lon="6.58672">
        <ele>120</ele>
        <time>2013-09-16T11:46:38.000Z</time>
      </trkpt>
      <trkpt lat="43.21915" lon="6.58673">
        <ele>120</ele>
        <time>2013-09-16T11:46:39.000Z</time>
      </trkpt>
      <trkpt lat="43.21918" lon="6.58674">
        <ele>123</ele>
        <time>2013-09-16T11:46:40.000Z</time>
      </trkpt>
      <trkpt lat="43.2192" lon="6.58674">
        <ele>124</ele>
        <time>2013-09-16T11:46:41.000Z</time>
      </trkpt>
      <trkpt lat="43.21922" lon="6.58675">
        <ele>124</ele>
        <time>2013-09-16T11:46:42.000Z</time>
      </trkpt>
      <trkpt lat="43.21924" lon="6.58676">
        <ele>124</ele>
        <time>2013-09-16T11:46:43.000Z</time>
      </trkpt>
      <trkpt lat="43.21926" lon="6.58676">
        <ele>125</ele>
        <time>2013-09-16T11:46:44.000Z</time>
      </trkpt>
      <trkpt lat="43.21928" lon="6.58677">
        <ele>125</ele>
        <time>2013-09-16T11:46:45.000Z</time>
      </trkpt>
      <trkpt lat="43.2193" lon="6.58677">
        <ele>126</ele>
        <time>2013-09-16T11:46:46.000Z</time>
      </trkpt>
      <trkpt lat="43.21932" lon="6.58678">
        <ele>126</ele>
        <time>2013-09-16T11:46:47.000Z</time>
      </trkpt>
      <trkpt lat="43.21934" lon="6.58678">
        <ele>126</ele>
        <time>2013-09-16T11:46:48.000Z</time>
      </trkpt>
      <trkpt lat="43.21936" lon="6.58679">
        <ele>127</ele>
        <time>2013-09-16T11:46:49.000Z</time>
      </trkpt>
      <trkpt lat="43.21938" lon="6.58679">
        <ele>127</ele>
        <time>2013-09-16T11:46:50.000Z</time>
      </trkpt>
      <trkpt lat="43.21939" lon="6.5868">
        <ele>127</ele>
        <time>2013-09-16T11:46:51.000Z</time>
      </trkpt>
      <trkpt lat="43.21941" lon="6.5868">
        <ele>127</ele>
        <time>2013-09-16T11:46:52.000Z</time>
      </trkpt>
      <trkpt lat="43.21943" lon="6.5868">
        <ele>128</ele>
        <time>2013-09-16T11:46:53.000Z</time>
      </trkpt>
      <trkpt lat="43.21944" lon="6.58681">
        <ele>128</ele>
        <time>2013-09-16T11:46:54.000Z</time>
      </trkpt>
      <trkpt lat="43.21946" lon="6.58681">
        <ele>128</ele>
        <time>2013-09-16T11:46:55.000Z</time>
      </trkpt>
      <trkpt lat="43.21947" lon="6.58682">
        <ele>128</ele>
        <time>2013-09-16T11:46:56.000Z</time>
      </trkpt>
      <trkpt lat="43.21949" lon="6.58682">
        <ele>129</ele>
        <time>2013-09-16T11:46:57.000Z</time>
      </trkpt>
      <trkpt lat="43.21951" lon="6.58683">
        <ele>129</ele>
        <time>2013-09-16T11:46:58.000Z</time>
      </trkpt>
      <trkpt lat="43.21952" lon="6.58683">
        <ele>129</ele>
        <time>2013-09-16T11:46:59.000Z</time>
      </trkpt>
      <trkpt lat="43.21953" lon="6.58684">
        <ele>129</ele>
        <time>2013-09-16T11:47:00.000Z</time>
      </trkpt>
      <trkpt lat="43.21955" lon="6.58684">
        <ele>129</ele>
        <time>2013-09-16T11:47:01.000Z</time>
      </trkpt>
      <trkpt lat="43.21956" lon="6.58685">
        <ele>129</ele>
        <time>2013-09-16T11:47:02.000Z</time>
      </trkpt>
      <trkpt lat="43.21958" lon="6.58685">
        <ele>130</ele>
        <time>2013-09-16T11:47:03.000Z</time>
      </trkpt>
      <trkpt lat="43.21958" lon="6.58685">
        <ele>130</ele>
        <time>2013-09-16T11:47:04.000Z</time>
      </trkpt>
      <trkpt lat="43.21958" lon="6.58686">
        <ele>130</ele>
        <time>2013-09-16T11:47:08.000Z</time>
      </trkpt>
      <trkpt lat="43.21959" lon="6.58686">
        <ele>130</ele>
        <time>2013-09-16T11:47:09.000Z</time>
      </trkpt>
      <trkpt lat="43.2196" lon="6.58686">
        <ele>130</ele>
        <time>2013-09-16T11:47:10.000Z</time>
      </trkpt>
      <trkpt lat="43.21961" lon="6.58686">
        <ele>130</ele>
        <time>2013-09-16T11:47:12.000Z</time>
      </trkpt>
      <trkpt lat="43.21962" lon="6.58686">
        <ele>130</ele>
        <time>2013-09-16T11:47:13.000Z</time>
      </trkpt>
      <trkpt lat="43.21962" lon="6.58687">
        <ele>130</ele>
        <time>2013-09-16T11:47:14.000Z</time>
      </trkpt>
      <trkpt lat="43.21963" lon="6.58687">
        <ele>130</ele>
        <time>2013-09-16T11:47:15.000Z</time>
      </trkpt>
      <trkpt lat="43.21964" lon="6.58687">
        <ele>130</ele>
        <time>2013-09-16T11:47:16.000Z</time>
      </trkpt>
      <trkpt lat="43.21965" lon="6.58688">
        <ele>130</ele>
        <time>2013-09-16T11:47:17.000Z</time>
      </trkpt>
      <trkpt lat="43.21965" lon="6.58688">
        <ele>130</ele>
        <time>2013-09-16T11:47:18.000Z</time>
      </trkpt>
      <trkpt lat="43.21966" lon="6.58688">
        <ele>131</ele>
        <time>2013-09-16T11:47:19.000Z</time>
      </trkpt>
      <trkpt lat="43.21966" lon="6.58688">
        <ele>131</ele>
        <time>2013-09-16T11:47:20.000Z</time>
      </trkpt>
      <trkpt lat="43.21967" lon="6.58688">
        <ele>131</ele>
        <time>2013-09-16T11:47:21.000Z</time>
      </trkpt>
      <trkpt lat="43.21968" lon="6.58689">
        <ele>131</ele>
        <time>2013-09-16T11:47:22.000Z</time>
      </trkpt>
      <trkpt lat="43.21969" lon="6.58689">
        <ele>131</ele>
        <time>2013-09-16T11:47:23.000Z</time>
      </trkpt>
      <trkpt lat="43.2197" lon="6.58689">
        <ele>131</ele>
        <time>2013-09-16T11:47:25.000Z</time>
      </trkpt>
      <trkpt lat="43.21971" lon="6.58689">
        <ele>131</ele>
        <time>2013-09-16T11:47:27.000Z</time>
      </trkpt>
      <trkpt lat="43.21972" lon="6.58689">
        <ele>131</ele>
        <time>2013-09-16T11:47:28.000Z</time>
      </trkpt>
      <trkpt lat="43.21972" lon="6.5869">
        <ele>131</ele>
        <time>2013-09-16T11:47:29.000Z</time>
      </trkpt>
      <trkpt lat="43.21973" lon="6.5869">
        <ele>131</ele>
        <time>2013-09-16T11:47:30.000Z</time>
      </trkpt>
      <trkpt lat="43.21973" lon="6.5869">
        <ele>131</ele>
        <time>2013-09-16T11:47:31.000Z</time>
      </trkpt>
      <trkpt lat="43.21975" lon="6.5869">
        <ele>131</ele>
        <time>2013-09-16T11:47:33.000Z</time>
      </trkpt>
      <trkpt lat="43.21975" lon="6.58691">
        <ele>131</ele>
        <time>2013-09-16T11:47:34.000Z</time>
      </trkpt>
      <trkpt lat="43.21976" lon="6.58691">
        <ele>131</ele>
        <time>2013-09-16T11:47:35.000Z</time>
      </trkpt>
      <trkpt lat="43.21976" lon="6.58691">
        <ele>132</ele>
        <time>2013-09-16T11:47:36.000Z</time>
      </trkpt>
      <trkpt lat="43.21977" lon="6.58691">
        <ele>132</ele>
        <time>2013-09-16T11:47:37.000Z</time>
      </trkpt>
      <trkpt lat="43.21977" lon="6.58691">
        <ele>132</ele>
        <time>2013-09-16T11:47:38.000Z</time>
      </trkpt>
      <trkpt lat="43.21978" lon="6.58691">
        <ele>132</ele>
        <time>2013-09-16T11:47:39.000Z</time>
      </trkpt>
      <trkpt lat="43.21978" lon="6.58691">
        <ele>132</ele>
        <time>2013-09-16T11:47:42.000Z</time>
      </trkpt>
      <trkpt lat="43.21978" lon="6.58691">
        <ele>132</ele>
        <time>2013-09-16T11:47:46.000Z</time>
      </trkpt>
      <trkpt lat="43.21978" lon="6.58691">
        <ele>132</ele>
        <time>2013-09-16T11:47:50.000Z</time>
      </trkpt>
      <trkpt lat="43.21979" lon="6.58691">
        <ele>132</ele>
        <time>2013-09-16T11:47:51.000Z</time>
      </trkpt>
      <trkpt lat="43.21981" lon="6.58691">
        <ele>132</ele>
        <time>2013-09-16T11:47:54.000Z</time>
      </trkpt>
      <trkpt lat="43.21982" lon="6.58692">
        <ele>132</ele>
        <time>2013-09-16T11:47:55.000Z</time>
      </trkpt>
      <trkpt lat="43.21983" lon="6.58692">
        <ele>132</ele>
        <time>2013-09-16T11:47:56.000Z</time>
      </trkpt>
      <trkpt lat="43.21984" lon="6.58692">
        <ele>132</ele>
        <time>2013-09-16T11:47:57.000Z</time>
      </trkpt>
      <trkpt lat="43.21984" lon="6.58692">
        <ele>132</ele>
        <time>2013-09-16T11:47:58.000Z</time>
      </trkpt>
      <trkpt lat="43.21985" lon="6.58693">
        <ele>132</ele>
        <time>2013-09-16T11:47:59.000Z</time>
      </trkpt>
      <trkpt lat="43.21986" lon="6.58693">
        <ele>132</ele>
        <time>2013-09-16T11:48:00.000Z</time>
      </trkpt>
      <trkpt lat="43.21987" lon="6.58693">
        <ele>132</ele>
        <time>2013-09-16T11:48:01.000Z</time>
      </trkpt>
      <trkpt lat="43.21988" lon="6.58694">
        <ele>132</ele>
        <time>2013-09-16T11:48:02.000Z</time>
      </trkpt>
      <trkpt lat="43.21988" lon="6.58694">
        <ele>132</ele>
        <time>2013-09-16T11:48:03.000Z</time>
      </trkpt>
      <trkpt lat="43.21989" lon="6.58695">
        <ele>132</ele>
        <time>2013-09-16T11:48:04.000Z</time>
      </trkpt>
      <trkpt lat="43.2199" lon="6.58695">
        <ele>132</ele>
        <time>2013-09-16T11:48:05.000Z</time>
      </trkpt>
      <trkpt lat="43.21991" lon="6.58695">
        <ele>133</ele>
        <time>2013-09-16T11:48:06.000Z</time>
      </trkpt>
      <trkpt lat="43.21992" lon="6.58695">
        <ele>133</ele>
        <time>2013-09-16T11:48:07.000Z</time>
      </trkpt>
      <trkpt lat="43.21992" lon="6.58696">
        <ele>133</ele>
        <time>2013-09-16T11:48:08.000Z</time>
      </trkpt>
      <trkpt lat="43.21993" lon="6.58696">
        <ele>133</ele>
        <time>2013-09-16T11:48:09.000Z</time>
      </trkpt>
      <trkpt lat="43.21994" lon="6.58696">
        <ele>133</ele>
        <time>2013-09-16T11:48:10.000Z</time>
      </trkpt>
      <trkpt lat="43.21995" lon="6.58697">
        <ele>133</ele>
        <time>2013-09-16T11:48:11.000Z</time>
      </trkpt>
      <trkpt lat="43.21995" lon="6.58697">
        <ele>133</ele>
        <time>2013-09-16T11:48:12.000Z</time>
      </trkpt>
      <trkpt lat="43.21996" lon="6.58697">
        <ele>133</ele>
        <time>2013-09-16T11:48:13.000Z</time>
      </trkpt>
      <trkpt lat="43.21997" lon="6.58697">
        <ele>133</ele>
        <time>2013-09-16T11:48:14.000Z</time>
      </trkpt>
      <trkpt lat="43.21998" lon="6.58698">
        <ele>133</ele>
        <time>2013-09-16T11:48:15.000Z</time>
      </trkpt>
      <trkpt lat="43.21999" lon="6.58698">
        <ele>133</ele>
        <time>2013-09-16T11:48:16.000Z</time>
      </trkpt>
      <trkpt lat="43.21999" lon="6.58698">
        <ele>133</ele>
        <time>2013-09-16T11:48:17.000Z</time>
      </trkpt>
      <trkpt lat="43.22" lon="6.58699">
        <ele>133</ele>
        <time>2013-09-16T11:48:18.000Z</time>
      </trkpt>
      <trkpt lat="43.22" lon="6.58699">
        <ele>133</ele>
        <time>2013-09-16T11:48:19.000Z</time>
      </trkpt>
      <trkpt lat="43.22" lon="6.58699">
        <ele>140</ele>
        <time>2013-09-16T11:48:24.000Z</time>
      </trkpt>
      <trkpt lat="43.22" lon="6.587">
        <ele>140</ele>
        <time>2013-09-16T11:48:29.000Z</time>
      </trkpt>
      <trkpt lat="43.22001" lon="6.587">
        <ele>140</ele>
        <time>2013-09-16T11:48:30.000Z</time>
      </trkpt>
      <trkpt lat="43.22002" lon="6.58701">
        <ele>140</ele>
        <time>2013-09-16T11:48:31.000Z</time>
      </trkpt>
      <trkpt lat="43.22003" lon="6.58701">
        <ele>140</ele>
        <time>2013-09-16T11:48:32.000Z</time>
      </trkpt>
      <trkpt lat="43.22004" lon="6.58701">
        <ele>140</ele>
        <time>2013-09-16T11:48:33.000Z</time>
      </trkpt>
      <trkpt lat="43.22005" lon="6.58701">
        <ele>140</ele>
        <time>2013-09-16T11:48:34.000Z</time>
      </trkpt>
      <trkpt lat="43.22006" lon="6.58702">
        <ele>140</ele>
        <time>2013-09-16T11:48:35.000Z</time>
      </trkpt>
      <trkpt lat="43.22006" lon="6.58702">
        <ele>140</ele>
        <time>2013-09-16T11:48:36.000Z</time>
      </trkpt>
      <trkpt lat="43.22007" lon="6.58702">
        <ele>140</ele>
        <time>2013-09-16T11:48:37.000Z</time>
      </trkpt>
      <trkpt lat="43.22008" lon="6.58702">
        <ele>140</ele>
        <time>2013-09-16T11:48:38.000Z</time>
      </trkpt>
      <trkpt lat="43.22009" lon="6.58702">
        <ele>140</ele>
        <time>2013-09-16T11:48:40.000Z</time>
      </trkpt>
      <trkpt lat="43.22011" lon="6.58703">
        <ele>140</ele>
        <time>2013-09-16T11:48:42.000Z</time>
      </trkpt>
      <trkpt lat="43.22012" lon="6.58703">
        <ele>140</ele>
        <time>2013-09-16T11:48:43.000Z</time>
      </trkpt>
      <trkpt lat="43.22012" lon="6.58703">
        <ele>140</ele>
        <time>2013-09-16T11:48:44.000Z</time>
      </trkpt>
      <trkpt lat="43.22013" lon="6.58703">
        <ele>140</ele>
        <time>2013-09-16T11:48:45.000Z</time>
      </trkpt>
      <trkpt lat="43.22014" lon="6.58703">
        <ele>141</ele>
        <time>2013-09-16T11:48:46.000Z</time>
      </trkpt>
      <trkpt lat="43.22017" lon="6.58703">
        <ele>141</ele>
        <time>2013-09-16T11:48:50.000Z</time>
      </trkpt>
      <trkpt lat="43.22017" lon="6.58703">
        <ele>141</ele>
        <time>2013-09-16T11:48:51.000Z</time>
      </trkpt>
      <trkpt lat="43.2202" lon="6.58703">
        <ele>141</ele>
        <time>2013-09-16T11:48:54.000Z</time>
      </trkpt>
      <trkpt lat="43.2202" lon="6.58703">
        <ele>141</ele>
        <time>2013-09-16T11:48:55.000Z</time>
      </trkpt>
      <trkpt lat="43.22025" lon="6.58703">
        <ele>141</ele>
        <time>2013-09-16T11:49:01.000Z</time>
      </trkpt>
      <trkpt lat="43.22026" lon="6.58703">
        <ele>141</ele>
        <time>2013-09-16T11:49:03.000Z</time>
      </trkpt>
      <trkpt lat="43.22027" lon="6.58703">
        <ele>141</ele>
        <time>2013-09-16T11:49:05.000Z</time>
      </trkpt>
      <trkpt lat="43.22028" lon="6.58704">
        <ele>141</ele>
        <time>2013-09-16T11:49:06.000Z</time>
      </trkpt>
      <trkpt lat="43.22029" lon="6.58704">
        <ele>141</ele>
        <time>2013-09-16T11:49:07.000Z</time>
      </trkpt>
      <trkpt lat="43.2203" lon="6.58704">
        <ele>141</ele>
        <time>2013-09-16T11:49:08.000Z</time>
      </trkpt>
      <trkpt lat="43.22031" lon="6.58704">
        <ele>141</ele>
        <time>2013-09-16T11:49:09.000Z</time>
      </trkpt>
      <trkpt lat="43.22032" lon="6.58705">
        <ele>141</ele>
        <time>2013-09-16T11:49:10.000Z</time>
      </trkpt>
      <trkpt lat="43.22033" lon="6.58705">
        <ele>141</ele>
        <time>2013-09-16T11:49:11.000Z</time>
      </trkpt>
      <trkpt lat="43.22033" lon="6.58705">
        <ele>141</ele>
        <time>2013-09-16T11:49:12.000Z</time>
      </trkpt>
      <trkpt lat="43.22035" lon="6.58705">
        <ele>141</ele>
        <time>2013-09-16T11:49:14.000Z</time>
      </trkpt>
      <trkpt lat="43.22036" lon="6.58705">
        <ele>142</ele>
        <time>2013-09-16T11:49:15.000Z</time>
      </trkpt>
      <trkpt lat="43.22037" lon="6.58706">
        <ele>142</ele>
        <time>2013-09-16T11:49:16.000Z</time>
      </trkpt>
      <trkpt lat="43.22038" lon="6.58706">
        <ele>142</ele>
        <time>2013-09-16T11:49:17.000Z</time>
      </trkpt>
      <trkpt lat="43.22038" lon="6.58706">
        <ele>142</ele>
        <time>2013-09-16T11:49:18.000Z</time>
      </trkpt>
      <trkpt lat="43.22039" lon="6.58707">
        <ele>142</ele>
        <time>2013-09-16T11:49:19.000Z</time>
      </trkpt>
      <trkpt lat="43.2204" lon="6.58707">
        <ele>142</ele>
        <time>2013-09-16T11:49:20.000Z</time>
      </trkpt>
      <trkpt lat="43.22041" lon="6.58708">
        <ele>142</ele>
        <time>2013-09-16T11:49:21.000Z</time>
      </trkpt>
      <trkpt lat="43.22042" lon="6.58708">
        <ele>142</ele>
        <time>2013-09-16T11:49:22.000Z</time>
      </trkpt>
      <trkpt lat="43.22043" lon="6.58709">
        <ele>142</ele>
        <time>2013-09-16T11:49:23.000Z</time>
      </trkpt>
      <trkpt lat="43.22043" lon="6.58709">
        <ele>142</ele>
        <time>2013-09-16T11:49:24.000Z</time>
      </trkpt>
      <trkpt lat="43.22044" lon="6.5871">
        <ele>142</ele>
        <time>2013-09-16T11:49:25.000Z</time>
      </trkpt>
      <trkpt lat="43.22045" lon="6.5871">
        <ele>142</ele>
        <time>2013-09-16T11:49:26.000Z</time>
      </trkpt>
      <trkpt lat="43.22046" lon="6.58711">
        <ele>142</ele>
        <time>2013-09-16T11:49:27.000Z</time>
      </trkpt>
      <trkpt lat="43.22047" lon="6.58712">
        <ele>142</ele>
        <time>2013-09-16T11:49:28.000Z</time>
      </trkpt>
      <trkpt lat="43.22047" lon="6.58713">
        <ele>143</ele>
        <time>2013-09-16T11:49:29.000Z</time>
      </trkpt>
      <trkpt lat="43.22048" lon="6.58713">
        <ele>143</ele>
        <time>2013-09-16T11:49:30.000Z</time>
      </trkpt>
      <trkpt lat="43.22049" lon="6.58714">
        <ele>143</ele>
        <time>2013-09-16T11:49:31.000Z</time>
      </trkpt>
      <trkpt lat="43.2205" lon="6.58715">
        <ele>143</ele>
        <time>2013-09-16T11:49:32.000Z</time>
      </trkpt>
      <trkpt lat="43.2205" lon="6.58715">
        <ele>143</ele>
        <time>2013-09-16T11:49:33.000Z</time>
      </trkpt>
      <trkpt lat="43.22051" lon="6.58716">
        <ele>143</ele>
        <time>2013-09-16T11:49:34.000Z</time>
      </trkpt>
      <trkpt lat="43.22052" lon="6.58717">
        <ele>143</ele>
        <time>2013-09-16T11:49:35.000Z</time>
      </trkpt>
      <trkpt lat="43.22052" lon="6.58718">
        <ele>143</ele>
        <time>2013-09-16T11:49:36.000Z</time>
      </trkpt>
      <trkpt lat="43.22053" lon="6.58719">
        <ele>143</ele>
        <time>2013-09-16T11:49:37.000Z</time>
      </trkpt>
      <trkpt lat="43.22054" lon="6.5872">
        <ele>143</ele>
        <time>2013-09-16T11:49:38.000Z</time>
      </trkpt>
      <trkpt lat="43.22054" lon="6.5872">
        <ele>143</ele>
        <time>2013-09-16T11:49:39.000Z</time>
      </trkpt>
      <trkpt lat="43.22054" lon="6.5872">
        <ele>143</ele>
        <time>2013-09-16T11:49:40.000Z</time>
      </trkpt>
      <trkpt lat="43.22055" lon="6.58721">
        <ele>144</ele>
        <time>2013-09-16T11:49:46.000Z</time>
      </trkpt>
      <trkpt lat="43.22055" lon="6.58721">
        <ele>144</ele>
        <time>2013-09-16T11:49:51.000Z</time>
      </trkpt>
      <trkpt lat="43.22055" lon="6.58721">
        <ele>144</ele>
        <time>2013-09-16T11:49:52.000Z</time>
      </trkpt>
      <trkpt lat="43.22056" lon="6.58722">
        <ele>144</ele>
        <time>2013-09-16T11:49:53.000Z</time>
      </trkpt>
      <trkpt lat="43.22056" lon="6.58723">
        <ele>144</ele>
        <time>2013-09-16T11:49:54.000Z</time>
      </trkpt>
      <trkpt lat="43.22056" lon="6.58723">
        <ele>144</ele>
        <time>2013-09-16T11:49:55.000Z</time>
      </trkpt>
      <trkpt lat="43.22057" lon="6.58723">
        <ele>144</ele>
        <time>2013-09-16T11:49:56.000Z</time>
      </trkpt>
      <trkpt lat="43.22057" lon="6.58724">
        <ele>144</ele>
        <time>2013-09-16T11:50:01.000Z</time>
      </trkpt>
      <trkpt lat="43.22058" lon="6.58725">
        <ele>144</ele>
        <time>2013-09-16T11:50:02.000Z</time>
      </trkpt>
      <trkpt lat="43.22059" lon="6.58726">
        <ele>144</ele>
        <time>2013-09-16T11:50:03.000Z</time>
      </trkpt>
      <trkpt lat="43.22059" lon="6.58727">
        <ele>144</ele>
        <time>2013-09-16T11:50:04.000Z</time>
      </trkpt>
      <trkpt lat="43.2206" lon="6.58728">
        <ele>145</ele>
        <time>2013-09-16T11:50:05.000Z</time>
      </trkpt>
      <trkpt lat="43.22061" lon="6.58729">
        <ele>145</ele>
        <time>2013-09-16T11:50:06.000Z</time>
      </trkpt>
      <trkpt lat="43.22062" lon="6.5873">
        <ele>145</ele>
        <time>2013-09-16T11:50:07.000Z</time>
      </trkpt>
      <trkpt lat="43.22063" lon="6.58732">
        <ele>145</ele>
        <time>2013-09-16T11:50:08.000Z</time>
      </trkpt>
      <trkpt lat="43.22064" lon="6.58733">
        <ele>145</ele>
        <time>2013-09-16T11:50:09.000Z</time>
      </trkpt>
      <trkpt lat="43.22066" lon="6.58734">
        <ele>146</ele>
        <time>2013-09-16T11:50:10.000Z</time>
      </trkpt>
      <trkpt lat="43.22067" lon="6.58735">
        <ele>146</ele>
        <time>2013-09-16T11:50:11.000Z</time>
      </trkpt>
      <trkpt lat="43.22068" lon="6.58736">
        <ele>146</ele>
        <time>2013-09-16T11:50:12.000Z</time>
      </trkpt>
      <trkpt lat="43.22068" lon="6.58737">
        <ele>146</ele>
        <time>2013-09-16T11:50:13.000Z</time>
      </trkpt>
      <trkpt lat="43.22069" lon="6.58738">
        <ele>147</ele>
        <time>2013-09-16T11:50:14.000Z</time>
      </trkpt>
      <trkpt lat="43.2207" lon="6.58739">
        <ele>147</ele>
        <time>2013-09-16T11:50:15.000Z</time>
      </trkpt>
      <trkpt lat="43.22071" lon="6.58741">
        <ele>147</ele>
        <time>2013-09-16T11:50:16.000Z</time>
      </trkpt>
      <trkpt lat="43.22072" lon="6.58742">
        <ele>148</ele>
        <time>2013-09-16T11:50:17.000Z</time>
      </trkpt>
      <trkpt lat="43.22073" lon="6.58743">
        <ele>148</ele>
        <time>2013-09-16T11:50:18.000Z</time>
      </trkpt>
      <trkpt lat="43.22074" lon="6.58745">
        <ele>149</ele>
        <time>2013-09-16T11:50:19.000Z</time>
      </trkpt>
      <trkpt lat="43.22075" lon="6.58746">
        <ele>149</ele>
        <time>2013-09-16T11:50:20.000Z</time>
      </trkpt>
      <trkpt lat="43.22076" lon="6.58747">
        <ele>149</ele>
        <time>2013-09-16T11:50:21.000Z</time>
      </trkpt>
      <trkpt lat="43.22077" lon="6.58748">
        <ele>150</ele>
        <time>2013-09-16T11:50:22.000Z</time>
      </trkpt>
      <trkpt lat="43.22078" lon="6.5875">
        <ele>150</ele>
        <time>2013-09-16T11:50:23.000Z</time>
      </trkpt>
      <trkpt lat="43.22079" lon="6.58751">
        <ele>152</ele>
        <time>2013-09-16T11:50:24.000Z</time>
      </trkpt>
      <trkpt lat="43.2208" lon="6.58752">
        <ele>152</ele>
        <time>2013-09-16T11:50:25.000Z</time>
      </trkpt>
      <trkpt lat="43.22081" lon="6.58754">
        <ele>152</ele>
        <time>2013-09-16T11:50:26.000Z</time>
      </trkpt>
      <trkpt lat="43.22082" lon="6.58755">
        <ele>152</ele>
        <time>2013-09-16T11:50:27.000Z</time>
      </trkpt>
      <trkpt lat="43.22082" lon="6.58756">
        <ele>152</ele>
        <time>2013-09-16T11:50:28.000Z</time>
      </trkpt>
      <trkpt lat="43.22083" lon="6.58758">
        <ele>152</ele>
        <time>2013-09-16T11:50:29.000Z</time>
      </trkpt>
      <trkpt lat="43.22084" lon="6.58759">
        <ele>152</ele>
        <time>2013-09-16T11:50:30.000Z</time>
      </trkpt>
      <trkpt lat="43.22085" lon="6.5876">
        <ele>152</ele>
        <time>2013-09-16T11:50:31.000Z</time>
      </trkpt>
      <trkpt lat="43.22086" lon="6.58761">
        <ele>152</ele>
        <time>2013-09-16T11:50:32.000Z</time>
      </trkpt>
      <trkpt lat="43.22087" lon="6.58763">
        <ele>152</ele>
        <time>2013-09-16T11:50:33.000Z</time>
      </trkpt>
      <trkpt lat="43.22088" lon="6.58764">
        <ele>152</ele>
        <time>2013-09-16T11:50:34.000Z</time>
      </trkpt>
      <trkpt lat="43.22089" lon="6.58766">
        <ele>152</ele>
        <time>2013-09-16T11:50:35.000Z</time>
      </trkpt>
      <trkpt lat="43.22091" lon="6.58767">
        <ele>152</ele>
        <time>2013-09-16T11:50:36.000Z</time>
      </trkpt>
      <trkpt lat="43.22092" lon="6.58769">
        <ele>153</ele>
        <time>2013-09-16T11:50:37.000Z</time>
      </trkpt>
      <trkpt lat="43.22093" lon="6.5877">
        <ele>153</ele>
        <time>2013-09-16T11:50:38.000Z</time>
      </trkpt>
      <trkpt lat="43.22094" lon="6.58772">
        <ele>153</ele>
        <time>2013-09-16T11:50:39.000Z</time>
      </trkpt>
      <trkpt lat="43.22095" lon="6.58773">
        <ele>153</ele>
        <time>2013-09-16T11:50:40.000Z</time>
      </trkpt>
      <trkpt lat="43.22096" lon="6.58775">
        <ele>153</ele>
        <time>2013-09-16T11:50:41.000Z</time>
      </trkpt>
      <trkpt lat="43.22097" lon="6.58776">
        <ele>153</ele>
        <time>2013-09-16T11:50:42.000Z</time>
      </trkpt>
      <trkpt lat="43.22098" lon="6.58777">
        <ele>153</ele>
        <time>2013-09-16T11:50:43.000Z</time>
      </trkpt>
      <trkpt lat="43.22099" lon="6.58779">
        <ele>153</ele>
        <time>2013-09-16T11:50:44.000Z</time>
      </trkpt>
      <trkpt lat="43.221" lon="6.5878">
        <ele>153</ele>
        <time>2013-09-16T11:50:45.000Z</time>
      </trkpt>
      <trkpt lat="43.22101" lon="6.58781">
        <ele>153</ele>
        <time>2013-09-16T11:50:46.000Z</time>
      </trkpt>
      <trkpt lat="43.22102" lon="6.58782">
        <ele>153</ele>
        <time>2013-09-16T11:50:47.000Z</time>
      </trkpt>
      <trkpt lat="43.22103" lon="6.58784">
        <ele>153</ele>
        <time>2013-09-16T11:50:48.000Z</time>
      </trkpt>
      <trkpt lat="43.22104" lon="6.58785">
        <ele>153</ele>
        <time>2013-09-16T11:50:49.000Z</time>
      </trkpt>
      <trkpt lat="43.22105" lon="6.58786">
        <ele>153</ele>
        <time>2013-09-16T11:50:50.000Z</time>
      </trkpt>
      <trkpt lat="43.22106" lon="6.58788">
        <ele>153</ele>
        <time>2013-09-16T11:50:51.000Z</time>
      </trkpt>
      <trkpt lat="43.22107" lon="6.58789">
        <ele>153</ele>
        <time>2013-09-16T11:50:52.000Z</time>
      </trkpt>
      <trkpt lat="43.22108" lon="6.58791">
        <ele>154</ele>
        <time>2013-09-16T11:50:53.000Z</time>
      </trkpt>
      <trkpt lat="43.22109" lon="6.58792">
        <ele>154</ele>
        <time>2013-09-16T11:50:54.000Z</time>
      </trkpt>
      <trkpt lat="43.2211" lon="6.58794">
        <ele>154</ele>
        <time>2013-09-16T11:50:55.000Z</time>
      </trkpt>
      <trkpt lat="43.22111" lon="6.58795">
        <ele>154</ele>
        <time>2013-09-16T11:50:56.000Z</time>
      </trkpt>
      <trkpt lat="43.22112" lon="6.58797">
        <ele>154</ele>
        <time>2013-09-16T11:50:57.000Z</time>
      </trkpt>
      <trkpt lat="43.22113" lon="6.58798">
        <ele>154</ele>
        <time>2013-09-16T11:50:58.000Z</time>
      </trkpt>
      <trkpt lat="43.22115" lon="6.588">
        <ele>154</ele>
        <time>2013-09-16T11:50:59.000Z</time>
      </trkpt>
      <trkpt lat="43.22116" lon="6.58802">
        <ele>154</ele>
        <time>2013-09-16T11:51:00.000Z</time>
      </trkpt>
      <trkpt lat="43.22118" lon="6.58803">
        <ele>154</ele>
        <time>2013-09-16T11:51:01.000Z</time>
      </trkpt>
      <trkpt lat="43.22119" lon="6.58805">
        <ele>154</ele>
        <time>2013-09-16T11:51:02.000Z</time>
      </trkpt>
      <trkpt lat="43.2212" lon="6.58806">
        <ele>154</ele>
        <time>2013-09-16T11:51:03.000Z</time>
      </trkpt>
      <trkpt lat="43.22122" lon="6.58808">
        <ele>154</ele>
        <time>2013-09-16T11:51:04.000Z</time>
      </trkpt>
      <trkpt lat="43.22123" lon="6.58809">
        <ele>154</ele>
        <time>2013-09-16T11:51:05.000Z</time>
      </trkpt>
      <trkpt lat="43.22124" lon="6.58811">
        <ele>154</ele>
        <time>2013-09-16T11:51:06.000Z</time>
      </trkpt>
      <trkpt lat="43.22126" lon="6.58812">
        <ele>154</ele>
        <time>2013-09-16T11:51:07.000Z</time>
      </trkpt>
      <trkpt lat="43.22127" lon="6.58813">
        <ele>154</ele>
        <time>2013-09-16T11:51:08.000Z</time>
      </trkpt>
      <trkpt lat="43.22129" lon="6.58815">
        <ele>154</ele>
        <time>2013-09-16T11:51:09.000Z</time>
      </trkpt>
      <trkpt lat="43.22131" lon="6.58816">
        <ele>155</ele>
        <time>2013-09-16T11:51:10.000Z</time>
      </trkpt>
      <trkpt lat="43.22132" lon="6.58817">
        <ele>155</ele>
        <time>2013-09-16T11:51:11.000Z</time>
      </trkpt>
      <trkpt lat="43.22134" lon="6.58818">
        <ele>155</ele>
        <time>2013-09-16T11:51:12.000Z</time>
      </trkpt>
      <trkpt lat="43.22136" lon="6.58819">
        <ele>155</ele>
        <time>2013-09-16T11:51:13.000Z</time>
      </trkpt>
      <trkpt lat="43.22138" lon="6.5882">
        <ele>155</ele>
        <time>2013-09-16T11:51:14.000Z</time>
      </trkpt>
      <trkpt lat="43.2214" lon="6.58821">
        <ele>155</ele>
        <time>2013-09-16T11:51:15.000Z</time>
      </trkpt>
      <trkpt lat="43.22141" lon="6.58823">
        <ele>155</ele>
        <time>2013-09-16T11:51:16.000Z</time>
      </trkpt>
      <trkpt lat="43.22143" lon="6.58823">
        <ele>155</ele>
        <time>2013-09-16T11:51:17.000Z</time>
      </trkpt>
      <trkpt lat="43.22145" lon="6.58824">
        <ele>155</ele>
        <time>2013-09-16T11:51:18.000Z</time>
      </trkpt>
      <trkpt lat="43.22147" lon="6.58825">
        <ele>155</ele>
        <time>2013-09-16T11:51:19.000Z</time>
      </trkpt>
      <trkpt lat="43.22149" lon="6.58825">
        <ele>155</ele>
        <time>2013-09-16T11:51:20.000Z</time>
      </trkpt>
      <trkpt lat="43.22152" lon="6.58826">
        <ele>156</ele>
        <time>2013-09-16T11:51:21.000Z</time>
      </trkpt>
      <trkpt lat="43.22155" lon="6.58827">
        <ele>156</ele>
        <time>2013-09-16T11:51:22.000Z</time>
      </trkpt>
      <trkpt lat="43.22158" lon="6.58828">
        <ele>156</ele>
        <time>2013-09-16T11:51:23.000Z</time>
      </trkpt>
      <trkpt lat="43.2216" lon="6.58828">
        <ele>156</ele>
        <time>2013-09-16T11:51:24.000Z</time>
      </trkpt>
      <trkpt lat="43.22163" lon="6.58829">
        <ele>157</ele>
        <time>2013-09-16T11:51:25.000Z</time>
      </trkpt>
      <trkpt lat="43.22165" lon="6.5883">
        <ele>157</ele>
        <time>2013-09-16T11:51:26.000Z</time>
      </trkpt>
      <trkpt lat="43.22167" lon="6.58831">
        <ele>157</ele>
        <time>2013-09-16T11:51:27.000Z</time>
      </trkpt>
      <trkpt lat="43.22169" lon="6.58833">
        <ele>157</ele>
        <time>2013-09-16T11:51:28.000Z</time>
      </trkpt>
      <trkpt lat="43.22171" lon="6.58834">
        <ele>158</ele>
        <time>2013-09-16T11:51:29.000Z</time>
      </trkpt>
      <trkpt lat="43.22174" lon="6.58836">
        <ele>159</ele>
        <time>2013-09-16T11:51:30.000Z</time>
      </trkpt>
      <trkpt lat="43.22176" lon="6.58837">
        <ele>159</ele>
        <time>2013-09-16T11:51:31.000Z</time>
      </trkpt>
      <trkpt lat="43.22178" lon="6.58839">
        <ele>159</ele>
        <time>2013-09-16T11:51:32.000Z</time>
      </trkpt>
      <trkpt lat="43.2218" lon="6.58841">
        <ele>159</ele>
        <time>2013-09-16T11:51:33.000Z</time>
      </trkpt>
      <trkpt lat="43.22182" lon="6.58843">
        <ele>159</ele>
        <time>2013-09-16T11:51:34.000Z</time>
      </trkpt>
      <trkpt lat="43.22185" lon="6.58846">
        <ele>159</ele>
        <time>2013-09-16T11:51:35.000Z</time>
      </trkpt>
      <trkpt lat="43.22187" lon="6.58848">
        <ele>159</ele>
        <time>2013-09-16T11:51:36.000Z</time>
      </trkpt>
      <trkpt lat="43.22188" lon="6.58852">
        <ele>159</ele>
        <time>2013-09-16T11:51:37.000Z</time>
      </trkpt>
      <trkpt lat="43.2219" lon="6.58855">
        <ele>160</ele>
        <time>2013-09-16T11:51:38.000Z</time>
      </trkpt>
      <trkpt lat="43.22191" lon="6.58858">
        <ele>160</ele>
        <time>2013-09-16T11:51:39.000Z</time>
      </trkpt>
      <trkpt lat="43.22193" lon="6.58862">
        <ele>160</ele>
        <time>2013-09-16T11:51:40.000Z</time>
      </trkpt>
      <trkpt lat="43.22195" lon="6.58866">
        <ele>160</ele>
        <time>2013-09-16T11:51:41.000Z</time>
      </trkpt>
      <trkpt lat="43.22198" lon="6.5887">
        <ele>161</ele>
        <time>2013-09-16T11:51:42.000Z</time>
      </trkpt>
      <trkpt lat="43.22201" lon="6.58874">
        <ele>161</ele>
        <time>2013-09-16T11:51:43.000Z</time>
      </trkpt>
      <trkpt lat="43.22204" lon="6.58878">
        <ele>161</ele>
        <time>2013-09-16T11:51:44.000Z</time>
      </trkpt>
      <trkpt lat="43.22209" lon="6.5888">
        <ele>161</ele>
        <time>2013-09-16T11:51:45.000Z</time>
      </trkpt>
      <trkpt lat="43.22213" lon="6.5888">
        <ele>161</ele>
        <time>2013-09-16T11:51:46.000Z</time>
      </trkpt>
      <trkpt lat="43.22217" lon="6.58879">
        <ele>160</ele>
        <time>2013-09-16T11:51:47.000Z</time>
      </trkpt>
      <trkpt lat="43.22221" lon="6.58877">
        <ele>160</ele>
        <time>2013-09-16T11:51:48.000Z</time>
      </trkpt>
      <trkpt lat="43.22224" lon="6.58875">
        <ele>160</ele>
        <time>2013-09-16T11:51:49.000Z</time>
      </trkpt>
      <trkpt lat="43.22227" lon="6.58874">
        <ele>160</ele>
        <time>2013-09-16T11:51:50.000Z</time>
      </trkpt>
      <trkpt lat="43.22229" lon="6.58873">
        <ele>159</ele>
        <time>2013-09-16T11:51:51.000Z</time>
      </trkpt>
      <trkpt lat="43.22232" lon="6.58871">
        <ele>159</ele>
        <time>2013-09-16T11:51:52.000Z</time>
      </trkpt>
      <trkpt lat="43.22235" lon="6.58871">
        <ele>159</ele>
        <time>2013-09-16T11:51:53.000Z</time>
      </trkpt>
      <trkpt lat="43.22237" lon="6.5887">
        <ele>159</ele>
        <time>2013-09-16T11:51:54.000Z</time>
      </trkpt>
      <trkpt lat="43.2224" lon="6.58869">
        <ele>158</ele>
        <time>2013-09-16T11:51:55.000Z</time>
      </trkpt>
      <trkpt lat="43.22242" lon="6.58868">
        <ele>158</ele>
        <time>2013-09-16T11:51:56.000Z</time>
      </trkpt>
      <trkpt lat="43.22244" lon="6.58867">
        <ele>158</ele>
        <time>2013-09-16T11:51:57.000Z</time>
      </trkpt>
      <trkpt lat="43.22247" lon="6.58867">
        <ele>158</ele>
        <time>2013-09-16T11:51:58.000Z</time>
      </trkpt>
      <trkpt lat="43.22249" lon="6.58866">
        <ele>158</ele>
        <time>2013-09-16T11:51:59.000Z</time>
      </trkpt>
      <trkpt lat="43.22251" lon="6.58866">
        <ele>157</ele>
        <time>2013-09-16T11:52:00.000Z</time>
      </trkpt>
      <trkpt lat="43.22253" lon="6.58865">
        <ele>157</ele>
        <time>2013-09-16T11:52:01.000Z</time>
      </trkpt>
      <trkpt lat="43.22255" lon="6.58865">
        <ele>157</ele>
        <time>2013-09-16T11:52:02.000Z</time>
      </trkpt>
      <trkpt lat="43.22258" lon="6.58865">
        <ele>157</ele>
        <time>2013-09-16T11:52:04.000Z</time>
      </trkpt>
      <trkpt lat="43.22259" lon="6.58865">
        <ele>157</ele>
        <time>2013-09-16T11:52:05.000Z</time>
      </trkpt>
      <trkpt lat="43.22261" lon="6.58865">
        <ele>157</ele>
        <time>2013-09-16T11:52:06.000Z</time>
      </trkpt>
      <trkpt lat="43.22262" lon="6.58864">
        <ele>157</ele>
        <time>2013-09-16T11:52:07.000Z</time>
      </trkpt>
      <trkpt lat="43.22264" lon="6.58864">
        <ele>157</ele>
        <time>2013-09-16T11:52:08.000Z</time>
      </trkpt>
      <trkpt lat="43.22265" lon="6.58863">
        <ele>157</ele>
        <time>2013-09-16T11:52:09.000Z</time>
      </trkpt>
      <trkpt lat="43.22267" lon="6.58863">
        <ele>157</ele>
        <time>2013-09-16T11:52:10.000Z</time>
      </trkpt>
      <trkpt lat="43.22268" lon="6.58862">
        <ele>157</ele>
        <time>2013-09-16T11:52:11.000Z</time>
      </trkpt>
      <trkpt lat="43.2227" lon="6.58862">
        <ele>157</ele>
        <time>2013-09-16T11:52:12.000Z</time>
      </trkpt>
      <trkpt lat="43.22272" lon="6.58861">
        <ele>157</ele>
        <time>2013-09-16T11:52:13.000Z</time>
      </trkpt>
      <trkpt lat="43.22274" lon="6.58861">
        <ele>157</ele>
        <time>2013-09-16T11:52:14.000Z</time>
      </trkpt>
      <trkpt lat="43.22275" lon="6.58861">
        <ele>157</ele>
        <time>2013-09-16T11:52:15.000Z</time>
      </trkpt>
      <trkpt lat="43.22277" lon="6.5886">
        <ele>157</ele>
        <time>2013-09-16T11:52:16.000Z</time>
      </trkpt>
      <trkpt lat="43.22279" lon="6.5886">
        <ele>157</ele>
        <time>2013-09-16T11:52:17.000Z</time>
      </trkpt>
      <trkpt lat="43.22281" lon="6.5886">
        <ele>157</ele>
        <time>2013-09-16T11:52:18.000Z</time>
      </trkpt>
      <trkpt lat="43.22283" lon="6.58859">
        <ele>158</ele>
        <time>2013-09-16T11:52:19.000Z</time>
      </trkpt>
      <trkpt lat="43.22285" lon="6.58859">
        <ele>158</ele>
        <time>2013-09-16T11:52:20.000Z</time>
      </trkpt>
      <trkpt lat="43.22287" lon="6.58858">
        <ele>158</ele>
        <time>2013-09-16T11:52:21.000Z</time>
      </trkpt>
      <trkpt lat="43.22289" lon="6.58857">
        <ele>158</ele>
        <time>2013-09-16T11:52:22.000Z</time>
      </trkpt>
      <trkpt lat="43.22291" lon="6.58857">
        <ele>158</ele>
        <time>2013-09-16T11:52:23.000Z</time>
      </trkpt>
      <trkpt lat="43.22294" lon="6.58856">
        <ele>158</ele>
        <time>2013-09-16T11:52:24.000Z</time>
      </trkpt>
      <trkpt lat="43.22296" lon="6.58856">
        <ele>158</ele>
        <time>2013-09-16T11:52:25.000Z</time>
      </trkpt>
      <trkpt lat="43.22298" lon="6.58855">
        <ele>158</ele>
        <time>2013-09-16T11:52:26.000Z</time>
      </trkpt>
      <trkpt lat="43.22301" lon="6.58855">
        <ele>158</ele>
        <time>2013-09-16T11:52:27.000Z</time>
      </trkpt>
      <trkpt lat="43.22304" lon="6.58855">
        <ele>158</ele>
        <time>2013-09-16T11:52:28.000Z</time>
      </trkpt>
      <trkpt lat="43.22307" lon="6.58854">
        <ele>158</ele>
        <time>2013-09-16T11:52:29.000Z</time>
      </trkpt>
      <trkpt lat="43.2231" lon="6.58854">
        <ele>158</ele>
        <time>2013-09-16T11:52:30.000Z</time>
      </trkpt>
      <trkpt lat="43.22323" lon="6.58854">
        <ele>158</ele>
        <time>2013-09-16T11:52:33.000Z</time>
      </trkpt>
      <trkpt lat="43.22328" lon="6.58855">
        <ele>158</ele>
        <time>2013-09-16T11:52:34.000Z</time>
      </trkpt>
      <trkpt lat="43.22332" lon="6.58855">
        <ele>158</ele>
        <time>2013-09-16T11:52:35.000Z</time>
      </trkpt>
      <trkpt lat="43.22336" lon="6.58855">
        <ele>159</ele>
        <time>2013-09-16T11:52:36.000Z</time>
      </trkpt>
      <trkpt lat="43.22341" lon="6.58855">
        <ele>159</ele>
        <time>2013-09-16T11:52:37.000Z</time>
      </trkpt>
      <trkpt lat="43.22346" lon="6.58855">
        <ele>159</ele>
        <time>2013-09-16T11:52:38.000Z</time>
      </trkpt>
      <trkpt lat="43.22351" lon="6.58854">
        <ele>159</ele>
        <time>2013-09-16T11:52:39.000Z</time>
      </trkpt>
      <trkpt lat="43.22357" lon="6.58853">
        <ele>159</ele>
        <time>2013-09-16T11:52:40.000Z</time>
      </trkpt>
      <trkpt lat="43.22362" lon="6.58852">
        <ele>159</ele>
        <time>2013-09-16T11:52:41.000Z</time>
      </trkpt>
      <trkpt lat="43.22366" lon="6.5885">
        <ele>159</ele>
        <time>2013-09-16T11:52:42.000Z</time>
      </trkpt>
      <trkpt lat="43.22371" lon="6.58848">
        <ele>159</ele>
        <time>2013-09-16T11:52:43.000Z</time>
      </trkpt>
      <trkpt lat="43.22375" lon="6.58846">
        <ele>159</ele>
        <time>2013-09-16T11:52:44.000Z</time>
      </trkpt>
      <trkpt lat="43.22379" lon="6.58845">
        <ele>159</ele>
        <time>2013-09-16T11:52:45.000Z</time>
      </trkpt>
      <trkpt lat="43.22384" lon="6.58844">
        <ele>159</ele>
        <time>2013-09-16T11:52:46.000Z</time>
      </trkpt>
      <trkpt lat="43.22388" lon="6.58842">
        <ele>159</ele>
        <time>2013-09-16T11:52:47.000Z</time>
      </trkpt>
      <trkpt lat="43.22392" lon="6.58841">
        <ele>159</ele>
        <time>2013-09-16T11:52:48.000Z</time>
      </trkpt>
      <trkpt lat="43.22396" lon="6.58841">
        <ele>158</ele>
        <time>2013-09-16T11:52:49.000Z</time>
      </trkpt>
      <trkpt lat="43.224" lon="6.58841">
        <ele>158</ele>
        <time>2013-09-16T11:52:50.000Z</time>
      </trkpt>
      <trkpt lat="43.22403" lon="6.5884">
        <ele>158</ele>
        <time>2013-09-16T11:52:51.000Z</time>
      </trkpt>
      <trkpt lat="43.22406" lon="6.5884">
        <ele>158</ele>
        <time>2013-09-16T11:52:52.000Z</time>
      </trkpt>
      <trkpt lat="43.22412" lon="6.58839">
        <ele>157</ele>
        <time>2013-09-16T11:52:54.000Z</time>
      </trkpt>
      <trkpt lat="43.22415" lon="6.58839">
        <ele>157</ele>
        <time>2013-09-16T11:52:55.000Z</time>
      </trkpt>
      <trkpt lat="43.22418" lon="6.58838">
        <ele>156</ele>
        <time>2013-09-16T11:52:56.000Z</time>
      </trkpt>
      <trkpt lat="43.22421" lon="6.58837">
        <ele>156</ele>
        <time>2013-09-16T11:52:57.000Z</time>
      </trkpt>
      <trkpt lat="43.22424" lon="6.58837">
        <ele>156</ele>
        <time>2013-09-16T11:52:58.000Z</time>
      </trkpt>
      <trkpt lat="43.22427" lon="6.58836">
        <ele>157</ele>
        <time>2013-09-16T11:52:59.000Z</time>
      </trkpt>
      <trkpt lat="43.22431" lon="6.58836">
        <ele>157</ele>
        <time>2013-09-16T11:53:00.000Z</time>
      </trkpt>
      <trkpt lat="43.22434" lon="6.58835">
        <ele>157</ele>
        <time>2013-09-16T11:53:01.000Z</time>
      </trkpt>
      <trkpt lat="43.22438" lon="6.58834">
        <ele>157</ele>
        <time>2013-09-16T11:53:02.000Z</time>
      </trkpt>
      <trkpt lat="43.22441" lon="6.58833">
        <ele>154</ele>
        <time>2013-09-16T11:53:03.000Z</time>
      </trkpt>
      <trkpt lat="43.22444" lon="6.58831">
        <ele>153</ele>
        <time>2013-09-16T11:53:04.000Z</time>
      </trkpt>
      <trkpt lat="43.22448" lon="6.58828">
        <ele>153</ele>
        <time>2013-09-16T11:53:05.000Z</time>
      </trkpt>
      <trkpt lat="43.22451" lon="6.58825">
        <ele>153</ele>
        <time>2013-09-16T11:53:06.000Z</time>
      </trkpt>
      <trkpt lat="43.22454" lon="6.58822">
        <ele>153</ele>
        <time>2013-09-16T11:53:07.000Z</time>
      </trkpt>
      <trkpt lat="43.22458" lon="6.58818">
        <ele>153</ele>
        <time>2013-09-16T11:53:08.000Z</time>
      </trkpt>
      <trkpt lat="43.22461" lon="6.58815">
        <ele>153</ele>
        <time>2013-09-16T11:53:09.000Z</time>
      </trkpt>
      <trkpt lat="43.22464" lon="6.58812">
        <ele>153</ele>
        <time>2013-09-16T11:53:10.000Z</time>
      </trkpt>
      <trkpt lat="43.22468" lon="6.58808">
        <ele>153</ele>
        <time>2013-09-16T11:53:11.000Z</time>
      </trkpt>
      <trkpt lat="43.22472" lon="6.58804">
        <ele>153</ele>
        <time>2013-09-16T11:53:12.000Z</time>
      </trkpt>
      <trkpt lat="43.22475" lon="6.588">
        <ele>153</ele>
        <time>2013-09-16T11:53:13.000Z</time>
      </trkpt>
      <trkpt lat="43.22478" lon="6.58796">
        <ele>153</ele>
        <time>2013-09-16T11:53:14.000Z</time>
      </trkpt>
      <trkpt lat="43.22482" lon="6.58792">
        <ele>153</ele>
        <time>2013-09-16T11:53:15.000Z</time>
      </trkpt>
      <trkpt lat="43.22484" lon="6.58788">
        <ele>153</ele>
        <time>2013-09-16T11:53:16.000Z</time>
      </trkpt>
      <trkpt lat="43.22486" lon="6.58785">
        <ele>153</ele>
        <time>2013-09-16T11:53:17.000Z</time>
      </trkpt>
      <trkpt lat="43.22488" lon="6.58782">
        <ele>153</ele>
        <time>2013-09-16T11:53:18.000Z</time>
      </trkpt>
      <trkpt lat="43.2249" lon="6.58778">
        <ele>153</ele>
        <time>2013-09-16T11:53:19.000Z</time>
      </trkpt>
      <trkpt lat="43.22493" lon="6.58775">
        <ele>153</ele>
        <time>2013-09-16T11:53:20.000Z</time>
      </trkpt>
      <trkpt lat="43.22495" lon="6.58772">
        <ele>153</ele>
        <time>2013-09-16T11:53:21.000Z</time>
      </trkpt>
      <trkpt lat="43.22497" lon="6.5877">
        <ele>153</ele>
        <time>2013-09-16T11:53:22.000Z</time>
      </trkpt>
      <trkpt lat="43.22498" lon="6.58767">
        <ele>153</ele>
        <time>2013-09-16T11:53:23.000Z</time>
      </trkpt>
      <trkpt lat="43.22499" lon="6.58765">
        <ele>154</ele>
        <time>2013-09-16T11:53:24.000Z</time>
      </trkpt>
      <trkpt lat="43.22501" lon="6.58763">
        <ele>154</ele>
        <time>2013-09-16T11:53:25.000Z</time>
      </trkpt>
      <trkpt lat="43.22502" lon="6.58761">
        <ele>154</ele>
        <time>2013-09-16T11:53:26.000Z</time>
      </trkpt>
      <trkpt lat="43.22503" lon="6.5876">
        <ele>154</ele>
        <time>2013-09-16T11:53:27.000Z</time>
      </trkpt>
      <trkpt lat="43.22505" lon="6.58758">
        <ele>154</ele>
        <time>2013-09-16T11:53:28.000Z</time>
      </trkpt>
      <trkpt lat="43.22506" lon="6.58756">
        <ele>154</ele>
        <time>2013-09-16T11:53:29.000Z</time>
      </trkpt>
      <trkpt lat="43.22507" lon="6.58754">
        <ele>154</ele>
        <time>2013-09-16T11:53:30.000Z</time>
      </trkpt>
      <trkpt lat="43.22508" lon="6.58752">
        <ele>154</ele>
        <time>2013-09-16T11:53:31.000Z</time>
      </trkpt>
      <trkpt lat="43.2251" lon="6.5875">
        <ele>155</ele>
        <time>2013-09-16T11:53:32.000Z</time>
      </trkpt>
      <trkpt lat="43.22512" lon="6.58748">
        <ele>155</ele>
        <time>2013-09-16T11:53:33.000Z</time>
      </trkpt>
      <trkpt lat="43.22513" lon="6.58746">
        <ele>155</ele>
        <time>2013-09-16T11:53:34.000Z</time>
      </trkpt>
      <trkpt lat="43.22515" lon="6.58744">
        <ele>155</ele>
        <time>2013-09-16T11:53:35.000Z</time>
      </trkpt>
      <trkpt lat="43.22517" lon="6.58742">
        <ele>155</ele>
        <time>2013-09-16T11:53:36.000Z</time>
      </trkpt>
      <trkpt lat="43.22519" lon="6.5874">
        <ele>155</ele>
        <time>2013-09-16T11:53:37.000Z</time>
      </trkpt>
      <trkpt lat="43.22521" lon="6.58738">
        <ele>155</ele>
        <time>2013-09-16T11:53:38.000Z</time>
      </trkpt>
      <trkpt lat="43.22522" lon="6.58736">
        <ele>155</ele>
        <time>2013-09-16T11:53:39.000Z</time>
      </trkpt>
      <trkpt lat="43.22524" lon="6.58733">
        <ele>155</ele>
        <time>2013-09-16T11:53:40.000Z</time>
      </trkpt>
      <trkpt lat="43.22525" lon="6.58731">
        <ele>156</ele>
        <time>2013-09-16T11:53:41.000Z</time>
      </trkpt>
      <trkpt lat="43.22527" lon="6.58729">
        <ele>156</ele>
        <time>2013-09-16T11:53:42.000Z</time>
      </trkpt>
      <trkpt lat="43.22528" lon="6.58727">
        <ele>156</ele>
        <time>2013-09-16T11:53:43.000Z</time>
      </trkpt>
      <trkpt lat="43.2253" lon="6.58725">
        <ele>156</ele>
        <time>2013-09-16T11:53:44.000Z</time>
      </trkpt>
      <trkpt lat="43.22532" lon="6.58723">
        <ele>156</ele>
        <time>2013-09-16T11:53:45.000Z</time>
      </trkpt>
      <trkpt lat="43.22533" lon="6.58721">
        <ele>156</ele>
        <time>2013-09-16T11:53:46.000Z</time>
      </trkpt>
      <trkpt lat="43.22534" lon="6.5872">
        <ele>156</ele>
        <time>2013-09-16T11:53:47.000Z</time>
      </trkpt>
      <trkpt lat="43.22536" lon="6.58718">
        <ele>156</ele>
        <time>2013-09-16T11:53:48.000Z</time>
      </trkpt>
      <trkpt lat="43.22538" lon="6.58717">
        <ele>156</ele>
        <time>2013-09-16T11:53:49.000Z</time>
      </trkpt>
      <trkpt lat="43.22539" lon="6.58715">
        <ele>156</ele>
        <time>2013-09-16T11:53:50.000Z</time>
      </trkpt>
      <trkpt lat="43.22541" lon="6.58713">
        <ele>156</ele>
        <time>2013-09-16T11:53:51.000Z</time>
      </trkpt>
      <trkpt lat="43.22543" lon="6.58712">
        <ele>156</ele>
        <time>2013-09-16T11:53:52.000Z</time>
      </trkpt>
      <trkpt lat="43.22545" lon="6.5871">
        <ele>156</ele>
        <time>2013-09-16T11:53:53.000Z</time>
      </trkpt>
      <trkpt lat="43.22547" lon="6.58708">
        <ele>156</ele>
        <time>2013-09-16T11:53:54.000Z</time>
      </trkpt>
      <trkpt lat="43.22549" lon="6.58707">
        <ele>157</ele>
        <time>2013-09-16T11:53:55.000Z</time>
      </trkpt>
      <trkpt lat="43.22551" lon="6.58705">
        <ele>157</ele>
        <time>2013-09-16T11:53:56.000Z</time>
      </trkpt>
      <trkpt lat="43.22553" lon="6.58703">
        <ele>157</ele>
        <time>2013-09-16T11:53:57.000Z</time>
      </trkpt>
      <trkpt lat="43.22555" lon="6.58701">
        <ele>157</ele>
        <time>2013-09-16T11:53:58.000Z</time>
      </trkpt>
      <trkpt lat="43.22557" lon="6.58699">
        <ele>157</ele>
        <time>2013-09-16T11:53:59.000Z</time>
      </trkpt>
      <trkpt lat="43.2256" lon="6.58698">
        <ele>157</ele>
        <time>2013-09-16T11:54:00.000Z</time>
      </trkpt>
      <trkpt lat="43.22562" lon="6.58697">
        <ele>158</ele>
        <time>2013-09-16T11:54:01.000Z</time>
      </trkpt>
      <trkpt lat="43.22564" lon="6.58695">
        <ele>158</ele>
        <time>2013-09-16T11:54:02.000Z</time>
      </trkpt>
      <trkpt lat="43.22567" lon="6.58694">
        <ele>158</ele>
        <time>2013-09-16T11:54:03.000Z</time>
      </trkpt>
      <trkpt lat="43.22569" lon="6.58692">
        <ele>159</ele>
        <time>2013-09-16T11:54:04.000Z</time>
      </trkpt>
      <trkpt lat="43.22572" lon="6.5869">
        <ele>159</ele>
        <time>2013-09-16T11:54:05.000Z</time>
      </trkpt>
      <trkpt lat="43.22575" lon="6.58689">
        <ele>159</ele>
        <time>2013-09-16T11:54:06.000Z</time>
      </trkpt>
      <trkpt lat="43.22577" lon="6.58687">
        <ele>160</ele>
        <time>2013-09-16T11:54:07.000Z</time>
      </trkpt>
      <trkpt lat="43.22581" lon="6.58685">
        <ele>160</ele>
        <time>2013-09-16T11:54:08.000Z</time>
      </trkpt>
      <trkpt lat="43.22585" lon="6.58683">
        <ele>161</ele>
        <time>2013-09-16T11:54:09.000Z</time>
      </trkpt>
      <trkpt lat="43.22589" lon="6.58681">
        <ele>161</ele>
        <time>2013-09-16T11:54:10.000Z</time>
      </trkpt>
      <trkpt lat="43.22594" lon="6.58679">
        <ele>161</ele>
        <time>2013-09-16T11:54:11.000Z</time>
      </trkpt>
      <trkpt lat="43.22598" lon="6.58679">
        <ele>161</ele>
        <time>2013-09-16T11:54:12.000Z</time>
      </trkpt>
      <trkpt lat="43.22602" lon="6.58678">
        <ele>160</ele>
        <time>2013-09-16T11:54:13.000Z</time>
      </trkpt>
      <trkpt lat="43.22606" lon="6.58677">
        <ele>160</ele>
        <time>2013-09-16T11:54:14.000Z</time>
      </trkpt>
      <trkpt lat="43.22609" lon="6.58676">
        <ele>160</ele>
        <time>2013-09-16T11:54:15.000Z</time>
      </trkpt>
      <trkpt lat="43.22611" lon="6.58675">
        <ele>160</ele>
        <time>2013-09-16T11:54:16.000Z</time>
      </trkpt>
      <trkpt lat="43.22612" lon="6.58672">
        <ele>160</ele>
        <time>2013-09-16T11:54:17.000Z</time>
      </trkpt>
      <trkpt lat="43.22613" lon="6.58669">
        <ele>160</ele>
        <time>2013-09-16T11:54:18.000Z</time>
      </trkpt>
      <trkpt lat="43.22614" lon="6.58666">
        <ele>166</ele>
        <time>2013-09-16T11:54:19.000Z</time>
      </trkpt>
      <trkpt lat="43.22615" lon="6.58664">
        <ele>166</ele>
        <time>2013-09-16T11:54:20.000Z</time>
      </trkpt>
      <trkpt lat="43.22615" lon="6.58661">
        <ele>166</ele>
        <time>2013-09-16T11:54:21.000Z</time>
      </trkpt>
      <trkpt lat="43.22615" lon="6.58655">
        <ele>166</ele>
        <time>2013-09-16T11:54:24.000Z</time>
      </trkpt>
      <trkpt lat="43.22615" lon="6.58653">
        <ele>166</ele>
        <time>2013-09-16T11:54:25.000Z</time>
      </trkpt>
      <trkpt lat="43.22616" lon="6.58651">
        <ele>166</ele>
        <time>2013-09-16T11:54:26.000Z</time>
      </trkpt>
      <trkpt lat="43.22616" lon="6.58649">
        <ele>166</ele>
        <time>2013-09-16T11:54:27.000Z</time>
      </trkpt>
      <trkpt lat="43.22617" lon="6.58647">
        <ele>166</ele>
        <time>2013-09-16T11:54:28.000Z</time>
      </trkpt>
      <trkpt lat="43.22617" lon="6.58646">
        <ele>166</ele>
        <time>2013-09-16T11:54:29.000Z</time>
      </trkpt>
      <trkpt lat="43.22618" lon="6.58645">
        <ele>166</ele>
        <time>2013-09-16T11:54:30.000Z</time>
      </trkpt>
      <trkpt lat="43.22619" lon="6.58643">
        <ele>166</ele>
        <time>2013-09-16T11:54:31.000Z</time>
      </trkpt>
      <trkpt lat="43.2262" lon="6.58642">
        <ele>166</ele>
        <time>2013-09-16T11:54:32.000Z</time>
      </trkpt>
      <trkpt lat="43.22621" lon="6.58641">
        <ele>166</ele>
        <time>2013-09-16T11:54:33.000Z</time>
      </trkpt>
      <trkpt lat="43.22621" lon="6.5864">
        <ele>166</ele>
        <time>2013-09-16T11:54:34.000Z</time>
      </trkpt>
      <trkpt lat="43.22623" lon="6.58639">
        <ele>166</ele>
        <time>2013-09-16T11:54:35.000Z</time>
      </trkpt>
      <trkpt lat="43.22624" lon="6.58638">
        <ele>166</ele>
        <time>2013-09-16T11:54:36.000Z</time>
      </trkpt>
      <trkpt lat="43.22625" lon="6.58636">
        <ele>166</ele>
        <time>2013-09-16T11:54:37.000Z</time>
      </trkpt>
      <trkpt lat="43.22625" lon="6.58635">
        <ele>166</ele>
        <time>2013-09-16T11:54:38.000Z</time>
      </trkpt>
      <trkpt lat="43.22627" lon="6.58634">
        <ele>166</ele>
        <time>2013-09-16T11:54:39.000Z</time>
      </trkpt>
      <trkpt lat="43.22628" lon="6.58632">
        <ele>166</ele>
        <time>2013-09-16T11:54:40.000Z</time>
      </trkpt>
      <trkpt lat="43.22628" lon="6.58631">
        <ele>166</ele>
        <time>2013-09-16T11:54:41.000Z</time>
      </trkpt>
      <trkpt lat="43.22629" lon="6.5863">
        <ele>166</ele>
        <time>2013-09-16T11:54:42.000Z</time>
      </trkpt>
      <trkpt lat="43.2263" lon="6.58629">
        <ele>167</ele>
        <time>2013-09-16T11:54:43.000Z</time>
      </trkpt>
      <trkpt lat="43.22631" lon="6.58628">
        <ele>167</ele>
        <time>2013-09-16T11:54:44.000Z</time>
      </trkpt>
      <trkpt lat="43.22633" lon="6.58627">
        <ele>167</ele>
        <time>2013-09-16T11:54:45.000Z</time>
      </trkpt>
      <trkpt lat="43.22634" lon="6.58626">
        <ele>167</ele>
        <time>2013-09-16T11:54:46.000Z</time>
      </trkpt>
      <trkpt lat="43.22635" lon="6.58625">
        <ele>167</ele>
        <time>2013-09-16T11:54:47.000Z</time>
      </trkpt>
      <trkpt lat="43.22635" lon="6.58623">
        <ele>167</ele>
        <time>2013-09-16T11:54:48.000Z</time>
      </trkpt>
      <trkpt lat="43.22636" lon="6.58622">
        <ele>167</ele>
        <time>2013-09-16T11:54:49.000Z</time>
      </trkpt>
      <trkpt lat="43.22637" lon="6.58621">
        <ele>167</ele>
        <time>2013-09-16T11:54:50.000Z</time>
      </trkpt>
      <trkpt lat="43.22639" lon="6.5862">
        <ele>167</ele>
        <time>2013-09-16T11:54:51.000Z</time>
      </trkpt>
      <trkpt lat="43.2264" lon="6.58619">
        <ele>167</ele>
        <time>2013-09-16T11:54:52.000Z</time>
      </trkpt>
      <trkpt lat="43.22641" lon="6.58618">
        <ele>167</ele>
        <time>2013-09-16T11:54:53.000Z</time>
      </trkpt>
      <trkpt lat="43.22642" lon="6.58617">
        <ele>167</ele>
        <time>2013-09-16T11:54:54.000Z</time>
      </trkpt>
      <trkpt lat="43.22643" lon="6.58615">
        <ele>167</ele>
        <time>2013-09-16T11:54:55.000Z</time>
      </trkpt>
      <trkpt lat="43.22644" lon="6.58614">
        <ele>167</ele>
        <time>2013-09-16T11:54:56.000Z</time>
      </trkpt>
      <trkpt lat="43.22645" lon="6.58613">
        <ele>167</ele>
        <time>2013-09-16T11:54:57.000Z</time>
      </trkpt>
      <trkpt lat="43.22646" lon="6.58612">
        <ele>167</ele>
        <time>2013-09-16T11:54:58.000Z</time>
      </trkpt>
      <trkpt lat="43.22646" lon="6.5861">
        <ele>167</ele>
        <time>2013-09-16T11:54:59.000Z</time>
      </trkpt>
      <trkpt lat="43.22648" lon="6.58609">
        <ele>168</ele>
        <time>2013-09-16T11:55:00.000Z</time>
      </trkpt>
      <trkpt lat="43.22649" lon="6.58608">
        <ele>168</ele>
        <time>2013-09-16T11:55:01.000Z</time>
      </trkpt>
      <trkpt lat="43.2265" lon="6.58607">
        <ele>168</ele>
        <time>2013-09-16T11:55:02.000Z</time>
      </trkpt>
      <trkpt lat="43.22651" lon="6.58606">
        <ele>168</ele>
        <time>2013-09-16T11:55:03.000Z</time>
      </trkpt>
      <trkpt lat="43.22652" lon="6.58605">
        <ele>168</ele>
        <time>2013-09-16T11:55:04.000Z</time>
      </trkpt>
      <trkpt lat="43.22654" lon="6.58604">
        <ele>168</ele>
        <time>2013-09-16T11:55:05.000Z</time>
      </trkpt>
      <trkpt lat="43.22655" lon="6.58603">
        <ele>168</ele>
        <time>2013-09-16T11:55:06.000Z</time>
      </trkpt>
      <trkpt lat="43.22656" lon="6.58602">
        <ele>168</ele>
        <time>2013-09-16T11:55:07.000Z</time>
      </trkpt>
      <trkpt lat="43.22658" lon="6.58601">
        <ele>168</ele>
        <time>2013-09-16T11:55:08.000Z</time>
      </trkpt>
      <trkpt lat="43.22659" lon="6.58599">
        <ele>169</ele>
        <time>2013-09-16T11:55:09.000Z</time>
      </trkpt>
      <trkpt lat="43.2266" lon="6.58598">
        <ele>169</ele>
        <time>2013-09-16T11:55:10.000Z</time>
      </trkpt>
      <trkpt lat="43.22661" lon="6.58598">
        <ele>169</ele>
        <time>2013-09-16T11:55:11.000Z</time>
      </trkpt>
      <trkpt lat="43.22663" lon="6.58597">
        <ele>169</ele>
        <time>2013-09-16T11:55:12.000Z</time>
      </trkpt>
      <trkpt lat="43.22664" lon="6.58596">
        <ele>169</ele>
        <time>2013-09-16T11:55:13.000Z</time>
      </trkpt>
      <trkpt lat="43.22665" lon="6.58595">
        <ele>169</ele>
        <time>2013-09-16T11:55:14.000Z</time>
      </trkpt>
      <trkpt lat="43.22666" lon="6.58594">
        <ele>169</ele>
        <time>2013-09-16T11:55:15.000Z</time>
      </trkpt>
      <trkpt lat="43.22667" lon="6.58593">
        <ele>171</ele>
        <time>2013-09-16T11:55:16.000Z</time>
      </trkpt>
      <trkpt lat="43.22668" lon="6.58592">
        <ele>171</ele>
        <time>2013-09-16T11:55:17.000Z</time>
      </trkpt>
      <trkpt lat="43.2267" lon="6.58592">
        <ele>171</ele>
        <time>2013-09-16T11:55:18.000Z</time>
      </trkpt>
      <trkpt lat="43.22671" lon="6.58591">
        <ele>171</ele>
        <time>2013-09-16T11:55:19.000Z</time>
      </trkpt>
      <trkpt lat="43.22673" lon="6.58591">
        <ele>171</ele>
        <time>2013-09-16T11:55:20.000Z</time>
      </trkpt>
      <trkpt lat="43.22677" lon="6.58591">
        <ele>171</ele>
        <time>2013-09-16T11:55:23.000Z</time>
      </trkpt>
      <trkpt lat="43.22678" lon="6.58592">
        <ele>171</ele>
        <time>2013-09-16T11:55:24.000Z</time>
      </trkpt>
      <trkpt lat="43.22679" lon="6.58593">
        <ele>171</ele>
        <time>2013-09-16T11:55:25.000Z</time>
      </trkpt>
      <trkpt lat="43.2268" lon="6.58594">
        <ele>171</ele>
        <time>2013-09-16T11:55:26.000Z</time>
      </trkpt>
      <trkpt lat="43.22681" lon="6.58595">
        <ele>171</ele>
        <time>2013-09-16T11:55:27.000Z</time>
      </trkpt>
      <trkpt lat="43.22683" lon="6.58596">
        <ele>171</ele>
        <time>2013-09-16T11:55:28.000Z</time>
      </trkpt>
      <trkpt lat="43.22684" lon="6.58596">
        <ele>171</ele>
        <time>2013-09-16T11:55:29.000Z</time>
      </trkpt>
      <trkpt lat="43.22685" lon="6.58597">
        <ele>171</ele>
        <time>2013-09-16T11:55:30.000Z</time>
      </trkpt>
      <trkpt lat="43.22687" lon="6.58597">
        <ele>171</ele>
        <time>2013-09-16T11:55:31.000Z</time>
      </trkpt>
      <trkpt lat="43.22688" lon="6.58598">
        <ele>172</ele>
        <time>2013-09-16T11:55:32.000Z</time>
      </trkpt>
      <trkpt lat="43.2269" lon="6.58598">
        <ele>172</ele>
        <time>2013-09-16T11:55:33.000Z</time>
      </trkpt>
      <trkpt lat="43.22691" lon="6.58599">
        <ele>172</ele>
        <time>2013-09-16T11:55:34.000Z</time>
      </trkpt>
      <trkpt lat="43.22692" lon="6.586">
        <ele>172</ele>
        <time>2013-09-16T11:55:35.000Z</time>
      </trkpt>
      <trkpt lat="43.22693" lon="6.58601">
        <ele>172</ele>
        <time>2013-09-16T11:55:36.000Z</time>
      </trkpt>
      <trkpt lat="43.22694" lon="6.58601">
        <ele>172</ele>
        <time>2013-09-16T11:55:37.000Z</time>
      </trkpt>
      <trkpt lat="43.22696" lon="6.58601">
        <ele>172</ele>
        <time>2013-09-16T11:55:38.000Z</time>
      </trkpt>
      <trkpt lat="43.22697" lon="6.58602">
        <ele>172</ele>
        <time>2013-09-16T11:55:39.000Z</time>
      </trkpt>
      <trkpt lat="43.22698" lon="6.58602">
        <ele>172</ele>
        <time>2013-09-16T11:55:40.000Z</time>
      </trkpt>
      <trkpt lat="43.22699" lon="6.58603">
        <ele>172</ele>
        <time>2013-09-16T11:55:41.000Z</time>
      </trkpt>
      <trkpt lat="43.22701" lon="6.58603">
        <ele>172</ele>
        <time>2013-09-16T11:55:42.000Z</time>
      </trkpt>
      <trkpt lat="43.22702" lon="6.58604">
        <ele>172</ele>
        <time>2013-09-16T11:55:43.000Z</time>
      </trkpt>
      <trkpt lat="43.22703" lon="6.58604">
        <ele>172</ele>
        <time>2013-09-16T11:55:44.000Z</time>
      </trkpt>
      <trkpt lat="43.22705" lon="6.58604">
        <ele>172</ele>
        <time>2013-09-16T11:55:46.000Z</time>
      </trkpt>
      <trkpt lat="43.22706" lon="6.58605">
        <ele>172</ele>
        <time>2013-09-16T11:55:47.000Z</time>
      </trkpt>
      <trkpt lat="43.22708" lon="6.58605">
        <ele>172</ele>
        <time>2013-09-16T11:55:48.000Z</time>
      </trkpt>
      <trkpt lat="43.22709" lon="6.58605">
        <ele>172</ele>
        <time>2013-09-16T11:55:49.000Z</time>
      </trkpt>
      <trkpt lat="43.2271" lon="6.58606">
        <ele>172</ele>
        <time>2013-09-16T11:55:50.000Z</time>
      </trkpt>
      <trkpt lat="43.22711" lon="6.58606">
        <ele>172</ele>
        <time>2013-09-16T11:55:51.000Z</time>
      </trkpt>
      <trkpt lat="43.22712" lon="6.58607">
        <ele>172</ele>
        <time>2013-09-16T11:55:52.000Z</time>
      </trkpt>
      <trkpt lat="43.22713" lon="6.58608">
        <ele>172</ele>
        <time>2013-09-16T11:55:53.000Z</time>
      </trkpt>
      <trkpt lat="43.22714" lon="6.58609">
        <ele>173</ele>
        <time>2013-09-16T11:55:54.000Z</time>
      </trkpt>
      <trkpt lat="43.22716" lon="6.58609">
        <ele>173</ele>
        <time>2013-09-16T11:55:55.000Z</time>
      </trkpt>
      <trkpt lat="43.22717" lon="6.5861">
        <ele>173</ele>
        <time>2013-09-16T11:55:56.000Z</time>
      </trkpt>
      <trkpt lat="43.22718" lon="6.5861">
        <ele>173</ele>
        <time>2013-09-16T11:55:57.000Z</time>
      </trkpt>
      <trkpt lat="43.22719" lon="6.58611">
        <ele>173</ele>
        <time>2013-09-16T11:55:58.000Z</time>
      </trkpt>
      <trkpt lat="43.2272" lon="6.58611">
        <ele>173</ele>
        <time>2013-09-16T11:55:59.000Z</time>
      </trkpt>
      <trkpt lat="43.22721" lon="6.58612">
        <ele>173</ele>
        <time>2013-09-16T11:56:00.000Z</time>
      </trkpt>
      <trkpt lat="43.22723" lon="6.58612">
        <ele>173</ele>
        <time>2013-09-16T11:56:01.000Z</time>
      </trkpt>
      <trkpt lat="43.22724" lon="6.58613">
        <ele>173</ele>
        <time>2013-09-16T11:56:02.000Z</time>
      </trkpt>
      <trkpt lat="43.22725" lon="6.58614">
        <ele>173</ele>
        <time>2013-09-16T11:56:03.000Z</time>
      </trkpt>
      <trkpt lat="43.22726" lon="6.58614">
        <ele>173</ele>
        <time>2013-09-16T11:56:04.000Z</time>
      </trkpt>
      <trkpt lat="43.22727" lon="6.58614">
        <ele>173</ele>
        <time>2013-09-16T11:56:05.000Z</time>
      </trkpt>
      <trkpt lat="43.22729" lon="6.58615">
        <ele>173</ele>
        <time>2013-09-16T11:56:06.000Z</time>
      </trkpt>
      <trkpt lat="43.2273" lon="6.58615">
        <ele>173</ele>
        <time>2013-09-16T11:56:07.000Z</time>
      </trkpt>
      <trkpt lat="43.22731" lon="6.58615">
        <ele>173</ele>
        <time>2013-09-16T11:56:08.000Z</time>
      </trkpt>
      <trkpt lat="43.22732" lon="6.58615">
        <ele>173</ele>
        <time>2013-09-16T11:56:09.000Z</time>
      </trkpt>
      <trkpt lat="43.22733" lon="6.58616">
        <ele>173</ele>
        <time>2013-09-16T11:56:10.000Z</time>
      </trkpt>
      <trkpt lat="43.22735" lon="6.58616">
        <ele>173</ele>
        <time>2013-09-16T11:56:11.000Z</time>
      </trkpt>
      <trkpt lat="43.22736" lon="6.58616">
        <ele>173</ele>
        <time>2013-09-16T11:56:12.000Z</time>
      </trkpt>
      <trkpt lat="43.22737" lon="6.58617">
        <ele>173</ele>
        <time>2013-09-16T11:56:13.000Z</time>
      </trkpt>
      <trkpt lat="43.22739" lon="6.58617">
        <ele>173</ele>
        <time>2013-09-16T11:56:14.000Z</time>
      </trkpt>
      <trkpt lat="43.22742" lon="6.58617">
        <ele>173</ele>
        <time>2013-09-16T11:56:16.000Z</time>
      </trkpt>
      <trkpt lat="43.22744" lon="6.58617">
        <ele>173</ele>
        <time>2013-09-16T11:56:17.000Z</time>
      </trkpt>
      <trkpt lat="43.22746" lon="6.58617">
        <ele>173</ele>
        <time>2013-09-16T11:56:18.000Z</time>
      </trkpt>
      <trkpt lat="43.22747" lon="6.58617">
        <ele>173</ele>
        <time>2013-09-16T11:56:19.000Z</time>
      </trkpt>
      <trkpt lat="43.22754" lon="6.58618">
        <ele>177</ele>
        <time>2013-09-16T11:56:23.000Z</time>
      </trkpt>
      <trkpt lat="43.22756" lon="6.58618">
        <ele>177</ele>
        <time>2013-09-16T11:56:24.000Z</time>
      </trkpt>
      <trkpt lat="43.22757" lon="6.58619">
        <ele>177</ele>
        <time>2013-09-16T11:56:25.000Z</time>
      </trkpt>
      <trkpt lat="43.22759" lon="6.58619">
        <ele>177</ele>
        <time>2013-09-16T11:56:26.000Z</time>
      </trkpt>
      <trkpt lat="43.22763" lon="6.58619">
        <ele>177</ele>
        <time>2013-09-16T11:56:28.000Z</time>
      </trkpt>
      <trkpt lat="43.22765" lon="6.58619">
        <ele>177</ele>
        <time>2013-09-16T11:56:29.000Z</time>
      </trkpt>
      <trkpt lat="43.22767" lon="6.5862">
        <ele>177</ele>
        <time>2013-09-16T11:56:30.000Z</time>
      </trkpt>
      <trkpt lat="43.22769" lon="6.5862">
        <ele>177</ele>
        <time>2013-09-16T11:56:31.000Z</time>
      </trkpt>
      <trkpt lat="43.22771" lon="6.58621">
        <ele>177</ele>
        <time>2013-09-16T11:56:32.000Z</time>
      </trkpt>
      <trkpt lat="43.22776" lon="6.58622">
        <ele>177</ele>
        <time>2013-09-16T11:56:35.000Z</time>
      </trkpt>
      <trkpt lat="43.22777" lon="6.58623">
        <ele>177</ele>
        <time>2013-09-16T11:56:36.000Z</time>
      </trkpt>
      <trkpt lat="43.22779" lon="6.58625">
        <ele>177</ele>
        <time>2013-09-16T11:56:37.000Z</time>
      </trkpt>
      <trkpt lat="43.2278" lon="6.58627">
        <ele>177</ele>
        <time>2013-09-16T11:56:38.000Z</time>
      </trkpt>
      <trkpt lat="43.22782" lon="6.58628">
        <ele>177</ele>
        <time>2013-09-16T11:56:39.000Z</time>
      </trkpt>
      <trkpt lat="43.22783" lon="6.5863">
        <ele>177</ele>
        <time>2013-09-16T11:56:40.000Z</time>
      </trkpt>
      <trkpt lat="43.22785" lon="6.5863">
        <ele>177</ele>
        <time>2013-09-16T11:56:41.000Z</time>
      </trkpt>
      <trkpt lat="43.22787" lon="6.58631">
        <ele>177</ele>
        <time>2013-09-16T11:56:42.000Z</time>
      </trkpt>
      <trkpt lat="43.22789" lon="6.58632">
        <ele>177</ele>
        <time>2013-09-16T11:56:43.000Z</time>
      </trkpt>
      <trkpt lat="43.22791" lon="6.58633">
        <ele>177</ele>
        <time>2013-09-16T11:56:44.000Z</time>
      </trkpt>
      <trkpt lat="43.22794" lon="6.58635">
        <ele>177</ele>
        <time>2013-09-16T11:56:45.000Z</time>
      </trkpt>
      <trkpt lat="43.22796" lon="6.58636">
        <ele>177</ele>
        <time>2013-09-16T11:56:46.000Z</time>
      </trkpt>
      <trkpt lat="43.22799" lon="6.58637">
        <ele>177</ele>
        <time>2013-09-16T11:56:47.000Z</time>
      </trkpt>
      <trkpt lat="43.22801" lon="6.58639">
        <ele>177</ele>
        <time>2013-09-16T11:56:48.000Z</time>
      </trkpt>
      <trkpt lat="43.22804" lon="6.5864">
        <ele>177</ele>
        <time>2013-09-16T11:56:49.000Z</time>
      </trkpt>
      <trkpt lat="43.22807" lon="6.58642">
        <ele>176</ele>
        <time>2013-09-16T11:56:50.000Z</time>
      </trkpt>
      <trkpt lat="43.2281" lon="6.58643">
        <ele>176</ele>
        <time>2013-09-16T11:56:51.000Z</time>
      </trkpt>
      <trkpt lat="43.22813" lon="6.58644">
        <ele>176</ele>
        <time>2013-09-16T11:56:52.000Z</time>
      </trkpt>
      <trkpt lat="43.22816" lon="6.58645">
        <ele>176</ele>
        <time>2013-09-16T11:56:53.000Z</time>
      </trkpt>
      <trkpt lat="43.22819" lon="6.58646">
        <ele>176</ele>
        <time>2013-09-16T11:56:54.000Z</time>
      </trkpt>
      <trkpt lat="43.22821" lon="6.58646">
        <ele>176</ele>
        <time>2013-09-16T11:56:55.000Z</time>
      </trkpt>
      <trkpt lat="43.22824" lon="6.58646">
        <ele>176</ele>
        <time>2013-09-16T11:56:56.000Z</time>
      </trkpt>
      <trkpt lat="43.22827" lon="6.58647">
        <ele>175</ele>
        <time>2013-09-16T11:56:57.000Z</time>
      </trkpt>
      <trkpt lat="43.2283" lon="6.58647">
        <ele>175</ele>
        <time>2013-09-16T11:56:58.000Z</time>
      </trkpt>
      <trkpt lat="43.22833" lon="6.58647">
        <ele>175</ele>
        <time>2013-09-16T11:56:59.000Z</time>
      </trkpt>
      <trkpt lat="43.22837" lon="6.58648">
        <ele>177</ele>
        <time>2013-09-16T11:57:00.000Z</time>
      </trkpt>
      <trkpt lat="43.2284" lon="6.58649">
        <ele>177</ele>
        <time>2013-09-16T11:57:01.000Z</time>
      </trkpt>
      <trkpt lat="43.22844" lon="6.5865">
        <ele>177</ele>
        <time>2013-09-16T11:57:02.000Z</time>
      </trkpt>
      <trkpt lat="43.22847" lon="6.58651">
        <ele>177</ele>
        <time>2013-09-16T11:57:03.000Z</time>
      </trkpt>
      <trkpt lat="43.2285" lon="6.58652">
        <ele>177</ele>
        <time>2013-09-16T11:57:04.000Z</time>
      </trkpt>
      <trkpt lat="43.22853" lon="6.58653">
        <ele>177</ele>
        <time>2013-09-16T11:57:05.000Z</time>
      </trkpt>
      <trkpt lat="43.22856" lon="6.58654">
        <ele>177</ele>
        <time>2013-09-16T11:57:06.000Z</time>
      </trkpt>
      <trkpt lat="43.22859" lon="6.58655">
        <ele>177</ele>
        <time>2013-09-16T11:57:07.000Z</time>
      </trkpt>
      <trkpt lat="43.22862" lon="6.58656">
        <ele>177</ele>
        <time>2013-09-16T11:57:08.000Z</time>
      </trkpt>
      <trkpt lat="43.22865" lon="6.58658">
        <ele>177</ele>
        <time>2013-09-16T11:57:09.000Z</time>
      </trkpt>
      <trkpt lat="43.22869" lon="6.58659">
        <ele>178</ele>
        <time>2013-09-16T11:57:10.000Z</time>
      </trkpt>
      <trkpt lat="43.22872" lon="6.5866">
        <ele>178</ele>
        <time>2013-09-16T11:57:11.000Z</time>
      </trkpt>
      <trkpt lat="43.22876" lon="6.58661">
        <ele>177</ele>
        <time>2013-09-16T11:57:12.000Z</time>
      </trkpt>
      <trkpt lat="43.2288" lon="6.58661">
        <ele>177</ele>
        <time>2013-09-16T11:57:13.000Z</time>
      </trkpt>
      <trkpt lat="43.22884" lon="6.58661">
        <ele>177</ele>
        <time>2013-09-16T11:57:14.000Z</time>
      </trkpt>
      <trkpt lat="43.22889" lon="6.58661">
        <ele>177</ele>
        <time>2013-09-16T11:57:15.000Z</time>
      </trkpt>
      <trkpt lat="43.22893" lon="6.58661">
        <ele>176</ele>
        <time>2013-09-16T11:57:16.000Z</time>
      </trkpt>
      <trkpt lat="43.22897" lon="6.58661">
        <ele>176</ele>
        <time>2013-09-16T11:57:17.000Z</time>
      </trkpt>
      <trkpt lat="43.22901" lon="6.58661">
        <ele>175</ele>
        <time>2013-09-16T11:57:18.000Z</time>
      </trkpt>
      <trkpt lat="43.22906" lon="6.5866">
        <ele>174</ele>
        <time>2013-09-16T11:57:19.000Z</time>
      </trkpt>
      <trkpt lat="43.2291" lon="6.5866">
        <ele>174</ele>
        <time>2013-09-16T11:57:20.000Z</time>
      </trkpt>
      <trkpt lat="43.22915" lon="6.5866">
        <ele>173</ele>
        <time>2013-09-16T11:57:21.000Z</time>
      </trkpt>
      <trkpt lat="43.2292" lon="6.58659">
        <ele>172</ele>
        <time>2013-09-16T11:57:22.000Z</time>
      </trkpt>
      <trkpt lat="43.22925" lon="6.58659">
        <ele>172</ele>
        <time>2013-09-16T11:57:23.000Z</time>
      </trkpt>
      <trkpt lat="43.2293" lon="6.58658">
        <ele>173</ele>
        <time>2013-09-16T11:57:24.000Z</time>
      </trkpt>
      <trkpt lat="43.22935" lon="6.58657">
        <ele>173</ele>
        <time>2013-09-16T11:57:25.000Z</time>
      </trkpt>
      <trkpt lat="43.22939" lon="6.58655">
        <ele>174</ele>
        <time>2013-09-16T11:57:26.000Z</time>
      </trkpt>
      <trkpt lat="43.22944" lon="6.58653">
        <ele>174</ele>
        <time>2013-09-16T11:57:27.000Z</time>
      </trkpt>
      <trkpt lat="43.22948" lon="6.58652">
        <ele>174</ele>
        <time>2013-09-16T11:57:28.000Z</time>
      </trkpt>
      <trkpt lat="43.22953" lon="6.58651">
        <ele>174</ele>
        <time>2013-09-16T11:57:29.000Z</time>
      </trkpt>
      <trkpt lat="43.22958" lon="6.58649">
        <ele>174</ele>
        <time>2013-09-16T11:57:30.000Z</time>
      </trkpt>
      <trkpt lat="43.22962" lon="6.58648">
        <ele>173</ele>
        <time>2013-09-16T11:57:31.000Z</time>
      </trkpt>
      <trkpt lat="43.22967" lon="6.58646">
        <ele>173</ele>
        <time>2013-09-16T11:57:32.000Z</time>
      </trkpt>
      <trkpt lat="43.22971" lon="6.58645">
        <ele>173</ele>
        <time>2013-09-16T11:57:33.000Z</time>
      </trkpt>
      <trkpt lat="43.22975" lon="6.58644">
        <ele>173</ele>
        <time>2013-09-16T11:57:34.000Z</time>
      </trkpt>
      <trkpt lat="43.22979" lon="6.58642">
        <ele>172</ele>
        <time>2013-09-16T11:57:35.000Z</time>
      </trkpt>
      <trkpt lat="43.22984" lon="6.58641">
        <ele>172</ele>
        <time>2013-09-16T11:57:36.000Z</time>
      </trkpt>
      <trkpt lat="43.22988" lon="6.58639">
        <ele>172</ele>
        <time>2013-09-16T11:57:37.000Z</time>
      </trkpt>
      <trkpt lat="43.22992" lon="6.58637">
        <ele>172</ele>
        <time>2013-09-16T11:57:38.000Z</time>
      </trkpt>
      <trkpt lat="43.22997" lon="6.58635">
        <ele>173</ele>
        <time>2013-09-16T11:57:39.000Z</time>
      </trkpt>
      <trkpt lat="43.23002" lon="6.58634">
        <ele>166</ele>
        <time>2013-09-16T11:57:40.000Z</time>
      </trkpt>
      <trkpt lat="43.23006" lon="6.58632">
        <ele>166</ele>
        <time>2013-09-16T11:57:41.000Z</time>
      </trkpt>
      <trkpt lat="43.23011" lon="6.5863">
        <ele>166</ele>
        <time>2013-09-16T11:57:42.000Z</time>
      </trkpt>
      <trkpt lat="43.23016" lon="6.58628">
        <ele>166</ele>
        <time>2013-09-16T11:57:43.000Z</time>
      </trkpt>
      <trkpt lat="43.2302" lon="6.58626">
        <ele>166</ele>
        <time>2013-09-16T11:57:44.000Z</time>
      </trkpt>
      <trkpt lat="43.23025" lon="6.58624">
        <ele>166</ele>
        <time>2013-09-16T11:57:45.000Z</time>
      </trkpt>
      <trkpt lat="43.2303" lon="6.58621">
        <ele>166</ele>
        <time>2013-09-16T11:57:46.000Z</time>
      </trkpt>
      <trkpt lat="43.23034" lon="6.58618">
        <ele>166</ele>
        <time>2013-09-16T11:57:47.000Z</time>
      </trkpt>
      <trkpt lat="43.23039" lon="6.58616">
        <ele>166</ele>
        <time>2013-09-16T11:57:48.000Z</time>
      </trkpt>
      <trkpt lat="43.23043" lon="6.58613">
        <ele>166</ele>
        <time>2013-09-16T11:57:49.000Z</time>
      </trkpt>
      <trkpt lat="43.23048" lon="6.5861">
        <ele>166</ele>
        <time>2013-09-16T11:57:50.000Z</time>
      </trkpt>
      <trkpt lat="43.23052" lon="6.58607">
        <ele>166</ele>
        <time>2013-09-16T11:57:51.000Z</time>
      </trkpt>
      <trkpt lat="43.23057" lon="6.58604">
        <ele>166</ele>
        <time>2013-09-16T11:57:52.000Z</time>
      </trkpt>
      <trkpt lat="43.23061" lon="6.58601">
        <ele>166</ele>
        <time>2013-09-16T11:57:53.000Z</time>
      </trkpt>
      <trkpt lat="43.23066" lon="6.58598">
        <ele>166</ele>
        <time>2013-09-16T11:57:54.000Z</time>
      </trkpt>
      <trkpt lat="43.2307" lon="6.58596">
        <ele>166</ele>
        <time>2013-09-16T11:57:55.000Z</time>
      </trkpt>
      <trkpt lat="43.23074" lon="6.58593">
        <ele>167</ele>
        <time>2013-09-16T11:57:56.000Z</time>
      </trkpt>
      <trkpt lat="43.23078" lon="6.58589">
        <ele>167</ele>
        <time>2013-09-16T11:57:57.000Z</time>
      </trkpt>
      <trkpt lat="43.23081" lon="6.58586">
        <ele>168</ele>
        <time>2013-09-16T11:57:58.000Z</time>
      </trkpt>
      <trkpt lat="43.23085" lon="6.58583">
        <ele>168</ele>
        <time>2013-09-16T11:57:59.000Z</time>
      </trkpt>
      <trkpt lat="43.2309" lon="6.58579">
        <ele>167</ele>
        <time>2013-09-16T11:58:00.000Z</time>
      </trkpt>
      <trkpt lat="43.23094" lon="6.58576">
        <ele>166</ele>
        <time>2013-09-16T11:58:01.000Z</time>
      </trkpt>
      <trkpt lat="43.23098" lon="6.58573">
        <ele>165</ele>
        <time>2013-09-16T11:58:02.000Z</time>
      </trkpt>
      <trkpt lat="43.23102" lon="6.5857">
        <ele>165</ele>
        <time>2013-09-16T11:58:03.000Z</time>
      </trkpt>
      <trkpt lat="43.23105" lon="6.58568">
        <ele>164</ele>
        <time>2013-09-16T11:58:04.000Z</time>
      </trkpt>
      <trkpt lat="43.23108" lon="6.58566">
        <ele>164</ele>
        <time>2013-09-16T11:58:05.000Z</time>
      </trkpt>
      <trkpt lat="43.23111" lon="6.58564">
        <ele>164</ele>
        <time>2013-09-16T11:58:06.000Z</time>
      </trkpt>
      <trkpt lat="43.23114" lon="6.58563">
        <ele>163</ele>
        <time>2013-09-16T11:58:07.000Z</time>
      </trkpt>
      <trkpt lat="43.23116" lon="6.58562">
        <ele>163</ele>
        <time>2013-09-16T11:58:08.000Z</time>
      </trkpt>
      <trkpt lat="43.23119" lon="6.5856">
        <ele>163</ele>
        <time>2013-09-16T11:58:09.000Z</time>
      </trkpt>
      <trkpt lat="43.23121" lon="6.58558">
        <ele>163</ele>
        <time>2013-09-16T11:58:10.000Z</time>
      </trkpt>
      <trkpt lat="43.23122" lon="6.58555">
        <ele>163</ele>
        <time>2013-09-16T11:58:11.000Z</time>
      </trkpt>
      <trkpt lat="43.23123" lon="6.58552">
        <ele>163</ele>
        <time>2013-09-16T11:58:12.000Z</time>
      </trkpt>
      <trkpt lat="43.23122" lon="6.58549">
        <ele>163</ele>
        <time>2013-09-16T11:58:13.000Z</time>
      </trkpt>
      <trkpt lat="43.23121" lon="6.58547">
        <ele>163</ele>
        <time>2013-09-16T11:58:14.000Z</time>
      </trkpt>
      <trkpt lat="43.2312" lon="6.58546">
        <ele>163</ele>
        <time>2013-09-16T11:58:15.000Z</time>
      </trkpt>
      <trkpt lat="43.23119" lon="6.58546">
        <ele>163</ele>
        <time>2013-09-16T11:58:16.000Z</time>
      </trkpt>
      <trkpt lat="43.23118" lon="6.58545">
        <ele>163</ele>
        <time>2013-09-16T11:58:17.000Z</time>
      </trkpt>
      <trkpt lat="43.23117" lon="6.58545">
        <ele>163</ele>
        <time>2013-09-16T11:58:18.000Z</time>
      </trkpt>
      <trkpt lat="43.23116" lon="6.58545">
        <ele>163</ele>
        <time>2013-09-16T11:58:19.000Z</time>
      </trkpt>
      <trkpt lat="43.23115" lon="6.58545">
        <ele>163</ele>
        <time>2013-09-16T11:58:20.000Z</time>
      </trkpt>
      <trkpt lat="43.23112" lon="6.58546">
        <ele>164</ele>
        <time>2013-09-16T11:58:22.000Z</time>
      </trkpt>
      <trkpt lat="43.23111" lon="6.58545">
        <ele>164</ele>
        <time>2013-09-16T11:58:23.000Z</time>
      </trkpt>
      <trkpt lat="43.2311" lon="6.58545">
        <ele>164</ele>
        <time>2013-09-16T11:58:24.000Z</time>
      </trkpt>
      <trkpt lat="43.23109" lon="6.58544">
        <ele>164</ele>
        <time>2013-09-16T11:58:25.000Z</time>
      </trkpt>
      <trkpt lat="43.23108" lon="6.58544">
        <ele>164</ele>
        <time>2013-09-16T11:58:26.000Z</time>
      </trkpt>
      <trkpt lat="43.23107" lon="6.58543">
        <ele>164</ele>
        <time>2013-09-16T11:58:27.000Z</time>
      </trkpt>
      <trkpt lat="43.23106" lon="6.58543">
        <ele>164</ele>
        <time>2013-09-16T11:58:28.000Z</time>
      </trkpt>
      <trkpt lat="43.23105" lon="6.58543">
        <ele>164</ele>
        <time>2013-09-16T11:58:29.000Z</time>
      </trkpt>
      <trkpt lat="43.23104" lon="6.58542">
        <ele>164</ele>
        <time>2013-09-16T11:58:30.000Z</time>
      </trkpt>
      <trkpt lat="43.23103" lon="6.58542">
        <ele>164</ele>
        <time>2013-09-16T11:58:31.000Z</time>
      </trkpt>
      <trkpt lat="43.23102" lon="6.58541">
        <ele>164</ele>
        <time>2013-09-16T11:58:32.000Z</time>
      </trkpt>
      <trkpt lat="43.23101" lon="6.58541">
        <ele>164</ele>
        <time>2013-09-16T11:58:33.000Z</time>
      </trkpt>
      <trkpt lat="43.23099" lon="6.5854">
        <ele>164</ele>
        <time>2013-09-16T11:58:34.000Z</time>
      </trkpt>
      <trkpt lat="43.23098" lon="6.5854">
        <ele>164</ele>
        <time>2013-09-16T11:58:35.000Z</time>
      </trkpt>
      <trkpt lat="43.23097" lon="6.58539">
        <ele>164</ele>
        <time>2013-09-16T11:58:36.000Z</time>
      </trkpt>
      <trkpt lat="43.23096" lon="6.58538">
        <ele>164</ele>
        <time>2013-09-16T11:58:37.000Z</time>
      </trkpt>
      <trkpt lat="43.23095" lon="6.58537">
        <ele>164</ele>
        <time>2013-09-16T11:58:38.000Z</time>
      </trkpt>
      <trkpt lat="43.23094" lon="6.58536">
        <ele>164</ele>
        <time>2013-09-16T11:58:39.000Z</time>
      </trkpt>
      <trkpt lat="43.23093" lon="6.58536">
        <ele>165</ele>
        <time>2013-09-16T11:58:40.000Z</time>
      </trkpt>
      <trkpt lat="43.23092" lon="6.58535">
        <ele>165</ele>
        <time>2013-09-16T11:58:41.000Z</time>
      </trkpt>
      <trkpt lat="43.23091" lon="6.58534">
        <ele>165</ele>
        <time>2013-09-16T11:58:42.000Z</time>
      </trkpt>
      <trkpt lat="43.2309" lon="6.58534">
        <ele>165</ele>
        <time>2013-09-16T11:58:43.000Z</time>
      </trkpt>
      <trkpt lat="43.23088" lon="6.58533">
        <ele>165</ele>
        <time>2013-09-16T11:58:44.000Z</time>
      </trkpt>
      <trkpt lat="43.23087" lon="6.58533">
        <ele>165</ele>
        <time>2013-09-16T11:58:45.000Z</time>
      </trkpt>
      <trkpt lat="43.23086" lon="6.58532">
        <ele>165</ele>
        <time>2013-09-16T11:58:46.000Z</time>
      </trkpt>
      <trkpt lat="43.23084" lon="6.58532">
        <ele>165</ele>
        <time>2013-09-16T11:58:47.000Z</time>
      </trkpt>
      <trkpt lat="43.23083" lon="6.58531">
        <ele>172</ele>
        <time>2013-09-16T11:58:48.000Z</time>
      </trkpt>
      <trkpt lat="43.23082" lon="6.58531">
        <ele>172</ele>
        <time>2013-09-16T11:58:49.000Z</time>
      </trkpt>
      <trkpt lat="43.23081" lon="6.58531">
        <ele>172</ele>
        <time>2013-09-16T11:58:50.000Z</time>
      </trkpt>
      <trkpt lat="43.23079" lon="6.5853">
        <ele>172</ele>
        <time>2013-09-16T11:58:51.000Z</time>
      </trkpt>
      <trkpt lat="43.23078" lon="6.5853">
        <ele>172</ele>
        <time>2013-09-16T11:58:52.000Z</time>
      </trkpt>
      <trkpt lat="43.23076" lon="6.58529">
        <ele>172</ele>
        <time>2013-09-16T11:58:53.000Z</time>
      </trkpt>
      <trkpt lat="43.23075" lon="6.58528">
        <ele>172</ele>
        <time>2013-09-16T11:58:54.000Z</time>
      </trkpt>
      <trkpt lat="43.23074" lon="6.58528">
        <ele>172</ele>
        <time>2013-09-16T11:58:55.000Z</time>
      </trkpt>
      <trkpt lat="43.23072" lon="6.58527">
        <ele>172</ele>
        <time>2013-09-16T11:58:56.000Z</time>
      </trkpt>
      <trkpt lat="43.23071" lon="6.58527">
        <ele>172</ele>
        <time>2013-09-16T11:58:57.000Z</time>
      </trkpt>
      <trkpt lat="43.2307" lon="6.58526">
        <ele>172</ele>
        <time>2013-09-16T11:58:58.000Z</time>
      </trkpt>
      <trkpt lat="43.23068" lon="6.58526">
        <ele>172</ele>
        <time>2013-09-16T11:58:59.000Z</time>
      </trkpt>
      <trkpt lat="43.23067" lon="6.58525">
        <ele>172</ele>
        <time>2013-09-16T11:59:00.000Z</time>
      </trkpt>
      <trkpt lat="43.23065" lon="6.58525">
        <ele>172</ele>
        <time>2013-09-16T11:59:01.000Z</time>
      </trkpt>
      <trkpt lat="43.23064" lon="6.58525">
        <ele>172</ele>
        <time>2013-09-16T11:59:02.000Z</time>
      </trkpt>
      <trkpt lat="43.23062" lon="6.58524">
        <ele>172</ele>
        <time>2013-09-16T11:59:03.000Z</time>
      </trkpt>
      <trkpt lat="43.23061" lon="6.58524">
        <ele>173</ele>
        <time>2013-09-16T11:59:04.000Z</time>
      </trkpt>
      <trkpt lat="43.2306" lon="6.58524">
        <ele>173</ele>
        <time>2013-09-16T11:59:05.000Z</time>
      </trkpt>
      <trkpt lat="43.23059" lon="6.58524">
        <ele>173</ele>
        <time>2013-09-16T11:59:06.000Z</time>
      </trkpt>
      <trkpt lat="43.23058" lon="6.58523">
        <ele>173</ele>
        <time>2013-09-16T11:59:07.000Z</time>
      </trkpt>
      <trkpt lat="43.23057" lon="6.58523">
        <ele>173</ele>
        <time>2013-09-16T11:59:08.000Z</time>
      </trkpt>
      <trkpt lat="43.23056" lon="6.58523">
        <ele>173</ele>
        <time>2013-09-16T11:59:09.000Z</time>
      </trkpt>
      <trkpt lat="43.23055" lon="6.58522">
        <ele>173</ele>
        <time>2013-09-16T11:59:10.000Z</time>
      </trkpt>
      <trkpt lat="43.23053" lon="6.58522">
        <ele>173</ele>
        <time>2013-09-16T11:59:11.000Z</time>
      </trkpt>
      <trkpt lat="43.23052" lon="6.58522">
        <ele>173</ele>
        <time>2013-09-16T11:59:12.000Z</time>
      </trkpt>
      <trkpt lat="43.2305" lon="6.58521">
        <ele>173</ele>
        <time>2013-09-16T11:59:13.000Z</time>
      </trkpt>
      <trkpt lat="43.23049" lon="6.5852">
        <ele>173</ele>
        <time>2013-09-16T11:59:14.000Z</time>
      </trkpt>
      <trkpt lat="43.23047" lon="6.5852">
        <ele>174</ele>
        <time>2013-09-16T11:59:15.000Z</time>
      </trkpt>
      <trkpt lat="43.23045" lon="6.58519">
        <ele>174</ele>
        <time>2013-09-16T11:59:16.000Z</time>
      </trkpt>
      <trkpt lat="43.23044" lon="6.58518">
        <ele>174</ele>
        <time>2013-09-16T11:59:17.000Z</time>
      </trkpt>
      <trkpt lat="43.23042" lon="6.58518">
        <ele>174</ele>
        <time>2013-09-16T11:59:18.000Z</time>
      </trkpt>
      <trkpt lat="43.2304" lon="6.58517">
        <ele>174</ele>
        <time>2013-09-16T11:59:19.000Z</time>
      </trkpt>
      <trkpt lat="43.23038" lon="6.58517">
        <ele>174</ele>
        <time>2013-09-16T11:59:20.000Z</time>
      </trkpt>
      <trkpt lat="43.23037" lon="6.58516">
        <ele>174</ele>
        <time>2013-09-16T11:59:21.000Z</time>
      </trkpt>
      <trkpt lat="43.23036" lon="6.58516">
        <ele>175</ele>
        <time>2013-09-16T11:59:22.000Z</time>
      </trkpt>
      <trkpt lat="43.23035" lon="6.58515">
        <ele>175</ele>
        <time>2013-09-16T11:59:23.000Z</time>
      </trkpt>
      <trkpt lat="43.23033" lon="6.58515">
        <ele>175</ele>
        <time>2013-09-16T11:59:24.000Z</time>
      </trkpt>
      <trkpt lat="43.23031" lon="6.58514">
        <ele>175</ele>
        <time>2013-09-16T11:59:25.000Z</time>
      </trkpt>
      <trkpt lat="43.2303" lon="6.58514">
        <ele>175</ele>
        <time>2013-09-16T11:59:26.000Z</time>
      </trkpt>
      <trkpt lat="43.23028" lon="6.58513">
        <ele>175</ele>
        <time>2013-09-16T11:59:27.000Z</time>
      </trkpt>
      <trkpt lat="43.23026" lon="6.58513">
        <ele>175</ele>
        <time>2013-09-16T11:59:28.000Z</time>
      </trkpt>
      <trkpt lat="43.23024" lon="6.58513">
        <ele>176</ele>
        <time>2013-09-16T11:59:29.000Z</time>
      </trkpt>
      <trkpt lat="43.23022" lon="6.58513">
        <ele>176</ele>
        <time>2013-09-16T11:59:30.000Z</time>
      </trkpt>
      <trkpt lat="43.23018" lon="6.58512">
        <ele>176</ele>
        <time>2013-09-16T11:59:32.000Z</time>
      </trkpt>
      <trkpt lat="43.23016" lon="6.58512">
        <ele>176</ele>
        <time>2013-09-16T11:59:33.000Z</time>
      </trkpt>
      <trkpt lat="43.23015" lon="6.58512">
        <ele>177</ele>
        <time>2013-09-16T11:59:34.000Z</time>
      </trkpt>
      <trkpt lat="43.23013" lon="6.58511">
        <ele>177</ele>
        <time>2013-09-16T11:59:35.000Z</time>
      </trkpt>
      <trkpt lat="43.23011" lon="6.58511">
        <ele>177</ele>
        <time>2013-09-16T11:59:36.000Z</time>
      </trkpt>
      <trkpt lat="43.23007" lon="6.58511">
        <ele>177</ele>
        <time>2013-09-16T11:59:38.000Z</time>
      </trkpt>
      <trkpt lat="43.23005" lon="6.5851">
        <ele>177</ele>
        <time>2013-09-16T11:59:39.000Z</time>
      </trkpt>
      <trkpt lat="43.23003" lon="6.5851">
        <ele>178</ele>
        <time>2013-09-16T11:59:40.000Z</time>
      </trkpt>
      <trkpt lat="43.23001" lon="6.5851">
        <ele>178</ele>
        <time>2013-09-16T11:59:41.000Z</time>
      </trkpt>
      <trkpt lat="43.22999" lon="6.58509">
        <ele>181</ele>
        <time>2013-09-16T11:59:42.000Z</time>
      </trkpt>
      <trkpt lat="43.22996" lon="6.58509">
        <ele>181</ele>
        <time>2013-09-16T11:59:43.000Z</time>
      </trkpt>
      <trkpt lat="43.22994" lon="6.58509">
        <ele>181</ele>
        <time>2013-09-16T11:59:44.000Z</time>
      </trkpt>
      <trkpt lat="43.22992" lon="6.58508">
        <ele>181</ele>
        <time>2013-09-16T11:59:45.000Z</time>
      </trkpt>
      <trkpt lat="43.2299" lon="6.58508">
        <ele>181</ele>
        <time>2013-09-16T11:59:46.000Z</time>
      </trkpt>
      <trkpt lat="43.22988" lon="6.58508">
        <ele>182</ele>
        <time>2013-09-16T11:59:47.000Z</time>
      </trkpt>
      <trkpt lat="43.22987" lon="6.58508">
        <ele>182</ele>
        <time>2013-09-16T11:59:48.000Z</time>
      </trkpt>
      <trkpt lat="43.22985" lon="6.58507">
        <ele>182</ele>
        <time>2013-09-16T11:59:49.000Z</time>
      </trkpt>
      <trkpt lat="43.22983" lon="6.58507">
        <ele>182</ele>
        <time>2013-09-16T11:59:50.000Z</time>
      </trkpt>
      <trkpt lat="43.22981" lon="6.58506">
        <ele>182</ele>
        <time>2013-09-16T11:59:51.000Z</time>
      </trkpt>
      <trkpt lat="43.22979" lon="6.58506">
        <ele>183</ele>
        <time>2013-09-16T11:59:52.000Z</time>
      </trkpt>
      <trkpt lat="43.22978" lon="6.58505">
        <ele>183</ele>
        <time>2013-09-16T11:59:53.000Z</time>
      </trkpt>
      <trkpt lat="43.22976" lon="6.58505">
        <ele>183</ele>
        <time>2013-09-16T11:59:54.000Z</time>
      </trkpt>
      <trkpt lat="43.22974" lon="6.58504">
        <ele>183</ele>
        <time>2013-09-16T11:59:55.000Z</time>
      </trkpt>
      <trkpt lat="43.22968" lon="6.58504">
        <ele>184</ele>
        <time>2013-09-16T11:59:58.000Z</time>
      </trkpt>
      <trkpt lat="43.22966" lon="6.58504">
        <ele>184</ele>
        <time>2013-09-16T11:59:59.000Z</time>
      </trkpt>
      <trkpt lat="43.22964" lon="6.58503">
        <ele>184</ele>
        <time>2013-09-16T12:00:00.000Z</time>
      </trkpt>
      <trkpt lat="43.22962" lon="6.58503">
        <ele>184</ele>
        <time>2013-09-16T12:00:01.000Z</time>
      </trkpt>
      <trkpt lat="43.22961" lon="6.58503">
        <ele>184</ele>
        <time>2013-09-16T12:00:02.000Z</time>
      </trkpt>
      <trkpt lat="43.22959" lon="6.58502">
        <ele>184</ele>
        <time>2013-09-16T12:00:03.000Z</time>
      </trkpt>
      <trkpt lat="43.22958" lon="6.58502">
        <ele>184</ele>
        <time>2013-09-16T12:00:04.000Z</time>
      </trkpt>
      <trkpt lat="43.22956" lon="6.58502">
        <ele>185</ele>
        <time>2013-09-16T12:00:05.000Z</time>
      </trkpt>
      <trkpt lat="43.22954" lon="6.58501">
        <ele>185</ele>
        <time>2013-09-16T12:00:06.000Z</time>
      </trkpt>
      <trkpt lat="43.22953" lon="6.58501">
        <ele>185</ele>
        <time>2013-09-16T12:00:07.000Z</time>
      </trkpt>
      <trkpt lat="43.22951" lon="6.58501">
        <ele>185</ele>
        <time>2013-09-16T12:00:08.000Z</time>
      </trkpt>
      <trkpt lat="43.22949" lon="6.58501">
        <ele>185</ele>
        <time>2013-09-16T12:00:10.000Z</time>
      </trkpt>
      <trkpt lat="43.22947" lon="6.585">
        <ele>185</ele>
        <time>2013-09-16T12:00:11.000Z</time>
      </trkpt>
      <trkpt lat="43.22945" lon="6.585">
        <ele>179</ele>
        <time>2013-09-16T12:00:13.000Z</time>
      </trkpt>
      <trkpt lat="43.22944" lon="6.58499">
        <ele>179</ele>
        <time>2013-09-16T12:00:14.000Z</time>
      </trkpt>
      <trkpt lat="43.22942" lon="6.58499">
        <ele>179</ele>
        <time>2013-09-16T12:00:15.000Z</time>
      </trkpt>
      <trkpt lat="43.2294" lon="6.58499">
        <ele>180</ele>
        <time>2013-09-16T12:00:16.000Z</time>
      </trkpt>
      <trkpt lat="43.22939" lon="6.58499">
        <ele>180</ele>
        <time>2013-09-16T12:00:17.000Z</time>
      </trkpt>
      <trkpt lat="43.22939" lon="6.58499">
        <ele>180</ele>
        <time>2013-09-16T12:00:18.000Z</time>
      </trkpt>
      <trkpt lat="43.22938" lon="6.58499">
        <ele>180</ele>
        <time>2013-09-16T12:00:19.000Z</time>
      </trkpt>
      <trkpt lat="43.22938" lon="6.58499">
        <ele>180</ele>
        <time>2013-09-16T12:00:20.000Z</time>
      </trkpt>
      <trkpt lat="43.22937" lon="6.58499">
        <ele>180</ele>
        <time>2013-09-16T12:00:21.000Z</time>
      </trkpt>
      <trkpt lat="43.22936" lon="6.58498">
        <ele>180</ele>
        <time>2013-09-16T12:00:23.000Z</time>
      </trkpt>
      <trkpt lat="43.22936" lon="6.58498">
        <ele>180</ele>
        <time>2013-09-16T12:00:24.000Z</time>
      </trkpt>
      <trkpt lat="43.22936" lon="6.58498">
        <ele>180</ele>
        <time>2013-09-16T12:00:25.000Z</time>
      </trkpt>
      <trkpt lat="43.22936" lon="6.58498">
        <ele>180</ele>
        <time>2013-09-16T12:00:26.000Z</time>
      </trkpt>
      <trkpt lat="43.22935" lon="6.58498">
        <ele>181</ele>
        <time>2013-09-16T12:00:28.000Z</time>
      </trkpt>
      <trkpt lat="43.22935" lon="6.58497">
        <ele>181</ele>
        <time>2013-09-16T12:00:29.000Z</time>
      </trkpt>
      <trkpt lat="43.22934" lon="6.58496">
        <ele>181</ele>
        <time>2013-09-16T12:00:30.000Z</time>
      </trkpt>
      <trkpt lat="43.22932" lon="6.58495">
        <ele>181</ele>
        <time>2013-09-16T12:00:31.000Z</time>
      </trkpt>
      <trkpt lat="43.22931" lon="6.58494">
        <ele>181</ele>
        <time>2013-09-16T12:00:32.000Z</time>
      </trkpt>
      <trkpt lat="43.22929" lon="6.58493">
        <ele>182</ele>
        <time>2013-09-16T12:00:33.000Z</time>
      </trkpt>
      <trkpt lat="43.22927" lon="6.58492">
        <ele>182</ele>
        <time>2013-09-16T12:00:34.000Z</time>
      </trkpt>
      <trkpt lat="43.22925" lon="6.58491">
        <ele>182</ele>
        <time>2013-09-16T12:00:35.000Z</time>
      </trkpt>
      <trkpt lat="43.22922" lon="6.5849">
        <ele>182</ele>
        <time>2013-09-16T12:00:36.000Z</time>
      </trkpt>
      <trkpt lat="43.2292" lon="6.58489">
        <ele>182</ele>
        <time>2013-09-16T12:00:37.000Z</time>
      </trkpt>
      <trkpt lat="43.22918" lon="6.58489">
        <ele>182</ele>
        <time>2013-09-16T12:00:38.000Z</time>
      </trkpt>
      <trkpt lat="43.22915" lon="6.58488">
        <ele>183</ele>
        <time>2013-09-16T12:00:39.000Z</time>
      </trkpt>
      <trkpt lat="43.22913" lon="6.58487">
        <ele>182</ele>
        <time>2013-09-16T12:00:40.000Z</time>
      </trkpt>
      <trkpt lat="43.2291" lon="6.58486">
        <ele>182</ele>
        <time>2013-09-16T12:00:41.000Z</time>
      </trkpt>
      <trkpt lat="43.22907" lon="6.58485">
        <ele>181</ele>
        <time>2013-09-16T12:00:42.000Z</time>
      </trkpt>
      <trkpt lat="43.22905" lon="6.58484">
        <ele>181</ele>
        <time>2013-09-16T12:00:43.000Z</time>
      </trkpt>
      <trkpt lat="43.22903" lon="6.58483">
        <ele>180</ele>
        <time>2013-09-16T12:00:44.000Z</time>
      </trkpt>
      <trkpt lat="43.229" lon="6.58483">
        <ele>180</ele>
        <time>2013-09-16T12:00:45.000Z</time>
      </trkpt>
      <trkpt lat="43.22898" lon="6.58483">
        <ele>180</ele>
        <time>2013-09-16T12:00:46.000Z</time>
      </trkpt>
      <trkpt lat="43.22896" lon="6.58483">
        <ele>180</ele>
        <time>2013-09-16T12:00:47.000Z</time>
      </trkpt>
      <trkpt lat="43.22894" lon="6.58483">
        <ele>179</ele>
        <time>2013-09-16T12:00:48.000Z</time>
      </trkpt>
      <trkpt lat="43.22892" lon="6.58482">
        <ele>179</ele>
        <time>2013-09-16T12:00:49.000Z</time>
      </trkpt>
      <trkpt lat="43.22887" lon="6.58483">
        <ele>179</ele>
        <time>2013-09-16T12:00:51.000Z</time>
      </trkpt>
      <trkpt lat="43.22884" lon="6.58483">
        <ele>179</ele>
        <time>2013-09-16T12:00:52.000Z</time>
      </trkpt>
      <trkpt lat="43.22882" lon="6.58483">
        <ele>178</ele>
        <time>2013-09-16T12:00:53.000Z</time>
      </trkpt>
      <trkpt lat="43.22879" lon="6.58484">
        <ele>178</ele>
        <time>2013-09-16T12:00:54.000Z</time>
      </trkpt>
      <trkpt lat="43.22877" lon="6.58485">
        <ele>178</ele>
        <time>2013-09-16T12:00:55.000Z</time>
      </trkpt>
      <trkpt lat="43.22874" lon="6.58485">
        <ele>178</ele>
        <time>2013-09-16T12:00:56.000Z</time>
      </trkpt>
      <trkpt lat="43.22872" lon="6.58486">
        <ele>178</ele>
        <time>2013-09-16T12:00:57.000Z</time>
      </trkpt>
      <trkpt lat="43.22869" lon="6.58487">
        <ele>178</ele>
        <time>2013-09-16T12:00:58.000Z</time>
      </trkpt>
      <trkpt lat="43.22867" lon="6.58488">
        <ele>178</ele>
        <time>2013-09-16T12:00:59.000Z</time>
      </trkpt>
      <trkpt lat="43.22865" lon="6.5849">
        <ele>178</ele>
        <time>2013-09-16T12:01:00.000Z</time>
      </trkpt>
      <trkpt lat="43.22864" lon="6.58491">
        <ele>178</ele>
        <time>2013-09-16T12:01:01.000Z</time>
      </trkpt>
      <trkpt lat="43.22862" lon="6.58493">
        <ele>179</ele>
        <time>2013-09-16T12:01:02.000Z</time>
      </trkpt>
      <trkpt lat="43.2286" lon="6.58495">
        <ele>179</ele>
        <time>2013-09-16T12:01:03.000Z</time>
      </trkpt>
      <trkpt lat="43.22859" lon="6.58496">
        <ele>179</ele>
        <time>2013-09-16T12:01:04.000Z</time>
      </trkpt>
      <trkpt lat="43.22857" lon="6.58497">
        <ele>179</ele>
        <time>2013-09-16T12:01:05.000Z</time>
      </trkpt>
      <trkpt lat="43.22856" lon="6.58499">
        <ele>179</ele>
        <time>2013-09-16T12:01:06.000Z</time>
      </trkpt>
      <trkpt lat="43.22854" lon="6.58501">
        <ele>185</ele>
        <time>2013-09-16T12:01:07.000Z</time>
      </trkpt>
      <trkpt lat="43.22853" lon="6.58502">
        <ele>185</ele>
        <time>2013-09-16T12:01:08.000Z</time>
      </trkpt>
      <trkpt lat="43.22852" lon="6.58504">
        <ele>185</ele>
        <time>2013-09-16T12:01:09.000Z</time>
      </trkpt>
      <trkpt lat="43.22851" lon="6.58504">
        <ele>185</ele>
        <time>2013-09-16T12:01:10.000Z</time>
      </trkpt>
      <trkpt lat="43.2285" lon="6.58504">
        <ele>185</ele>
        <time>2013-09-16T12:01:11.000Z</time>
      </trkpt>
      <trkpt lat="43.22848" lon="6.58504">
        <ele>185</ele>
        <time>2013-09-16T12:01:12.000Z</time>
      </trkpt>
      <trkpt lat="43.22848" lon="6.58504">
        <ele>185</ele>
        <time>2013-09-16T12:01:14.000Z</time>
      </trkpt>
      <trkpt lat="43.22848" lon="6.58503">
        <ele>185</ele>
        <time>2013-09-16T12:01:15.000Z</time>
      </trkpt>
      <trkpt lat="43.22847" lon="6.58502">
        <ele>185</ele>
        <time>2013-09-16T12:01:16.000Z</time>
      </trkpt>
      <trkpt lat="43.22847" lon="6.58501">
        <ele>185</ele>
        <time>2013-09-16T12:01:19.000Z</time>
      </trkpt>
      <trkpt lat="43.22847" lon="6.58501">
        <ele>185</ele>
        <time>2013-09-16T12:01:20.000Z</time>
      </trkpt>
      <trkpt lat="43.22846" lon="6.58501">
        <ele>184</ele>
        <time>2013-09-16T12:01:27.000Z</time>
      </trkpt>
      <trkpt lat="43.22846" lon="6.58501">
        <ele>184</ele>
        <time>2013-09-16T12:01:28.000Z</time>
      </trkpt>
      <trkpt lat="43.22845" lon="6.58501">
        <ele>184</ele>
        <time>2013-09-16T12:01:30.000Z</time>
      </trkpt>
      <trkpt lat="43.22845" lon="6.585">
        <ele>184</ele>
        <time>2013-09-16T12:01:31.000Z</time>
      </trkpt>
      <trkpt lat="43.22845" lon="6.585">
        <ele>184</ele>
        <time>2013-09-16T12:01:33.000Z</time>
      </trkpt>
      <trkpt lat="43.22845" lon="6.585">
        <ele>180</ele>
        <time>2013-09-16T12:01:34.000Z</time>
      </trkpt>
      <trkpt lat="43.22844" lon="6.585">
        <ele>180</ele>
        <time>2013-09-16T12:01:35.000Z</time>
      </trkpt>
      <trkpt lat="43.22844" lon="6.585">
        <ele>180</ele>
        <time>2013-09-16T12:01:37.000Z</time>
      </trkpt>
      <trkpt lat="43.22844" lon="6.585">
        <ele>180</ele>
        <time>2013-09-16T12:01:38.000Z</time>
      </trkpt>
      <trkpt lat="43.22844" lon="6.585">
        <ele>180</ele>
        <time>2013-09-16T12:01:40.000Z</time>
      </trkpt>
      <trkpt lat="43.22844" lon="6.585">
        <ele>184</ele>
        <time>2013-09-16T12:01:42.000Z</time>
      </trkpt>
      <trkpt lat="43.22843" lon="6.58501">
        <ele>184</ele>
        <time>2013-09-16T12:01:46.000Z</time>
      </trkpt>
      <trkpt lat="43.22843" lon="6.58501">
        <ele>184</ele>
        <time>2013-09-16T12:01:49.000Z</time>
      </trkpt>
      <trkpt lat="43.22843" lon="6.58501">
        <ele>184</ele>
        <time>2013-09-16T12:01:51.000Z</time>
      </trkpt>
      <trkpt lat="43.22843" lon="6.58502">
        <ele>184</ele>
        <time>2013-09-16T12:01:55.000Z</time>
      </trkpt>
      <trkpt lat="43.22842" lon="6.58502">
        <ele>184</ele>
        <time>2013-09-16T12:01:57.000Z</time>
      </trkpt>
      <trkpt lat="43.22842" lon="6.58502">
        <ele>184</ele>
        <time>2013-09-16T12:02:01.000Z</time>
      </trkpt>
      <trkpt lat="43.22842" lon="6.58502">
        <ele>184</ele>
        <time>2013-09-16T12:02:03.000Z</time>
      </trkpt>
      <trkpt lat="43.22842" lon="6.58502">
        <ele>184</ele>
        <time>2013-09-16T12:02:05.000Z</time>
      </trkpt>
      <trkpt lat="43.22842" lon="6.58502">
        <ele>184</ele>
        <time>2013-09-16T12:02:08.000Z</time>
      </trkpt>
      <trkpt lat="43.22841" lon="6.58502">
        <ele>184</ele>
        <time>2013-09-16T12:02:10.000Z</time>
      </trkpt>
      <trkpt lat="43.22841" lon="6.58502">
        <ele>184</ele>
        <time>2013-09-16T12:02:19.000Z</time>
      </trkpt>
      <trkpt lat="43.22841" lon="6.58502">
        <ele>184</ele>
        <time>2013-09-16T12:02:22.000Z</time>
      </trkpt>
      <trkpt lat="43.2284" lon="6.58502">
        <ele>184</ele>
        <time>2013-09-16T12:02:23.000Z</time>
      </trkpt>
      <trkpt lat="43.2284" lon="6.58502">
        <ele>184</ele>
        <time>2013-09-16T12:02:24.000Z</time>
      </trkpt>
      <trkpt lat="43.2284" lon="6.58501">
        <ele>183</ele>
        <time>2013-09-16T12:02:25.000Z</time>
      </trkpt>
      <trkpt lat="43.2284" lon="6.58501">
        <ele>183</ele>
        <time>2013-09-16T12:02:27.000Z</time>
      </trkpt>
      <trkpt lat="43.2284" lon="6.58501">
        <ele>183</ele>
        <time>2013-09-16T12:02:28.000Z</time>
      </trkpt>
      <trkpt lat="43.22839" lon="6.58501">
        <ele>183</ele>
        <time>2013-09-16T12:02:30.000Z</time>
      </trkpt>
      <trkpt lat="43.22839" lon="6.58501">
        <ele>183</ele>
        <time>2013-09-16T12:02:31.000Z</time>
      </trkpt>
      <trkpt lat="43.22839" lon="6.58501">
        <ele>183</ele>
        <time>2013-09-16T12:02:33.000Z</time>
      </trkpt>
      <trkpt lat="43.22839" lon="6.585">
        <ele>183</ele>
        <time>2013-09-16T12:02:36.000Z</time>
      </trkpt>
      <trkpt lat="43.22839" lon="6.585">
        <ele>183</ele>
        <time>2013-09-16T12:02:37.000Z</time>
      </trkpt>
      <trkpt lat="43.22839" lon="6.585">
        <ele>183</ele>
        <time>2013-09-16T12:02:38.000Z</time>
      </trkpt>
      <trkpt lat="43.22839" lon="6.58501">
        <ele>183</ele>
        <time>2013-09-16T12:02:40.000Z</time>
      </trkpt>
      <trkpt lat="43.2284" lon="6.58501">
        <ele>183</ele>
        <time>2013-09-16T12:02:41.000Z</time>
      </trkpt>
      <trkpt lat="43.2284" lon="6.58502">
        <ele>183</ele>
        <time>2013-09-16T12:02:42.000Z</time>
      </trkpt>
      <trkpt lat="43.2284" lon="6.58503">
        <ele>184</ele>
        <time>2013-09-16T12:02:43.000Z</time>
      </trkpt>
      <trkpt lat="43.22839" lon="6.58504">
        <ele>184</ele>
        <time>2013-09-16T12:02:44.000Z</time>
      </trkpt>
      <trkpt lat="43.22839" lon="6.58505">
        <ele>184</ele>
        <time>2013-09-16T12:02:45.000Z</time>
      </trkpt>
      <trkpt lat="43.22838" lon="6.58506">
        <ele>184</ele>
        <time>2013-09-16T12:02:46.000Z</time>
      </trkpt>
      <trkpt lat="43.22838" lon="6.58507">
        <ele>184</ele>
        <time>2013-09-16T12:02:47.000Z</time>
      </trkpt>
      <trkpt lat="43.22837" lon="6.58508">
        <ele>184</ele>
        <time>2013-09-16T12:02:48.000Z</time>
      </trkpt>
      <trkpt lat="43.22837" lon="6.58509">
        <ele>184</ele>
        <time>2013-09-16T12:02:49.000Z</time>
      </trkpt>
      <trkpt lat="43.22836" lon="6.58509">
        <ele>184</ele>
        <time>2013-09-16T12:02:50.000Z</time>
      </trkpt>
      <trkpt lat="43.22835" lon="6.5851">
        <ele>184</ele>
        <time>2013-09-16T12:02:51.000Z</time>
      </trkpt>
      <trkpt lat="43.22835" lon="6.58511">
        <ele>184</ele>
        <time>2013-09-16T12:02:52.000Z</time>
      </trkpt>
      <trkpt lat="43.22834" lon="6.58512">
        <ele>184</ele>
        <time>2013-09-16T12:02:53.000Z</time>
      </trkpt>
      <trkpt lat="43.22834" lon="6.58513">
        <ele>184</ele>
        <time>2013-09-16T12:02:54.000Z</time>
      </trkpt>
      <trkpt lat="43.22833" lon="6.58513">
        <ele>182</ele>
        <time>2013-09-16T12:02:55.000Z</time>
      </trkpt>
      <trkpt lat="43.22833" lon="6.58514">
        <ele>182</ele>
        <time>2013-09-16T12:02:56.000Z</time>
      </trkpt>
      <trkpt lat="43.22833" lon="6.58515">
        <ele>182</ele>
        <time>2013-09-16T12:02:57.000Z</time>
      </trkpt>
      <trkpt lat="43.22833" lon="6.58516">
        <ele>182</ele>
        <time>2013-09-16T12:02:59.000Z</time>
      </trkpt>
      <trkpt lat="43.22833" lon="6.58516">
        <ele>182</ele>
        <time>2013-09-16T12:03:02.000Z</time>
      </trkpt>
      <trkpt lat="43.22833" lon="6.58517">
        <ele>182</ele>
        <time>2013-09-16T12:03:04.000Z</time>
      </trkpt>
      <trkpt lat="43.22833" lon="6.58517">
        <ele>182</ele>
        <time>2013-09-16T12:03:05.000Z</time>
      </trkpt>
      <trkpt lat="43.22834" lon="6.58517">
        <ele>185</ele>
        <time>2013-09-16T12:03:07.000Z</time>
      </trkpt>
      <trkpt lat="43.22834" lon="6.58517">
        <ele>185</ele>
        <time>2013-09-16T12:03:08.000Z</time>
      </trkpt>
      <trkpt lat="43.22834" lon="6.58517">
        <ele>185</ele>
        <time>2013-09-16T12:03:10.000Z</time>
      </trkpt>
      <trkpt lat="43.22835" lon="6.58518">
        <ele>185</ele>
        <time>2013-09-16T12:03:11.000Z</time>
      </trkpt>
      <trkpt lat="43.22834" lon="6.58518">
        <ele>185</ele>
        <time>2013-09-16T12:03:12.000Z</time>
      </trkpt>
      <trkpt lat="43.22834" lon="6.5852">
        <ele>186</ele>
        <time>2013-09-16T12:03:14.000Z</time>
      </trkpt>
      <trkpt lat="43.22834" lon="6.58521">
        <ele>186</ele>
        <time>2013-09-16T12:03:15.000Z</time>
      </trkpt>
      <trkpt lat="43.22833" lon="6.58522">
        <ele>182</ele>
        <time>2013-09-16T12:03:16.000Z</time>
      </trkpt>
      <trkpt lat="43.22833" lon="6.58523">
        <ele>182</ele>
        <time>2013-09-16T12:03:17.000Z</time>
      </trkpt>
      <trkpt lat="43.22832" lon="6.58524">
        <ele>182</ele>
        <time>2013-09-16T12:03:18.000Z</time>
      </trkpt>
      <trkpt lat="43.22832" lon="6.58524">
        <ele>182</ele>
        <time>2013-09-16T12:03:19.000Z</time>
      </trkpt>
      <trkpt lat="43.22831" lon="6.58525">
        <ele>182</ele>
        <time>2013-09-16T12:03:20.000Z</time>
      </trkpt>
      <trkpt lat="43.22831" lon="6.58525">
        <ele>182</ele>
        <time>2013-09-16T12:03:21.000Z</time>
      </trkpt>
      <trkpt lat="43.2283" lon="6.58525">
        <ele>182</ele>
        <time>2013-09-16T12:03:22.000Z</time>
      </trkpt>
      <trkpt lat="43.2283" lon="6.58526">
        <ele>182</ele>
        <time>2013-09-16T12:03:23.000Z</time>
      </trkpt>
      <trkpt lat="43.22829" lon="6.58526">
        <ele>182</ele>
        <time>2013-09-16T12:03:24.000Z</time>
      </trkpt>
      <trkpt lat="43.22829" lon="6.58526">
        <ele>182</ele>
        <time>2013-09-16T12:03:25.000Z</time>
      </trkpt>
      <trkpt lat="43.22829" lon="6.58527">
        <ele>182</ele>
        <time>2013-09-16T12:03:26.000Z</time>
      </trkpt>
      <trkpt lat="43.22829" lon="6.58527">
        <ele>182</ele>
        <time>2013-09-16T12:03:27.000Z</time>
      </trkpt>
      <trkpt lat="43.22829" lon="6.58527">
        <ele>182</ele>
        <time>2013-09-16T12:03:28.000Z</time>
      </trkpt>
      <trkpt lat="43.22828" lon="6.58528">
        <ele>182</ele>
        <time>2013-09-16T12:03:29.000Z</time>
      </trkpt>
      <trkpt lat="43.22829" lon="6.58529">
        <ele>182</ele>
        <time>2013-09-16T12:03:32.000Z</time>
      </trkpt>
      <trkpt lat="43.22829" lon="6.5853">
        <ele>182</ele>
        <time>2013-09-16T12:03:33.000Z</time>
      </trkpt>
      <trkpt lat="43.22829" lon="6.5853">
        <ele>182</ele>
        <time>2013-09-16T12:03:34.000Z</time>
      </trkpt>
      <trkpt lat="43.22829" lon="6.5853">
        <ele>182</ele>
        <time>2013-09-16T12:03:35.000Z</time>
      </trkpt>
      <trkpt lat="43.2283" lon="6.58531">
        <ele>182</ele>
        <time>2013-09-16T12:03:36.000Z</time>
      </trkpt>
      <trkpt lat="43.2283" lon="6.58532">
        <ele>182</ele>
        <time>2013-09-16T12:03:38.000Z</time>
      </trkpt>
      <trkpt lat="43.2283" lon="6.58532">
        <ele>182</ele>
        <time>2013-09-16T12:03:40.000Z</time>
      </trkpt>
      <trkpt lat="43.2283" lon="6.58534">
        <ele>182</ele>
        <time>2013-09-16T12:03:44.000Z</time>
      </trkpt>
      <trkpt lat="43.22829" lon="6.58535">
        <ele>182</ele>
        <time>2013-09-16T12:03:45.000Z</time>
      </trkpt>
      <trkpt lat="43.22829" lon="6.58535">
        <ele>183</ele>
        <time>2013-09-16T12:03:46.000Z</time>
      </trkpt>
      <trkpt lat="43.22829" lon="6.58536">
        <ele>183</ele>
        <time>2013-09-16T12:03:47.000Z</time>
      </trkpt>
      <trkpt lat="43.22829" lon="6.58536">
        <ele>183</ele>
        <time>2013-09-16T12:03:48.000Z</time>
      </trkpt>
      <trkpt lat="43.22829" lon="6.58537">
        <ele>183</ele>
        <time>2013-09-16T12:03:50.000Z</time>
      </trkpt>
      <trkpt lat="43.22829" lon="6.58537">
        <ele>183</ele>
        <time>2013-09-16T12:03:51.000Z</time>
      </trkpt>
      <trkpt lat="43.22828" lon="6.58537">
        <ele>183</ele>
        <time>2013-09-16T12:03:52.000Z</time>
      </trkpt>
      <trkpt lat="43.22828" lon="6.58538">
        <ele>183</ele>
        <time>2013-09-16T12:03:53.000Z</time>
      </trkpt>
      <trkpt lat="43.22828" lon="6.58538">
        <ele>183</ele>
        <time>2013-09-16T12:03:54.000Z</time>
      </trkpt>
      <trkpt lat="43.22828" lon="6.58539">
        <ele>183</ele>
        <time>2013-09-16T12:03:56.000Z</time>
      </trkpt>
      <trkpt lat="43.22828" lon="6.58539">
        <ele>183</ele>
        <time>2013-09-16T12:03:57.000Z</time>
      </trkpt>
      <trkpt lat="43.22828" lon="6.58539">
        <ele>183</ele>
        <time>2013-09-16T12:03:58.000Z</time>
      </trkpt>
      <trkpt lat="43.22827" lon="6.58539">
        <ele>183</ele>
        <time>2013-09-16T12:03:59.000Z</time>
      </trkpt>
      <trkpt lat="43.22827" lon="6.5854">
        <ele>183</ele>
        <time>2013-09-16T12:04:01.000Z</time>
      </trkpt>
      <trkpt lat="43.22827" lon="6.5854">
        <ele>183</ele>
        <time>2013-09-16T12:04:02.000Z</time>
      </trkpt>
      <trkpt lat="43.22827" lon="6.5854">
        <ele>183</ele>
        <time>2013-09-16T12:04:03.000Z</time>
      </trkpt>
      <trkpt lat="43.22827" lon="6.58541">
        <ele>183</ele>
        <time>2013-09-16T12:04:05.000Z</time>
      </trkpt>
      <trkpt lat="43.22826" lon="6.58541">
        <ele>183</ele>
        <time>2013-09-16T12:04:06.000Z</time>
      </trkpt>
      <trkpt lat="43.22826" lon="6.58541">
        <ele>183</ele>
        <time>2013-09-16T12:04:07.000Z</time>
      </trkpt>
      <trkpt lat="43.22826" lon="6.58542">
        <ele>183</ele>
        <time>2013-09-16T12:04:10.000Z</time>
      </trkpt>
      <trkpt lat="43.22827" lon="6.58542">
        <ele>183</ele>
        <time>2013-09-16T12:04:12.000Z</time>
      </trkpt>
      <trkpt lat="43.22825" lon="6.58542">
        <ele>183</ele>
        <time>2013-09-16T12:04:15.000Z</time>
      </trkpt>
      <trkpt lat="43.22824" lon="6.58542">
        <ele>183</ele>
        <time>2013-09-16T12:04:16.000Z</time>
      </trkpt>
      <trkpt lat="43.22821" lon="6.58541">
        <ele>183</ele>
        <time>2013-09-16T12:04:17.000Z</time>
      </trkpt>
      <trkpt lat="43.22818" lon="6.58541">
        <ele>182</ele>
        <time>2013-09-16T12:04:18.000Z</time>
      </trkpt>
      <trkpt lat="43.22814" lon="6.5854">
        <ele>182</ele>
        <time>2013-09-16T12:04:19.000Z</time>
      </trkpt>
      <trkpt lat="43.22811" lon="6.58539">
        <ele>182</ele>
        <time>2013-09-16T12:04:20.000Z</time>
      </trkpt>
      <trkpt lat="43.22804" lon="6.58539">
        <ele>182</ele>
        <time>2013-09-16T12:04:22.000Z</time>
      </trkpt>
      <trkpt lat="43.228" lon="6.58538">
        <ele>181</ele>
        <time>2013-09-16T12:04:23.000Z</time>
      </trkpt>
      <trkpt lat="43.22795" lon="6.58538">
        <ele>181</ele>
        <time>2013-09-16T12:04:24.000Z</time>
      </trkpt>
      <trkpt lat="43.22791" lon="6.58537">
        <ele>181</ele>
        <time>2013-09-16T12:04:25.000Z</time>
      </trkpt>
      <trkpt lat="43.22786" lon="6.58537">
        <ele>180</ele>
        <time>2013-09-16T12:04:26.000Z</time>
      </trkpt>
      <trkpt lat="43.22781" lon="6.58536">
        <ele>180</ele>
        <time>2013-09-16T12:04:27.000Z</time>
      </trkpt>
      <trkpt lat="43.22776" lon="6.58535">
        <ele>180</ele>
        <time>2013-09-16T12:04:28.000Z</time>
      </trkpt>
      <trkpt lat="43.22771" lon="6.58534">
        <ele>179</ele>
        <time>2013-09-16T12:04:29.000Z</time>
      </trkpt>
      <trkpt lat="43.22766" lon="6.58533">
        <ele>179</ele>
        <time>2013-09-16T12:04:30.000Z</time>
      </trkpt>
      <trkpt lat="43.22761" lon="6.58533">
        <ele>178</ele>
        <time>2013-09-16T12:04:31.000Z</time>
      </trkpt>
      <trkpt lat="43.22756" lon="6.58532">
        <ele>178</ele>
        <time>2013-09-16T12:04:32.000Z</time>
      </trkpt>
      <trkpt lat="43.2275" lon="6.58532">
        <ele>172</ele>
        <time>2013-09-16T12:04:33.000Z</time>
      </trkpt>
      <trkpt lat="43.22744" lon="6.58533">
        <ele>172</ele>
        <time>2013-09-16T12:04:34.000Z</time>
      </trkpt>
      <trkpt lat="43.22738" lon="6.58535">
        <ele>172</ele>
        <time>2013-09-16T12:04:35.000Z</time>
      </trkpt>
      <trkpt lat="43.22732" lon="6.58537">
        <ele>172</ele>
        <time>2013-09-16T12:04:36.000Z</time>
      </trkpt>
      <trkpt lat="43.22725" lon="6.58541">
        <ele>172</ele>
        <time>2013-09-16T12:04:37.000Z</time>
      </trkpt>
      <trkpt lat="43.2272" lon="6.58544">
        <ele>172</ele>
        <time>2013-09-16T12:04:38.000Z</time>
      </trkpt>
      <trkpt lat="43.22715" lon="6.58547">
        <ele>172</ele>
        <time>2013-09-16T12:04:39.000Z</time>
      </trkpt>
      <trkpt lat="43.22712" lon="6.58551">
        <ele>172</ele>
        <time>2013-09-16T12:04:40.000Z</time>
      </trkpt>
      <trkpt lat="43.22709" lon="6.58554">
        <ele>172</ele>
        <time>2013-09-16T12:04:41.000Z</time>
      </trkpt>
      <trkpt lat="43.22705" lon="6.58558">
        <ele>172</ele>
        <time>2013-09-16T12:04:42.000Z</time>
      </trkpt>
      <trkpt lat="43.22702" lon="6.58561">
        <ele>171</ele>
        <time>2013-09-16T12:04:43.000Z</time>
      </trkpt>
      <trkpt lat="43.22699" lon="6.58564">
        <ele>171</ele>
        <time>2013-09-16T12:04:44.000Z</time>
      </trkpt>
      <trkpt lat="43.22695" lon="6.58567">
        <ele>171</ele>
        <time>2013-09-16T12:04:45.000Z</time>
      </trkpt>
      <trkpt lat="43.22692" lon="6.5857">
        <ele>171</ele>
        <time>2013-09-16T12:04:46.000Z</time>
      </trkpt>
      <trkpt lat="43.2269" lon="6.58573">
        <ele>171</ele>
        <time>2013-09-16T12:04:47.000Z</time>
      </trkpt>
      <trkpt lat="43.22687" lon="6.58576">
        <ele>171</ele>
        <time>2013-09-16T12:04:48.000Z</time>
      </trkpt>
      <trkpt lat="43.22684" lon="6.58579">
        <ele>171</ele>
        <time>2013-09-16T12:04:49.000Z</time>
      </trkpt>
      <trkpt lat="43.2268" lon="6.58582">
        <ele>171</ele>
        <time>2013-09-16T12:04:50.000Z</time>
      </trkpt>
      <trkpt lat="43.22677" lon="6.58584">
        <ele>171</ele>
        <time>2013-09-16T12:04:51.000Z</time>
      </trkpt>
      <trkpt lat="43.22673" lon="6.58586">
        <ele>171</ele>
        <time>2013-09-16T12:04:52.000Z</time>
      </trkpt>
      <trkpt lat="43.22669" lon="6.5859">
        <ele>171</ele>
        <time>2013-09-16T12:04:53.000Z</time>
      </trkpt>
      <trkpt lat="43.22664" lon="6.58593">
        <ele>169</ele>
        <time>2013-09-16T12:04:54.000Z</time>
      </trkpt>
      <trkpt lat="43.22661" lon="6.58595">
        <ele>169</ele>
        <time>2013-09-16T12:04:55.000Z</time>
      </trkpt>
      <trkpt lat="43.22659" lon="6.58596">
        <ele>169</ele>
        <time>2013-09-16T12:04:56.000Z</time>
      </trkpt>
      <trkpt lat="43.22657" lon="6.58597">
        <ele>169</ele>
        <time>2013-09-16T12:04:57.000Z</time>
      </trkpt>
      <trkpt lat="43.22655" lon="6.58598">
        <ele>169</ele>
        <time>2013-09-16T12:04:58.000Z</time>
      </trkpt>
      <trkpt lat="43.22653" lon="6.58599">
        <ele>168</ele>
        <time>2013-09-16T12:04:59.000Z</time>
      </trkpt>
      <trkpt lat="43.22651" lon="6.58599">
        <ele>168</ele>
        <time>2013-09-16T12:05:00.000Z</time>
      </trkpt>
      <trkpt lat="43.22649" lon="6.58601">
        <ele>168</ele>
        <time>2013-09-16T12:05:01.000Z</time>
      </trkpt>
      <trkpt lat="43.22647" lon="6.58603">
        <ele>168</ele>
        <time>2013-09-16T12:05:02.000Z</time>
      </trkpt>
      <trkpt lat="43.22645" lon="6.58605">
        <ele>168</ele>
        <time>2013-09-16T12:05:03.000Z</time>
      </trkpt>
      <trkpt lat="43.22644" lon="6.58607">
        <ele>167</ele>
        <time>2013-09-16T12:05:04.000Z</time>
      </trkpt>
      <trkpt lat="43.22642" lon="6.58608">
        <ele>167</ele>
        <time>2013-09-16T12:05:05.000Z</time>
      </trkpt>
      <trkpt lat="43.22641" lon="6.5861">
        <ele>167</ele>
        <time>2013-09-16T12:05:06.000Z</time>
      </trkpt>
      <trkpt lat="43.22639" lon="6.58612">
        <ele>167</ele>
        <time>2013-09-16T12:05:07.000Z</time>
      </trkpt>
      <trkpt lat="43.22637" lon="6.58614">
        <ele>167</ele>
        <time>2013-09-16T12:05:08.000Z</time>
      </trkpt>
      <trkpt lat="43.22634" lon="6.58617">
        <ele>167</ele>
        <time>2013-09-16T12:05:09.000Z</time>
      </trkpt>
      <trkpt lat="43.2263" lon="6.5862">
        <ele>167</ele>
        <time>2013-09-16T12:05:10.000Z</time>
      </trkpt>
      <trkpt lat="43.22626" lon="6.58624">
        <ele>167</ele>
        <time>2013-09-16T12:05:11.000Z</time>
      </trkpt>
      <trkpt lat="43.22623" lon="6.58628">
        <ele>166</ele>
        <time>2013-09-16T12:05:12.000Z</time>
      </trkpt>
      <trkpt lat="43.22619" lon="6.58632">
        <ele>166</ele>
        <time>2013-09-16T12:05:13.000Z</time>
      </trkpt>
      <trkpt lat="43.22617" lon="6.58636">
        <ele>166</ele>
        <time>2013-09-16T12:05:14.000Z</time>
      </trkpt>
      <trkpt lat="43.22615" lon="6.58641">
        <ele>166</ele>
        <time>2013-09-16T12:05:15.000Z</time>
      </trkpt>
      <trkpt lat="43.22614" lon="6.58648">
        <ele>166</ele>
        <time>2013-09-16T12:05:16.000Z</time>
      </trkpt>
      <trkpt lat="43.22614" lon="6.58654">
        <ele>166</ele>
        <time>2013-09-16T12:05:17.000Z</time>
      </trkpt>
      <trkpt lat="43.22613" lon="6.58658">
        <ele>166</ele>
        <time>2013-09-16T12:05:18.000Z</time>
      </trkpt>
      <trkpt lat="43.22611" lon="6.58662">
        <ele>166</ele>
        <time>2013-09-16T12:05:19.000Z</time>
      </trkpt>
      <trkpt lat="43.2261" lon="6.58665">
        <ele>166</ele>
        <time>2013-09-16T12:05:20.000Z</time>
      </trkpt>
      <trkpt lat="43.22608" lon="6.58668">
        <ele>160</ele>
        <time>2013-09-16T12:05:21.000Z</time>
      </trkpt>
      <trkpt lat="43.22606" lon="6.5867">
        <ele>161</ele>
        <time>2013-09-16T12:05:22.000Z</time>
      </trkpt>
      <trkpt lat="43.22602" lon="6.58672">
        <ele>161</ele>
        <time>2013-09-16T12:05:23.000Z</time>
      </trkpt>
      <trkpt lat="43.22599" lon="6.58674">
        <ele>161</ele>
        <time>2013-09-16T12:05:24.000Z</time>
      </trkpt>
      <trkpt lat="43.22595" lon="6.58676">
        <ele>161</ele>
        <time>2013-09-16T12:05:25.000Z</time>
      </trkpt>
      <trkpt lat="43.22593" lon="6.58678">
        <ele>161</ele>
        <time>2013-09-16T12:05:26.000Z</time>
      </trkpt>
      <trkpt lat="43.22589" lon="6.5868">
        <ele>161</ele>
        <time>2013-09-16T12:05:27.000Z</time>
      </trkpt>
      <trkpt lat="43.22587" lon="6.58681">
        <ele>161</ele>
        <time>2013-09-16T12:05:28.000Z</time>
      </trkpt>
      <trkpt lat="43.22584" lon="6.58683">
        <ele>161</ele>
        <time>2013-09-16T12:05:29.000Z</time>
      </trkpt>
      <trkpt lat="43.22581" lon="6.58685">
        <ele>160</ele>
        <time>2013-09-16T12:05:30.000Z</time>
      </trkpt>
      <trkpt lat="43.22578" lon="6.58687">
        <ele>160</ele>
        <time>2013-09-16T12:05:31.000Z</time>
      </trkpt>
      <trkpt lat="43.22576" lon="6.58689">
        <ele>159</ele>
        <time>2013-09-16T12:05:32.000Z</time>
      </trkpt>
      <trkpt lat="43.22573" lon="6.58691">
        <ele>159</ele>
        <time>2013-09-16T12:05:33.000Z</time>
      </trkpt>
      <trkpt lat="43.2257" lon="6.58693">
        <ele>159</ele>
        <time>2013-09-16T12:05:34.000Z</time>
      </trkpt>
      <trkpt lat="43.22568" lon="6.58694">
        <ele>158</ele>
        <time>2013-09-16T12:05:35.000Z</time>
      </trkpt>
      <trkpt lat="43.22566" lon="6.58696">
        <ele>158</ele>
        <time>2013-09-16T12:05:36.000Z</time>
      </trkpt>
      <trkpt lat="43.22563" lon="6.58697">
        <ele>158</ele>
        <time>2013-09-16T12:05:37.000Z</time>
      </trkpt>
      <trkpt lat="43.22561" lon="6.58698">
        <ele>158</ele>
        <time>2013-09-16T12:05:38.000Z</time>
      </trkpt>
      <trkpt lat="43.22558" lon="6.587">
        <ele>157</ele>
        <time>2013-09-16T12:05:39.000Z</time>
      </trkpt>
      <trkpt lat="43.22555" lon="6.58703">
        <ele>157</ele>
        <time>2013-09-16T12:05:40.000Z</time>
      </trkpt>
      <trkpt lat="43.22551" lon="6.58705">
        <ele>157</ele>
        <time>2013-09-16T12:05:41.000Z</time>
      </trkpt>
      <trkpt lat="43.22548" lon="6.58708">
        <ele>156</ele>
        <time>2013-09-16T12:05:42.000Z</time>
      </trkpt>
      <trkpt lat="43.22544" lon="6.58712">
        <ele>156</ele>
        <time>2013-09-16T12:05:43.000Z</time>
      </trkpt>
      <trkpt lat="43.2254" lon="6.58717">
        <ele>156</ele>
        <time>2013-09-16T12:05:44.000Z</time>
      </trkpt>
      <trkpt lat="43.22536" lon="6.58722">
        <ele>156</ele>
        <time>2013-09-16T12:05:45.000Z</time>
      </trkpt>
      <trkpt lat="43.22532" lon="6.58728">
        <ele>156</ele>
        <time>2013-09-16T12:05:46.000Z</time>
      </trkpt>
      <trkpt lat="43.22528" lon="6.58734">
        <ele>156</ele>
        <time>2013-09-16T12:05:47.000Z</time>
      </trkpt>
      <trkpt lat="43.22524" lon="6.58739">
        <ele>155</ele>
        <time>2013-09-16T12:05:48.000Z</time>
      </trkpt>
      <trkpt lat="43.2252" lon="6.58745">
        <ele>155</ele>
        <time>2013-09-16T12:05:49.000Z</time>
      </trkpt>
      <trkpt lat="43.22516" lon="6.58751">
        <ele>154</ele>
        <time>2013-09-16T12:05:50.000Z</time>
      </trkpt>
      <trkpt lat="43.22512" lon="6.58758">
        <ele>154</ele>
        <time>2013-09-16T12:05:51.000Z</time>
      </trkpt>
      <trkpt lat="43.22508" lon="6.58766">
        <ele>153</ele>
        <time>2013-09-16T12:05:52.000Z</time>
      </trkpt>
      <trkpt lat="43.22503" lon="6.58774">
        <ele>153</ele>
        <time>2013-09-16T12:05:53.000Z</time>
      </trkpt>
      <trkpt lat="43.22497" lon="6.58782">
        <ele>153</ele>
        <time>2013-09-16T12:05:54.000Z</time>
      </trkpt>
      <trkpt lat="43.22492" lon="6.5879">
        <ele>153</ele>
        <time>2013-09-16T12:05:55.000Z</time>
      </trkpt>
      <trkpt lat="43.22486" lon="6.58797">
        <ele>153</ele>
        <time>2013-09-16T12:05:56.000Z</time>
      </trkpt>
      <trkpt lat="43.2248" lon="6.58803">
        <ele>153</ele>
        <time>2013-09-16T12:05:57.000Z</time>
      </trkpt>
      <trkpt lat="43.22474" lon="6.5881">
        <ele>153</ele>
        <time>2013-09-16T12:05:58.000Z</time>
      </trkpt>
      <trkpt lat="43.22469" lon="6.58815">
        <ele>153</ele>
        <time>2013-09-16T12:05:59.000Z</time>
      </trkpt>
      <trkpt lat="43.22465" lon="6.58821">
        <ele>153</ele>
        <time>2013-09-16T12:06:00.000Z</time>
      </trkpt>
      <trkpt lat="43.22461" lon="6.58825">
        <ele>153</ele>
        <time>2013-09-16T12:06:01.000Z</time>
      </trkpt>
      <trkpt lat="43.22457" lon="6.5883">
        <ele>153</ele>
        <time>2013-09-16T12:06:02.000Z</time>
      </trkpt>
      <trkpt lat="43.22453" lon="6.58833">
        <ele>153</ele>
        <time>2013-09-16T12:06:03.000Z</time>
      </trkpt>
      <trkpt lat="43.22449" lon="6.58836">
        <ele>157</ele>
        <time>2013-09-16T12:06:04.000Z</time>
      </trkpt>
      <trkpt lat="43.22446" lon="6.58839">
        <ele>157</ele>
        <time>2013-09-16T12:06:05.000Z</time>
      </trkpt>
      <trkpt lat="43.22443" lon="6.58841">
        <ele>157</ele>
        <time>2013-09-16T12:06:06.000Z</time>
      </trkpt>
      <trkpt lat="43.22441" lon="6.58843">
        <ele>157</ele>
        <time>2013-09-16T12:06:07.000Z</time>
      </trkpt>
      <trkpt lat="43.22439" lon="6.58845">
        <ele>157</ele>
        <time>2013-09-16T12:06:08.000Z</time>
      </trkpt>
      <trkpt lat="43.22437" lon="6.58846">
        <ele>157</ele>
        <time>2013-09-16T12:06:09.000Z</time>
      </trkpt>
      <trkpt lat="43.22435" lon="6.58847">
        <ele>157</ele>
        <time>2013-09-16T12:06:10.000Z</time>
      </trkpt>
      <trkpt lat="43.22433" lon="6.58848">
        <ele>157</ele>
        <time>2013-09-16T12:06:11.000Z</time>
      </trkpt>
      <trkpt lat="43.22431" lon="6.58849">
        <ele>157</ele>
        <time>2013-09-16T12:06:12.000Z</time>
      </trkpt>
      <trkpt lat="43.22429" lon="6.5885">
        <ele>157</ele>
        <time>2013-09-16T12:06:13.000Z</time>
      </trkpt>
      <trkpt lat="43.22428" lon="6.58851">
        <ele>157</ele>
        <time>2013-09-16T12:06:14.000Z</time>
      </trkpt>
      <trkpt lat="43.22427" lon="6.58852">
        <ele>157</ele>
        <time>2013-09-16T12:06:15.000Z</time>
      </trkpt>
      <trkpt lat="43.22426" lon="6.58853">
        <ele>157</ele>
        <time>2013-09-16T12:06:16.000Z</time>
      </trkpt>
      <trkpt lat="43.22425" lon="6.58853">
        <ele>157</ele>
        <time>2013-09-16T12:06:17.000Z</time>
      </trkpt>
      <trkpt lat="43.22423" lon="6.58853">
        <ele>157</ele>
        <time>2013-09-16T12:06:18.000Z</time>
      </trkpt>
      <trkpt lat="43.22422" lon="6.58854">
        <ele>157</ele>
        <time>2013-09-16T12:06:19.000Z</time>
      </trkpt>
      <trkpt lat="43.22421" lon="6.58854">
        <ele>157</ele>
        <time>2013-09-16T12:06:20.000Z</time>
      </trkpt>
      <trkpt lat="43.2242" lon="6.58855">
        <ele>157</ele>
        <time>2013-09-16T12:06:21.000Z</time>
      </trkpt>
      <trkpt lat="43.22419" lon="6.58855">
        <ele>157</ele>
        <time>2013-09-16T12:06:22.000Z</time>
      </trkpt>
      <trkpt lat="43.22418" lon="6.58856">
        <ele>157</ele>
        <time>2013-09-16T12:06:23.000Z</time>
      </trkpt>
      <trkpt lat="43.22417" lon="6.58856">
        <ele>159</ele>
        <time>2013-09-16T12:06:24.000Z</time>
      </trkpt>
      <trkpt lat="43.22415" lon="6.58857">
        <ele>159</ele>
        <time>2013-09-16T12:06:25.000Z</time>
      </trkpt>
      <trkpt lat="43.22415" lon="6.58858">
        <ele>159</ele>
        <time>2013-09-16T12:06:26.000Z</time>
      </trkpt>
      <trkpt lat="43.22414" lon="6.58859">
        <ele>159</ele>
        <time>2013-09-16T12:06:27.000Z</time>
      </trkpt>
      <trkpt lat="43.22412" lon="6.58859">
        <ele>159</ele>
        <time>2013-09-16T12:06:28.000Z</time>
      </trkpt>
      <trkpt lat="43.22411" lon="6.5886">
        <ele>159</ele>
        <time>2013-09-16T12:06:29.000Z</time>
      </trkpt>
      <trkpt lat="43.2241" lon="6.58861">
        <ele>159</ele>
        <time>2013-09-16T12:06:30.000Z</time>
      </trkpt>
      <trkpt lat="43.22409" lon="6.58861">
        <ele>159</ele>
        <time>2013-09-16T12:06:31.000Z</time>
      </trkpt>
      <trkpt lat="43.22408" lon="6.58862">
        <ele>160</ele>
        <time>2013-09-16T12:06:32.000Z</time>
      </trkpt>
      <trkpt lat="43.22407" lon="6.58863">
        <ele>160</ele>
        <time>2013-09-16T12:06:33.000Z</time>
      </trkpt>
      <trkpt lat="43.22406" lon="6.58864">
        <ele>160</ele>
        <time>2013-09-16T12:06:34.000Z</time>
      </trkpt>
      <trkpt lat="43.22405" lon="6.58864">
        <ele>160</ele>
        <time>2013-09-16T12:06:35.000Z</time>
      </trkpt>
      <trkpt lat="43.22404" lon="6.58865">
        <ele>160</ele>
        <time>2013-09-16T12:06:36.000Z</time>
      </trkpt>
      <trkpt lat="43.22403" lon="6.58866">
        <ele>160</ele>
        <time>2013-09-16T12:06:37.000Z</time>
      </trkpt>
      <trkpt lat="43.22402" lon="6.58867">
        <ele>160</ele>
        <time>2013-09-16T12:06:38.000Z</time>
      </trkpt>
      <trkpt lat="43.22402" lon="6.58868">
        <ele>160</ele>
        <time>2013-09-16T12:06:39.000Z</time>
      </trkpt>
      <trkpt lat="43.22401" lon="6.58869">
        <ele>160</ele>
        <time>2013-09-16T12:06:40.000Z</time>
      </trkpt>
      <trkpt lat="43.22401" lon="6.5887">
        <ele>160</ele>
        <time>2013-09-16T12:06:41.000Z</time>
      </trkpt>
      <trkpt lat="43.224" lon="6.58871">
        <ele>160</ele>
        <time>2013-09-16T12:06:42.000Z</time>
      </trkpt>
      <trkpt lat="43.22399" lon="6.58872">
        <ele>160</ele>
        <time>2013-09-16T12:06:43.000Z</time>
      </trkpt>
      <trkpt lat="43.22398" lon="6.58873">
        <ele>160</ele>
        <time>2013-09-16T12:06:44.000Z</time>
      </trkpt>
      <trkpt lat="43.22398" lon="6.58874">
        <ele>161</ele>
        <time>2013-09-16T12:06:45.000Z</time>
      </trkpt>
      <trkpt lat="43.22397" lon="6.58876">
        <ele>161</ele>
        <time>2013-09-16T12:06:46.000Z</time>
      </trkpt>
      <trkpt lat="43.22395" lon="6.58877">
        <ele>161</ele>
        <time>2013-09-16T12:06:47.000Z</time>
      </trkpt>
      <trkpt lat="43.22394" lon="6.58878">
        <ele>161</ele>
        <time>2013-09-16T12:06:48.000Z</time>
      </trkpt>
      <trkpt lat="43.22394" lon="6.58879">
        <ele>161</ele>
        <time>2013-09-16T12:06:49.000Z</time>
      </trkpt>
      <trkpt lat="43.22393" lon="6.5888">
        <ele>161</ele>
        <time>2013-09-16T12:06:50.000Z</time>
      </trkpt>
      <trkpt lat="43.22391" lon="6.58881">
        <ele>161</ele>
        <time>2013-09-16T12:06:51.000Z</time>
      </trkpt>
      <trkpt lat="43.2239" lon="6.58882">
        <ele>161</ele>
        <time>2013-09-16T12:06:52.000Z</time>
      </trkpt>
      <trkpt lat="43.22388" lon="6.58883">
        <ele>161</ele>
        <time>2013-09-16T12:06:53.000Z</time>
      </trkpt>
      <trkpt lat="43.22387" lon="6.58884">
        <ele>161</ele>
        <time>2013-09-16T12:06:54.000Z</time>
      </trkpt>
      <trkpt lat="43.22386" lon="6.58885">
        <ele>161</ele>
        <time>2013-09-16T12:06:55.000Z</time>
      </trkpt>
      <trkpt lat="43.22385" lon="6.58885">
        <ele>161</ele>
        <time>2013-09-16T12:06:56.000Z</time>
      </trkpt>
      <trkpt lat="43.22384" lon="6.58887">
        <ele>161</ele>
        <time>2013-09-16T12:06:57.000Z</time>
      </trkpt>
      <trkpt lat="43.22382" lon="6.58888">
        <ele>161</ele>
        <time>2013-09-16T12:06:58.000Z</time>
      </trkpt>
      <trkpt lat="43.22381" lon="6.58889">
        <ele>162</ele>
        <time>2013-09-16T12:06:59.000Z</time>
      </trkpt>
      <trkpt lat="43.2238" lon="6.5889">
        <ele>162</ele>
        <time>2013-09-16T12:07:00.000Z</time>
      </trkpt>
      <trkpt lat="43.22378" lon="6.58891">
        <ele>162</ele>
        <time>2013-09-16T12:07:01.000Z</time>
      </trkpt>
      <trkpt lat="43.22377" lon="6.58892">
        <ele>162</ele>
        <time>2013-09-16T12:07:02.000Z</time>
      </trkpt>
      <trkpt lat="43.22376" lon="6.58893">
        <ele>162</ele>
        <time>2013-09-16T12:07:03.000Z</time>
      </trkpt>
      <trkpt lat="43.22375" lon="6.58894">
        <ele>162</ele>
        <time>2013-09-16T12:07:04.000Z</time>
      </trkpt>
      <trkpt lat="43.22374" lon="6.58896">
        <ele>162</ele>
        <time>2013-09-16T12:07:05.000Z</time>
      </trkpt>
      <trkpt lat="43.22373" lon="6.58897">
        <ele>162</ele>
        <time>2013-09-16T12:07:06.000Z</time>
      </trkpt>
      <trkpt lat="43.22372" lon="6.58898">
        <ele>162</ele>
        <time>2013-09-16T12:07:07.000Z</time>
      </trkpt>
      <trkpt lat="43.2237" lon="6.58899">
        <ele>162</ele>
        <time>2013-09-16T12:07:08.000Z</time>
      </trkpt>
      <trkpt lat="43.22369" lon="6.58901">
        <ele>162</ele>
        <time>2013-09-16T12:07:09.000Z</time>
      </trkpt>
      <trkpt lat="43.22368" lon="6.58902">
        <ele>163</ele>
        <time>2013-09-16T12:07:10.000Z</time>
      </trkpt>
      <trkpt lat="43.22367" lon="6.58904">
        <ele>163</ele>
        <time>2013-09-16T12:07:11.000Z</time>
      </trkpt>
      <trkpt lat="43.22366" lon="6.58905">
        <ele>163</ele>
        <time>2013-09-16T12:07:12.000Z</time>
      </trkpt>
      <trkpt lat="43.22365" lon="6.58907">
        <ele>163</ele>
        <time>2013-09-16T12:07:13.000Z</time>
      </trkpt>
      <trkpt lat="43.22364" lon="6.58908">
        <ele>163</ele>
        <time>2013-09-16T12:07:14.000Z</time>
      </trkpt>
      <trkpt lat="43.22363" lon="6.5891">
        <ele>163</ele>
        <time>2013-09-16T12:07:15.000Z</time>
      </trkpt>
      <trkpt lat="43.22362" lon="6.58911">
        <ele>163</ele>
        <time>2013-09-16T12:07:16.000Z</time>
      </trkpt>
      <trkpt lat="43.22361" lon="6.58913">
        <ele>163</ele>
        <time>2013-09-16T12:07:17.000Z</time>
      </trkpt>
      <trkpt lat="43.2236" lon="6.58915">
        <ele>164</ele>
        <time>2013-09-16T12:07:18.000Z</time>
      </trkpt>
      <trkpt lat="43.22358" lon="6.58916">
        <ele>164</ele>
        <time>2013-09-16T12:07:19.000Z</time>
      </trkpt>
      <trkpt lat="43.22357" lon="6.58918">
        <ele>163</ele>
        <time>2013-09-16T12:07:20.000Z</time>
      </trkpt>
      <trkpt lat="43.22357" lon="6.58921">
        <ele>163</ele>
        <time>2013-09-16T12:07:21.000Z</time>
      </trkpt>
      <trkpt lat="43.22356" lon="6.58923">
        <ele>163</ele>
        <time>2013-09-16T12:07:22.000Z</time>
      </trkpt>
      <trkpt lat="43.22355" lon="6.58925">
        <ele>163</ele>
        <time>2013-09-16T12:07:23.000Z</time>
      </trkpt>
      <trkpt lat="43.22354" lon="6.58926">
        <ele>163</ele>
        <time>2013-09-16T12:07:24.000Z</time>
      </trkpt>
      <trkpt lat="43.22353" lon="6.58928">
        <ele>163</ele>
        <time>2013-09-16T12:07:25.000Z</time>
      </trkpt>
      <trkpt lat="43.22352" lon="6.5893">
        <ele>163</ele>
        <time>2013-09-16T12:07:26.000Z</time>
      </trkpt>
      <trkpt lat="43.22351" lon="6.58932">
        <ele>163</ele>
        <time>2013-09-16T12:07:27.000Z</time>
      </trkpt>
      <trkpt lat="43.2235" lon="6.58934">
        <ele>163</ele>
        <time>2013-09-16T12:07:28.000Z</time>
      </trkpt>
      <trkpt lat="43.22348" lon="6.58936">
        <ele>163</ele>
        <time>2013-09-16T12:07:29.000Z</time>
      </trkpt>
      <trkpt lat="43.22346" lon="6.58938">
        <ele>163</ele>
        <time>2013-09-16T12:07:30.000Z</time>
      </trkpt>
      <trkpt lat="43.22345" lon="6.58941">
        <ele>162</ele>
        <time>2013-09-16T12:07:31.000Z</time>
      </trkpt>
      <trkpt lat="43.22343" lon="6.58943">
        <ele>162</ele>
        <time>2013-09-16T12:07:32.000Z</time>
      </trkpt>
      <trkpt lat="43.22341" lon="6.58946">
        <ele>162</ele>
        <time>2013-09-16T12:07:33.000Z</time>
      </trkpt>
      <trkpt lat="43.22338" lon="6.58949">
        <ele>162</ele>
        <time>2013-09-16T12:07:34.000Z</time>
      </trkpt>
      <trkpt lat="43.22334" lon="6.58952">
        <ele>161</ele>
        <time>2013-09-16T12:07:35.000Z</time>
      </trkpt>
      <trkpt lat="43.22331" lon="6.58955">
        <ele>164</ele>
        <time>2013-09-16T12:07:36.000Z</time>
      </trkpt>
      <trkpt lat="43.22327" lon="6.58959">
        <ele>163</ele>
        <time>2013-09-16T12:07:37.000Z</time>
      </trkpt>
      <trkpt lat="43.22324" lon="6.58962">
        <ele>163</ele>
        <time>2013-09-16T12:07:38.000Z</time>
      </trkpt>
      <trkpt lat="43.22319" lon="6.58965">
        <ele>163</ele>
        <time>2013-09-16T12:07:39.000Z</time>
      </trkpt>
      <trkpt lat="43.22314" lon="6.58968">
        <ele>163</ele>
        <time>2013-09-16T12:07:40.000Z</time>
      </trkpt>
      <trkpt lat="43.22309" lon="6.58971">
        <ele>163</ele>
        <time>2013-09-16T12:07:41.000Z</time>
      </trkpt>
      <trkpt lat="43.22303" lon="6.58973">
        <ele>163</ele>
        <time>2013-09-16T12:07:42.000Z</time>
      </trkpt>
      <trkpt lat="43.22296" lon="6.58975">
        <ele>163</ele>
        <time>2013-09-16T12:07:43.000Z</time>
      </trkpt>
      <trkpt lat="43.22289" lon="6.58975">
        <ele>163</ele>
        <time>2013-09-16T12:07:44.000Z</time>
      </trkpt>
      <trkpt lat="43.22281" lon="6.58974">
        <ele>164</ele>
        <time>2013-09-16T12:07:45.000Z</time>
      </trkpt>
      <trkpt lat="43.22266" lon="6.58974">
        <ele>164</ele>
        <time>2013-09-16T12:07:47.000Z</time>
      </trkpt>
      <trkpt lat="43.22258" lon="6.58975">
        <ele>164</ele>
        <time>2013-09-16T12:07:48.000Z</time>
      </trkpt>
      <trkpt lat="43.22251" lon="6.58977">
        <ele>164</ele>
        <time>2013-09-16T12:07:49.000Z</time>
      </trkpt>
      <trkpt lat="43.22245" lon="6.5898">
        <ele>167</ele>
        <time>2013-09-16T12:07:50.000Z</time>
      </trkpt>
      <trkpt lat="43.2224" lon="6.58986">
        <ele>167</ele>
        <time>2013-09-16T12:07:51.000Z</time>
      </trkpt>
      <trkpt lat="43.22235" lon="6.58992">
        <ele>167</ele>
        <time>2013-09-16T12:07:52.000Z</time>
      </trkpt>
      <trkpt lat="43.22231" lon="6.58998">
        <ele>167</ele>
        <time>2013-09-16T12:07:53.000Z</time>
      </trkpt>
      <trkpt lat="43.22228" lon="6.59005">
        <ele>168</ele>
        <time>2013-09-16T12:07:54.000Z</time>
      </trkpt>
      <trkpt lat="43.22225" lon="6.59011">
        <ele>168</ele>
        <time>2013-09-16T12:07:55.000Z</time>
      </trkpt>
      <trkpt lat="43.22223" lon="6.59018">
        <ele>169</ele>
        <time>2013-09-16T12:07:56.000Z</time>
      </trkpt>
      <trkpt lat="43.22222" lon="6.59024">
        <ele>169</ele>
        <time>2013-09-16T12:07:57.000Z</time>
      </trkpt>
      <trkpt lat="43.22221" lon="6.5903">
        <ele>169</ele>
        <time>2013-09-16T12:07:58.000Z</time>
      </trkpt>
      <trkpt lat="43.22221" lon="6.59035">
        <ele>169</ele>
        <time>2013-09-16T12:07:59.000Z</time>
      </trkpt>
      <trkpt lat="43.22221" lon="6.59041">
        <ele>169</ele>
        <time>2013-09-16T12:08:00.000Z</time>
      </trkpt>
      <trkpt lat="43.22222" lon="6.59045">
        <ele>169</ele>
        <time>2013-09-16T12:08:01.000Z</time>
      </trkpt>
      <trkpt lat="43.22223" lon="6.5905">
        <ele>169</ele>
        <time>2013-09-16T12:08:02.000Z</time>
      </trkpt>
      <trkpt lat="43.22224" lon="6.59053">
        <ele>169</ele>
        <time>2013-09-16T12:08:03.000Z</time>
      </trkpt>
      <trkpt lat="43.22224" lon="6.59056">
        <ele>169</ele>
        <time>2013-09-16T12:08:04.000Z</time>
      </trkpt>
      <trkpt lat="43.22225" lon="6.59059">
        <ele>169</ele>
        <time>2013-09-16T12:08:05.000Z</time>
      </trkpt>
      <trkpt lat="43.22225" lon="6.59061">
        <ele>169</ele>
        <time>2013-09-16T12:08:06.000Z</time>
      </trkpt>
      <trkpt lat="43.22226" lon="6.59063">
        <ele>168</ele>
        <time>2013-09-16T12:08:07.000Z</time>
      </trkpt>
      <trkpt lat="43.22226" lon="6.59066">
        <ele>168</ele>
        <time>2013-09-16T12:08:08.000Z</time>
      </trkpt>
      <trkpt lat="43.22227" lon="6.59068">
        <ele>168</ele>
        <time>2013-09-16T12:08:09.000Z</time>
      </trkpt>
      <trkpt lat="43.22227" lon="6.5907">
        <ele>168</ele>
        <time>2013-09-16T12:08:10.000Z</time>
      </trkpt>
      <trkpt lat="43.22227" lon="6.59072">
        <ele>168</ele>
        <time>2013-09-16T12:08:11.000Z</time>
      </trkpt>
      <trkpt lat="43.22227" lon="6.59074">
        <ele>168</ele>
        <time>2013-09-16T12:08:12.000Z</time>
      </trkpt>
      <trkpt lat="43.22228" lon="6.59077">
        <ele>168</ele>
        <time>2013-09-16T12:08:13.000Z</time>
      </trkpt>
      <trkpt lat="43.22228" lon="6.59079">
        <ele>168</ele>
        <time>2013-09-16T12:08:14.000Z</time>
      </trkpt>
      <trkpt lat="43.22228" lon="6.59082">
        <ele>167</ele>
        <time>2013-09-16T12:08:15.000Z</time>
      </trkpt>
      <trkpt lat="43.22228" lon="6.59084">
        <ele>167</ele>
        <time>2013-09-16T12:08:16.000Z</time>
      </trkpt>
      <trkpt lat="43.22229" lon="6.59086">
        <ele>167</ele>
        <time>2013-09-16T12:08:17.000Z</time>
      </trkpt>
      <trkpt lat="43.22229" lon="6.59088">
        <ele>167</ele>
        <time>2013-09-16T12:08:18.000Z</time>
      </trkpt>
      <trkpt lat="43.22229" lon="6.59092">
        <ele>167</ele>
        <time>2013-09-16T12:08:20.000Z</time>
      </trkpt>
      <trkpt lat="43.22229" lon="6.59094">
        <ele>167</ele>
        <time>2013-09-16T12:08:21.000Z</time>
      </trkpt>
      <trkpt lat="43.22229" lon="6.591">
        <ele>167</ele>
        <time>2013-09-16T12:08:24.000Z</time>
      </trkpt>
      <trkpt lat="43.22229" lon="6.59102">
        <ele>168</ele>
        <time>2013-09-16T12:08:25.000Z</time>
      </trkpt>
      <trkpt lat="43.22229" lon="6.59104">
        <ele>168</ele>
        <time>2013-09-16T12:08:26.000Z</time>
      </trkpt>
      <trkpt lat="43.22229" lon="6.59106">
        <ele>168</ele>
        <time>2013-09-16T12:08:27.000Z</time>
      </trkpt>
      <trkpt lat="43.22228" lon="6.59107">
        <ele>168</ele>
        <time>2013-09-16T12:08:28.000Z</time>
      </trkpt>
      <trkpt lat="43.22228" lon="6.59109">
        <ele>168</ele>
        <time>2013-09-16T12:08:29.000Z</time>
      </trkpt>
      <trkpt lat="43.22228" lon="6.59113">
        <ele>168</ele>
        <time>2013-09-16T12:08:31.000Z</time>
      </trkpt>
      <trkpt lat="43.22227" lon="6.59115">
        <ele>168</ele>
        <time>2013-09-16T12:08:32.000Z</time>
      </trkpt>
      <trkpt lat="43.22227" lon="6.59117">
        <ele>168</ele>
        <time>2013-09-16T12:08:33.000Z</time>
      </trkpt>
      <trkpt lat="43.22226" lon="6.59119">
        <ele>168</ele>
        <time>2013-09-16T12:08:34.000Z</time>
      </trkpt>
      <trkpt lat="43.22226" lon="6.59121">
        <ele>168</ele>
        <time>2013-09-16T12:08:35.000Z</time>
      </trkpt>
      <trkpt lat="43.22225" lon="6.59122">
        <ele>168</ele>
        <time>2013-09-16T12:08:36.000Z</time>
      </trkpt>
      <trkpt lat="43.22224" lon="6.59124">
        <ele>168</ele>
        <time>2013-09-16T12:08:37.000Z</time>
      </trkpt>
      <trkpt lat="43.22223" lon="6.59125">
        <ele>168</ele>
        <time>2013-09-16T12:08:38.000Z</time>
      </trkpt>
      <trkpt lat="43.22222" lon="6.59127">
        <ele>168</ele>
        <time>2013-09-16T12:08:39.000Z</time>
      </trkpt>
      <trkpt lat="43.22221" lon="6.59128">
        <ele>168</ele>
        <time>2013-09-16T12:08:40.000Z</time>
      </trkpt>
      <trkpt lat="43.22221" lon="6.5913">
        <ele>169</ele>
        <time>2013-09-16T12:08:41.000Z</time>
      </trkpt>
      <trkpt lat="43.2222" lon="6.59131">
        <ele>169</ele>
        <time>2013-09-16T12:08:42.000Z</time>
      </trkpt>
      <trkpt lat="43.22219" lon="6.59133">
        <ele>169</ele>
        <time>2013-09-16T12:08:43.000Z</time>
      </trkpt>
      <trkpt lat="43.22218" lon="6.59134">
        <ele>169</ele>
        <time>2013-09-16T12:08:44.000Z</time>
      </trkpt>
      <trkpt lat="43.22218" lon="6.59136">
        <ele>169</ele>
        <time>2013-09-16T12:08:45.000Z</time>
      </trkpt>
      <trkpt lat="43.22217" lon="6.59137">
        <ele>169</ele>
        <time>2013-09-16T12:08:46.000Z</time>
      </trkpt>
      <trkpt lat="43.22216" lon="6.59138">
        <ele>169</ele>
        <time>2013-09-16T12:08:47.000Z</time>
      </trkpt>
      <trkpt lat="43.22215" lon="6.59139">
        <ele>169</ele>
        <time>2013-09-16T12:08:48.000Z</time>
      </trkpt>
      <trkpt lat="43.22214" lon="6.59141">
        <ele>169</ele>
        <time>2013-09-16T12:08:49.000Z</time>
      </trkpt>
      <trkpt lat="43.22213" lon="6.59142">
        <ele>169</ele>
        <time>2013-09-16T12:08:50.000Z</time>
      </trkpt>
      <trkpt lat="43.22212" lon="6.59144">
        <ele>169</ele>
        <time>2013-09-16T12:08:51.000Z</time>
      </trkpt>
      <trkpt lat="43.22211" lon="6.59145">
        <ele>170</ele>
        <time>2013-09-16T12:08:52.000Z</time>
      </trkpt>
      <trkpt lat="43.22211" lon="6.59146">
        <ele>170</ele>
        <time>2013-09-16T12:08:53.000Z</time>
      </trkpt>
      <trkpt lat="43.2221" lon="6.59147">
        <ele>170</ele>
        <time>2013-09-16T12:08:54.000Z</time>
      </trkpt>
      <trkpt lat="43.22209" lon="6.59148">
        <ele>170</ele>
        <time>2013-09-16T12:08:55.000Z</time>
      </trkpt>
      <trkpt lat="43.22208" lon="6.59149">
        <ele>170</ele>
        <time>2013-09-16T12:08:56.000Z</time>
      </trkpt>
      <trkpt lat="43.22206" lon="6.5915">
        <ele>170</ele>
        <time>2013-09-16T12:08:57.000Z</time>
      </trkpt>
      <trkpt lat="43.22204" lon="6.59151">
        <ele>171</ele>
        <time>2013-09-16T12:08:58.000Z</time>
      </trkpt>
      <trkpt lat="43.22203" lon="6.59152">
        <ele>171</ele>
        <time>2013-09-16T12:08:59.000Z</time>
      </trkpt>
      <trkpt lat="43.22201" lon="6.59152">
        <ele>171</ele>
        <time>2013-09-16T12:09:00.000Z</time>
      </trkpt>
      <trkpt lat="43.222" lon="6.59153">
        <ele>172</ele>
        <time>2013-09-16T12:09:01.000Z</time>
      </trkpt>
      <trkpt lat="43.22199" lon="6.59154">
        <ele>172</ele>
        <time>2013-09-16T12:09:02.000Z</time>
      </trkpt>
      <trkpt lat="43.22197" lon="6.59154">
        <ele>172</ele>
        <time>2013-09-16T12:09:03.000Z</time>
      </trkpt>
      <trkpt lat="43.22196" lon="6.59155">
        <ele>172</ele>
        <time>2013-09-16T12:09:04.000Z</time>
      </trkpt>
      <trkpt lat="43.22195" lon="6.59156">
        <ele>173</ele>
        <time>2013-09-16T12:09:05.000Z</time>
      </trkpt>
      <trkpt lat="43.22194" lon="6.59156">
        <ele>173</ele>
        <time>2013-09-16T12:09:06.000Z</time>
      </trkpt>
      <trkpt lat="43.22194" lon="6.59157">
        <ele>173</ele>
        <time>2013-09-16T12:09:07.000Z</time>
      </trkpt>
      <trkpt lat="43.22193" lon="6.59158">
        <ele>173</ele>
        <time>2013-09-16T12:09:08.000Z</time>
      </trkpt>
      <trkpt lat="43.22192" lon="6.59159">
        <ele>173</ele>
        <time>2013-09-16T12:09:09.000Z</time>
      </trkpt>
      <trkpt lat="43.22191" lon="6.5916">
        <ele>174</ele>
        <time>2013-09-16T12:09:10.000Z</time>
      </trkpt>
      <trkpt lat="43.2219" lon="6.59161">
        <ele>174</ele>
        <time>2013-09-16T12:09:11.000Z</time>
      </trkpt>
      <trkpt lat="43.22189" lon="6.59162">
        <ele>174</ele>
        <time>2013-09-16T12:09:12.000Z</time>
      </trkpt>
      <trkpt lat="43.22187" lon="6.59162">
        <ele>175</ele>
        <time>2013-09-16T12:09:13.000Z</time>
      </trkpt>
      <trkpt lat="43.22186" lon="6.59163">
        <ele>175</ele>
        <time>2013-09-16T12:09:14.000Z</time>
      </trkpt>
      <trkpt lat="43.22185" lon="6.59164">
        <ele>175</ele>
        <time>2013-09-16T12:09:15.000Z</time>
      </trkpt>
      <trkpt lat="43.22185" lon="6.59165">
        <ele>176</ele>
        <time>2013-09-16T12:09:16.000Z</time>
      </trkpt>
      <trkpt lat="43.22183" lon="6.59166">
        <ele>176</ele>
        <time>2013-09-16T12:09:17.000Z</time>
      </trkpt>
      <trkpt lat="43.22182" lon="6.59167">
        <ele>174</ele>
        <time>2013-09-16T12:09:18.000Z</time>
      </trkpt>
      <trkpt lat="43.22181" lon="6.59168">
        <ele>175</ele>
        <time>2013-09-16T12:09:19.000Z</time>
      </trkpt>
      <trkpt lat="43.2218" lon="6.59169">
        <ele>175</ele>
        <time>2013-09-16T12:09:20.000Z</time>
      </trkpt>
      <trkpt lat="43.22179" lon="6.59169">
        <ele>175</ele>
        <time>2013-09-16T12:09:21.000Z</time>
      </trkpt>
      <trkpt lat="43.22178" lon="6.5917">
        <ele>176</ele>
        <time>2013-09-16T12:09:22.000Z</time>
      </trkpt>
      <trkpt lat="43.22177" lon="6.59171">
        <ele>176</ele>
        <time>2013-09-16T12:09:23.000Z</time>
      </trkpt>
      <trkpt lat="43.22176" lon="6.59173">
        <ele>176</ele>
        <time>2013-09-16T12:09:24.000Z</time>
      </trkpt>
      <trkpt lat="43.22175" lon="6.59174">
        <ele>176</ele>
        <time>2013-09-16T12:09:25.000Z</time>
      </trkpt>
      <trkpt lat="43.22174" lon="6.59175">
        <ele>176</ele>
        <time>2013-09-16T12:09:26.000Z</time>
      </trkpt>
      <trkpt lat="43.22172" lon="6.59175">
        <ele>176</ele>
        <time>2013-09-16T12:09:27.000Z</time>
      </trkpt>
      <trkpt lat="43.22171" lon="6.59176">
        <ele>176</ele>
        <time>2013-09-16T12:09:28.000Z</time>
      </trkpt>
      <trkpt lat="43.2217" lon="6.59177">
        <ele>176</ele>
        <time>2013-09-16T12:09:29.000Z</time>
      </trkpt>
      <trkpt lat="43.22169" lon="6.59178">
        <ele>176</ele>
        <time>2013-09-16T12:09:30.000Z</time>
      </trkpt>
      <trkpt lat="43.22167" lon="6.59179">
        <ele>176</ele>
        <time>2013-09-16T12:09:31.000Z</time>
      </trkpt>
      <trkpt lat="43.22166" lon="6.5918">
        <ele>184</ele>
        <time>2013-09-16T12:09:32.000Z</time>
      </trkpt>
      <trkpt lat="43.22166" lon="6.59181">
        <ele>184</ele>
        <time>2013-09-16T12:09:33.000Z</time>
      </trkpt>
      <trkpt lat="43.22164" lon="6.59182">
        <ele>184</ele>
        <time>2013-09-16T12:09:34.000Z</time>
      </trkpt>
      <trkpt lat="43.22162" lon="6.59183">
        <ele>184</ele>
        <time>2013-09-16T12:09:35.000Z</time>
      </trkpt>
      <trkpt lat="43.22161" lon="6.59184">
        <ele>184</ele>
        <time>2013-09-16T12:09:36.000Z</time>
      </trkpt>
      <trkpt lat="43.22159" lon="6.59185">
        <ele>185</ele>
        <time>2013-09-16T12:09:37.000Z</time>
      </trkpt>
      <trkpt lat="43.22158" lon="6.59186">
        <ele>185</ele>
        <time>2013-09-16T12:09:38.000Z</time>
      </trkpt>
      <trkpt lat="43.22157" lon="6.59186">
        <ele>185</ele>
        <time>2013-09-16T12:09:39.000Z</time>
      </trkpt>
      <trkpt lat="43.22156" lon="6.59187">
        <ele>185</ele>
        <time>2013-09-16T12:09:40.000Z</time>
      </trkpt>
      <trkpt lat="43.22155" lon="6.59188">
        <ele>185</ele>
        <time>2013-09-16T12:09:41.000Z</time>
      </trkpt>
      <trkpt lat="43.22153" lon="6.59189">
        <ele>185</ele>
        <time>2013-09-16T12:09:42.000Z</time>
      </trkpt>
      <trkpt lat="43.22152" lon="6.59191">
        <ele>185</ele>
        <time>2013-09-16T12:09:43.000Z</time>
      </trkpt>
      <trkpt lat="43.22151" lon="6.59192">
        <ele>185</ele>
        <time>2013-09-16T12:09:44.000Z</time>
      </trkpt>
      <trkpt lat="43.2215" lon="6.59193">
        <ele>185</ele>
        <time>2013-09-16T12:09:45.000Z</time>
      </trkpt>
      <trkpt lat="43.22149" lon="6.59194">
        <ele>185</ele>
        <time>2013-09-16T12:09:46.000Z</time>
      </trkpt>
      <trkpt lat="43.22148" lon="6.59195">
        <ele>186</ele>
        <time>2013-09-16T12:09:47.000Z</time>
      </trkpt>
      <trkpt lat="43.22146" lon="6.59196">
        <ele>186</ele>
        <time>2013-09-16T12:09:48.000Z</time>
      </trkpt>
      <trkpt lat="43.22145" lon="6.59197">
        <ele>186</ele>
        <time>2013-09-16T12:09:49.000Z</time>
      </trkpt>
      <trkpt lat="43.22144" lon="6.59198">
        <ele>186</ele>
        <time>2013-09-16T12:09:50.000Z</time>
      </trkpt>
      <trkpt lat="43.22143" lon="6.59199">
        <ele>186</ele>
        <time>2013-09-16T12:09:51.000Z</time>
      </trkpt>
      <trkpt lat="43.22142" lon="6.592">
        <ele>186</ele>
        <time>2013-09-16T12:09:52.000Z</time>
      </trkpt>
      <trkpt lat="43.22141" lon="6.59201">
        <ele>186</ele>
        <time>2013-09-16T12:09:53.000Z</time>
      </trkpt>
      <trkpt lat="43.22141" lon="6.59201">
        <ele>186</ele>
        <time>2013-09-16T12:09:54.000Z</time>
      </trkpt>
      <trkpt lat="43.2214" lon="6.59202">
        <ele>186</ele>
        <time>2013-09-16T12:09:55.000Z</time>
      </trkpt>
      <trkpt lat="43.22139" lon="6.59203">
        <ele>186</ele>
        <time>2013-09-16T12:09:56.000Z</time>
      </trkpt>
      <trkpt lat="43.22138" lon="6.59205">
        <ele>186</ele>
        <time>2013-09-16T12:09:57.000Z</time>
      </trkpt>
      <trkpt lat="43.22137" lon="6.59206">
        <ele>186</ele>
        <time>2013-09-16T12:09:58.000Z</time>
      </trkpt>
      <trkpt lat="43.22136" lon="6.59207">
        <ele>186</ele>
        <time>2013-09-16T12:09:59.000Z</time>
      </trkpt>
      <trkpt lat="43.22135" lon="6.59208">
        <ele>186</ele>
        <time>2013-09-16T12:10:00.000Z</time>
      </trkpt>
      <trkpt lat="43.22135" lon="6.59209">
        <ele>186</ele>
        <time>2013-09-16T12:10:01.000Z</time>
      </trkpt>
      <trkpt lat="43.22133" lon="6.5921">
        <ele>186</ele>
        <time>2013-09-16T12:10:02.000Z</time>
      </trkpt>
      <trkpt lat="43.22133" lon="6.59211">
        <ele>186</ele>
        <time>2013-09-16T12:10:03.000Z</time>
      </trkpt>
      <trkpt lat="43.22132" lon="6.59212">
        <ele>186</ele>
        <time>2013-09-16T12:10:04.000Z</time>
      </trkpt>
      <trkpt lat="43.22132" lon="6.59214">
        <ele>186</ele>
        <time>2013-09-16T12:10:05.000Z</time>
      </trkpt>
      <trkpt lat="43.22131" lon="6.59215">
        <ele>186</ele>
        <time>2013-09-16T12:10:06.000Z</time>
      </trkpt>
      <trkpt lat="43.22131" lon="6.59216">
        <ele>186</ele>
        <time>2013-09-16T12:10:07.000Z</time>
      </trkpt>
      <trkpt lat="43.2213" lon="6.59217">
        <ele>187</ele>
        <time>2013-09-16T12:10:08.000Z</time>
      </trkpt>
      <trkpt lat="43.22129" lon="6.59218">
        <ele>187</ele>
        <time>2013-09-16T12:10:09.000Z</time>
      </trkpt>
      <trkpt lat="43.22128" lon="6.59219">
        <ele>187</ele>
        <time>2013-09-16T12:10:10.000Z</time>
      </trkpt>
      <trkpt lat="43.22128" lon="6.5922">
        <ele>187</ele>
        <time>2013-09-16T12:10:11.000Z</time>
      </trkpt>
      <trkpt lat="43.22128" lon="6.59221">
        <ele>187</ele>
        <time>2013-09-16T12:10:12.000Z</time>
      </trkpt>
      <trkpt lat="43.22127" lon="6.59222">
        <ele>187</ele>
        <time>2013-09-16T12:10:13.000Z</time>
      </trkpt>
      <trkpt lat="43.22126" lon="6.59223">
        <ele>187</ele>
        <time>2013-09-16T12:10:14.000Z</time>
      </trkpt>
      <trkpt lat="43.22126" lon="6.59224">
        <ele>187</ele>
        <time>2013-09-16T12:10:15.000Z</time>
      </trkpt>
      <trkpt lat="43.22125" lon="6.59225">
        <ele>187</ele>
        <time>2013-09-16T12:10:16.000Z</time>
      </trkpt>
      <trkpt lat="43.22124" lon="6.59226">
        <ele>187</ele>
        <time>2013-09-16T12:10:17.000Z</time>
      </trkpt>
      <trkpt lat="43.22123" lon="6.59227">
        <ele>187</ele>
        <time>2013-09-16T12:10:18.000Z</time>
      </trkpt>
      <trkpt lat="43.22121" lon="6.59228">
        <ele>187</ele>
        <time>2013-09-16T12:10:19.000Z</time>
      </trkpt>
      <trkpt lat="43.2212" lon="6.59229">
        <ele>187</ele>
        <time>2013-09-16T12:10:20.000Z</time>
      </trkpt>
      <trkpt lat="43.22119" lon="6.5923">
        <ele>187</ele>
        <time>2013-09-16T12:10:21.000Z</time>
      </trkpt>
      <trkpt lat="43.22118" lon="6.59232">
        <ele>188</ele>
        <time>2013-09-16T12:10:22.000Z</time>
      </trkpt>
      <trkpt lat="43.22117" lon="6.59233">
        <ele>188</ele>
        <time>2013-09-16T12:10:23.000Z</time>
      </trkpt>
      <trkpt lat="43.22116" lon="6.59234">
        <ele>188</ele>
        <time>2013-09-16T12:10:24.000Z</time>
      </trkpt>
      <trkpt lat="43.22114" lon="6.59235">
        <ele>188</ele>
        <time>2013-09-16T12:10:25.000Z</time>
      </trkpt>
      <trkpt lat="43.22113" lon="6.59236">
        <ele>188</ele>
        <time>2013-09-16T12:10:26.000Z</time>
      </trkpt>
      <trkpt lat="43.22112" lon="6.59237">
        <ele>188</ele>
        <time>2013-09-16T12:10:27.000Z</time>
      </trkpt>
      <trkpt lat="43.22111" lon="6.59238">
        <ele>188</ele>
        <time>2013-09-16T12:10:28.000Z</time>
      </trkpt>
      <trkpt lat="43.2211" lon="6.59239">
        <ele>188</ele>
        <time>2013-09-16T12:10:29.000Z</time>
      </trkpt>
      <trkpt lat="43.2211" lon="6.59239">
        <ele>188</ele>
        <time>2013-09-16T12:10:30.000Z</time>
      </trkpt>
      <trkpt lat="43.22109" lon="6.5924">
        <ele>189</ele>
        <time>2013-09-16T12:10:31.000Z</time>
      </trkpt>
      <trkpt lat="43.22109" lon="6.59241">
        <ele>189</ele>
        <time>2013-09-16T12:10:32.000Z</time>
      </trkpt>
      <trkpt lat="43.22108" lon="6.59242">
        <ele>189</ele>
        <time>2013-09-16T12:10:33.000Z</time>
      </trkpt>
      <trkpt lat="43.22107" lon="6.59243">
        <ele>189</ele>
        <time>2013-09-16T12:10:34.000Z</time>
      </trkpt>
      <trkpt lat="43.22106" lon="6.59244">
        <ele>189</ele>
        <time>2013-09-16T12:10:35.000Z</time>
      </trkpt>
      <trkpt lat="43.22105" lon="6.59245">
        <ele>189</ele>
        <time>2013-09-16T12:10:36.000Z</time>
      </trkpt>
      <trkpt lat="43.22104" lon="6.59245">
        <ele>189</ele>
        <time>2013-09-16T12:10:37.000Z</time>
      </trkpt>
      <trkpt lat="43.22103" lon="6.59246">
        <ele>189</ele>
        <time>2013-09-16T12:10:38.000Z</time>
      </trkpt>
      <trkpt lat="43.22102" lon="6.59247">
        <ele>190</ele>
        <time>2013-09-16T12:10:39.000Z</time>
      </trkpt>
      <trkpt lat="43.22101" lon="6.59248">
        <ele>190</ele>
        <time>2013-09-16T12:10:40.000Z</time>
      </trkpt>
      <trkpt lat="43.221" lon="6.59248">
        <ele>190</ele>
        <time>2013-09-16T12:10:41.000Z</time>
      </trkpt>
      <trkpt lat="43.22099" lon="6.59249">
        <ele>190</ele>
        <time>2013-09-16T12:10:42.000Z</time>
      </trkpt>
      <trkpt lat="43.22097" lon="6.5925">
        <ele>190</ele>
        <time>2013-09-16T12:10:43.000Z</time>
      </trkpt>
      <trkpt lat="43.22096" lon="6.59251">
        <ele>190</ele>
        <time>2013-09-16T12:10:44.000Z</time>
      </trkpt>
      <trkpt lat="43.22095" lon="6.59251">
        <ele>191</ele>
        <time>2013-09-16T12:10:45.000Z</time>
      </trkpt>
      <trkpt lat="43.22095" lon="6.59252">
        <ele>191</ele>
        <time>2013-09-16T12:10:46.000Z</time>
      </trkpt>
      <trkpt lat="43.22094" lon="6.59253">
        <ele>191</ele>
        <time>2013-09-16T12:10:47.000Z</time>
      </trkpt>
      <trkpt lat="43.22093" lon="6.59254">
        <ele>191</ele>
        <time>2013-09-16T12:10:48.000Z</time>
      </trkpt>
      <trkpt lat="43.22092" lon="6.59255">
        <ele>191</ele>
        <time>2013-09-16T12:10:49.000Z</time>
      </trkpt>
      <trkpt lat="43.22091" lon="6.59255">
        <ele>191</ele>
        <time>2013-09-16T12:10:50.000Z</time>
      </trkpt>
      <trkpt lat="43.2209" lon="6.59256">
        <ele>191</ele>
        <time>2013-09-16T12:10:51.000Z</time>
      </trkpt>
      <trkpt lat="43.22089" lon="6.59257">
        <ele>191</ele>
        <time>2013-09-16T12:10:52.000Z</time>
      </trkpt>
      <trkpt lat="43.22088" lon="6.59258">
        <ele>191</ele>
        <time>2013-09-16T12:10:53.000Z</time>
      </trkpt>
      <trkpt lat="43.22087" lon="6.59259">
        <ele>191</ele>
        <time>2013-09-16T12:10:54.000Z</time>
      </trkpt>
      <trkpt lat="43.22086" lon="6.5926">
        <ele>191</ele>
        <time>2013-09-16T12:10:55.000Z</time>
      </trkpt>
      <trkpt lat="43.22085" lon="6.59261">
        <ele>191</ele>
        <time>2013-09-16T12:10:56.000Z</time>
      </trkpt>
      <trkpt lat="43.22085" lon="6.59262">
        <ele>191</ele>
        <time>2013-09-16T12:10:57.000Z</time>
      </trkpt>
      <trkpt lat="43.22084" lon="6.59263">
        <ele>191</ele>
        <time>2013-09-16T12:10:58.000Z</time>
      </trkpt>
      <trkpt lat="43.22083" lon="6.59264">
        <ele>192</ele>
        <time>2013-09-16T12:10:59.000Z</time>
      </trkpt>
      <trkpt lat="43.22082" lon="6.59265">
        <ele>192</ele>
        <time>2013-09-16T12:11:00.000Z</time>
      </trkpt>
      <trkpt lat="43.22082" lon="6.59266">
        <ele>192</ele>
        <time>2013-09-16T12:11:01.000Z</time>
      </trkpt>
      <trkpt lat="43.22081" lon="6.59267">
        <ele>192</ele>
        <time>2013-09-16T12:11:02.000Z</time>
      </trkpt>
      <trkpt lat="43.2208" lon="6.59268">
        <ele>192</ele>
        <time>2013-09-16T12:11:03.000Z</time>
      </trkpt>
      <trkpt lat="43.22079" lon="6.59269">
        <ele>192</ele>
        <time>2013-09-16T12:11:04.000Z</time>
      </trkpt>
      <trkpt lat="43.22077" lon="6.5927">
        <ele>191</ele>
        <time>2013-09-16T12:11:05.000Z</time>
      </trkpt>
      <trkpt lat="43.22076" lon="6.59271">
        <ele>191</ele>
        <time>2013-09-16T12:11:06.000Z</time>
      </trkpt>
      <trkpt lat="43.22074" lon="6.59272">
        <ele>191</ele>
        <time>2013-09-16T12:11:07.000Z</time>
      </trkpt>
      <trkpt lat="43.22073" lon="6.59273">
        <ele>191</ele>
        <time>2013-09-16T12:11:08.000Z</time>
      </trkpt>
      <trkpt lat="43.22071" lon="6.59274">
        <ele>191</ele>
        <time>2013-09-16T12:11:09.000Z</time>
      </trkpt>
      <trkpt lat="43.2207" lon="6.59275">
        <ele>191</ele>
        <time>2013-09-16T12:11:10.000Z</time>
      </trkpt>
      <trkpt lat="43.22068" lon="6.59276">
        <ele>191</ele>
        <time>2013-09-16T12:11:11.000Z</time>
      </trkpt>
      <trkpt lat="43.22067" lon="6.59277">
        <ele>191</ele>
        <time>2013-09-16T12:11:12.000Z</time>
      </trkpt>
      <trkpt lat="43.22066" lon="6.59278">
        <ele>191</ele>
        <time>2013-09-16T12:11:13.000Z</time>
      </trkpt>
      <trkpt lat="43.22065" lon="6.59279">
        <ele>191</ele>
        <time>2013-09-16T12:11:14.000Z</time>
      </trkpt>
      <trkpt lat="43.22064" lon="6.5928">
        <ele>191</ele>
        <time>2013-09-16T12:11:15.000Z</time>
      </trkpt>
      <trkpt lat="43.22062" lon="6.59282">
        <ele>191</ele>
        <time>2013-09-16T12:11:16.000Z</time>
      </trkpt>
      <trkpt lat="43.2206" lon="6.59283">
        <ele>191</ele>
        <time>2013-09-16T12:11:17.000Z</time>
      </trkpt>
      <trkpt lat="43.22058" lon="6.59285">
        <ele>191</ele>
        <time>2013-09-16T12:11:18.000Z</time>
      </trkpt>
      <trkpt lat="43.22056" lon="6.59287">
        <ele>191</ele>
        <time>2013-09-16T12:11:19.000Z</time>
      </trkpt>
      <trkpt lat="43.22055" lon="6.59289">
        <ele>190</ele>
        <time>2013-09-16T12:11:20.000Z</time>
      </trkpt>
      <trkpt lat="43.22053" lon="6.59292">
        <ele>190</ele>
        <time>2013-09-16T12:11:21.000Z</time>
      </trkpt>
      <trkpt lat="43.22051" lon="6.59294">
        <ele>190</ele>
        <time>2013-09-16T12:11:22.000Z</time>
      </trkpt>
      <trkpt lat="43.22049" lon="6.59297">
        <ele>190</ele>
        <time>2013-09-16T12:11:23.000Z</time>
      </trkpt>
      <trkpt lat="43.22047" lon="6.593">
        <ele>190</ele>
        <time>2013-09-16T12:11:24.000Z</time>
      </trkpt>
      <trkpt lat="43.22046" lon="6.59302">
        <ele>190</ele>
        <time>2013-09-16T12:11:25.000Z</time>
      </trkpt>
      <trkpt lat="43.22045" lon="6.59305">
        <ele>190</ele>
        <time>2013-09-16T12:11:26.000Z</time>
      </trkpt>
      <trkpt lat="43.22043" lon="6.59308">
        <ele>190</ele>
        <time>2013-09-16T12:11:27.000Z</time>
      </trkpt>
      <trkpt lat="43.22042" lon="6.5931">
        <ele>190</ele>
        <time>2013-09-16T12:11:28.000Z</time>
      </trkpt>
      <trkpt lat="43.2204" lon="6.59313">
        <ele>190</ele>
        <time>2013-09-16T12:11:29.000Z</time>
      </trkpt>
      <trkpt lat="43.22039" lon="6.59316">
        <ele>190</ele>
        <time>2013-09-16T12:11:30.000Z</time>
      </trkpt>
      <trkpt lat="43.22037" lon="6.59318">
        <ele>190</ele>
        <time>2013-09-16T12:11:31.000Z</time>
      </trkpt>
      <trkpt lat="43.22036" lon="6.59321">
        <ele>190</ele>
        <time>2013-09-16T12:11:32.000Z</time>
      </trkpt>
      <trkpt lat="43.22035" lon="6.59323">
        <ele>190</ele>
        <time>2013-09-16T12:11:33.000Z</time>
      </trkpt>
      <trkpt lat="43.22034" lon="6.59326">
        <ele>190</ele>
        <time>2013-09-16T12:11:34.000Z</time>
      </trkpt>
      <trkpt lat="43.22032" lon="6.59328">
        <ele>189</ele>
        <time>2013-09-16T12:11:35.000Z</time>
      </trkpt>
      <trkpt lat="43.22032" lon="6.59331">
        <ele>189</ele>
        <time>2013-09-16T12:11:36.000Z</time>
      </trkpt>
      <trkpt lat="43.22031" lon="6.59335">
        <ele>192</ele>
        <time>2013-09-16T12:11:37.000Z</time>
      </trkpt>
      <trkpt lat="43.22031" lon="6.59341">
        <ele>192</ele>
        <time>2013-09-16T12:11:39.000Z</time>
      </trkpt>
      <trkpt lat="43.22031" lon="6.59344">
        <ele>192</ele>
        <time>2013-09-16T12:11:40.000Z</time>
      </trkpt>
      <trkpt lat="43.22031" lon="6.5935">
        <ele>193</ele>
        <time>2013-09-16T12:11:42.000Z</time>
      </trkpt>
      <trkpt lat="43.22031" lon="6.59357">
        <ele>193</ele>
        <time>2013-09-16T12:11:44.000Z</time>
      </trkpt>
      <trkpt lat="43.22032" lon="6.5936">
        <ele>193</ele>
        <time>2013-09-16T12:11:45.000Z</time>
      </trkpt>
      <trkpt lat="43.22032" lon="6.59364">
        <ele>193</ele>
        <time>2013-09-16T12:11:46.000Z</time>
      </trkpt>
      <trkpt lat="43.22033" lon="6.59368">
        <ele>193</ele>
        <time>2013-09-16T12:11:47.000Z</time>
      </trkpt>
      <trkpt lat="43.22033" lon="6.59372">
        <ele>194</ele>
        <time>2013-09-16T12:11:48.000Z</time>
      </trkpt>
      <trkpt lat="43.22034" lon="6.59376">
        <ele>194</ele>
        <time>2013-09-16T12:11:49.000Z</time>
      </trkpt>
      <trkpt lat="43.22035" lon="6.59381">
        <ele>194</ele>
        <time>2013-09-16T12:11:50.000Z</time>
      </trkpt>
      <trkpt lat="43.22036" lon="6.59386">
        <ele>194</ele>
        <time>2013-09-16T12:11:51.000Z</time>
      </trkpt>
      <trkpt lat="43.22037" lon="6.59391">
        <ele>194</ele>
        <time>2013-09-16T12:11:52.000Z</time>
      </trkpt>
      <trkpt lat="43.22038" lon="6.59396">
        <ele>195</ele>
        <time>2013-09-16T12:11:53.000Z</time>
      </trkpt>
      <trkpt lat="43.22039" lon="6.59402">
        <ele>195</ele>
        <time>2013-09-16T12:11:54.000Z</time>
      </trkpt>
      <trkpt lat="43.2204" lon="6.59407">
        <ele>195</ele>
        <time>2013-09-16T12:11:55.000Z</time>
      </trkpt>
      <trkpt lat="43.22041" lon="6.59413">
        <ele>195</ele>
        <time>2013-09-16T12:11:56.000Z</time>
      </trkpt>
      <trkpt lat="43.22042" lon="6.59419">
        <ele>199</ele>
        <time>2013-09-16T12:11:57.000Z</time>
      </trkpt>
      <trkpt lat="43.22042" lon="6.59425">
        <ele>199</ele>
        <time>2013-09-16T12:11:58.000Z</time>
      </trkpt>
      <trkpt lat="43.22043" lon="6.59431">
        <ele>199</ele>
        <time>2013-09-16T12:11:59.000Z</time>
      </trkpt>
      <trkpt lat="43.22044" lon="6.59436">
        <ele>200</ele>
        <time>2013-09-16T12:12:00.000Z</time>
      </trkpt>
      <trkpt lat="43.22044" lon="6.59441">
        <ele>200</ele>
        <time>2013-09-16T12:12:01.000Z</time>
      </trkpt>
      <trkpt lat="43.22043" lon="6.59446">
        <ele>200</ele>
        <time>2013-09-16T12:12:02.000Z</time>
      </trkpt>
      <trkpt lat="43.22041" lon="6.5945">
        <ele>200</ele>
        <time>2013-09-16T12:12:03.000Z</time>
      </trkpt>
      <trkpt lat="43.22039" lon="6.59454">
        <ele>200</ele>
        <time>2013-09-16T12:12:04.000Z</time>
      </trkpt>
      <trkpt lat="43.22037" lon="6.59456">
        <ele>200</ele>
        <time>2013-09-16T12:12:05.000Z</time>
      </trkpt>
      <trkpt lat="43.22035" lon="6.59458">
        <ele>200</ele>
        <time>2013-09-16T12:12:06.000Z</time>
      </trkpt>
      <trkpt lat="43.22033" lon="6.59459">
        <ele>200</ele>
        <time>2013-09-16T12:12:07.000Z</time>
      </trkpt>
      <trkpt lat="43.22031" lon="6.59459">
        <ele>200</ele>
        <time>2013-09-16T12:12:08.000Z</time>
      </trkpt>
      <trkpt lat="43.22029" lon="6.5946">
        <ele>200</ele>
        <time>2013-09-16T12:12:09.000Z</time>
      </trkpt>
      <trkpt lat="43.22027" lon="6.5946">
        <ele>200</ele>
        <time>2013-09-16T12:12:10.000Z</time>
      </trkpt>
      <trkpt lat="43.22026" lon="6.5946">
        <ele>200</ele>
        <time>2013-09-16T12:12:11.000Z</time>
      </trkpt>
      <trkpt lat="43.22024" lon="6.5946">
        <ele>200</ele>
        <time>2013-09-16T12:12:12.000Z</time>
      </trkpt>
      <trkpt lat="43.22023" lon="6.59461">
        <ele>200</ele>
        <time>2013-09-16T12:12:13.000Z</time>
      </trkpt>
      <trkpt lat="43.22021" lon="6.5946">
        <ele>200</ele>
        <time>2013-09-16T12:12:14.000Z</time>
      </trkpt>
      <trkpt lat="43.22018" lon="6.59461">
        <ele>200</ele>
        <time>2013-09-16T12:12:16.000Z</time>
      </trkpt>
      <trkpt lat="43.22012" lon="6.59461">
        <ele>200</ele>
        <time>2013-09-16T12:12:21.000Z</time>
      </trkpt>
      <trkpt lat="43.2201" lon="6.59461">
        <ele>200</ele>
        <time>2013-09-16T12:12:22.000Z</time>
      </trkpt>
      <trkpt lat="43.22009" lon="6.59461">
        <ele>200</ele>
        <time>2013-09-16T12:12:23.000Z</time>
      </trkpt>
      <trkpt lat="43.22006" lon="6.5946">
        <ele>200</ele>
        <time>2013-09-16T12:12:25.000Z</time>
      </trkpt>
      <trkpt lat="43.22005" lon="6.5946">
        <ele>200</ele>
        <time>2013-09-16T12:12:26.000Z</time>
      </trkpt>
      <trkpt lat="43.22003" lon="6.5946">
        <ele>200</ele>
        <time>2013-09-16T12:12:27.000Z</time>
      </trkpt>
      <trkpt lat="43.22001" lon="6.5946">
        <ele>200</ele>
        <time>2013-09-16T12:12:29.000Z</time>
      </trkpt>
      <trkpt lat="43.21999" lon="6.59459">
        <ele>197</ele>
        <time>2013-09-16T12:12:30.000Z</time>
      </trkpt>
      <trkpt lat="43.21998" lon="6.59459">
        <ele>197</ele>
        <time>2013-09-16T12:12:31.000Z</time>
      </trkpt>
      <trkpt lat="43.21995" lon="6.59459">
        <ele>197</ele>
        <time>2013-09-16T12:12:33.000Z</time>
      </trkpt>
      <trkpt lat="43.21993" lon="6.59459">
        <ele>197</ele>
        <time>2013-09-16T12:12:34.000Z</time>
      </trkpt>
      <trkpt lat="43.2199" lon="6.59459">
        <ele>197</ele>
        <time>2013-09-16T12:12:36.000Z</time>
      </trkpt>
      <trkpt lat="43.21985" lon="6.59459">
        <ele>197</ele>
        <time>2013-09-16T12:12:39.000Z</time>
      </trkpt>
      <trkpt lat="43.21981" lon="6.59459">
        <ele>197</ele>
        <time>2013-09-16T12:12:41.000Z</time>
      </trkpt>
      <trkpt lat="43.2198" lon="6.5946">
        <ele>197</ele>
        <time>2013-09-16T12:12:42.000Z</time>
      </trkpt>
      <trkpt lat="43.21979" lon="6.59461">
        <ele>197</ele>
        <time>2013-09-16T12:12:43.000Z</time>
      </trkpt>
      <trkpt lat="43.21977" lon="6.59462">
        <ele>197</ele>
        <time>2013-09-16T12:12:44.000Z</time>
      </trkpt>
      <trkpt lat="43.21976" lon="6.59463">
        <ele>197</ele>
        <time>2013-09-16T12:12:45.000Z</time>
      </trkpt>
      <trkpt lat="43.21974" lon="6.59464">
        <ele>197</ele>
        <time>2013-09-16T12:12:46.000Z</time>
      </trkpt>
      <trkpt lat="43.21973" lon="6.59465">
        <ele>197</ele>
        <time>2013-09-16T12:12:47.000Z</time>
      </trkpt>
      <trkpt lat="43.21972" lon="6.59466">
        <ele>197</ele>
        <time>2013-09-16T12:12:48.000Z</time>
      </trkpt>
      <trkpt lat="43.2197" lon="6.59467">
        <ele>197</ele>
        <time>2013-09-16T12:12:49.000Z</time>
      </trkpt>
      <trkpt lat="43.21969" lon="6.59468">
        <ele>197</ele>
        <time>2013-09-16T12:12:50.000Z</time>
      </trkpt>
      <trkpt lat="43.21967" lon="6.59469">
        <ele>197</ele>
        <time>2013-09-16T12:12:51.000Z</time>
      </trkpt>
      <trkpt lat="43.21966" lon="6.59471">
        <ele>197</ele>
        <time>2013-09-16T12:12:52.000Z</time>
      </trkpt>
      <trkpt lat="43.21965" lon="6.59472">
        <ele>197</ele>
        <time>2013-09-16T12:12:53.000Z</time>
      </trkpt>
      <trkpt lat="43.21963" lon="6.59474">
        <ele>197</ele>
        <time>2013-09-16T12:12:54.000Z</time>
      </trkpt>
      <trkpt lat="43.21962" lon="6.59476">
        <ele>197</ele>
        <time>2013-09-16T12:12:55.000Z</time>
      </trkpt>
      <trkpt lat="43.2196" lon="6.59477">
        <ele>197</ele>
        <time>2013-09-16T12:12:56.000Z</time>
      </trkpt>
      <trkpt lat="43.21959" lon="6.59479">
        <ele>198</ele>
        <time>2013-09-16T12:12:57.000Z</time>
      </trkpt>
      <trkpt lat="43.21957" lon="6.5948">
        <ele>198</ele>
        <time>2013-09-16T12:12:58.000Z</time>
      </trkpt>
      <trkpt lat="43.21956" lon="6.59482">
        <ele>198</ele>
        <time>2013-09-16T12:12:59.000Z</time>
      </trkpt>
      <trkpt lat="43.21955" lon="6.59484">
        <ele>198</ele>
        <time>2013-09-16T12:13:00.000Z</time>
      </trkpt>
      <trkpt lat="43.21953" lon="6.59485">
        <ele>198</ele>
        <time>2013-09-16T12:13:01.000Z</time>
      </trkpt>
      <trkpt lat="43.21952" lon="6.59487">
        <ele>198</ele>
        <time>2013-09-16T12:13:02.000Z</time>
      </trkpt>
      <trkpt lat="43.21951" lon="6.59488">
        <ele>198</ele>
        <time>2013-09-16T12:13:03.000Z</time>
      </trkpt>
      <trkpt lat="43.2195" lon="6.5949">
        <ele>198</ele>
        <time>2013-09-16T12:13:04.000Z</time>
      </trkpt>
      <trkpt lat="43.21949" lon="6.59491">
        <ele>198</ele>
        <time>2013-09-16T12:13:05.000Z</time>
      </trkpt>
      <trkpt lat="43.21948" lon="6.59492">
        <ele>198</ele>
        <time>2013-09-16T12:13:06.000Z</time>
      </trkpt>
      <trkpt lat="43.21947" lon="6.59494">
        <ele>198</ele>
        <time>2013-09-16T12:13:07.000Z</time>
      </trkpt>
      <trkpt lat="43.21945" lon="6.59494">
        <ele>198</ele>
        <time>2013-09-16T12:13:08.000Z</time>
      </trkpt>
      <trkpt lat="43.21945" lon="6.59496">
        <ele>198</ele>
        <time>2013-09-16T12:13:09.000Z</time>
      </trkpt>
      <trkpt lat="43.21943" lon="6.59497">
        <ele>198</ele>
        <time>2013-09-16T12:13:10.000Z</time>
      </trkpt>
      <trkpt lat="43.21942" lon="6.59498">
        <ele>198</ele>
        <time>2013-09-16T12:13:11.000Z</time>
      </trkpt>
      <trkpt lat="43.21941" lon="6.59499">
        <ele>198</ele>
        <time>2013-09-16T12:13:12.000Z</time>
      </trkpt>
      <trkpt lat="43.21939" lon="6.595">
        <ele>207</ele>
        <time>2013-09-16T12:13:13.000Z</time>
      </trkpt>
      <trkpt lat="43.21938" lon="6.59502">
        <ele>206</ele>
        <time>2013-09-16T12:13:14.000Z</time>
      </trkpt>
      <trkpt lat="43.21937" lon="6.59503">
        <ele>206</ele>
        <time>2013-09-16T12:13:15.000Z</time>
      </trkpt>
      <trkpt lat="43.21936" lon="6.59505">
        <ele>206</ele>
        <time>2013-09-16T12:13:16.000Z</time>
      </trkpt>
      <trkpt lat="43.21935" lon="6.59506">
        <ele>206</ele>
        <time>2013-09-16T12:13:17.000Z</time>
      </trkpt>
      <trkpt lat="43.21934" lon="6.59507">
        <ele>206</ele>
        <time>2013-09-16T12:13:18.000Z</time>
      </trkpt>
      <trkpt lat="43.21933" lon="6.59508">
        <ele>206</ele>
        <time>2013-09-16T12:13:19.000Z</time>
      </trkpt>
      <trkpt lat="43.21932" lon="6.59509">
        <ele>206</ele>
        <time>2013-09-16T12:13:20.000Z</time>
      </trkpt>
      <trkpt lat="43.21931" lon="6.59511">
        <ele>206</ele>
        <time>2013-09-16T12:13:21.000Z</time>
      </trkpt>
      <trkpt lat="43.2193" lon="6.59512">
        <ele>206</ele>
        <time>2013-09-16T12:13:22.000Z</time>
      </trkpt>
      <trkpt lat="43.21929" lon="6.59513">
        <ele>206</ele>
        <time>2013-09-16T12:13:23.000Z</time>
      </trkpt>
      <trkpt lat="43.21927" lon="6.59514">
        <ele>206</ele>
        <time>2013-09-16T12:13:24.000Z</time>
      </trkpt>
      <trkpt lat="43.21926" lon="6.59515">
        <ele>206</ele>
        <time>2013-09-16T12:13:25.000Z</time>
      </trkpt>
      <trkpt lat="43.21925" lon="6.59516">
        <ele>206</ele>
        <time>2013-09-16T12:13:26.000Z</time>
      </trkpt>
      <trkpt lat="43.21924" lon="6.59517">
        <ele>207</ele>
        <time>2013-09-16T12:13:27.000Z</time>
      </trkpt>
      <trkpt lat="43.21923" lon="6.59518">
        <ele>207</ele>
        <time>2013-09-16T12:13:28.000Z</time>
      </trkpt>
      <trkpt lat="43.21922" lon="6.59519">
        <ele>207</ele>
        <time>2013-09-16T12:13:29.000Z</time>
      </trkpt>
      <trkpt lat="43.21921" lon="6.59521">
        <ele>207</ele>
        <time>2013-09-16T12:13:30.000Z</time>
      </trkpt>
      <trkpt lat="43.2192" lon="6.59522">
        <ele>207</ele>
        <time>2013-09-16T12:13:31.000Z</time>
      </trkpt>
      <trkpt lat="43.21918" lon="6.59523">
        <ele>208</ele>
        <time>2013-09-16T12:13:32.000Z</time>
      </trkpt>
      <trkpt lat="43.21917" lon="6.59524">
        <ele>208</ele>
        <time>2013-09-16T12:13:33.000Z</time>
      </trkpt>
      <trkpt lat="43.21916" lon="6.59525">
        <ele>203</ele>
        <time>2013-09-16T12:13:34.000Z</time>
      </trkpt>
      <trkpt lat="43.21915" lon="6.59527">
        <ele>204</ele>
        <time>2013-09-16T12:13:35.000Z</time>
      </trkpt>
      <trkpt lat="43.21914" lon="6.59528">
        <ele>204</ele>
        <time>2013-09-16T12:13:36.000Z</time>
      </trkpt>
      <trkpt lat="43.21912" lon="6.59529">
        <ele>204</ele>
        <time>2013-09-16T12:13:37.000Z</time>
      </trkpt>
      <trkpt lat="43.21911" lon="6.5953">
        <ele>204</ele>
        <time>2013-09-16T12:13:38.000Z</time>
      </trkpt>
      <trkpt lat="43.2191" lon="6.59531">
        <ele>204</ele>
        <time>2013-09-16T12:13:39.000Z</time>
      </trkpt>
      <trkpt lat="43.21908" lon="6.59532">
        <ele>204</ele>
        <time>2013-09-16T12:13:40.000Z</time>
      </trkpt>
      <trkpt lat="43.21907" lon="6.59533">
        <ele>204</ele>
        <time>2013-09-16T12:13:41.000Z</time>
      </trkpt>
      <trkpt lat="43.21906" lon="6.59535">
        <ele>204</ele>
        <time>2013-09-16T12:13:42.000Z</time>
      </trkpt>
      <trkpt lat="43.21904" lon="6.59535">
        <ele>204</ele>
        <time>2013-09-16T12:13:43.000Z</time>
      </trkpt>
      <trkpt lat="43.21903" lon="6.59537">
        <ele>204</ele>
        <time>2013-09-16T12:13:44.000Z</time>
      </trkpt>
      <trkpt lat="43.21902" lon="6.59538">
        <ele>205</ele>
        <time>2013-09-16T12:13:45.000Z</time>
      </trkpt>
      <trkpt lat="43.21901" lon="6.59539">
        <ele>205</ele>
        <time>2013-09-16T12:13:46.000Z</time>
      </trkpt>
      <trkpt lat="43.219" lon="6.5954">
        <ele>205</ele>
        <time>2013-09-16T12:13:47.000Z</time>
      </trkpt>
      <trkpt lat="43.21899" lon="6.59541">
        <ele>205</ele>
        <time>2013-09-16T12:13:48.000Z</time>
      </trkpt>
      <trkpt lat="43.21898" lon="6.59542">
        <ele>205</ele>
        <time>2013-09-16T12:13:49.000Z</time>
      </trkpt>
      <trkpt lat="43.21896" lon="6.59543">
        <ele>205</ele>
        <time>2013-09-16T12:13:50.000Z</time>
      </trkpt>
      <trkpt lat="43.21895" lon="6.59544">
        <ele>205</ele>
        <time>2013-09-16T12:13:51.000Z</time>
      </trkpt>
      <trkpt lat="43.21893" lon="6.59544">
        <ele>205</ele>
        <time>2013-09-16T12:13:52.000Z</time>
      </trkpt>
      <trkpt lat="43.21891" lon="6.59545">
        <ele>205</ele>
        <time>2013-09-16T12:13:53.000Z</time>
      </trkpt>
      <trkpt lat="43.2189" lon="6.59546">
        <ele>205</ele>
        <time>2013-09-16T12:13:54.000Z</time>
      </trkpt>
      <trkpt lat="43.21889" lon="6.59547">
        <ele>205</ele>
        <time>2013-09-16T12:13:55.000Z</time>
      </trkpt>
      <trkpt lat="43.21887" lon="6.59547">
        <ele>205</ele>
        <time>2013-09-16T12:13:56.000Z</time>
      </trkpt>
      <trkpt lat="43.21886" lon="6.59548">
        <ele>205</ele>
        <time>2013-09-16T12:13:57.000Z</time>
      </trkpt>
      <trkpt lat="43.21885" lon="6.5955">
        <ele>205</ele>
        <time>2013-09-16T12:13:58.000Z</time>
      </trkpt>
      <trkpt lat="43.21884" lon="6.59551">
        <ele>205</ele>
        <time>2013-09-16T12:13:59.000Z</time>
      </trkpt>
      <trkpt lat="43.21882" lon="6.59552">
        <ele>205</ele>
        <time>2013-09-16T12:14:00.000Z</time>
      </trkpt>
      <trkpt lat="43.21881" lon="6.59553">
        <ele>205</ele>
        <time>2013-09-16T12:14:01.000Z</time>
      </trkpt>
      <trkpt lat="43.2188" lon="6.59554">
        <ele>205</ele>
        <time>2013-09-16T12:14:02.000Z</time>
      </trkpt>
      <trkpt lat="43.21879" lon="6.59555">
        <ele>205</ele>
        <time>2013-09-16T12:14:03.000Z</time>
      </trkpt>
      <trkpt lat="43.21878" lon="6.59556">
        <ele>205</ele>
        <time>2013-09-16T12:14:04.000Z</time>
      </trkpt>
      <trkpt lat="43.21876" lon="6.59557">
        <ele>205</ele>
        <time>2013-09-16T12:14:05.000Z</time>
      </trkpt>
      <trkpt lat="43.21875" lon="6.59558">
        <ele>205</ele>
        <time>2013-09-16T12:14:06.000Z</time>
      </trkpt>
      <trkpt lat="43.21874" lon="6.59559">
        <ele>205</ele>
        <time>2013-09-16T12:14:07.000Z</time>
      </trkpt>
      <trkpt lat="43.21873" lon="6.5956">
        <ele>205</ele>
        <time>2013-09-16T12:14:08.000Z</time>
      </trkpt>
      <trkpt lat="43.21872" lon="6.59561">
        <ele>205</ele>
        <time>2013-09-16T12:14:09.000Z</time>
      </trkpt>
      <trkpt lat="43.21871" lon="6.59562">
        <ele>205</ele>
        <time>2013-09-16T12:14:10.000Z</time>
      </trkpt>
      <trkpt lat="43.2187" lon="6.59563">
        <ele>205</ele>
        <time>2013-09-16T12:14:11.000Z</time>
      </trkpt>
      <trkpt lat="43.21869" lon="6.59564">
        <ele>204</ele>
        <time>2013-09-16T12:14:12.000Z</time>
      </trkpt>
      <trkpt lat="43.21868" lon="6.59565">
        <ele>204</ele>
        <time>2013-09-16T12:14:13.000Z</time>
      </trkpt>
      <trkpt lat="43.21867" lon="6.59567">
        <ele>204</ele>
        <time>2013-09-16T12:14:14.000Z</time>
      </trkpt>
      <trkpt lat="43.21867" lon="6.59568">
        <ele>205</ele>
        <time>2013-09-16T12:14:15.000Z</time>
      </trkpt>
      <trkpt lat="43.21865" lon="6.59569">
        <ele>204</ele>
        <time>2013-09-16T12:14:16.000Z</time>
      </trkpt>
      <trkpt lat="43.21864" lon="6.5957">
        <ele>204</ele>
        <time>2013-09-16T12:14:17.000Z</time>
      </trkpt>
      <trkpt lat="43.21863" lon="6.59571">
        <ele>204</ele>
        <time>2013-09-16T12:14:18.000Z</time>
      </trkpt>
      <trkpt lat="43.21862" lon="6.59572">
        <ele>204</ele>
        <time>2013-09-16T12:14:19.000Z</time>
      </trkpt>
      <trkpt lat="43.21861" lon="6.59574">
        <ele>204</ele>
        <time>2013-09-16T12:14:20.000Z</time>
      </trkpt>
      <trkpt lat="43.2186" lon="6.59575">
        <ele>204</ele>
        <time>2013-09-16T12:14:21.000Z</time>
      </trkpt>
      <trkpt lat="43.21859" lon="6.59577">
        <ele>204</ele>
        <time>2013-09-16T12:14:22.000Z</time>
      </trkpt>
      <trkpt lat="43.21858" lon="6.59578">
        <ele>204</ele>
        <time>2013-09-16T12:14:23.000Z</time>
      </trkpt>
      <trkpt lat="43.21857" lon="6.59579">
        <ele>204</ele>
        <time>2013-09-16T12:14:24.000Z</time>
      </trkpt>
      <trkpt lat="43.21856" lon="6.59581">
        <ele>204</ele>
        <time>2013-09-16T12:14:25.000Z</time>
      </trkpt>
      <trkpt lat="43.21855" lon="6.59582">
        <ele>204</ele>
        <time>2013-09-16T12:14:26.000Z</time>
      </trkpt>
      <trkpt lat="43.21855" lon="6.59584">
        <ele>212</ele>
        <time>2013-09-16T12:14:27.000Z</time>
      </trkpt>
      <trkpt lat="43.21854" lon="6.59585">
        <ele>212</ele>
        <time>2013-09-16T12:14:28.000Z</time>
      </trkpt>
      <trkpt lat="43.21853" lon="6.59587">
        <ele>212</ele>
        <time>2013-09-16T12:14:29.000Z</time>
      </trkpt>
      <trkpt lat="43.21852" lon="6.59588">
        <ele>212</ele>
        <time>2013-09-16T12:14:30.000Z</time>
      </trkpt>
      <trkpt lat="43.21852" lon="6.5959">
        <ele>212</ele>
        <time>2013-09-16T12:14:31.000Z</time>
      </trkpt>
      <trkpt lat="43.21852" lon="6.59592">
        <ele>212</ele>
        <time>2013-09-16T12:14:32.000Z</time>
      </trkpt>
      <trkpt lat="43.21851" lon="6.59594">
        <ele>212</ele>
        <time>2013-09-16T12:14:33.000Z</time>
      </trkpt>
      <trkpt lat="43.2185" lon="6.59595">
        <ele>212</ele>
        <time>2013-09-16T12:14:34.000Z</time>
      </trkpt>
      <trkpt lat="43.2185" lon="6.59597">
        <ele>213</ele>
        <time>2013-09-16T12:14:35.000Z</time>
      </trkpt>
      <trkpt lat="43.21849" lon="6.59599">
        <ele>213</ele>
        <time>2013-09-16T12:14:36.000Z</time>
      </trkpt>
      <trkpt lat="43.21849" lon="6.59601">
        <ele>213</ele>
        <time>2013-09-16T12:14:37.000Z</time>
      </trkpt>
      <trkpt lat="43.21848" lon="6.59603">
        <ele>213</ele>
        <time>2013-09-16T12:14:38.000Z</time>
      </trkpt>
      <trkpt lat="43.21848" lon="6.59605">
        <ele>213</ele>
        <time>2013-09-16T12:14:39.000Z</time>
      </trkpt>
      <trkpt lat="43.21847" lon="6.59607">
        <ele>214</ele>
        <time>2013-09-16T12:14:40.000Z</time>
      </trkpt>
      <trkpt lat="43.21847" lon="6.59609">
        <ele>214</ele>
        <time>2013-09-16T12:14:41.000Z</time>
      </trkpt>
      <trkpt lat="43.21847" lon="6.59611">
        <ele>214</ele>
        <time>2013-09-16T12:14:42.000Z</time>
      </trkpt>
      <trkpt lat="43.21846" lon="6.59612">
        <ele>214</ele>
        <time>2013-09-16T12:14:43.000Z</time>
      </trkpt>
      <trkpt lat="43.21846" lon="6.59614">
        <ele>215</ele>
        <time>2013-09-16T12:14:44.000Z</time>
      </trkpt>
      <trkpt lat="43.21846" lon="6.59618">
        <ele>215</ele>
        <time>2013-09-16T12:14:46.000Z</time>
      </trkpt>
      <trkpt lat="43.21845" lon="6.5962">
        <ele>215</ele>
        <time>2013-09-16T12:14:47.000Z</time>
      </trkpt>
      <trkpt lat="43.21845" lon="6.59622">
        <ele>216</ele>
        <time>2013-09-16T12:14:48.000Z</time>
      </trkpt>
      <trkpt lat="43.21844" lon="6.59625">
        <ele>216</ele>
        <time>2013-09-16T12:14:49.000Z</time>
      </trkpt>
      <trkpt lat="43.21844" lon="6.59627">
        <ele>216</ele>
        <time>2013-09-16T12:14:50.000Z</time>
      </trkpt>
      <trkpt lat="43.21843" lon="6.5963">
        <ele>216</ele>
        <time>2013-09-16T12:14:51.000Z</time>
      </trkpt>
      <trkpt lat="43.21843" lon="6.59632">
        <ele>216</ele>
        <time>2013-09-16T12:14:52.000Z</time>
      </trkpt>
      <trkpt lat="43.21842" lon="6.59634">
        <ele>217</ele>
        <time>2013-09-16T12:14:53.000Z</time>
      </trkpt>
      <trkpt lat="43.21842" lon="6.59636">
        <ele>217</ele>
        <time>2013-09-16T12:14:54.000Z</time>
      </trkpt>
      <trkpt lat="43.21842" lon="6.59638">
        <ele>217</ele>
        <time>2013-09-16T12:14:55.000Z</time>
      </trkpt>
      <trkpt lat="43.21841" lon="6.5964">
        <ele>217</ele>
        <time>2013-09-16T12:14:56.000Z</time>
      </trkpt>
      <trkpt lat="43.21841" lon="6.59642">
        <ele>217</ele>
        <time>2013-09-16T12:14:57.000Z</time>
      </trkpt>
      <trkpt lat="43.2184" lon="6.59644">
        <ele>217</ele>
        <time>2013-09-16T12:14:58.000Z</time>
      </trkpt>
      <trkpt lat="43.2184" lon="6.59646">
        <ele>217</ele>
        <time>2013-09-16T12:14:59.000Z</time>
      </trkpt>
      <trkpt lat="43.2184" lon="6.59648">
        <ele>217</ele>
        <time>2013-09-16T12:15:00.000Z</time>
      </trkpt>
      <trkpt lat="43.21839" lon="6.59651">
        <ele>217</ele>
        <time>2013-09-16T12:15:01.000Z</time>
      </trkpt>
      <trkpt lat="43.21838" lon="6.59654">
        <ele>217</ele>
        <time>2013-09-16T12:15:02.000Z</time>
      </trkpt>
      <trkpt lat="43.21838" lon="6.59657">
        <ele>217</ele>
        <time>2013-09-16T12:15:03.000Z</time>
      </trkpt>
      <trkpt lat="43.21837" lon="6.59659">
        <ele>217</ele>
        <time>2013-09-16T12:15:04.000Z</time>
      </trkpt>
      <trkpt lat="43.21837" lon="6.59662">
        <ele>217</ele>
        <time>2013-09-16T12:15:05.000Z</time>
      </trkpt>
      <trkpt lat="43.21836" lon="6.59665">
        <ele>216</ele>
        <time>2013-09-16T12:15:06.000Z</time>
      </trkpt>
      <trkpt lat="43.21835" lon="6.59667">
        <ele>217</ele>
        <time>2013-09-16T12:15:07.000Z</time>
      </trkpt>
      <trkpt lat="43.21835" lon="6.5967">
        <ele>218</ele>
        <time>2013-09-16T12:15:08.000Z</time>
      </trkpt>
      <trkpt lat="43.21834" lon="6.59673">
        <ele>219</ele>
        <time>2013-09-16T12:15:09.000Z</time>
      </trkpt>
      <trkpt lat="43.21834" lon="6.59676">
        <ele>221</ele>
        <time>2013-09-16T12:15:10.000Z</time>
      </trkpt>
      <trkpt lat="43.21833" lon="6.59679">
        <ele>217</ele>
        <time>2013-09-16T12:15:11.000Z</time>
      </trkpt>
      <trkpt lat="43.21832" lon="6.59682">
        <ele>217</ele>
        <time>2013-09-16T12:15:12.000Z</time>
      </trkpt>
      <trkpt lat="43.21832" lon="6.59685">
        <ele>217</ele>
        <time>2013-09-16T12:15:13.000Z</time>
      </trkpt>
      <trkpt lat="43.21831" lon="6.59688">
        <ele>218</ele>
        <time>2013-09-16T12:15:14.000Z</time>
      </trkpt>
      <trkpt lat="43.2183" lon="6.5969">
        <ele>218</ele>
        <time>2013-09-16T12:15:15.000Z</time>
      </trkpt>
      <trkpt lat="43.21829" lon="6.59693">
        <ele>218</ele>
        <time>2013-09-16T12:15:16.000Z</time>
      </trkpt>
      <trkpt lat="43.21829" lon="6.59695">
        <ele>218</ele>
        <time>2013-09-16T12:15:17.000Z</time>
      </trkpt>
      <trkpt lat="43.21829" lon="6.59697">
        <ele>219</ele>
        <time>2013-09-16T12:15:18.000Z</time>
      </trkpt>
      <trkpt lat="43.21828" lon="6.59699">
        <ele>219</ele>
        <time>2013-09-16T12:15:19.000Z</time>
      </trkpt>
      <trkpt lat="43.21828" lon="6.59701">
        <ele>219</ele>
        <time>2013-09-16T12:15:20.000Z</time>
      </trkpt>
      <trkpt lat="43.21827" lon="6.59703">
        <ele>219</ele>
        <time>2013-09-16T12:15:21.000Z</time>
      </trkpt>
      <trkpt lat="43.21826" lon="6.59705">
        <ele>219</ele>
        <time>2013-09-16T12:15:22.000Z</time>
      </trkpt>
      <trkpt lat="43.21826" lon="6.59707">
        <ele>219</ele>
        <time>2013-09-16T12:15:23.000Z</time>
      </trkpt>
      <trkpt lat="43.21825" lon="6.59708">
        <ele>220</ele>
        <time>2013-09-16T12:15:24.000Z</time>
      </trkpt>
      <trkpt lat="43.21824" lon="6.5971">
        <ele>220</ele>
        <time>2013-09-16T12:15:25.000Z</time>
      </trkpt>
      <trkpt lat="43.21824" lon="6.59712">
        <ele>220</ele>
        <time>2013-09-16T12:15:26.000Z</time>
      </trkpt>
      <trkpt lat="43.21823" lon="6.59714">
        <ele>220</ele>
        <time>2013-09-16T12:15:27.000Z</time>
      </trkpt>
      <trkpt lat="43.21822" lon="6.59715">
        <ele>220</ele>
        <time>2013-09-16T12:15:28.000Z</time>
      </trkpt>
      <trkpt lat="43.21821" lon="6.59717">
        <ele>221</ele>
        <time>2013-09-16T12:15:29.000Z</time>
      </trkpt>
      <trkpt lat="43.21821" lon="6.59719">
        <ele>221</ele>
        <time>2013-09-16T12:15:30.000Z</time>
      </trkpt>
      <trkpt lat="43.2182" lon="6.59721">
        <ele>221</ele>
        <time>2013-09-16T12:15:31.000Z</time>
      </trkpt>
      <trkpt lat="43.21819" lon="6.59722">
        <ele>221</ele>
        <time>2013-09-16T12:15:32.000Z</time>
      </trkpt>
      <trkpt lat="43.21819" lon="6.59724">
        <ele>221</ele>
        <time>2013-09-16T12:15:33.000Z</time>
      </trkpt>
      <trkpt lat="43.21818" lon="6.59725">
        <ele>222</ele>
        <time>2013-09-16T12:15:34.000Z</time>
      </trkpt>
      <trkpt lat="43.21818" lon="6.59727">
        <ele>222</ele>
        <time>2013-09-16T12:15:35.000Z</time>
      </trkpt>
      <trkpt lat="43.21817" lon="6.59729">
        <ele>222</ele>
        <time>2013-09-16T12:15:36.000Z</time>
      </trkpt>
      <trkpt lat="43.21817" lon="6.5973">
        <ele>222</ele>
        <time>2013-09-16T12:15:37.000Z</time>
      </trkpt>
      <trkpt lat="43.21817" lon="6.59732">
        <ele>222</ele>
        <time>2013-09-16T12:15:38.000Z</time>
      </trkpt>
      <trkpt lat="43.21816" lon="6.59733">
        <ele>223</ele>
        <time>2013-09-16T12:15:39.000Z</time>
      </trkpt>
      <trkpt lat="43.21816" lon="6.59734">
        <ele>223</ele>
        <time>2013-09-16T12:15:40.000Z</time>
      </trkpt>
      <trkpt lat="43.21815" lon="6.59736">
        <ele>223</ele>
        <time>2013-09-16T12:15:41.000Z</time>
      </trkpt>
      <trkpt lat="43.21815" lon="6.59737">
        <ele>223</ele>
        <time>2013-09-16T12:15:42.000Z</time>
      </trkpt>
      <trkpt lat="43.21814" lon="6.59738">
        <ele>223</ele>
        <time>2013-09-16T12:15:43.000Z</time>
      </trkpt>
      <trkpt lat="43.21813" lon="6.59739">
        <ele>223</ele>
        <time>2013-09-16T12:15:44.000Z</time>
      </trkpt>
      <trkpt lat="43.21812" lon="6.5974">
        <ele>223</ele>
        <time>2013-09-16T12:15:45.000Z</time>
      </trkpt>
      <trkpt lat="43.21812" lon="6.59741">
        <ele>223</ele>
        <time>2013-09-16T12:15:46.000Z</time>
      </trkpt>
      <trkpt lat="43.21811" lon="6.59742">
        <ele>223</ele>
        <time>2013-09-16T12:15:47.000Z</time>
      </trkpt>
      <trkpt lat="43.2181" lon="6.59743">
        <ele>223</ele>
        <time>2013-09-16T12:15:48.000Z</time>
      </trkpt>
      <trkpt lat="43.21809" lon="6.59744">
        <ele>223</ele>
        <time>2013-09-16T12:15:49.000Z</time>
      </trkpt>
      <trkpt lat="43.21808" lon="6.59745">
        <ele>222</ele>
        <time>2013-09-16T12:15:50.000Z</time>
      </trkpt>
      <trkpt lat="43.21807" lon="6.59746">
        <ele>222</ele>
        <time>2013-09-16T12:15:51.000Z</time>
      </trkpt>
      <trkpt lat="43.21806" lon="6.59747">
        <ele>222</ele>
        <time>2013-09-16T12:15:52.000Z</time>
      </trkpt>
      <trkpt lat="43.21806" lon="6.59748">
        <ele>222</ele>
        <time>2013-09-16T12:15:53.000Z</time>
      </trkpt>
      <trkpt lat="43.21805" lon="6.59749">
        <ele>222</ele>
        <time>2013-09-16T12:15:54.000Z</time>
      </trkpt>
      <trkpt lat="43.21804" lon="6.5975">
        <ele>222</ele>
        <time>2013-09-16T12:15:55.000Z</time>
      </trkpt>
      <trkpt lat="43.21804" lon="6.59751">
        <ele>230</ele>
        <time>2013-09-16T12:15:56.000Z</time>
      </trkpt>
      <trkpt lat="43.21803" lon="6.59752">
        <ele>230</ele>
        <time>2013-09-16T12:15:57.000Z</time>
      </trkpt>
      <trkpt lat="43.21802" lon="6.59752">
        <ele>230</ele>
        <time>2013-09-16T12:15:58.000Z</time>
      </trkpt>
      <trkpt lat="43.21801" lon="6.59753">
        <ele>230</ele>
        <time>2013-09-16T12:15:59.000Z</time>
      </trkpt>
      <trkpt lat="43.218" lon="6.59752">
        <ele>230</ele>
        <time>2013-09-16T12:16:00.000Z</time>
      </trkpt>
      <trkpt lat="43.21799" lon="6.59752">
        <ele>230</ele>
        <time>2013-09-16T12:16:01.000Z</time>
      </trkpt>
      <trkpt lat="43.21798" lon="6.59752">
        <ele>229</ele>
        <time>2013-09-16T12:16:02.000Z</time>
      </trkpt>
      <trkpt lat="43.21796" lon="6.59751">
        <ele>229</ele>
        <time>2013-09-16T12:16:03.000Z</time>
      </trkpt>
      <trkpt lat="43.21795" lon="6.59752">
        <ele>229</ele>
        <time>2013-09-16T12:16:05.000Z</time>
      </trkpt>
      <trkpt lat="43.21794" lon="6.59752">
        <ele>229</ele>
        <time>2013-09-16T12:16:06.000Z</time>
      </trkpt>
      <trkpt lat="43.21793" lon="6.59752">
        <ele>229</ele>
        <time>2013-09-16T12:16:08.000Z</time>
      </trkpt>
      <trkpt lat="43.21793" lon="6.59752">
        <ele>229</ele>
        <time>2013-09-16T12:16:09.000Z</time>
      </trkpt>
      <trkpt lat="43.21792" lon="6.59752">
        <ele>229</ele>
        <time>2013-09-16T12:16:13.000Z</time>
      </trkpt>
      <trkpt lat="43.21791" lon="6.59752">
        <ele>229</ele>
        <time>2013-09-16T12:16:14.000Z</time>
      </trkpt>
      <trkpt lat="43.21791" lon="6.59751">
        <ele>229</ele>
        <time>2013-09-16T12:16:15.000Z</time>
      </trkpt>
      <trkpt lat="43.2179" lon="6.59751">
        <ele>229</ele>
        <time>2013-09-16T12:16:17.000Z</time>
      </trkpt>
      <trkpt lat="43.2179" lon="6.59751">
        <ele>229</ele>
        <time>2013-09-16T12:16:18.000Z</time>
      </trkpt>
      <trkpt lat="43.21789" lon="6.59751">
        <ele>229</ele>
        <time>2013-09-16T12:16:20.000Z</time>
      </trkpt>
      <trkpt lat="43.21789" lon="6.59751">
        <ele>229</ele>
        <time>2013-09-16T12:16:22.000Z</time>
      </trkpt>
      <trkpt lat="43.21788" lon="6.59751">
        <ele>229</ele>
        <time>2013-09-16T12:16:23.000Z</time>
      </trkpt>
      <trkpt lat="43.21788" lon="6.59751">
        <ele>229</ele>
        <time>2013-09-16T12:16:24.000Z</time>
      </trkpt>
      <trkpt lat="43.21788" lon="6.5975">
        <ele>228</ele>
        <time>2013-09-16T12:16:25.000Z</time>
      </trkpt>
      <trkpt lat="43.21787" lon="6.5975">
        <ele>228</ele>
        <time>2013-09-16T12:16:26.000Z</time>
      </trkpt>
      <trkpt lat="43.21787" lon="6.5975">
        <ele>228</ele>
        <time>2013-09-16T12:16:27.000Z</time>
      </trkpt>
      <trkpt lat="43.21786" lon="6.5975">
        <ele>220</ele>
        <time>2013-09-16T12:16:28.000Z</time>
      </trkpt>
      <trkpt lat="43.21786" lon="6.59749">
        <ele>220</ele>
        <time>2013-09-16T12:16:29.000Z</time>
      </trkpt>
      <trkpt lat="43.21785" lon="6.59749">
        <ele>220</ele>
        <time>2013-09-16T12:16:30.000Z</time>
      </trkpt>
      <trkpt lat="43.21785" lon="6.59749">
        <ele>220</ele>
        <time>2013-09-16T12:16:31.000Z</time>
      </trkpt>
      <trkpt lat="43.21784" lon="6.59749">
        <ele>220</ele>
        <time>2013-09-16T12:16:32.000Z</time>
      </trkpt>
      <trkpt lat="43.21784" lon="6.59748">
        <ele>220</ele>
        <time>2013-09-16T12:16:33.000Z</time>
      </trkpt>
      <trkpt lat="43.21783" lon="6.59748">
        <ele>220</ele>
        <time>2013-09-16T12:16:34.000Z</time>
      </trkpt>
      <trkpt lat="43.21783" lon="6.59748">
        <ele>220</ele>
        <time>2013-09-16T12:16:35.000Z</time>
      </trkpt>
      <trkpt lat="43.21783" lon="6.59748">
        <ele>220</ele>
        <time>2013-09-16T12:16:36.000Z</time>
      </trkpt>
      <trkpt lat="43.21782" lon="6.59747">
        <ele>220</ele>
        <time>2013-09-16T12:16:37.000Z</time>
      </trkpt>
      <trkpt lat="43.21782" lon="6.59747">
        <ele>220</ele>
        <time>2013-09-16T12:16:38.000Z</time>
      </trkpt>
      <trkpt lat="43.21781" lon="6.59747">
        <ele>220</ele>
        <time>2013-09-16T12:16:39.000Z</time>
      </trkpt>
      <trkpt lat="43.21781" lon="6.59747">
        <ele>220</ele>
        <time>2013-09-16T12:16:40.000Z</time>
      </trkpt>
      <trkpt lat="43.21781" lon="6.59747">
        <ele>220</ele>
        <time>2013-09-16T12:16:41.000Z</time>
      </trkpt>
      <trkpt lat="43.2178" lon="6.59747">
        <ele>220</ele>
        <time>2013-09-16T12:16:44.000Z</time>
      </trkpt>
      <trkpt lat="43.2178" lon="6.59746">
        <ele>220</ele>
        <time>2013-09-16T12:16:45.000Z</time>
      </trkpt>
      <trkpt lat="43.2178" lon="6.59746">
        <ele>220</ele>
        <time>2013-09-16T12:16:46.000Z</time>
      </trkpt>
      <trkpt lat="43.21779" lon="6.59746">
        <ele>220</ele>
        <time>2013-09-16T12:16:47.000Z</time>
      </trkpt>
      <trkpt lat="43.21778" lon="6.59746">
        <ele>220</ele>
        <time>2013-09-16T12:16:56.000Z</time>
      </trkpt>
      <trkpt lat="43.21777" lon="6.59746">
        <ele>220</ele>
        <time>2013-09-16T12:16:58.000Z</time>
      </trkpt>
      <trkpt lat="43.21777" lon="6.59747">
        <ele>220</ele>
        <time>2013-09-16T12:17:00.000Z</time>
      </trkpt>
      <trkpt lat="43.21777" lon="6.59747">
        <ele>220</ele>
        <time>2013-09-16T12:17:01.000Z</time>
      </trkpt>
      <trkpt lat="43.21777" lon="6.59747">
        <ele>220</ele>
        <time>2013-09-16T12:17:02.000Z</time>
      </trkpt>
      <trkpt lat="43.21778" lon="6.59747">
        <ele>220</ele>
        <time>2013-09-16T12:17:03.000Z</time>
      </trkpt>
      <trkpt lat="43.21778" lon="6.59747">
        <ele>220</ele>
        <time>2013-09-16T12:17:04.000Z</time>
      </trkpt>
      <trkpt lat="43.21778" lon="6.59747">
        <ele>220</ele>
        <time>2013-09-16T12:17:06.000Z</time>
      </trkpt>
      <trkpt lat="43.21778" lon="6.59748">
        <ele>220</ele>
        <time>2013-09-16T12:17:07.000Z</time>
      </trkpt>
      <trkpt lat="43.21779" lon="6.59748">
        <ele>220</ele>
        <time>2013-09-16T12:17:08.000Z</time>
      </trkpt>
      <trkpt lat="43.2178" lon="6.59749">
        <ele>220</ele>
        <time>2013-09-16T12:17:09.000Z</time>
      </trkpt>
      <trkpt lat="43.2178" lon="6.59751">
        <ele>228</ele>
        <time>2013-09-16T12:17:10.000Z</time>
      </trkpt>
      <trkpt lat="43.2178" lon="6.59753">
        <ele>228</ele>
        <time>2013-09-16T12:17:11.000Z</time>
      </trkpt>
      <trkpt lat="43.2178" lon="6.59755">
        <ele>228</ele>
        <time>2013-09-16T12:17:12.000Z</time>
      </trkpt>
      <trkpt lat="43.21779" lon="6.59756">
        <ele>228</ele>
        <time>2013-09-16T12:17:13.000Z</time>
      </trkpt>
      <trkpt lat="43.21778" lon="6.59757">
        <ele>227</ele>
        <time>2013-09-16T12:17:14.000Z</time>
      </trkpt>
      <trkpt lat="43.21777" lon="6.59757">
        <ele>227</ele>
        <time>2013-09-16T12:17:15.000Z</time>
      </trkpt>
      <trkpt lat="43.21776" lon="6.59758">
        <ele>227</ele>
        <time>2013-09-16T12:17:16.000Z</time>
      </trkpt>
      <trkpt lat="43.21775" lon="6.59759">
        <ele>227</ele>
        <time>2013-09-16T12:17:17.000Z</time>
      </trkpt>
      <trkpt lat="43.21774" lon="6.5976">
        <ele>227</ele>
        <time>2013-09-16T12:17:18.000Z</time>
      </trkpt>
      <trkpt lat="43.21773" lon="6.59761">
        <ele>227</ele>
        <time>2013-09-16T12:17:19.000Z</time>
      </trkpt>
      <trkpt lat="43.21772" lon="6.59762">
        <ele>227</ele>
        <time>2013-09-16T12:17:20.000Z</time>
      </trkpt>
      <trkpt lat="43.21772" lon="6.59763">
        <ele>227</ele>
        <time>2013-09-16T12:17:21.000Z</time>
      </trkpt>
      <trkpt lat="43.21771" lon="6.59763">
        <ele>227</ele>
        <time>2013-09-16T12:17:22.000Z</time>
      </trkpt>
      <trkpt lat="43.21771" lon="6.59765">
        <ele>227</ele>
        <time>2013-09-16T12:17:23.000Z</time>
      </trkpt>
      <trkpt lat="43.2177" lon="6.59766">
        <ele>227</ele>
        <time>2013-09-16T12:17:24.000Z</time>
      </trkpt>
      <trkpt lat="43.21769" lon="6.59767">
        <ele>227</ele>
        <time>2013-09-16T12:17:25.000Z</time>
      </trkpt>
      <trkpt lat="43.21769" lon="6.59769">
        <ele>227</ele>
        <time>2013-09-16T12:17:26.000Z</time>
      </trkpt>
      <trkpt lat="43.21768" lon="6.5977">
        <ele>227</ele>
        <time>2013-09-16T12:17:27.000Z</time>
      </trkpt>
      <trkpt lat="43.21768" lon="6.59771">
        <ele>227</ele>
        <time>2013-09-16T12:17:28.000Z</time>
      </trkpt>
      <trkpt lat="43.21767" lon="6.59773">
        <ele>227</ele>
        <time>2013-09-16T12:17:29.000Z</time>
      </trkpt>
      <trkpt lat="43.21767" lon="6.59774">
        <ele>228</ele>
        <time>2013-09-16T12:17:30.000Z</time>
      </trkpt>
      <trkpt lat="43.21766" lon="6.59775">
        <ele>228</ele>
        <time>2013-09-16T12:17:31.000Z</time>
      </trkpt>
      <trkpt lat="43.21765" lon="6.59776">
        <ele>228</ele>
        <time>2013-09-16T12:17:32.000Z</time>
      </trkpt>
      <trkpt lat="43.21764" lon="6.59777">
        <ele>228</ele>
        <time>2013-09-16T12:17:33.000Z</time>
      </trkpt>
      <trkpt lat="43.21764" lon="6.59779">
        <ele>228</ele>
        <time>2013-09-16T12:17:34.000Z</time>
      </trkpt>
      <trkpt lat="43.21764" lon="6.5978">
        <ele>228</ele>
        <time>2013-09-16T12:17:35.000Z</time>
      </trkpt>
      <trkpt lat="43.21763" lon="6.59782">
        <ele>228</ele>
        <time>2013-09-16T12:17:36.000Z</time>
      </trkpt>
      <trkpt lat="43.21763" lon="6.59784">
        <ele>228</ele>
        <time>2013-09-16T12:17:37.000Z</time>
      </trkpt>
      <trkpt lat="43.21763" lon="6.59787">
        <ele>229</ele>
        <time>2013-09-16T12:17:39.000Z</time>
      </trkpt>
      <trkpt lat="43.21764" lon="6.59789">
        <ele>229</ele>
        <time>2013-09-16T12:17:40.000Z</time>
      </trkpt>
      <trkpt lat="43.21763" lon="6.5979">
        <ele>229</ele>
        <time>2013-09-16T12:17:41.000Z</time>
      </trkpt>
      <trkpt lat="43.21763" lon="6.59792">
        <ele>229</ele>
        <time>2013-09-16T12:17:42.000Z</time>
      </trkpt>
      <trkpt lat="43.21763" lon="6.59793">
        <ele>229</ele>
        <time>2013-09-16T12:17:43.000Z</time>
      </trkpt>
      <trkpt lat="43.21762" lon="6.59795">
        <ele>229</ele>
        <time>2013-09-16T12:17:44.000Z</time>
      </trkpt>
      <trkpt lat="43.21762" lon="6.59797">
        <ele>229</ele>
        <time>2013-09-16T12:17:45.000Z</time>
      </trkpt>
      <trkpt lat="43.21761" lon="6.59798">
        <ele>229</ele>
        <time>2013-09-16T12:17:46.000Z</time>
      </trkpt>
      <trkpt lat="43.21761" lon="6.598">
        <ele>229</ele>
        <time>2013-09-16T12:17:47.000Z</time>
      </trkpt>
      <trkpt lat="43.2176" lon="6.59801">
        <ele>229</ele>
        <time>2013-09-16T12:17:48.000Z</time>
      </trkpt>
      <trkpt lat="43.21759" lon="6.59802">
        <ele>229</ele>
        <time>2013-09-16T12:17:49.000Z</time>
      </trkpt>
      <trkpt lat="43.21759" lon="6.59804">
        <ele>230</ele>
        <time>2013-09-16T12:17:50.000Z</time>
      </trkpt>
      <trkpt lat="43.21758" lon="6.59805">
        <ele>230</ele>
        <time>2013-09-16T12:17:51.000Z</time>
      </trkpt>
      <trkpt lat="43.21758" lon="6.59807">
        <ele>230</ele>
        <time>2013-09-16T12:17:52.000Z</time>
      </trkpt>
      <trkpt lat="43.21757" lon="6.59808">
        <ele>230</ele>
        <time>2013-09-16T12:17:53.000Z</time>
      </trkpt>
      <trkpt lat="43.21756" lon="6.5981">
        <ele>230</ele>
        <time>2013-09-16T12:17:54.000Z</time>
      </trkpt>
      <trkpt lat="43.21756" lon="6.59811">
        <ele>230</ele>
        <time>2013-09-16T12:17:55.000Z</time>
      </trkpt>
      <trkpt lat="43.21755" lon="6.59813">
        <ele>230</ele>
        <time>2013-09-16T12:17:56.000Z</time>
      </trkpt>
      <trkpt lat="43.21755" lon="6.59814">
        <ele>229</ele>
        <time>2013-09-16T12:17:57.000Z</time>
      </trkpt>
      <trkpt lat="43.21754" lon="6.59816">
        <ele>229</ele>
        <time>2013-09-16T12:17:58.000Z</time>
      </trkpt>
      <trkpt lat="43.21754" lon="6.59817">
        <ele>229</ele>
        <time>2013-09-16T12:17:59.000Z</time>
      </trkpt>
      <trkpt lat="43.21753" lon="6.59819">
        <ele>229</ele>
        <time>2013-09-16T12:18:00.000Z</time>
      </trkpt>
      <trkpt lat="43.21753" lon="6.5982">
        <ele>229</ele>
        <time>2013-09-16T12:18:01.000Z</time>
      </trkpt>
      <trkpt lat="43.21753" lon="6.59822">
        <ele>229</ele>
        <time>2013-09-16T12:18:02.000Z</time>
      </trkpt>
      <trkpt lat="43.21752" lon="6.59824">
        <ele>229</ele>
        <time>2013-09-16T12:18:03.000Z</time>
      </trkpt>
      <trkpt lat="43.21752" lon="6.59825">
        <ele>229</ele>
        <time>2013-09-16T12:18:04.000Z</time>
      </trkpt>
      <trkpt lat="43.21752" lon="6.59827">
        <ele>229</ele>
        <time>2013-09-16T12:18:05.000Z</time>
      </trkpt>
      <trkpt lat="43.21752" lon="6.59828">
        <ele>229</ele>
        <time>2013-09-16T12:18:06.000Z</time>
      </trkpt>
      <trkpt lat="43.21752" lon="6.5983">
        <ele>229</ele>
        <time>2013-09-16T12:18:07.000Z</time>
      </trkpt>
      <trkpt lat="43.21751" lon="6.59832">
        <ele>228</ele>
        <time>2013-09-16T12:18:09.000Z</time>
      </trkpt>
      <trkpt lat="43.21751" lon="6.59834">
        <ele>228</ele>
        <time>2013-09-16T12:18:10.000Z</time>
      </trkpt>
      <trkpt lat="43.21751" lon="6.59835">
        <ele>229</ele>
        <time>2013-09-16T12:18:11.000Z</time>
      </trkpt>
      <trkpt lat="43.2175" lon="6.59837">
        <ele>229</ele>
        <time>2013-09-16T12:18:12.000Z</time>
      </trkpt>
      <trkpt lat="43.2175" lon="6.59841">
        <ele>231</ele>
        <time>2013-09-16T12:18:15.000Z</time>
      </trkpt>
      <trkpt lat="43.2175" lon="6.59845">
        <ele>232</ele>
        <time>2013-09-16T12:18:17.000Z</time>
      </trkpt>
      <trkpt lat="43.2175" lon="6.5985">
        <ele>233</ele>
        <time>2013-09-16T12:18:20.000Z</time>
      </trkpt>
      <trkpt lat="43.21751" lon="6.59851">
        <ele>233</ele>
        <time>2013-09-16T12:18:21.000Z</time>
      </trkpt>
      <trkpt lat="43.21751" lon="6.59853">
        <ele>234</ele>
        <time>2013-09-16T12:18:22.000Z</time>
      </trkpt>
      <trkpt lat="43.21752" lon="6.59855">
        <ele>234</ele>
        <time>2013-09-16T12:18:23.000Z</time>
      </trkpt>
      <trkpt lat="43.21752" lon="6.59856">
        <ele>234</ele>
        <time>2013-09-16T12:18:24.000Z</time>
      </trkpt>
      <trkpt lat="43.21753" lon="6.59858">
        <ele>234</ele>
        <time>2013-09-16T12:18:25.000Z</time>
      </trkpt>
      <trkpt lat="43.21754" lon="6.59859">
        <ele>234</ele>
        <time>2013-09-16T12:18:26.000Z</time>
      </trkpt>
      <trkpt lat="43.21755" lon="6.5986">
        <ele>235</ele>
        <time>2013-09-16T12:18:27.000Z</time>
      </trkpt>
      <trkpt lat="43.21756" lon="6.59861">
        <ele>235</ele>
        <time>2013-09-16T12:18:28.000Z</time>
      </trkpt>
      <trkpt lat="43.21757" lon="6.59863">
        <ele>235</ele>
        <time>2013-09-16T12:18:29.000Z</time>
      </trkpt>
      <trkpt lat="43.21758" lon="6.59864">
        <ele>235</ele>
        <time>2013-09-16T12:18:30.000Z</time>
      </trkpt>
      <trkpt lat="43.2176" lon="6.59865">
        <ele>235</ele>
        <time>2013-09-16T12:18:31.000Z</time>
      </trkpt>
      <trkpt lat="43.21761" lon="6.59867">
        <ele>236</ele>
        <time>2013-09-16T12:18:32.000Z</time>
      </trkpt>
      <trkpt lat="43.21762" lon="6.59868">
        <ele>236</ele>
        <time>2013-09-16T12:18:33.000Z</time>
      </trkpt>
      <trkpt lat="43.21763" lon="6.59869">
        <ele>236</ele>
        <time>2013-09-16T12:18:34.000Z</time>
      </trkpt>
      <trkpt lat="43.21765" lon="6.5987">
        <ele>236</ele>
        <time>2013-09-16T12:18:35.000Z</time>
      </trkpt>
      <trkpt lat="43.21766" lon="6.59871">
        <ele>236</ele>
        <time>2013-09-16T12:18:36.000Z</time>
      </trkpt>
      <trkpt lat="43.21767" lon="6.59872">
        <ele>236</ele>
        <time>2013-09-16T12:18:37.000Z</time>
      </trkpt>
      <trkpt lat="43.21768" lon="6.59874">
        <ele>237</ele>
        <time>2013-09-16T12:18:38.000Z</time>
      </trkpt>
      <trkpt lat="43.2177" lon="6.59875">
        <ele>237</ele>
        <time>2013-09-16T12:18:39.000Z</time>
      </trkpt>
      <trkpt lat="43.21771" lon="6.59876">
        <ele>237</ele>
        <time>2013-09-16T12:18:40.000Z</time>
      </trkpt>
      <trkpt lat="43.21772" lon="6.59877">
        <ele>237</ele>
        <time>2013-09-16T12:18:41.000Z</time>
      </trkpt>
      <trkpt lat="43.21773" lon="6.59878">
        <ele>237</ele>
        <time>2013-09-16T12:18:42.000Z</time>
      </trkpt>
      <trkpt lat="43.21774" lon="6.59879">
        <ele>237</ele>
        <time>2013-09-16T12:18:43.000Z</time>
      </trkpt>
      <trkpt lat="43.21776" lon="6.59881">
        <ele>237</ele>
        <time>2013-09-16T12:18:44.000Z</time>
      </trkpt>
      <trkpt lat="43.21777" lon="6.59882">
        <ele>238</ele>
        <time>2013-09-16T12:18:45.000Z</time>
      </trkpt>
      <trkpt lat="43.21778" lon="6.59884">
        <ele>238</ele>
        <time>2013-09-16T12:18:46.000Z</time>
      </trkpt>
      <trkpt lat="43.2178" lon="6.59886">
        <ele>238</ele>
        <time>2013-09-16T12:18:47.000Z</time>
      </trkpt>
      <trkpt lat="43.21781" lon="6.59887">
        <ele>238</ele>
        <time>2013-09-16T12:18:48.000Z</time>
      </trkpt>
      <trkpt lat="43.21783" lon="6.59889">
        <ele>238</ele>
        <time>2013-09-16T12:18:49.000Z</time>
      </trkpt>
      <trkpt lat="43.21784" lon="6.59891">
        <ele>239</ele>
        <time>2013-09-16T12:18:50.000Z</time>
      </trkpt>
      <trkpt lat="43.21785" lon="6.59892">
        <ele>239</ele>
        <time>2013-09-16T12:18:51.000Z</time>
      </trkpt>
      <trkpt lat="43.21786" lon="6.59894">
        <ele>239</ele>
        <time>2013-09-16T12:18:52.000Z</time>
      </trkpt>
      <trkpt lat="43.21788" lon="6.59897">
        <ele>239</ele>
        <time>2013-09-16T12:18:53.000Z</time>
      </trkpt>
      <trkpt lat="43.21789" lon="6.599">
        <ele>240</ele>
        <time>2013-09-16T12:18:54.000Z</time>
      </trkpt>
      <trkpt lat="43.2179" lon="6.59903">
        <ele>240</ele>
        <time>2013-09-16T12:18:55.000Z</time>
      </trkpt>
      <trkpt lat="43.21791" lon="6.59906">
        <ele>240</ele>
        <time>2013-09-16T12:18:56.000Z</time>
      </trkpt>
      <trkpt lat="43.21791" lon="6.59909">
        <ele>240</ele>
        <time>2013-09-16T12:18:57.000Z</time>
      </trkpt>
      <trkpt lat="43.21791" lon="6.59915">
        <ele>240</ele>
        <time>2013-09-16T12:18:59.000Z</time>
      </trkpt>
      <trkpt lat="43.21791" lon="6.59917">
        <ele>246</ele>
        <time>2013-09-16T12:19:00.000Z</time>
      </trkpt>
      <trkpt lat="43.2179" lon="6.5992">
        <ele>246</ele>
        <time>2013-09-16T12:19:01.000Z</time>
      </trkpt>
      <trkpt lat="43.21789" lon="6.59923">
        <ele>246</ele>
        <time>2013-09-16T12:19:02.000Z</time>
      </trkpt>
      <trkpt lat="43.21788" lon="6.59926">
        <ele>246</ele>
        <time>2013-09-16T12:19:03.000Z</time>
      </trkpt>
      <trkpt lat="43.21787" lon="6.59928">
        <ele>246</ele>
        <time>2013-09-16T12:19:04.000Z</time>
      </trkpt>
      <trkpt lat="43.21785" lon="6.5993">
        <ele>246</ele>
        <time>2013-09-16T12:19:05.000Z</time>
      </trkpt>
      <trkpt lat="43.21784" lon="6.59933">
        <ele>246</ele>
        <time>2013-09-16T12:19:06.000Z</time>
      </trkpt>
      <trkpt lat="43.21783" lon="6.59935">
        <ele>246</ele>
        <time>2013-09-16T12:19:07.000Z</time>
      </trkpt>
      <trkpt lat="43.21781" lon="6.59937">
        <ele>245</ele>
        <time>2013-09-16T12:19:08.000Z</time>
      </trkpt>
      <trkpt lat="43.2178" lon="6.59939">
        <ele>245</ele>
        <time>2013-09-16T12:19:09.000Z</time>
      </trkpt>
      <trkpt lat="43.21778" lon="6.59941">
        <ele>245</ele>
        <time>2013-09-16T12:19:10.000Z</time>
      </trkpt>
      <trkpt lat="43.21777" lon="6.59943">
        <ele>245</ele>
        <time>2013-09-16T12:19:11.000Z</time>
      </trkpt>
      <trkpt lat="43.21775" lon="6.59945">
        <ele>245</ele>
        <time>2013-09-16T12:19:12.000Z</time>
      </trkpt>
      <trkpt lat="43.21774" lon="6.59947">
        <ele>245</ele>
        <time>2013-09-16T12:19:13.000Z</time>
      </trkpt>
      <trkpt lat="43.21772" lon="6.59949">
        <ele>245</ele>
        <time>2013-09-16T12:19:14.000Z</time>
      </trkpt>
      <trkpt lat="43.21771" lon="6.59951">
        <ele>245</ele>
        <time>2013-09-16T12:19:15.000Z</time>
      </trkpt>
      <trkpt lat="43.21769" lon="6.59953">
        <ele>246</ele>
        <time>2013-09-16T12:19:16.000Z</time>
      </trkpt>
      <trkpt lat="43.21768" lon="6.59955">
        <ele>246</ele>
        <time>2013-09-16T12:19:17.000Z</time>
      </trkpt>
      <trkpt lat="43.21767" lon="6.59957">
        <ele>246</ele>
        <time>2013-09-16T12:19:18.000Z</time>
      </trkpt>
      <trkpt lat="43.21766" lon="6.59959">
        <ele>246</ele>
        <time>2013-09-16T12:19:19.000Z</time>
      </trkpt>
      <trkpt lat="43.21765" lon="6.59961">
        <ele>246</ele>
        <time>2013-09-16T12:19:20.000Z</time>
      </trkpt>
      <trkpt lat="43.21763" lon="6.59963">
        <ele>246</ele>
        <time>2013-09-16T12:19:21.000Z</time>
      </trkpt>
      <trkpt lat="43.21762" lon="6.59964">
        <ele>246</ele>
        <time>2013-09-16T12:19:22.000Z</time>
      </trkpt>
      <trkpt lat="43.2176" lon="6.59966">
        <ele>246</ele>
        <time>2013-09-16T12:19:23.000Z</time>
      </trkpt>
      <trkpt lat="43.21759" lon="6.59967">
        <ele>246</ele>
        <time>2013-09-16T12:19:24.000Z</time>
      </trkpt>
      <trkpt lat="43.21758" lon="6.59969">
        <ele>246</ele>
        <time>2013-09-16T12:19:25.000Z</time>
      </trkpt>
      <trkpt lat="43.21756" lon="6.5997">
        <ele>246</ele>
        <time>2013-09-16T12:19:26.000Z</time>
      </trkpt>
      <trkpt lat="43.21755" lon="6.59972">
        <ele>246</ele>
        <time>2013-09-16T12:19:27.000Z</time>
      </trkpt>
      <trkpt lat="43.21754" lon="6.59974">
        <ele>246</ele>
        <time>2013-09-16T12:19:28.000Z</time>
      </trkpt>
      <trkpt lat="43.21753" lon="6.59976">
        <ele>246</ele>
        <time>2013-09-16T12:19:29.000Z</time>
      </trkpt>
      <trkpt lat="43.21751" lon="6.59978">
        <ele>246</ele>
        <time>2013-09-16T12:19:30.000Z</time>
      </trkpt>
      <trkpt lat="43.2175" lon="6.59979">
        <ele>232</ele>
        <time>2013-09-16T12:19:31.000Z</time>
      </trkpt>
      <trkpt lat="43.21748" lon="6.59981">
        <ele>233</ele>
        <time>2013-09-16T12:19:32.000Z</time>
      </trkpt>
      <trkpt lat="43.21747" lon="6.59983">
        <ele>233</ele>
        <time>2013-09-16T12:19:33.000Z</time>
      </trkpt>
      <trkpt lat="43.21745" lon="6.59986">
        <ele>234</ele>
        <time>2013-09-16T12:19:34.000Z</time>
      </trkpt>
      <trkpt lat="43.21744" lon="6.59988">
        <ele>234</ele>
        <time>2013-09-16T12:19:35.000Z</time>
      </trkpt>
      <trkpt lat="43.21743" lon="6.5999">
        <ele>235</ele>
        <time>2013-09-16T12:19:36.000Z</time>
      </trkpt>
      <trkpt lat="43.21741" lon="6.59991">
        <ele>235</ele>
        <time>2013-09-16T12:19:37.000Z</time>
      </trkpt>
      <trkpt lat="43.2174" lon="6.59993">
        <ele>235</ele>
        <time>2013-09-16T12:19:38.000Z</time>
      </trkpt>
      <trkpt lat="43.21738" lon="6.59995">
        <ele>235</ele>
        <time>2013-09-16T12:19:39.000Z</time>
      </trkpt>
      <trkpt lat="43.21737" lon="6.59997">
        <ele>235</ele>
        <time>2013-09-16T12:19:40.000Z</time>
      </trkpt>
      <trkpt lat="43.21736" lon="6.59999">
        <ele>234</ele>
        <time>2013-09-16T12:19:41.000Z</time>
      </trkpt>
      <trkpt lat="43.21734" lon="6.60001">
        <ele>242</ele>
        <time>2013-09-16T12:19:42.000Z</time>
      </trkpt>
      <trkpt lat="43.21733" lon="6.60002">
        <ele>242</ele>
        <time>2013-09-16T12:19:43.000Z</time>
      </trkpt>
      <trkpt lat="43.21732" lon="6.60004">
        <ele>242</ele>
        <time>2013-09-16T12:19:44.000Z</time>
      </trkpt>
      <trkpt lat="43.2173" lon="6.60006">
        <ele>242</ele>
        <time>2013-09-16T12:19:45.000Z</time>
      </trkpt>
      <trkpt lat="43.21729" lon="6.60008">
        <ele>242</ele>
        <time>2013-09-16T12:19:46.000Z</time>
      </trkpt>
      <trkpt lat="43.21727" lon="6.60009">
        <ele>242</ele>
        <time>2013-09-16T12:19:47.000Z</time>
      </trkpt>
      <trkpt lat="43.21726" lon="6.60011">
        <ele>241</ele>
        <time>2013-09-16T12:19:48.000Z</time>
      </trkpt>
      <trkpt lat="43.21724" lon="6.60013">
        <ele>241</ele>
        <time>2013-09-16T12:19:49.000Z</time>
      </trkpt>
      <trkpt lat="43.21723" lon="6.60015">
        <ele>241</ele>
        <time>2013-09-16T12:19:50.000Z</time>
      </trkpt>
      <trkpt lat="43.21722" lon="6.60017">
        <ele>241</ele>
        <time>2013-09-16T12:19:51.000Z</time>
      </trkpt>
      <trkpt lat="43.2172" lon="6.60019">
        <ele>241</ele>
        <time>2013-09-16T12:19:52.000Z</time>
      </trkpt>
      <trkpt lat="43.21719" lon="6.6002">
        <ele>241</ele>
        <time>2013-09-16T12:19:53.000Z</time>
      </trkpt>
      <trkpt lat="43.21717" lon="6.60022">
        <ele>241</ele>
        <time>2013-09-16T12:19:54.000Z</time>
      </trkpt>
      <trkpt lat="43.21716" lon="6.60024">
        <ele>241</ele>
        <time>2013-09-16T12:19:55.000Z</time>
      </trkpt>
      <trkpt lat="43.21714" lon="6.60026">
        <ele>241</ele>
        <time>2013-09-16T12:19:56.000Z</time>
      </trkpt>
      <trkpt lat="43.21713" lon="6.60028">
        <ele>241</ele>
        <time>2013-09-16T12:19:57.000Z</time>
      </trkpt>
      <trkpt lat="43.21711" lon="6.6003">
        <ele>241</ele>
        <time>2013-09-16T12:19:58.000Z</time>
      </trkpt>
      <trkpt lat="43.2171" lon="6.60032">
        <ele>241</ele>
        <time>2013-09-16T12:19:59.000Z</time>
      </trkpt>
      <trkpt lat="43.21708" lon="6.60034">
        <ele>241</ele>
        <time>2013-09-16T12:20:00.000Z</time>
      </trkpt>
      <trkpt lat="43.21707" lon="6.60036">
        <ele>241</ele>
        <time>2013-09-16T12:20:01.000Z</time>
      </trkpt>
      <trkpt lat="43.21705" lon="6.60037">
        <ele>241</ele>
        <time>2013-09-16T12:20:02.000Z</time>
      </trkpt>
      <trkpt lat="43.21704" lon="6.60039">
        <ele>241</ele>
        <time>2013-09-16T12:20:03.000Z</time>
      </trkpt>
      <trkpt lat="43.21702" lon="6.60041">
        <ele>241</ele>
        <time>2013-09-16T12:20:04.000Z</time>
      </trkpt>
      <trkpt lat="43.21701" lon="6.60043">
        <ele>241</ele>
        <time>2013-09-16T12:20:05.000Z</time>
      </trkpt>
      <trkpt lat="43.21699" lon="6.60046">
        <ele>241</ele>
        <time>2013-09-16T12:20:06.000Z</time>
      </trkpt>
      <trkpt lat="43.21697" lon="6.60048">
        <ele>241</ele>
        <time>2013-09-16T12:20:07.000Z</time>
      </trkpt>
      <trkpt lat="43.21696" lon="6.6005">
        <ele>241</ele>
        <time>2013-09-16T12:20:08.000Z</time>
      </trkpt>
      <trkpt lat="43.21694" lon="6.60053">
        <ele>242</ele>
        <time>2013-09-16T12:20:09.000Z</time>
      </trkpt>
      <trkpt lat="43.21693" lon="6.60056">
        <ele>242</ele>
        <time>2013-09-16T12:20:10.000Z</time>
      </trkpt>
      <trkpt lat="43.21692" lon="6.60058">
        <ele>242</ele>
        <time>2013-09-16T12:20:11.000Z</time>
      </trkpt>
      <trkpt lat="43.2169" lon="6.60061">
        <ele>242</ele>
        <time>2013-09-16T12:20:12.000Z</time>
      </trkpt>
      <trkpt lat="43.21689" lon="6.60063">
        <ele>242</ele>
        <time>2013-09-16T12:20:13.000Z</time>
      </trkpt>
      <trkpt lat="43.21687" lon="6.60065">
        <ele>242</ele>
        <time>2013-09-16T12:20:14.000Z</time>
      </trkpt>
      <trkpt lat="43.21686" lon="6.60068">
        <ele>242</ele>
        <time>2013-09-16T12:20:15.000Z</time>
      </trkpt>
      <trkpt lat="43.21684" lon="6.60071">
        <ele>242</ele>
        <time>2013-09-16T12:20:16.000Z</time>
      </trkpt>
      <trkpt lat="43.21682" lon="6.60073">
        <ele>242</ele>
        <time>2013-09-16T12:20:17.000Z</time>
      </trkpt>
      <trkpt lat="43.2168" lon="6.60076">
        <ele>241</ele>
        <time>2013-09-16T12:20:18.000Z</time>
      </trkpt>
      <trkpt lat="43.21678" lon="6.60079">
        <ele>241</ele>
        <time>2013-09-16T12:20:19.000Z</time>
      </trkpt>
      <trkpt lat="43.21676" lon="6.60082">
        <ele>241</ele>
        <time>2013-09-16T12:20:20.000Z</time>
      </trkpt>
      <trkpt lat="43.21673" lon="6.60084">
        <ele>245</ele>
        <time>2013-09-16T12:20:21.000Z</time>
      </trkpt>
      <trkpt lat="43.21671" lon="6.60087">
        <ele>244</ele>
        <time>2013-09-16T12:20:22.000Z</time>
      </trkpt>
      <trkpt lat="43.21668" lon="6.60089">
        <ele>245</ele>
        <time>2013-09-16T12:20:23.000Z</time>
      </trkpt>
      <trkpt lat="43.21666" lon="6.60092">
        <ele>240</ele>
        <time>2013-09-16T12:20:24.000Z</time>
      </trkpt>
      <trkpt lat="43.21664" lon="6.60094">
        <ele>240</ele>
        <time>2013-09-16T12:20:25.000Z</time>
      </trkpt>
      <trkpt lat="43.21662" lon="6.60096">
        <ele>240</ele>
        <time>2013-09-16T12:20:26.000Z</time>
      </trkpt>
      <trkpt lat="43.2166" lon="6.60098">
        <ele>240</ele>
        <time>2013-09-16T12:20:27.000Z</time>
      </trkpt>
      <trkpt lat="43.21658" lon="6.601">
        <ele>240</ele>
        <time>2013-09-16T12:20:28.000Z</time>
      </trkpt>
      <trkpt lat="43.21656" lon="6.60102">
        <ele>240</ele>
        <time>2013-09-16T12:20:29.000Z</time>
      </trkpt>
      <trkpt lat="43.21653" lon="6.60104">
        <ele>240</ele>
        <time>2013-09-16T12:20:30.000Z</time>
      </trkpt>
      <trkpt lat="43.21651" lon="6.60107">
        <ele>240</ele>
        <time>2013-09-16T12:20:31.000Z</time>
      </trkpt>
      <trkpt lat="43.21648" lon="6.60109">
        <ele>240</ele>
        <time>2013-09-16T12:20:32.000Z</time>
      </trkpt>
      <trkpt lat="43.21645" lon="6.60111">
        <ele>240</ele>
        <time>2013-09-16T12:20:33.000Z</time>
      </trkpt>
      <trkpt lat="43.21642" lon="6.60114">
        <ele>240</ele>
        <time>2013-09-16T12:20:34.000Z</time>
      </trkpt>
      <trkpt lat="43.21639" lon="6.60116">
        <ele>240</ele>
        <time>2013-09-16T12:20:35.000Z</time>
      </trkpt>
      <trkpt lat="43.21636" lon="6.60119">
        <ele>240</ele>
        <time>2013-09-16T12:20:36.000Z</time>
      </trkpt>
      <trkpt lat="43.21633" lon="6.60122">
        <ele>240</ele>
        <time>2013-09-16T12:20:37.000Z</time>
      </trkpt>
      <trkpt lat="43.2163" lon="6.60126">
        <ele>240</ele>
        <time>2013-09-16T12:20:38.000Z</time>
      </trkpt>
      <trkpt lat="43.21627" lon="6.6013">
        <ele>240</ele>
        <time>2013-09-16T12:20:39.000Z</time>
      </trkpt>
      <trkpt lat="43.21623" lon="6.60134">
        <ele>240</ele>
        <time>2013-09-16T12:20:40.000Z</time>
      </trkpt>
      <trkpt lat="43.2162" lon="6.60138">
        <ele>240</ele>
        <time>2013-09-16T12:20:41.000Z</time>
      </trkpt>
      <trkpt lat="43.21616" lon="6.60143">
        <ele>240</ele>
        <time>2013-09-16T12:20:42.000Z</time>
      </trkpt>
      <trkpt lat="43.21612" lon="6.60148">
        <ele>239</ele>
        <time>2013-09-16T12:20:43.000Z</time>
      </trkpt>
      <trkpt lat="43.21609" lon="6.60152">
        <ele>239</ele>
        <time>2013-09-16T12:20:44.000Z</time>
      </trkpt>
      <trkpt lat="43.21605" lon="6.60156">
        <ele>239</ele>
        <time>2013-09-16T12:20:45.000Z</time>
      </trkpt>
      <trkpt lat="43.21602" lon="6.60159">
        <ele>239</ele>
        <time>2013-09-16T12:20:46.000Z</time>
      </trkpt>
      <trkpt lat="43.21598" lon="6.60162">
        <ele>239</ele>
        <time>2013-09-16T12:20:47.000Z</time>
      </trkpt>
      <trkpt lat="43.21596" lon="6.60165">
        <ele>239</ele>
        <time>2013-09-16T12:20:48.000Z</time>
      </trkpt>
      <trkpt lat="43.21594" lon="6.60168">
        <ele>244</ele>
        <time>2013-09-16T12:20:49.000Z</time>
      </trkpt>
      <trkpt lat="43.21592" lon="6.6017">
        <ele>243</ele>
        <time>2013-09-16T12:20:50.000Z</time>
      </trkpt>
      <trkpt lat="43.2159" lon="6.60172">
        <ele>243</ele>
        <time>2013-09-16T12:20:51.000Z</time>
      </trkpt>
      <trkpt lat="43.21589" lon="6.60173">
        <ele>243</ele>
        <time>2013-09-16T12:20:52.000Z</time>
      </trkpt>
      <trkpt lat="43.21588" lon="6.60175">
        <ele>244</ele>
        <time>2013-09-16T12:20:53.000Z</time>
      </trkpt>
      <trkpt lat="43.21586" lon="6.60177">
        <ele>244</ele>
        <time>2013-09-16T12:20:54.000Z</time>
      </trkpt>
      <trkpt lat="43.21585" lon="6.60179">
        <ele>245</ele>
        <time>2013-09-16T12:20:55.000Z</time>
      </trkpt>
      <trkpt lat="43.21584" lon="6.60181">
        <ele>246</ele>
        <time>2013-09-16T12:20:56.000Z</time>
      </trkpt>
      <trkpt lat="43.21584" lon="6.60183">
        <ele>246</ele>
        <time>2013-09-16T12:20:57.000Z</time>
      </trkpt>
      <trkpt lat="43.21583" lon="6.60185">
        <ele>236</ele>
        <time>2013-09-16T12:20:58.000Z</time>
      </trkpt>
      <trkpt lat="43.21582" lon="6.60187">
        <ele>235</ele>
        <time>2013-09-16T12:20:59.000Z</time>
      </trkpt>
      <trkpt lat="43.21582" lon="6.60189">
        <ele>235</ele>
        <time>2013-09-16T12:21:00.000Z</time>
      </trkpt>
      <trkpt lat="43.21581" lon="6.60191">
        <ele>235</ele>
        <time>2013-09-16T12:21:01.000Z</time>
      </trkpt>
      <trkpt lat="43.2158" lon="6.60193">
        <ele>235</ele>
        <time>2013-09-16T12:21:02.000Z</time>
      </trkpt>
      <trkpt lat="43.2158" lon="6.60194">
        <ele>235</ele>
        <time>2013-09-16T12:21:03.000Z</time>
      </trkpt>
      <trkpt lat="43.21579" lon="6.60196">
        <ele>235</ele>
        <time>2013-09-16T12:21:04.000Z</time>
      </trkpt>
      <trkpt lat="43.21578" lon="6.60198">
        <ele>236</ele>
        <time>2013-09-16T12:21:05.000Z</time>
      </trkpt>
      <trkpt lat="43.21577" lon="6.602">
        <ele>236</ele>
        <time>2013-09-16T12:21:06.000Z</time>
      </trkpt>
      <trkpt lat="43.21576" lon="6.60202">
        <ele>236</ele>
        <time>2013-09-16T12:21:07.000Z</time>
      </trkpt>
      <trkpt lat="43.21576" lon="6.60204">
        <ele>236</ele>
        <time>2013-09-16T12:21:08.000Z</time>
      </trkpt>
      <trkpt lat="43.21575" lon="6.60205">
        <ele>236</ele>
        <time>2013-09-16T12:21:09.000Z</time>
      </trkpt>
      <trkpt lat="43.21575" lon="6.60207">
        <ele>236</ele>
        <time>2013-09-16T12:21:10.000Z</time>
      </trkpt>
      <trkpt lat="43.21575" lon="6.60211">
        <ele>236</ele>
        <time>2013-09-16T12:21:12.000Z</time>
      </trkpt>
      <trkpt lat="43.21574" lon="6.60214">
        <ele>237</ele>
        <time>2013-09-16T12:21:14.000Z</time>
      </trkpt>
      <trkpt lat="43.21574" lon="6.60216">
        <ele>237</ele>
        <time>2013-09-16T12:21:15.000Z</time>
      </trkpt>
      <trkpt lat="43.21573" lon="6.60218">
        <ele>238</ele>
        <time>2013-09-16T12:21:16.000Z</time>
      </trkpt>
      <trkpt lat="43.21573" lon="6.60219">
        <ele>238</ele>
        <time>2013-09-16T12:21:17.000Z</time>
      </trkpt>
      <trkpt lat="43.21572" lon="6.60221">
        <ele>238</ele>
        <time>2013-09-16T12:21:18.000Z</time>
      </trkpt>
      <trkpt lat="43.21572" lon="6.60222">
        <ele>238</ele>
        <time>2013-09-16T12:21:19.000Z</time>
      </trkpt>
      <trkpt lat="43.21572" lon="6.60224">
        <ele>239</ele>
        <time>2013-09-16T12:21:20.000Z</time>
      </trkpt>
      <trkpt lat="43.21572" lon="6.60226">
        <ele>239</ele>
        <time>2013-09-16T12:21:21.000Z</time>
      </trkpt>
      <trkpt lat="43.21571" lon="6.60227">
        <ele>239</ele>
        <time>2013-09-16T12:21:22.000Z</time>
      </trkpt>
      <trkpt lat="43.21571" lon="6.60231">
        <ele>240</ele>
        <time>2013-09-16T12:21:24.000Z</time>
      </trkpt>
      <trkpt lat="43.21571" lon="6.60232">
        <ele>241</ele>
        <time>2013-09-16T12:21:25.000Z</time>
      </trkpt>
      <trkpt lat="43.2157" lon="6.60234">
        <ele>241</ele>
        <time>2013-09-16T12:21:26.000Z</time>
      </trkpt>
      <trkpt lat="43.2157" lon="6.60236">
        <ele>241</ele>
        <time>2013-09-16T12:21:27.000Z</time>
      </trkpt>
      <trkpt lat="43.2157" lon="6.60238">
        <ele>242</ele>
        <time>2013-09-16T12:21:28.000Z</time>
      </trkpt>
      <trkpt lat="43.2157" lon="6.60239">
        <ele>242</ele>
        <time>2013-09-16T12:21:29.000Z</time>
      </trkpt>
      <trkpt lat="43.2157" lon="6.60241">
        <ele>243</ele>
        <time>2013-09-16T12:21:30.000Z</time>
      </trkpt>
      <trkpt lat="43.21569" lon="6.60243">
        <ele>243</ele>
        <time>2013-09-16T12:21:31.000Z</time>
      </trkpt>
      <trkpt lat="43.21569" lon="6.60245">
        <ele>243</ele>
        <time>2013-09-16T12:21:32.000Z</time>
      </trkpt>
      <trkpt lat="43.21569" lon="6.60247">
        <ele>243</ele>
        <time>2013-09-16T12:21:33.000Z</time>
      </trkpt>
      <trkpt lat="43.21569" lon="6.60249">
        <ele>243</ele>
        <time>2013-09-16T12:21:34.000Z</time>
      </trkpt>
      <trkpt lat="43.21568" lon="6.6025">
        <ele>250</ele>
        <time>2013-09-16T12:21:35.000Z</time>
      </trkpt>
      <trkpt lat="43.21568" lon="6.60252">
        <ele>250</ele>
        <time>2013-09-16T12:21:36.000Z</time>
      </trkpt>
      <trkpt lat="43.21568" lon="6.60254">
        <ele>250</ele>
        <time>2013-09-16T12:21:37.000Z</time>
      </trkpt>
      <trkpt lat="43.21568" lon="6.60262">
        <ele>250</ele>
        <time>2013-09-16T12:21:41.000Z</time>
      </trkpt>
      <trkpt lat="43.21568" lon="6.60264">
        <ele>250</ele>
        <time>2013-09-16T12:21:42.000Z</time>
      </trkpt>
      <trkpt lat="43.21568" lon="6.60266">
        <ele>250</ele>
        <time>2013-09-16T12:21:43.000Z</time>
      </trkpt>
      <trkpt lat="43.21568" lon="6.60267">
        <ele>250</ele>
        <time>2013-09-16T12:21:44.000Z</time>
      </trkpt>
      <trkpt lat="43.21567" lon="6.60274">
        <ele>250</ele>
        <time>2013-09-16T12:21:48.000Z</time>
      </trkpt>
      <trkpt lat="43.21567" lon="6.60276">
        <ele>250</ele>
        <time>2013-09-16T12:21:49.000Z</time>
      </trkpt>
      <trkpt lat="43.21567" lon="6.60282">
        <ele>251</ele>
        <time>2013-09-16T12:21:53.000Z</time>
      </trkpt>
      <trkpt lat="43.21566" lon="6.60289">
        <ele>252</ele>
        <time>2013-09-16T12:21:57.000Z</time>
      </trkpt>
      <trkpt lat="43.21566" lon="6.60291">
        <ele>252</ele>
        <time>2013-09-16T12:21:58.000Z</time>
      </trkpt>
      <trkpt lat="43.21565" lon="6.60292">
        <ele>252</ele>
        <time>2013-09-16T12:21:59.000Z</time>
      </trkpt>
      <trkpt lat="43.21565" lon="6.60294">
        <ele>252</ele>
        <time>2013-09-16T12:22:00.000Z</time>
      </trkpt>
      <trkpt lat="43.21564" lon="6.60296">
        <ele>252</ele>
        <time>2013-09-16T12:22:01.000Z</time>
      </trkpt>
      <trkpt lat="43.21564" lon="6.60297">
        <ele>252</ele>
        <time>2013-09-16T12:22:02.000Z</time>
      </trkpt>
      <trkpt lat="43.21564" lon="6.60299">
        <ele>253</ele>
        <time>2013-09-16T12:22:03.000Z</time>
      </trkpt>
      <trkpt lat="43.21563" lon="6.603">
        <ele>253</ele>
        <time>2013-09-16T12:22:04.000Z</time>
      </trkpt>
      <trkpt lat="43.21563" lon="6.60302">
        <ele>253</ele>
        <time>2013-09-16T12:22:05.000Z</time>
      </trkpt>
      <trkpt lat="43.21562" lon="6.60304">
        <ele>253</ele>
        <time>2013-09-16T12:22:06.000Z</time>
      </trkpt>
      <trkpt lat="43.21562" lon="6.60305">
        <ele>253</ele>
        <time>2013-09-16T12:22:07.000Z</time>
      </trkpt>
      <trkpt lat="43.21561" lon="6.60306">
        <ele>253</ele>
        <time>2013-09-16T12:22:08.000Z</time>
      </trkpt>
      <trkpt lat="43.2156" lon="6.60308">
        <ele>254</ele>
        <time>2013-09-16T12:22:09.000Z</time>
      </trkpt>
      <trkpt lat="43.21559" lon="6.60309">
        <ele>254</ele>
        <time>2013-09-16T12:22:10.000Z</time>
      </trkpt>
      <trkpt lat="43.21559" lon="6.60311">
        <ele>254</ele>
        <time>2013-09-16T12:22:11.000Z</time>
      </trkpt>
      <trkpt lat="43.21558" lon="6.60312">
        <ele>254</ele>
        <time>2013-09-16T12:22:12.000Z</time>
      </trkpt>
      <trkpt lat="43.21557" lon="6.60314">
        <ele>254</ele>
        <time>2013-09-16T12:22:13.000Z</time>
      </trkpt>
      <trkpt lat="43.21557" lon="6.60315">
        <ele>254</ele>
        <time>2013-09-16T12:22:14.000Z</time>
      </trkpt>
      <trkpt lat="43.21556" lon="6.60316">
        <ele>254</ele>
        <time>2013-09-16T12:22:15.000Z</time>
      </trkpt>
      <trkpt lat="43.21555" lon="6.60318">
        <ele>254</ele>
        <time>2013-09-16T12:22:16.000Z</time>
      </trkpt>
      <trkpt lat="43.21554" lon="6.60319">
        <ele>254</ele>
        <time>2013-09-16T12:22:17.000Z</time>
      </trkpt>
      <trkpt lat="43.21554" lon="6.60321">
        <ele>254</ele>
        <time>2013-09-16T12:22:18.000Z</time>
      </trkpt>
      <trkpt lat="43.21553" lon="6.60323">
        <ele>254</ele>
        <time>2013-09-16T12:22:19.000Z</time>
      </trkpt>
      <trkpt lat="43.21553" lon="6.60324">
        <ele>254</ele>
        <time>2013-09-16T12:22:20.000Z</time>
      </trkpt>
      <trkpt lat="43.21552" lon="6.60326">
        <ele>254</ele>
        <time>2013-09-16T12:22:21.000Z</time>
      </trkpt>
      <trkpt lat="43.21551" lon="6.60327">
        <ele>254</ele>
        <time>2013-09-16T12:22:22.000Z</time>
      </trkpt>
      <trkpt lat="43.21551" lon="6.60329">
        <ele>254</ele>
        <time>2013-09-16T12:22:23.000Z</time>
      </trkpt>
      <trkpt lat="43.2155" lon="6.6033">
        <ele>254</ele>
        <time>2013-09-16T12:22:24.000Z</time>
      </trkpt>
      <trkpt lat="43.2155" lon="6.60332">
        <ele>254</ele>
        <time>2013-09-16T12:22:25.000Z</time>
      </trkpt>
      <trkpt lat="43.21549" lon="6.60333">
        <ele>253</ele>
        <time>2013-09-16T12:22:26.000Z</time>
      </trkpt>
      <trkpt lat="43.21548" lon="6.60335">
        <ele>264</ele>
        <time>2013-09-16T12:22:27.000Z</time>
      </trkpt>
      <trkpt lat="43.21548" lon="6.60337">
        <ele>264</ele>
        <time>2013-09-16T12:22:28.000Z</time>
      </trkpt>
      <trkpt lat="43.21547" lon="6.60338">
        <ele>264</ele>
        <time>2013-09-16T12:22:29.000Z</time>
      </trkpt>
      <trkpt lat="43.21547" lon="6.6034">
        <ele>264</ele>
        <time>2013-09-16T12:22:30.000Z</time>
      </trkpt>
      <trkpt lat="43.21547" lon="6.60342">
        <ele>264</ele>
        <time>2013-09-16T12:22:31.000Z</time>
      </trkpt>
      <trkpt lat="43.21546" lon="6.60343">
        <ele>264</ele>
        <time>2013-09-16T12:22:32.000Z</time>
      </trkpt>
      <trkpt lat="43.21546" lon="6.60345">
        <ele>264</ele>
        <time>2013-09-16T12:22:33.000Z</time>
      </trkpt>
      <trkpt lat="43.21545" lon="6.60347">
        <ele>264</ele>
        <time>2013-09-16T12:22:34.000Z</time>
      </trkpt>
      <trkpt lat="43.21545" lon="6.60348">
        <ele>264</ele>
        <time>2013-09-16T12:22:35.000Z</time>
      </trkpt>
      <trkpt lat="43.21544" lon="6.6035">
        <ele>264</ele>
        <time>2013-09-16T12:22:36.000Z</time>
      </trkpt>
      <trkpt lat="43.21543" lon="6.60352">
        <ele>264</ele>
        <time>2013-09-16T12:22:37.000Z</time>
      </trkpt>
      <trkpt lat="43.21542" lon="6.60354">
        <ele>264</ele>
        <time>2013-09-16T12:22:38.000Z</time>
      </trkpt>
      <trkpt lat="43.21541" lon="6.60356">
        <ele>264</ele>
        <time>2013-09-16T12:22:39.000Z</time>
      </trkpt>
      <trkpt lat="43.21541" lon="6.60357">
        <ele>264</ele>
        <time>2013-09-16T12:22:40.000Z</time>
      </trkpt>
      <trkpt lat="43.2154" lon="6.60359">
        <ele>264</ele>
        <time>2013-09-16T12:22:41.000Z</time>
      </trkpt>
      <trkpt lat="43.21539" lon="6.6036">
        <ele>264</ele>
        <time>2013-09-16T12:22:42.000Z</time>
      </trkpt>
      <trkpt lat="43.21538" lon="6.60362">
        <ele>264</ele>
        <time>2013-09-16T12:22:43.000Z</time>
      </trkpt>
      <trkpt lat="43.21538" lon="6.60364">
        <ele>264</ele>
        <time>2013-09-16T12:22:44.000Z</time>
      </trkpt>
      <trkpt lat="43.21537" lon="6.60365">
        <ele>264</ele>
        <time>2013-09-16T12:22:45.000Z</time>
      </trkpt>
      <trkpt lat="43.21536" lon="6.60367">
        <ele>264</ele>
        <time>2013-09-16T12:22:46.000Z</time>
      </trkpt>
      <trkpt lat="43.21535" lon="6.60368">
        <ele>264</ele>
        <time>2013-09-16T12:22:47.000Z</time>
      </trkpt>
      <trkpt lat="43.21534" lon="6.6037">
        <ele>265</ele>
        <time>2013-09-16T12:22:48.000Z</time>
      </trkpt>
      <trkpt lat="43.21533" lon="6.60372">
        <ele>265</ele>
        <time>2013-09-16T12:22:49.000Z</time>
      </trkpt>
      <trkpt lat="43.21533" lon="6.60373">
        <ele>265</ele>
        <time>2013-09-16T12:22:50.000Z</time>
      </trkpt>
      <trkpt lat="43.21532" lon="6.60375">
        <ele>265</ele>
        <time>2013-09-16T12:22:51.000Z</time>
      </trkpt>
      <trkpt lat="43.21531" lon="6.60376">
        <ele>265</ele>
        <time>2013-09-16T12:22:52.000Z</time>
      </trkpt>
      <trkpt lat="43.2153" lon="6.60378">
        <ele>265</ele>
        <time>2013-09-16T12:22:53.000Z</time>
      </trkpt>
      <trkpt lat="43.21529" lon="6.60379">
        <ele>265</ele>
        <time>2013-09-16T12:22:54.000Z</time>
      </trkpt>
      <trkpt lat="43.21529" lon="6.60381">
        <ele>265</ele>
        <time>2013-09-16T12:22:55.000Z</time>
      </trkpt>
      <trkpt lat="43.21528" lon="6.60382">
        <ele>265</ele>
        <time>2013-09-16T12:22:56.000Z</time>
      </trkpt>
      <trkpt lat="43.21527" lon="6.60384">
        <ele>265</ele>
        <time>2013-09-16T12:22:57.000Z</time>
      </trkpt>
      <trkpt lat="43.21526" lon="6.60385">
        <ele>265</ele>
        <time>2013-09-16T12:22:58.000Z</time>
      </trkpt>
      <trkpt lat="43.21525" lon="6.60387">
        <ele>265</ele>
        <time>2013-09-16T12:22:59.000Z</time>
      </trkpt>
      <trkpt lat="43.21524" lon="6.60388">
        <ele>265</ele>
        <time>2013-09-16T12:23:00.000Z</time>
      </trkpt>
      <trkpt lat="43.21524" lon="6.6039">
        <ele>265</ele>
        <time>2013-09-16T12:23:01.000Z</time>
      </trkpt>
      <trkpt lat="43.21523" lon="6.60391">
        <ele>265</ele>
        <time>2013-09-16T12:23:02.000Z</time>
      </trkpt>
      <trkpt lat="43.21522" lon="6.60392">
        <ele>265</ele>
        <time>2013-09-16T12:23:03.000Z</time>
      </trkpt>
      <trkpt lat="43.21522" lon="6.60394">
        <ele>266</ele>
        <time>2013-09-16T12:23:04.000Z</time>
      </trkpt>
      <trkpt lat="43.2152" lon="6.60395">
        <ele>266</ele>
        <time>2013-09-16T12:23:05.000Z</time>
      </trkpt>
      <trkpt lat="43.2152" lon="6.60397">
        <ele>266</ele>
        <time>2013-09-16T12:23:06.000Z</time>
      </trkpt>
      <trkpt lat="43.21518" lon="6.60398">
        <ele>266</ele>
        <time>2013-09-16T12:23:07.000Z</time>
      </trkpt>
      <trkpt lat="43.21517" lon="6.604">
        <ele>266</ele>
        <time>2013-09-16T12:23:08.000Z</time>
      </trkpt>
      <trkpt lat="43.21516" lon="6.60401">
        <ele>266</ele>
        <time>2013-09-16T12:23:09.000Z</time>
      </trkpt>
      <trkpt lat="43.21515" lon="6.60403">
        <ele>266</ele>
        <time>2013-09-16T12:23:10.000Z</time>
      </trkpt>
      <trkpt lat="43.21513" lon="6.60404">
        <ele>265</ele>
        <time>2013-09-16T12:23:11.000Z</time>
      </trkpt>
      <trkpt lat="43.21512" lon="6.60406">
        <ele>265</ele>
        <time>2013-09-16T12:23:12.000Z</time>
      </trkpt>
      <trkpt lat="43.2151" lon="6.60407">
        <ele>265</ele>
        <time>2013-09-16T12:23:13.000Z</time>
      </trkpt>
      <trkpt lat="43.21508" lon="6.60408">
        <ele>265</ele>
        <time>2013-09-16T12:23:14.000Z</time>
      </trkpt>
      <trkpt lat="43.21507" lon="6.6041">
        <ele>265</ele>
        <time>2013-09-16T12:23:15.000Z</time>
      </trkpt>
      <trkpt lat="43.21505" lon="6.60411">
        <ele>265</ele>
        <time>2013-09-16T12:23:16.000Z</time>
      </trkpt>
      <trkpt lat="43.21503" lon="6.60413">
        <ele>265</ele>
        <time>2013-09-16T12:23:17.000Z</time>
      </trkpt>
      <trkpt lat="43.21502" lon="6.60415">
        <ele>265</ele>
        <time>2013-09-16T12:23:18.000Z</time>
      </trkpt>
      <trkpt lat="43.215" lon="6.60416">
        <ele>264</ele>
        <time>2013-09-16T12:23:19.000Z</time>
      </trkpt>
      <trkpt lat="43.21498" lon="6.60417">
        <ele>265</ele>
        <time>2013-09-16T12:23:20.000Z</time>
      </trkpt>
      <trkpt lat="43.21496" lon="6.60419">
        <ele>265</ele>
        <time>2013-09-16T12:23:21.000Z</time>
      </trkpt>
      <trkpt lat="43.21495" lon="6.6042">
        <ele>265</ele>
        <time>2013-09-16T12:23:22.000Z</time>
      </trkpt>
      <trkpt lat="43.21493" lon="6.60422">
        <ele>264</ele>
        <time>2013-09-16T12:23:23.000Z</time>
      </trkpt>
      <trkpt lat="43.21491" lon="6.60424">
        <ele>264</ele>
        <time>2013-09-16T12:23:24.000Z</time>
      </trkpt>
      <trkpt lat="43.2149" lon="6.60425">
        <ele>264</ele>
        <time>2013-09-16T12:23:25.000Z</time>
      </trkpt>
      <trkpt lat="43.21488" lon="6.60427">
        <ele>264</ele>
        <time>2013-09-16T12:23:26.000Z</time>
      </trkpt>
      <trkpt lat="43.21486" lon="6.6043">
        <ele>264</ele>
        <time>2013-09-16T12:23:27.000Z</time>
      </trkpt>
      <trkpt lat="43.21484" lon="6.60431">
        <ele>264</ele>
        <time>2013-09-16T12:23:28.000Z</time>
      </trkpt>
      <trkpt lat="43.21483" lon="6.60434">
        <ele>264</ele>
        <time>2013-09-16T12:23:29.000Z</time>
      </trkpt>
      <trkpt lat="43.21481" lon="6.60436">
        <ele>264</ele>
        <time>2013-09-16T12:23:30.000Z</time>
      </trkpt>
      <trkpt lat="43.21479" lon="6.60438">
        <ele>264</ele>
        <time>2013-09-16T12:23:31.000Z</time>
      </trkpt>
      <trkpt lat="43.21478" lon="6.6044">
        <ele>264</ele>
        <time>2013-09-16T12:23:32.000Z</time>
      </trkpt>
      <trkpt lat="43.21476" lon="6.60442">
        <ele>264</ele>
        <time>2013-09-16T12:23:33.000Z</time>
      </trkpt>
      <trkpt lat="43.21474" lon="6.60444">
        <ele>264</ele>
        <time>2013-09-16T12:23:34.000Z</time>
      </trkpt>
      <trkpt lat="43.21473" lon="6.60446">
        <ele>264</ele>
        <time>2013-09-16T12:23:35.000Z</time>
      </trkpt>
      <trkpt lat="43.21472" lon="6.60448">
        <ele>264</ele>
        <time>2013-09-16T12:23:36.000Z</time>
      </trkpt>
      <trkpt lat="43.21471" lon="6.6045">
        <ele>264</ele>
        <time>2013-09-16T12:23:37.000Z</time>
      </trkpt>
      <trkpt lat="43.2147" lon="6.60452">
        <ele>264</ele>
        <time>2013-09-16T12:23:38.000Z</time>
      </trkpt>
      <trkpt lat="43.21469" lon="6.60454">
        <ele>264</ele>
        <time>2013-09-16T12:23:39.000Z</time>
      </trkpt>
      <trkpt lat="43.21467" lon="6.60456">
        <ele>264</ele>
        <time>2013-09-16T12:23:40.000Z</time>
      </trkpt>
      <trkpt lat="43.21466" lon="6.60457">
        <ele>264</ele>
        <time>2013-09-16T12:23:41.000Z</time>
      </trkpt>
      <trkpt lat="43.21465" lon="6.60459">
        <ele>264</ele>
        <time>2013-09-16T12:23:42.000Z</time>
      </trkpt>
      <trkpt lat="43.21464" lon="6.6046">
        <ele>264</ele>
        <time>2013-09-16T12:23:43.000Z</time>
      </trkpt>
      <trkpt lat="43.21463" lon="6.60462">
        <ele>264</ele>
        <time>2013-09-16T12:23:44.000Z</time>
      </trkpt>
      <trkpt lat="43.21462" lon="6.60463">
        <ele>264</ele>
        <time>2013-09-16T12:23:45.000Z</time>
      </trkpt>
      <trkpt lat="43.2146" lon="6.60465">
        <ele>264</ele>
        <time>2013-09-16T12:23:46.000Z</time>
      </trkpt>
      <trkpt lat="43.21458" lon="6.60466">
        <ele>264</ele>
        <time>2013-09-16T12:23:47.000Z</time>
      </trkpt>
      <trkpt lat="43.21457" lon="6.60468">
        <ele>264</ele>
        <time>2013-09-16T12:23:48.000Z</time>
      </trkpt>
      <trkpt lat="43.21455" lon="6.60469">
        <ele>264</ele>
        <time>2013-09-16T12:23:49.000Z</time>
      </trkpt>
      <trkpt lat="43.21453" lon="6.6047">
        <ele>264</ele>
        <time>2013-09-16T12:23:50.000Z</time>
      </trkpt>
      <trkpt lat="43.21452" lon="6.60471">
        <ele>264</ele>
        <time>2013-09-16T12:23:51.000Z</time>
      </trkpt>
      <trkpt lat="43.2145" lon="6.60473">
        <ele>264</ele>
        <time>2013-09-16T12:23:52.000Z</time>
      </trkpt>
      <trkpt lat="43.21449" lon="6.60474">
        <ele>264</ele>
        <time>2013-09-16T12:23:53.000Z</time>
      </trkpt>
      <trkpt lat="43.21447" lon="6.60475">
        <ele>264</ele>
        <time>2013-09-16T12:23:54.000Z</time>
      </trkpt>
      <trkpt lat="43.21445" lon="6.60476">
        <ele>264</ele>
        <time>2013-09-16T12:23:55.000Z</time>
      </trkpt>
      <trkpt lat="43.21443" lon="6.60477">
        <ele>264</ele>
        <time>2013-09-16T12:23:56.000Z</time>
      </trkpt>
      <trkpt lat="43.21441" lon="6.60478">
        <ele>264</ele>
        <time>2013-09-16T12:23:57.000Z</time>
      </trkpt>
      <trkpt lat="43.2144" lon="6.6048">
        <ele>264</ele>
        <time>2013-09-16T12:23:58.000Z</time>
      </trkpt>
      <trkpt lat="43.21438" lon="6.60481">
        <ele>264</ele>
        <time>2013-09-16T12:23:59.000Z</time>
      </trkpt>
      <trkpt lat="43.21437" lon="6.60482">
        <ele>264</ele>
        <time>2013-09-16T12:24:00.000Z</time>
      </trkpt>
      <trkpt lat="43.21435" lon="6.60483">
        <ele>264</ele>
        <time>2013-09-16T12:24:01.000Z</time>
      </trkpt>
      <trkpt lat="43.21434" lon="6.60484">
        <ele>264</ele>
        <time>2013-09-16T12:24:02.000Z</time>
      </trkpt>
      <trkpt lat="43.21432" lon="6.60485">
        <ele>264</ele>
        <time>2013-09-16T12:24:03.000Z</time>
      </trkpt>
      <trkpt lat="43.2143" lon="6.60486">
        <ele>264</ele>
        <time>2013-09-16T12:24:04.000Z</time>
      </trkpt>
      <trkpt lat="43.21428" lon="6.60488">
        <ele>264</ele>
        <time>2013-09-16T12:24:05.000Z</time>
      </trkpt>
      <trkpt lat="43.21425" lon="6.60489">
        <ele>264</ele>
        <time>2013-09-16T12:24:06.000Z</time>
      </trkpt>
      <trkpt lat="43.21423" lon="6.6049">
        <ele>264</ele>
        <time>2013-09-16T12:24:07.000Z</time>
      </trkpt>
      <trkpt lat="43.21421" lon="6.60492">
        <ele>264</ele>
        <time>2013-09-16T12:24:08.000Z</time>
      </trkpt>
      <trkpt lat="43.21419" lon="6.60493">
        <ele>264</ele>
        <time>2013-09-16T12:24:09.000Z</time>
      </trkpt>
      <trkpt lat="43.21417" lon="6.60494">
        <ele>265</ele>
        <time>2013-09-16T12:24:10.000Z</time>
      </trkpt>
      <trkpt lat="43.21415" lon="6.60495">
        <ele>263</ele>
        <time>2013-09-16T12:24:11.000Z</time>
      </trkpt>
      <trkpt lat="43.21413" lon="6.60496">
        <ele>263</ele>
        <time>2013-09-16T12:24:12.000Z</time>
      </trkpt>
      <trkpt lat="43.21412" lon="6.60498">
        <ele>263</ele>
        <time>2013-09-16T12:24:13.000Z</time>
      </trkpt>
      <trkpt lat="43.2141" lon="6.60499">
        <ele>263</ele>
        <time>2013-09-16T12:24:14.000Z</time>
      </trkpt>
      <trkpt lat="43.21408" lon="6.60501">
        <ele>264</ele>
        <time>2013-09-16T12:24:15.000Z</time>
      </trkpt>
      <trkpt lat="43.21405" lon="6.60502">
        <ele>264</ele>
        <time>2013-09-16T12:24:16.000Z</time>
      </trkpt>
      <trkpt lat="43.21402" lon="6.60503">
        <ele>263</ele>
        <time>2013-09-16T12:24:17.000Z</time>
      </trkpt>
      <trkpt lat="43.21399" lon="6.60504">
        <ele>263</ele>
        <time>2013-09-16T12:24:18.000Z</time>
      </trkpt>
      <trkpt lat="43.21396" lon="6.60506">
        <ele>263</ele>
        <time>2013-09-16T12:24:19.000Z</time>
      </trkpt>
      <trkpt lat="43.21394" lon="6.60508">
        <ele>263</ele>
        <time>2013-09-16T12:24:20.000Z</time>
      </trkpt>
      <trkpt lat="43.21392" lon="6.6051">
        <ele>263</ele>
        <time>2013-09-16T12:24:21.000Z</time>
      </trkpt>
      <trkpt lat="43.21389" lon="6.60512">
        <ele>262</ele>
        <time>2013-09-16T12:24:22.000Z</time>
      </trkpt>
      <trkpt lat="43.21387" lon="6.60514">
        <ele>262</ele>
        <time>2013-09-16T12:24:23.000Z</time>
      </trkpt>
      <trkpt lat="43.21385" lon="6.60515">
        <ele>262</ele>
        <time>2013-09-16T12:24:24.000Z</time>
      </trkpt>
      <trkpt lat="43.21384" lon="6.60516">
        <ele>262</ele>
        <time>2013-09-16T12:24:25.000Z</time>
      </trkpt>
      <trkpt lat="43.21383" lon="6.60517">
        <ele>262</ele>
        <time>2013-09-16T12:24:26.000Z</time>
      </trkpt>
      <trkpt lat="43.21382" lon="6.60519">
        <ele>262</ele>
        <time>2013-09-16T12:24:27.000Z</time>
      </trkpt>
      <trkpt lat="43.21382" lon="6.6052">
        <ele>262</ele>
        <time>2013-09-16T12:24:28.000Z</time>
      </trkpt>
      <trkpt lat="43.21383" lon="6.6052">
        <ele>262</ele>
        <time>2013-09-16T12:24:29.000Z</time>
      </trkpt>
      <trkpt lat="43.21384" lon="6.60521">
        <ele>262</ele>
        <time>2013-09-16T12:24:30.000Z</time>
      </trkpt>
      <trkpt lat="43.21385" lon="6.60521">
        <ele>262</ele>
        <time>2013-09-16T12:24:31.000Z</time>
      </trkpt>
      <trkpt lat="43.21386" lon="6.60522">
        <ele>262</ele>
        <time>2013-09-16T12:24:32.000Z</time>
      </trkpt>
      <trkpt lat="43.21386" lon="6.60522">
        <ele>262</ele>
        <time>2013-09-16T12:24:33.000Z</time>
      </trkpt>
      <trkpt lat="43.21386" lon="6.60522">
        <ele>262</ele>
        <time>2013-09-16T12:24:35.000Z</time>
      </trkpt>
      <trkpt lat="43.21385" lon="6.60522">
        <ele>262</ele>
        <time>2013-09-16T12:24:36.000Z</time>
      </trkpt>
      <trkpt lat="43.21385" lon="6.60522">
        <ele>262</ele>
        <time>2013-09-16T12:24:38.000Z</time>
      </trkpt>
      <trkpt lat="43.21384" lon="6.60522">
        <ele>262</ele>
        <time>2013-09-16T12:24:39.000Z</time>
      </trkpt>
      <trkpt lat="43.21384" lon="6.60523">
        <ele>262</ele>
        <time>2013-09-16T12:24:43.000Z</time>
      </trkpt>
      <trkpt lat="43.21383" lon="6.60523">
        <ele>262</ele>
        <time>2013-09-16T12:24:46.000Z</time>
      </trkpt>
      <trkpt lat="43.21383" lon="6.60523">
        <ele>262</ele>
        <time>2013-09-16T12:24:47.000Z</time>
      </trkpt>
      <trkpt lat="43.21382" lon="6.60523">
        <ele>262</ele>
        <time>2013-09-16T12:24:49.000Z</time>
      </trkpt>
      <trkpt lat="43.21382" lon="6.60523">
        <ele>262</ele>
        <time>2013-09-16T12:24:51.000Z</time>
      </trkpt>
      <trkpt lat="43.21382" lon="6.60522">
        <ele>262</ele>
        <time>2013-09-16T12:24:53.000Z</time>
      </trkpt>
      <trkpt lat="43.21382" lon="6.60522">
        <ele>262</ele>
        <time>2013-09-16T12:24:54.000Z</time>
      </trkpt>
      <trkpt lat="43.21381" lon="6.60522">
        <ele>262</ele>
        <time>2013-09-16T12:25:00.000Z</time>
      </trkpt>
      <trkpt lat="43.2138" lon="6.60522">
        <ele>262</ele>
        <time>2013-09-16T12:25:08.000Z</time>
      </trkpt>
      <trkpt lat="43.2138" lon="6.60522">
        <ele>262</ele>
        <time>2013-09-16T12:25:10.000Z</time>
      </trkpt>
      <trkpt lat="43.21379" lon="6.60522">
        <ele>262</ele>
        <time>2013-09-16T12:25:13.000Z</time>
      </trkpt>
      <trkpt lat="43.21379" lon="6.60522">
        <ele>262</ele>
        <time>2013-09-16T12:25:21.000Z</time>
      </trkpt>
      <trkpt lat="43.21378" lon="6.60522">
        <ele>262</ele>
        <time>2013-09-16T12:25:24.000Z</time>
      </trkpt>
      <trkpt lat="43.21378" lon="6.60522">
        <ele>262</ele>
        <time>2013-09-16T12:25:26.000Z</time>
      </trkpt>
      <trkpt lat="43.21378" lon="6.60522">
        <ele>262</ele>
        <time>2013-09-16T12:25:28.000Z</time>
      </trkpt>
      <trkpt lat="43.21378" lon="6.60523">
        <ele>262</ele>
        <time>2013-09-16T12:25:30.000Z</time>
      </trkpt>
      <trkpt lat="43.21378" lon="6.60523">
        <ele>262</ele>
        <time>2013-09-16T12:25:32.000Z</time>
      </trkpt>
      <trkpt lat="43.21378" lon="6.60523">
        <ele>262</ele>
        <time>2013-09-16T12:25:34.000Z</time>
      </trkpt>
      <trkpt lat="43.21377" lon="6.60523">
        <ele>262</ele>
        <time>2013-09-16T12:25:39.000Z</time>
      </trkpt>
      <trkpt lat="43.21378" lon="6.60523">
        <ele>262</ele>
        <time>2013-09-16T12:25:42.000Z</time>
      </trkpt>
      <trkpt lat="43.21379" lon="6.60523">
        <ele>262</ele>
        <time>2013-09-16T12:25:43.000Z</time>
      </trkpt>
      <trkpt lat="43.2138" lon="6.60522">
        <ele>262</ele>
        <time>2013-09-16T12:25:44.000Z</time>
      </trkpt>
      <trkpt lat="43.2138" lon="6.60522">
        <ele>262</ele>
        <time>2013-09-16T12:25:45.000Z</time>
      </trkpt>
      <trkpt lat="43.21381" lon="6.60521">
        <ele>262</ele>
        <time>2013-09-16T12:25:46.000Z</time>
      </trkpt>
      <trkpt lat="43.21381" lon="6.6052">
        <ele>262</ele>
        <time>2013-09-16T12:25:52.000Z</time>
      </trkpt>
      <trkpt lat="43.21382" lon="6.6052">
        <ele>262</ele>
        <time>2013-09-16T12:25:53.000Z</time>
      </trkpt>
      <trkpt lat="43.21383" lon="6.60519">
        <ele>262</ele>
        <time>2013-09-16T12:25:54.000Z</time>
      </trkpt>
      <trkpt lat="43.21384" lon="6.60518">
        <ele>262</ele>
        <time>2013-09-16T12:25:55.000Z</time>
      </trkpt>
      <trkpt lat="43.21385" lon="6.60518">
        <ele>262</ele>
        <time>2013-09-16T12:25:56.000Z</time>
      </trkpt>
      <trkpt lat="43.21385" lon="6.60517">
        <ele>262</ele>
        <time>2013-09-16T12:25:57.000Z</time>
      </trkpt>
      <trkpt lat="43.21385" lon="6.60517">
        <ele>262</ele>
        <time>2013-09-16T12:25:58.000Z</time>
      </trkpt>
      <trkpt lat="43.21385" lon="6.60516">
        <ele>262</ele>
        <time>2013-09-16T12:25:59.000Z</time>
      </trkpt>
      <trkpt lat="43.21385" lon="6.60516">
        <ele>262</ele>
        <time>2013-09-16T12:26:00.000Z</time>
      </trkpt>
      <trkpt lat="43.21384" lon="6.60516">
        <ele>262</ele>
        <time>2013-09-16T12:26:02.000Z</time>
      </trkpt>
      <trkpt lat="43.21384" lon="6.60517">
        <ele>262</ele>
        <time>2013-09-16T12:26:03.000Z</time>
      </trkpt>
      <trkpt lat="43.21383" lon="6.60517">
        <ele>262</ele>
        <time>2013-09-16T12:26:04.000Z</time>
      </trkpt>
      <trkpt lat="43.21382" lon="6.60517">
        <ele>262</ele>
        <time>2013-09-16T12:26:05.000Z</time>
      </trkpt>
      <trkpt lat="43.21382" lon="6.60518">
        <ele>262</ele>
        <time>2013-09-16T12:26:06.000Z</time>
      </trkpt>
      <trkpt lat="43.21382" lon="6.60518">
        <ele>262</ele>
        <time>2013-09-16T12:26:07.000Z</time>
      </trkpt>
      <trkpt lat="43.21381" lon="6.6052">
        <ele>262</ele>
        <time>2013-09-16T12:26:09.000Z</time>
      </trkpt>
      <trkpt lat="43.21381" lon="6.60521">
        <ele>262</ele>
        <time>2013-09-16T12:26:10.000Z</time>
      </trkpt>
      <trkpt lat="43.2138" lon="6.60522">
        <ele>262</ele>
        <time>2013-09-16T12:26:11.000Z</time>
      </trkpt>
      <trkpt lat="43.2138" lon="6.60522">
        <ele>262</ele>
        <time>2013-09-16T12:26:12.000Z</time>
      </trkpt>
      <trkpt lat="43.21379" lon="6.60522">
        <ele>262</ele>
        <time>2013-09-16T12:26:13.000Z</time>
      </trkpt>
      <trkpt lat="43.21378" lon="6.60522">
        <ele>262</ele>
        <time>2013-09-16T12:26:15.000Z</time>
      </trkpt>
      <trkpt lat="43.21377" lon="6.60522">
        <ele>262</ele>
        <time>2013-09-16T12:26:17.000Z</time>
      </trkpt>
      <trkpt lat="43.21376" lon="6.60522">
        <ele>262</ele>
        <time>2013-09-16T12:26:25.000Z</time>
      </trkpt>
      <trkpt lat="43.21376" lon="6.60522">
        <ele>262</ele>
        <time>2013-09-16T12:26:26.000Z</time>
      </trkpt>
      <trkpt lat="43.21375" lon="6.60521">
        <ele>262</ele>
        <time>2013-09-16T12:26:27.000Z</time>
      </trkpt>
      <trkpt lat="43.21374" lon="6.60521">
        <ele>262</ele>
        <time>2013-09-16T12:26:28.000Z</time>
      </trkpt>
      <trkpt lat="43.21373" lon="6.60521">
        <ele>262</ele>
        <time>2013-09-16T12:26:29.000Z</time>
      </trkpt>
      <trkpt lat="43.21372" lon="6.60521">
        <ele>262</ele>
        <time>2013-09-16T12:26:30.000Z</time>
      </trkpt>
      <trkpt lat="43.21372" lon="6.6052">
        <ele>262</ele>
        <time>2013-09-16T12:26:31.000Z</time>
      </trkpt>
      <trkpt lat="43.21371" lon="6.6052">
        <ele>262</ele>
        <time>2013-09-16T12:26:36.000Z</time>
      </trkpt>
      <trkpt lat="43.2137" lon="6.60518">
        <ele>262</ele>
        <time>2013-09-16T12:26:37.000Z</time>
      </trkpt>
      <trkpt lat="43.21369" lon="6.60518">
        <ele>262</ele>
        <time>2013-09-16T12:26:38.000Z</time>
      </trkpt>
      <trkpt lat="43.21368" lon="6.60517">
        <ele>262</ele>
        <time>2013-09-16T12:26:39.000Z</time>
      </trkpt>
      <trkpt lat="43.21366" lon="6.60518">
        <ele>262</ele>
        <time>2013-09-16T12:26:40.000Z</time>
      </trkpt>
      <trkpt lat="43.21363" lon="6.6052">
        <ele>262</ele>
        <time>2013-09-16T12:26:41.000Z</time>
      </trkpt>
      <trkpt lat="43.21361" lon="6.60522">
        <ele>262</ele>
        <time>2013-09-16T12:26:42.000Z</time>
      </trkpt>
      <trkpt lat="43.21358" lon="6.60524">
        <ele>261</ele>
        <time>2013-09-16T12:26:43.000Z</time>
      </trkpt>
      <trkpt lat="43.21355" lon="6.60526">
        <ele>261</ele>
        <time>2013-09-16T12:26:44.000Z</time>
      </trkpt>
      <trkpt lat="43.21352" lon="6.60529">
        <ele>261</ele>
        <time>2013-09-16T12:26:45.000Z</time>
      </trkpt>
      <trkpt lat="43.21347" lon="6.60532">
        <ele>261</ele>
        <time>2013-09-16T12:26:46.000Z</time>
      </trkpt>
      <trkpt lat="43.21343" lon="6.60535">
        <ele>261</ele>
        <time>2013-09-16T12:26:47.000Z</time>
      </trkpt>
      <trkpt lat="43.21338" lon="6.60537">
        <ele>261</ele>
        <time>2013-09-16T12:26:48.000Z</time>
      </trkpt>
      <trkpt lat="43.21333" lon="6.60539">
        <ele>258</ele>
        <time>2013-09-16T12:26:49.000Z</time>
      </trkpt>
      <trkpt lat="43.21327" lon="6.6054">
        <ele>258</ele>
        <time>2013-09-16T12:26:50.000Z</time>
      </trkpt>
      <trkpt lat="43.2132" lon="6.60539">
        <ele>257</ele>
        <time>2013-09-16T12:26:51.000Z</time>
      </trkpt>
      <trkpt lat="43.21313" lon="6.60538">
        <ele>257</ele>
        <time>2013-09-16T12:26:52.000Z</time>
      </trkpt>
      <trkpt lat="43.21306" lon="6.60536">
        <ele>257</ele>
        <time>2013-09-16T12:26:53.000Z</time>
      </trkpt>
      <trkpt lat="43.21298" lon="6.60534">
        <ele>257</ele>
        <time>2013-09-16T12:26:54.000Z</time>
      </trkpt>
      <trkpt lat="43.21291" lon="6.60531">
        <ele>256</ele>
        <time>2013-09-16T12:26:55.000Z</time>
      </trkpt>
      <trkpt lat="43.21284" lon="6.60529">
        <ele>256</ele>
        <time>2013-09-16T12:26:56.000Z</time>
      </trkpt>
      <trkpt lat="43.21277" lon="6.60528">
        <ele>255</ele>
        <time>2013-09-16T12:26:57.000Z</time>
      </trkpt>
      <trkpt lat="43.21271" lon="6.60527">
        <ele>255</ele>
        <time>2013-09-16T12:26:58.000Z</time>
      </trkpt>
      <trkpt lat="43.21265" lon="6.60528">
        <ele>255</ele>
        <time>2013-09-16T12:26:59.000Z</time>
      </trkpt>
      <trkpt lat="43.21259" lon="6.60531">
        <ele>255</ele>
        <time>2013-09-16T12:27:00.000Z</time>
      </trkpt>
      <trkpt lat="43.21254" lon="6.60536">
        <ele>255</ele>
        <time>2013-09-16T12:27:01.000Z</time>
      </trkpt>
      <trkpt lat="43.2125" lon="6.60542">
        <ele>249</ele>
        <time>2013-09-16T12:27:02.000Z</time>
      </trkpt>
      <trkpt lat="43.21246" lon="6.6055">
        <ele>249</ele>
        <time>2013-09-16T12:27:03.000Z</time>
      </trkpt>
      <trkpt lat="43.21244" lon="6.60557">
        <ele>250</ele>
        <time>2013-09-16T12:27:04.000Z</time>
      </trkpt>
      <trkpt lat="43.21241" lon="6.60565">
        <ele>250</ele>
        <time>2013-09-16T12:27:05.000Z</time>
      </trkpt>
      <trkpt lat="43.21238" lon="6.60572">
        <ele>251</ele>
        <time>2013-09-16T12:27:06.000Z</time>
      </trkpt>
      <trkpt lat="43.21237" lon="6.6058">
        <ele>251</ele>
        <time>2013-09-16T12:27:07.000Z</time>
      </trkpt>
      <trkpt lat="43.21234" lon="6.60587">
        <ele>252</ele>
        <time>2013-09-16T12:27:08.000Z</time>
      </trkpt>
      <trkpt lat="43.21232" lon="6.60595">
        <ele>252</ele>
        <time>2013-09-16T12:27:09.000Z</time>
      </trkpt>
      <trkpt lat="43.21229" lon="6.60602">
        <ele>251</ele>
        <time>2013-09-16T12:27:10.000Z</time>
      </trkpt>
      <trkpt lat="43.21226" lon="6.60609">
        <ele>251</ele>
        <time>2013-09-16T12:27:11.000Z</time>
      </trkpt>
      <trkpt lat="43.21221" lon="6.60615">
        <ele>250</ele>
        <time>2013-09-16T12:27:12.000Z</time>
      </trkpt>
      <trkpt lat="43.21215" lon="6.6062">
        <ele>250</ele>
        <time>2013-09-16T12:27:13.000Z</time>
      </trkpt>
      <trkpt lat="43.21209" lon="6.60624">
        <ele>250</ele>
        <time>2013-09-16T12:27:14.000Z</time>
      </trkpt>
      <trkpt lat="43.21202" lon="6.60626">
        <ele>250</ele>
        <time>2013-09-16T12:27:15.000Z</time>
      </trkpt>
      <trkpt lat="43.21195" lon="6.60629">
        <ele>249</ele>
        <time>2013-09-16T12:27:16.000Z</time>
      </trkpt>
      <trkpt lat="43.21187" lon="6.60633">
        <ele>249</ele>
        <time>2013-09-16T12:27:17.000Z</time>
      </trkpt>
      <trkpt lat="43.2118" lon="6.60636">
        <ele>249</ele>
        <time>2013-09-16T12:27:18.000Z</time>
      </trkpt>
      <trkpt lat="43.21173" lon="6.60638">
        <ele>249</ele>
        <time>2013-09-16T12:27:19.000Z</time>
      </trkpt>
      <trkpt lat="43.21159" lon="6.60636">
        <ele>249</ele>
        <time>2013-09-16T12:27:21.000Z</time>
      </trkpt>
      <trkpt lat="43.21153" lon="6.60632">
        <ele>249</ele>
        <time>2013-09-16T12:27:22.000Z</time>
      </trkpt>
      <trkpt lat="43.21148" lon="6.60628">
        <ele>249</ele>
        <time>2013-09-16T12:27:23.000Z</time>
      </trkpt>
      <trkpt lat="43.21144" lon="6.60624">
        <ele>249</ele>
        <time>2013-09-16T12:27:24.000Z</time>
      </trkpt>
      <trkpt lat="43.2114" lon="6.6062">
        <ele>249</ele>
        <time>2013-09-16T12:27:25.000Z</time>
      </trkpt>
      <trkpt lat="43.21137" lon="6.60617">
        <ele>249</ele>
        <time>2013-09-16T12:27:26.000Z</time>
      </trkpt>
      <trkpt lat="43.21134" lon="6.60614">
        <ele>250</ele>
        <time>2013-09-16T12:27:27.000Z</time>
      </trkpt>
      <trkpt lat="43.21131" lon="6.6061">
        <ele>250</ele>
        <time>2013-09-16T12:27:28.000Z</time>
      </trkpt>
      <trkpt lat="43.21129" lon="6.60607">
        <ele>250</ele>
        <time>2013-09-16T12:27:29.000Z</time>
      </trkpt>
      <trkpt lat="43.21126" lon="6.60604">
        <ele>250</ele>
        <time>2013-09-16T12:27:30.000Z</time>
      </trkpt>
      <trkpt lat="43.21124" lon="6.60601">
        <ele>250</ele>
        <time>2013-09-16T12:27:31.000Z</time>
      </trkpt>
      <trkpt lat="43.21122" lon="6.60599">
        <ele>250</ele>
        <time>2013-09-16T12:27:32.000Z</time>
      </trkpt>
      <trkpt lat="43.2112" lon="6.60596">
        <ele>250</ele>
        <time>2013-09-16T12:27:33.000Z</time>
      </trkpt>
      <trkpt lat="43.21117" lon="6.60593">
        <ele>250</ele>
        <time>2013-09-16T12:27:34.000Z</time>
      </trkpt>
      <trkpt lat="43.21115" lon="6.6059">
        <ele>250</ele>
        <time>2013-09-16T12:27:35.000Z</time>
      </trkpt>
      <trkpt lat="43.21113" lon="6.60587">
        <ele>250</ele>
        <time>2013-09-16T12:27:36.000Z</time>
      </trkpt>
      <trkpt lat="43.21111" lon="6.60584">
        <ele>250</ele>
        <time>2013-09-16T12:27:37.000Z</time>
      </trkpt>
      <trkpt lat="43.21109" lon="6.60582">
        <ele>246</ele>
        <time>2013-09-16T12:27:38.000Z</time>
      </trkpt>
      <trkpt lat="43.21106" lon="6.60578">
        <ele>246</ele>
        <time>2013-09-16T12:27:39.000Z</time>
      </trkpt>
      <trkpt lat="43.21104" lon="6.60575">
        <ele>246</ele>
        <time>2013-09-16T12:27:40.000Z</time>
      </trkpt>
      <trkpt lat="43.21102" lon="6.60572">
        <ele>246</ele>
        <time>2013-09-16T12:27:41.000Z</time>
      </trkpt>
      <trkpt lat="43.211" lon="6.60569">
        <ele>246</ele>
        <time>2013-09-16T12:27:42.000Z</time>
      </trkpt>
      <trkpt lat="43.21097" lon="6.60566">
        <ele>246</ele>
        <time>2013-09-16T12:27:43.000Z</time>
      </trkpt>
      <trkpt lat="43.21095" lon="6.60563">
        <ele>246</ele>
        <time>2013-09-16T12:27:44.000Z</time>
      </trkpt>
      <trkpt lat="43.21092" lon="6.60561">
        <ele>246</ele>
        <time>2013-09-16T12:27:45.000Z</time>
      </trkpt>
      <trkpt lat="43.21089" lon="6.60558">
        <ele>245</ele>
        <time>2013-09-16T12:27:46.000Z</time>
      </trkpt>
      <trkpt lat="43.21086" lon="6.60557">
        <ele>245</ele>
        <time>2013-09-16T12:27:47.000Z</time>
      </trkpt>
      <trkpt lat="43.21083" lon="6.60556">
        <ele>244</ele>
        <time>2013-09-16T12:27:48.000Z</time>
      </trkpt>
      <trkpt lat="43.2108" lon="6.60557">
        <ele>244</ele>
        <time>2013-09-16T12:27:49.000Z</time>
      </trkpt>
      <trkpt lat="43.21076" lon="6.60558">
        <ele>244</ele>
        <time>2013-09-16T12:27:50.000Z</time>
      </trkpt>
      <trkpt lat="43.21072" lon="6.6056">
        <ele>244</ele>
        <time>2013-09-16T12:27:51.000Z</time>
      </trkpt>
      <trkpt lat="43.21067" lon="6.60562">
        <ele>244</ele>
        <time>2013-09-16T12:27:52.000Z</time>
      </trkpt>
      <trkpt lat="43.21063" lon="6.60566">
        <ele>244</ele>
        <time>2013-09-16T12:27:53.000Z</time>
      </trkpt>
      <trkpt lat="43.21059" lon="6.60569">
        <ele>243</ele>
        <time>2013-09-16T12:27:54.000Z</time>
      </trkpt>
      <trkpt lat="43.21055" lon="6.60572">
        <ele>243</ele>
        <time>2013-09-16T12:27:55.000Z</time>
      </trkpt>
      <trkpt lat="43.21051" lon="6.60575">
        <ele>243</ele>
        <time>2013-09-16T12:27:56.000Z</time>
      </trkpt>
      <trkpt lat="43.21047" lon="6.60579">
        <ele>242</ele>
        <time>2013-09-16T12:27:57.000Z</time>
      </trkpt>
      <trkpt lat="43.21042" lon="6.60583">
        <ele>242</ele>
        <time>2013-09-16T12:27:58.000Z</time>
      </trkpt>
      <trkpt lat="43.21037" lon="6.60587">
        <ele>247</ele>
        <time>2013-09-16T12:27:59.000Z</time>
      </trkpt>
      <trkpt lat="43.21032" lon="6.60592">
        <ele>247</ele>
        <time>2013-09-16T12:28:00.000Z</time>
      </trkpt>
      <trkpt lat="43.21027" lon="6.60597">
        <ele>247</ele>
        <time>2013-09-16T12:28:01.000Z</time>
      </trkpt>
      <trkpt lat="43.21022" lon="6.60601">
        <ele>246</ele>
        <time>2013-09-16T12:28:02.000Z</time>
      </trkpt>
      <trkpt lat="43.21017" lon="6.60605">
        <ele>246</ele>
        <time>2013-09-16T12:28:03.000Z</time>
      </trkpt>
      <trkpt lat="43.21011" lon="6.6061">
        <ele>246</ele>
        <time>2013-09-16T12:28:04.000Z</time>
      </trkpt>
      <trkpt lat="43.21006" lon="6.60615">
        <ele>247</ele>
        <time>2013-09-16T12:28:05.000Z</time>
      </trkpt>
      <trkpt lat="43.21001" lon="6.60619">
        <ele>247</ele>
        <time>2013-09-16T12:28:06.000Z</time>
      </trkpt>
      <trkpt lat="43.20996" lon="6.60623">
        <ele>241</ele>
        <time>2013-09-16T12:28:07.000Z</time>
      </trkpt>
      <trkpt lat="43.2099" lon="6.60628">
        <ele>241</ele>
        <time>2013-09-16T12:28:08.000Z</time>
      </trkpt>
      <trkpt lat="43.20984" lon="6.60632">
        <ele>241</ele>
        <time>2013-09-16T12:28:09.000Z</time>
      </trkpt>
      <trkpt lat="43.20979" lon="6.60637">
        <ele>241</ele>
        <time>2013-09-16T12:28:10.000Z</time>
      </trkpt>
      <trkpt lat="43.20973" lon="6.60641">
        <ele>240</ele>
        <time>2013-09-16T12:28:11.000Z</time>
      </trkpt>
      <trkpt lat="43.20967" lon="6.60645">
        <ele>240</ele>
        <time>2013-09-16T12:28:12.000Z</time>
      </trkpt>
      <trkpt lat="43.20962" lon="6.60649">
        <ele>240</ele>
        <time>2013-09-16T12:28:13.000Z</time>
      </trkpt>
      <trkpt lat="43.20957" lon="6.60653">
        <ele>239</ele>
        <time>2013-09-16T12:28:14.000Z</time>
      </trkpt>
      <trkpt lat="43.20951" lon="6.60657">
        <ele>239</ele>
        <time>2013-09-16T12:28:15.000Z</time>
      </trkpt>
      <trkpt lat="43.20946" lon="6.6066">
        <ele>238</ele>
        <time>2013-09-16T12:28:16.000Z</time>
      </trkpt>
      <trkpt lat="43.2094" lon="6.60663">
        <ele>238</ele>
        <time>2013-09-16T12:28:17.000Z</time>
      </trkpt>
      <trkpt lat="43.20934" lon="6.60665">
        <ele>237</ele>
        <time>2013-09-16T12:28:18.000Z</time>
      </trkpt>
      <trkpt lat="43.20927" lon="6.60668">
        <ele>238</ele>
        <time>2013-09-16T12:28:19.000Z</time>
      </trkpt>
      <trkpt lat="43.20922" lon="6.60671">
        <ele>237</ele>
        <time>2013-09-16T12:28:20.000Z</time>
      </trkpt>
      <trkpt lat="43.20917" lon="6.60675">
        <ele>238</ele>
        <time>2013-09-16T12:28:21.000Z</time>
      </trkpt>
      <trkpt lat="43.20913" lon="6.60681">
        <ele>233</ele>
        <time>2013-09-16T12:28:22.000Z</time>
      </trkpt>
      <trkpt lat="43.20909" lon="6.60689">
        <ele>232</ele>
        <time>2013-09-16T12:28:23.000Z</time>
      </trkpt>
      <trkpt lat="43.20907" lon="6.60697">
        <ele>231</ele>
        <time>2013-09-16T12:28:24.000Z</time>
      </trkpt>
      <trkpt lat="43.20905" lon="6.60705">
        <ele>231</ele>
        <time>2013-09-16T12:28:25.000Z</time>
      </trkpt>
      <trkpt lat="43.20903" lon="6.60713">
        <ele>230</ele>
        <time>2013-09-16T12:28:26.000Z</time>
      </trkpt>
      <trkpt lat="43.209" lon="6.60721">
        <ele>230</ele>
        <time>2013-09-16T12:28:27.000Z</time>
      </trkpt>
      <trkpt lat="43.20898" lon="6.6073">
        <ele>231</ele>
        <time>2013-09-16T12:28:28.000Z</time>
      </trkpt>
      <trkpt lat="43.20896" lon="6.60738">
        <ele>231</ele>
        <time>2013-09-16T12:28:29.000Z</time>
      </trkpt>
      <trkpt lat="43.20893" lon="6.60746">
        <ele>231</ele>
        <time>2013-09-16T12:28:30.000Z</time>
      </trkpt>
      <trkpt lat="43.20891" lon="6.60754">
        <ele>228</ele>
        <time>2013-09-16T12:28:31.000Z</time>
      </trkpt>
      <trkpt lat="43.20888" lon="6.60762">
        <ele>227</ele>
        <time>2013-09-16T12:28:32.000Z</time>
      </trkpt>
      <trkpt lat="43.20886" lon="6.60769">
        <ele>226</ele>
        <time>2013-09-16T12:28:33.000Z</time>
      </trkpt>
      <trkpt lat="43.20883" lon="6.60777">
        <ele>226</ele>
        <time>2013-09-16T12:28:34.000Z</time>
      </trkpt>
      <trkpt lat="43.20881" lon="6.60784">
        <ele>225</ele>
        <time>2013-09-16T12:28:35.000Z</time>
      </trkpt>
      <trkpt lat="43.2088" lon="6.60792">
        <ele>224</ele>
        <time>2013-09-16T12:28:36.000Z</time>
      </trkpt>
      <trkpt lat="43.20879" lon="6.608">
        <ele>224</ele>
        <time>2013-09-16T12:28:37.000Z</time>
      </trkpt>
      <trkpt lat="43.20879" lon="6.60808">
        <ele>224</ele>
        <time>2013-09-16T12:28:38.000Z</time>
      </trkpt>
      <trkpt lat="43.20881" lon="6.60815">
        <ele>224</ele>
        <time>2013-09-16T12:28:39.000Z</time>
      </trkpt>
      <trkpt lat="43.20885" lon="6.60822">
        <ele>224</ele>
        <time>2013-09-16T12:28:40.000Z</time>
      </trkpt>
      <trkpt lat="43.2089" lon="6.60827">
        <ele>225</ele>
        <time>2013-09-16T12:28:41.000Z</time>
      </trkpt>
      <trkpt lat="43.20896" lon="6.60833">
        <ele>225</ele>
        <time>2013-09-16T12:28:42.000Z</time>
      </trkpt>
      <trkpt lat="43.20902" lon="6.60839">
        <ele>222</ele>
        <time>2013-09-16T12:28:43.000Z</time>
      </trkpt>
      <trkpt lat="43.20907" lon="6.60845">
        <ele>222</ele>
        <time>2013-09-16T12:28:44.000Z</time>
      </trkpt>
      <trkpt lat="43.20911" lon="6.60851">
        <ele>221</ele>
        <time>2013-09-16T12:28:45.000Z</time>
      </trkpt>
      <trkpt lat="43.20914" lon="6.60857">
        <ele>220</ele>
        <time>2013-09-16T12:28:46.000Z</time>
      </trkpt>
      <trkpt lat="43.20918" lon="6.60863">
        <ele>223</ele>
        <time>2013-09-16T12:28:47.000Z</time>
      </trkpt>
      <trkpt lat="43.20921" lon="6.6087">
        <ele>222</ele>
        <time>2013-09-16T12:28:48.000Z</time>
      </trkpt>
      <trkpt lat="43.20924" lon="6.60876">
        <ele>222</ele>
        <time>2013-09-16T12:28:49.000Z</time>
      </trkpt>
      <trkpt lat="43.20928" lon="6.60883">
        <ele>221</ele>
        <time>2013-09-16T12:28:50.000Z</time>
      </trkpt>
      <trkpt lat="43.20932" lon="6.60888">
        <ele>220</ele>
        <time>2013-09-16T12:28:51.000Z</time>
      </trkpt>
      <trkpt lat="43.20936" lon="6.60893">
        <ele>220</ele>
        <time>2013-09-16T12:28:52.000Z</time>
      </trkpt>
      <trkpt lat="43.20941" lon="6.60896">
        <ele>220</ele>
        <time>2013-09-16T12:28:53.000Z</time>
      </trkpt>
      <trkpt lat="43.20947" lon="6.60898">
        <ele>220</ele>
        <time>2013-09-16T12:28:54.000Z</time>
      </trkpt>
      <trkpt lat="43.20951" lon="6.609">
        <ele>219</ele>
        <time>2013-09-16T12:28:55.000Z</time>
      </trkpt>
      <trkpt lat="43.20956" lon="6.60901">
        <ele>219</ele>
        <time>2013-09-16T12:28:56.000Z</time>
      </trkpt>
      <trkpt lat="43.20962" lon="6.60902">
        <ele>219</ele>
        <time>2013-09-16T12:28:57.000Z</time>
      </trkpt>
      <trkpt lat="43.20967" lon="6.60902">
        <ele>219</ele>
        <time>2013-09-16T12:28:58.000Z</time>
      </trkpt>
      <trkpt lat="43.20979" lon="6.60901">
        <ele>218</ele>
        <time>2013-09-16T12:29:00.000Z</time>
      </trkpt>
      <trkpt lat="43.20985" lon="6.609">
        <ele>218</ele>
        <time>2013-09-16T12:29:01.000Z</time>
      </trkpt>
      <trkpt lat="43.20991" lon="6.60899">
        <ele>217</ele>
        <time>2013-09-16T12:29:02.000Z</time>
      </trkpt>
      <trkpt lat="43.20998" lon="6.60897">
        <ele>217</ele>
        <time>2013-09-16T12:29:03.000Z</time>
      </trkpt>
      <trkpt lat="43.21004" lon="6.60895">
        <ele>216</ele>
        <time>2013-09-16T12:29:04.000Z</time>
      </trkpt>
      <trkpt lat="43.21011" lon="6.60894">
        <ele>216</ele>
        <time>2013-09-16T12:29:05.000Z</time>
      </trkpt>
      <trkpt lat="43.21018" lon="6.60895">
        <ele>216</ele>
        <time>2013-09-16T12:29:06.000Z</time>
      </trkpt>
      <trkpt lat="43.21024" lon="6.60895">
        <ele>216</ele>
        <time>2013-09-16T12:29:07.000Z</time>
      </trkpt>
      <trkpt lat="43.21031" lon="6.60896">
        <ele>216</ele>
        <time>2013-09-16T12:29:08.000Z</time>
      </trkpt>
      <trkpt lat="43.21037" lon="6.60895">
        <ele>216</ele>
        <time>2013-09-16T12:29:09.000Z</time>
      </trkpt>
      <trkpt lat="43.21044" lon="6.60893">
        <ele>216</ele>
        <time>2013-09-16T12:29:10.000Z</time>
      </trkpt>
      <trkpt lat="43.2105" lon="6.6089">
        <ele>216</ele>
        <time>2013-09-16T12:29:11.000Z</time>
      </trkpt>
      <trkpt lat="43.21055" lon="6.60886">
        <ele>216</ele>
        <time>2013-09-16T12:29:12.000Z</time>
      </trkpt>
      <trkpt lat="43.21059" lon="6.60882">
        <ele>217</ele>
        <time>2013-09-16T12:29:13.000Z</time>
      </trkpt>
      <trkpt lat="43.21063" lon="6.60878">
        <ele>217</ele>
        <time>2013-09-16T12:29:14.000Z</time>
      </trkpt>
      <trkpt lat="43.21066" lon="6.60873">
        <ele>218</ele>
        <time>2013-09-16T12:29:15.000Z</time>
      </trkpt>
      <trkpt lat="43.2107" lon="6.60869">
        <ele>218</ele>
        <time>2013-09-16T12:29:16.000Z</time>
      </trkpt>
      <trkpt lat="43.21075" lon="6.60866">
        <ele>218</ele>
        <time>2013-09-16T12:29:17.000Z</time>
      </trkpt>
      <trkpt lat="43.21079" lon="6.60865">
        <ele>219</ele>
        <time>2013-09-16T12:29:18.000Z</time>
      </trkpt>
      <trkpt lat="43.21085" lon="6.60864">
        <ele>218</ele>
        <time>2013-09-16T12:29:19.000Z</time>
      </trkpt>
      <trkpt lat="43.2109" lon="6.60864">
        <ele>218</ele>
        <time>2013-09-16T12:29:20.000Z</time>
      </trkpt>
      <trkpt lat="43.21095" lon="6.60866">
        <ele>218</ele>
        <time>2013-09-16T12:29:21.000Z</time>
      </trkpt>
      <trkpt lat="43.211" lon="6.60868">
        <ele>218</ele>
        <time>2013-09-16T12:29:22.000Z</time>
      </trkpt>
      <trkpt lat="43.21105" lon="6.60873">
        <ele>218</ele>
        <time>2013-09-16T12:29:23.000Z</time>
      </trkpt>
      <trkpt lat="43.21107" lon="6.60879">
        <ele>217</ele>
        <time>2013-09-16T12:29:24.000Z</time>
      </trkpt>
      <trkpt lat="43.21108" lon="6.60886">
        <ele>216</ele>
        <time>2013-09-16T12:29:25.000Z</time>
      </trkpt>
      <trkpt lat="43.21108" lon="6.60894">
        <ele>215</ele>
        <time>2013-09-16T12:29:26.000Z</time>
      </trkpt>
      <trkpt lat="43.21109" lon="6.60903">
        <ele>214</ele>
        <time>2013-09-16T12:29:27.000Z</time>
      </trkpt>
      <trkpt lat="43.21109" lon="6.60912">
        <ele>213</ele>
        <time>2013-09-16T12:29:28.000Z</time>
      </trkpt>
      <trkpt lat="43.21109" lon="6.60922">
        <ele>204</ele>
        <time>2013-09-16T12:29:29.000Z</time>
      </trkpt>
      <trkpt lat="43.2111" lon="6.60932">
        <ele>203</ele>
        <time>2013-09-16T12:29:30.000Z</time>
      </trkpt>
      <trkpt lat="43.21111" lon="6.60943">
        <ele>202</ele>
        <time>2013-09-16T12:29:31.000Z</time>
      </trkpt>
      <trkpt lat="43.21112" lon="6.60953">
        <ele>201</ele>
        <time>2013-09-16T12:29:32.000Z</time>
      </trkpt>
      <trkpt lat="43.21113" lon="6.60963">
        <ele>200</ele>
        <time>2013-09-16T12:29:33.000Z</time>
      </trkpt>
      <trkpt lat="43.21114" lon="6.60973">
        <ele>199</ele>
        <time>2013-09-16T12:29:34.000Z</time>
      </trkpt>
      <trkpt lat="43.21115" lon="6.60983">
        <ele>198</ele>
        <time>2013-09-16T12:29:35.000Z</time>
      </trkpt>
      <trkpt lat="43.21116" lon="6.60992">
        <ele>197</ele>
        <time>2013-09-16T12:29:36.000Z</time>
      </trkpt>
      <trkpt lat="43.21117" lon="6.61">
        <ele>187</ele>
        <time>2013-09-16T12:29:37.000Z</time>
      </trkpt>
      <trkpt lat="43.21118" lon="6.61008">
        <ele>187</ele>
        <time>2013-09-16T12:29:38.000Z</time>
      </trkpt>
      <trkpt lat="43.21119" lon="6.61015">
        <ele>187</ele>
        <time>2013-09-16T12:29:39.000Z</time>
      </trkpt>
      <trkpt lat="43.21121" lon="6.61021">
        <ele>187</ele>
        <time>2013-09-16T12:29:40.000Z</time>
      </trkpt>
      <trkpt lat="43.21123" lon="6.61026">
        <ele>186</ele>
        <time>2013-09-16T12:29:41.000Z</time>
      </trkpt>
      <trkpt lat="43.21126" lon="6.61031">
        <ele>186</ele>
        <time>2013-09-16T12:29:42.000Z</time>
      </trkpt>
      <trkpt lat="43.2113" lon="6.61035">
        <ele>186</ele>
        <time>2013-09-16T12:29:43.000Z</time>
      </trkpt>
      <trkpt lat="43.21134" lon="6.61038">
        <ele>186</ele>
        <time>2013-09-16T12:29:44.000Z</time>
      </trkpt>
      <trkpt lat="43.21139" lon="6.6104">
        <ele>186</ele>
        <time>2013-09-16T12:29:45.000Z</time>
      </trkpt>
      <trkpt lat="43.21144" lon="6.61041">
        <ele>186</ele>
        <time>2013-09-16T12:29:46.000Z</time>
      </trkpt>
      <trkpt lat="43.2115" lon="6.6104">
        <ele>186</ele>
        <time>2013-09-16T12:29:47.000Z</time>
      </trkpt>
      <trkpt lat="43.21157" lon="6.61039">
        <ele>187</ele>
        <time>2013-09-16T12:29:48.000Z</time>
      </trkpt>
      <trkpt lat="43.21163" lon="6.61037">
        <ele>187</ele>
        <time>2013-09-16T12:29:49.000Z</time>
      </trkpt>
      <trkpt lat="43.2117" lon="6.61034">
        <ele>187</ele>
        <time>2013-09-16T12:29:50.000Z</time>
      </trkpt>
      <trkpt lat="43.21175" lon="6.61033">
        <ele>188</ele>
        <time>2013-09-16T12:29:51.000Z</time>
      </trkpt>
      <trkpt lat="43.2118" lon="6.61032">
        <ele>187</ele>
        <time>2013-09-16T12:29:52.000Z</time>
      </trkpt>
      <trkpt lat="43.21184" lon="6.61031">
        <ele>187</ele>
        <time>2013-09-16T12:29:53.000Z</time>
      </trkpt>
      <trkpt lat="43.21187" lon="6.61031">
        <ele>187</ele>
        <time>2013-09-16T12:29:54.000Z</time>
      </trkpt>
      <trkpt lat="43.21191" lon="6.6103">
        <ele>187</ele>
        <time>2013-09-16T12:29:55.000Z</time>
      </trkpt>
      <trkpt lat="43.21194" lon="6.6103">
        <ele>187</ele>
        <time>2013-09-16T12:29:56.000Z</time>
      </trkpt>
      <trkpt lat="43.21197" lon="6.6103">
        <ele>187</ele>
        <time>2013-09-16T12:29:57.000Z</time>
      </trkpt>
      <trkpt lat="43.21199" lon="6.6103">
        <ele>186</ele>
        <time>2013-09-16T12:29:58.000Z</time>
      </trkpt>
      <trkpt lat="43.21202" lon="6.6103">
        <ele>186</ele>
        <time>2013-09-16T12:29:59.000Z</time>
      </trkpt>
      <trkpt lat="43.21204" lon="6.6103">
        <ele>186</ele>
        <time>2013-09-16T12:30:00.000Z</time>
      </trkpt>
      <trkpt lat="43.21206" lon="6.6103">
        <ele>186</ele>
        <time>2013-09-16T12:30:01.000Z</time>
      </trkpt>
      <trkpt lat="43.21209" lon="6.61029">
        <ele>186</ele>
        <time>2013-09-16T12:30:02.000Z</time>
      </trkpt>
      <trkpt lat="43.21212" lon="6.61028">
        <ele>186</ele>
        <time>2013-09-16T12:30:03.000Z</time>
      </trkpt>
      <trkpt lat="43.21216" lon="6.61026">
        <ele>186</ele>
        <time>2013-09-16T12:30:04.000Z</time>
      </trkpt>
      <trkpt lat="43.2122" lon="6.61025">
        <ele>186</ele>
        <time>2013-09-16T12:30:05.000Z</time>
      </trkpt>
      <trkpt lat="43.21224" lon="6.61023">
        <ele>186</ele>
        <time>2013-09-16T12:30:06.000Z</time>
      </trkpt>
      <trkpt lat="43.21227" lon="6.61021">
        <ele>186</ele>
        <time>2013-09-16T12:30:07.000Z</time>
      </trkpt>
      <trkpt lat="43.21231" lon="6.6102">
        <ele>186</ele>
        <time>2013-09-16T12:30:08.000Z</time>
      </trkpt>
      <trkpt lat="43.21235" lon="6.61018">
        <ele>187</ele>
        <time>2013-09-16T12:30:09.000Z</time>
      </trkpt>
      <trkpt lat="43.21239" lon="6.61016">
        <ele>187</ele>
        <time>2013-09-16T12:30:10.000Z</time>
      </trkpt>
      <trkpt lat="43.21244" lon="6.61014">
        <ele>187</ele>
        <time>2013-09-16T12:30:11.000Z</time>
      </trkpt>
      <trkpt lat="43.21248" lon="6.61012">
        <ele>188</ele>
        <time>2013-09-16T12:30:12.000Z</time>
      </trkpt>
      <trkpt lat="43.21252" lon="6.61011">
        <ele>185</ele>
        <time>2013-09-16T12:30:13.000Z</time>
      </trkpt>
      <trkpt lat="43.21257" lon="6.61011">
        <ele>185</ele>
        <time>2013-09-16T12:30:14.000Z</time>
      </trkpt>
      <trkpt lat="43.21262" lon="6.61012">
        <ele>184</ele>
        <time>2013-09-16T12:30:15.000Z</time>
      </trkpt>
      <trkpt lat="43.21268" lon="6.61014">
        <ele>183</ele>
        <time>2013-09-16T12:30:16.000Z</time>
      </trkpt>
      <trkpt lat="43.21272" lon="6.61016">
        <ele>182</ele>
        <time>2013-09-16T12:30:17.000Z</time>
      </trkpt>
      <trkpt lat="43.21277" lon="6.6102">
        <ele>181</ele>
        <time>2013-09-16T12:30:18.000Z</time>
      </trkpt>
      <trkpt lat="43.21281" lon="6.61023">
        <ele>180</ele>
        <time>2013-09-16T12:30:19.000Z</time>
      </trkpt>
      <trkpt lat="43.21285" lon="6.61026">
        <ele>180</ele>
        <time>2013-09-16T12:30:20.000Z</time>
      </trkpt>
      <trkpt lat="43.21289" lon="6.6103">
        <ele>179</ele>
        <time>2013-09-16T12:30:21.000Z</time>
      </trkpt>
      <trkpt lat="43.21293" lon="6.61033">
        <ele>178</ele>
        <time>2013-09-16T12:30:22.000Z</time>
      </trkpt>
      <trkpt lat="43.21297" lon="6.61036">
        <ele>178</ele>
        <time>2013-09-16T12:30:23.000Z</time>
      </trkpt>
      <trkpt lat="43.21301" lon="6.61038">
        <ele>177</ele>
        <time>2013-09-16T12:30:24.000Z</time>
      </trkpt>
      <trkpt lat="43.21306" lon="6.61039">
        <ele>177</ele>
        <time>2013-09-16T12:30:25.000Z</time>
      </trkpt>
      <trkpt lat="43.21311" lon="6.61038">
        <ele>177</ele>
        <time>2013-09-16T12:30:26.000Z</time>
      </trkpt>
      <trkpt lat="43.21316" lon="6.61036">
        <ele>177</ele>
        <time>2013-09-16T12:30:27.000Z</time>
      </trkpt>
      <trkpt lat="43.2132" lon="6.61034">
        <ele>178</ele>
        <time>2013-09-16T12:30:28.000Z</time>
      </trkpt>
      <trkpt lat="43.21325" lon="6.61031">
        <ele>179</ele>
        <time>2013-09-16T12:30:29.000Z</time>
      </trkpt>
      <trkpt lat="43.2133" lon="6.61027">
        <ele>179</ele>
        <time>2013-09-16T12:30:30.000Z</time>
      </trkpt>
      <trkpt lat="43.21335" lon="6.61023">
        <ele>175</ele>
        <time>2013-09-16T12:30:31.000Z</time>
      </trkpt>
      <trkpt lat="43.21339" lon="6.6102">
        <ele>176</ele>
        <time>2013-09-16T12:30:32.000Z</time>
      </trkpt>
      <trkpt lat="43.21344" lon="6.61016">
        <ele>176</ele>
        <time>2013-09-16T12:30:33.000Z</time>
      </trkpt>
      <trkpt lat="43.21348" lon="6.61014">
        <ele>176</ele>
        <time>2013-09-16T12:30:34.000Z</time>
      </trkpt>
      <trkpt lat="43.21353" lon="6.61011">
        <ele>176</ele>
        <time>2013-09-16T12:30:35.000Z</time>
      </trkpt>
      <trkpt lat="43.21357" lon="6.61008">
        <ele>175</ele>
        <time>2013-09-16T12:30:36.000Z</time>
      </trkpt>
      <trkpt lat="43.21361" lon="6.61006">
        <ele>174</ele>
        <time>2013-09-16T12:30:37.000Z</time>
      </trkpt>
      <trkpt lat="43.21365" lon="6.61005">
        <ele>173</ele>
        <time>2013-09-16T12:30:38.000Z</time>
      </trkpt>
      <trkpt lat="43.21369" lon="6.61003">
        <ele>173</ele>
        <time>2013-09-16T12:30:39.000Z</time>
      </trkpt>
      <trkpt lat="43.21374" lon="6.61003">
        <ele>172</ele>
        <time>2013-09-16T12:30:40.000Z</time>
      </trkpt>
      <trkpt lat="43.21378" lon="6.61004">
        <ele>171</ele>
        <time>2013-09-16T12:30:41.000Z</time>
      </trkpt>
      <trkpt lat="43.21382" lon="6.61007">
        <ele>171</ele>
        <time>2013-09-16T12:30:42.000Z</time>
      </trkpt>
      <trkpt lat="43.21385" lon="6.61011">
        <ele>170</ele>
        <time>2013-09-16T12:30:43.000Z</time>
      </trkpt>
      <trkpt lat="43.21389" lon="6.61015">
        <ele>170</ele>
        <time>2013-09-16T12:30:44.000Z</time>
      </trkpt>
      <trkpt lat="43.21393" lon="6.61018">
        <ele>169</ele>
        <time>2013-09-16T12:30:45.000Z</time>
      </trkpt>
      <trkpt lat="43.21398" lon="6.6102">
        <ele>169</ele>
        <time>2013-09-16T12:30:46.000Z</time>
      </trkpt>
      <trkpt lat="43.21404" lon="6.61021">
        <ele>168</ele>
        <time>2013-09-16T12:30:47.000Z</time>
      </trkpt>
      <trkpt lat="43.21409" lon="6.61021">
        <ele>168</ele>
        <time>2013-09-16T12:30:48.000Z</time>
      </trkpt>
      <trkpt lat="43.21415" lon="6.61019">
        <ele>168</ele>
        <time>2013-09-16T12:30:49.000Z</time>
      </trkpt>
      <trkpt lat="43.2142" lon="6.61016">
        <ele>167</ele>
        <time>2013-09-16T12:30:50.000Z</time>
      </trkpt>
      <trkpt lat="43.21426" lon="6.61012">
        <ele>167</ele>
        <time>2013-09-16T12:30:51.000Z</time>
      </trkpt>
      <trkpt lat="43.21431" lon="6.61009">
        <ele>167</ele>
        <time>2013-09-16T12:30:52.000Z</time>
      </trkpt>
      <trkpt lat="43.21436" lon="6.61006">
        <ele>167</ele>
        <time>2013-09-16T12:30:53.000Z</time>
      </trkpt>
      <trkpt lat="43.2144" lon="6.61003">
        <ele>167</ele>
        <time>2013-09-16T12:30:54.000Z</time>
      </trkpt>
      <trkpt lat="43.21445" lon="6.61003">
        <ele>167</ele>
        <time>2013-09-16T12:30:55.000Z</time>
      </trkpt>
      <trkpt lat="43.21449" lon="6.61003">
        <ele>167</ele>
        <time>2013-09-16T12:30:56.000Z</time>
      </trkpt>
      <trkpt lat="43.21453" lon="6.61005">
        <ele>167</ele>
        <time>2013-09-16T12:30:57.000Z</time>
      </trkpt>
      <trkpt lat="43.21457" lon="6.61009">
        <ele>166</ele>
        <time>2013-09-16T12:30:58.000Z</time>
      </trkpt>
      <trkpt lat="43.2146" lon="6.61014">
        <ele>166</ele>
        <time>2013-09-16T12:30:59.000Z</time>
      </trkpt>
      <trkpt lat="43.21462" lon="6.61021">
        <ele>166</ele>
        <time>2013-09-16T12:31:00.000Z</time>
      </trkpt>
      <trkpt lat="43.21461" lon="6.61028">
        <ele>165</ele>
        <time>2013-09-16T12:31:01.000Z</time>
      </trkpt>
      <trkpt lat="43.2146" lon="6.61035">
        <ele>164</ele>
        <time>2013-09-16T12:31:02.000Z</time>
      </trkpt>
      <trkpt lat="43.21458" lon="6.61043">
        <ele>164</ele>
        <time>2013-09-16T12:31:03.000Z</time>
      </trkpt>
      <trkpt lat="43.21457" lon="6.6105">
        <ele>163</ele>
        <time>2013-09-16T12:31:04.000Z</time>
      </trkpt>
      <trkpt lat="43.21457" lon="6.61057">
        <ele>162</ele>
        <time>2013-09-16T12:31:05.000Z</time>
      </trkpt>
      <trkpt lat="43.21457" lon="6.61064">
        <ele>162</ele>
        <time>2013-09-16T12:31:06.000Z</time>
      </trkpt>
      <trkpt lat="43.21458" lon="6.6107">
        <ele>161</ele>
        <time>2013-09-16T12:31:07.000Z</time>
      </trkpt>
      <trkpt lat="43.2146" lon="6.61075">
        <ele>161</ele>
        <time>2013-09-16T12:31:08.000Z</time>
      </trkpt>
      <trkpt lat="43.21462" lon="6.6108">
        <ele>161</ele>
        <time>2013-09-16T12:31:09.000Z</time>
      </trkpt>
      <trkpt lat="43.21464" lon="6.61085">
        <ele>150</ele>
        <time>2013-09-16T12:31:10.000Z</time>
      </trkpt>
      <trkpt lat="43.21465" lon="6.61089">
        <ele>150</ele>
        <time>2013-09-16T12:31:11.000Z</time>
      </trkpt>
      <trkpt lat="43.21467" lon="6.61093">
        <ele>150</ele>
        <time>2013-09-16T12:31:12.000Z</time>
      </trkpt>
      <trkpt lat="43.21468" lon="6.61097">
        <ele>150</ele>
        <time>2013-09-16T12:31:13.000Z</time>
      </trkpt>
      <trkpt lat="43.2147" lon="6.61102">
        <ele>150</ele>
        <time>2013-09-16T12:31:14.000Z</time>
      </trkpt>
      <trkpt lat="43.21471" lon="6.61106">
        <ele>149</ele>
        <time>2013-09-16T12:31:15.000Z</time>
      </trkpt>
      <trkpt lat="43.21473" lon="6.6111">
        <ele>149</ele>
        <time>2013-09-16T12:31:16.000Z</time>
      </trkpt>
      <trkpt lat="43.21475" lon="6.61114">
        <ele>148</ele>
        <time>2013-09-16T12:31:17.000Z</time>
      </trkpt>
      <trkpt lat="43.21477" lon="6.61119">
        <ele>148</ele>
        <time>2013-09-16T12:31:18.000Z</time>
      </trkpt>
      <trkpt lat="43.2148" lon="6.61126">
        <ele>147</ele>
        <time>2013-09-16T12:31:19.000Z</time>
      </trkpt>
      <trkpt lat="43.21484" lon="6.61132">
        <ele>147</ele>
        <time>2013-09-16T12:31:20.000Z</time>
      </trkpt>
      <trkpt lat="43.21488" lon="6.61138">
        <ele>146</ele>
        <time>2013-09-16T12:31:21.000Z</time>
      </trkpt>
      <trkpt lat="43.21493" lon="6.61144">
        <ele>145</ele>
        <time>2013-09-16T12:31:22.000Z</time>
      </trkpt>
      <trkpt lat="43.21496" lon="6.6115">
        <ele>145</ele>
        <time>2013-09-16T12:31:23.000Z</time>
      </trkpt>
      <trkpt lat="43.21499" lon="6.61155">
        <ele>144</ele>
        <time>2013-09-16T12:31:24.000Z</time>
      </trkpt>
      <trkpt lat="43.21502" lon="6.6116">
        <ele>144</ele>
        <time>2013-09-16T12:31:25.000Z</time>
      </trkpt>
      <trkpt lat="43.21504" lon="6.61165">
        <ele>143</ele>
        <time>2013-09-16T12:31:26.000Z</time>
      </trkpt>
      <trkpt lat="43.21507" lon="6.61171">
        <ele>141</ele>
        <time>2013-09-16T12:31:27.000Z</time>
      </trkpt>
      <trkpt lat="43.21509" lon="6.61177">
        <ele>140</ele>
        <time>2013-09-16T12:31:28.000Z</time>
      </trkpt>
      <trkpt lat="43.21512" lon="6.61183">
        <ele>140</ele>
        <time>2013-09-16T12:31:29.000Z</time>
      </trkpt>
      <trkpt lat="43.21515" lon="6.61188">
        <ele>139</ele>
        <time>2013-09-16T12:31:30.000Z</time>
      </trkpt>
      <trkpt lat="43.21516" lon="6.61193">
        <ele>139</ele>
        <time>2013-09-16T12:31:31.000Z</time>
      </trkpt>
      <trkpt lat="43.21518" lon="6.61196">
        <ele>139</ele>
        <time>2013-09-16T12:31:32.000Z</time>
      </trkpt>
      <trkpt lat="43.21519" lon="6.61199">
        <ele>138</ele>
        <time>2013-09-16T12:31:33.000Z</time>
      </trkpt>
      <trkpt lat="43.2152" lon="6.61202">
        <ele>138</ele>
        <time>2013-09-16T12:31:34.000Z</time>
      </trkpt>
      <trkpt lat="43.21522" lon="6.61205">
        <ele>138</ele>
        <time>2013-09-16T12:31:35.000Z</time>
      </trkpt>
      <trkpt lat="43.21524" lon="6.61208">
        <ele>138</ele>
        <time>2013-09-16T12:31:36.000Z</time>
      </trkpt>
      <trkpt lat="43.21526" lon="6.6121">
        <ele>138</ele>
        <time>2013-09-16T12:31:37.000Z</time>
      </trkpt>
      <trkpt lat="43.21528" lon="6.61211">
        <ele>138</ele>
        <time>2013-09-16T12:31:38.000Z</time>
      </trkpt>
      <trkpt lat="43.2153" lon="6.61213">
        <ele>137</ele>
        <time>2013-09-16T12:31:39.000Z</time>
      </trkpt>
      <trkpt lat="43.21532" lon="6.61214">
        <ele>137</ele>
        <time>2013-09-16T12:31:40.000Z</time>
      </trkpt>
      <trkpt lat="43.21534" lon="6.61215">
        <ele>137</ele>
        <time>2013-09-16T12:31:41.000Z</time>
      </trkpt>
      <trkpt lat="43.21536" lon="6.61216">
        <ele>137</ele>
        <time>2013-09-16T12:31:42.000Z</time>
      </trkpt>
      <trkpt lat="43.21537" lon="6.61217">
        <ele>137</ele>
        <time>2013-09-16T12:31:43.000Z</time>
      </trkpt>
      <trkpt lat="43.21538" lon="6.61217">
        <ele>137</ele>
        <time>2013-09-16T12:31:44.000Z</time>
      </trkpt>
      <trkpt lat="43.2154" lon="6.61217">
        <ele>137</ele>
        <time>2013-09-16T12:31:45.000Z</time>
      </trkpt>
      <trkpt lat="43.21542" lon="6.61217">
        <ele>137</ele>
        <time>2013-09-16T12:31:46.000Z</time>
      </trkpt>
      <trkpt lat="43.21544" lon="6.61217">
        <ele>137</ele>
        <time>2013-09-16T12:31:47.000Z</time>
      </trkpt>
      <trkpt lat="43.21546" lon="6.61217">
        <ele>137</ele>
        <time>2013-09-16T12:31:48.000Z</time>
      </trkpt>
      <trkpt lat="43.21547" lon="6.61216">
        <ele>137</ele>
        <time>2013-09-16T12:31:49.000Z</time>
      </trkpt>
      <trkpt lat="43.21548" lon="6.61215">
        <ele>137</ele>
        <time>2013-09-16T12:31:50.000Z</time>
      </trkpt>
      <trkpt lat="43.21549" lon="6.61214">
        <ele>137</ele>
        <time>2013-09-16T12:31:51.000Z</time>
      </trkpt>
      <trkpt lat="43.21548" lon="6.61214">
        <ele>137</ele>
        <time>2013-09-16T12:31:59.000Z</time>
      </trkpt>
      <trkpt lat="43.21549" lon="6.61214">
        <ele>137</ele>
        <time>2013-09-16T12:32:01.000Z</time>
      </trkpt>
      <trkpt lat="43.2155" lon="6.61212">
        <ele>137</ele>
        <time>2013-09-16T12:32:02.000Z</time>
      </trkpt>
      <trkpt lat="43.21552" lon="6.6121">
        <ele>137</ele>
        <time>2013-09-16T12:32:03.000Z</time>
      </trkpt>
      <trkpt lat="43.21554" lon="6.61208">
        <ele>137</ele>
        <time>2013-09-16T12:32:04.000Z</time>
      </trkpt>
      <trkpt lat="43.21555" lon="6.61206">
        <ele>137</ele>
        <time>2013-09-16T12:32:05.000Z</time>
      </trkpt>
      <trkpt lat="43.21557" lon="6.61204">
        <ele>137</ele>
        <time>2013-09-16T12:32:06.000Z</time>
      </trkpt>
      <trkpt lat="43.21559" lon="6.61201">
        <ele>137</ele>
        <time>2013-09-16T12:32:07.000Z</time>
      </trkpt>
      <trkpt lat="43.21561" lon="6.61198">
        <ele>137</ele>
        <time>2013-09-16T12:32:08.000Z</time>
      </trkpt>
      <trkpt lat="43.21562" lon="6.61195">
        <ele>137</ele>
        <time>2013-09-16T12:32:09.000Z</time>
      </trkpt>
      <trkpt lat="43.21563" lon="6.61192">
        <ele>138</ele>
        <time>2013-09-16T12:32:10.000Z</time>
      </trkpt>
      <trkpt lat="43.21564" lon="6.61188">
        <ele>138</ele>
        <time>2013-09-16T12:32:11.000Z</time>
      </trkpt>
      <trkpt lat="43.21565" lon="6.61185">
        <ele>138</ele>
        <time>2013-09-16T12:32:12.000Z</time>
      </trkpt>
      <trkpt lat="43.21566" lon="6.61182">
        <ele>138</ele>
        <time>2013-09-16T12:32:13.000Z</time>
      </trkpt>
      <trkpt lat="43.21567" lon="6.6118">
        <ele>138</ele>
        <time>2013-09-16T12:32:14.000Z</time>
      </trkpt>
      <trkpt lat="43.21568" lon="6.61177">
        <ele>139</ele>
        <time>2013-09-16T12:32:15.000Z</time>
      </trkpt>
      <trkpt lat="43.2157" lon="6.61175">
        <ele>139</ele>
        <time>2013-09-16T12:32:16.000Z</time>
      </trkpt>
      <trkpt lat="43.21573" lon="6.61174">
        <ele>139</ele>
        <time>2013-09-16T12:32:17.000Z</time>
      </trkpt>
      <trkpt lat="43.21577" lon="6.61172">
        <ele>139</ele>
        <time>2013-09-16T12:32:18.000Z</time>
      </trkpt>
      <trkpt lat="43.21582" lon="6.61171">
        <ele>139</ele>
        <time>2013-09-16T12:32:19.000Z</time>
      </trkpt>
      <trkpt lat="43.21586" lon="6.61169">
        <ele>139</ele>
        <time>2013-09-16T12:32:20.000Z</time>
      </trkpt>
      <trkpt lat="43.2159" lon="6.61168">
        <ele>138</ele>
        <time>2013-09-16T12:32:21.000Z</time>
      </trkpt>
      <trkpt lat="43.21594" lon="6.61168">
        <ele>137</ele>
        <time>2013-09-16T12:32:22.000Z</time>
      </trkpt>
      <trkpt lat="43.21599" lon="6.61167">
        <ele>136</ele>
        <time>2013-09-16T12:32:23.000Z</time>
      </trkpt>
      <trkpt lat="43.21603" lon="6.61166">
        <ele>144</ele>
        <time>2013-09-16T12:32:24.000Z</time>
      </trkpt>
      <trkpt lat="43.21607" lon="6.61165">
        <ele>144</ele>
        <time>2013-09-16T12:32:25.000Z</time>
      </trkpt>
      <trkpt lat="43.21611" lon="6.61165">
        <ele>144</ele>
        <time>2013-09-16T12:32:26.000Z</time>
      </trkpt>
      <trkpt lat="43.21615" lon="6.61164">
        <ele>144</ele>
        <time>2013-09-16T12:32:27.000Z</time>
      </trkpt>
      <trkpt lat="43.21619" lon="6.61164">
        <ele>144</ele>
        <time>2013-09-16T12:32:28.000Z</time>
      </trkpt>
      <trkpt lat="43.21622" lon="6.61163">
        <ele>144</ele>
        <time>2013-09-16T12:32:29.000Z</time>
      </trkpt>
      <trkpt lat="43.21624" lon="6.61163">
        <ele>144</ele>
        <time>2013-09-16T12:32:30.000Z</time>
      </trkpt>
      <trkpt lat="43.21627" lon="6.61162">
        <ele>144</ele>
        <time>2013-09-16T12:32:31.000Z</time>
      </trkpt>
      <trkpt lat="43.2163" lon="6.61162">
        <ele>144</ele>
        <time>2013-09-16T12:32:32.000Z</time>
      </trkpt>
      <trkpt lat="43.21633" lon="6.61161">
        <ele>144</ele>
        <time>2013-09-16T12:32:33.000Z</time>
      </trkpt>
      <trkpt lat="43.21635" lon="6.61161">
        <ele>144</ele>
        <time>2013-09-16T12:32:34.000Z</time>
      </trkpt>
      <trkpt lat="43.21638" lon="6.6116">
        <ele>143</ele>
        <time>2013-09-16T12:32:35.000Z</time>
      </trkpt>
      <trkpt lat="43.2164" lon="6.6116">
        <ele>143</ele>
        <time>2013-09-16T12:32:36.000Z</time>
      </trkpt>
      <trkpt lat="43.21642" lon="6.61159">
        <ele>143</ele>
        <time>2013-09-16T12:32:37.000Z</time>
      </trkpt>
      <trkpt lat="43.21645" lon="6.61159">
        <ele>142</ele>
        <time>2013-09-16T12:32:38.000Z</time>
      </trkpt>
      <trkpt lat="43.21648" lon="6.61158">
        <ele>142</ele>
        <time>2013-09-16T12:32:39.000Z</time>
      </trkpt>
      <trkpt lat="43.21651" lon="6.61158">
        <ele>142</ele>
        <time>2013-09-16T12:32:40.000Z</time>
      </trkpt>
      <trkpt lat="43.21653" lon="6.61158">
        <ele>141</ele>
        <time>2013-09-16T12:32:41.000Z</time>
      </trkpt>
      <trkpt lat="43.21655" lon="6.61157">
        <ele>141</ele>
        <time>2013-09-16T12:32:42.000Z</time>
      </trkpt>
      <trkpt lat="43.21658" lon="6.61157">
        <ele>140</ele>
        <time>2013-09-16T12:32:43.000Z</time>
      </trkpt>
      <trkpt lat="43.21661" lon="6.61158">
        <ele>140</ele>
        <time>2013-09-16T12:32:44.000Z</time>
      </trkpt>
      <trkpt lat="43.21663" lon="6.61158">
        <ele>139</ele>
        <time>2013-09-16T12:32:45.000Z</time>
      </trkpt>
      <trkpt lat="43.21666" lon="6.61157">
        <ele>139</ele>
        <time>2013-09-16T12:32:46.000Z</time>
      </trkpt>
      <trkpt lat="43.21669" lon="6.61156">
        <ele>138</ele>
        <time>2013-09-16T12:32:47.000Z</time>
      </trkpt>
      <trkpt lat="43.21673" lon="6.61155">
        <ele>138</ele>
        <time>2013-09-16T12:32:48.000Z</time>
      </trkpt>
      <trkpt lat="43.21677" lon="6.61154">
        <ele>138</ele>
        <time>2013-09-16T12:32:49.000Z</time>
      </trkpt>
      <trkpt lat="43.21681" lon="6.61152">
        <ele>139</ele>
        <time>2013-09-16T12:32:50.000Z</time>
      </trkpt>
      <trkpt lat="43.21685" lon="6.61149">
        <ele>139</ele>
        <time>2013-09-16T12:32:51.000Z</time>
      </trkpt>
      <trkpt lat="43.2169" lon="6.61146">
        <ele>140</ele>
        <time>2013-09-16T12:32:52.000Z</time>
      </trkpt>
      <trkpt lat="43.21694" lon="6.61143">
        <ele>140</ele>
        <time>2013-09-16T12:32:53.000Z</time>
      </trkpt>
      <trkpt lat="43.21698" lon="6.6114">
        <ele>140</ele>
        <time>2013-09-16T12:32:54.000Z</time>
      </trkpt>
      <trkpt lat="43.21702" lon="6.61137">
        <ele>141</ele>
        <time>2013-09-16T12:32:55.000Z</time>
      </trkpt>
      <trkpt lat="43.21706" lon="6.61134">
        <ele>141</ele>
        <time>2013-09-16T12:32:56.000Z</time>
      </trkpt>
      <trkpt lat="43.2171" lon="6.61132">
        <ele>141</ele>
        <time>2013-09-16T12:32:57.000Z</time>
      </trkpt>
      <trkpt lat="43.21714" lon="6.61131">
        <ele>141</ele>
        <time>2013-09-16T12:32:58.000Z</time>
      </trkpt>
      <trkpt lat="43.21718" lon="6.6113">
        <ele>141</ele>
        <time>2013-09-16T12:32:59.000Z</time>
      </trkpt>
      <trkpt lat="43.21728" lon="6.61131">
        <ele>140</ele>
        <time>2013-09-16T12:33:01.000Z</time>
      </trkpt>
      <trkpt lat="43.21732" lon="6.61133">
        <ele>140</ele>
        <time>2013-09-16T12:33:02.000Z</time>
      </trkpt>
      <trkpt lat="43.21736" lon="6.61136">
        <ele>139</ele>
        <time>2013-09-16T12:33:03.000Z</time>
      </trkpt>
      <trkpt lat="43.21739" lon="6.61139">
        <ele>139</ele>
        <time>2013-09-16T12:33:04.000Z</time>
      </trkpt>
      <trkpt lat="43.21743" lon="6.61144">
        <ele>138</ele>
        <time>2013-09-16T12:33:05.000Z</time>
      </trkpt>
      <trkpt lat="43.21746" lon="6.61149">
        <ele>137</ele>
        <time>2013-09-16T12:33:06.000Z</time>
      </trkpt>
      <trkpt lat="43.2175" lon="6.61154">
        <ele>136</ele>
        <time>2013-09-16T12:33:07.000Z</time>
      </trkpt>
      <trkpt lat="43.21752" lon="6.61158">
        <ele>135</ele>
        <time>2013-09-16T12:33:08.000Z</time>
      </trkpt>
      <trkpt lat="43.21755" lon="6.61163">
        <ele>134</ele>
        <time>2013-09-16T12:33:09.000Z</time>
      </trkpt>
      <trkpt lat="43.21758" lon="6.61168">
        <ele>131</ele>
        <time>2013-09-16T12:33:10.000Z</time>
      </trkpt>
      <trkpt lat="43.21761" lon="6.61174">
        <ele>131</ele>
        <time>2013-09-16T12:33:11.000Z</time>
      </trkpt>
      <trkpt lat="43.21764" lon="6.61179">
        <ele>130</ele>
        <time>2013-09-16T12:33:12.000Z</time>
      </trkpt>
      <trkpt lat="43.21766" lon="6.61184">
        <ele>130</ele>
        <time>2013-09-16T12:33:13.000Z</time>
      </trkpt>
      <trkpt lat="43.21769" lon="6.6119">
        <ele>130</ele>
        <time>2013-09-16T12:33:14.000Z</time>
      </trkpt>
      <trkpt lat="43.21773" lon="6.61196">
        <ele>129</ele>
        <time>2013-09-16T12:33:15.000Z</time>
      </trkpt>
      <trkpt lat="43.21776" lon="6.61202">
        <ele>129</ele>
        <time>2013-09-16T12:33:16.000Z</time>
      </trkpt>
      <trkpt lat="43.21779" lon="6.61208">
        <ele>128</ele>
        <time>2013-09-16T12:33:17.000Z</time>
      </trkpt>
      <trkpt lat="43.21783" lon="6.61214">
        <ele>128</ele>
        <time>2013-09-16T12:33:18.000Z</time>
      </trkpt>
      <trkpt lat="43.21786" lon="6.61221">
        <ele>128</ele>
        <time>2013-09-16T12:33:19.000Z</time>
      </trkpt>
      <trkpt lat="43.2179" lon="6.61228">
        <ele>128</ele>
        <time>2013-09-16T12:33:20.000Z</time>
      </trkpt>
      <trkpt lat="43.21793" lon="6.61235">
        <ele>127</ele>
        <time>2013-09-16T12:33:21.000Z</time>
      </trkpt>
      <trkpt lat="43.21797" lon="6.61242">
        <ele>127</ele>
        <time>2013-09-16T12:33:22.000Z</time>
      </trkpt>
      <trkpt lat="43.218" lon="6.61248">
        <ele>127</ele>
        <time>2013-09-16T12:33:23.000Z</time>
      </trkpt>
      <trkpt lat="43.21804" lon="6.61255">
        <ele>120</ele>
        <time>2013-09-16T12:33:24.000Z</time>
      </trkpt>
      <trkpt lat="43.21807" lon="6.61261">
        <ele>120</ele>
        <time>2013-09-16T12:33:25.000Z</time>
      </trkpt>
      <trkpt lat="43.21812" lon="6.61267">
        <ele>120</ele>
        <time>2013-09-16T12:33:26.000Z</time>
      </trkpt>
      <trkpt lat="43.21816" lon="6.61272">
        <ele>120</ele>
        <time>2013-09-16T12:33:27.000Z</time>
      </trkpt>
      <trkpt lat="43.21821" lon="6.61276">
        <ele>120</ele>
        <time>2013-09-16T12:33:28.000Z</time>
      </trkpt>
      <trkpt lat="43.21827" lon="6.61279">
        <ele>120</ele>
        <time>2013-09-16T12:33:29.000Z</time>
      </trkpt>
      <trkpt lat="43.21833" lon="6.61281">
        <ele>120</ele>
        <time>2013-09-16T12:33:30.000Z</time>
      </trkpt>
      <trkpt lat="43.21839" lon="6.61283">
        <ele>122</ele>
        <time>2013-09-16T12:33:31.000Z</time>
      </trkpt>
      <trkpt lat="43.21845" lon="6.61284">
        <ele>121</ele>
        <time>2013-09-16T12:33:32.000Z</time>
      </trkpt>
      <trkpt lat="43.21851" lon="6.61284">
        <ele>121</ele>
        <time>2013-09-16T12:33:33.000Z</time>
      </trkpt>
      <trkpt lat="43.21856" lon="6.61283">
        <ele>121</ele>
        <time>2013-09-16T12:33:34.000Z</time>
      </trkpt>
      <trkpt lat="43.21862" lon="6.61281">
        <ele>121</ele>
        <time>2013-09-16T12:33:35.000Z</time>
      </trkpt>
      <trkpt lat="43.21867" lon="6.61278">
        <ele>121</ele>
        <time>2013-09-16T12:33:36.000Z</time>
      </trkpt>
      <trkpt lat="43.21871" lon="6.61275">
        <ele>121</ele>
        <time>2013-09-16T12:33:37.000Z</time>
      </trkpt>
      <trkpt lat="43.21875" lon="6.61273">
        <ele>121</ele>
        <time>2013-09-16T12:33:38.000Z</time>
      </trkpt>
      <trkpt lat="43.21878" lon="6.61272">
        <ele>121</ele>
        <time>2013-09-16T12:33:39.000Z</time>
      </trkpt>
      <trkpt lat="43.21881" lon="6.61271">
        <ele>121</ele>
        <time>2013-09-16T12:33:40.000Z</time>
      </trkpt>
      <trkpt lat="43.21885" lon="6.61272">
        <ele>121</ele>
        <time>2013-09-16T12:33:41.000Z</time>
      </trkpt>
      <trkpt lat="43.21887" lon="6.61273">
        <ele>121</ele>
        <time>2013-09-16T12:33:42.000Z</time>
      </trkpt>
      <trkpt lat="43.21889" lon="6.61276">
        <ele>121</ele>
        <time>2013-09-16T12:33:43.000Z</time>
      </trkpt>
      <trkpt lat="43.2189" lon="6.61279">
        <ele>121</ele>
        <time>2013-09-16T12:33:44.000Z</time>
      </trkpt>
      <trkpt lat="43.2189" lon="6.61281">
        <ele>121</ele>
        <time>2013-09-16T12:33:45.000Z</time>
      </trkpt>
      <trkpt lat="43.2189" lon="6.61283">
        <ele>120</ele>
        <time>2013-09-16T12:33:46.000Z</time>
      </trkpt>
      <trkpt lat="43.2189" lon="6.61285">
        <ele>120</ele>
        <time>2013-09-16T12:33:47.000Z</time>
      </trkpt>
      <trkpt lat="43.21889" lon="6.61285">
        <ele>120</ele>
        <time>2013-09-16T12:33:48.000Z</time>
      </trkpt>
      <trkpt lat="43.2189" lon="6.61286">
        <ele>120</ele>
        <time>2013-09-16T12:33:49.000Z</time>
      </trkpt>
      <trkpt lat="43.2189" lon="6.61286">
        <ele>120</ele>
        <time>2013-09-16T12:33:51.000Z</time>
      </trkpt>
      <trkpt lat="43.21889" lon="6.61286">
        <ele>120</ele>
        <time>2013-09-16T12:33:53.000Z</time>
      </trkpt>
      <trkpt lat="43.2189" lon="6.61286">
        <ele>120</ele>
        <time>2013-09-16T12:33:54.000Z</time>
      </trkpt>
      <trkpt lat="43.2189" lon="6.61286">
        <ele>120</ele>
        <time>2013-09-16T12:33:55.000Z</time>
      </trkpt>
      <trkpt lat="43.2189" lon="6.61286">
        <ele>120</ele>
        <time>2013-09-16T12:33:56.000Z</time>
      </trkpt>
      <trkpt lat="43.21892" lon="6.61286">
        <ele>120</ele>
        <time>2013-09-16T12:34:02.000Z</time>
      </trkpt>
      <trkpt lat="43.21894" lon="6.61286">
        <ele>120</ele>
        <time>2013-09-16T12:34:21.000Z</time>
      </trkpt>
      <trkpt lat="43.21896" lon="6.61286">
        <ele>120</ele>
        <time>2013-09-16T12:34:29.000Z</time>
      </trkpt>
      <trkpt lat="43.21897" lon="6.61286">
        <ele>120</ele>
        <time>2013-09-16T12:34:35.000Z</time>
      </trkpt>
      <trkpt lat="43.21897" lon="6.61286">
        <ele>120</ele>
        <time>2013-09-16T12:34:40.000Z</time>
      </trkpt>
      <trkpt lat="43.21897" lon="6.61286">
        <ele>120</ele>
        <time>2013-09-16T12:34:48.000Z</time>
      </trkpt>
      <trkpt lat="43.21898" lon="6.61286">
        <ele>120</ele>
        <time>2013-09-16T12:34:51.000Z</time>
      </trkpt>
      <trkpt lat="43.21899" lon="6.61287">
        <ele>120</ele>
        <time>2013-09-16T12:34:52.000Z</time>
      </trkpt>
      <trkpt lat="43.21899" lon="6.61287">
        <ele>120</ele>
        <time>2013-09-16T12:34:53.000Z</time>
      </trkpt>
      <trkpt lat="43.21899" lon="6.61288">
        <ele>120</ele>
        <time>2013-09-16T12:34:54.000Z</time>
      </trkpt>
      <trkpt lat="43.21898" lon="6.6129">
        <ele>120</ele>
        <time>2013-09-16T12:34:55.000Z</time>
      </trkpt>
      <trkpt lat="43.21897" lon="6.61292">
        <ele>120</ele>
        <time>2013-09-16T12:34:56.000Z</time>
      </trkpt>
      <trkpt lat="43.21895" lon="6.61294">
        <ele>119</ele>
        <time>2013-09-16T12:34:57.000Z</time>
      </trkpt>
      <trkpt lat="43.21892" lon="6.61296">
        <ele>119</ele>
        <time>2013-09-16T12:34:58.000Z</time>
      </trkpt>
      <trkpt lat="43.21889" lon="6.61299">
        <ele>119</ele>
        <time>2013-09-16T12:34:59.000Z</time>
      </trkpt>
      <trkpt lat="43.21885" lon="6.61302">
        <ele>119</ele>
        <time>2013-09-16T12:35:00.000Z</time>
      </trkpt>
      <trkpt lat="43.21882" lon="6.61306">
        <ele>119</ele>
        <time>2013-09-16T12:35:01.000Z</time>
      </trkpt>
      <trkpt lat="43.21879" lon="6.6131">
        <ele>119</ele>
        <time>2013-09-16T12:35:02.000Z</time>
      </trkpt>
      <trkpt lat="43.21877" lon="6.61314">
        <ele>118</ele>
        <time>2013-09-16T12:35:03.000Z</time>
      </trkpt>
      <trkpt lat="43.21875" lon="6.61318">
        <ele>118</ele>
        <time>2013-09-16T12:35:04.000Z</time>
      </trkpt>
      <trkpt lat="43.21873" lon="6.61322">
        <ele>118</ele>
        <time>2013-09-16T12:35:05.000Z</time>
      </trkpt>
      <trkpt lat="43.21871" lon="6.61326">
        <ele>118</ele>
        <time>2013-09-16T12:35:06.000Z</time>
      </trkpt>
      <trkpt lat="43.2187" lon="6.6133">
        <ele>118</ele>
        <time>2013-09-16T12:35:07.000Z</time>
      </trkpt>
      <trkpt lat="43.21868" lon="6.61336">
        <ele>109</ele>
        <time>2013-09-16T12:35:08.000Z</time>
      </trkpt>
      <trkpt lat="43.21865" lon="6.61343">
        <ele>109</ele>
        <time>2013-09-16T12:35:09.000Z</time>
      </trkpt>
      <trkpt lat="43.21863" lon="6.6135">
        <ele>108</ele>
        <time>2013-09-16T12:35:10.000Z</time>
      </trkpt>
      <trkpt lat="43.2186" lon="6.61357">
        <ele>108</ele>
        <time>2013-09-16T12:35:11.000Z</time>
      </trkpt>
      <trkpt lat="43.21856" lon="6.61363">
        <ele>108</ele>
        <time>2013-09-16T12:35:12.000Z</time>
      </trkpt>
      <trkpt lat="43.21852" lon="6.61369">
        <ele>107</ele>
        <time>2013-09-16T12:35:13.000Z</time>
      </trkpt>
      <trkpt lat="43.21847" lon="6.61373">
        <ele>107</ele>
        <time>2013-09-16T12:35:14.000Z</time>
      </trkpt>
      <trkpt lat="43.21842" lon="6.61376">
        <ele>106</ele>
        <time>2013-09-16T12:35:15.000Z</time>
      </trkpt>
      <trkpt lat="43.21837" lon="6.61377">
        <ele>106</ele>
        <time>2013-09-16T12:35:16.000Z</time>
      </trkpt>
      <trkpt lat="43.21832" lon="6.61377">
        <ele>105</ele>
        <time>2013-09-16T12:35:17.000Z</time>
      </trkpt>
      <trkpt lat="43.21827" lon="6.61377">
        <ele>105</ele>
        <time>2013-09-16T12:35:18.000Z</time>
      </trkpt>
      <trkpt lat="43.21822" lon="6.61375">
        <ele>105</ele>
        <time>2013-09-16T12:35:19.000Z</time>
      </trkpt>
      <trkpt lat="43.21817" lon="6.61371">
        <ele>105</ele>
        <time>2013-09-16T12:35:20.000Z</time>
      </trkpt>
      <trkpt lat="43.21812" lon="6.61366">
        <ele>105</ele>
        <time>2013-09-16T12:35:21.000Z</time>
      </trkpt>
      <trkpt lat="43.21808" lon="6.61359">
        <ele>106</ele>
        <time>2013-09-16T12:35:22.000Z</time>
      </trkpt>
      <trkpt lat="43.21804" lon="6.61352">
        <ele>106</ele>
        <time>2013-09-16T12:35:23.000Z</time>
      </trkpt>
      <trkpt lat="43.21799" lon="6.61345">
        <ele>106</ele>
        <time>2013-09-16T12:35:24.000Z</time>
      </trkpt>
      <trkpt lat="43.21795" lon="6.61339">
        <ele>106</ele>
        <time>2013-09-16T12:35:25.000Z</time>
      </trkpt>
      <trkpt lat="43.21791" lon="6.61333">
        <ele>113</ele>
        <time>2013-09-16T12:35:26.000Z</time>
      </trkpt>
      <trkpt lat="43.21786" lon="6.61327">
        <ele>113</ele>
        <time>2013-09-16T12:35:27.000Z</time>
      </trkpt>
      <trkpt lat="43.21781" lon="6.61322">
        <ele>112</ele>
        <time>2013-09-16T12:35:28.000Z</time>
      </trkpt>
      <trkpt lat="43.21775" lon="6.61318">
        <ele>112</ele>
        <time>2013-09-16T12:35:29.000Z</time>
      </trkpt>
      <trkpt lat="43.2177" lon="6.61315">
        <ele>112</ele>
        <time>2013-09-16T12:35:30.000Z</time>
      </trkpt>
      <trkpt lat="43.21765" lon="6.61311">
        <ele>112</ele>
        <time>2013-09-16T12:35:31.000Z</time>
      </trkpt>
      <trkpt lat="43.21759" lon="6.61308">
        <ele>112</ele>
        <time>2013-09-16T12:35:32.000Z</time>
      </trkpt>
      <trkpt lat="43.21753" lon="6.61306">
        <ele>112</ele>
        <time>2013-09-16T12:35:33.000Z</time>
      </trkpt>
      <trkpt lat="43.21747" lon="6.61305">
        <ele>108</ele>
        <time>2013-09-16T12:35:34.000Z</time>
      </trkpt>
      <trkpt lat="43.2174" lon="6.61304">
        <ele>108</ele>
        <time>2013-09-16T12:35:35.000Z</time>
      </trkpt>
      <trkpt lat="43.21734" lon="6.61305">
        <ele>108</ele>
        <time>2013-09-16T12:35:36.000Z</time>
      </trkpt>
      <trkpt lat="43.21728" lon="6.61306">
        <ele>108</ele>
        <time>2013-09-16T12:35:37.000Z</time>
      </trkpt>
      <trkpt lat="43.21721" lon="6.61308">
        <ele>108</ele>
        <time>2013-09-16T12:35:38.000Z</time>
      </trkpt>
      <trkpt lat="43.21715" lon="6.61311">
        <ele>108</ele>
        <time>2013-09-16T12:35:39.000Z</time>
      </trkpt>
      <trkpt lat="43.21709" lon="6.61314">
        <ele>107</ele>
        <time>2013-09-16T12:35:40.000Z</time>
      </trkpt>
      <trkpt lat="43.21704" lon="6.61319">
        <ele>107</ele>
        <time>2013-09-16T12:35:41.000Z</time>
      </trkpt>
      <trkpt lat="43.21698" lon="6.61324">
        <ele>106</ele>
        <time>2013-09-16T12:35:42.000Z</time>
      </trkpt>
      <trkpt lat="43.21693" lon="6.61329">
        <ele>105</ele>
        <time>2013-09-16T12:35:43.000Z</time>
      </trkpt>
      <trkpt lat="43.21688" lon="6.61334">
        <ele>98</ele>
        <time>2013-09-16T12:35:44.000Z</time>
      </trkpt>
      <trkpt lat="43.21683" lon="6.6134">
        <ele>98</ele>
        <time>2013-09-16T12:35:45.000Z</time>
      </trkpt>
      <trkpt lat="43.21678" lon="6.61346">
        <ele>97</ele>
        <time>2013-09-16T12:35:46.000Z</time>
      </trkpt>
      <trkpt lat="43.21674" lon="6.61353">
        <ele>97</ele>
        <time>2013-09-16T12:35:47.000Z</time>
      </trkpt>
      <trkpt lat="43.2167" lon="6.61361">
        <ele>96</ele>
        <time>2013-09-16T12:35:48.000Z</time>
      </trkpt>
      <trkpt lat="43.21666" lon="6.61369">
        <ele>98</ele>
        <time>2013-09-16T12:35:49.000Z</time>
      </trkpt>
      <trkpt lat="43.21663" lon="6.61379">
        <ele>97</ele>
        <time>2013-09-16T12:35:50.000Z</time>
      </trkpt>
      <trkpt lat="43.2166" lon="6.61387">
        <ele>96</ele>
        <time>2013-09-16T12:35:51.000Z</time>
      </trkpt>
      <trkpt lat="43.21657" lon="6.61396">
        <ele>95</ele>
        <time>2013-09-16T12:35:52.000Z</time>
      </trkpt>
      <trkpt lat="43.21654" lon="6.61404">
        <ele>94</ele>
        <time>2013-09-16T12:35:53.000Z</time>
      </trkpt>
      <trkpt lat="43.21651" lon="6.61411">
        <ele>93</ele>
        <time>2013-09-16T12:35:54.000Z</time>
      </trkpt>
      <trkpt lat="43.21649" lon="6.61419">
        <ele>87</ele>
        <time>2013-09-16T12:35:55.000Z</time>
      </trkpt>
      <trkpt lat="43.21646" lon="6.61427">
        <ele>87</ele>
        <time>2013-09-16T12:35:56.000Z</time>
      </trkpt>
      <trkpt lat="43.21643" lon="6.61435">
        <ele>87</ele>
        <time>2013-09-16T12:35:57.000Z</time>
      </trkpt>
      <trkpt lat="43.21639" lon="6.61444">
        <ele>87</ele>
        <time>2013-09-16T12:35:58.000Z</time>
      </trkpt>
      <trkpt lat="43.21635" lon="6.61454">
        <ele>87</ele>
        <time>2013-09-16T12:35:59.000Z</time>
      </trkpt>
      <trkpt lat="43.21631" lon="6.61463">
        <ele>86</ele>
        <time>2013-09-16T12:36:00.000Z</time>
      </trkpt>
      <trkpt lat="43.21625" lon="6.61472">
        <ele>86</ele>
        <time>2013-09-16T12:36:01.000Z</time>
      </trkpt>
      <trkpt lat="43.21619" lon="6.6148">
        <ele>86</ele>
        <time>2013-09-16T12:36:02.000Z</time>
      </trkpt>
      <trkpt lat="43.21612" lon="6.61487">
        <ele>86</ele>
        <time>2013-09-16T12:36:03.000Z</time>
      </trkpt>
      <trkpt lat="43.21606" lon="6.61493">
        <ele>85</ele>
        <time>2013-09-16T12:36:04.000Z</time>
      </trkpt>
      <trkpt lat="43.21599" lon="6.61497">
        <ele>85</ele>
        <time>2013-09-16T12:36:05.000Z</time>
      </trkpt>
      <trkpt lat="43.21591" lon="6.615">
        <ele>82</ele>
        <time>2013-09-16T12:36:06.000Z</time>
      </trkpt>
      <trkpt lat="43.21583" lon="6.61504">
        <ele>83</ele>
        <time>2013-09-16T12:36:07.000Z</time>
      </trkpt>
      <trkpt lat="43.21576" lon="6.61508">
        <ele>82</ele>
        <time>2013-09-16T12:36:08.000Z</time>
      </trkpt>
      <trkpt lat="43.21569" lon="6.61515">
        <ele>82</ele>
        <time>2013-09-16T12:36:09.000Z</time>
      </trkpt>
      <trkpt lat="43.21562" lon="6.61521">
        <ele>81</ele>
        <time>2013-09-16T12:36:10.000Z</time>
      </trkpt>
      <trkpt lat="43.21556" lon="6.61528">
        <ele>80</ele>
        <time>2013-09-16T12:36:11.000Z</time>
      </trkpt>
      <trkpt lat="43.2155" lon="6.61536">
        <ele>80</ele>
        <time>2013-09-16T12:36:12.000Z</time>
      </trkpt>
      <trkpt lat="43.21544" lon="6.61543">
        <ele>79</ele>
        <time>2013-09-16T12:36:13.000Z</time>
      </trkpt>
      <trkpt lat="43.21537" lon="6.61551">
        <ele>79</ele>
        <time>2013-09-16T12:36:14.000Z</time>
      </trkpt>
      <trkpt lat="43.21531" lon="6.61557">
        <ele>78</ele>
        <time>2013-09-16T12:36:15.000Z</time>
      </trkpt>
      <trkpt lat="43.21524" lon="6.61564">
        <ele>78</ele>
        <time>2013-09-16T12:36:16.000Z</time>
      </trkpt>
      <trkpt lat="43.21517" lon="6.61569">
        <ele>77</ele>
        <time>2013-09-16T12:36:17.000Z</time>
      </trkpt>
      <trkpt lat="43.21509" lon="6.61572">
        <ele>76</ele>
        <time>2013-09-16T12:36:18.000Z</time>
      </trkpt>
      <trkpt lat="43.21501" lon="6.61575">
        <ele>76</ele>
        <time>2013-09-16T12:36:19.000Z</time>
      </trkpt>
      <trkpt lat="43.21494" lon="6.61577">
        <ele>77</ele>
        <time>2013-09-16T12:36:20.000Z</time>
      </trkpt>
      <trkpt lat="43.21487" lon="6.61578">
        <ele>78</ele>
        <time>2013-09-16T12:36:21.000Z</time>
      </trkpt>
      <trkpt lat="43.21481" lon="6.61579">
        <ele>79</ele>
        <time>2013-09-16T12:36:22.000Z</time>
      </trkpt>
      <trkpt lat="43.21475" lon="6.61581">
        <ele>80</ele>
        <time>2013-09-16T12:36:23.000Z</time>
      </trkpt>
      <trkpt lat="43.2147" lon="6.61582">
        <ele>81</ele>
        <time>2013-09-16T12:36:24.000Z</time>
      </trkpt>
      <trkpt lat="43.21465" lon="6.61583">
        <ele>81</ele>
        <time>2013-09-16T12:36:25.000Z</time>
      </trkpt>
      <trkpt lat="43.21461" lon="6.61584">
        <ele>75</ele>
        <time>2013-09-16T12:36:26.000Z</time>
      </trkpt>
      <trkpt lat="43.21456" lon="6.61585">
        <ele>75</ele>
        <time>2013-09-16T12:36:27.000Z</time>
      </trkpt>
      <trkpt lat="43.21452" lon="6.61587">
        <ele>75</ele>
        <time>2013-09-16T12:36:28.000Z</time>
      </trkpt>
      <trkpt lat="43.21447" lon="6.61588">
        <ele>75</ele>
        <time>2013-09-16T12:36:29.000Z</time>
      </trkpt>
      <trkpt lat="43.21442" lon="6.61588">
        <ele>76</ele>
        <time>2013-09-16T12:36:30.000Z</time>
      </trkpt>
      <trkpt lat="43.21437" lon="6.61588">
        <ele>76</ele>
        <time>2013-09-16T12:36:31.000Z</time>
      </trkpt>
      <trkpt lat="43.21432" lon="6.61587">
        <ele>77</ele>
        <time>2013-09-16T12:36:32.000Z</time>
      </trkpt>
      <trkpt lat="43.21427" lon="6.61586">
        <ele>77</ele>
        <time>2013-09-16T12:36:33.000Z</time>
      </trkpt>
      <trkpt lat="43.21422" lon="6.61585">
        <ele>78</ele>
        <time>2013-09-16T12:36:34.000Z</time>
      </trkpt>
      <trkpt lat="43.21417" lon="6.61583">
        <ele>79</ele>
        <time>2013-09-16T12:36:35.000Z</time>
      </trkpt>
      <trkpt lat="43.21413" lon="6.61581">
        <ele>80</ele>
        <time>2013-09-16T12:36:36.000Z</time>
      </trkpt>
      <trkpt lat="43.21408" lon="6.6158">
        <ele>82</ele>
        <time>2013-09-16T12:36:37.000Z</time>
      </trkpt>
      <trkpt lat="43.21403" lon="6.61578">
        <ele>83</ele>
        <time>2013-09-16T12:36:38.000Z</time>
      </trkpt>
      <trkpt lat="43.21399" lon="6.61576">
        <ele>84</ele>
        <time>2013-09-16T12:36:39.000Z</time>
      </trkpt>
      <trkpt lat="43.21394" lon="6.61574">
        <ele>84</ele>
        <time>2013-09-16T12:36:40.000Z</time>
      </trkpt>
      <trkpt lat="43.2139" lon="6.61572">
        <ele>85</ele>
        <time>2013-09-16T12:36:41.000Z</time>
      </trkpt>
      <trkpt lat="43.21386" lon="6.6157">
        <ele>85</ele>
        <time>2013-09-16T12:36:42.000Z</time>
      </trkpt>
      <trkpt lat="43.21381" lon="6.61568">
        <ele>86</ele>
        <time>2013-09-16T12:36:43.000Z</time>
      </trkpt>
      <trkpt lat="43.21377" lon="6.61566">
        <ele>86</ele>
        <time>2013-09-16T12:36:44.000Z</time>
      </trkpt>
      <trkpt lat="43.21373" lon="6.61564">
        <ele>86</ele>
        <time>2013-09-16T12:36:45.000Z</time>
      </trkpt>
      <trkpt lat="43.21369" lon="6.61562">
        <ele>87</ele>
        <time>2013-09-16T12:36:46.000Z</time>
      </trkpt>
      <trkpt lat="43.21366" lon="6.61561">
        <ele>87</ele>
        <time>2013-09-16T12:36:47.000Z</time>
      </trkpt>
      <trkpt lat="43.21362" lon="6.6156">
        <ele>87</ele>
        <time>2013-09-16T12:36:48.000Z</time>
      </trkpt>
      <trkpt lat="43.21356" lon="6.61561">
        <ele>87</ele>
        <time>2013-09-16T12:36:50.000Z</time>
      </trkpt>
      <trkpt lat="43.21353" lon="6.61562">
        <ele>87</ele>
        <time>2013-09-16T12:36:51.000Z</time>
      </trkpt>
      <trkpt lat="43.21351" lon="6.61563">
        <ele>87</ele>
        <time>2013-09-16T12:36:52.000Z</time>
      </trkpt>
      <trkpt lat="43.21348" lon="6.61565">
        <ele>87</ele>
        <time>2013-09-16T12:36:53.000Z</time>
      </trkpt>
      <trkpt lat="43.21346" lon="6.61567">
        <ele>87</ele>
        <time>2013-09-16T12:36:54.000Z</time>
      </trkpt>
      <trkpt lat="43.21344" lon="6.61569">
        <ele>87</ele>
        <time>2013-09-16T12:36:55.000Z</time>
      </trkpt>
      <trkpt lat="43.21342" lon="6.61572">
        <ele>87</ele>
        <time>2013-09-16T12:36:56.000Z</time>
      </trkpt>
      <trkpt lat="43.21341" lon="6.61574">
        <ele>87</ele>
        <time>2013-09-16T12:36:57.000Z</time>
      </trkpt>
      <trkpt lat="43.21339" lon="6.61578">
        <ele>87</ele>
        <time>2013-09-16T12:36:58.000Z</time>
      </trkpt>
      <trkpt lat="43.21338" lon="6.61582">
        <ele>87</ele>
        <time>2013-09-16T12:36:59.000Z</time>
      </trkpt>
      <trkpt lat="43.21338" lon="6.61587">
        <ele>86</ele>
        <time>2013-09-16T12:37:00.000Z</time>
      </trkpt>
      <trkpt lat="43.21339" lon="6.61592">
        <ele>86</ele>
        <time>2013-09-16T12:37:01.000Z</time>
      </trkpt>
      <trkpt lat="43.2134" lon="6.61597">
        <ele>85</ele>
        <time>2013-09-16T12:37:02.000Z</time>
      </trkpt>
      <trkpt lat="43.21341" lon="6.61603">
        <ele>85</ele>
        <time>2013-09-16T12:37:03.000Z</time>
      </trkpt>
      <trkpt lat="43.21342" lon="6.61609">
        <ele>85</ele>
        <time>2013-09-16T12:37:04.000Z</time>
      </trkpt>
      <trkpt lat="43.21343" lon="6.61614">
        <ele>84</ele>
        <time>2013-09-16T12:37:05.000Z</time>
      </trkpt>
      <trkpt lat="43.21345" lon="6.61619">
        <ele>84</ele>
        <time>2013-09-16T12:37:06.000Z</time>
      </trkpt>
      <trkpt lat="43.21348" lon="6.61623">
        <ele>84</ele>
        <time>2013-09-16T12:37:07.000Z</time>
      </trkpt>
      <trkpt lat="43.21351" lon="6.61626">
        <ele>84</ele>
        <time>2013-09-16T12:37:08.000Z</time>
      </trkpt>
      <trkpt lat="43.21355" lon="6.61629">
        <ele>84</ele>
        <time>2013-09-16T12:37:09.000Z</time>
      </trkpt>
      <trkpt lat="43.21359" lon="6.61632">
        <ele>84</ele>
        <time>2013-09-16T12:37:10.000Z</time>
      </trkpt>
      <trkpt lat="43.21364" lon="6.61635">
        <ele>84</ele>
        <time>2013-09-16T12:37:11.000Z</time>
      </trkpt>
      <trkpt lat="43.21368" lon="6.61639">
        <ele>83</ele>
        <time>2013-09-16T12:37:12.000Z</time>
      </trkpt>
      <trkpt lat="43.21373" lon="6.61643">
        <ele>83</ele>
        <time>2013-09-16T12:37:13.000Z</time>
      </trkpt>
      <trkpt lat="43.21377" lon="6.61647">
        <ele>82</ele>
        <time>2013-09-16T12:37:14.000Z</time>
      </trkpt>
      <trkpt lat="43.21381" lon="6.61652">
        <ele>82</ele>
        <time>2013-09-16T12:37:15.000Z</time>
      </trkpt>
      <trkpt lat="43.21387" lon="6.61658">
        <ele>81</ele>
        <time>2013-09-16T12:37:16.000Z</time>
      </trkpt>
      <trkpt lat="43.21391" lon="6.61663">
        <ele>81</ele>
        <time>2013-09-16T12:37:17.000Z</time>
      </trkpt>
      <trkpt lat="43.21395" lon="6.61669">
        <ele>79</ele>
        <time>2013-09-16T12:37:18.000Z</time>
      </trkpt>
      <trkpt lat="43.21399" lon="6.61675">
        <ele>79</ele>
        <time>2013-09-16T12:37:19.000Z</time>
      </trkpt>
      <trkpt lat="43.21402" lon="6.61681">
        <ele>79</ele>
        <time>2013-09-16T12:37:20.000Z</time>
      </trkpt>
      <trkpt lat="43.21406" lon="6.61688">
        <ele>79</ele>
        <time>2013-09-16T12:37:21.000Z</time>
      </trkpt>
      <trkpt lat="43.21408" lon="6.61695">
        <ele>79</ele>
        <time>2013-09-16T12:37:22.000Z</time>
      </trkpt>
      <trkpt lat="43.21411" lon="6.61701">
        <ele>79</ele>
        <time>2013-09-16T12:37:23.000Z</time>
      </trkpt>
      <trkpt lat="43.21412" lon="6.61707">
        <ele>80</ele>
        <time>2013-09-16T12:37:24.000Z</time>
      </trkpt>
      <trkpt lat="43.21414" lon="6.61712">
        <ele>80</ele>
        <time>2013-09-16T12:37:25.000Z</time>
      </trkpt>
      <trkpt lat="43.21414" lon="6.61717">
        <ele>79</ele>
        <time>2013-09-16T12:37:26.000Z</time>
      </trkpt>
      <trkpt lat="43.21415" lon="6.61721">
        <ele>79</ele>
        <time>2013-09-16T12:37:27.000Z</time>
      </trkpt>
      <trkpt lat="43.21416" lon="6.61725">
        <ele>79</ele>
        <time>2013-09-16T12:37:28.000Z</time>
      </trkpt>
      <trkpt lat="43.21417" lon="6.61729">
        <ele>74</ele>
        <time>2013-09-16T12:37:29.000Z</time>
      </trkpt>
      <trkpt lat="43.21418" lon="6.61734">
        <ele>74</ele>
        <time>2013-09-16T12:37:30.000Z</time>
      </trkpt>
      <trkpt lat="43.21419" lon="6.61738">
        <ele>75</ele>
        <time>2013-09-16T12:37:31.000Z</time>
      </trkpt>
      <trkpt lat="43.2142" lon="6.61743">
        <ele>75</ele>
        <time>2013-09-16T12:37:32.000Z</time>
      </trkpt>
      <trkpt lat="43.21421" lon="6.61748">
        <ele>76</ele>
        <time>2013-09-16T12:37:33.000Z</time>
      </trkpt>
      <trkpt lat="43.21421" lon="6.61754">
        <ele>75</ele>
        <time>2013-09-16T12:37:34.000Z</time>
      </trkpt>
      <trkpt lat="43.21422" lon="6.6176">
        <ele>74</ele>
        <time>2013-09-16T12:37:35.000Z</time>
      </trkpt>
      <trkpt lat="43.21421" lon="6.61767">
        <ele>72</ele>
        <time>2013-09-16T12:37:36.000Z</time>
      </trkpt>
      <trkpt lat="43.21422" lon="6.61798">
        <ele>70</ele>
        <time>2013-09-16T12:37:40.000Z</time>
      </trkpt>
      <trkpt lat="43.21422" lon="6.61806">
        <ele>69</ele>
        <time>2013-09-16T12:37:41.000Z</time>
      </trkpt>
      <trkpt lat="43.21423" lon="6.61815">
        <ele>69</ele>
        <time>2013-09-16T12:37:42.000Z</time>
      </trkpt>
      <trkpt lat="43.21422" lon="6.61823">
        <ele>69</ele>
        <time>2013-09-16T12:37:43.000Z</time>
      </trkpt>
      <trkpt lat="43.21422" lon="6.6183">
        <ele>70</ele>
        <time>2013-09-16T12:37:44.000Z</time>
      </trkpt>
      <trkpt lat="43.21422" lon="6.61839">
        <ele>68</ele>
        <time>2013-09-16T12:37:45.000Z</time>
      </trkpt>
      <trkpt lat="43.21422" lon="6.61848">
        <ele>66</ele>
        <time>2013-09-16T12:37:46.000Z</time>
      </trkpt>
      <trkpt lat="43.2142" lon="6.61857">
        <ele>65</ele>
        <time>2013-09-16T12:37:47.000Z</time>
      </trkpt>
      <trkpt lat="43.21419" lon="6.61867">
        <ele>64</ele>
        <time>2013-09-16T12:37:48.000Z</time>
      </trkpt>
      <trkpt lat="43.21416" lon="6.61877">
        <ele>67</ele>
        <time>2013-09-16T12:37:49.000Z</time>
      </trkpt>
      <trkpt lat="43.21413" lon="6.61887">
        <ele>66</ele>
        <time>2013-09-16T12:37:50.000Z</time>
      </trkpt>
      <trkpt lat="43.2141" lon="6.61896">
        <ele>65</ele>
        <time>2013-09-16T12:37:51.000Z</time>
      </trkpt>
      <trkpt lat="43.21406" lon="6.61906">
        <ele>64</ele>
        <time>2013-09-16T12:37:52.000Z</time>
      </trkpt>
      <trkpt lat="43.21402" lon="6.61916">
        <ele>64</ele>
        <time>2013-09-16T12:37:53.000Z</time>
      </trkpt>
      <trkpt lat="43.21398" lon="6.61925">
        <ele>61</ele>
        <time>2013-09-16T12:37:54.000Z</time>
      </trkpt>
      <trkpt lat="43.21393" lon="6.61934">
        <ele>61</ele>
        <time>2013-09-16T12:37:55.000Z</time>
      </trkpt>
      <trkpt lat="43.21389" lon="6.61943">
        <ele>61</ele>
        <time>2013-09-16T12:37:56.000Z</time>
      </trkpt>
      <trkpt lat="43.21385" lon="6.61952">
        <ele>61</ele>
        <time>2013-09-16T12:37:57.000Z</time>
      </trkpt>
      <trkpt lat="43.21381" lon="6.61962">
        <ele>61</ele>
        <time>2013-09-16T12:37:58.000Z</time>
      </trkpt>
      <trkpt lat="43.21378" lon="6.61972">
        <ele>61</ele>
        <time>2013-09-16T12:37:59.000Z</time>
      </trkpt>
      <trkpt lat="43.21375" lon="6.61982">
        <ele>61</ele>
        <time>2013-09-16T12:38:00.000Z</time>
      </trkpt>
      <trkpt lat="43.21373" lon="6.61992">
        <ele>60</ele>
        <time>2013-09-16T12:38:01.000Z</time>
      </trkpt>
      <trkpt lat="43.21371" lon="6.62003">
        <ele>57</ele>
        <time>2013-09-16T12:38:02.000Z</time>
      </trkpt>
      <trkpt lat="43.2137" lon="6.62014">
        <ele>57</ele>
        <time>2013-09-16T12:38:03.000Z</time>
      </trkpt>
      <trkpt lat="43.21369" lon="6.62025">
        <ele>57</ele>
        <time>2013-09-16T12:38:04.000Z</time>
      </trkpt>
      <trkpt lat="43.21369" lon="6.62037">
        <ele>57</ele>
        <time>2013-09-16T12:38:05.000Z</time>
      </trkpt>
      <trkpt lat="43.21369" lon="6.62049">
        <ele>56</ele>
        <time>2013-09-16T12:38:06.000Z</time>
      </trkpt>
      <trkpt lat="43.2137" lon="6.6206">
        <ele>56</ele>
        <time>2013-09-16T12:38:07.000Z</time>
      </trkpt>
      <trkpt lat="43.21371" lon="6.62072">
        <ele>56</ele>
        <time>2013-09-16T12:38:08.000Z</time>
      </trkpt>
      <trkpt lat="43.21373" lon="6.62084">
        <ele>52</ele>
        <time>2013-09-16T12:38:09.000Z</time>
      </trkpt>
      <trkpt lat="43.21374" lon="6.62095">
        <ele>52</ele>
        <time>2013-09-16T12:38:10.000Z</time>
      </trkpt>
      <trkpt lat="43.21375" lon="6.62106">
        <ele>52</ele>
        <time>2013-09-16T12:38:11.000Z</time>
      </trkpt>
      <trkpt lat="43.21376" lon="6.62116">
        <ele>52</ele>
        <time>2013-09-16T12:38:12.000Z</time>
      </trkpt>
      <trkpt lat="43.21377" lon="6.62127">
        <ele>51</ele>
        <time>2013-09-16T12:38:13.000Z</time>
      </trkpt>
      <trkpt lat="43.21377" lon="6.62149">
        <ele>51</ele>
        <time>2013-09-16T12:38:15.000Z</time>
      </trkpt>
      <trkpt lat="43.21376" lon="6.6216">
        <ele>51</ele>
        <time>2013-09-16T12:38:16.000Z</time>
      </trkpt>
      <trkpt lat="43.21375" lon="6.62172">
        <ele>48</ele>
        <time>2013-09-16T12:38:17.000Z</time>
      </trkpt>
      <trkpt lat="43.21373" lon="6.62182">
        <ele>48</ele>
        <time>2013-09-16T12:38:18.000Z</time>
      </trkpt>
      <trkpt lat="43.2137" lon="6.62193">
        <ele>48</ele>
        <time>2013-09-16T12:38:19.000Z</time>
      </trkpt>
      <trkpt lat="43.21368" lon="6.62203">
        <ele>48</ele>
        <time>2013-09-16T12:38:20.000Z</time>
      </trkpt>
      <trkpt lat="43.21365" lon="6.62213">
        <ele>48</ele>
        <time>2013-09-16T12:38:21.000Z</time>
      </trkpt>
      <trkpt lat="43.21362" lon="6.62223">
        <ele>48</ele>
        <time>2013-09-16T12:38:22.000Z</time>
      </trkpt>
      <trkpt lat="43.21359" lon="6.62233">
        <ele>47</ele>
        <time>2013-09-16T12:38:23.000Z</time>
      </trkpt>
      <trkpt lat="43.21356" lon="6.62243">
        <ele>47</ele>
        <time>2013-09-16T12:38:24.000Z</time>
      </trkpt>
      <trkpt lat="43.21353" lon="6.62253">
        <ele>46</ele>
        <time>2013-09-16T12:38:25.000Z</time>
      </trkpt>
      <trkpt lat="43.2135" lon="6.62263">
        <ele>45</ele>
        <time>2013-09-16T12:38:26.000Z</time>
      </trkpt>
      <trkpt lat="43.21346" lon="6.62273">
        <ele>45</ele>
        <time>2013-09-16T12:38:27.000Z</time>
      </trkpt>
      <trkpt lat="43.21343" lon="6.62283">
        <ele>45</ele>
        <time>2013-09-16T12:38:28.000Z</time>
      </trkpt>
      <trkpt lat="43.2134" lon="6.62293">
        <ele>44</ele>
        <time>2013-09-16T12:38:29.000Z</time>
      </trkpt>
      <trkpt lat="43.21337" lon="6.62303">
        <ele>44</ele>
        <time>2013-09-16T12:38:30.000Z</time>
      </trkpt>
      <trkpt lat="43.21334" lon="6.62313">
        <ele>44</ele>
        <time>2013-09-16T12:38:31.000Z</time>
      </trkpt>
      <trkpt lat="43.21331" lon="6.62323">
        <ele>44</ele>
        <time>2013-09-16T12:38:32.000Z</time>
      </trkpt>
      <trkpt lat="43.21328" lon="6.62333">
        <ele>43</ele>
        <time>2013-09-16T12:38:33.000Z</time>
      </trkpt>
      <trkpt lat="43.21325" lon="6.62342">
        <ele>42</ele>
        <time>2013-09-16T12:38:34.000Z</time>
      </trkpt>
      <trkpt lat="43.21322" lon="6.62352">
        <ele>41</ele>
        <time>2013-09-16T12:38:35.000Z</time>
      </trkpt>
      <trkpt lat="43.2132" lon="6.62362">
        <ele>41</ele>
        <time>2013-09-16T12:38:36.000Z</time>
      </trkpt>
      <trkpt lat="43.21316" lon="6.62371">
        <ele>40</ele>
        <time>2013-09-16T12:38:37.000Z</time>
      </trkpt>
      <trkpt lat="43.21313" lon="6.62381">
        <ele>40</ele>
        <time>2013-09-16T12:38:38.000Z</time>
      </trkpt>
      <trkpt lat="43.2131" lon="6.62391">
        <ele>39</ele>
        <time>2013-09-16T12:38:39.000Z</time>
      </trkpt>
      <trkpt lat="43.21307" lon="6.62399">
        <ele>39</ele>
        <time>2013-09-16T12:38:40.000Z</time>
      </trkpt>
      <trkpt lat="43.21304" lon="6.62407">
        <ele>39</ele>
        <time>2013-09-16T12:38:41.000Z</time>
      </trkpt>
      <trkpt lat="43.21301" lon="6.62414">
        <ele>39</ele>
        <time>2013-09-16T12:38:42.000Z</time>
      </trkpt>
      <trkpt lat="43.21297" lon="6.62419">
        <ele>36</ele>
        <time>2013-09-16T12:38:43.000Z</time>
      </trkpt>
      <trkpt lat="43.21293" lon="6.62424">
        <ele>36</ele>
        <time>2013-09-16T12:38:44.000Z</time>
      </trkpt>
      <trkpt lat="43.21288" lon="6.62427">
        <ele>36</ele>
        <time>2013-09-16T12:38:45.000Z</time>
      </trkpt>
      <trkpt lat="43.21283" lon="6.62429">
        <ele>36</ele>
        <time>2013-09-16T12:38:46.000Z</time>
      </trkpt>
      <trkpt lat="43.21279" lon="6.62433">
        <ele>36</ele>
        <time>2013-09-16T12:38:47.000Z</time>
      </trkpt>
      <trkpt lat="43.21276" lon="6.62438">
        <ele>36</ele>
        <time>2013-09-16T12:38:48.000Z</time>
      </trkpt>
      <trkpt lat="43.21273" lon="6.62445">
        <ele>36</ele>
        <time>2013-09-16T12:38:49.000Z</time>
      </trkpt>
      <trkpt lat="43.21272" lon="6.62451">
        <ele>36</ele>
        <time>2013-09-16T12:38:50.000Z</time>
      </trkpt>
      <trkpt lat="43.21272" lon="6.62459">
        <ele>36</ele>
        <time>2013-09-16T12:38:51.000Z</time>
      </trkpt>
      <trkpt lat="43.21272" lon="6.62468">
        <ele>36</ele>
        <time>2013-09-16T12:38:52.000Z</time>
      </trkpt>
      <trkpt lat="43.21271" lon="6.62477">
        <ele>35</ele>
        <time>2013-09-16T12:38:53.000Z</time>
      </trkpt>
      <trkpt lat="43.2127" lon="6.62487">
        <ele>35</ele>
        <time>2013-09-16T12:38:54.000Z</time>
      </trkpt>
      <trkpt lat="43.21269" lon="6.62497">
        <ele>35</ele>
        <time>2013-09-16T12:38:55.000Z</time>
      </trkpt>
      <trkpt lat="43.21266" lon="6.62507">
        <ele>34</ele>
        <time>2013-09-16T12:38:56.000Z</time>
      </trkpt>
      <trkpt lat="43.21263" lon="6.62518">
        <ele>34</ele>
        <time>2013-09-16T12:38:57.000Z</time>
      </trkpt>
      <trkpt lat="43.2126" lon="6.62527">
        <ele>33</ele>
        <time>2013-09-16T12:38:58.000Z</time>
      </trkpt>
      <trkpt lat="43.21256" lon="6.62537">
        <ele>33</ele>
        <time>2013-09-16T12:38:59.000Z</time>
      </trkpt>
      <trkpt lat="43.21252" lon="6.62546">
        <ele>33</ele>
        <time>2013-09-16T12:39:00.000Z</time>
      </trkpt>
      <trkpt lat="43.21248" lon="6.62554">
        <ele>32</ele>
        <time>2013-09-16T12:39:01.000Z</time>
      </trkpt>
      <trkpt lat="43.21244" lon="6.62563">
        <ele>32</ele>
        <time>2013-09-16T12:39:02.000Z</time>
      </trkpt>
      <trkpt lat="43.21239" lon="6.62571">
        <ele>31</ele>
        <time>2013-09-16T12:39:03.000Z</time>
      </trkpt>
      <trkpt lat="43.21235" lon="6.62579">
        <ele>31</ele>
        <time>2013-09-16T12:39:04.000Z</time>
      </trkpt>
      <trkpt lat="43.2123" lon="6.62587">
        <ele>31</ele>
        <time>2013-09-16T12:39:05.000Z</time>
      </trkpt>
      <trkpt lat="43.21225" lon="6.62595">
        <ele>31</ele>
        <time>2013-09-16T12:39:06.000Z</time>
      </trkpt>
      <trkpt lat="43.21221" lon="6.62603">
        <ele>30</ele>
        <time>2013-09-16T12:39:07.000Z</time>
      </trkpt>
      <trkpt lat="43.21216" lon="6.62611">
        <ele>30</ele>
        <time>2013-09-16T12:39:08.000Z</time>
      </trkpt>
      <trkpt lat="43.21212" lon="6.62619">
        <ele>30</ele>
        <time>2013-09-16T12:39:09.000Z</time>
      </trkpt>
      <trkpt lat="43.21209" lon="6.62627">
        <ele>30</ele>
        <time>2013-09-16T12:39:10.000Z</time>
      </trkpt>
      <trkpt lat="43.21205" lon="6.62635">
        <ele>30</ele>
        <time>2013-09-16T12:39:11.000Z</time>
      </trkpt>
      <trkpt lat="43.21203" lon="6.62643">
        <ele>30</ele>
        <time>2013-09-16T12:39:12.000Z</time>
      </trkpt>
      <trkpt lat="43.212" lon="6.6265">
        <ele>30</ele>
        <time>2013-09-16T12:39:13.000Z</time>
      </trkpt>
      <trkpt lat="43.21198" lon="6.62658">
        <ele>30</ele>
        <time>2013-09-16T12:39:14.000Z</time>
      </trkpt>
      <trkpt lat="43.21196" lon="6.62666">
        <ele>30</ele>
        <time>2013-09-16T12:39:15.000Z</time>
      </trkpt>
      <trkpt lat="43.21195" lon="6.62675">
        <ele>30</ele>
        <time>2013-09-16T12:39:16.000Z</time>
      </trkpt>
      <trkpt lat="43.21194" lon="6.62683">
        <ele>30</ele>
        <time>2013-09-16T12:39:17.000Z</time>
      </trkpt>
      <trkpt lat="43.21194" lon="6.62691">
        <ele>30</ele>
        <time>2013-09-16T12:39:18.000Z</time>
      </trkpt>
      <trkpt lat="43.21194" lon="6.627">
        <ele>30</ele>
        <time>2013-09-16T12:39:19.000Z</time>
      </trkpt>
      <trkpt lat="43.21194" lon="6.62708">
        <ele>30</ele>
        <time>2013-09-16T12:39:20.000Z</time>
      </trkpt>
      <trkpt lat="43.21194" lon="6.62716">
        <ele>30</ele>
        <time>2013-09-16T12:39:21.000Z</time>
      </trkpt>
      <trkpt lat="43.21195" lon="6.62724">
        <ele>30</ele>
        <time>2013-09-16T12:39:22.000Z</time>
      </trkpt>
      <trkpt lat="43.21195" lon="6.62732">
        <ele>30</ele>
        <time>2013-09-16T12:39:23.000Z</time>
      </trkpt>
      <trkpt lat="43.21196" lon="6.62741">
        <ele>30</ele>
        <time>2013-09-16T12:39:24.000Z</time>
      </trkpt>
      <trkpt lat="43.21197" lon="6.62749">
        <ele>30</ele>
        <time>2013-09-16T12:39:25.000Z</time>
      </trkpt>
      <trkpt lat="43.21197" lon="6.62758">
        <ele>31</ele>
        <time>2013-09-16T12:39:26.000Z</time>
      </trkpt>
      <trkpt lat="43.21198" lon="6.62766">
        <ele>31</ele>
        <time>2013-09-16T12:39:27.000Z</time>
      </trkpt>
      <trkpt lat="43.21198" lon="6.62775">
        <ele>31</ele>
        <time>2013-09-16T12:39:28.000Z</time>
      </trkpt>
      <trkpt lat="43.21198" lon="6.62783">
        <ele>31</ele>
        <time>2013-09-16T12:39:29.000Z</time>
      </trkpt>
      <trkpt lat="43.21199" lon="6.62792">
        <ele>31</ele>
        <time>2013-09-16T12:39:30.000Z</time>
      </trkpt>
      <trkpt lat="43.21198" lon="6.62808">
        <ele>31</ele>
        <time>2013-09-16T12:39:32.000Z</time>
      </trkpt>
      <trkpt lat="43.21198" lon="6.62816">
        <ele>31</ele>
        <time>2013-09-16T12:39:33.000Z</time>
      </trkpt>
      <trkpt lat="43.21197" lon="6.62824">
        <ele>31</ele>
        <time>2013-09-16T12:39:34.000Z</time>
      </trkpt>
      <trkpt lat="43.21196" lon="6.62832">
        <ele>31</ele>
        <time>2013-09-16T12:39:35.000Z</time>
      </trkpt>
      <trkpt lat="43.21195" lon="6.6284">
        <ele>32</ele>
        <time>2013-09-16T12:39:36.000Z</time>
      </trkpt>
      <trkpt lat="43.21194" lon="6.62847">
        <ele>32</ele>
        <time>2013-09-16T12:39:37.000Z</time>
      </trkpt>
      <trkpt lat="43.21193" lon="6.62854">
        <ele>32</ele>
        <time>2013-09-16T12:39:38.000Z</time>
      </trkpt>
      <trkpt lat="43.21192" lon="6.62861">
        <ele>32</ele>
        <time>2013-09-16T12:39:39.000Z</time>
      </trkpt>
      <trkpt lat="43.21191" lon="6.62867">
        <ele>32</ele>
        <time>2013-09-16T12:39:40.000Z</time>
      </trkpt>
      <trkpt lat="43.21189" lon="6.62874">
        <ele>32</ele>
        <time>2013-09-16T12:39:41.000Z</time>
      </trkpt>
      <trkpt lat="43.21188" lon="6.6288">
        <ele>32</ele>
        <time>2013-09-16T12:39:42.000Z</time>
      </trkpt>
      <trkpt lat="43.21188" lon="6.62887">
        <ele>32</ele>
        <time>2013-09-16T12:39:43.000Z</time>
      </trkpt>
      <trkpt lat="43.21187" lon="6.62893">
        <ele>32</ele>
        <time>2013-09-16T12:39:44.000Z</time>
      </trkpt>
      <trkpt lat="43.21186" lon="6.629">
        <ele>32</ele>
        <time>2013-09-16T12:39:45.000Z</time>
      </trkpt>
      <trkpt lat="43.21186" lon="6.62907">
        <ele>32</ele>
        <time>2013-09-16T12:39:46.000Z</time>
      </trkpt>
      <trkpt lat="43.21185" lon="6.62913">
        <ele>31</ele>
        <time>2013-09-16T12:39:47.000Z</time>
      </trkpt>
      <trkpt lat="43.21185" lon="6.6292">
        <ele>33</ele>
        <time>2013-09-16T12:39:48.000Z</time>
      </trkpt>
      <trkpt lat="43.21184" lon="6.62926">
        <ele>33</ele>
        <time>2013-09-16T12:39:49.000Z</time>
      </trkpt>
      <trkpt lat="43.21184" lon="6.62933">
        <ele>33</ele>
        <time>2013-09-16T12:39:50.000Z</time>
      </trkpt>
      <trkpt lat="43.21184" lon="6.62944">
        <ele>34</ele>
        <time>2013-09-16T12:39:52.000Z</time>
      </trkpt>
      <trkpt lat="43.21183" lon="6.62948">
        <ele>34</ele>
        <time>2013-09-16T12:39:53.000Z</time>
      </trkpt>
      <trkpt lat="43.21183" lon="6.62951">
        <ele>34</ele>
        <time>2013-09-16T12:39:54.000Z</time>
      </trkpt>
      <trkpt lat="43.21183" lon="6.62952">
        <ele>34</ele>
        <time>2013-09-16T12:39:55.000Z</time>
      </trkpt>
      <trkpt lat="43.21183" lon="6.62955">
        <ele>35</ele>
        <time>2013-09-16T12:39:58.000Z</time>
      </trkpt>
      <trkpt lat="43.21183" lon="6.62955">
        <ele>35</ele>
        <time>2013-09-16T12:39:59.000Z</time>
      </trkpt>
      <trkpt lat="43.21183" lon="6.62955">
        <ele>35</ele>
        <time>2013-09-16T12:40:00.000Z</time>
      </trkpt>
      <trkpt lat="43.21183" lon="6.62955">
        <ele>35</ele>
        <time>2013-09-16T12:40:01.000Z</time>
      </trkpt>
      <trkpt lat="43.21183" lon="6.62956">
        <ele>35</ele>
        <time>2013-09-16T12:40:02.000Z</time>
      </trkpt>
      <trkpt lat="43.21183" lon="6.62956">
        <ele>35</ele>
        <time>2013-09-16T12:40:05.000Z</time>
      </trkpt>
      <trkpt lat="43.21183" lon="6.62956">
        <ele>35</ele>
        <time>2013-09-16T12:40:07.000Z</time>
      </trkpt>
      <trkpt lat="43.21184" lon="6.62956">
        <ele>35</ele>
        <time>2013-09-16T12:40:09.000Z</time>
      </trkpt>
      <trkpt lat="43.21184" lon="6.62956">
        <ele>35</ele>
        <time>2013-09-16T12:40:10.000Z</time>
      </trkpt>
      <trkpt lat="43.21184" lon="6.62956">
        <ele>35</ele>
        <time>2013-09-16T12:40:14.000Z</time>
      </trkpt>
      <trkpt lat="43.21184" lon="6.62956">
        <ele>35</ele>
        <time>2013-09-16T12:40:16.000Z</time>
      </trkpt>
      <trkpt lat="43.21184" lon="6.62956">
        <ele>35</ele>
        <time>2013-09-16T12:40:20.000Z</time>
      </trkpt>
      <trkpt lat="43.21184" lon="6.62956">
        <ele>35</ele>
        <time>2013-09-16T12:40:23.000Z</time>
      </trkpt>
      <trkpt lat="43.21184" lon="6.62956">
        <ele>35</ele>
        <time>2013-09-16T12:40:27.000Z</time>
      </trkpt>
      <trkpt lat="43.21184" lon="6.62961">
        <ele>35</ele>
        <time>2013-09-16T12:40:33.000Z</time>
      </trkpt>
      <trkpt lat="43.21184" lon="6.62964">
        <ele>35</ele>
        <time>2013-09-16T12:40:34.000Z</time>
      </trkpt>
      <trkpt lat="43.21184" lon="6.62972">
        <ele>35</ele>
        <time>2013-09-16T12:40:36.000Z</time>
      </trkpt>
      <trkpt lat="43.21184" lon="6.62981">
        <ele>35</ele>
        <time>2013-09-16T12:40:38.000Z</time>
      </trkpt>
      <trkpt lat="43.21184" lon="6.62993">
        <ele>34</ele>
        <time>2013-09-16T12:40:40.000Z</time>
      </trkpt>
      <trkpt lat="43.21184" lon="6.62999">
        <ele>34</ele>
        <time>2013-09-16T12:40:41.000Z</time>
      </trkpt>
      <trkpt lat="43.21184" lon="6.63013">
        <ele>35</ele>
        <time>2013-09-16T12:40:43.000Z</time>
      </trkpt>
      <trkpt lat="43.21184" lon="6.63021">
        <ele>35</ele>
        <time>2013-09-16T12:40:44.000Z</time>
      </trkpt>
      <trkpt lat="43.21183" lon="6.63028">
        <ele>35</ele>
        <time>2013-09-16T12:40:45.000Z</time>
      </trkpt>
      <trkpt lat="43.21183" lon="6.63036">
        <ele>35</ele>
        <time>2013-09-16T12:40:46.000Z</time>
      </trkpt>
      <trkpt lat="43.21182" lon="6.63044">
        <ele>35</ele>
        <time>2013-09-16T12:40:47.000Z</time>
      </trkpt>
      <trkpt lat="43.21182" lon="6.63052">
        <ele>35</ele>
        <time>2013-09-16T12:40:48.000Z</time>
      </trkpt>
      <trkpt lat="43.21181" lon="6.6306">
        <ele>35</ele>
        <time>2013-09-16T12:40:49.000Z</time>
      </trkpt>
      <trkpt lat="43.2118" lon="6.63068">
        <ele>34</ele>
        <time>2013-09-16T12:40:50.000Z</time>
      </trkpt>
      <trkpt lat="43.2118" lon="6.63076">
        <ele>34</ele>
        <time>2013-09-16T12:40:51.000Z</time>
      </trkpt>
      <trkpt lat="43.21179" lon="6.63084">
        <ele>33</ele>
        <time>2013-09-16T12:40:52.000Z</time>
      </trkpt>
      <trkpt lat="43.21179" lon="6.63091">
        <ele>33</ele>
        <time>2013-09-16T12:40:53.000Z</time>
      </trkpt>
      <trkpt lat="43.21178" lon="6.63099">
        <ele>33</ele>
        <time>2013-09-16T12:40:54.000Z</time>
      </trkpt>
      <trkpt lat="43.21177" lon="6.63106">
        <ele>34</ele>
        <time>2013-09-16T12:40:55.000Z</time>
      </trkpt>
      <trkpt lat="43.21177" lon="6.63113">
        <ele>34</ele>
        <time>2013-09-16T12:40:56.000Z</time>
      </trkpt>
      <trkpt lat="43.21176" lon="6.63121">
        <ele>34</ele>
        <time>2013-09-16T12:40:57.000Z</time>
      </trkpt>
      <trkpt lat="43.21175" lon="6.63128">
        <ele>34</ele>
        <time>2013-09-16T12:40:58.000Z</time>
      </trkpt>
      <trkpt lat="43.21175" lon="6.63135">
        <ele>34</ele>
        <time>2013-09-16T12:40:59.000Z</time>
      </trkpt>
      <trkpt lat="43.21174" lon="6.63142">
        <ele>33</ele>
        <time>2013-09-16T12:41:00.000Z</time>
      </trkpt>
      <trkpt lat="43.21174" lon="6.6315">
        <ele>33</ele>
        <time>2013-09-16T12:41:01.000Z</time>
      </trkpt>
      <trkpt lat="43.21173" lon="6.63157">
        <ele>33</ele>
        <time>2013-09-16T12:41:02.000Z</time>
      </trkpt>
      <trkpt lat="43.21173" lon="6.63164">
        <ele>32</ele>
        <time>2013-09-16T12:41:03.000Z</time>
      </trkpt>
      <trkpt lat="43.21172" lon="6.63171">
        <ele>32</ele>
        <time>2013-09-16T12:41:04.000Z</time>
      </trkpt>
      <trkpt lat="43.21172" lon="6.63178">
        <ele>32</ele>
        <time>2013-09-16T12:41:05.000Z</time>
      </trkpt>
      <trkpt lat="43.21171" lon="6.63185">
        <ele>33</ele>
        <time>2013-09-16T12:41:06.000Z</time>
      </trkpt>
      <trkpt lat="43.21171" lon="6.63192">
        <ele>33</ele>
        <time>2013-09-16T12:41:07.000Z</time>
      </trkpt>
      <trkpt lat="43.2117" lon="6.63199">
        <ele>33</ele>
        <time>2013-09-16T12:41:08.000Z</time>
      </trkpt>
      <trkpt lat="43.2117" lon="6.63206">
        <ele>33</ele>
        <time>2013-09-16T12:41:09.000Z</time>
      </trkpt>
      <trkpt lat="43.21169" lon="6.63214">
        <ele>33</ele>
        <time>2013-09-16T12:41:10.000Z</time>
      </trkpt>
      <trkpt lat="43.21169" lon="6.63221">
        <ele>33</ele>
        <time>2013-09-16T12:41:11.000Z</time>
      </trkpt>
      <trkpt lat="43.21168" lon="6.63228">
        <ele>32</ele>
        <time>2013-09-16T12:41:12.000Z</time>
      </trkpt>
      <trkpt lat="43.21167" lon="6.63234">
        <ele>32</ele>
        <time>2013-09-16T12:41:13.000Z</time>
      </trkpt>
      <trkpt lat="43.21167" lon="6.63241">
        <ele>30</ele>
        <time>2013-09-16T12:41:14.000Z</time>
      </trkpt>
      <trkpt lat="43.21166" lon="6.63248">
        <ele>30</ele>
        <time>2013-09-16T12:41:15.000Z</time>
      </trkpt>
      <trkpt lat="43.21166" lon="6.63255">
        <ele>30</ele>
        <time>2013-09-16T12:41:16.000Z</time>
      </trkpt>
      <trkpt lat="43.21165" lon="6.63263">
        <ele>29</ele>
        <time>2013-09-16T12:41:17.000Z</time>
      </trkpt>
      <trkpt lat="43.21164" lon="6.6327">
        <ele>29</ele>
        <time>2013-09-16T12:41:18.000Z</time>
      </trkpt>
      <trkpt lat="43.21164" lon="6.63277">
        <ele>29</ele>
        <time>2013-09-16T12:41:19.000Z</time>
      </trkpt>
      <trkpt lat="43.21163" lon="6.63284">
        <ele>29</ele>
        <time>2013-09-16T12:41:20.000Z</time>
      </trkpt>
      <trkpt lat="43.21163" lon="6.63292">
        <ele>29</ele>
        <time>2013-09-16T12:41:21.000Z</time>
      </trkpt>
      <trkpt lat="43.21162" lon="6.63299">
        <ele>29</ele>
        <time>2013-09-16T12:41:22.000Z</time>
      </trkpt>
      <trkpt lat="43.21162" lon="6.63307">
        <ele>29</ele>
        <time>2013-09-16T12:41:23.000Z</time>
      </trkpt>
      <trkpt lat="43.21161" lon="6.63314">
        <ele>30</ele>
        <time>2013-09-16T12:41:24.000Z</time>
      </trkpt>
      <trkpt lat="43.21161" lon="6.63322">
        <ele>30</ele>
        <time>2013-09-16T12:41:25.000Z</time>
      </trkpt>
      <trkpt lat="43.21161" lon="6.6333">
        <ele>30</ele>
        <time>2013-09-16T12:41:26.000Z</time>
      </trkpt>
      <trkpt lat="43.21161" lon="6.63338">
        <ele>30</ele>
        <time>2013-09-16T12:41:27.000Z</time>
      </trkpt>
      <trkpt lat="43.21161" lon="6.63367">
        <ele>30</ele>
        <time>2013-09-16T12:41:31.000Z</time>
      </trkpt>
      <trkpt lat="43.21161" lon="6.63374">
        <ele>30</ele>
        <time>2013-09-16T12:41:32.000Z</time>
      </trkpt>
      <trkpt lat="43.21161" lon="6.6338">
        <ele>30</ele>
        <time>2013-09-16T12:41:33.000Z</time>
      </trkpt>
      <trkpt lat="43.21162" lon="6.63387">
        <ele>31</ele>
        <time>2013-09-16T12:41:34.000Z</time>
      </trkpt>
      <trkpt lat="43.21162" lon="6.63394">
        <ele>31</ele>
        <time>2013-09-16T12:41:35.000Z</time>
      </trkpt>
      <trkpt lat="43.21162" lon="6.634">
        <ele>32</ele>
        <time>2013-09-16T12:41:36.000Z</time>
      </trkpt>
      <trkpt lat="43.21163" lon="6.63406">
        <ele>32</ele>
        <time>2013-09-16T12:41:37.000Z</time>
      </trkpt>
      <trkpt lat="43.21163" lon="6.63412">
        <ele>33</ele>
        <time>2013-09-16T12:41:38.000Z</time>
      </trkpt>
      <trkpt lat="43.21163" lon="6.63418">
        <ele>34</ele>
        <time>2013-09-16T12:41:39.000Z</time>
      </trkpt>
      <trkpt lat="43.21163" lon="6.63423">
        <ele>33</ele>
        <time>2013-09-16T12:41:40.000Z</time>
      </trkpt>
      <trkpt lat="43.21164" lon="6.63428">
        <ele>33</ele>
        <time>2013-09-16T12:41:41.000Z</time>
      </trkpt>
      <trkpt lat="43.21165" lon="6.63433">
        <ele>33</ele>
        <time>2013-09-16T12:41:42.000Z</time>
      </trkpt>
      <trkpt lat="43.21165" lon="6.63437">
        <ele>33</ele>
        <time>2013-09-16T12:41:43.000Z</time>
      </trkpt>
      <trkpt lat="43.21165" lon="6.63441">
        <ele>33</ele>
        <time>2013-09-16T12:41:44.000Z</time>
      </trkpt>
      <trkpt lat="43.21165" lon="6.63445">
        <ele>33</ele>
        <time>2013-09-16T12:41:45.000Z</time>
      </trkpt>
      <trkpt lat="43.21166" lon="6.63449">
        <ele>33</ele>
        <time>2013-09-16T12:41:46.000Z</time>
      </trkpt>
      <trkpt lat="43.21166" lon="6.6346">
        <ele>33</ele>
        <time>2013-09-16T12:41:49.000Z</time>
      </trkpt>
      <trkpt lat="43.21166" lon="6.63467">
        <ele>34</ele>
        <time>2013-09-16T12:41:51.000Z</time>
      </trkpt>
      <trkpt lat="43.21166" lon="6.6347">
        <ele>34</ele>
        <time>2013-09-16T12:41:52.000Z</time>
      </trkpt>
      <trkpt lat="43.21166" lon="6.63474">
        <ele>34</ele>
        <time>2013-09-16T12:41:53.000Z</time>
      </trkpt>
      <trkpt lat="43.21166" lon="6.63481">
        <ele>35</ele>
        <time>2013-09-16T12:41:55.000Z</time>
      </trkpt>
      <trkpt lat="43.21167" lon="6.63487">
        <ele>36</ele>
        <time>2013-09-16T12:41:57.000Z</time>
      </trkpt>
      <trkpt lat="43.21167" lon="6.63494">
        <ele>40</ele>
        <time>2013-09-16T12:41:59.000Z</time>
      </trkpt>
      <trkpt lat="43.21167" lon="6.63501">
        <ele>39</ele>
        <time>2013-09-16T12:42:01.000Z</time>
      </trkpt>
      <trkpt lat="43.21167" lon="6.63504">
        <ele>40</ele>
        <time>2013-09-16T12:42:02.000Z</time>
      </trkpt>
      <trkpt lat="43.21167" lon="6.63514">
        <ele>42</ele>
        <time>2013-09-16T12:42:05.000Z</time>
      </trkpt>
      <trkpt lat="43.21167" lon="6.63517">
        <ele>42</ele>
        <time>2013-09-16T12:42:06.000Z</time>
      </trkpt>
      <trkpt lat="43.21167" lon="6.63524">
        <ele>43</ele>
        <time>2013-09-16T12:42:08.000Z</time>
      </trkpt>
      <trkpt lat="43.21167" lon="6.63528">
        <ele>43</ele>
        <time>2013-09-16T12:42:09.000Z</time>
      </trkpt>
      <trkpt lat="43.21167" lon="6.63536">
        <ele>43</ele>
        <time>2013-09-16T12:42:11.000Z</time>
      </trkpt>
      <trkpt lat="43.21167" lon="6.6354">
        <ele>43</ele>
        <time>2013-09-16T12:42:12.000Z</time>
      </trkpt>
      <trkpt lat="43.21166" lon="6.63545">
        <ele>35</ele>
        <time>2013-09-16T12:42:13.000Z</time>
      </trkpt>
      <trkpt lat="43.21166" lon="6.63549">
        <ele>35</ele>
        <time>2013-09-16T12:42:14.000Z</time>
      </trkpt>
      <trkpt lat="43.21165" lon="6.63555">
        <ele>36</ele>
        <time>2013-09-16T12:42:15.000Z</time>
      </trkpt>
      <trkpt lat="43.21165" lon="6.6356">
        <ele>36</ele>
        <time>2013-09-16T12:42:16.000Z</time>
      </trkpt>
      <trkpt lat="43.21164" lon="6.63567">
        <ele>36</ele>
        <time>2013-09-16T12:42:17.000Z</time>
      </trkpt>
      <trkpt lat="43.21163" lon="6.63574">
        <ele>37</ele>
        <time>2013-09-16T12:42:18.000Z</time>
      </trkpt>
      <trkpt lat="43.21162" lon="6.63581">
        <ele>38</ele>
        <time>2013-09-16T12:42:19.000Z</time>
      </trkpt>
      <trkpt lat="43.21161" lon="6.6359">
        <ele>37</ele>
        <time>2013-09-16T12:42:20.000Z</time>
      </trkpt>
      <trkpt lat="43.2116" lon="6.63597">
        <ele>35</ele>
        <time>2013-09-16T12:42:21.000Z</time>
      </trkpt>
      <trkpt lat="43.21159" lon="6.63606">
        <ele>34</ele>
        <time>2013-09-16T12:42:22.000Z</time>
      </trkpt>
      <trkpt lat="43.21158" lon="6.63613">
        <ele>33</ele>
        <time>2013-09-16T12:42:23.000Z</time>
      </trkpt>
      <trkpt lat="43.21156" lon="6.63622">
        <ele>33</ele>
        <time>2013-09-16T12:42:24.000Z</time>
      </trkpt>
      <trkpt lat="43.21155" lon="6.6363">
        <ele>32</ele>
        <time>2013-09-16T12:42:25.000Z</time>
      </trkpt>
      <trkpt lat="43.21154" lon="6.63638">
        <ele>32</ele>
        <time>2013-09-16T12:42:26.000Z</time>
      </trkpt>
      <trkpt lat="43.21153" lon="6.63645">
        <ele>32</ele>
        <time>2013-09-16T12:42:27.000Z</time>
      </trkpt>
      <trkpt lat="43.21152" lon="6.63653">
        <ele>32</ele>
        <time>2013-09-16T12:42:28.000Z</time>
      </trkpt>
      <trkpt lat="43.21151" lon="6.6366">
        <ele>32</ele>
        <time>2013-09-16T12:42:29.000Z</time>
      </trkpt>
      <trkpt lat="43.21151" lon="6.63666">
        <ele>32</ele>
        <time>2013-09-16T12:42:30.000Z</time>
      </trkpt>
      <trkpt lat="43.21151" lon="6.63671">
        <ele>30</ele>
        <time>2013-09-16T12:42:31.000Z</time>
      </trkpt>
      <trkpt lat="43.2115" lon="6.63676">
        <ele>30</ele>
        <time>2013-09-16T12:42:32.000Z</time>
      </trkpt>
      <trkpt lat="43.2115" lon="6.6368">
        <ele>30</ele>
        <time>2013-09-16T12:42:33.000Z</time>
      </trkpt>
      <trkpt lat="43.21149" lon="6.63684">
        <ele>29</ele>
        <time>2013-09-16T12:42:34.000Z</time>
      </trkpt>
      <trkpt lat="43.21146" lon="6.63689">
        <ele>29</ele>
        <time>2013-09-16T12:42:35.000Z</time>
      </trkpt>
      <trkpt lat="43.21143" lon="6.63693">
        <ele>29</ele>
        <time>2013-09-16T12:42:36.000Z</time>
      </trkpt>
      <trkpt lat="43.21139" lon="6.63696">
        <ele>28</ele>
        <time>2013-09-16T12:42:37.000Z</time>
      </trkpt>
      <trkpt lat="43.21135" lon="6.63699">
        <ele>28</ele>
        <time>2013-09-16T12:42:38.000Z</time>
      </trkpt>
      <trkpt lat="43.21131" lon="6.63701">
        <ele>28</ele>
        <time>2013-09-16T12:42:39.000Z</time>
      </trkpt>
      <trkpt lat="43.21127" lon="6.63704">
        <ele>27</ele>
        <time>2013-09-16T12:42:40.000Z</time>
      </trkpt>
      <trkpt lat="43.21122" lon="6.63707">
        <ele>27</ele>
        <time>2013-09-16T12:42:41.000Z</time>
      </trkpt>
      <trkpt lat="43.21118" lon="6.63711">
        <ele>27</ele>
        <time>2013-09-16T12:42:42.000Z</time>
      </trkpt>
      <trkpt lat="43.21113" lon="6.63716">
        <ele>26</ele>
        <time>2013-09-16T12:42:43.000Z</time>
      </trkpt>
      <trkpt lat="43.21109" lon="6.63723">
        <ele>26</ele>
        <time>2013-09-16T12:42:44.000Z</time>
      </trkpt>
      <trkpt lat="43.21104" lon="6.6373">
        <ele>25</ele>
        <time>2013-09-16T12:42:45.000Z</time>
      </trkpt>
      <trkpt lat="43.21099" lon="6.63737">
        <ele>25</ele>
        <time>2013-09-16T12:42:46.000Z</time>
      </trkpt>
      <trkpt lat="43.21093" lon="6.63744">
        <ele>23</ele>
        <time>2013-09-16T12:42:47.000Z</time>
      </trkpt>
      <trkpt lat="43.21087" lon="6.6375">
        <ele>21</ele>
        <time>2013-09-16T12:42:48.000Z</time>
      </trkpt>
      <trkpt lat="43.21081" lon="6.63757">
        <ele>20</ele>
        <time>2013-09-16T12:42:49.000Z</time>
      </trkpt>
      <trkpt lat="43.21074" lon="6.63763">
        <ele>20</ele>
        <time>2013-09-16T12:42:50.000Z</time>
      </trkpt>
      <trkpt lat="43.21067" lon="6.63769">
        <ele>19</ele>
        <time>2013-09-16T12:42:51.000Z</time>
      </trkpt>
      <trkpt lat="43.2106" lon="6.63776">
        <ele>19</ele>
        <time>2013-09-16T12:42:52.000Z</time>
      </trkpt>
      <trkpt lat="43.21053" lon="6.63783">
        <ele>19</ele>
        <time>2013-09-16T12:42:53.000Z</time>
      </trkpt>
      <trkpt lat="43.21046" lon="6.63789">
        <ele>18</ele>
        <time>2013-09-16T12:42:54.000Z</time>
      </trkpt>
      <trkpt lat="43.21039" lon="6.63795">
        <ele>18</ele>
        <time>2013-09-16T12:42:55.000Z</time>
      </trkpt>
      <trkpt lat="43.21031" lon="6.63802">
        <ele>18</ele>
        <time>2013-09-16T12:42:56.000Z</time>
      </trkpt>
      <trkpt lat="43.21024" lon="6.63809">
        <ele>18</ele>
        <time>2013-09-16T12:42:57.000Z</time>
      </trkpt>
      <trkpt lat="43.21017" lon="6.63817">
        <ele>17</ele>
        <time>2013-09-16T12:42:58.000Z</time>
      </trkpt>
      <trkpt lat="43.2101" lon="6.63825">
        <ele>17</ele>
        <time>2013-09-16T12:42:59.000Z</time>
      </trkpt>
      <trkpt lat="43.21004" lon="6.63833">
        <ele>16</ele>
        <time>2013-09-16T12:43:00.000Z</time>
      </trkpt>
      <trkpt lat="43.20998" lon="6.63841">
        <ele>16</ele>
        <time>2013-09-16T12:43:01.000Z</time>
      </trkpt>
      <trkpt lat="43.20992" lon="6.63849">
        <ele>16</ele>
        <time>2013-09-16T12:43:02.000Z</time>
      </trkpt>
      <trkpt lat="43.20986" lon="6.63858">
        <ele>15</ele>
        <time>2013-09-16T12:43:03.000Z</time>
      </trkpt>
      <trkpt lat="43.2098" lon="6.63866">
        <ele>15</ele>
        <time>2013-09-16T12:43:04.000Z</time>
      </trkpt>
      <trkpt lat="43.20975" lon="6.63874">
        <ele>15</ele>
        <time>2013-09-16T12:43:05.000Z</time>
      </trkpt>
      <trkpt lat="43.2097" lon="6.63882">
        <ele>15</ele>
        <time>2013-09-16T12:43:06.000Z</time>
      </trkpt>
      <trkpt lat="43.20964" lon="6.63891">
        <ele>15</ele>
        <time>2013-09-16T12:43:07.000Z</time>
      </trkpt>
      <trkpt lat="43.20959" lon="6.63899">
        <ele>15</ele>
        <time>2013-09-16T12:43:08.000Z</time>
      </trkpt>
      <trkpt lat="43.20954" lon="6.63907">
        <ele>15</ele>
        <time>2013-09-16T12:43:09.000Z</time>
      </trkpt>
      <trkpt lat="43.2095" lon="6.63915">
        <ele>15</ele>
        <time>2013-09-16T12:43:10.000Z</time>
      </trkpt>
      <trkpt lat="43.20945" lon="6.63923">
        <ele>15</ele>
        <time>2013-09-16T12:43:11.000Z</time>
      </trkpt>
      <trkpt lat="43.20941" lon="6.63931">
        <ele>15</ele>
        <time>2013-09-16T12:43:12.000Z</time>
      </trkpt>
      <trkpt lat="43.20937" lon="6.63939">
        <ele>15</ele>
        <time>2013-09-16T12:43:13.000Z</time>
      </trkpt>
      <trkpt lat="43.20933" lon="6.63946">
        <ele>15</ele>
        <time>2013-09-16T12:43:14.000Z</time>
      </trkpt>
      <trkpt lat="43.20929" lon="6.63954">
        <ele>15</ele>
        <time>2013-09-16T12:43:15.000Z</time>
      </trkpt>
      <trkpt lat="43.20925" lon="6.63962">
        <ele>15</ele>
        <time>2013-09-16T12:43:16.000Z</time>
      </trkpt>
      <trkpt lat="43.20921" lon="6.63969">
        <ele>15</ele>
        <time>2013-09-16T12:43:17.000Z</time>
      </trkpt>
      <trkpt lat="43.20918" lon="6.63977">
        <ele>16</ele>
        <time>2013-09-16T12:43:18.000Z</time>
      </trkpt>
      <trkpt lat="43.20915" lon="6.63984">
        <ele>15</ele>
        <time>2013-09-16T12:43:19.000Z</time>
      </trkpt>
      <trkpt lat="43.20912" lon="6.63992">
        <ele>16</ele>
        <time>2013-09-16T12:43:20.000Z</time>
      </trkpt>
      <trkpt lat="43.20909" lon="6.63999">
        <ele>16</ele>
        <time>2013-09-16T12:43:21.000Z</time>
      </trkpt>
      <trkpt lat="43.20906" lon="6.64007">
        <ele>15</ele>
        <time>2013-09-16T12:43:22.000Z</time>
      </trkpt>
      <trkpt lat="43.20904" lon="6.64015">
        <ele>15</ele>
        <time>2013-09-16T12:43:23.000Z</time>
      </trkpt>
      <trkpt lat="43.20902" lon="6.64023">
        <ele>15</ele>
        <time>2013-09-16T12:43:24.000Z</time>
      </trkpt>
      <trkpt lat="43.209" lon="6.64031">
        <ele>15</ele>
        <time>2013-09-16T12:43:25.000Z</time>
      </trkpt>
      <trkpt lat="43.20898" lon="6.64039">
        <ele>15</ele>
        <time>2013-09-16T12:43:26.000Z</time>
      </trkpt>
      <trkpt lat="43.20897" lon="6.64047">
        <ele>15</ele>
        <time>2013-09-16T12:43:27.000Z</time>
      </trkpt>
      <trkpt lat="43.20896" lon="6.64056">
        <ele>15</ele>
        <time>2013-09-16T12:43:28.000Z</time>
      </trkpt>
      <trkpt lat="43.20895" lon="6.64065">
        <ele>15</ele>
        <time>2013-09-16T12:43:29.000Z</time>
      </trkpt>
      <trkpt lat="43.20893" lon="6.64074">
        <ele>15</ele>
        <time>2013-09-16T12:43:30.000Z</time>
      </trkpt>
      <trkpt lat="43.20893" lon="6.64083">
        <ele>15</ele>
        <time>2013-09-16T12:43:31.000Z</time>
      </trkpt>
      <trkpt lat="43.20892" lon="6.64092">
        <ele>14</ele>
        <time>2013-09-16T12:43:32.000Z</time>
      </trkpt>
      <trkpt lat="43.20892" lon="6.64101">
        <ele>14</ele>
        <time>2013-09-16T12:43:33.000Z</time>
      </trkpt>
      <trkpt lat="43.20892" lon="6.6411">
        <ele>14</ele>
        <time>2013-09-16T12:43:34.000Z</time>
      </trkpt>
      <trkpt lat="43.20891" lon="6.64128">
        <ele>14</ele>
        <time>2013-09-16T12:43:36.000Z</time>
      </trkpt>
      <trkpt lat="43.20891" lon="6.64137">
        <ele>13</ele>
        <time>2013-09-16T12:43:37.000Z</time>
      </trkpt>
      <trkpt lat="43.20891" lon="6.64146">
        <ele>13</ele>
        <time>2013-09-16T12:43:38.000Z</time>
      </trkpt>
      <trkpt lat="43.2089" lon="6.64155">
        <ele>13</ele>
        <time>2013-09-16T12:43:39.000Z</time>
      </trkpt>
      <trkpt lat="43.20889" lon="6.64164">
        <ele>13</ele>
        <time>2013-09-16T12:43:40.000Z</time>
      </trkpt>
      <trkpt lat="43.20889" lon="6.64174">
        <ele>12</ele>
        <time>2013-09-16T12:43:41.000Z</time>
      </trkpt>
      <trkpt lat="43.20889" lon="6.64183">
        <ele>12</ele>
        <time>2013-09-16T12:43:42.000Z</time>
      </trkpt>
      <trkpt lat="43.20888" lon="6.64192">
        <ele>12</ele>
        <time>2013-09-16T12:43:43.000Z</time>
      </trkpt>
      <trkpt lat="43.20888" lon="6.64201">
        <ele>12</ele>
        <time>2013-09-16T12:43:44.000Z</time>
      </trkpt>
      <trkpt lat="43.20888" lon="6.6422">
        <ele>12</ele>
        <time>2013-09-16T12:43:46.000Z</time>
      </trkpt>
      <trkpt lat="43.20889" lon="6.64229">
        <ele>12</ele>
        <time>2013-09-16T12:43:47.000Z</time>
      </trkpt>
      <trkpt lat="43.2089" lon="6.64238">
        <ele>12</ele>
        <time>2013-09-16T12:43:48.000Z</time>
      </trkpt>
      <trkpt lat="43.20892" lon="6.64247">
        <ele>12</ele>
        <time>2013-09-16T12:43:49.000Z</time>
      </trkpt>
      <trkpt lat="43.20893" lon="6.64256">
        <ele>12</ele>
        <time>2013-09-16T12:43:50.000Z</time>
      </trkpt>
      <trkpt lat="43.20894" lon="6.64265">
        <ele>12</ele>
        <time>2013-09-16T12:43:51.000Z</time>
      </trkpt>
      <trkpt lat="43.20895" lon="6.64274">
        <ele>12</ele>
        <time>2013-09-16T12:43:52.000Z</time>
      </trkpt>
      <trkpt lat="43.20896" lon="6.64283">
        <ele>12</ele>
        <time>2013-09-16T12:43:53.000Z</time>
      </trkpt>
      <trkpt lat="43.20897" lon="6.64291">
        <ele>12</ele>
        <time>2013-09-16T12:43:54.000Z</time>
      </trkpt>
      <trkpt lat="43.20898" lon="6.643">
        <ele>11</ele>
        <time>2013-09-16T12:43:55.000Z</time>
      </trkpt>
      <trkpt lat="43.20899" lon="6.64309">
        <ele>11</ele>
        <time>2013-09-16T12:43:56.000Z</time>
      </trkpt>
      <trkpt lat="43.209" lon="6.64318">
        <ele>11</ele>
        <time>2013-09-16T12:43:57.000Z</time>
      </trkpt>
      <trkpt lat="43.209" lon="6.64326">
        <ele>11</ele>
        <time>2013-09-16T12:43:58.000Z</time>
      </trkpt>
      <trkpt lat="43.209" lon="6.64335">
        <ele>11</ele>
        <time>2013-09-16T12:43:59.000Z</time>
      </trkpt>
      <trkpt lat="43.20901" lon="6.64344">
        <ele>11</ele>
        <time>2013-09-16T12:44:00.000Z</time>
      </trkpt>
      <trkpt lat="43.20901" lon="6.64353">
        <ele>11</ele>
        <time>2013-09-16T12:44:01.000Z</time>
      </trkpt>
      <trkpt lat="43.209" lon="6.64362">
        <ele>11</ele>
        <time>2013-09-16T12:44:02.000Z</time>
      </trkpt>
      <trkpt lat="43.209" lon="6.6437">
        <ele>11</ele>
        <time>2013-09-16T12:44:03.000Z</time>
      </trkpt>
      <trkpt lat="43.20899" lon="6.64379">
        <ele>11</ele>
        <time>2013-09-16T12:44:04.000Z</time>
      </trkpt>
      <trkpt lat="43.20899" lon="6.64388">
        <ele>11</ele>
        <time>2013-09-16T12:44:05.000Z</time>
      </trkpt>
      <trkpt lat="43.20898" lon="6.64397">
        <ele>11</ele>
        <time>2013-09-16T12:44:06.000Z</time>
      </trkpt>
      <trkpt lat="43.20897" lon="6.64405">
        <ele>11</ele>
        <time>2013-09-16T12:44:07.000Z</time>
      </trkpt>
      <trkpt lat="43.20895" lon="6.64414">
        <ele>11</ele>
        <time>2013-09-16T12:44:08.000Z</time>
      </trkpt>
      <trkpt lat="43.20894" lon="6.64422">
        <ele>11</ele>
        <time>2013-09-16T12:44:09.000Z</time>
      </trkpt>
      <trkpt lat="43.20892" lon="6.6443">
        <ele>11</ele>
        <time>2013-09-16T12:44:10.000Z</time>
      </trkpt>
      <trkpt lat="43.2089" lon="6.64438">
        <ele>11</ele>
        <time>2013-09-16T12:44:11.000Z</time>
      </trkpt>
      <trkpt lat="43.20888" lon="6.64444">
        <ele>11</ele>
        <time>2013-09-16T12:44:12.000Z</time>
      </trkpt>
      <trkpt lat="43.20886" lon="6.6445">
        <ele>11</ele>
        <time>2013-09-16T12:44:13.000Z</time>
      </trkpt>
      <trkpt lat="43.20884" lon="6.64456">
        <ele>11</ele>
        <time>2013-09-16T12:44:14.000Z</time>
      </trkpt>
      <trkpt lat="43.20882" lon="6.64462">
        <ele>11</ele>
        <time>2013-09-16T12:44:15.000Z</time>
      </trkpt>
      <trkpt lat="43.20879" lon="6.64467">
        <ele>11</ele>
        <time>2013-09-16T12:44:16.000Z</time>
      </trkpt>
      <trkpt lat="43.20875" lon="6.64472">
        <ele>12</ele>
        <time>2013-09-16T12:44:17.000Z</time>
      </trkpt>
      <trkpt lat="43.20871" lon="6.64476">
        <ele>12</ele>
        <time>2013-09-16T12:44:18.000Z</time>
      </trkpt>
      <trkpt lat="43.20868" lon="6.6448">
        <ele>12</ele>
        <time>2013-09-16T12:44:19.000Z</time>
      </trkpt>
      <trkpt lat="43.20865" lon="6.64483">
        <ele>12</ele>
        <time>2013-09-16T12:44:20.000Z</time>
      </trkpt>
      <trkpt lat="43.20862" lon="6.64486">
        <ele>12</ele>
        <time>2013-09-16T12:44:21.000Z</time>
      </trkpt>
      <trkpt lat="43.20859" lon="6.64488">
        <ele>12</ele>
        <time>2013-09-16T12:44:22.000Z</time>
      </trkpt>
      <trkpt lat="43.20855" lon="6.6449">
        <ele>12</ele>
        <time>2013-09-16T12:44:23.000Z</time>
      </trkpt>
      <trkpt lat="43.20852" lon="6.64493">
        <ele>12</ele>
        <time>2013-09-16T12:44:24.000Z</time>
      </trkpt>
      <trkpt lat="43.20849" lon="6.64496">
        <ele>12</ele>
        <time>2013-09-16T12:44:25.000Z</time>
      </trkpt>
      <trkpt lat="43.20847" lon="6.645">
        <ele>12</ele>
        <time>2013-09-16T12:44:26.000Z</time>
      </trkpt>
      <trkpt lat="43.20844" lon="6.64505">
        <ele>12</ele>
        <time>2013-09-16T12:44:27.000Z</time>
      </trkpt>
      <trkpt lat="43.20842" lon="6.64511">
        <ele>12</ele>
        <time>2013-09-16T12:44:28.000Z</time>
      </trkpt>
      <trkpt lat="43.20841" lon="6.64517">
        <ele>12</ele>
        <time>2013-09-16T12:44:29.000Z</time>
      </trkpt>
      <trkpt lat="43.2084" lon="6.64524">
        <ele>12</ele>
        <time>2013-09-16T12:44:30.000Z</time>
      </trkpt>
      <trkpt lat="43.2084" lon="6.64531">
        <ele>12</ele>
        <time>2013-09-16T12:44:31.000Z</time>
      </trkpt>
      <trkpt lat="43.20839" lon="6.64538">
        <ele>12</ele>
        <time>2013-09-16T12:44:32.000Z</time>
      </trkpt>
      <trkpt lat="43.20839" lon="6.64546">
        <ele>12</ele>
        <time>2013-09-16T12:44:33.000Z</time>
      </trkpt>
      <trkpt lat="43.2084" lon="6.64554">
        <ele>12</ele>
        <time>2013-09-16T12:44:34.000Z</time>
      </trkpt>
      <trkpt lat="43.20842" lon="6.64562">
        <ele>12</ele>
        <time>2013-09-16T12:44:35.000Z</time>
      </trkpt>
      <trkpt lat="43.20843" lon="6.64571">
        <ele>13</ele>
        <time>2013-09-16T12:44:36.000Z</time>
      </trkpt>
      <trkpt lat="43.20844" lon="6.64579">
        <ele>13</ele>
        <time>2013-09-16T12:44:37.000Z</time>
      </trkpt>
      <trkpt lat="43.20843" lon="6.64593">
        <ele>12</ele>
        <time>2013-09-16T12:44:39.000Z</time>
      </trkpt>
      <trkpt lat="43.20841" lon="6.64599">
        <ele>12</ele>
        <time>2013-09-16T12:44:40.000Z</time>
      </trkpt>
      <trkpt lat="43.20837" lon="6.64603">
        <ele>12</ele>
        <time>2013-09-16T12:44:41.000Z</time>
      </trkpt>
      <trkpt lat="43.20832" lon="6.64606">
        <ele>12</ele>
        <time>2013-09-16T12:44:42.000Z</time>
      </trkpt>
      <trkpt lat="43.20828" lon="6.64608">
        <ele>12</ele>
        <time>2013-09-16T12:44:43.000Z</time>
      </trkpt>
      <trkpt lat="43.20823" lon="6.6461">
        <ele>12</ele>
        <time>2013-09-16T12:44:44.000Z</time>
      </trkpt>
      <trkpt lat="43.20819" lon="6.64612">
        <ele>12</ele>
        <time>2013-09-16T12:44:45.000Z</time>
      </trkpt>
      <trkpt lat="43.20815" lon="6.64613">
        <ele>12</ele>
        <time>2013-09-16T12:44:46.000Z</time>
      </trkpt>
      <trkpt lat="43.20811" lon="6.64614">
        <ele>11</ele>
        <time>2013-09-16T12:44:47.000Z</time>
      </trkpt>
      <trkpt lat="43.20806" lon="6.64616">
        <ele>11</ele>
        <time>2013-09-16T12:44:48.000Z</time>
      </trkpt>
      <trkpt lat="43.20802" lon="6.64617">
        <ele>11</ele>
        <time>2013-09-16T12:44:49.000Z</time>
      </trkpt>
      <trkpt lat="43.20798" lon="6.64619">
        <ele>11</ele>
        <time>2013-09-16T12:44:50.000Z</time>
      </trkpt>
      <trkpt lat="43.20794" lon="6.6462">
        <ele>11</ele>
        <time>2013-09-16T12:44:51.000Z</time>
      </trkpt>
      <trkpt lat="43.2079" lon="6.64622">
        <ele>11</ele>
        <time>2013-09-16T12:44:52.000Z</time>
      </trkpt>
      <trkpt lat="43.20786" lon="6.64623">
        <ele>11</ele>
        <time>2013-09-16T12:44:53.000Z</time>
      </trkpt>
      <trkpt lat="43.20782" lon="6.64625">
        <ele>11</ele>
        <time>2013-09-16T12:44:54.000Z</time>
      </trkpt>
      <trkpt lat="43.20779" lon="6.64627">
        <ele>11</ele>
        <time>2013-09-16T12:44:55.000Z</time>
      </trkpt>
      <trkpt lat="43.20776" lon="6.64629">
        <ele>11</ele>
        <time>2013-09-16T12:44:56.000Z</time>
      </trkpt>
      <trkpt lat="43.20774" lon="6.64632">
        <ele>11</ele>
        <time>2013-09-16T12:44:57.000Z</time>
      </trkpt>
      <trkpt lat="43.20771" lon="6.64635">
        <ele>11</ele>
        <time>2013-09-16T12:44:58.000Z</time>
      </trkpt>
      <trkpt lat="43.20768" lon="6.64638">
        <ele>11</ele>
        <time>2013-09-16T12:44:59.000Z</time>
      </trkpt>
      <trkpt lat="43.20765" lon="6.64642">
        <ele>11</ele>
        <time>2013-09-16T12:45:00.000Z</time>
      </trkpt>
      <trkpt lat="43.20763" lon="6.64645">
        <ele>11</ele>
        <time>2013-09-16T12:45:01.000Z</time>
      </trkpt>
      <trkpt lat="43.2076" lon="6.64649">
        <ele>11</ele>
        <time>2013-09-16T12:45:02.000Z</time>
      </trkpt>
      <trkpt lat="43.20758" lon="6.64652">
        <ele>11</ele>
        <time>2013-09-16T12:45:03.000Z</time>
      </trkpt>
      <trkpt lat="43.20755" lon="6.64655">
        <ele>11</ele>
        <time>2013-09-16T12:45:04.000Z</time>
      </trkpt>
      <trkpt lat="43.20753" lon="6.64658">
        <ele>11</ele>
        <time>2013-09-16T12:45:05.000Z</time>
      </trkpt>
      <trkpt lat="43.2075" lon="6.64662">
        <ele>11</ele>
        <time>2013-09-16T12:45:06.000Z</time>
      </trkpt>
      <trkpt lat="43.20748" lon="6.64665">
        <ele>11</ele>
        <time>2013-09-16T12:45:07.000Z</time>
      </trkpt>
      <trkpt lat="43.20745" lon="6.64669">
        <ele>12</ele>
        <time>2013-09-16T12:45:08.000Z</time>
      </trkpt>
      <trkpt lat="43.20743" lon="6.64673">
        <ele>12</ele>
        <time>2013-09-16T12:45:09.000Z</time>
      </trkpt>
      <trkpt lat="43.2074" lon="6.64676">
        <ele>13</ele>
        <time>2013-09-16T12:45:10.000Z</time>
      </trkpt>
      <trkpt lat="43.20737" lon="6.64679">
        <ele>13</ele>
        <time>2013-09-16T12:45:11.000Z</time>
      </trkpt>
      <trkpt lat="43.20735" lon="6.64683">
        <ele>13</ele>
        <time>2013-09-16T12:45:12.000Z</time>
      </trkpt>
      <trkpt lat="43.20732" lon="6.64687">
        <ele>13</ele>
        <time>2013-09-16T12:45:13.000Z</time>
      </trkpt>
      <trkpt lat="43.2073" lon="6.6469">
        <ele>14</ele>
        <time>2013-09-16T12:45:14.000Z</time>
      </trkpt>
      <trkpt lat="43.20727" lon="6.64694">
        <ele>14</ele>
        <time>2013-09-16T12:45:15.000Z</time>
      </trkpt>
      <trkpt lat="43.20725" lon="6.64697">
        <ele>14</ele>
        <time>2013-09-16T12:45:16.000Z</time>
      </trkpt>
      <trkpt lat="43.20722" lon="6.647">
        <ele>14</ele>
        <time>2013-09-16T12:45:17.000Z</time>
      </trkpt>
      <trkpt lat="43.2072" lon="6.64703">
        <ele>14</ele>
        <time>2013-09-16T12:45:18.000Z</time>
      </trkpt>
      <trkpt lat="43.20718" lon="6.64706">
        <ele>14</ele>
        <time>2013-09-16T12:45:19.000Z</time>
      </trkpt>
      <trkpt lat="43.20716" lon="6.6471">
        <ele>15</ele>
        <time>2013-09-16T12:45:20.000Z</time>
      </trkpt>
      <trkpt lat="43.20714" lon="6.64713">
        <ele>15</ele>
        <time>2013-09-16T12:45:21.000Z</time>
      </trkpt>
      <trkpt lat="43.20713" lon="6.64716">
        <ele>15</ele>
        <time>2013-09-16T12:45:22.000Z</time>
      </trkpt>
      <trkpt lat="43.20711" lon="6.64719">
        <ele>15</ele>
        <time>2013-09-16T12:45:23.000Z</time>
      </trkpt>
      <trkpt lat="43.2071" lon="6.64721">
        <ele>15</ele>
        <time>2013-09-16T12:45:24.000Z</time>
      </trkpt>
      <trkpt lat="43.20709" lon="6.64724">
        <ele>15</ele>
        <time>2013-09-16T12:45:25.000Z</time>
      </trkpt>
      <trkpt lat="43.20708" lon="6.64727">
        <ele>15</ele>
        <time>2013-09-16T12:45:26.000Z</time>
      </trkpt>
      <trkpt lat="43.20707" lon="6.6473">
        <ele>15</ele>
        <time>2013-09-16T12:45:27.000Z</time>
      </trkpt>
      <trkpt lat="43.20706" lon="6.64733">
        <ele>15</ele>
        <time>2013-09-16T12:45:28.000Z</time>
      </trkpt>
      <trkpt lat="43.20706" lon="6.64736">
        <ele>15</ele>
        <time>2013-09-16T12:45:29.000Z</time>
      </trkpt>
      <trkpt lat="43.20705" lon="6.64739">
        <ele>16</ele>
        <time>2013-09-16T12:45:30.000Z</time>
      </trkpt>
      <trkpt lat="43.20705" lon="6.64742">
        <ele>16</ele>
        <time>2013-09-16T12:45:31.000Z</time>
      </trkpt>
      <trkpt lat="43.20705" lon="6.64755">
        <ele>19</ele>
        <time>2013-09-16T12:45:35.000Z</time>
      </trkpt>
      <trkpt lat="43.20706" lon="6.64759">
        <ele>19</ele>
        <time>2013-09-16T12:45:36.000Z</time>
      </trkpt>
      <trkpt lat="43.20706" lon="6.64762">
        <ele>19</ele>
        <time>2013-09-16T12:45:37.000Z</time>
      </trkpt>
      <trkpt lat="43.20706" lon="6.64765">
        <ele>19</ele>
        <time>2013-09-16T12:45:38.000Z</time>
      </trkpt>
      <trkpt lat="43.20707" lon="6.64769">
        <ele>19</ele>
        <time>2013-09-16T12:45:39.000Z</time>
      </trkpt>
      <trkpt lat="43.20707" lon="6.64772">
        <ele>19</ele>
        <time>2013-09-16T12:45:40.000Z</time>
      </trkpt>
      <trkpt lat="43.20707" lon="6.64775">
        <ele>19</ele>
        <time>2013-09-16T12:45:41.000Z</time>
      </trkpt>
      <trkpt lat="43.20708" lon="6.64779">
        <ele>19</ele>
        <time>2013-09-16T12:45:42.000Z</time>
      </trkpt>
      <trkpt lat="43.20708" lon="6.64782">
        <ele>19</ele>
        <time>2013-09-16T12:45:43.000Z</time>
      </trkpt>
      <trkpt lat="43.20709" lon="6.64785">
        <ele>20</ele>
        <time>2013-09-16T12:45:44.000Z</time>
      </trkpt>
      <trkpt lat="43.2071" lon="6.64789">
        <ele>20</ele>
        <time>2013-09-16T12:45:45.000Z</time>
      </trkpt>
      <trkpt lat="43.2071" lon="6.64792">
        <ele>20</ele>
        <time>2013-09-16T12:45:46.000Z</time>
      </trkpt>
      <trkpt lat="43.2071" lon="6.64796">
        <ele>20</ele>
        <time>2013-09-16T12:45:47.000Z</time>
      </trkpt>
      <trkpt lat="43.20711" lon="6.64799">
        <ele>20</ele>
        <time>2013-09-16T12:45:48.000Z</time>
      </trkpt>
      <trkpt lat="43.20711" lon="6.64802">
        <ele>20</ele>
        <time>2013-09-16T12:45:49.000Z</time>
      </trkpt>
      <trkpt lat="43.20711" lon="6.64805">
        <ele>20</ele>
        <time>2013-09-16T12:45:50.000Z</time>
      </trkpt>
      <trkpt lat="43.20712" lon="6.64809">
        <ele>20</ele>
        <time>2013-09-16T12:45:51.000Z</time>
      </trkpt>
      <trkpt lat="43.20712" lon="6.64812">
        <ele>20</ele>
        <time>2013-09-16T12:45:52.000Z</time>
      </trkpt>
      <trkpt lat="43.20713" lon="6.64815">
        <ele>20</ele>
        <time>2013-09-16T12:45:53.000Z</time>
      </trkpt>
      <trkpt lat="43.20713" lon="6.64819">
        <ele>20</ele>
        <time>2013-09-16T12:45:54.000Z</time>
      </trkpt>
      <trkpt lat="43.20714" lon="6.64822">
        <ele>20</ele>
        <time>2013-09-16T12:45:55.000Z</time>
      </trkpt>
      <trkpt lat="43.20715" lon="6.64825">
        <ele>20</ele>
        <time>2013-09-16T12:45:56.000Z</time>
      </trkpt>
      <trkpt lat="43.20715" lon="6.64828">
        <ele>20</ele>
        <time>2013-09-16T12:45:57.000Z</time>
      </trkpt>
      <trkpt lat="43.20715" lon="6.64831">
        <ele>21</ele>
        <time>2013-09-16T12:45:58.000Z</time>
      </trkpt>
      <trkpt lat="43.20716" lon="6.64835">
        <ele>24</ele>
        <time>2013-09-16T12:45:59.000Z</time>
      </trkpt>
      <trkpt lat="43.20716" lon="6.64838">
        <ele>24</ele>
        <time>2013-09-16T12:46:00.000Z</time>
      </trkpt>
      <trkpt lat="43.20717" lon="6.64841">
        <ele>24</ele>
        <time>2013-09-16T12:46:01.000Z</time>
      </trkpt>
      <trkpt lat="43.20718" lon="6.64845">
        <ele>24</ele>
        <time>2013-09-16T12:46:02.000Z</time>
      </trkpt>
      <trkpt lat="43.20718" lon="6.64848">
        <ele>24</ele>
        <time>2013-09-16T12:46:03.000Z</time>
      </trkpt>
      <trkpt lat="43.20719" lon="6.64851">
        <ele>24</ele>
        <time>2013-09-16T12:46:04.000Z</time>
      </trkpt>
      <trkpt lat="43.20719" lon="6.64855">
        <ele>24</ele>
        <time>2013-09-16T12:46:05.000Z</time>
      </trkpt>
      <trkpt lat="43.2072" lon="6.64858">
        <ele>24</ele>
        <time>2013-09-16T12:46:06.000Z</time>
      </trkpt>
      <trkpt lat="43.2072" lon="6.6486">
        <ele>25</ele>
        <time>2013-09-16T12:46:07.000Z</time>
      </trkpt>
      <trkpt lat="43.20721" lon="6.64863">
        <ele>25</ele>
        <time>2013-09-16T12:46:08.000Z</time>
      </trkpt>
      <trkpt lat="43.20721" lon="6.64866">
        <ele>25</ele>
        <time>2013-09-16T12:46:09.000Z</time>
      </trkpt>
      <trkpt lat="43.20722" lon="6.64869">
        <ele>25</ele>
        <time>2013-09-16T12:46:10.000Z</time>
      </trkpt>
      <trkpt lat="43.20722" lon="6.64871">
        <ele>25</ele>
        <time>2013-09-16T12:46:11.000Z</time>
      </trkpt>
      <trkpt lat="43.20723" lon="6.64874">
        <ele>25</ele>
        <time>2013-09-16T12:46:12.000Z</time>
      </trkpt>
      <trkpt lat="43.20724" lon="6.64877">
        <ele>25</ele>
        <time>2013-09-16T12:46:13.000Z</time>
      </trkpt>
      <trkpt lat="43.20724" lon="6.6488">
        <ele>25</ele>
        <time>2013-09-16T12:46:14.000Z</time>
      </trkpt>
      <trkpt lat="43.20725" lon="6.64883">
        <ele>25</ele>
        <time>2013-09-16T12:46:15.000Z</time>
      </trkpt>
      <trkpt lat="43.20726" lon="6.64886">
        <ele>25</ele>
        <time>2013-09-16T12:46:16.000Z</time>
      </trkpt>
      <trkpt lat="43.20727" lon="6.64889">
        <ele>26</ele>
        <time>2013-09-16T12:46:17.000Z</time>
      </trkpt>
      <trkpt lat="43.20728" lon="6.64892">
        <ele>26</ele>
        <time>2013-09-16T12:46:18.000Z</time>
      </trkpt>
      <trkpt lat="43.20728" lon="6.64895">
        <ele>26</ele>
        <time>2013-09-16T12:46:19.000Z</time>
      </trkpt>
      <trkpt lat="43.20728" lon="6.64898">
        <ele>26</ele>
        <time>2013-09-16T12:46:20.000Z</time>
      </trkpt>
      <trkpt lat="43.20729" lon="6.64901">
        <ele>26</ele>
        <time>2013-09-16T12:46:21.000Z</time>
      </trkpt>
      <trkpt lat="43.20729" lon="6.64904">
        <ele>26</ele>
        <time>2013-09-16T12:46:22.000Z</time>
      </trkpt>
      <trkpt lat="43.2073" lon="6.64907">
        <ele>26</ele>
        <time>2013-09-16T12:46:23.000Z</time>
      </trkpt>
      <trkpt lat="43.2073" lon="6.6491">
        <ele>26</ele>
        <time>2013-09-16T12:46:24.000Z</time>
      </trkpt>
      <trkpt lat="43.20731" lon="6.64913">
        <ele>26</ele>
        <time>2013-09-16T12:46:25.000Z</time>
      </trkpt>
      <trkpt lat="43.20733" lon="6.64915">
        <ele>26</ele>
        <time>2013-09-16T12:46:26.000Z</time>
      </trkpt>
      <trkpt lat="43.20733" lon="6.64918">
        <ele>28</ele>
        <time>2013-09-16T12:46:27.000Z</time>
      </trkpt>
      <trkpt lat="43.20734" lon="6.64921">
        <ele>28</ele>
        <time>2013-09-16T12:46:28.000Z</time>
      </trkpt>
      <trkpt lat="43.20735" lon="6.64924">
        <ele>28</ele>
        <time>2013-09-16T12:46:29.000Z</time>
      </trkpt>
      <trkpt lat="43.20735" lon="6.64927">
        <ele>28</ele>
        <time>2013-09-16T12:46:30.000Z</time>
      </trkpt>
      <trkpt lat="43.20736" lon="6.6493">
        <ele>28</ele>
        <time>2013-09-16T12:46:31.000Z</time>
      </trkpt>
      <trkpt lat="43.20737" lon="6.64932">
        <ele>28</ele>
        <time>2013-09-16T12:46:32.000Z</time>
      </trkpt>
      <trkpt lat="43.20737" lon="6.64935">
        <ele>28</ele>
        <time>2013-09-16T12:46:33.000Z</time>
      </trkpt>
      <trkpt lat="43.20738" lon="6.64937">
        <ele>28</ele>
        <time>2013-09-16T12:46:34.000Z</time>
      </trkpt>
      <trkpt lat="43.20739" lon="6.6494">
        <ele>28</ele>
        <time>2013-09-16T12:46:35.000Z</time>
      </trkpt>
      <trkpt lat="43.2074" lon="6.64942">
        <ele>28</ele>
        <time>2013-09-16T12:46:36.000Z</time>
      </trkpt>
      <trkpt lat="43.20741" lon="6.64944">
        <ele>28</ele>
        <time>2013-09-16T12:46:37.000Z</time>
      </trkpt>
      <trkpt lat="43.20742" lon="6.64947">
        <ele>28</ele>
        <time>2013-09-16T12:46:38.000Z</time>
      </trkpt>
      <trkpt lat="43.20743" lon="6.64949">
        <ele>28</ele>
        <time>2013-09-16T12:46:39.000Z</time>
      </trkpt>
      <trkpt lat="43.20744" lon="6.64951">
        <ele>28</ele>
        <time>2013-09-16T12:46:40.000Z</time>
      </trkpt>
      <trkpt lat="43.20745" lon="6.64953">
        <ele>28</ele>
        <time>2013-09-16T12:46:41.000Z</time>
      </trkpt>
      <trkpt lat="43.20746" lon="6.64955">
        <ele>29</ele>
        <time>2013-09-16T12:46:42.000Z</time>
      </trkpt>
      <trkpt lat="43.20747" lon="6.64958">
        <ele>29</ele>
        <time>2013-09-16T12:46:43.000Z</time>
      </trkpt>
      <trkpt lat="43.20748" lon="6.64961">
        <ele>29</ele>
        <time>2013-09-16T12:46:44.000Z</time>
      </trkpt>
      <trkpt lat="43.20748" lon="6.64964">
        <ele>29</ele>
        <time>2013-09-16T12:46:45.000Z</time>
      </trkpt>
      <trkpt lat="43.20749" lon="6.64967">
        <ele>29</ele>
        <time>2013-09-16T12:46:46.000Z</time>
      </trkpt>
      <trkpt lat="43.20749" lon="6.6497">
        <ele>29</ele>
        <time>2013-09-16T12:46:47.000Z</time>
      </trkpt>
      <trkpt lat="43.20749" lon="6.64973">
        <ele>29</ele>
        <time>2013-09-16T12:46:48.000Z</time>
      </trkpt>
      <trkpt lat="43.20749" lon="6.64976">
        <ele>29</ele>
        <time>2013-09-16T12:46:49.000Z</time>
      </trkpt>
      <trkpt lat="43.20748" lon="6.64978">
        <ele>29</ele>
        <time>2013-09-16T12:46:50.000Z</time>
      </trkpt>
      <trkpt lat="43.20748" lon="6.64981">
        <ele>29</ele>
        <time>2013-09-16T12:46:51.000Z</time>
      </trkpt>
      <trkpt lat="43.20747" lon="6.64983">
        <ele>29</ele>
        <time>2013-09-16T12:46:52.000Z</time>
      </trkpt>
      <trkpt lat="43.20745" lon="6.64985">
        <ele>29</ele>
        <time>2013-09-16T12:46:53.000Z</time>
      </trkpt>
      <trkpt lat="43.20744" lon="6.64987">
        <ele>29</ele>
        <time>2013-09-16T12:46:54.000Z</time>
      </trkpt>
      <trkpt lat="43.20743" lon="6.64989">
        <ele>29</ele>
        <time>2013-09-16T12:46:55.000Z</time>
      </trkpt>
      <trkpt lat="43.20742" lon="6.64991">
        <ele>29</ele>
        <time>2013-09-16T12:46:56.000Z</time>
      </trkpt>
      <trkpt lat="43.2074" lon="6.64993">
        <ele>29</ele>
        <time>2013-09-16T12:46:57.000Z</time>
      </trkpt>
      <trkpt lat="43.20739" lon="6.64995">
        <ele>29</ele>
        <time>2013-09-16T12:46:58.000Z</time>
      </trkpt>
      <trkpt lat="43.20738" lon="6.64996">
        <ele>29</ele>
        <time>2013-09-16T12:46:59.000Z</time>
      </trkpt>
      <trkpt lat="43.20736" lon="6.64998">
        <ele>29</ele>
        <time>2013-09-16T12:47:00.000Z</time>
      </trkpt>
      <trkpt lat="43.20734" lon="6.64999">
        <ele>29</ele>
        <time>2013-09-16T12:47:01.000Z</time>
      </trkpt>
      <trkpt lat="43.20732" lon="6.65">
        <ele>28</ele>
        <time>2013-09-16T12:47:02.000Z</time>
      </trkpt>
      <trkpt lat="43.20731" lon="6.65001">
        <ele>28</ele>
        <time>2013-09-16T12:47:03.000Z</time>
      </trkpt>
      <trkpt lat="43.20728" lon="6.65002">
        <ele>28</ele>
        <time>2013-09-16T12:47:04.000Z</time>
      </trkpt>
      <trkpt lat="43.20726" lon="6.65003">
        <ele>29</ele>
        <time>2013-09-16T12:47:05.000Z</time>
      </trkpt>
      <trkpt lat="43.20724" lon="6.65004">
        <ele>29</ele>
        <time>2013-09-16T12:47:06.000Z</time>
      </trkpt>
      <trkpt lat="43.20723" lon="6.65005">
        <ele>29</ele>
        <time>2013-09-16T12:47:07.000Z</time>
      </trkpt>
      <trkpt lat="43.20721" lon="6.65006">
        <ele>29</ele>
        <time>2013-09-16T12:47:08.000Z</time>
      </trkpt>
      <trkpt lat="43.20719" lon="6.65007">
        <ele>29</ele>
        <time>2013-09-16T12:47:09.000Z</time>
      </trkpt>
      <trkpt lat="43.20717" lon="6.65008">
        <ele>29</ele>
        <time>2013-09-16T12:47:10.000Z</time>
      </trkpt>
      <trkpt lat="43.20715" lon="6.65009">
        <ele>29</ele>
        <time>2013-09-16T12:47:11.000Z</time>
      </trkpt>
      <trkpt lat="43.20713" lon="6.6501">
        <ele>29</ele>
        <time>2013-09-16T12:47:12.000Z</time>
      </trkpt>
      <trkpt lat="43.20711" lon="6.65011">
        <ele>29</ele>
        <time>2013-09-16T12:47:13.000Z</time>
      </trkpt>
      <trkpt lat="43.2071" lon="6.65011">
        <ele>29</ele>
        <time>2013-09-16T12:47:14.000Z</time>
      </trkpt>
      <trkpt lat="43.20708" lon="6.65012">
        <ele>29</ele>
        <time>2013-09-16T12:47:15.000Z</time>
      </trkpt>
      <trkpt lat="43.20706" lon="6.65013">
        <ele>29</ele>
        <time>2013-09-16T12:47:16.000Z</time>
      </trkpt>
      <trkpt lat="43.20705" lon="6.65014">
        <ele>29</ele>
        <time>2013-09-16T12:47:17.000Z</time>
      </trkpt>
      <trkpt lat="43.20703" lon="6.65014">
        <ele>29</ele>
        <time>2013-09-16T12:47:18.000Z</time>
      </trkpt>
      <trkpt lat="43.20701" lon="6.65015">
        <ele>29</ele>
        <time>2013-09-16T12:47:19.000Z</time>
      </trkpt>
      <trkpt lat="43.20699" lon="6.65016">
        <ele>29</ele>
        <time>2013-09-16T12:47:20.000Z</time>
      </trkpt>
      <trkpt lat="43.20697" lon="6.65017">
        <ele>30</ele>
        <time>2013-09-16T12:47:21.000Z</time>
      </trkpt>
      <trkpt lat="43.20695" lon="6.65018">
        <ele>30</ele>
        <time>2013-09-16T12:47:22.000Z</time>
      </trkpt>
      <trkpt lat="43.20694" lon="6.65019">
        <ele>30</ele>
        <time>2013-09-16T12:47:23.000Z</time>
      </trkpt>
      <trkpt lat="43.20692" lon="6.6502">
        <ele>30</ele>
        <time>2013-09-16T12:47:24.000Z</time>
      </trkpt>
      <trkpt lat="43.2069" lon="6.65022">
        <ele>30</ele>
        <time>2013-09-16T12:47:25.000Z</time>
      </trkpt>
      <trkpt lat="43.20689" lon="6.65023">
        <ele>30</ele>
        <time>2013-09-16T12:47:26.000Z</time>
      </trkpt>
      <trkpt lat="43.20687" lon="6.65025">
        <ele>30</ele>
        <time>2013-09-16T12:47:27.000Z</time>
      </trkpt>
      <trkpt lat="43.20686" lon="6.65027">
        <ele>30</ele>
        <time>2013-09-16T12:47:28.000Z</time>
      </trkpt>
      <trkpt lat="43.20684" lon="6.65028">
        <ele>30</ele>
        <time>2013-09-16T12:47:29.000Z</time>
      </trkpt>
      <trkpt lat="43.20682" lon="6.6503">
        <ele>30</ele>
        <time>2013-09-16T12:47:30.000Z</time>
      </trkpt>
      <trkpt lat="43.2068" lon="6.65032">
        <ele>30</ele>
        <time>2013-09-16T12:47:31.000Z</time>
      </trkpt>
      <trkpt lat="43.20678" lon="6.65034">
        <ele>30</ele>
        <time>2013-09-16T12:47:32.000Z</time>
      </trkpt>
      <trkpt lat="43.20676" lon="6.65036">
        <ele>30</ele>
        <time>2013-09-16T12:47:33.000Z</time>
      </trkpt>
      <trkpt lat="43.20675" lon="6.65038">
        <ele>30</ele>
        <time>2013-09-16T12:47:34.000Z</time>
      </trkpt>
      <trkpt lat="43.20674" lon="6.65039">
        <ele>30</ele>
        <time>2013-09-16T12:47:35.000Z</time>
      </trkpt>
      <trkpt lat="43.20672" lon="6.65041">
        <ele>30</ele>
        <time>2013-09-16T12:47:36.000Z</time>
      </trkpt>
      <trkpt lat="43.2067" lon="6.65043">
        <ele>30</ele>
        <time>2013-09-16T12:47:37.000Z</time>
      </trkpt>
      <trkpt lat="43.20668" lon="6.65045">
        <ele>30</ele>
        <time>2013-09-16T12:47:38.000Z</time>
      </trkpt>
      <trkpt lat="43.20666" lon="6.65047">
        <ele>32</ele>
        <time>2013-09-16T12:47:39.000Z</time>
      </trkpt>
      <trkpt lat="43.20664" lon="6.65049">
        <ele>32</ele>
        <time>2013-09-16T12:47:40.000Z</time>
      </trkpt>
      <trkpt lat="43.20662" lon="6.65051">
        <ele>32</ele>
        <time>2013-09-16T12:47:41.000Z</time>
      </trkpt>
      <trkpt lat="43.2066" lon="6.65052">
        <ele>32</ele>
        <time>2013-09-16T12:47:42.000Z</time>
      </trkpt>
      <trkpt lat="43.20657" lon="6.65054">
        <ele>32</ele>
        <time>2013-09-16T12:47:43.000Z</time>
      </trkpt>
      <trkpt lat="43.20655" lon="6.65055">
        <ele>32</ele>
        <time>2013-09-16T12:47:44.000Z</time>
      </trkpt>
      <trkpt lat="43.20652" lon="6.65056">
        <ele>32</ele>
        <time>2013-09-16T12:47:45.000Z</time>
      </trkpt>
      <trkpt lat="43.2065" lon="6.65058">
        <ele>32</ele>
        <time>2013-09-16T12:47:46.000Z</time>
      </trkpt>
      <trkpt lat="43.20648" lon="6.65059">
        <ele>32</ele>
        <time>2013-09-16T12:47:47.000Z</time>
      </trkpt>
      <trkpt lat="43.20647" lon="6.6506">
        <ele>32</ele>
        <time>2013-09-16T12:47:48.000Z</time>
      </trkpt>
      <trkpt lat="43.20645" lon="6.65061">
        <ele>32</ele>
        <time>2013-09-16T12:47:49.000Z</time>
      </trkpt>
      <trkpt lat="43.20642" lon="6.65061">
        <ele>32</ele>
        <time>2013-09-16T12:47:50.000Z</time>
      </trkpt>
      <trkpt lat="43.2064" lon="6.65062">
        <ele>32</ele>
        <time>2013-09-16T12:47:51.000Z</time>
      </trkpt>
      <trkpt lat="43.20637" lon="6.65062">
        <ele>32</ele>
        <time>2013-09-16T12:47:52.000Z</time>
      </trkpt>
      <trkpt lat="43.20635" lon="6.65063">
        <ele>33</ele>
        <time>2013-09-16T12:47:53.000Z</time>
      </trkpt>
      <trkpt lat="43.20632" lon="6.65063">
        <ele>33</ele>
        <time>2013-09-16T12:47:54.000Z</time>
      </trkpt>
      <trkpt lat="43.20629" lon="6.65063">
        <ele>33</ele>
        <time>2013-09-16T12:47:55.000Z</time>
      </trkpt>
      <trkpt lat="43.20627" lon="6.65064">
        <ele>33</ele>
        <time>2013-09-16T12:47:56.000Z</time>
      </trkpt>
      <trkpt lat="43.20624" lon="6.65064">
        <ele>33</ele>
        <time>2013-09-16T12:47:57.000Z</time>
      </trkpt>
      <trkpt lat="43.20621" lon="6.65065">
        <ele>33</ele>
        <time>2013-09-16T12:47:58.000Z</time>
      </trkpt>
      <trkpt lat="43.20618" lon="6.65065">
        <ele>33</ele>
        <time>2013-09-16T12:47:59.000Z</time>
      </trkpt>
      <trkpt lat="43.20616" lon="6.65066">
        <ele>33</ele>
        <time>2013-09-16T12:48:00.000Z</time>
      </trkpt>
      <trkpt lat="43.20612" lon="6.65066">
        <ele>33</ele>
        <time>2013-09-16T12:48:01.000Z</time>
      </trkpt>
      <trkpt lat="43.2061" lon="6.65067">
        <ele>33</ele>
        <time>2013-09-16T12:48:02.000Z</time>
      </trkpt>
      <trkpt lat="43.20607" lon="6.65068">
        <ele>33</ele>
        <time>2013-09-16T12:48:03.000Z</time>
      </trkpt>
      <trkpt lat="43.20604" lon="6.65069">
        <ele>34</ele>
        <time>2013-09-16T12:48:04.000Z</time>
      </trkpt>
      <trkpt lat="43.20601" lon="6.6507">
        <ele>34</ele>
        <time>2013-09-16T12:48:05.000Z</time>
      </trkpt>
      <trkpt lat="43.20599" lon="6.65071">
        <ele>34</ele>
        <time>2013-09-16T12:48:06.000Z</time>
      </trkpt>
      <trkpt lat="43.20596" lon="6.65073">
        <ele>34</ele>
        <time>2013-09-16T12:48:07.000Z</time>
      </trkpt>
      <trkpt lat="43.20594" lon="6.65075">
        <ele>34</ele>
        <time>2013-09-16T12:48:08.000Z</time>
      </trkpt>
      <trkpt lat="43.20591" lon="6.65077">
        <ele>34</ele>
        <time>2013-09-16T12:48:09.000Z</time>
      </trkpt>
      <trkpt lat="43.20589" lon="6.6508">
        <ele>34</ele>
        <time>2013-09-16T12:48:10.000Z</time>
      </trkpt>
      <trkpt lat="43.20587" lon="6.65083">
        <ele>35</ele>
        <time>2013-09-16T12:48:11.000Z</time>
      </trkpt>
      <trkpt lat="43.20586" lon="6.65086">
        <ele>35</ele>
        <time>2013-09-16T12:48:12.000Z</time>
      </trkpt>
      <trkpt lat="43.20584" lon="6.6509">
        <ele>35</ele>
        <time>2013-09-16T12:48:13.000Z</time>
      </trkpt>
      <trkpt lat="43.20583" lon="6.65093">
        <ele>36</ele>
        <time>2013-09-16T12:48:14.000Z</time>
      </trkpt>
      <trkpt lat="43.20582" lon="6.65096">
        <ele>36</ele>
        <time>2013-09-16T12:48:15.000Z</time>
      </trkpt>
      <trkpt lat="43.20582" lon="6.65099">
        <ele>36</ele>
        <time>2013-09-16T12:48:16.000Z</time>
      </trkpt>
      <trkpt lat="43.20581" lon="6.65102">
        <ele>37</ele>
        <time>2013-09-16T12:48:17.000Z</time>
      </trkpt>
      <trkpt lat="43.2058" lon="6.65105">
        <ele>37</ele>
        <time>2013-09-16T12:48:18.000Z</time>
      </trkpt>
      <trkpt lat="43.20579" lon="6.65108">
        <ele>37</ele>
        <time>2013-09-16T12:48:19.000Z</time>
      </trkpt>
      <trkpt lat="43.20578" lon="6.65111">
        <ele>37</ele>
        <time>2013-09-16T12:48:20.000Z</time>
      </trkpt>
      <trkpt lat="43.20578" lon="6.65114">
        <ele>37</ele>
        <time>2013-09-16T12:48:21.000Z</time>
      </trkpt>
      <trkpt lat="43.20577" lon="6.65118">
        <ele>37</ele>
        <time>2013-09-16T12:48:22.000Z</time>
      </trkpt>
      <trkpt lat="43.20577" lon="6.6512">
        <ele>38</ele>
        <time>2013-09-16T12:48:23.000Z</time>
      </trkpt>
      <trkpt lat="43.20576" lon="6.65124">
        <ele>38</ele>
        <time>2013-09-16T12:48:24.000Z</time>
      </trkpt>
      <trkpt lat="43.20575" lon="6.65127">
        <ele>38</ele>
        <time>2013-09-16T12:48:25.000Z</time>
      </trkpt>
      <trkpt lat="43.20574" lon="6.6513">
        <ele>38</ele>
        <time>2013-09-16T12:48:26.000Z</time>
      </trkpt>
      <trkpt lat="43.20573" lon="6.65133">
        <ele>38</ele>
        <time>2013-09-16T12:48:27.000Z</time>
      </trkpt>
      <trkpt lat="43.20572" lon="6.65135">
        <ele>38</ele>
        <time>2013-09-16T12:48:28.000Z</time>
      </trkpt>
      <trkpt lat="43.20571" lon="6.65138">
        <ele>38</ele>
        <time>2013-09-16T12:48:29.000Z</time>
      </trkpt>
      <trkpt lat="43.20569" lon="6.6514">
        <ele>38</ele>
        <time>2013-09-16T12:48:30.000Z</time>
      </trkpt>
      <trkpt lat="43.20568" lon="6.65143">
        <ele>39</ele>
        <time>2013-09-16T12:48:31.000Z</time>
      </trkpt>
      <trkpt lat="43.20567" lon="6.65147">
        <ele>39</ele>
        <time>2013-09-16T12:48:32.000Z</time>
      </trkpt>
      <trkpt lat="43.20567" lon="6.6515">
        <ele>39</ele>
        <time>2013-09-16T12:48:33.000Z</time>
      </trkpt>
      <trkpt lat="43.20566" lon="6.65154">
        <ele>39</ele>
        <time>2013-09-16T12:48:34.000Z</time>
      </trkpt>
      <trkpt lat="43.20565" lon="6.65158">
        <ele>39</ele>
        <time>2013-09-16T12:48:35.000Z</time>
      </trkpt>
      <trkpt lat="43.20564" lon="6.65161">
        <ele>39</ele>
        <time>2013-09-16T12:48:36.000Z</time>
      </trkpt>
      <trkpt lat="43.20563" lon="6.65165">
        <ele>39</ele>
        <time>2013-09-16T12:48:37.000Z</time>
      </trkpt>
      <trkpt lat="43.20562" lon="6.65168">
        <ele>42</ele>
        <time>2013-09-16T12:48:38.000Z</time>
      </trkpt>
      <trkpt lat="43.20561" lon="6.65171">
        <ele>42</ele>
        <time>2013-09-16T12:48:39.000Z</time>
      </trkpt>
      <trkpt lat="43.2056" lon="6.65174">
        <ele>42</ele>
        <time>2013-09-16T12:48:40.000Z</time>
      </trkpt>
      <trkpt lat="43.20559" lon="6.65178">
        <ele>42</ele>
        <time>2013-09-16T12:48:41.000Z</time>
      </trkpt>
      <trkpt lat="43.20559" lon="6.65181">
        <ele>42</ele>
        <time>2013-09-16T12:48:42.000Z</time>
      </trkpt>
      <trkpt lat="43.20558" lon="6.65184">
        <ele>42</ele>
        <time>2013-09-16T12:48:43.000Z</time>
      </trkpt>
      <trkpt lat="43.20558" lon="6.65188">
        <ele>42</ele>
        <time>2013-09-16T12:48:44.000Z</time>
      </trkpt>
      <trkpt lat="43.20558" lon="6.65191">
        <ele>42</ele>
        <time>2013-09-16T12:48:45.000Z</time>
      </trkpt>
      <trkpt lat="43.20558" lon="6.65195">
        <ele>42</ele>
        <time>2013-09-16T12:48:46.000Z</time>
      </trkpt>
      <trkpt lat="43.20558" lon="6.65197">
        <ele>42</ele>
        <time>2013-09-16T12:48:47.000Z</time>
      </trkpt>
      <trkpt lat="43.20558" lon="6.652">
        <ele>42</ele>
        <time>2013-09-16T12:48:48.000Z</time>
      </trkpt>
      <trkpt lat="43.20559" lon="6.65203">
        <ele>42</ele>
        <time>2013-09-16T12:48:49.000Z</time>
      </trkpt>
      <trkpt lat="43.20559" lon="6.65206">
        <ele>42</ele>
        <time>2013-09-16T12:48:50.000Z</time>
      </trkpt>
      <trkpt lat="43.2056" lon="6.6521">
        <ele>43</ele>
        <time>2013-09-16T12:48:51.000Z</time>
      </trkpt>
      <trkpt lat="43.20561" lon="6.65213">
        <ele>43</ele>
        <time>2013-09-16T12:48:52.000Z</time>
      </trkpt>
      <trkpt lat="43.20562" lon="6.65216">
        <ele>43</ele>
        <time>2013-09-16T12:48:53.000Z</time>
      </trkpt>
      <trkpt lat="43.20562" lon="6.65219">
        <ele>43</ele>
        <time>2013-09-16T12:48:54.000Z</time>
      </trkpt>
      <trkpt lat="43.20563" lon="6.65222">
        <ele>43</ele>
        <time>2013-09-16T12:48:55.000Z</time>
      </trkpt>
      <trkpt lat="43.20564" lon="6.65225">
        <ele>43</ele>
        <time>2013-09-16T12:48:56.000Z</time>
      </trkpt>
      <trkpt lat="43.20564" lon="6.65227">
        <ele>43</ele>
        <time>2013-09-16T12:48:57.000Z</time>
      </trkpt>
      <trkpt lat="43.20565" lon="6.6523">
        <ele>43</ele>
        <time>2013-09-16T12:48:58.000Z</time>
      </trkpt>
      <trkpt lat="43.20566" lon="6.65233">
        <ele>43</ele>
        <time>2013-09-16T12:48:59.000Z</time>
      </trkpt>
      <trkpt lat="43.20566" lon="6.65235">
        <ele>43</ele>
        <time>2013-09-16T12:49:00.000Z</time>
      </trkpt>
      <trkpt lat="43.20567" lon="6.65238">
        <ele>43</ele>
        <time>2013-09-16T12:49:01.000Z</time>
      </trkpt>
      <trkpt lat="43.20567" lon="6.6524">
        <ele>43</ele>
        <time>2013-09-16T12:49:02.000Z</time>
      </trkpt>
      <trkpt lat="43.20568" lon="6.65245">
        <ele>43</ele>
        <time>2013-09-16T12:49:04.000Z</time>
      </trkpt>
      <trkpt lat="43.20568" lon="6.65247">
        <ele>43</ele>
        <time>2013-09-16T12:49:05.000Z</time>
      </trkpt>
      <trkpt lat="43.20568" lon="6.6525">
        <ele>45</ele>
        <time>2013-09-16T12:49:06.000Z</time>
      </trkpt>
      <trkpt lat="43.20568" lon="6.65256">
        <ele>45</ele>
        <time>2013-09-16T12:49:08.000Z</time>
      </trkpt>
      <trkpt lat="43.20568" lon="6.65259">
        <ele>45</ele>
        <time>2013-09-16T12:49:09.000Z</time>
      </trkpt>
      <trkpt lat="43.20568" lon="6.65261">
        <ele>45</ele>
        <time>2013-09-16T12:49:10.000Z</time>
      </trkpt>
      <trkpt lat="43.20567" lon="6.65264">
        <ele>45</ele>
        <time>2013-09-16T12:49:11.000Z</time>
      </trkpt>
      <trkpt lat="43.20567" lon="6.65266">
        <ele>46</ele>
        <time>2013-09-16T12:49:12.000Z</time>
      </trkpt>
      <trkpt lat="43.20567" lon="6.65269">
        <ele>46</ele>
        <time>2013-09-16T12:49:13.000Z</time>
      </trkpt>
      <trkpt lat="43.20566" lon="6.65271">
        <ele>46</ele>
        <time>2013-09-16T12:49:14.000Z</time>
      </trkpt>
      <trkpt lat="43.20565" lon="6.65274">
        <ele>46</ele>
        <time>2013-09-16T12:49:15.000Z</time>
      </trkpt>
      <trkpt lat="43.20566" lon="6.65279">
        <ele>46</ele>
        <time>2013-09-16T12:49:17.000Z</time>
      </trkpt>
      <trkpt lat="43.20565" lon="6.65281">
        <ele>46</ele>
        <time>2013-09-16T12:49:18.000Z</time>
      </trkpt>
      <trkpt lat="43.20564" lon="6.65284">
        <ele>46</ele>
        <time>2013-09-16T12:49:19.000Z</time>
      </trkpt>
      <trkpt lat="43.20564" lon="6.65286">
        <ele>47</ele>
        <time>2013-09-16T12:49:20.000Z</time>
      </trkpt>
      <trkpt lat="43.20563" lon="6.65289">
        <ele>47</ele>
        <time>2013-09-16T12:49:21.000Z</time>
      </trkpt>
      <trkpt lat="43.20562" lon="6.65292">
        <ele>47</ele>
        <time>2013-09-16T12:49:22.000Z</time>
      </trkpt>
      <trkpt lat="43.20561" lon="6.65294">
        <ele>47</ele>
        <time>2013-09-16T12:49:23.000Z</time>
      </trkpt>
      <trkpt lat="43.2056" lon="6.65297">
        <ele>47</ele>
        <time>2013-09-16T12:49:24.000Z</time>
      </trkpt>
      <trkpt lat="43.20559" lon="6.65299">
        <ele>47</ele>
        <time>2013-09-16T12:49:25.000Z</time>
      </trkpt>
      <trkpt lat="43.20558" lon="6.65302">
        <ele>47</ele>
        <time>2013-09-16T12:49:26.000Z</time>
      </trkpt>
      <trkpt lat="43.20557" lon="6.65305">
        <ele>47</ele>
        <time>2013-09-16T12:49:27.000Z</time>
      </trkpt>
      <trkpt lat="43.20557" lon="6.65308">
        <ele>47</ele>
        <time>2013-09-16T12:49:28.000Z</time>
      </trkpt>
      <trkpt lat="43.20557" lon="6.65314">
        <ele>47</ele>
        <time>2013-09-16T12:49:30.000Z</time>
      </trkpt>
      <trkpt lat="43.20557" lon="6.65317">
        <ele>47</ele>
        <time>2013-09-16T12:49:31.000Z</time>
      </trkpt>
      <trkpt lat="43.20557" lon="6.65321">
        <ele>47</ele>
        <time>2013-09-16T12:49:32.000Z</time>
      </trkpt>
      <trkpt lat="43.20558" lon="6.65324">
        <ele>47</ele>
        <time>2013-09-16T12:49:33.000Z</time>
      </trkpt>
      <trkpt lat="43.20558" lon="6.65327">
        <ele>47</ele>
        <time>2013-09-16T12:49:34.000Z</time>
      </trkpt>
      <trkpt lat="43.20557" lon="6.65333">
        <ele>47</ele>
        <time>2013-09-16T12:49:36.000Z</time>
      </trkpt>
      <trkpt lat="43.20557" lon="6.65335">
        <ele>49</ele>
        <time>2013-09-16T12:49:37.000Z</time>
      </trkpt>
      <trkpt lat="43.20557" lon="6.65342">
        <ele>50</ele>
        <time>2013-09-16T12:49:39.000Z</time>
      </trkpt>
      <trkpt lat="43.20556" lon="6.65348">
        <ele>50</ele>
        <time>2013-09-16T12:49:41.000Z</time>
      </trkpt>
      <trkpt lat="43.20556" lon="6.65351">
        <ele>50</ele>
        <time>2013-09-16T12:49:42.000Z</time>
      </trkpt>
      <trkpt lat="43.20556" lon="6.65354">
        <ele>50</ele>
        <time>2013-09-16T12:49:43.000Z</time>
      </trkpt>
      <trkpt lat="43.20556" lon="6.65357">
        <ele>50</ele>
        <time>2013-09-16T12:49:44.000Z</time>
      </trkpt>
      <trkpt lat="43.20555" lon="6.6536">
        <ele>50</ele>
        <time>2013-09-16T12:49:45.000Z</time>
      </trkpt>
      <trkpt lat="43.20555" lon="6.65364">
        <ele>50</ele>
        <time>2013-09-16T12:49:46.000Z</time>
      </trkpt>
      <trkpt lat="43.20554" lon="6.65367">
        <ele>51</ele>
        <time>2013-09-16T12:49:47.000Z</time>
      </trkpt>
      <trkpt lat="43.20554" lon="6.6537">
        <ele>51</ele>
        <time>2013-09-16T12:49:48.000Z</time>
      </trkpt>
      <trkpt lat="43.20553" lon="6.65373">
        <ele>51</ele>
        <time>2013-09-16T12:49:49.000Z</time>
      </trkpt>
      <trkpt lat="43.20552" lon="6.65376">
        <ele>51</ele>
        <time>2013-09-16T12:49:50.000Z</time>
      </trkpt>
      <trkpt lat="43.20551" lon="6.65378">
        <ele>51</ele>
        <time>2013-09-16T12:49:51.000Z</time>
      </trkpt>
      <trkpt lat="43.2055" lon="6.65381">
        <ele>51</ele>
        <time>2013-09-16T12:49:52.000Z</time>
      </trkpt>
      <trkpt lat="43.2055" lon="6.65384">
        <ele>51</ele>
        <time>2013-09-16T12:49:53.000Z</time>
      </trkpt>
      <trkpt lat="43.20549" lon="6.65387">
        <ele>51</ele>
        <time>2013-09-16T12:49:54.000Z</time>
      </trkpt>
      <trkpt lat="43.20549" lon="6.65389">
        <ele>51</ele>
        <time>2013-09-16T12:49:55.000Z</time>
      </trkpt>
      <trkpt lat="43.20548" lon="6.65392">
        <ele>51</ele>
        <time>2013-09-16T12:49:56.000Z</time>
      </trkpt>
      <trkpt lat="43.20547" lon="6.65395">
        <ele>51</ele>
        <time>2013-09-16T12:49:57.000Z</time>
      </trkpt>
      <trkpt lat="43.20546" lon="6.65397">
        <ele>52</ele>
        <time>2013-09-16T12:49:58.000Z</time>
      </trkpt>
      <trkpt lat="43.20545" lon="6.654">
        <ele>52</ele>
        <time>2013-09-16T12:49:59.000Z</time>
      </trkpt>
      <trkpt lat="43.20544" lon="6.65402">
        <ele>52</ele>
        <time>2013-09-16T12:50:00.000Z</time>
      </trkpt>
      <trkpt lat="43.20543" lon="6.65404">
        <ele>52</ele>
        <time>2013-09-16T12:50:01.000Z</time>
      </trkpt>
      <trkpt lat="43.20542" lon="6.65406">
        <ele>52</ele>
        <time>2013-09-16T12:50:02.000Z</time>
      </trkpt>
      <trkpt lat="43.20541" lon="6.65408">
        <ele>53</ele>
        <time>2013-09-16T12:50:03.000Z</time>
      </trkpt>
      <trkpt lat="43.20539" lon="6.6541">
        <ele>53</ele>
        <time>2013-09-16T12:50:04.000Z</time>
      </trkpt>
      <trkpt lat="43.20538" lon="6.65412">
        <ele>53</ele>
        <time>2013-09-16T12:50:05.000Z</time>
      </trkpt>
      <trkpt lat="43.20537" lon="6.65414">
        <ele>53</ele>
        <time>2013-09-16T12:50:06.000Z</time>
      </trkpt>
      <trkpt lat="43.20537" lon="6.65416">
        <ele>53</ele>
        <time>2013-09-16T12:50:07.000Z</time>
      </trkpt>
      <trkpt lat="43.20536" lon="6.65418">
        <ele>54</ele>
        <time>2013-09-16T12:50:08.000Z</time>
      </trkpt>
      <trkpt lat="43.20535" lon="6.6542">
        <ele>54</ele>
        <time>2013-09-16T12:50:09.000Z</time>
      </trkpt>
      <trkpt lat="43.20534" lon="6.65422">
        <ele>54</ele>
        <time>2013-09-16T12:50:10.000Z</time>
      </trkpt>
      <trkpt lat="43.20533" lon="6.65424">
        <ele>54</ele>
        <time>2013-09-16T12:50:11.000Z</time>
      </trkpt>
      <trkpt lat="43.20532" lon="6.65426">
        <ele>54</ele>
        <time>2013-09-16T12:50:12.000Z</time>
      </trkpt>
      <trkpt lat="43.2053" lon="6.65428">
        <ele>55</ele>
        <time>2013-09-16T12:50:13.000Z</time>
      </trkpt>
      <trkpt lat="43.20529" lon="6.6543">
        <ele>55</ele>
        <time>2013-09-16T12:50:14.000Z</time>
      </trkpt>
      <trkpt lat="43.20529" lon="6.65432">
        <ele>55</ele>
        <time>2013-09-16T12:50:15.000Z</time>
      </trkpt>
      <trkpt lat="43.20528" lon="6.65434">
        <ele>55</ele>
        <time>2013-09-16T12:50:16.000Z</time>
      </trkpt>
      <trkpt lat="43.20527" lon="6.65436">
        <ele>55</ele>
        <time>2013-09-16T12:50:17.000Z</time>
      </trkpt>
      <trkpt lat="43.20526" lon="6.65438">
        <ele>55</ele>
        <time>2013-09-16T12:50:18.000Z</time>
      </trkpt>
      <trkpt lat="43.20525" lon="6.6544">
        <ele>55</ele>
        <time>2013-09-16T12:50:19.000Z</time>
      </trkpt>
      <trkpt lat="43.20524" lon="6.65441">
        <ele>55</ele>
        <time>2013-09-16T12:50:20.000Z</time>
      </trkpt>
      <trkpt lat="43.20523" lon="6.65443">
        <ele>55</ele>
        <time>2013-09-16T12:50:21.000Z</time>
      </trkpt>
      <trkpt lat="43.20523" lon="6.65446">
        <ele>55</ele>
        <time>2013-09-16T12:50:22.000Z</time>
      </trkpt>
      <trkpt lat="43.20522" lon="6.65448">
        <ele>55</ele>
        <time>2013-09-16T12:50:23.000Z</time>
      </trkpt>
      <trkpt lat="43.20521" lon="6.6545">
        <ele>55</ele>
        <time>2013-09-16T12:50:24.000Z</time>
      </trkpt>
      <trkpt lat="43.20521" lon="6.65452">
        <ele>55</ele>
        <time>2013-09-16T12:50:25.000Z</time>
      </trkpt>
      <trkpt lat="43.2052" lon="6.65454">
        <ele>55</ele>
        <time>2013-09-16T12:50:26.000Z</time>
      </trkpt>
      <trkpt lat="43.20519" lon="6.65456">
        <ele>55</ele>
        <time>2013-09-16T12:50:27.000Z</time>
      </trkpt>
      <trkpt lat="43.20519" lon="6.65458">
        <ele>55</ele>
        <time>2013-09-16T12:50:28.000Z</time>
      </trkpt>
      <trkpt lat="43.20518" lon="6.6546">
        <ele>55</ele>
        <time>2013-09-16T12:50:29.000Z</time>
      </trkpt>
      <trkpt lat="43.20518" lon="6.65462">
        <ele>55</ele>
        <time>2013-09-16T12:50:30.000Z</time>
      </trkpt>
      <trkpt lat="43.20517" lon="6.65465">
        <ele>55</ele>
        <time>2013-09-16T12:50:31.000Z</time>
      </trkpt>
      <trkpt lat="43.20517" lon="6.65467">
        <ele>55</ele>
        <time>2013-09-16T12:50:32.000Z</time>
      </trkpt>
      <trkpt lat="43.20517" lon="6.65469">
        <ele>56</ele>
        <time>2013-09-16T12:50:33.000Z</time>
      </trkpt>
      <trkpt lat="43.20516" lon="6.65471">
        <ele>56</ele>
        <time>2013-09-16T12:50:34.000Z</time>
      </trkpt>
      <trkpt lat="43.20516" lon="6.65474">
        <ele>56</ele>
        <time>2013-09-16T12:50:35.000Z</time>
      </trkpt>
      <trkpt lat="43.20516" lon="6.65476">
        <ele>56</ele>
        <time>2013-09-16T12:50:36.000Z</time>
      </trkpt>
      <trkpt lat="43.20516" lon="6.65481">
        <ele>57</ele>
        <time>2013-09-16T12:50:38.000Z</time>
      </trkpt>
      <trkpt lat="43.20516" lon="6.65483">
        <ele>57</ele>
        <time>2013-09-16T12:50:39.000Z</time>
      </trkpt>
      <trkpt lat="43.20515" lon="6.65485">
        <ele>57</ele>
        <time>2013-09-16T12:50:40.000Z</time>
      </trkpt>
      <trkpt lat="43.20516" lon="6.6549">
        <ele>58</ele>
        <time>2013-09-16T12:50:42.000Z</time>
      </trkpt>
      <trkpt lat="43.20516" lon="6.65492">
        <ele>58</ele>
        <time>2013-09-16T12:50:43.000Z</time>
      </trkpt>
      <trkpt lat="43.20516" lon="6.65494">
        <ele>58</ele>
        <time>2013-09-16T12:50:44.000Z</time>
      </trkpt>
      <trkpt lat="43.20517" lon="6.65497">
        <ele>58</ele>
        <time>2013-09-16T12:50:45.000Z</time>
      </trkpt>
      <trkpt lat="43.20517" lon="6.65499">
        <ele>58</ele>
        <time>2013-09-16T12:50:46.000Z</time>
      </trkpt>
      <trkpt lat="43.20518" lon="6.65502">
        <ele>57</ele>
        <time>2013-09-16T12:50:47.000Z</time>
      </trkpt>
      <trkpt lat="43.20518" lon="6.65504">
        <ele>56</ele>
        <time>2013-09-16T12:50:48.000Z</time>
      </trkpt>
      <trkpt lat="43.20519" lon="6.65506">
        <ele>56</ele>
        <time>2013-09-16T12:50:49.000Z</time>
      </trkpt>
      <trkpt lat="43.20519" lon="6.65508">
        <ele>56</ele>
        <time>2013-09-16T12:50:50.000Z</time>
      </trkpt>
      <trkpt lat="43.20519" lon="6.65511">
        <ele>55</ele>
        <time>2013-09-16T12:50:51.000Z</time>
      </trkpt>
      <trkpt lat="43.20519" lon="6.65513">
        <ele>55</ele>
        <time>2013-09-16T12:50:52.000Z</time>
      </trkpt>
      <trkpt lat="43.20519" lon="6.65515">
        <ele>55</ele>
        <time>2013-09-16T12:50:53.000Z</time>
      </trkpt>
      <trkpt lat="43.20518" lon="6.65517">
        <ele>55</ele>
        <time>2013-09-16T12:50:54.000Z</time>
      </trkpt>
      <trkpt lat="43.20518" lon="6.6552">
        <ele>55</ele>
        <time>2013-09-16T12:50:55.000Z</time>
      </trkpt>
      <trkpt lat="43.20518" lon="6.65522">
        <ele>54</ele>
        <time>2013-09-16T12:50:56.000Z</time>
      </trkpt>
      <trkpt lat="43.20517" lon="6.65524">
        <ele>54</ele>
        <time>2013-09-16T12:50:57.000Z</time>
      </trkpt>
      <trkpt lat="43.20517" lon="6.65527">
        <ele>54</ele>
        <time>2013-09-16T12:50:58.000Z</time>
      </trkpt>
      <trkpt lat="43.20517" lon="6.65529">
        <ele>54</ele>
        <time>2013-09-16T12:50:59.000Z</time>
      </trkpt>
      <trkpt lat="43.20516" lon="6.65531">
        <ele>54</ele>
        <time>2013-09-16T12:51:00.000Z</time>
      </trkpt>
      <trkpt lat="43.20516" lon="6.65533">
        <ele>54</ele>
        <time>2013-09-16T12:51:01.000Z</time>
      </trkpt>
      <trkpt lat="43.20515" lon="6.65535">
        <ele>53</ele>
        <time>2013-09-16T12:51:02.000Z</time>
      </trkpt>
      <trkpt lat="43.20515" lon="6.65537">
        <ele>53</ele>
        <time>2013-09-16T12:51:03.000Z</time>
      </trkpt>
      <trkpt lat="43.20515" lon="6.6554">
        <ele>53</ele>
        <time>2013-09-16T12:51:04.000Z</time>
      </trkpt>
      <trkpt lat="43.20514" lon="6.65542">
        <ele>53</ele>
        <time>2013-09-16T12:51:05.000Z</time>
      </trkpt>
      <trkpt lat="43.20514" lon="6.65545">
        <ele>53</ele>
        <time>2013-09-16T12:51:06.000Z</time>
      </trkpt>
      <trkpt lat="43.20513" lon="6.65547">
        <ele>53</ele>
        <time>2013-09-16T12:51:07.000Z</time>
      </trkpt>
      <trkpt lat="43.20512" lon="6.65549">
        <ele>53</ele>
        <time>2013-09-16T12:51:08.000Z</time>
      </trkpt>
      <trkpt lat="43.20512" lon="6.65552">
        <ele>54</ele>
        <time>2013-09-16T12:51:09.000Z</time>
      </trkpt>
      <trkpt lat="43.20511" lon="6.65554">
        <ele>54</ele>
        <time>2013-09-16T12:51:10.000Z</time>
      </trkpt>
      <trkpt lat="43.2051" lon="6.65556">
        <ele>54</ele>
        <time>2013-09-16T12:51:11.000Z</time>
      </trkpt>
      <trkpt lat="43.2051" lon="6.65558">
        <ele>54</ele>
        <time>2013-09-16T12:51:12.000Z</time>
      </trkpt>
      <trkpt lat="43.20509" lon="6.6556">
        <ele>54</ele>
        <time>2013-09-16T12:51:13.000Z</time>
      </trkpt>
      <trkpt lat="43.20508" lon="6.65562">
        <ele>55</ele>
        <time>2013-09-16T12:51:14.000Z</time>
      </trkpt>
      <trkpt lat="43.20507" lon="6.65565">
        <ele>55</ele>
        <time>2013-09-16T12:51:15.000Z</time>
      </trkpt>
      <trkpt lat="43.20506" lon="6.65567">
        <ele>55</ele>
        <time>2013-09-16T12:51:16.000Z</time>
      </trkpt>
      <trkpt lat="43.20505" lon="6.65569">
        <ele>56</ele>
        <time>2013-09-16T12:51:17.000Z</time>
      </trkpt>
      <trkpt lat="43.20504" lon="6.6557">
        <ele>56</ele>
        <time>2013-09-16T12:51:18.000Z</time>
      </trkpt>
      <trkpt lat="43.20503" lon="6.65572">
        <ele>57</ele>
        <time>2013-09-16T12:51:19.000Z</time>
      </trkpt>
      <trkpt lat="43.20503" lon="6.65574">
        <ele>58</ele>
        <time>2013-09-16T12:51:20.000Z</time>
      </trkpt>
      <trkpt lat="43.20502" lon="6.65577">
        <ele>58</ele>
        <time>2013-09-16T12:51:21.000Z</time>
      </trkpt>
      <trkpt lat="43.20501" lon="6.65579">
        <ele>59</ele>
        <time>2013-09-16T12:51:22.000Z</time>
      </trkpt>
      <trkpt lat="43.205" lon="6.65581">
        <ele>62</ele>
        <time>2013-09-16T12:51:23.000Z</time>
      </trkpt>
      <trkpt lat="43.20499" lon="6.65582">
        <ele>62</ele>
        <time>2013-09-16T12:51:24.000Z</time>
      </trkpt>
      <trkpt lat="43.20498" lon="6.65584">
        <ele>62</ele>
        <time>2013-09-16T12:51:25.000Z</time>
      </trkpt>
      <trkpt lat="43.20497" lon="6.65587">
        <ele>62</ele>
        <time>2013-09-16T12:51:26.000Z</time>
      </trkpt>
      <trkpt lat="43.20496" lon="6.65589">
        <ele>63</ele>
        <time>2013-09-16T12:51:27.000Z</time>
      </trkpt>
      <trkpt lat="43.20495" lon="6.65592">
        <ele>64</ele>
        <time>2013-09-16T12:51:28.000Z</time>
      </trkpt>
      <trkpt lat="43.20495" lon="6.65594">
        <ele>64</ele>
        <time>2013-09-16T12:51:29.000Z</time>
      </trkpt>
      <trkpt lat="43.20494" lon="6.65597">
        <ele>65</ele>
        <time>2013-09-16T12:51:30.000Z</time>
      </trkpt>
      <trkpt lat="43.20494" lon="6.65599">
        <ele>65</ele>
        <time>2013-09-16T12:51:31.000Z</time>
      </trkpt>
      <trkpt lat="43.20493" lon="6.65601">
        <ele>65</ele>
        <time>2013-09-16T12:51:32.000Z</time>
      </trkpt>
      <trkpt lat="43.20492" lon="6.65604">
        <ele>65</ele>
        <time>2013-09-16T12:51:33.000Z</time>
      </trkpt>
      <trkpt lat="43.20492" lon="6.65606">
        <ele>66</ele>
        <time>2013-09-16T12:51:34.000Z</time>
      </trkpt>
      <trkpt lat="43.20491" lon="6.65608">
        <ele>66</ele>
        <time>2013-09-16T12:51:35.000Z</time>
      </trkpt>
      <trkpt lat="43.2049" lon="6.65611">
        <ele>66</ele>
        <time>2013-09-16T12:51:36.000Z</time>
      </trkpt>
      <trkpt lat="43.2049" lon="6.65613">
        <ele>66</ele>
        <time>2013-09-16T12:51:37.000Z</time>
      </trkpt>
      <trkpt lat="43.20489" lon="6.65616">
        <ele>66</ele>
        <time>2013-09-16T12:51:38.000Z</time>
      </trkpt>
      <trkpt lat="43.20488" lon="6.65618">
        <ele>66</ele>
        <time>2013-09-16T12:51:39.000Z</time>
      </trkpt>
      <trkpt lat="43.20488" lon="6.65621">
        <ele>66</ele>
        <time>2013-09-16T12:51:40.000Z</time>
      </trkpt>
      <trkpt lat="43.20487" lon="6.65623">
        <ele>66</ele>
        <time>2013-09-16T12:51:41.000Z</time>
      </trkpt>
      <trkpt lat="43.20486" lon="6.65625">
        <ele>66</ele>
        <time>2013-09-16T12:51:42.000Z</time>
      </trkpt>
      <trkpt lat="43.20485" lon="6.65627">
        <ele>66</ele>
        <time>2013-09-16T12:51:43.000Z</time>
      </trkpt>
      <trkpt lat="43.20484" lon="6.65629">
        <ele>66</ele>
        <time>2013-09-16T12:51:44.000Z</time>
      </trkpt>
      <trkpt lat="43.20483" lon="6.65631">
        <ele>66</ele>
        <time>2013-09-16T12:51:45.000Z</time>
      </trkpt>
      <trkpt lat="43.20481" lon="6.65632">
        <ele>66</ele>
        <time>2013-09-16T12:51:46.000Z</time>
      </trkpt>
      <trkpt lat="43.2048" lon="6.65634">
        <ele>66</ele>
        <time>2013-09-16T12:51:47.000Z</time>
      </trkpt>
      <trkpt lat="43.20479" lon="6.65636">
        <ele>66</ele>
        <time>2013-09-16T12:51:48.000Z</time>
      </trkpt>
      <trkpt lat="43.20477" lon="6.65638">
        <ele>66</ele>
        <time>2013-09-16T12:51:49.000Z</time>
      </trkpt>
      <trkpt lat="43.20476" lon="6.6564">
        <ele>66</ele>
        <time>2013-09-16T12:51:50.000Z</time>
      </trkpt>
      <trkpt lat="43.20475" lon="6.65641">
        <ele>66</ele>
        <time>2013-09-16T12:51:51.000Z</time>
      </trkpt>
      <trkpt lat="43.20474" lon="6.65643">
        <ele>67</ele>
        <time>2013-09-16T12:51:52.000Z</time>
      </trkpt>
      <trkpt lat="43.20472" lon="6.65645">
        <ele>67</ele>
        <time>2013-09-16T12:51:53.000Z</time>
      </trkpt>
      <trkpt lat="43.20471" lon="6.65646">
        <ele>67</ele>
        <time>2013-09-16T12:51:54.000Z</time>
      </trkpt>
      <trkpt lat="43.2047" lon="6.65648">
        <ele>67</ele>
        <time>2013-09-16T12:51:55.000Z</time>
      </trkpt>
      <trkpt lat="43.20468" lon="6.65649">
        <ele>67</ele>
        <time>2013-09-16T12:51:56.000Z</time>
      </trkpt>
      <trkpt lat="43.20467" lon="6.65651">
        <ele>67</ele>
        <time>2013-09-16T12:51:57.000Z</time>
      </trkpt>
      <trkpt lat="43.20466" lon="6.65653">
        <ele>67</ele>
        <time>2013-09-16T12:51:58.000Z</time>
      </trkpt>
      <trkpt lat="43.20464" lon="6.65654">
        <ele>68</ele>
        <time>2013-09-16T12:51:59.000Z</time>
      </trkpt>
      <trkpt lat="43.20463" lon="6.65656">
        <ele>68</ele>
        <time>2013-09-16T12:52:00.000Z</time>
      </trkpt>
      <trkpt lat="43.20461" lon="6.65658">
        <ele>68</ele>
        <time>2013-09-16T12:52:01.000Z</time>
      </trkpt>
      <trkpt lat="43.2046" lon="6.6566">
        <ele>68</ele>
        <time>2013-09-16T12:52:02.000Z</time>
      </trkpt>
      <trkpt lat="43.20459" lon="6.65662">
        <ele>68</ele>
        <time>2013-09-16T12:52:03.000Z</time>
      </trkpt>
      <trkpt lat="43.20457" lon="6.65663">
        <ele>69</ele>
        <time>2013-09-16T12:52:04.000Z</time>
      </trkpt>
      <trkpt lat="43.20456" lon="6.65665">
        <ele>69</ele>
        <time>2013-09-16T12:52:05.000Z</time>
      </trkpt>
      <trkpt lat="43.20456" lon="6.65667">
        <ele>68</ele>
        <time>2013-09-16T12:52:06.000Z</time>
      </trkpt>
      <trkpt lat="43.20455" lon="6.65669">
        <ele>69</ele>
        <time>2013-09-16T12:52:07.000Z</time>
      </trkpt>
      <trkpt lat="43.20453" lon="6.65671">
        <ele>69</ele>
        <time>2013-09-16T12:52:08.000Z</time>
      </trkpt>
      <trkpt lat="43.20452" lon="6.65673">
        <ele>69</ele>
        <time>2013-09-16T12:52:09.000Z</time>
      </trkpt>
      <trkpt lat="43.20452" lon="6.65675">
        <ele>69</ele>
        <time>2013-09-16T12:52:10.000Z</time>
      </trkpt>
      <trkpt lat="43.20451" lon="6.65677">
        <ele>69</ele>
        <time>2013-09-16T12:52:11.000Z</time>
      </trkpt>
      <trkpt lat="43.2045" lon="6.65678">
        <ele>69</ele>
        <time>2013-09-16T12:52:12.000Z</time>
      </trkpt>
      <trkpt lat="43.20449" lon="6.65681">
        <ele>70</ele>
        <time>2013-09-16T12:52:13.000Z</time>
      </trkpt>
      <trkpt lat="43.20448" lon="6.65683">
        <ele>70</ele>
        <time>2013-09-16T12:52:14.000Z</time>
      </trkpt>
      <trkpt lat="43.20448" lon="6.65685">
        <ele>70</ele>
        <time>2013-09-16T12:52:15.000Z</time>
      </trkpt>
      <trkpt lat="43.20447" lon="6.65687">
        <ele>70</ele>
        <time>2013-09-16T12:52:16.000Z</time>
      </trkpt>
      <trkpt lat="43.20446" lon="6.65689">
        <ele>70</ele>
        <time>2013-09-16T12:52:17.000Z</time>
      </trkpt>
      <trkpt lat="43.20445" lon="6.65691">
        <ele>70</ele>
        <time>2013-09-16T12:52:18.000Z</time>
      </trkpt>
      <trkpt lat="43.20444" lon="6.65693">
        <ele>70</ele>
        <time>2013-09-16T12:52:19.000Z</time>
      </trkpt>
      <trkpt lat="43.20443" lon="6.65695">
        <ele>70</ele>
        <time>2013-09-16T12:52:20.000Z</time>
      </trkpt>
      <trkpt lat="43.20442" lon="6.65697">
        <ele>70</ele>
        <time>2013-09-16T12:52:21.000Z</time>
      </trkpt>
      <trkpt lat="43.20441" lon="6.65699">
        <ele>71</ele>
        <time>2013-09-16T12:52:22.000Z</time>
      </trkpt>
      <trkpt lat="43.2044" lon="6.65701">
        <ele>71</ele>
        <time>2013-09-16T12:52:23.000Z</time>
      </trkpt>
      <trkpt lat="43.20439" lon="6.65703">
        <ele>71</ele>
        <time>2013-09-16T12:52:24.000Z</time>
      </trkpt>
      <trkpt lat="43.20438" lon="6.65705">
        <ele>71</ele>
        <time>2013-09-16T12:52:25.000Z</time>
      </trkpt>
      <trkpt lat="43.20438" lon="6.65708">
        <ele>71</ele>
        <time>2013-09-16T12:52:26.000Z</time>
      </trkpt>
      <trkpt lat="43.20437" lon="6.6571">
        <ele>71</ele>
        <time>2013-09-16T12:52:27.000Z</time>
      </trkpt>
      <trkpt lat="43.20437" lon="6.65712">
        <ele>71</ele>
        <time>2013-09-16T12:52:28.000Z</time>
      </trkpt>
      <trkpt lat="43.20437" lon="6.65715">
        <ele>71</ele>
        <time>2013-09-16T12:52:29.000Z</time>
      </trkpt>
      <trkpt lat="43.20437" lon="6.65722">
        <ele>71</ele>
        <time>2013-09-16T12:52:32.000Z</time>
      </trkpt>
      <trkpt lat="43.20438" lon="6.65724">
        <ele>72</ele>
        <time>2013-09-16T12:52:33.000Z</time>
      </trkpt>
      <trkpt lat="43.20439" lon="6.65726">
        <ele>72</ele>
        <time>2013-09-16T12:52:34.000Z</time>
      </trkpt>
      <trkpt lat="43.2044" lon="6.65728">
        <ele>72</ele>
        <time>2013-09-16T12:52:35.000Z</time>
      </trkpt>
      <trkpt lat="43.20441" lon="6.6573">
        <ele>72</ele>
        <time>2013-09-16T12:52:36.000Z</time>
      </trkpt>
      <trkpt lat="43.20442" lon="6.65732">
        <ele>71</ele>
        <time>2013-09-16T12:52:37.000Z</time>
      </trkpt>
      <trkpt lat="43.20444" lon="6.65733">
        <ele>71</ele>
        <time>2013-09-16T12:52:38.000Z</time>
      </trkpt>
      <trkpt lat="43.20445" lon="6.65735">
        <ele>71</ele>
        <time>2013-09-16T12:52:39.000Z</time>
      </trkpt>
      <trkpt lat="43.20447" lon="6.65737">
        <ele>71</ele>
        <time>2013-09-16T12:52:40.000Z</time>
      </trkpt>
      <trkpt lat="43.20448" lon="6.65739">
        <ele>71</ele>
        <time>2013-09-16T12:52:41.000Z</time>
      </trkpt>
      <trkpt lat="43.20449" lon="6.6574">
        <ele>71</ele>
        <time>2013-09-16T12:52:42.000Z</time>
      </trkpt>
      <trkpt lat="43.20449" lon="6.65742">
        <ele>71</ele>
        <time>2013-09-16T12:52:43.000Z</time>
      </trkpt>
      <trkpt lat="43.2045" lon="6.65744">
        <ele>71</ele>
        <time>2013-09-16T12:52:44.000Z</time>
      </trkpt>
      <trkpt lat="43.20452" lon="6.65746">
        <ele>71</ele>
        <time>2013-09-16T12:52:45.000Z</time>
      </trkpt>
      <trkpt lat="43.20452" lon="6.65748">
        <ele>71</ele>
        <time>2013-09-16T12:52:46.000Z</time>
      </trkpt>
      <trkpt lat="43.20453" lon="6.6575">
        <ele>70</ele>
        <time>2013-09-16T12:52:47.000Z</time>
      </trkpt>
      <trkpt lat="43.20454" lon="6.65752">
        <ele>74</ele>
        <time>2013-09-16T12:52:48.000Z</time>
      </trkpt>
      <trkpt lat="43.20455" lon="6.65754">
        <ele>74</ele>
        <time>2013-09-16T12:52:49.000Z</time>
      </trkpt>
      <trkpt lat="43.20456" lon="6.65756">
        <ele>74</ele>
        <time>2013-09-16T12:52:50.000Z</time>
      </trkpt>
      <trkpt lat="43.20456" lon="6.65759">
        <ele>74</ele>
        <time>2013-09-16T12:52:51.000Z</time>
      </trkpt>
      <trkpt lat="43.20457" lon="6.65761">
        <ele>74</ele>
        <time>2013-09-16T12:52:52.000Z</time>
      </trkpt>
      <trkpt lat="43.20458" lon="6.65764">
        <ele>74</ele>
        <time>2013-09-16T12:52:53.000Z</time>
      </trkpt>
      <trkpt lat="43.20458" lon="6.65766">
        <ele>74</ele>
        <time>2013-09-16T12:52:54.000Z</time>
      </trkpt>
      <trkpt lat="43.20459" lon="6.65768">
        <ele>74</ele>
        <time>2013-09-16T12:52:55.000Z</time>
      </trkpt>
      <trkpt lat="43.20459" lon="6.6577">
        <ele>74</ele>
        <time>2013-09-16T12:52:56.000Z</time>
      </trkpt>
      <trkpt lat="43.2046" lon="6.65772">
        <ele>74</ele>
        <time>2013-09-16T12:52:57.000Z</time>
      </trkpt>
      <trkpt lat="43.2046" lon="6.65775">
        <ele>74</ele>
        <time>2013-09-16T12:52:58.000Z</time>
      </trkpt>
      <trkpt lat="43.20461" lon="6.65777">
        <ele>74</ele>
        <time>2013-09-16T12:52:59.000Z</time>
      </trkpt>
      <trkpt lat="43.20462" lon="6.65779">
        <ele>74</ele>
        <time>2013-09-16T12:53:00.000Z</time>
      </trkpt>
      <trkpt lat="43.20462" lon="6.65782">
        <ele>74</ele>
        <time>2013-09-16T12:53:01.000Z</time>
      </trkpt>
      <trkpt lat="43.20463" lon="6.65784">
        <ele>74</ele>
        <time>2013-09-16T12:53:02.000Z</time>
      </trkpt>
      <trkpt lat="43.20465" lon="6.65786">
        <ele>74</ele>
        <time>2013-09-16T12:53:03.000Z</time>
      </trkpt>
      <trkpt lat="43.20466" lon="6.65788">
        <ele>74</ele>
        <time>2013-09-16T12:53:04.000Z</time>
      </trkpt>
      <trkpt lat="43.20467" lon="6.65789">
        <ele>74</ele>
        <time>2013-09-16T12:53:05.000Z</time>
      </trkpt>
      <trkpt lat="43.20469" lon="6.65791">
        <ele>74</ele>
        <time>2013-09-16T12:53:06.000Z</time>
      </trkpt>
      <trkpt lat="43.2047" lon="6.65792">
        <ele>74</ele>
        <time>2013-09-16T12:53:07.000Z</time>
      </trkpt>
      <trkpt lat="43.20472" lon="6.65794">
        <ele>74</ele>
        <time>2013-09-16T12:53:08.000Z</time>
      </trkpt>
      <trkpt lat="43.20473" lon="6.65795">
        <ele>74</ele>
        <time>2013-09-16T12:53:09.000Z</time>
      </trkpt>
      <trkpt lat="43.20474" lon="6.65796">
        <ele>74</ele>
        <time>2013-09-16T12:53:10.000Z</time>
      </trkpt>
      <trkpt lat="43.20476" lon="6.65797">
        <ele>73</ele>
        <time>2013-09-16T12:53:11.000Z</time>
      </trkpt>
      <trkpt lat="43.20478" lon="6.65798">
        <ele>73</ele>
        <time>2013-09-16T12:53:12.000Z</time>
      </trkpt>
      <trkpt lat="43.20479" lon="6.65799">
        <ele>73</ele>
        <time>2013-09-16T12:53:13.000Z</time>
      </trkpt>
      <trkpt lat="43.20481" lon="6.65799">
        <ele>73</ele>
        <time>2013-09-16T12:53:14.000Z</time>
      </trkpt>
      <trkpt lat="43.20483" lon="6.658">
        <ele>73</ele>
        <time>2013-09-16T12:53:15.000Z</time>
      </trkpt>
      <trkpt lat="43.20484" lon="6.65802">
        <ele>73</ele>
        <time>2013-09-16T12:53:16.000Z</time>
      </trkpt>
      <trkpt lat="43.20485" lon="6.65803">
        <ele>73</ele>
        <time>2013-09-16T12:53:17.000Z</time>
      </trkpt>
      <trkpt lat="43.20487" lon="6.65804">
        <ele>73</ele>
        <time>2013-09-16T12:53:18.000Z</time>
      </trkpt>
      <trkpt lat="43.20488" lon="6.65806">
        <ele>73</ele>
        <time>2013-09-16T12:53:19.000Z</time>
      </trkpt>
      <trkpt lat="43.20489" lon="6.65808">
        <ele>73</ele>
        <time>2013-09-16T12:53:20.000Z</time>
      </trkpt>
      <trkpt lat="43.2049" lon="6.65809">
        <ele>73</ele>
        <time>2013-09-16T12:53:21.000Z</time>
      </trkpt>
      <trkpt lat="43.20491" lon="6.65812">
        <ele>73</ele>
        <time>2013-09-16T12:53:22.000Z</time>
      </trkpt>
      <trkpt lat="43.20492" lon="6.65814">
        <ele>73</ele>
        <time>2013-09-16T12:53:23.000Z</time>
      </trkpt>
      <trkpt lat="43.20493" lon="6.65816">
        <ele>73</ele>
        <time>2013-09-16T12:53:24.000Z</time>
      </trkpt>
      <trkpt lat="43.20493" lon="6.65819">
        <ele>73</ele>
        <time>2013-09-16T12:53:25.000Z</time>
      </trkpt>
      <trkpt lat="43.20493" lon="6.65821">
        <ele>73</ele>
        <time>2013-09-16T12:53:26.000Z</time>
      </trkpt>
      <trkpt lat="43.20492" lon="6.65823">
        <ele>73</ele>
        <time>2013-09-16T12:53:27.000Z</time>
      </trkpt>
      <trkpt lat="43.20492" lon="6.65825">
        <ele>73</ele>
        <time>2013-09-16T12:53:28.000Z</time>
      </trkpt>
      <trkpt lat="43.20491" lon="6.65827">
        <ele>73</ele>
        <time>2013-09-16T12:53:29.000Z</time>
      </trkpt>
      <trkpt lat="43.20491" lon="6.65829">
        <ele>73</ele>
        <time>2013-09-16T12:53:30.000Z</time>
      </trkpt>
      <trkpt lat="43.2049" lon="6.65831">
        <ele>74</ele>
        <time>2013-09-16T12:53:31.000Z</time>
      </trkpt>
      <trkpt lat="43.20489" lon="6.65833">
        <ele>74</ele>
        <time>2013-09-16T12:53:32.000Z</time>
      </trkpt>
      <trkpt lat="43.20488" lon="6.65835">
        <ele>76</ele>
        <time>2013-09-16T12:53:33.000Z</time>
      </trkpt>
      <trkpt lat="43.20487" lon="6.65837">
        <ele>76</ele>
        <time>2013-09-16T12:53:34.000Z</time>
      </trkpt>
      <trkpt lat="43.20486" lon="6.65839">
        <ele>76</ele>
        <time>2013-09-16T12:53:35.000Z</time>
      </trkpt>
      <trkpt lat="43.20485" lon="6.65841">
        <ele>77</ele>
        <time>2013-09-16T12:53:36.000Z</time>
      </trkpt>
      <trkpt lat="43.20484" lon="6.65843">
        <ele>77</ele>
        <time>2013-09-16T12:53:37.000Z</time>
      </trkpt>
      <trkpt lat="43.20483" lon="6.65845">
        <ele>77</ele>
        <time>2013-09-16T12:53:38.000Z</time>
      </trkpt>
      <trkpt lat="43.20482" lon="6.65847">
        <ele>78</ele>
        <time>2013-09-16T12:53:39.000Z</time>
      </trkpt>
      <trkpt lat="43.2048" lon="6.65849">
        <ele>78</ele>
        <time>2013-09-16T12:53:40.000Z</time>
      </trkpt>
      <trkpt lat="43.2048" lon="6.65851">
        <ele>78</ele>
        <time>2013-09-16T12:53:41.000Z</time>
      </trkpt>
      <trkpt lat="43.20479" lon="6.65853">
        <ele>78</ele>
        <time>2013-09-16T12:53:42.000Z</time>
      </trkpt>
      <trkpt lat="43.20478" lon="6.65855">
        <ele>78</ele>
        <time>2013-09-16T12:53:43.000Z</time>
      </trkpt>
      <trkpt lat="43.20477" lon="6.65856">
        <ele>79</ele>
        <time>2013-09-16T12:53:44.000Z</time>
      </trkpt>
      <trkpt lat="43.20476" lon="6.65858">
        <ele>79</ele>
        <time>2013-09-16T12:53:45.000Z</time>
      </trkpt>
      <trkpt lat="43.20475" lon="6.6586">
        <ele>79</ele>
        <time>2013-09-16T12:53:46.000Z</time>
      </trkpt>
      <trkpt lat="43.20475" lon="6.65863">
        <ele>79</ele>
        <time>2013-09-16T12:53:47.000Z</time>
      </trkpt>
      <trkpt lat="43.20474" lon="6.65865">
        <ele>79</ele>
        <time>2013-09-16T12:53:48.000Z</time>
      </trkpt>
      <trkpt lat="43.20474" lon="6.65867">
        <ele>79</ele>
        <time>2013-09-16T12:53:49.000Z</time>
      </trkpt>
      <trkpt lat="43.20473" lon="6.6587">
        <ele>80</ele>
        <time>2013-09-16T12:53:50.000Z</time>
      </trkpt>
      <trkpt lat="43.20473" lon="6.65872">
        <ele>80</ele>
        <time>2013-09-16T12:53:51.000Z</time>
      </trkpt>
      <trkpt lat="43.20472" lon="6.65875">
        <ele>80</ele>
        <time>2013-09-16T12:53:52.000Z</time>
      </trkpt>
      <trkpt lat="43.20471" lon="6.65877">
        <ele>80</ele>
        <time>2013-09-16T12:53:53.000Z</time>
      </trkpt>
      <trkpt lat="43.20471" lon="6.6588">
        <ele>80</ele>
        <time>2013-09-16T12:53:54.000Z</time>
      </trkpt>
      <trkpt lat="43.20471" lon="6.65882">
        <ele>80</ele>
        <time>2013-09-16T12:53:55.000Z</time>
      </trkpt>
      <trkpt lat="43.20471" lon="6.65887">
        <ele>80</ele>
        <time>2013-09-16T12:53:57.000Z</time>
      </trkpt>
      <trkpt lat="43.20471" lon="6.6589">
        <ele>80</ele>
        <time>2013-09-16T12:53:58.000Z</time>
      </trkpt>
      <trkpt lat="43.20471" lon="6.65895">
        <ele>80</ele>
        <time>2013-09-16T12:54:00.000Z</time>
      </trkpt>
      <trkpt lat="43.20471" lon="6.65898">
        <ele>80</ele>
        <time>2013-09-16T12:54:01.000Z</time>
      </trkpt>
      <trkpt lat="43.20471" lon="6.659">
        <ele>80</ele>
        <time>2013-09-16T12:54:02.000Z</time>
      </trkpt>
      <trkpt lat="43.20471" lon="6.65903">
        <ele>80</ele>
        <time>2013-09-16T12:54:03.000Z</time>
      </trkpt>
      <trkpt lat="43.20471" lon="6.65905">
        <ele>80</ele>
        <time>2013-09-16T12:54:04.000Z</time>
      </trkpt>
      <trkpt lat="43.20472" lon="6.65908">
        <ele>80</ele>
        <time>2013-09-16T12:54:05.000Z</time>
      </trkpt>
      <trkpt lat="43.20472" lon="6.65911">
        <ele>81</ele>
        <time>2013-09-16T12:54:06.000Z</time>
      </trkpt>
      <trkpt lat="43.20472" lon="6.65913">
        <ele>81</ele>
        <time>2013-09-16T12:54:07.000Z</time>
      </trkpt>
      <trkpt lat="43.20472" lon="6.65934">
        <ele>82</ele>
        <time>2013-09-16T12:54:15.000Z</time>
      </trkpt>
      <trkpt lat="43.20472" lon="6.65937">
        <ele>82</ele>
        <time>2013-09-16T12:54:16.000Z</time>
      </trkpt>
      <trkpt lat="43.20472" lon="6.65939">
        <ele>83</ele>
        <time>2013-09-16T12:54:17.000Z</time>
      </trkpt>
      <trkpt lat="43.20472" lon="6.65942">
        <ele>83</ele>
        <time>2013-09-16T12:54:18.000Z</time>
      </trkpt>
      <trkpt lat="43.20472" lon="6.65944">
        <ele>83</ele>
        <time>2013-09-16T12:54:19.000Z</time>
      </trkpt>
      <trkpt lat="43.20471" lon="6.65947">
        <ele>83</ele>
        <time>2013-09-16T12:54:20.000Z</time>
      </trkpt>
      <trkpt lat="43.20471" lon="6.65949">
        <ele>83</ele>
        <time>2013-09-16T12:54:21.000Z</time>
      </trkpt>
      <trkpt lat="43.20471" lon="6.65952">
        <ele>83</ele>
        <time>2013-09-16T12:54:22.000Z</time>
      </trkpt>
      <trkpt lat="43.2047" lon="6.65955">
        <ele>83</ele>
        <time>2013-09-16T12:54:23.000Z</time>
      </trkpt>
      <trkpt lat="43.2047" lon="6.65961">
        <ele>83</ele>
        <time>2013-09-16T12:54:25.000Z</time>
      </trkpt>
      <trkpt lat="43.2047" lon="6.65964">
        <ele>83</ele>
        <time>2013-09-16T12:54:26.000Z</time>
      </trkpt>
      <trkpt lat="43.2047" lon="6.65968">
        <ele>83</ele>
        <time>2013-09-16T12:54:27.000Z</time>
      </trkpt>
      <trkpt lat="43.20469" lon="6.65971">
        <ele>83</ele>
        <time>2013-09-16T12:54:28.000Z</time>
      </trkpt>
      <trkpt lat="43.20468" lon="6.65975">
        <ele>83</ele>
        <time>2013-09-16T12:54:29.000Z</time>
      </trkpt>
      <trkpt lat="43.20468" lon="6.65978">
        <ele>83</ele>
        <time>2013-09-16T12:54:30.000Z</time>
      </trkpt>
      <trkpt lat="43.20467" lon="6.65982">
        <ele>83</ele>
        <time>2013-09-16T12:54:31.000Z</time>
      </trkpt>
      <trkpt lat="43.20466" lon="6.65986">
        <ele>83</ele>
        <time>2013-09-16T12:54:32.000Z</time>
      </trkpt>
      <trkpt lat="43.20465" lon="6.65991">
        <ele>83</ele>
        <time>2013-09-16T12:54:33.000Z</time>
      </trkpt>
      <trkpt lat="43.20464" lon="6.65995">
        <ele>83</ele>
        <time>2013-09-16T12:54:34.000Z</time>
      </trkpt>
      <trkpt lat="43.20463" lon="6.65999">
        <ele>83</ele>
        <time>2013-09-16T12:54:35.000Z</time>
      </trkpt>
      <trkpt lat="43.20461" lon="6.66002">
        <ele>82</ele>
        <time>2013-09-16T12:54:36.000Z</time>
      </trkpt>
      <trkpt lat="43.20459" lon="6.66005">
        <ele>82</ele>
        <time>2013-09-16T12:54:37.000Z</time>
      </trkpt>
      <trkpt lat="43.20457" lon="6.66008">
        <ele>82</ele>
        <time>2013-09-16T12:54:38.000Z</time>
      </trkpt>
      <trkpt lat="43.20455" lon="6.66012">
        <ele>82</ele>
        <time>2013-09-16T12:54:39.000Z</time>
      </trkpt>
      <trkpt lat="43.20454" lon="6.66015">
        <ele>82</ele>
        <time>2013-09-16T12:54:40.000Z</time>
      </trkpt>
      <trkpt lat="43.20452" lon="6.66018">
        <ele>82</ele>
        <time>2013-09-16T12:54:41.000Z</time>
      </trkpt>
      <trkpt lat="43.20449" lon="6.66022">
        <ele>81</ele>
        <time>2013-09-16T12:54:42.000Z</time>
      </trkpt>
      <trkpt lat="43.20447" lon="6.66025">
        <ele>81</ele>
        <time>2013-09-16T12:54:43.000Z</time>
      </trkpt>
      <trkpt lat="43.20445" lon="6.66029">
        <ele>81</ele>
        <time>2013-09-16T12:54:44.000Z</time>
      </trkpt>
      <trkpt lat="43.20442" lon="6.66032">
        <ele>81</ele>
        <time>2013-09-16T12:54:45.000Z</time>
      </trkpt>
      <trkpt lat="43.20439" lon="6.66035">
        <ele>81</ele>
        <time>2013-09-16T12:54:46.000Z</time>
      </trkpt>
      <trkpt lat="43.20436" lon="6.66037">
        <ele>81</ele>
        <time>2013-09-16T12:54:47.000Z</time>
      </trkpt>
      <trkpt lat="43.20433" lon="6.66038">
        <ele>81</ele>
        <time>2013-09-16T12:54:48.000Z</time>
      </trkpt>
      <trkpt lat="43.2043" lon="6.6604">
        <ele>81</ele>
        <time>2013-09-16T12:54:49.000Z</time>
      </trkpt>
      <trkpt lat="43.20426" lon="6.6604">
        <ele>81</ele>
        <time>2013-09-16T12:54:50.000Z</time>
      </trkpt>
      <trkpt lat="43.20423" lon="6.66041">
        <ele>81</ele>
        <time>2013-09-16T12:54:51.000Z</time>
      </trkpt>
      <trkpt lat="43.2042" lon="6.6604">
        <ele>81</ele>
        <time>2013-09-16T12:54:52.000Z</time>
      </trkpt>
      <trkpt lat="43.20417" lon="6.6604">
        <ele>82</ele>
        <time>2013-09-16T12:54:53.000Z</time>
      </trkpt>
      <trkpt lat="43.20414" lon="6.6604">
        <ele>82</ele>
        <time>2013-09-16T12:54:54.000Z</time>
      </trkpt>
      <trkpt lat="43.20411" lon="6.66038">
        <ele>82</ele>
        <time>2013-09-16T12:54:55.000Z</time>
      </trkpt>
      <trkpt lat="43.20408" lon="6.66037">
        <ele>82</ele>
        <time>2013-09-16T12:54:56.000Z</time>
      </trkpt>
      <trkpt lat="43.20404" lon="6.66036">
        <ele>82</ele>
        <time>2013-09-16T12:54:57.000Z</time>
      </trkpt>
      <trkpt lat="43.20401" lon="6.66034">
        <ele>83</ele>
        <time>2013-09-16T12:54:58.000Z</time>
      </trkpt>
      <trkpt lat="43.20398" lon="6.66033">
        <ele>83</ele>
        <time>2013-09-16T12:54:59.000Z</time>
      </trkpt>
      <trkpt lat="43.20395" lon="6.66031">
        <ele>83</ele>
        <time>2013-09-16T12:55:00.000Z</time>
      </trkpt>
      <trkpt lat="43.20391" lon="6.6603">
        <ele>83</ele>
        <time>2013-09-16T12:55:01.000Z</time>
      </trkpt>
      <trkpt lat="43.20388" lon="6.6603">
        <ele>83</ele>
        <time>2013-09-16T12:55:02.000Z</time>
      </trkpt>
      <trkpt lat="43.20384" lon="6.66029">
        <ele>83</ele>
        <time>2013-09-16T12:55:03.000Z</time>
      </trkpt>
      <trkpt lat="43.20381" lon="6.66029">
        <ele>83</ele>
        <time>2013-09-16T12:55:04.000Z</time>
      </trkpt>
      <trkpt lat="43.20377" lon="6.66028">
        <ele>83</ele>
        <time>2013-09-16T12:55:05.000Z</time>
      </trkpt>
      <trkpt lat="43.20368" lon="6.66029">
        <ele>83</ele>
        <time>2013-09-16T12:55:07.000Z</time>
      </trkpt>
      <trkpt lat="43.20359" lon="6.66029">
        <ele>83</ele>
        <time>2013-09-16T12:55:09.000Z</time>
      </trkpt>
      <trkpt lat="43.20354" lon="6.6603">
        <ele>83</ele>
        <time>2013-09-16T12:55:10.000Z</time>
      </trkpt>
      <trkpt lat="43.2035" lon="6.66033">
        <ele>83</ele>
        <time>2013-09-16T12:55:11.000Z</time>
      </trkpt>
      <trkpt lat="43.20346" lon="6.66036">
        <ele>83</ele>
        <time>2013-09-16T12:55:12.000Z</time>
      </trkpt>
      <trkpt lat="43.20343" lon="6.66041">
        <ele>83</ele>
        <time>2013-09-16T12:55:13.000Z</time>
      </trkpt>
      <trkpt lat="43.2034" lon="6.66045">
        <ele>83</ele>
        <time>2013-09-16T12:55:14.000Z</time>
      </trkpt>
      <trkpt lat="43.20337" lon="6.6605">
        <ele>83</ele>
        <time>2013-09-16T12:55:15.000Z</time>
      </trkpt>
      <trkpt lat="43.20335" lon="6.66054">
        <ele>83</ele>
        <time>2013-09-16T12:55:16.000Z</time>
      </trkpt>
      <trkpt lat="43.20333" lon="6.66059">
        <ele>85</ele>
        <time>2013-09-16T12:55:17.000Z</time>
      </trkpt>
      <trkpt lat="43.20332" lon="6.66065">
        <ele>85</ele>
        <time>2013-09-16T12:55:18.000Z</time>
      </trkpt>
      <trkpt lat="43.20331" lon="6.6607">
        <ele>84</ele>
        <time>2013-09-16T12:55:19.000Z</time>
      </trkpt>
      <trkpt lat="43.2033" lon="6.66076">
        <ele>84</ele>
        <time>2013-09-16T12:55:20.000Z</time>
      </trkpt>
      <trkpt lat="43.20329" lon="6.66081">
        <ele>84</ele>
        <time>2013-09-16T12:55:21.000Z</time>
      </trkpt>
      <trkpt lat="43.20329" lon="6.66086">
        <ele>83</ele>
        <time>2013-09-16T12:55:22.000Z</time>
      </trkpt>
      <trkpt lat="43.20328" lon="6.6609">
        <ele>83</ele>
        <time>2013-09-16T12:55:23.000Z</time>
      </trkpt>
      <trkpt lat="43.20328" lon="6.66094">
        <ele>84</ele>
        <time>2013-09-16T12:55:24.000Z</time>
      </trkpt>
      <trkpt lat="43.20329" lon="6.66097">
        <ele>84</ele>
        <time>2013-09-16T12:55:25.000Z</time>
      </trkpt>
      <trkpt lat="43.20329" lon="6.66101">
        <ele>84</ele>
        <time>2013-09-16T12:55:26.000Z</time>
      </trkpt>
      <trkpt lat="43.20329" lon="6.66105">
        <ele>84</ele>
        <time>2013-09-16T12:55:27.000Z</time>
      </trkpt>
      <trkpt lat="43.2033" lon="6.66108">
        <ele>84</ele>
        <time>2013-09-16T12:55:28.000Z</time>
      </trkpt>
      <trkpt lat="43.2033" lon="6.66111">
        <ele>84</ele>
        <time>2013-09-16T12:55:29.000Z</time>
      </trkpt>
      <trkpt lat="43.2033" lon="6.66121">
        <ele>84</ele>
        <time>2013-09-16T12:55:32.000Z</time>
      </trkpt>
      <trkpt lat="43.20329" lon="6.66125">
        <ele>84</ele>
        <time>2013-09-16T12:55:33.000Z</time>
      </trkpt>
      <trkpt lat="43.20329" lon="6.66128">
        <ele>83</ele>
        <time>2013-09-16T12:55:34.000Z</time>
      </trkpt>
      <trkpt lat="43.20328" lon="6.66131">
        <ele>83</ele>
        <time>2013-09-16T12:55:35.000Z</time>
      </trkpt>
      <trkpt lat="43.20327" lon="6.66134">
        <ele>83</ele>
        <time>2013-09-16T12:55:36.000Z</time>
      </trkpt>
      <trkpt lat="43.20326" lon="6.66138">
        <ele>83</ele>
        <time>2013-09-16T12:55:37.000Z</time>
      </trkpt>
      <trkpt lat="43.20324" lon="6.66141">
        <ele>83</ele>
        <time>2013-09-16T12:55:38.000Z</time>
      </trkpt>
      <trkpt lat="43.20322" lon="6.66143">
        <ele>83</ele>
        <time>2013-09-16T12:55:39.000Z</time>
      </trkpt>
      <trkpt lat="43.20321" lon="6.66146">
        <ele>83</ele>
        <time>2013-09-16T12:55:40.000Z</time>
      </trkpt>
      <trkpt lat="43.20319" lon="6.66149">
        <ele>83</ele>
        <time>2013-09-16T12:55:41.000Z</time>
      </trkpt>
      <trkpt lat="43.20317" lon="6.66152">
        <ele>83</ele>
        <time>2013-09-16T12:55:42.000Z</time>
      </trkpt>
      <trkpt lat="43.20316" lon="6.66154">
        <ele>83</ele>
        <time>2013-09-16T12:55:43.000Z</time>
      </trkpt>
      <trkpt lat="43.20314" lon="6.66157">
        <ele>83</ele>
        <time>2013-09-16T12:55:44.000Z</time>
      </trkpt>
      <trkpt lat="43.20312" lon="6.6616">
        <ele>83</ele>
        <time>2013-09-16T12:55:45.000Z</time>
      </trkpt>
      <trkpt lat="43.20311" lon="6.66163">
        <ele>83</ele>
        <time>2013-09-16T12:55:46.000Z</time>
      </trkpt>
      <trkpt lat="43.20309" lon="6.66166">
        <ele>83</ele>
        <time>2013-09-16T12:55:47.000Z</time>
      </trkpt>
      <trkpt lat="43.20307" lon="6.66169">
        <ele>80</ele>
        <time>2013-09-16T12:55:48.000Z</time>
      </trkpt>
      <trkpt lat="43.20305" lon="6.66171">
        <ele>81</ele>
        <time>2013-09-16T12:55:49.000Z</time>
      </trkpt>
      <trkpt lat="43.20303" lon="6.66174">
        <ele>81</ele>
        <time>2013-09-16T12:55:50.000Z</time>
      </trkpt>
      <trkpt lat="43.20301" lon="6.66176">
        <ele>81</ele>
        <time>2013-09-16T12:55:51.000Z</time>
      </trkpt>
      <trkpt lat="43.203" lon="6.66178">
        <ele>81</ele>
        <time>2013-09-16T12:55:52.000Z</time>
      </trkpt>
      <trkpt lat="43.20297" lon="6.6618">
        <ele>81</ele>
        <time>2013-09-16T12:55:53.000Z</time>
      </trkpt>
      <trkpt lat="43.20295" lon="6.66182">
        <ele>81</ele>
        <time>2013-09-16T12:55:54.000Z</time>
      </trkpt>
      <trkpt lat="43.20293" lon="6.66184">
        <ele>81</ele>
        <time>2013-09-16T12:55:55.000Z</time>
      </trkpt>
      <trkpt lat="43.20291" lon="6.66186">
        <ele>81</ele>
        <time>2013-09-16T12:55:56.000Z</time>
      </trkpt>
      <trkpt lat="43.20288" lon="6.66188">
        <ele>82</ele>
        <time>2013-09-16T12:55:57.000Z</time>
      </trkpt>
      <trkpt lat="43.20286" lon="6.6619">
        <ele>82</ele>
        <time>2013-09-16T12:55:58.000Z</time>
      </trkpt>
      <trkpt lat="43.20284" lon="6.66192">
        <ele>82</ele>
        <time>2013-09-16T12:55:59.000Z</time>
      </trkpt>
      <trkpt lat="43.20282" lon="6.66193">
        <ele>82</ele>
        <time>2013-09-16T12:56:00.000Z</time>
      </trkpt>
      <trkpt lat="43.20279" lon="6.66195">
        <ele>82</ele>
        <time>2013-09-16T12:56:01.000Z</time>
      </trkpt>
      <trkpt lat="43.20277" lon="6.66196">
        <ele>82</ele>
        <time>2013-09-16T12:56:02.000Z</time>
      </trkpt>
      <trkpt lat="43.20274" lon="6.66197">
        <ele>82</ele>
        <time>2013-09-16T12:56:03.000Z</time>
      </trkpt>
      <trkpt lat="43.20272" lon="6.66198">
        <ele>83</ele>
        <time>2013-09-16T12:56:04.000Z</time>
      </trkpt>
      <trkpt lat="43.2027" lon="6.66199">
        <ele>83</ele>
        <time>2013-09-16T12:56:05.000Z</time>
      </trkpt>
      <trkpt lat="43.20267" lon="6.66199">
        <ele>83</ele>
        <time>2013-09-16T12:56:06.000Z</time>
      </trkpt>
      <trkpt lat="43.20265" lon="6.662">
        <ele>83</ele>
        <time>2013-09-16T12:56:07.000Z</time>
      </trkpt>
      <trkpt lat="43.20263" lon="6.66201">
        <ele>83</ele>
        <time>2013-09-16T12:56:08.000Z</time>
      </trkpt>
      <trkpt lat="43.20261" lon="6.66202">
        <ele>83</ele>
        <time>2013-09-16T12:56:09.000Z</time>
      </trkpt>
      <trkpt lat="43.20259" lon="6.66202">
        <ele>83</ele>
        <time>2013-09-16T12:56:10.000Z</time>
      </trkpt>
      <trkpt lat="43.20257" lon="6.66203">
        <ele>83</ele>
        <time>2013-09-16T12:56:11.000Z</time>
      </trkpt>
      <trkpt lat="43.20255" lon="6.66204">
        <ele>83</ele>
        <time>2013-09-16T12:56:12.000Z</time>
      </trkpt>
      <trkpt lat="43.20253" lon="6.66205">
        <ele>83</ele>
        <time>2013-09-16T12:56:13.000Z</time>
      </trkpt>
      <trkpt lat="43.20251" lon="6.66206">
        <ele>83</ele>
        <time>2013-09-16T12:56:14.000Z</time>
      </trkpt>
      <trkpt lat="43.20249" lon="6.66208">
        <ele>91</ele>
        <time>2013-09-16T12:56:15.000Z</time>
      </trkpt>
      <trkpt lat="43.20247" lon="6.6621">
        <ele>91</ele>
        <time>2013-09-16T12:56:16.000Z</time>
      </trkpt>
      <trkpt lat="43.20246" lon="6.66213">
        <ele>91</ele>
        <time>2013-09-16T12:56:17.000Z</time>
      </trkpt>
      <trkpt lat="43.20245" lon="6.66215">
        <ele>91</ele>
        <time>2013-09-16T12:56:18.000Z</time>
      </trkpt>
      <trkpt lat="43.20244" lon="6.66218">
        <ele>91</ele>
        <time>2013-09-16T12:56:19.000Z</time>
      </trkpt>
      <trkpt lat="43.20243" lon="6.66222">
        <ele>90</ele>
        <time>2013-09-16T12:56:20.000Z</time>
      </trkpt>
      <trkpt lat="43.20242" lon="6.66225">
        <ele>90</ele>
        <time>2013-09-16T12:56:21.000Z</time>
      </trkpt>
      <trkpt lat="43.20241" lon="6.66228">
        <ele>90</ele>
        <time>2013-09-16T12:56:22.000Z</time>
      </trkpt>
      <trkpt lat="43.20241" lon="6.66231">
        <ele>90</ele>
        <time>2013-09-16T12:56:23.000Z</time>
      </trkpt>
      <trkpt lat="43.2024" lon="6.66235">
        <ele>90</ele>
        <time>2013-09-16T12:56:24.000Z</time>
      </trkpt>
      <trkpt lat="43.2024" lon="6.66245">
        <ele>88</ele>
        <time>2013-09-16T12:56:27.000Z</time>
      </trkpt>
      <trkpt lat="43.2024" lon="6.66252">
        <ele>87</ele>
        <time>2013-09-16T12:56:29.000Z</time>
      </trkpt>
      <trkpt lat="43.2024" lon="6.66255">
        <ele>87</ele>
        <time>2013-09-16T12:56:30.000Z</time>
      </trkpt>
      <trkpt lat="43.2024" lon="6.66258">
        <ele>87</ele>
        <time>2013-09-16T12:56:31.000Z</time>
      </trkpt>
      <trkpt lat="43.20239" lon="6.66261">
        <ele>88</ele>
        <time>2013-09-16T12:56:32.000Z</time>
      </trkpt>
      <trkpt lat="43.20238" lon="6.66264">
        <ele>88</ele>
        <time>2013-09-16T12:56:33.000Z</time>
      </trkpt>
      <trkpt lat="43.20237" lon="6.66266">
        <ele>88</ele>
        <time>2013-09-16T12:56:34.000Z</time>
      </trkpt>
      <trkpt lat="43.20237" lon="6.66268">
        <ele>88</ele>
        <time>2013-09-16T12:56:35.000Z</time>
      </trkpt>
      <trkpt lat="43.20237" lon="6.6627">
        <ele>88</ele>
        <time>2013-09-16T12:56:37.000Z</time>
      </trkpt>
      <trkpt lat="43.20236" lon="6.66271">
        <ele>88</ele>
        <time>2013-09-16T12:56:39.000Z</time>
      </trkpt>
      <trkpt lat="43.20236" lon="6.66271">
        <ele>88</ele>
        <time>2013-09-16T12:56:41.000Z</time>
      </trkpt>
      <trkpt lat="43.20237" lon="6.66271">
        <ele>88</ele>
        <time>2013-09-16T12:56:44.000Z</time>
      </trkpt>
      <trkpt lat="43.20237" lon="6.6627">
        <ele>88</ele>
        <time>2013-09-16T12:56:45.000Z</time>
      </trkpt>
      <trkpt lat="43.20237" lon="6.6627">
        <ele>88</ele>
        <time>2013-09-16T12:56:59.000Z</time>
      </trkpt>
      <trkpt lat="43.20237" lon="6.66271">
        <ele>88</ele>
        <time>2013-09-16T12:57:03.000Z</time>
      </trkpt>
      <trkpt lat="43.20236" lon="6.6627">
        <ele>88</ele>
        <time>2013-09-16T12:57:04.000Z</time>
      </trkpt>
      <trkpt lat="43.20236" lon="6.6627">
        <ele>88</ele>
        <time>2013-09-16T12:57:05.000Z</time>
      </trkpt>
      <trkpt lat="43.20236" lon="6.6627">
        <ele>88</ele>
        <time>2013-09-16T12:57:06.000Z</time>
      </trkpt>
      <trkpt lat="43.20234" lon="6.66269">
        <ele>88</ele>
        <time>2013-09-16T12:57:10.000Z</time>
      </trkpt>
      <trkpt lat="43.20231" lon="6.6627">
        <ele>88</ele>
        <time>2013-09-16T12:57:12.000Z</time>
      </trkpt>
      <trkpt lat="43.2023" lon="6.66272">
        <ele>88</ele>
        <time>2013-09-16T12:57:13.000Z</time>
      </trkpt>
      <trkpt lat="43.20228" lon="6.66274">
        <ele>88</ele>
        <time>2013-09-16T12:57:14.000Z</time>
      </trkpt>
      <trkpt lat="43.20226" lon="6.66277">
        <ele>88</ele>
        <time>2013-09-16T12:57:15.000Z</time>
      </trkpt>
      <trkpt lat="43.20225" lon="6.66279">
        <ele>88</ele>
        <time>2013-09-16T12:57:16.000Z</time>
      </trkpt>
      <trkpt lat="43.20223" lon="6.66281">
        <ele>89</ele>
        <time>2013-09-16T12:57:17.000Z</time>
      </trkpt>
      <trkpt lat="43.20221" lon="6.66282">
        <ele>89</ele>
        <time>2013-09-16T12:57:18.000Z</time>
      </trkpt>
      <trkpt lat="43.20219" lon="6.66283">
        <ele>89</ele>
        <time>2013-09-16T12:57:19.000Z</time>
      </trkpt>
      <trkpt lat="43.20217" lon="6.66284">
        <ele>89</ele>
        <time>2013-09-16T12:57:20.000Z</time>
      </trkpt>
      <trkpt lat="43.20215" lon="6.66285">
        <ele>89</ele>
        <time>2013-09-16T12:57:21.000Z</time>
      </trkpt>
      <trkpt lat="43.20212" lon="6.66286">
        <ele>89</ele>
        <time>2013-09-16T12:57:22.000Z</time>
      </trkpt>
      <trkpt lat="43.2021" lon="6.66286">
        <ele>89</ele>
        <time>2013-09-16T12:57:23.000Z</time>
      </trkpt>
      <trkpt lat="43.20208" lon="6.66287">
        <ele>89</ele>
        <time>2013-09-16T12:57:24.000Z</time>
      </trkpt>
      <trkpt lat="43.20206" lon="6.66288">
        <ele>90</ele>
        <time>2013-09-16T12:57:25.000Z</time>
      </trkpt>
      <trkpt lat="43.20204" lon="6.66289">
        <ele>90</ele>
        <time>2013-09-16T12:57:26.000Z</time>
      </trkpt>
      <trkpt lat="43.20202" lon="6.66291">
        <ele>90</ele>
        <time>2013-09-16T12:57:27.000Z</time>
      </trkpt>
      <trkpt lat="43.202" lon="6.66292">
        <ele>90</ele>
        <time>2013-09-16T12:57:28.000Z</time>
      </trkpt>
      <trkpt lat="43.20198" lon="6.66293">
        <ele>90</ele>
        <time>2013-09-16T12:57:29.000Z</time>
      </trkpt>
      <trkpt lat="43.20196" lon="6.66294">
        <ele>90</ele>
        <time>2013-09-16T12:57:30.000Z</time>
      </trkpt>
      <trkpt lat="43.20194" lon="6.66295">
        <ele>90</ele>
        <time>2013-09-16T12:57:31.000Z</time>
      </trkpt>
      <trkpt lat="43.20192" lon="6.66296">
        <ele>90</ele>
        <time>2013-09-16T12:57:32.000Z</time>
      </trkpt>
      <trkpt lat="43.2019" lon="6.66297">
        <ele>90</ele>
        <time>2013-09-16T12:57:33.000Z</time>
      </trkpt>
      <trkpt lat="43.20188" lon="6.66298">
        <ele>91</ele>
        <time>2013-09-16T12:57:34.000Z</time>
      </trkpt>
      <trkpt lat="43.20186" lon="6.66299">
        <ele>91</ele>
        <time>2013-09-16T12:57:35.000Z</time>
      </trkpt>
      <trkpt lat="43.20184" lon="6.663">
        <ele>91</ele>
        <time>2013-09-16T12:57:36.000Z</time>
      </trkpt>
      <trkpt lat="43.20182" lon="6.66301">
        <ele>91</ele>
        <time>2013-09-16T12:57:37.000Z</time>
      </trkpt>
      <trkpt lat="43.2018" lon="6.66302">
        <ele>91</ele>
        <time>2013-09-16T12:57:38.000Z</time>
      </trkpt>
      <trkpt lat="43.20178" lon="6.66303">
        <ele>91</ele>
        <time>2013-09-16T12:57:39.000Z</time>
      </trkpt>
      <trkpt lat="43.20176" lon="6.66304">
        <ele>91</ele>
        <time>2013-09-16T12:57:40.000Z</time>
      </trkpt>
      <trkpt lat="43.20174" lon="6.66305">
        <ele>91</ele>
        <time>2013-09-16T12:57:41.000Z</time>
      </trkpt>
      <trkpt lat="43.20172" lon="6.66306">
        <ele>91</ele>
        <time>2013-09-16T12:57:42.000Z</time>
      </trkpt>
      <trkpt lat="43.2017" lon="6.66306">
        <ele>91</ele>
        <time>2013-09-16T12:57:43.000Z</time>
      </trkpt>
      <trkpt lat="43.20168" lon="6.66307">
        <ele>91</ele>
        <time>2013-09-16T12:57:44.000Z</time>
      </trkpt>
      <trkpt lat="43.20166" lon="6.66308">
        <ele>97</ele>
        <time>2013-09-16T12:57:45.000Z</time>
      </trkpt>
      <trkpt lat="43.20164" lon="6.66309">
        <ele>97</ele>
        <time>2013-09-16T12:57:46.000Z</time>
      </trkpt>
      <trkpt lat="43.20161" lon="6.66311">
        <ele>97</ele>
        <time>2013-09-16T12:57:47.000Z</time>
      </trkpt>
      <trkpt lat="43.20159" lon="6.66312">
        <ele>97</ele>
        <time>2013-09-16T12:57:48.000Z</time>
      </trkpt>
      <trkpt lat="43.20157" lon="6.66313">
        <ele>97</ele>
        <time>2013-09-16T12:57:49.000Z</time>
      </trkpt>
      <trkpt lat="43.20155" lon="6.66314">
        <ele>97</ele>
        <time>2013-09-16T12:57:50.000Z</time>
      </trkpt>
      <trkpt lat="43.20153" lon="6.66315">
        <ele>97</ele>
        <time>2013-09-16T12:57:51.000Z</time>
      </trkpt>
      <trkpt lat="43.20151" lon="6.66316">
        <ele>98</ele>
        <time>2013-09-16T12:57:52.000Z</time>
      </trkpt>
      <trkpt lat="43.20149" lon="6.66317">
        <ele>98</ele>
        <time>2013-09-16T12:57:53.000Z</time>
      </trkpt>
      <trkpt lat="43.20147" lon="6.66318">
        <ele>98</ele>
        <time>2013-09-16T12:57:54.000Z</time>
      </trkpt>
      <trkpt lat="43.20145" lon="6.66319">
        <ele>98</ele>
        <time>2013-09-16T12:57:55.000Z</time>
      </trkpt>
      <trkpt lat="43.20143" lon="6.6632">
        <ele>98</ele>
        <time>2013-09-16T12:57:56.000Z</time>
      </trkpt>
      <trkpt lat="43.20141" lon="6.66321">
        <ele>98</ele>
        <time>2013-09-16T12:57:57.000Z</time>
      </trkpt>
      <trkpt lat="43.20139" lon="6.66322">
        <ele>99</ele>
        <time>2013-09-16T12:57:58.000Z</time>
      </trkpt>
      <trkpt lat="43.20137" lon="6.66323">
        <ele>99</ele>
        <time>2013-09-16T12:57:59.000Z</time>
      </trkpt>
      <trkpt lat="43.20134" lon="6.66324">
        <ele>99</ele>
        <time>2013-09-16T12:58:00.000Z</time>
      </trkpt>
      <trkpt lat="43.20132" lon="6.66325">
        <ele>99</ele>
        <time>2013-09-16T12:58:01.000Z</time>
      </trkpt>
      <trkpt lat="43.2013" lon="6.66326">
        <ele>99</ele>
        <time>2013-09-16T12:58:02.000Z</time>
      </trkpt>
      <trkpt lat="43.20128" lon="6.66327">
        <ele>100</ele>
        <time>2013-09-16T12:58:03.000Z</time>
      </trkpt>
      <trkpt lat="43.20126" lon="6.66328">
        <ele>100</ele>
        <time>2013-09-16T12:58:04.000Z</time>
      </trkpt>
      <trkpt lat="43.20124" lon="6.66329">
        <ele>100</ele>
        <time>2013-09-16T12:58:05.000Z</time>
      </trkpt>
      <trkpt lat="43.20122" lon="6.6633">
        <ele>100</ele>
        <time>2013-09-16T12:58:06.000Z</time>
      </trkpt>
      <trkpt lat="43.2012" lon="6.66331">
        <ele>100</ele>
        <time>2013-09-16T12:58:07.000Z</time>
      </trkpt>
      <trkpt lat="43.20118" lon="6.66332">
        <ele>100</ele>
        <time>2013-09-16T12:58:08.000Z</time>
      </trkpt>
      <trkpt lat="43.20116" lon="6.66333">
        <ele>101</ele>
        <time>2013-09-16T12:58:09.000Z</time>
      </trkpt>
      <trkpt lat="43.20114" lon="6.66335">
        <ele>101</ele>
        <time>2013-09-16T12:58:10.000Z</time>
      </trkpt>
      <trkpt lat="43.20112" lon="6.66336">
        <ele>101</ele>
        <time>2013-09-16T12:58:11.000Z</time>
      </trkpt>
      <trkpt lat="43.2011" lon="6.66337">
        <ele>101</ele>
        <time>2013-09-16T12:58:12.000Z</time>
      </trkpt>
      <trkpt lat="43.20108" lon="6.66339">
        <ele>101</ele>
        <time>2013-09-16T12:58:13.000Z</time>
      </trkpt>
      <trkpt lat="43.20106" lon="6.66341">
        <ele>101</ele>
        <time>2013-09-16T12:58:14.000Z</time>
      </trkpt>
      <trkpt lat="43.20105" lon="6.66344">
        <ele>101</ele>
        <time>2013-09-16T12:58:15.000Z</time>
      </trkpt>
      <trkpt lat="43.20104" lon="6.66346">
        <ele>101</ele>
        <time>2013-09-16T12:58:16.000Z</time>
      </trkpt>
      <trkpt lat="43.20103" lon="6.66349">
        <ele>101</ele>
        <time>2013-09-16T12:58:17.000Z</time>
      </trkpt>
      <trkpt lat="43.20102" lon="6.66353">
        <ele>101</ele>
        <time>2013-09-16T12:58:18.000Z</time>
      </trkpt>
      <trkpt lat="43.20101" lon="6.66356">
        <ele>101</ele>
        <time>2013-09-16T12:58:19.000Z</time>
      </trkpt>
      <trkpt lat="43.20101" lon="6.66359">
        <ele>101</ele>
        <time>2013-09-16T12:58:20.000Z</time>
      </trkpt>
      <trkpt lat="43.20101" lon="6.66362">
        <ele>101</ele>
        <time>2013-09-16T12:58:21.000Z</time>
      </trkpt>
      <trkpt lat="43.20101" lon="6.66367">
        <ele>101</ele>
        <time>2013-09-16T12:58:23.000Z</time>
      </trkpt>
      <trkpt lat="43.20102" lon="6.6637">
        <ele>101</ele>
        <time>2013-09-16T12:58:24.000Z</time>
      </trkpt>
      <trkpt lat="43.20103" lon="6.66373">
        <ele>101</ele>
        <time>2013-09-16T12:58:25.000Z</time>
      </trkpt>
      <trkpt lat="43.20104" lon="6.66375">
        <ele>101</ele>
        <time>2013-09-16T12:58:26.000Z</time>
      </trkpt>
      <trkpt lat="43.20105" lon="6.66378">
        <ele>101</ele>
        <time>2013-09-16T12:58:27.000Z</time>
      </trkpt>
      <trkpt lat="43.20106" lon="6.66381">
        <ele>101</ele>
        <time>2013-09-16T12:58:28.000Z</time>
      </trkpt>
      <trkpt lat="43.20107" lon="6.66383">
        <ele>101</ele>
        <time>2013-09-16T12:58:29.000Z</time>
      </trkpt>
      <trkpt lat="43.20109" lon="6.66386">
        <ele>101</ele>
        <time>2013-09-16T12:58:30.000Z</time>
      </trkpt>
      <trkpt lat="43.20111" lon="6.66388">
        <ele>101</ele>
        <time>2013-09-16T12:58:31.000Z</time>
      </trkpt>
      <trkpt lat="43.20113" lon="6.66389">
        <ele>101</ele>
        <time>2013-09-16T12:58:32.000Z</time>
      </trkpt>
      <trkpt lat="43.20115" lon="6.66391">
        <ele>101</ele>
        <time>2013-09-16T12:58:33.000Z</time>
      </trkpt>
      <trkpt lat="43.20117" lon="6.66393">
        <ele>101</ele>
        <time>2013-09-16T12:58:34.000Z</time>
      </trkpt>
      <trkpt lat="43.20119" lon="6.66394">
        <ele>101</ele>
        <time>2013-09-16T12:58:35.000Z</time>
      </trkpt>
      <trkpt lat="43.20121" lon="6.66395">
        <ele>101</ele>
        <time>2013-09-16T12:58:36.000Z</time>
      </trkpt>
      <trkpt lat="43.20123" lon="6.66396">
        <ele>100</ele>
        <time>2013-09-16T12:58:37.000Z</time>
      </trkpt>
      <trkpt lat="43.20126" lon="6.66397">
        <ele>100</ele>
        <time>2013-09-16T12:58:38.000Z</time>
      </trkpt>
      <trkpt lat="43.20128" lon="6.66399">
        <ele>100</ele>
        <time>2013-09-16T12:58:39.000Z</time>
      </trkpt>
      <trkpt lat="43.2013" lon="6.66401">
        <ele>100</ele>
        <time>2013-09-16T12:58:40.000Z</time>
      </trkpt>
      <trkpt lat="43.20132" lon="6.66403">
        <ele>100</ele>
        <time>2013-09-16T12:58:41.000Z</time>
      </trkpt>
      <trkpt lat="43.20133" lon="6.66405">
        <ele>100</ele>
        <time>2013-09-16T12:58:42.000Z</time>
      </trkpt>
      <trkpt lat="43.20135" lon="6.66408">
        <ele>100</ele>
        <time>2013-09-16T12:58:43.000Z</time>
      </trkpt>
      <trkpt lat="43.20136" lon="6.66411">
        <ele>100</ele>
        <time>2013-09-16T12:58:44.000Z</time>
      </trkpt>
      <trkpt lat="43.20136" lon="6.66413">
        <ele>100</ele>
        <time>2013-09-16T12:58:45.000Z</time>
      </trkpt>
      <trkpt lat="43.20136" lon="6.66418">
        <ele>101</ele>
        <time>2013-09-16T12:58:47.000Z</time>
      </trkpt>
      <trkpt lat="43.20135" lon="6.66421">
        <ele>101</ele>
        <time>2013-09-16T12:58:48.000Z</time>
      </trkpt>
      <trkpt lat="43.20134" lon="6.66423">
        <ele>101</ele>
        <time>2013-09-16T12:58:49.000Z</time>
      </trkpt>
      <trkpt lat="43.20133" lon="6.66425">
        <ele>102</ele>
        <time>2013-09-16T12:58:50.000Z</time>
      </trkpt>
      <trkpt lat="43.20132" lon="6.66428">
        <ele>102</ele>
        <time>2013-09-16T12:58:51.000Z</time>
      </trkpt>
      <trkpt lat="43.20131" lon="6.6643">
        <ele>102</ele>
        <time>2013-09-16T12:58:52.000Z</time>
      </trkpt>
      <trkpt lat="43.2013" lon="6.66432">
        <ele>102</ele>
        <time>2013-09-16T12:58:53.000Z</time>
      </trkpt>
      <trkpt lat="43.20129" lon="6.66434">
        <ele>102</ele>
        <time>2013-09-16T12:58:54.000Z</time>
      </trkpt>
      <trkpt lat="43.20128" lon="6.66436">
        <ele>102</ele>
        <time>2013-09-16T12:58:55.000Z</time>
      </trkpt>
      <trkpt lat="43.20126" lon="6.66438">
        <ele>102</ele>
        <time>2013-09-16T12:58:56.000Z</time>
      </trkpt>
      <trkpt lat="43.20125" lon="6.6644">
        <ele>103</ele>
        <time>2013-09-16T12:58:57.000Z</time>
      </trkpt>
      <trkpt lat="43.20124" lon="6.66443">
        <ele>103</ele>
        <time>2013-09-16T12:58:58.000Z</time>
      </trkpt>
      <trkpt lat="43.20122" lon="6.66445">
        <ele>103</ele>
        <time>2013-09-16T12:58:59.000Z</time>
      </trkpt>
      <trkpt lat="43.20121" lon="6.66447">
        <ele>103</ele>
        <time>2013-09-16T12:59:00.000Z</time>
      </trkpt>
      <trkpt lat="43.20119" lon="6.6645">
        <ele>103</ele>
        <time>2013-09-16T12:59:01.000Z</time>
      </trkpt>
      <trkpt lat="43.20118" lon="6.66452">
        <ele>103</ele>
        <time>2013-09-16T12:59:02.000Z</time>
      </trkpt>
      <trkpt lat="43.20117" lon="6.66454">
        <ele>103</ele>
        <time>2013-09-16T12:59:03.000Z</time>
      </trkpt>
      <trkpt lat="43.20116" lon="6.66456">
        <ele>103</ele>
        <time>2013-09-16T12:59:04.000Z</time>
      </trkpt>
      <trkpt lat="43.20115" lon="6.66459">
        <ele>103</ele>
        <time>2013-09-16T12:59:05.000Z</time>
      </trkpt>
      <trkpt lat="43.20114" lon="6.66461">
        <ele>104</ele>
        <time>2013-09-16T12:59:06.000Z</time>
      </trkpt>
      <trkpt lat="43.20114" lon="6.66464">
        <ele>104</ele>
        <time>2013-09-16T12:59:07.000Z</time>
      </trkpt>
      <trkpt lat="43.20113" lon="6.66466">
        <ele>104</ele>
        <time>2013-09-16T12:59:08.000Z</time>
      </trkpt>
      <trkpt lat="43.20112" lon="6.66469">
        <ele>104</ele>
        <time>2013-09-16T12:59:09.000Z</time>
      </trkpt>
      <trkpt lat="43.20112" lon="6.66471">
        <ele>104</ele>
        <time>2013-09-16T12:59:10.000Z</time>
      </trkpt>
      <trkpt lat="43.20111" lon="6.66474">
        <ele>104</ele>
        <time>2013-09-16T12:59:11.000Z</time>
      </trkpt>
      <trkpt lat="43.20111" lon="6.66477">
        <ele>104</ele>
        <time>2013-09-16T12:59:12.000Z</time>
      </trkpt>
      <trkpt lat="43.20111" lon="6.66479">
        <ele>104</ele>
        <time>2013-09-16T12:59:13.000Z</time>
      </trkpt>
      <trkpt lat="43.20111" lon="6.66482">
        <ele>104</ele>
        <time>2013-09-16T12:59:14.000Z</time>
      </trkpt>
      <trkpt lat="43.2011" lon="6.66484">
        <ele>105</ele>
        <time>2013-09-16T12:59:15.000Z</time>
      </trkpt>
      <trkpt lat="43.2011" lon="6.66487">
        <ele>105</ele>
        <time>2013-09-16T12:59:16.000Z</time>
      </trkpt>
      <trkpt lat="43.2011" lon="6.66492">
        <ele>105</ele>
        <time>2013-09-16T12:59:18.000Z</time>
      </trkpt>
      <trkpt lat="43.2011" lon="6.66494">
        <ele>105</ele>
        <time>2013-09-16T12:59:19.000Z</time>
      </trkpt>
      <trkpt lat="43.20109" lon="6.66497">
        <ele>105</ele>
        <time>2013-09-16T12:59:20.000Z</time>
      </trkpt>
      <trkpt lat="43.20109" lon="6.66499">
        <ele>105</ele>
        <time>2013-09-16T12:59:21.000Z</time>
      </trkpt>
      <trkpt lat="43.20108" lon="6.66502">
        <ele>106</ele>
        <time>2013-09-16T12:59:22.000Z</time>
      </trkpt>
      <trkpt lat="43.20108" lon="6.66504">
        <ele>106</ele>
        <time>2013-09-16T12:59:23.000Z</time>
      </trkpt>
      <trkpt lat="43.20107" lon="6.66506">
        <ele>106</ele>
        <time>2013-09-16T12:59:24.000Z</time>
      </trkpt>
      <trkpt lat="43.20106" lon="6.66509">
        <ele>106</ele>
        <time>2013-09-16T12:59:25.000Z</time>
      </trkpt>
      <trkpt lat="43.20105" lon="6.66511">
        <ele>106</ele>
        <time>2013-09-16T12:59:26.000Z</time>
      </trkpt>
      <trkpt lat="43.20103" lon="6.66513">
        <ele>107</ele>
        <time>2013-09-16T12:59:27.000Z</time>
      </trkpt>
      <trkpt lat="43.20102" lon="6.66514">
        <ele>107</ele>
        <time>2013-09-16T12:59:28.000Z</time>
      </trkpt>
      <trkpt lat="43.201" lon="6.66516">
        <ele>107</ele>
        <time>2013-09-16T12:59:29.000Z</time>
      </trkpt>
      <trkpt lat="43.20099" lon="6.66517">
        <ele>107</ele>
        <time>2013-09-16T12:59:30.000Z</time>
      </trkpt>
      <trkpt lat="43.20097" lon="6.66518">
        <ele>107</ele>
        <time>2013-09-16T12:59:31.000Z</time>
      </trkpt>
      <trkpt lat="43.20095" lon="6.6652">
        <ele>107</ele>
        <time>2013-09-16T12:59:32.000Z</time>
      </trkpt>
      <trkpt lat="43.20094" lon="6.66521">
        <ele>107</ele>
        <time>2013-09-16T12:59:33.000Z</time>
      </trkpt>
      <trkpt lat="43.20092" lon="6.66522">
        <ele>107</ele>
        <time>2013-09-16T12:59:34.000Z</time>
      </trkpt>
      <trkpt lat="43.2009" lon="6.66523">
        <ele>107</ele>
        <time>2013-09-16T12:59:35.000Z</time>
      </trkpt>
      <trkpt lat="43.20088" lon="6.66524">
        <ele>107</ele>
        <time>2013-09-16T12:59:36.000Z</time>
      </trkpt>
      <trkpt lat="43.20086" lon="6.66525">
        <ele>107</ele>
        <time>2013-09-16T12:59:37.000Z</time>
      </trkpt>
      <trkpt lat="43.20085" lon="6.66526">
        <ele>107</ele>
        <time>2013-09-16T12:59:38.000Z</time>
      </trkpt>
      <trkpt lat="43.20083" lon="6.66527">
        <ele>113</ele>
        <time>2013-09-16T12:59:39.000Z</time>
      </trkpt>
      <trkpt lat="43.20081" lon="6.66528">
        <ele>113</ele>
        <time>2013-09-16T12:59:40.000Z</time>
      </trkpt>
      <trkpt lat="43.20079" lon="6.66529">
        <ele>113</ele>
        <time>2013-09-16T12:59:41.000Z</time>
      </trkpt>
      <trkpt lat="43.20077" lon="6.6653">
        <ele>113</ele>
        <time>2013-09-16T12:59:42.000Z</time>
      </trkpt>
      <trkpt lat="43.20075" lon="6.66531">
        <ele>113</ele>
        <time>2013-09-16T12:59:43.000Z</time>
      </trkpt>
      <trkpt lat="43.20073" lon="6.66532">
        <ele>113</ele>
        <time>2013-09-16T12:59:44.000Z</time>
      </trkpt>
      <trkpt lat="43.20072" lon="6.66533">
        <ele>113</ele>
        <time>2013-09-16T12:59:45.000Z</time>
      </trkpt>
      <trkpt lat="43.2007" lon="6.66534">
        <ele>113</ele>
        <time>2013-09-16T12:59:46.000Z</time>
      </trkpt>
      <trkpt lat="43.20068" lon="6.66535">
        <ele>114</ele>
        <time>2013-09-16T12:59:47.000Z</time>
      </trkpt>
      <trkpt lat="43.20066" lon="6.66536">
        <ele>114</ele>
        <time>2013-09-16T12:59:48.000Z</time>
      </trkpt>
      <trkpt lat="43.20064" lon="6.66537">
        <ele>114</ele>
        <time>2013-09-16T12:59:49.000Z</time>
      </trkpt>
      <trkpt lat="43.20062" lon="6.66538">
        <ele>114</ele>
        <time>2013-09-16T12:59:50.000Z</time>
      </trkpt>
      <trkpt lat="43.2006" lon="6.6654">
        <ele>114</ele>
        <time>2013-09-16T12:59:51.000Z</time>
      </trkpt>
      <trkpt lat="43.20058" lon="6.66541">
        <ele>114</ele>
        <time>2013-09-16T12:59:52.000Z</time>
      </trkpt>
      <trkpt lat="43.20056" lon="6.66542">
        <ele>114</ele>
        <time>2013-09-16T12:59:53.000Z</time>
      </trkpt>
      <trkpt lat="43.20054" lon="6.66543">
        <ele>114</ele>
        <time>2013-09-16T12:59:54.000Z</time>
      </trkpt>
      <trkpt lat="43.20052" lon="6.66544">
        <ele>114</ele>
        <time>2013-09-16T12:59:55.000Z</time>
      </trkpt>
      <trkpt lat="43.2005" lon="6.66546">
        <ele>114</ele>
        <time>2013-09-16T12:59:56.000Z</time>
      </trkpt>
      <trkpt lat="43.20048" lon="6.66547">
        <ele>115</ele>
        <time>2013-09-16T12:59:57.000Z</time>
      </trkpt>
      <trkpt lat="43.20046" lon="6.66548">
        <ele>115</ele>
        <time>2013-09-16T12:59:58.000Z</time>
      </trkpt>
      <trkpt lat="43.20044" lon="6.66549">
        <ele>115</ele>
        <time>2013-09-16T12:59:59.000Z</time>
      </trkpt>
      <trkpt lat="43.20042" lon="6.6655">
        <ele>115</ele>
        <time>2013-09-16T13:00:00.000Z</time>
      </trkpt>
      <trkpt lat="43.2004" lon="6.66551">
        <ele>115</ele>
        <time>2013-09-16T13:00:01.000Z</time>
      </trkpt>
      <trkpt lat="43.20037" lon="6.66553">
        <ele>115</ele>
        <time>2013-09-16T13:00:02.000Z</time>
      </trkpt>
      <trkpt lat="43.20035" lon="6.66554">
        <ele>115</ele>
        <time>2013-09-16T13:00:03.000Z</time>
      </trkpt>
      <trkpt lat="43.20033" lon="6.66555">
        <ele>115</ele>
        <time>2013-09-16T13:00:04.000Z</time>
      </trkpt>
      <trkpt lat="43.20031" lon="6.66556">
        <ele>115</ele>
        <time>2013-09-16T13:00:05.000Z</time>
      </trkpt>
      <trkpt lat="43.20029" lon="6.66557">
        <ele>116</ele>
        <time>2013-09-16T13:00:06.000Z</time>
      </trkpt>
      <trkpt lat="43.20027" lon="6.66558">
        <ele>116</ele>
        <time>2013-09-16T13:00:07.000Z</time>
      </trkpt>
      <trkpt lat="43.20025" lon="6.66559">
        <ele>116</ele>
        <time>2013-09-16T13:00:08.000Z</time>
      </trkpt>
      <trkpt lat="43.20023" lon="6.6656">
        <ele>116</ele>
        <time>2013-09-16T13:00:09.000Z</time>
      </trkpt>
      <trkpt lat="43.2002" lon="6.66562">
        <ele>116</ele>
        <time>2013-09-16T13:00:10.000Z</time>
      </trkpt>
      <trkpt lat="43.20018" lon="6.66564">
        <ele>116</ele>
        <time>2013-09-16T13:00:11.000Z</time>
      </trkpt>
      <trkpt lat="43.20016" lon="6.66565">
        <ele>116</ele>
        <time>2013-09-16T13:00:12.000Z</time>
      </trkpt>
      <trkpt lat="43.20013" lon="6.66567">
        <ele>116</ele>
        <time>2013-09-16T13:00:13.000Z</time>
      </trkpt>
      <trkpt lat="43.20011" lon="6.66569">
        <ele>117</ele>
        <time>2013-09-16T13:00:14.000Z</time>
      </trkpt>
      <trkpt lat="43.20009" lon="6.66571">
        <ele>117</ele>
        <time>2013-09-16T13:00:15.000Z</time>
      </trkpt>
      <trkpt lat="43.20007" lon="6.66574">
        <ele>117</ele>
        <time>2013-09-16T13:00:16.000Z</time>
      </trkpt>
      <trkpt lat="43.20005" lon="6.66577">
        <ele>117</ele>
        <time>2013-09-16T13:00:17.000Z</time>
      </trkpt>
      <trkpt lat="43.20004" lon="6.66581">
        <ele>118</ele>
        <time>2013-09-16T13:00:18.000Z</time>
      </trkpt>
      <trkpt lat="43.20002" lon="6.66585">
        <ele>118</ele>
        <time>2013-09-16T13:00:19.000Z</time>
      </trkpt>
      <trkpt lat="43.20002" lon="6.66589">
        <ele>117</ele>
        <time>2013-09-16T13:00:20.000Z</time>
      </trkpt>
      <trkpt lat="43.20002" lon="6.66593">
        <ele>117</ele>
        <time>2013-09-16T13:00:21.000Z</time>
      </trkpt>
      <trkpt lat="43.20001" lon="6.66597">
        <ele>117</ele>
        <time>2013-09-16T13:00:22.000Z</time>
      </trkpt>
      <trkpt lat="43.20001" lon="6.666">
        <ele>117</ele>
        <time>2013-09-16T13:00:23.000Z</time>
      </trkpt>
      <trkpt lat="43.2" lon="6.66605">
        <ele>117</ele>
        <time>2013-09-16T13:00:24.000Z</time>
      </trkpt>
      <trkpt lat="43.2" lon="6.66609">
        <ele>118</ele>
        <time>2013-09-16T13:00:25.000Z</time>
      </trkpt>
      <trkpt lat="43.2" lon="6.66618">
        <ele>116</ele>
        <time>2013-09-16T13:00:27.000Z</time>
      </trkpt>
      <trkpt lat="43.20001" lon="6.66622">
        <ele>116</ele>
        <time>2013-09-16T13:00:28.000Z</time>
      </trkpt>
      <trkpt lat="43.20001" lon="6.66627">
        <ele>116</ele>
        <time>2013-09-16T13:00:29.000Z</time>
      </trkpt>
      <trkpt lat="43.20002" lon="6.66631">
        <ele>116</ele>
        <time>2013-09-16T13:00:30.000Z</time>
      </trkpt>
      <trkpt lat="43.20003" lon="6.66636">
        <ele>116</ele>
        <time>2013-09-16T13:00:31.000Z</time>
      </trkpt>
      <trkpt lat="43.20004" lon="6.6664">
        <ele>116</ele>
        <time>2013-09-16T13:00:32.000Z</time>
      </trkpt>
      <trkpt lat="43.20006" lon="6.66644">
        <ele>116</ele>
        <time>2013-09-16T13:00:33.000Z</time>
      </trkpt>
      <trkpt lat="43.20007" lon="6.66648">
        <ele>116</ele>
        <time>2013-09-16T13:00:34.000Z</time>
      </trkpt>
      <trkpt lat="43.20009" lon="6.66652">
        <ele>116</ele>
        <time>2013-09-16T13:00:35.000Z</time>
      </trkpt>
      <trkpt lat="43.2001" lon="6.66656">
        <ele>116</ele>
        <time>2013-09-16T13:00:36.000Z</time>
      </trkpt>
      <trkpt lat="43.20012" lon="6.6666">
        <ele>117</ele>
        <time>2013-09-16T13:00:37.000Z</time>
      </trkpt>
      <trkpt lat="43.20012" lon="6.66663">
        <ele>117</ele>
        <time>2013-09-16T13:00:38.000Z</time>
      </trkpt>
      <trkpt lat="43.20013" lon="6.66667">
        <ele>117</ele>
        <time>2013-09-16T13:00:39.000Z</time>
      </trkpt>
      <trkpt lat="43.20014" lon="6.66671">
        <ele>117</ele>
        <time>2013-09-16T13:00:40.000Z</time>
      </trkpt>
      <trkpt lat="43.20015" lon="6.66674">
        <ele>117</ele>
        <time>2013-09-16T13:00:41.000Z</time>
      </trkpt>
      <trkpt lat="43.20016" lon="6.66678">
        <ele>117</ele>
        <time>2013-09-16T13:00:42.000Z</time>
      </trkpt>
      <trkpt lat="43.20017" lon="6.66681">
        <ele>117</ele>
        <time>2013-09-16T13:00:43.000Z</time>
      </trkpt>
      <trkpt lat="43.20018" lon="6.66684">
        <ele>117</ele>
        <time>2013-09-16T13:00:44.000Z</time>
      </trkpt>
      <trkpt lat="43.20019" lon="6.66687">
        <ele>117</ele>
        <time>2013-09-16T13:00:45.000Z</time>
      </trkpt>
      <trkpt lat="43.2002" lon="6.6669">
        <ele>117</ele>
        <time>2013-09-16T13:00:46.000Z</time>
      </trkpt>
      <trkpt lat="43.2002" lon="6.66694">
        <ele>117</ele>
        <time>2013-09-16T13:00:47.000Z</time>
      </trkpt>
      <trkpt lat="43.20021" lon="6.66697">
        <ele>117</ele>
        <time>2013-09-16T13:00:48.000Z</time>
      </trkpt>
      <trkpt lat="43.20022" lon="6.667">
        <ele>117</ele>
        <time>2013-09-16T13:00:49.000Z</time>
      </trkpt>
      <trkpt lat="43.20024" lon="6.66703">
        <ele>117</ele>
        <time>2013-09-16T13:00:50.000Z</time>
      </trkpt>
      <trkpt lat="43.20025" lon="6.66707">
        <ele>117</ele>
        <time>2013-09-16T13:00:51.000Z</time>
      </trkpt>
      <trkpt lat="43.20027" lon="6.6671">
        <ele>117</ele>
        <time>2013-09-16T13:00:52.000Z</time>
      </trkpt>
      <trkpt lat="43.20029" lon="6.66714">
        <ele>117</ele>
        <time>2013-09-16T13:00:53.000Z</time>
      </trkpt>
      <trkpt lat="43.20031" lon="6.66718">
        <ele>117</ele>
        <time>2013-09-16T13:00:54.000Z</time>
      </trkpt>
      <trkpt lat="43.20033" lon="6.66722">
        <ele>117</ele>
        <time>2013-09-16T13:00:55.000Z</time>
      </trkpt>
      <trkpt lat="43.20035" lon="6.66726">
        <ele>117</ele>
        <time>2013-09-16T13:00:56.000Z</time>
      </trkpt>
      <trkpt lat="43.20036" lon="6.66731">
        <ele>117</ele>
        <time>2013-09-16T13:00:57.000Z</time>
      </trkpt>
      <trkpt lat="43.20038" lon="6.66735">
        <ele>117</ele>
        <time>2013-09-16T13:00:58.000Z</time>
      </trkpt>
      <trkpt lat="43.20038" lon="6.6674">
        <ele>117</ele>
        <time>2013-09-16T13:00:59.000Z</time>
      </trkpt>
      <trkpt lat="43.20038" lon="6.66745">
        <ele>117</ele>
        <time>2013-09-16T13:01:00.000Z</time>
      </trkpt>
      <trkpt lat="43.20037" lon="6.66749">
        <ele>117</ele>
        <time>2013-09-16T13:01:01.000Z</time>
      </trkpt>
      <trkpt lat="43.20036" lon="6.66754">
        <ele>115</ele>
        <time>2013-09-16T13:01:02.000Z</time>
      </trkpt>
      <trkpt lat="43.20036" lon="6.66758">
        <ele>115</ele>
        <time>2013-09-16T13:01:03.000Z</time>
      </trkpt>
      <trkpt lat="43.20035" lon="6.66762">
        <ele>115</ele>
        <time>2013-09-16T13:01:04.000Z</time>
      </trkpt>
      <trkpt lat="43.20035" lon="6.66766">
        <ele>115</ele>
        <time>2013-09-16T13:01:05.000Z</time>
      </trkpt>
      <trkpt lat="43.20035" lon="6.66771">
        <ele>115</ele>
        <time>2013-09-16T13:01:06.000Z</time>
      </trkpt>
      <trkpt lat="43.20036" lon="6.66775">
        <ele>115</ele>
        <time>2013-09-16T13:01:07.000Z</time>
      </trkpt>
      <trkpt lat="43.20037" lon="6.66779">
        <ele>115</ele>
        <time>2013-09-16T13:01:08.000Z</time>
      </trkpt>
      <trkpt lat="43.20039" lon="6.66783">
        <ele>115</ele>
        <time>2013-09-16T13:01:09.000Z</time>
      </trkpt>
      <trkpt lat="43.20041" lon="6.66788">
        <ele>115</ele>
        <time>2013-09-16T13:01:10.000Z</time>
      </trkpt>
      <trkpt lat="43.20044" lon="6.66793">
        <ele>115</ele>
        <time>2013-09-16T13:01:11.000Z</time>
      </trkpt>
      <trkpt lat="43.20046" lon="6.66798">
        <ele>115</ele>
        <time>2013-09-16T13:01:12.000Z</time>
      </trkpt>
      <trkpt lat="43.20048" lon="6.66803">
        <ele>115</ele>
        <time>2013-09-16T13:01:13.000Z</time>
      </trkpt>
      <trkpt lat="43.2005" lon="6.66809">
        <ele>115</ele>
        <time>2013-09-16T13:01:14.000Z</time>
      </trkpt>
      <trkpt lat="43.20052" lon="6.66814">
        <ele>115</ele>
        <time>2013-09-16T13:01:15.000Z</time>
      </trkpt>
      <trkpt lat="43.20053" lon="6.66819">
        <ele>115</ele>
        <time>2013-09-16T13:01:16.000Z</time>
      </trkpt>
      <trkpt lat="43.20055" lon="6.66823">
        <ele>115</ele>
        <time>2013-09-16T13:01:17.000Z</time>
      </trkpt>
      <trkpt lat="43.20056" lon="6.66828">
        <ele>115</ele>
        <time>2013-09-16T13:01:18.000Z</time>
      </trkpt>
      <trkpt lat="43.20058" lon="6.66832">
        <ele>115</ele>
        <time>2013-09-16T13:01:19.000Z</time>
      </trkpt>
      <trkpt lat="43.2006" lon="6.66837">
        <ele>113</ele>
        <time>2013-09-16T13:01:20.000Z</time>
      </trkpt>
      <trkpt lat="43.20062" lon="6.66841">
        <ele>113</ele>
        <time>2013-09-16T13:01:21.000Z</time>
      </trkpt>
      <trkpt lat="43.20064" lon="6.66846">
        <ele>113</ele>
        <time>2013-09-16T13:01:22.000Z</time>
      </trkpt>
      <trkpt lat="43.20066" lon="6.66852">
        <ele>113</ele>
        <time>2013-09-16T13:01:23.000Z</time>
      </trkpt>
      <trkpt lat="43.20069" lon="6.66857">
        <ele>112</ele>
        <time>2013-09-16T13:01:24.000Z</time>
      </trkpt>
      <trkpt lat="43.20072" lon="6.66864">
        <ele>112</ele>
        <time>2013-09-16T13:01:25.000Z</time>
      </trkpt>
      <trkpt lat="43.20075" lon="6.6687">
        <ele>112</ele>
        <time>2013-09-16T13:01:26.000Z</time>
      </trkpt>
      <trkpt lat="43.20078" lon="6.66876">
        <ele>112</ele>
        <time>2013-09-16T13:01:27.000Z</time>
      </trkpt>
      <trkpt lat="43.20082" lon="6.66883">
        <ele>112</ele>
        <time>2013-09-16T13:01:28.000Z</time>
      </trkpt>
      <trkpt lat="43.20085" lon="6.6689">
        <ele>113</ele>
        <time>2013-09-16T13:01:29.000Z</time>
      </trkpt>
      <trkpt lat="43.20087" lon="6.66898">
        <ele>113</ele>
        <time>2013-09-16T13:01:30.000Z</time>
      </trkpt>
      <trkpt lat="43.20089" lon="6.66906">
        <ele>113</ele>
        <time>2013-09-16T13:01:31.000Z</time>
      </trkpt>
      <trkpt lat="43.20089" lon="6.66915">
        <ele>113</ele>
        <time>2013-09-16T13:01:32.000Z</time>
      </trkpt>
      <trkpt lat="43.20088" lon="6.66924">
        <ele>112</ele>
        <time>2013-09-16T13:01:33.000Z</time>
      </trkpt>
      <trkpt lat="43.20087" lon="6.66932">
        <ele>112</ele>
        <time>2013-09-16T13:01:34.000Z</time>
      </trkpt>
      <trkpt lat="43.20086" lon="6.66941">
        <ele>111</ele>
        <time>2013-09-16T13:01:35.000Z</time>
      </trkpt>
      <trkpt lat="43.20084" lon="6.6695">
        <ele>111</ele>
        <time>2013-09-16T13:01:36.000Z</time>
      </trkpt>
      <trkpt lat="43.20082" lon="6.66958">
        <ele>109</ele>
        <time>2013-09-16T13:01:37.000Z</time>
      </trkpt>
      <trkpt lat="43.20081" lon="6.66967">
        <ele>109</ele>
        <time>2013-09-16T13:01:38.000Z</time>
      </trkpt>
      <trkpt lat="43.20079" lon="6.66975">
        <ele>109</ele>
        <time>2013-09-16T13:01:39.000Z</time>
      </trkpt>
      <trkpt lat="43.20077" lon="6.66982">
        <ele>109</ele>
        <time>2013-09-16T13:01:40.000Z</time>
      </trkpt>
      <trkpt lat="43.20074" lon="6.66989">
        <ele>110</ele>
        <time>2013-09-16T13:01:41.000Z</time>
      </trkpt>
      <trkpt lat="43.20072" lon="6.66995">
        <ele>110</ele>
        <time>2013-09-16T13:01:42.000Z</time>
      </trkpt>
      <trkpt lat="43.20071" lon="6.67002">
        <ele>108</ele>
        <time>2013-09-16T13:01:43.000Z</time>
      </trkpt>
      <trkpt lat="43.2007" lon="6.67008">
        <ele>108</ele>
        <time>2013-09-16T13:01:44.000Z</time>
      </trkpt>
      <trkpt lat="43.20069" lon="6.67014">
        <ele>107</ele>
        <time>2013-09-16T13:01:45.000Z</time>
      </trkpt>
      <trkpt lat="43.20068" lon="6.6702">
        <ele>106</ele>
        <time>2013-09-16T13:01:46.000Z</time>
      </trkpt>
      <trkpt lat="43.20068" lon="6.67027">
        <ele>106</ele>
        <time>2013-09-16T13:01:47.000Z</time>
      </trkpt>
      <trkpt lat="43.20067" lon="6.67033">
        <ele>105</ele>
        <time>2013-09-16T13:01:48.000Z</time>
      </trkpt>
      <trkpt lat="43.20067" lon="6.6704">
        <ele>105</ele>
        <time>2013-09-16T13:01:49.000Z</time>
      </trkpt>
      <trkpt lat="43.20066" lon="6.67046">
        <ele>105</ele>
        <time>2013-09-16T13:01:50.000Z</time>
      </trkpt>
      <trkpt lat="43.20066" lon="6.67053">
        <ele>105</ele>
        <time>2013-09-16T13:01:51.000Z</time>
      </trkpt>
      <trkpt lat="43.20066" lon="6.67059">
        <ele>105</ele>
        <time>2013-09-16T13:01:52.000Z</time>
      </trkpt>
      <trkpt lat="43.20066" lon="6.67066">
        <ele>105</ele>
        <time>2013-09-16T13:01:53.000Z</time>
      </trkpt>
      <trkpt lat="43.20066" lon="6.67073">
        <ele>105</ele>
        <time>2013-09-16T13:01:54.000Z</time>
      </trkpt>
      <trkpt lat="43.20067" lon="6.6708">
        <ele>106</ele>
        <time>2013-09-16T13:01:55.000Z</time>
      </trkpt>
      <trkpt lat="43.20069" lon="6.67088">
        <ele>105</ele>
        <time>2013-09-16T13:01:56.000Z</time>
      </trkpt>
      <trkpt lat="43.20071" lon="6.67096">
        <ele>104</ele>
        <time>2013-09-16T13:01:57.000Z</time>
      </trkpt>
      <trkpt lat="43.20074" lon="6.67105">
        <ele>103</ele>
        <time>2013-09-16T13:01:58.000Z</time>
      </trkpt>
      <trkpt lat="43.20077" lon="6.67113">
        <ele>103</ele>
        <time>2013-09-16T13:01:59.000Z</time>
      </trkpt>
      <trkpt lat="43.2008" lon="6.67122">
        <ele>102</ele>
        <time>2013-09-16T13:02:00.000Z</time>
      </trkpt>
      <trkpt lat="43.20082" lon="6.6713">
        <ele>102</ele>
        <time>2013-09-16T13:02:01.000Z</time>
      </trkpt>
      <trkpt lat="43.20084" lon="6.67139">
        <ele>105</ele>
        <time>2013-09-16T13:02:02.000Z</time>
      </trkpt>
      <trkpt lat="43.20084" lon="6.67147">
        <ele>105</ele>
        <time>2013-09-16T13:02:03.000Z</time>
      </trkpt>
      <trkpt lat="43.20084" lon="6.67156">
        <ele>105</ele>
        <time>2013-09-16T13:02:04.000Z</time>
      </trkpt>
      <trkpt lat="43.20084" lon="6.67165">
        <ele>105</ele>
        <time>2013-09-16T13:02:05.000Z</time>
      </trkpt>
      <trkpt lat="43.20083" lon="6.67174">
        <ele>103</ele>
        <time>2013-09-16T13:02:06.000Z</time>
      </trkpt>
      <trkpt lat="43.20084" lon="6.67184">
        <ele>104</ele>
        <time>2013-09-16T13:02:07.000Z</time>
      </trkpt>
      <trkpt lat="43.20085" lon="6.67195">
        <ele>103</ele>
        <time>2013-09-16T13:02:08.000Z</time>
      </trkpt>
      <trkpt lat="43.20087" lon="6.67206">
        <ele>103</ele>
        <time>2013-09-16T13:02:09.000Z</time>
      </trkpt>
      <trkpt lat="43.20089" lon="6.67217">
        <ele>103</ele>
        <time>2013-09-16T13:02:10.000Z</time>
      </trkpt>
      <trkpt lat="43.2009" lon="6.67228">
        <ele>103</ele>
        <time>2013-09-16T13:02:11.000Z</time>
      </trkpt>
      <trkpt lat="43.20092" lon="6.67239">
        <ele>103</ele>
        <time>2013-09-16T13:02:12.000Z</time>
      </trkpt>
      <trkpt lat="43.20093" lon="6.6725">
        <ele>103</ele>
        <time>2013-09-16T13:02:13.000Z</time>
      </trkpt>
      <trkpt lat="43.20094" lon="6.67261">
        <ele>103</ele>
        <time>2013-09-16T13:02:14.000Z</time>
      </trkpt>
      <trkpt lat="43.20094" lon="6.67271">
        <ele>103</ele>
        <time>2013-09-16T13:02:15.000Z</time>
      </trkpt>
      <trkpt lat="43.20094" lon="6.67289">
        <ele>104</ele>
        <time>2013-09-16T13:02:17.000Z</time>
      </trkpt>
      <trkpt lat="43.20094" lon="6.67296">
        <ele>104</ele>
        <time>2013-09-16T13:02:18.000Z</time>
      </trkpt>
      <trkpt lat="43.20094" lon="6.67302">
        <ele>104</ele>
        <time>2013-09-16T13:02:19.000Z</time>
      </trkpt>
      <trkpt lat="43.20094" lon="6.67309">
        <ele>105</ele>
        <time>2013-09-16T13:02:21.000Z</time>
      </trkpt>
      <trkpt lat="43.20093" lon="6.67312">
        <ele>105</ele>
        <time>2013-09-16T13:02:22.000Z</time>
      </trkpt>
      <trkpt lat="43.20093" lon="6.67314">
        <ele>105</ele>
        <time>2013-09-16T13:02:23.000Z</time>
      </trkpt>
      <trkpt lat="43.20093" lon="6.67319">
        <ele>105</ele>
        <time>2013-09-16T13:02:25.000Z</time>
      </trkpt>
      <trkpt lat="43.20093" lon="6.67325">
        <ele>105</ele>
        <time>2013-09-16T13:02:27.000Z</time>
      </trkpt>
      <trkpt lat="43.20092" lon="6.67327">
        <ele>105</ele>
        <time>2013-09-16T13:02:28.000Z</time>
      </trkpt>
      <trkpt lat="43.20092" lon="6.6733">
        <ele>105</ele>
        <time>2013-09-16T13:02:29.000Z</time>
      </trkpt>
      <trkpt lat="43.20092" lon="6.67333">
        <ele>105</ele>
        <time>2013-09-16T13:02:30.000Z</time>
      </trkpt>
      <trkpt lat="43.20092" lon="6.67338">
        <ele>107</ele>
        <time>2013-09-16T13:02:32.000Z</time>
      </trkpt>
      <trkpt lat="43.20092" lon="6.67344">
        <ele>107</ele>
        <time>2013-09-16T13:02:34.000Z</time>
      </trkpt>
      <trkpt lat="43.20092" lon="6.67346">
        <ele>107</ele>
        <time>2013-09-16T13:02:35.000Z</time>
      </trkpt>
      <trkpt lat="43.20091" lon="6.67352">
        <ele>107</ele>
        <time>2013-09-16T13:02:37.000Z</time>
      </trkpt>
      <trkpt lat="43.20091" lon="6.67363">
        <ele>107</ele>
        <time>2013-09-16T13:02:41.000Z</time>
      </trkpt>
      <trkpt lat="43.20091" lon="6.67365">
        <ele>107</ele>
        <time>2013-09-16T13:02:42.000Z</time>
      </trkpt>
      <trkpt lat="43.20091" lon="6.67371">
        <ele>108</ele>
        <time>2013-09-16T13:02:44.000Z</time>
      </trkpt>
      <trkpt lat="43.20091" lon="6.67373">
        <ele>108</ele>
        <time>2013-09-16T13:02:45.000Z</time>
      </trkpt>
      <trkpt lat="43.20091" lon="6.67376">
        <ele>108</ele>
        <time>2013-09-16T13:02:46.000Z</time>
      </trkpt>
      <trkpt lat="43.20091" lon="6.67384">
        <ele>108</ele>
        <time>2013-09-16T13:02:49.000Z</time>
      </trkpt>
      <trkpt lat="43.20092" lon="6.67386">
        <ele>108</ele>
        <time>2013-09-16T13:02:50.000Z</time>
      </trkpt>
      <trkpt lat="43.20094" lon="6.67388">
        <ele>108</ele>
        <time>2013-09-16T13:02:51.000Z</time>
      </trkpt>
      <trkpt lat="43.20095" lon="6.6739">
        <ele>108</ele>
        <time>2013-09-16T13:02:52.000Z</time>
      </trkpt>
      <trkpt lat="43.20096" lon="6.67392">
        <ele>108</ele>
        <time>2013-09-16T13:02:53.000Z</time>
      </trkpt>
      <trkpt lat="43.20098" lon="6.67393">
        <ele>108</ele>
        <time>2013-09-16T13:02:54.000Z</time>
      </trkpt>
      <trkpt lat="43.201" lon="6.67393">
        <ele>108</ele>
        <time>2013-09-16T13:02:56.000Z</time>
      </trkpt>
      <trkpt lat="43.201" lon="6.67393">
        <ele>108</ele>
        <time>2013-09-16T13:02:57.000Z</time>
      </trkpt>
      <trkpt lat="43.20101" lon="6.67392">
        <ele>108</ele>
        <time>2013-09-16T13:02:58.000Z</time>
      </trkpt>
      <trkpt lat="43.20101" lon="6.67392">
        <ele>108</ele>
        <time>2013-09-16T13:02:59.000Z</time>
      </trkpt>
      <trkpt lat="43.20102" lon="6.67392">
        <ele>108</ele>
        <time>2013-09-16T13:03:00.000Z</time>
      </trkpt>
      <trkpt lat="43.20102" lon="6.67392">
        <ele>108</ele>
        <time>2013-09-16T13:03:01.000Z</time>
      </trkpt>
      <trkpt lat="43.20102" lon="6.67392">
        <ele>108</ele>
        <time>2013-09-16T13:03:03.000Z</time>
      </trkpt>
      <trkpt lat="43.20102" lon="6.67393">
        <ele>108</ele>
        <time>2013-09-16T13:03:05.000Z</time>
      </trkpt>
      <trkpt lat="43.20102" lon="6.67392">
        <ele>108</ele>
        <time>2013-09-16T13:03:13.000Z</time>
      </trkpt>
      <trkpt lat="43.20102" lon="6.67392">
        <ele>108</ele>
        <time>2013-09-16T13:03:15.000Z</time>
      </trkpt>
      <trkpt lat="43.20102" lon="6.67392">
        <ele>108</ele>
        <time>2013-09-16T13:03:19.000Z</time>
      </trkpt>
      <trkpt lat="43.20102" lon="6.67392">
        <ele>108</ele>
        <time>2013-09-16T13:03:21.000Z</time>
      </trkpt>
      <trkpt lat="43.20102" lon="6.67391">
        <ele>108</ele>
        <time>2013-09-16T13:03:24.000Z</time>
      </trkpt>
      <trkpt lat="43.20101" lon="6.67391">
        <ele>108</ele>
        <time>2013-09-16T13:03:29.000Z</time>
      </trkpt>
      <trkpt lat="43.20102" lon="6.67391">
        <ele>108</ele>
        <time>2013-09-16T13:03:32.000Z</time>
      </trkpt>
      <trkpt lat="43.20102" lon="6.6739">
        <ele>108</ele>
        <time>2013-09-16T13:03:36.000Z</time>
      </trkpt>
      <trkpt lat="43.20102" lon="6.67391">
        <ele>108</ele>
        <time>2013-09-16T13:03:40.000Z</time>
      </trkpt>
      <trkpt lat="43.20102" lon="6.67391">
        <ele>108</ele>
        <time>2013-09-16T13:03:43.000Z</time>
      </trkpt>
      <trkpt lat="43.20102" lon="6.67391">
        <ele>108</ele>
        <time>2013-09-16T13:03:44.000Z</time>
      </trkpt>
      <trkpt lat="43.20102" lon="6.67391">
        <ele>108</ele>
        <time>2013-09-16T13:03:46.000Z</time>
      </trkpt>
      <trkpt lat="43.20103" lon="6.67391">
        <ele>108</ele>
        <time>2013-09-16T13:03:49.000Z</time>
      </trkpt>
      <trkpt lat="43.20103" lon="6.67391">
        <ele>108</ele>
        <time>2013-09-16T13:03:52.000Z</time>
      </trkpt>
      <trkpt lat="43.20103" lon="6.67392">
        <ele>108</ele>
        <time>2013-09-16T13:03:54.000Z</time>
      </trkpt>
      <trkpt lat="43.20103" lon="6.67392">
        <ele>108</ele>
        <time>2013-09-16T13:03:59.000Z</time>
      </trkpt>
      <trkpt lat="43.20103" lon="6.67392">
        <ele>108</ele>
        <time>2013-09-16T13:04:01.000Z</time>
      </trkpt>
      <trkpt lat="43.20103" lon="6.67392">
        <ele>108</ele>
        <time>2013-09-16T13:04:03.000Z</time>
      </trkpt>
      <trkpt lat="43.20104" lon="6.67392">
        <ele>108</ele>
        <time>2013-09-16T13:04:07.000Z</time>
      </trkpt>
      <trkpt lat="43.20104" lon="6.67393">
        <ele>108</ele>
        <time>2013-09-16T13:04:15.000Z</time>
      </trkpt>
      <trkpt lat="43.20104" lon="6.67393">
        <ele>108</ele>
        <time>2013-09-16T13:04:17.000Z</time>
      </trkpt>
      <trkpt lat="43.20104" lon="6.67393">
        <ele>108</ele>
        <time>2013-09-16T13:04:20.000Z</time>
      </trkpt>
      <trkpt lat="43.20104" lon="6.67393">
        <ele>108</ele>
        <time>2013-09-16T13:04:23.000Z</time>
      </trkpt>
      <trkpt lat="43.20104" lon="6.67393">
        <ele>108</ele>
        <time>2013-09-16T13:04:26.000Z</time>
      </trkpt>
      <trkpt lat="43.20105" lon="6.67394">
        <ele>108</ele>
        <time>2013-09-16T13:04:28.000Z</time>
      </trkpt>
      <trkpt lat="43.20105" lon="6.67394">
        <ele>108</ele>
        <time>2013-09-16T13:04:31.000Z</time>
      </trkpt>
      <trkpt lat="43.20105" lon="6.67394">
        <ele>108</ele>
        <time>2013-09-16T13:04:34.000Z</time>
      </trkpt>
      <trkpt lat="43.20106" lon="6.67394">
        <ele>108</ele>
        <time>2013-09-16T13:04:40.000Z</time>
      </trkpt>
      <trkpt lat="43.20105" lon="6.67394">
        <ele>108</ele>
        <time>2013-09-16T13:04:42.000Z</time>
      </trkpt>
      <trkpt lat="43.20106" lon="6.67394">
        <ele>108</ele>
        <time>2013-09-16T13:04:43.000Z</time>
      </trkpt>
      <trkpt lat="43.20106" lon="6.67394">
        <ele>108</ele>
        <time>2013-09-16T13:04:47.000Z</time>
      </trkpt>
      <trkpt lat="43.20106" lon="6.67394">
        <ele>108</ele>
        <time>2013-09-16T13:04:54.000Z</time>
      </trkpt>
      <trkpt lat="43.20106" lon="6.67395">
        <ele>108</ele>
        <time>2013-09-16T13:04:55.000Z</time>
      </trkpt>
      <trkpt lat="43.20106" lon="6.67394">
        <ele>108</ele>
        <time>2013-09-16T13:04:57.000Z</time>
      </trkpt>
      <trkpt lat="43.20105" lon="6.67394">
        <ele>108</ele>
        <time>2013-09-16T13:04:58.000Z</time>
      </trkpt>
      <trkpt lat="43.20104" lon="6.67394">
        <ele>108</ele>
        <time>2013-09-16T13:05:00.000Z</time>
      </trkpt>
      <trkpt lat="43.20103" lon="6.67393">
        <ele>108</ele>
        <time>2013-09-16T13:05:01.000Z</time>
      </trkpt>
      <trkpt lat="43.20102" lon="6.67392">
        <ele>108</ele>
        <time>2013-09-16T13:05:02.000Z</time>
      </trkpt>
      <trkpt lat="43.20103" lon="6.6739">
        <ele>108</ele>
        <time>2013-09-16T13:05:04.000Z</time>
      </trkpt>
      <trkpt lat="43.20103" lon="6.6739">
        <ele>108</ele>
        <time>2013-09-16T13:05:05.000Z</time>
      </trkpt>
      <trkpt lat="43.20105" lon="6.6739">
        <ele>108</ele>
        <time>2013-09-16T13:05:07.000Z</time>
      </trkpt>
      <trkpt lat="43.20106" lon="6.6739">
        <ele>108</ele>
        <time>2013-09-16T13:05:09.000Z</time>
      </trkpt>
      <trkpt lat="43.20109" lon="6.6739">
        <ele>108</ele>
        <time>2013-09-16T13:05:12.000Z</time>
      </trkpt>
      <trkpt lat="43.20109" lon="6.6739">
        <ele>108</ele>
        <time>2013-09-16T13:05:13.000Z</time>
      </trkpt>
      <trkpt lat="43.2011" lon="6.6739">
        <ele>108</ele>
        <time>2013-09-16T13:05:14.000Z</time>
      </trkpt>
      <trkpt lat="43.20111" lon="6.67389">
        <ele>108</ele>
        <time>2013-09-16T13:05:15.000Z</time>
      </trkpt>
      <trkpt lat="43.20111" lon="6.67389">
        <ele>108</ele>
        <time>2013-09-16T13:05:16.000Z</time>
      </trkpt>
      <trkpt lat="43.20112" lon="6.67388">
        <ele>108</ele>
        <time>2013-09-16T13:05:17.000Z</time>
      </trkpt>
      <trkpt lat="43.20112" lon="6.67387">
        <ele>108</ele>
        <time>2013-09-16T13:05:18.000Z</time>
      </trkpt>
      <trkpt lat="43.20112" lon="6.67386">
        <ele>108</ele>
        <time>2013-09-16T13:05:19.000Z</time>
      </trkpt>
      <trkpt lat="43.20112" lon="6.67385">
        <ele>108</ele>
        <time>2013-09-16T13:05:20.000Z</time>
      </trkpt>
      <trkpt lat="43.20113" lon="6.67384">
        <ele>108</ele>
        <time>2013-09-16T13:05:21.000Z</time>
      </trkpt>
      <trkpt lat="43.20113" lon="6.67382">
        <ele>108</ele>
        <time>2013-09-16T13:05:22.000Z</time>
      </trkpt>
      <trkpt lat="43.20113" lon="6.67381">
        <ele>108</ele>
        <time>2013-09-16T13:05:23.000Z</time>
      </trkpt>
      <trkpt lat="43.20114" lon="6.67379">
        <ele>108</ele>
        <time>2013-09-16T13:05:24.000Z</time>
      </trkpt>
      <trkpt lat="43.20114" lon="6.67377">
        <ele>108</ele>
        <time>2013-09-16T13:05:25.000Z</time>
      </trkpt>
      <trkpt lat="43.20115" lon="6.67375">
        <ele>108</ele>
        <time>2013-09-16T13:05:26.000Z</time>
      </trkpt>
      <trkpt lat="43.20115" lon="6.67374">
        <ele>108</ele>
        <time>2013-09-16T13:05:27.000Z</time>
      </trkpt>
      <trkpt lat="43.20116" lon="6.67373">
        <ele>108</ele>
        <time>2013-09-16T13:05:28.000Z</time>
      </trkpt>
      <trkpt lat="43.20116" lon="6.67371">
        <ele>107</ele>
        <time>2013-09-16T13:05:29.000Z</time>
      </trkpt>
      <trkpt lat="43.20116" lon="6.6737">
        <ele>107</ele>
        <time>2013-09-16T13:05:30.000Z</time>
      </trkpt>
      <trkpt lat="43.20117" lon="6.67369">
        <ele>107</ele>
        <time>2013-09-16T13:05:31.000Z</time>
      </trkpt>
      <trkpt lat="43.20117" lon="6.67368">
        <ele>107</ele>
        <time>2013-09-16T13:05:32.000Z</time>
      </trkpt>
      <trkpt lat="43.20117" lon="6.67366">
        <ele>107</ele>
        <time>2013-09-16T13:05:33.000Z</time>
      </trkpt>
      <trkpt lat="43.20117" lon="6.67365">
        <ele>107</ele>
        <time>2013-09-16T13:05:34.000Z</time>
      </trkpt>
      <trkpt lat="43.20117" lon="6.67364">
        <ele>107</ele>
        <time>2013-09-16T13:05:35.000Z</time>
      </trkpt>
      <trkpt lat="43.20117" lon="6.67361">
        <ele>107</ele>
        <time>2013-09-16T13:05:37.000Z</time>
      </trkpt>
      <trkpt lat="43.20117" lon="6.6736">
        <ele>107</ele>
        <time>2013-09-16T13:05:38.000Z</time>
      </trkpt>
      <trkpt lat="43.20117" lon="6.67359">
        <ele>107</ele>
        <time>2013-09-16T13:05:39.000Z</time>
      </trkpt>
      <trkpt lat="43.20117" lon="6.67358">
        <ele>107</ele>
        <time>2013-09-16T13:05:40.000Z</time>
      </trkpt>
      <trkpt lat="43.20118" lon="6.67357">
        <ele>107</ele>
        <time>2013-09-16T13:05:41.000Z</time>
      </trkpt>
      <trkpt lat="43.20118" lon="6.67356">
        <ele>107</ele>
        <time>2013-09-16T13:05:42.000Z</time>
      </trkpt>
      <trkpt lat="43.20119" lon="6.67355">
        <ele>107</ele>
        <time>2013-09-16T13:05:43.000Z</time>
      </trkpt>
      <trkpt lat="43.20119" lon="6.67355">
        <ele>107</ele>
        <time>2013-09-16T13:05:44.000Z</time>
      </trkpt>
      <trkpt lat="43.2012" lon="6.67354">
        <ele>107</ele>
        <time>2013-09-16T13:05:45.000Z</time>
      </trkpt>
      <trkpt lat="43.2012" lon="6.67353">
        <ele>107</ele>
        <time>2013-09-16T13:05:46.000Z</time>
      </trkpt>
      <trkpt lat="43.20121" lon="6.67352">
        <ele>107</ele>
        <time>2013-09-16T13:05:47.000Z</time>
      </trkpt>
      <trkpt lat="43.20122" lon="6.67351">
        <ele>107</ele>
        <time>2013-09-16T13:05:48.000Z</time>
      </trkpt>
      <trkpt lat="43.20123" lon="6.6735">
        <ele>107</ele>
        <time>2013-09-16T13:05:49.000Z</time>
      </trkpt>
      <trkpt lat="43.20124" lon="6.67349">
        <ele>107</ele>
        <time>2013-09-16T13:05:50.000Z</time>
      </trkpt>
      <trkpt lat="43.20124" lon="6.67347">
        <ele>107</ele>
        <time>2013-09-16T13:05:51.000Z</time>
      </trkpt>
      <trkpt lat="43.20125" lon="6.67346">
        <ele>107</ele>
        <time>2013-09-16T13:05:52.000Z</time>
      </trkpt>
      <trkpt lat="43.20125" lon="6.67344">
        <ele>107</ele>
        <time>2013-09-16T13:05:53.000Z</time>
      </trkpt>
      <trkpt lat="43.20125" lon="6.67343">
        <ele>107</ele>
        <time>2013-09-16T13:05:54.000Z</time>
      </trkpt>
      <trkpt lat="43.20125" lon="6.67342">
        <ele>107</ele>
        <time>2013-09-16T13:05:55.000Z</time>
      </trkpt>
      <trkpt lat="43.20126" lon="6.67341">
        <ele>107</ele>
        <time>2013-09-16T13:05:56.000Z</time>
      </trkpt>
      <trkpt lat="43.20127" lon="6.6734">
        <ele>107</ele>
        <time>2013-09-16T13:05:57.000Z</time>
      </trkpt>
      <trkpt lat="43.20128" lon="6.67339">
        <ele>107</ele>
        <time>2013-09-16T13:05:58.000Z</time>
      </trkpt>
      <trkpt lat="43.20129" lon="6.67337">
        <ele>107</ele>
        <time>2013-09-16T13:05:59.000Z</time>
      </trkpt>
      <trkpt lat="43.2013" lon="6.67336">
        <ele>107</ele>
        <time>2013-09-16T13:06:00.000Z</time>
      </trkpt>
      <trkpt lat="43.20131" lon="6.67335">
        <ele>107</ele>
        <time>2013-09-16T13:06:01.000Z</time>
      </trkpt>
      <trkpt lat="43.20132" lon="6.67335">
        <ele>107</ele>
        <time>2013-09-16T13:06:02.000Z</time>
      </trkpt>
      <trkpt lat="43.20133" lon="6.67334">
        <ele>107</ele>
        <time>2013-09-16T13:06:03.000Z</time>
      </trkpt>
      <trkpt lat="43.20134" lon="6.67334">
        <ele>107</ele>
        <time>2013-09-16T13:06:04.000Z</time>
      </trkpt>
      <trkpt lat="43.20137" lon="6.67334">
        <ele>107</ele>
        <time>2013-09-16T13:06:07.000Z</time>
      </trkpt>
      <trkpt lat="43.20138" lon="6.67334">
        <ele>107</ele>
        <time>2013-09-16T13:06:08.000Z</time>
      </trkpt>
      <trkpt lat="43.20143" lon="6.67334">
        <ele>107</ele>
        <time>2013-09-16T13:06:13.000Z</time>
      </trkpt>
      <trkpt lat="43.20143" lon="6.67334">
        <ele>107</ele>
        <time>2013-09-16T13:06:14.000Z</time>
      </trkpt>
      <trkpt lat="43.20144" lon="6.67334">
        <ele>107</ele>
        <time>2013-09-16T13:06:15.000Z</time>
      </trkpt>
      <trkpt lat="43.20145" lon="6.67335">
        <ele>107</ele>
        <time>2013-09-16T13:06:16.000Z</time>
      </trkpt>
      <trkpt lat="43.20145" lon="6.67335">
        <ele>107</ele>
        <time>2013-09-16T13:06:17.000Z</time>
      </trkpt>
      <trkpt lat="43.20146" lon="6.67336">
        <ele>107</ele>
        <time>2013-09-16T13:06:18.000Z</time>
      </trkpt>
      <trkpt lat="43.20146" lon="6.67336">
        <ele>107</ele>
        <time>2013-09-16T13:06:19.000Z</time>
      </trkpt>
      <trkpt lat="43.20147" lon="6.67336">
        <ele>107</ele>
        <time>2013-09-16T13:06:21.000Z</time>
      </trkpt>
      <trkpt lat="43.20147" lon="6.67336">
        <ele>107</ele>
        <time>2013-09-16T13:06:26.000Z</time>
      </trkpt>
      <trkpt lat="43.20148" lon="6.67336">
        <ele>107</ele>
        <time>2013-09-16T13:06:30.000Z</time>
      </trkpt>
      <trkpt lat="43.20148" lon="6.67337">
        <ele>107</ele>
        <time>2013-09-16T13:06:34.000Z</time>
      </trkpt>
      <trkpt lat="43.20148" lon="6.67337">
        <ele>107</ele>
        <time>2013-09-16T13:06:39.000Z</time>
      </trkpt>
      <trkpt lat="43.20149" lon="6.67337">
        <ele>107</ele>
        <time>2013-09-16T13:06:44.000Z</time>
      </trkpt>
      <trkpt lat="43.20149" lon="6.67337">
        <ele>107</ele>
        <time>2013-09-16T13:06:48.000Z</time>
      </trkpt>
      <trkpt lat="43.20149" lon="6.67337">
        <ele>107</ele>
        <time>2013-09-16T13:06:53.000Z</time>
      </trkpt>
      <trkpt lat="43.20149" lon="6.67337">
        <ele>107</ele>
        <time>2013-09-16T13:06:57.000Z</time>
      </trkpt>
      <trkpt lat="43.2015" lon="6.67338">
        <ele>107</ele>
        <time>2013-09-16T13:07:02.000Z</time>
      </trkpt>
      <trkpt lat="43.2015" lon="6.67338">
        <ele>107</ele>
        <time>2013-09-16T13:07:07.000Z</time>
      </trkpt>
      <trkpt lat="43.2015" lon="6.67338">
        <ele>107</ele>
        <time>2013-09-16T13:07:12.000Z</time>
      </trkpt>
      <trkpt lat="43.2015" lon="6.67338">
        <ele>107</ele>
        <time>2013-09-16T13:07:18.000Z</time>
      </trkpt>
      <trkpt lat="43.2015" lon="6.67338">
        <ele>107</ele>
        <time>2013-09-16T13:07:27.000Z</time>
      </trkpt>
      <trkpt lat="43.20151" lon="6.67338">
        <ele>107</ele>
        <time>2013-09-16T13:07:37.000Z</time>
      </trkpt>
      <trkpt lat="43.20151" lon="6.67339">
        <ele>107</ele>
        <time>2013-09-16T13:07:58.000Z</time>
      </trkpt>
      <trkpt lat="43.20151" lon="6.67338">
        <ele>107</ele>
        <time>2013-09-16T13:08:51.000Z</time>
      </trkpt>
      <trkpt lat="43.2015" lon="6.67338">
        <ele>107</ele>
        <time>2013-09-16T13:09:37.000Z</time>
      </trkpt>
      <trkpt lat="43.2015" lon="6.67338">
        <ele>107</ele>
        <time>2013-09-16T13:09:47.000Z</time>
      </trkpt>
      <trkpt lat="43.2015" lon="6.67338">
        <ele>107</ele>
        <time>2013-09-16T13:10:11.000Z</time>
      </trkpt>
      <trkpt lat="43.20149" lon="6.67338">
        <ele>107</ele>
        <time>2013-09-16T13:10:37.000Z</time>
      </trkpt>
      <trkpt lat="43.20149" lon="6.67338">
        <ele>107</ele>
        <time>2013-09-16T13:10:44.000Z</time>
      </trkpt>
      <trkpt lat="43.20149" lon="6.67338">
        <ele>107</ele>
        <time>2013-09-16T13:10:49.000Z</time>
      </trkpt>
      <trkpt lat="43.20149" lon="6.67337">
        <ele>107</ele>
        <time>2013-09-16T13:10:54.000Z</time>
      </trkpt>
      <trkpt lat="43.20149" lon="6.67337">
        <ele>107</ele>
        <time>2013-09-16T13:10:59.000Z</time>
      </trkpt>
      <trkpt lat="43.20148" lon="6.67337">
        <ele>107</ele>
        <time>2013-09-16T13:11:08.000Z</time>
      </trkpt>
      <trkpt lat="43.20148" lon="6.67337">
        <ele>107</ele>
        <time>2013-09-16T13:11:35.000Z</time>
      </trkpt>
      <trkpt lat="43.20148" lon="6.67337">
        <ele>107</ele>
        <time>2013-09-16T13:11:50.000Z</time>
      </trkpt>
      <trkpt lat="43.20147" lon="6.67336">
        <ele>107</ele>
        <time>2013-09-16T13:12:00.000Z</time>
      </trkpt>
      <trkpt lat="43.20146" lon="6.67336">
        <ele>107</ele>
        <time>2013-09-16T13:12:04.000Z</time>
      </trkpt>
      <trkpt lat="43.20146" lon="6.67336">
        <ele>107</ele>
        <time>2013-09-16T13:12:06.000Z</time>
      </trkpt>
      <trkpt lat="43.20145" lon="6.67336">
        <ele>107</ele>
        <time>2013-09-16T13:12:14.000Z</time>
      </trkpt>
      <trkpt lat="43.20145" lon="6.67336">
        <ele>107</ele>
        <time>2013-09-16T13:12:19.000Z</time>
      </trkpt>
      <trkpt lat="43.20145" lon="6.67336">
        <ele>107</ele>
        <time>2013-09-16T13:12:24.000Z</time>
      </trkpt>
      <trkpt lat="43.20145" lon="6.67336">
        <ele>107</ele>
        <time>2013-09-16T13:12:26.000Z</time>
      </trkpt>
      <trkpt lat="43.20144" lon="6.67336">
        <ele>107</ele>
        <time>2013-09-16T13:12:27.000Z</time>
      </trkpt>
      <trkpt lat="43.20142" lon="6.67335">
        <ele>107</ele>
        <time>2013-09-16T13:12:28.000Z</time>
      </trkpt>
      <trkpt lat="43.2014" lon="6.67335">
        <ele>107</ele>
        <time>2013-09-16T13:12:29.000Z</time>
      </trkpt>
      <trkpt lat="43.20134" lon="6.67335">
        <ele>107</ele>
        <time>2013-09-16T13:12:31.000Z</time>
      </trkpt>
      <trkpt lat="43.20132" lon="6.67336">
        <ele>107</ele>
        <time>2013-09-16T13:12:32.000Z</time>
      </trkpt>
      <trkpt lat="43.2013" lon="6.67336">
        <ele>107</ele>
        <time>2013-09-16T13:12:33.000Z</time>
      </trkpt>
      <trkpt lat="43.20127" lon="6.67337">
        <ele>107</ele>
        <time>2013-09-16T13:12:34.000Z</time>
      </trkpt>
      <trkpt lat="43.20125" lon="6.67337">
        <ele>107</ele>
        <time>2013-09-16T13:12:36.000Z</time>
      </trkpt>
      <trkpt lat="43.20123" lon="6.67337">
        <ele>107</ele>
        <time>2013-09-16T13:12:37.000Z</time>
      </trkpt>
      <trkpt lat="43.20121" lon="6.67338">
        <ele>107</ele>
        <time>2013-09-16T13:12:38.000Z</time>
      </trkpt>
      <trkpt lat="43.20119" lon="6.67339">
        <ele>107</ele>
        <time>2013-09-16T13:12:39.000Z</time>
      </trkpt>
      <trkpt lat="43.20116" lon="6.67341">
        <ele>107</ele>
        <time>2013-09-16T13:12:40.000Z</time>
      </trkpt>
      <trkpt lat="43.20114" lon="6.67343">
        <ele>107</ele>
        <time>2013-09-16T13:12:41.000Z</time>
      </trkpt>
      <trkpt lat="43.20112" lon="6.67345">
        <ele>107</ele>
        <time>2013-09-16T13:12:42.000Z</time>
      </trkpt>
      <trkpt lat="43.2011" lon="6.67347">
        <ele>107</ele>
        <time>2013-09-16T13:12:43.000Z</time>
      </trkpt>
      <trkpt lat="43.20109" lon="6.67349">
        <ele>107</ele>
        <time>2013-09-16T13:12:44.000Z</time>
      </trkpt>
      <trkpt lat="43.20108" lon="6.67351">
        <ele>107</ele>
        <time>2013-09-16T13:12:45.000Z</time>
      </trkpt>
      <trkpt lat="43.20108" lon="6.67352">
        <ele>107</ele>
        <time>2013-09-16T13:12:46.000Z</time>
      </trkpt>
      <trkpt lat="43.20107" lon="6.67352">
        <ele>107</ele>
        <time>2013-09-16T13:12:47.000Z</time>
      </trkpt>
      <trkpt lat="43.20107" lon="6.67352">
        <ele>107</ele>
        <time>2013-09-16T13:12:48.000Z</time>
      </trkpt>
      <trkpt lat="43.20106" lon="6.67353">
        <ele>107</ele>
        <time>2013-09-16T13:12:49.000Z</time>
      </trkpt>
      <trkpt lat="43.20105" lon="6.67354">
        <ele>107</ele>
        <time>2013-09-16T13:12:50.000Z</time>
      </trkpt>
      <trkpt lat="43.20104" lon="6.67355">
        <ele>107</ele>
        <time>2013-09-16T13:12:51.000Z</time>
      </trkpt>
      <trkpt lat="43.20103" lon="6.67355">
        <ele>107</ele>
        <time>2013-09-16T13:12:52.000Z</time>
      </trkpt>
      <trkpt lat="43.20103" lon="6.67356">
        <ele>107</ele>
        <time>2013-09-16T13:12:53.000Z</time>
      </trkpt>
      <trkpt lat="43.20102" lon="6.67356">
        <ele>107</ele>
        <time>2013-09-16T13:12:54.000Z</time>
      </trkpt>
      <trkpt lat="43.20101" lon="6.67356">
        <ele>107</ele>
        <time>2013-09-16T13:12:56.000Z</time>
      </trkpt>
      <trkpt lat="43.201" lon="6.67356">
        <ele>107</ele>
        <time>2013-09-16T13:12:58.000Z</time>
      </trkpt>
      <trkpt lat="43.20098" lon="6.67356">
        <ele>107</ele>
        <time>2013-09-16T13:13:01.000Z</time>
      </trkpt>
      <trkpt lat="43.20098" lon="6.67356">
        <ele>107</ele>
        <time>2013-09-16T13:13:02.000Z</time>
      </trkpt>
      <trkpt lat="43.20098" lon="6.67356">
        <ele>107</ele>
        <time>2013-09-16T13:13:04.000Z</time>
      </trkpt>
      <trkpt lat="43.20098" lon="6.67353">
        <ele>107</ele>
        <time>2013-09-16T13:13:10.000Z</time>
      </trkpt>
      <trkpt lat="43.20098" lon="6.6735">
        <ele>107</ele>
        <time>2013-09-16T13:13:11.000Z</time>
      </trkpt>
      <trkpt lat="43.20098" lon="6.67347">
        <ele>107</ele>
        <time>2013-09-16T13:13:12.000Z</time>
      </trkpt>
      <trkpt lat="43.20097" lon="6.67343">
        <ele>107</ele>
        <time>2013-09-16T13:13:13.000Z</time>
      </trkpt>
      <trkpt lat="43.20098" lon="6.6733">
        <ele>105</ele>
        <time>2013-09-16T13:13:16.000Z</time>
      </trkpt>
      <trkpt lat="43.20098" lon="6.67325">
        <ele>105</ele>
        <time>2013-09-16T13:13:17.000Z</time>
      </trkpt>
      <trkpt lat="43.20098" lon="6.67277">
        <ele>104</ele>
        <time>2013-09-16T13:13:23.000Z</time>
      </trkpt>
      <trkpt lat="43.20097" lon="6.67268">
        <ele>103</ele>
        <time>2013-09-16T13:13:24.000Z</time>
      </trkpt>
      <trkpt lat="43.20096" lon="6.67259">
        <ele>103</ele>
        <time>2013-09-16T13:13:25.000Z</time>
      </trkpt>
      <trkpt lat="43.20096" lon="6.67249">
        <ele>103</ele>
        <time>2013-09-16T13:13:26.000Z</time>
      </trkpt>
      <trkpt lat="43.20095" lon="6.6724">
        <ele>103</ele>
        <time>2013-09-16T13:13:27.000Z</time>
      </trkpt>
      <trkpt lat="43.20093" lon="6.67232">
        <ele>103</ele>
        <time>2013-09-16T13:13:28.000Z</time>
      </trkpt>
      <trkpt lat="43.20092" lon="6.67224">
        <ele>103</ele>
        <time>2013-09-16T13:13:29.000Z</time>
      </trkpt>
      <trkpt lat="43.20091" lon="6.67216">
        <ele>103</ele>
        <time>2013-09-16T13:13:30.000Z</time>
      </trkpt>
      <trkpt lat="43.2009" lon="6.6721">
        <ele>103</ele>
        <time>2013-09-16T13:13:31.000Z</time>
      </trkpt>
      <trkpt lat="43.20089" lon="6.67204">
        <ele>103</ele>
        <time>2013-09-16T13:13:32.000Z</time>
      </trkpt>
      <trkpt lat="43.20089" lon="6.67199">
        <ele>103</ele>
        <time>2013-09-16T13:13:33.000Z</time>
      </trkpt>
      <trkpt lat="43.20088" lon="6.67194">
        <ele>103</ele>
        <time>2013-09-16T13:13:34.000Z</time>
      </trkpt>
      <trkpt lat="43.20087" lon="6.6719">
        <ele>103</ele>
        <time>2013-09-16T13:13:35.000Z</time>
      </trkpt>
      <trkpt lat="43.20087" lon="6.67181">
        <ele>104</ele>
        <time>2013-09-16T13:13:38.000Z</time>
      </trkpt>
      <trkpt lat="43.20088" lon="6.67176">
        <ele>104</ele>
        <time>2013-09-16T13:13:40.000Z</time>
      </trkpt>
      <trkpt lat="43.20088" lon="6.67173">
        <ele>104</ele>
        <time>2013-09-16T13:13:41.000Z</time>
      </trkpt>
      <trkpt lat="43.20088" lon="6.67171">
        <ele>104</ele>
        <time>2013-09-16T13:13:42.000Z</time>
      </trkpt>
      <trkpt lat="43.20088" lon="6.67161">
        <ele>105</ele>
        <time>2013-09-16T13:13:46.000Z</time>
      </trkpt>
      <trkpt lat="43.20088" lon="6.67159">
        <ele>105</ele>
        <time>2013-09-16T13:13:47.000Z</time>
      </trkpt>
      <trkpt lat="43.20089" lon="6.67156">
        <ele>105</ele>
        <time>2013-09-16T13:13:48.000Z</time>
      </trkpt>
      <trkpt lat="43.20088" lon="6.67153">
        <ele>105</ele>
        <time>2013-09-16T13:13:49.000Z</time>
      </trkpt>
      <trkpt lat="43.20088" lon="6.67148">
        <ele>105</ele>
        <time>2013-09-16T13:13:51.000Z</time>
      </trkpt>
      <trkpt lat="43.20087" lon="6.67144">
        <ele>105</ele>
        <time>2013-09-16T13:13:53.000Z</time>
      </trkpt>
      <trkpt lat="43.20087" lon="6.67141">
        <ele>105</ele>
        <time>2013-09-16T13:13:54.000Z</time>
      </trkpt>
      <trkpt lat="43.20086" lon="6.67138">
        <ele>105</ele>
        <time>2013-09-16T13:13:55.000Z</time>
      </trkpt>
      <trkpt lat="43.20086" lon="6.67135">
        <ele>105</ele>
        <time>2013-09-16T13:13:56.000Z</time>
      </trkpt>
      <trkpt lat="43.20085" lon="6.67132">
        <ele>105</ele>
        <time>2013-09-16T13:13:57.000Z</time>
      </trkpt>
      <trkpt lat="43.20084" lon="6.67129">
        <ele>105</ele>
        <time>2013-09-16T13:13:58.000Z</time>
      </trkpt>
      <trkpt lat="43.20083" lon="6.67127">
        <ele>102</ele>
        <time>2013-09-16T13:13:59.000Z</time>
      </trkpt>
      <trkpt lat="43.20082" lon="6.67124">
        <ele>102</ele>
        <time>2013-09-16T13:14:00.000Z</time>
      </trkpt>
      <trkpt lat="43.20081" lon="6.67121">
        <ele>102</ele>
        <time>2013-09-16T13:14:01.000Z</time>
      </trkpt>
      <trkpt lat="43.20081" lon="6.67119">
        <ele>103</ele>
        <time>2013-09-16T13:14:02.000Z</time>
      </trkpt>
      <trkpt lat="43.2008" lon="6.67116">
        <ele>103</ele>
        <time>2013-09-16T13:14:03.000Z</time>
      </trkpt>
      <trkpt lat="43.20079" lon="6.67113">
        <ele>103</ele>
        <time>2013-09-16T13:14:04.000Z</time>
      </trkpt>
      <trkpt lat="43.20078" lon="6.67111">
        <ele>103</ele>
        <time>2013-09-16T13:14:05.000Z</time>
      </trkpt>
      <trkpt lat="43.20077" lon="6.67109">
        <ele>103</ele>
        <time>2013-09-16T13:14:06.000Z</time>
      </trkpt>
      <trkpt lat="43.20076" lon="6.67106">
        <ele>103</ele>
        <time>2013-09-16T13:14:07.000Z</time>
      </trkpt>
      <trkpt lat="43.20075" lon="6.67104">
        <ele>104</ele>
        <time>2013-09-16T13:14:08.000Z</time>
      </trkpt>
      <trkpt lat="43.20074" lon="6.67101">
        <ele>104</ele>
        <time>2013-09-16T13:14:09.000Z</time>
      </trkpt>
      <trkpt lat="43.20074" lon="6.67099">
        <ele>104</ele>
        <time>2013-09-16T13:14:10.000Z</time>
      </trkpt>
      <trkpt lat="43.20073" lon="6.67096">
        <ele>104</ele>
        <time>2013-09-16T13:14:11.000Z</time>
      </trkpt>
      <trkpt lat="43.20072" lon="6.67094">
        <ele>105</ele>
        <time>2013-09-16T13:14:12.000Z</time>
      </trkpt>
      <trkpt lat="43.20072" lon="6.67091">
        <ele>105</ele>
        <time>2013-09-16T13:14:13.000Z</time>
      </trkpt>
      <trkpt lat="43.20071" lon="6.67089">
        <ele>105</ele>
        <time>2013-09-16T13:14:14.000Z</time>
      </trkpt>
      <trkpt lat="43.20071" lon="6.67086">
        <ele>105</ele>
        <time>2013-09-16T13:14:15.000Z</time>
      </trkpt>
      <trkpt lat="43.2007" lon="6.67084">
        <ele>105</ele>
        <time>2013-09-16T13:14:16.000Z</time>
      </trkpt>
      <trkpt lat="43.20069" lon="6.6708">
        <ele>106</ele>
        <time>2013-09-16T13:14:17.000Z</time>
      </trkpt>
      <trkpt lat="43.20068" lon="6.67077">
        <ele>106</ele>
        <time>2013-09-16T13:14:18.000Z</time>
      </trkpt>
      <trkpt lat="43.20068" lon="6.67075">
        <ele>106</ele>
        <time>2013-09-16T13:14:19.000Z</time>
      </trkpt>
      <trkpt lat="43.20068" lon="6.67072">
        <ele>106</ele>
        <time>2013-09-16T13:14:20.000Z</time>
      </trkpt>
      <trkpt lat="43.20068" lon="6.67066">
        <ele>105</ele>
        <time>2013-09-16T13:14:22.000Z</time>
      </trkpt>
      <trkpt lat="43.20068" lon="6.67054">
        <ele>105</ele>
        <time>2013-09-16T13:14:26.000Z</time>
      </trkpt>
      <trkpt lat="43.20068" lon="6.67051">
        <ele>105</ele>
        <time>2013-09-16T13:14:27.000Z</time>
      </trkpt>
      <trkpt lat="43.20068" lon="6.67047">
        <ele>105</ele>
        <time>2013-09-16T13:14:28.000Z</time>
      </trkpt>
      <trkpt lat="43.20068" lon="6.67041">
        <ele>105</ele>
        <time>2013-09-16T13:14:30.000Z</time>
      </trkpt>
      <trkpt lat="43.20068" lon="6.6703">
        <ele>106</ele>
        <time>2013-09-16T13:14:33.000Z</time>
      </trkpt>
      <trkpt lat="43.20069" lon="6.67027">
        <ele>106</ele>
        <time>2013-09-16T13:14:34.000Z</time>
      </trkpt>
      <trkpt lat="43.20069" lon="6.67019">
        <ele>107</ele>
        <time>2013-09-16T13:14:36.000Z</time>
      </trkpt>
      <trkpt lat="43.2007" lon="6.67015">
        <ele>107</ele>
        <time>2013-09-16T13:14:37.000Z</time>
      </trkpt>
      <trkpt lat="43.2007" lon="6.67011">
        <ele>108</ele>
        <time>2013-09-16T13:14:38.000Z</time>
      </trkpt>
      <trkpt lat="43.20071" lon="6.67007">
        <ele>108</ele>
        <time>2013-09-16T13:14:39.000Z</time>
      </trkpt>
      <trkpt lat="43.20072" lon="6.67003">
        <ele>109</ele>
        <time>2013-09-16T13:14:40.000Z</time>
      </trkpt>
      <trkpt lat="43.20073" lon="6.66998">
        <ele>110</ele>
        <time>2013-09-16T13:14:41.000Z</time>
      </trkpt>
      <trkpt lat="43.20074" lon="6.66994">
        <ele>110</ele>
        <time>2013-09-16T13:14:42.000Z</time>
      </trkpt>
      <trkpt lat="43.20075" lon="6.6699">
        <ele>110</ele>
        <time>2013-09-16T13:14:43.000Z</time>
      </trkpt>
      <trkpt lat="43.20077" lon="6.66985">
        <ele>109</ele>
        <time>2013-09-16T13:14:44.000Z</time>
      </trkpt>
      <trkpt lat="43.20078" lon="6.6698">
        <ele>109</ele>
        <time>2013-09-16T13:14:45.000Z</time>
      </trkpt>
      <trkpt lat="43.20079" lon="6.66975">
        <ele>109</ele>
        <time>2013-09-16T13:14:46.000Z</time>
      </trkpt>
      <trkpt lat="43.2008" lon="6.6697">
        <ele>109</ele>
        <time>2013-09-16T13:14:47.000Z</time>
      </trkpt>
      <trkpt lat="43.20081" lon="6.66964">
        <ele>109</ele>
        <time>2013-09-16T13:14:48.000Z</time>
      </trkpt>
      <trkpt lat="43.20082" lon="6.66959">
        <ele>109</ele>
        <time>2013-09-16T13:14:49.000Z</time>
      </trkpt>
      <trkpt lat="43.20083" lon="6.66953">
        <ele>109</ele>
        <time>2013-09-16T13:14:50.000Z</time>
      </trkpt>
      <trkpt lat="43.20084" lon="6.66947">
        <ele>111</ele>
        <time>2013-09-16T13:14:51.000Z</time>
      </trkpt>
      <trkpt lat="43.20086" lon="6.66942">
        <ele>111</ele>
        <time>2013-09-16T13:14:52.000Z</time>
      </trkpt>
      <trkpt lat="43.20087" lon="6.66936">
        <ele>112</ele>
        <time>2013-09-16T13:14:53.000Z</time>
      </trkpt>
      <trkpt lat="43.20088" lon="6.66931">
        <ele>112</ele>
        <time>2013-09-16T13:14:54.000Z</time>
      </trkpt>
      <trkpt lat="43.20089" lon="6.66926">
        <ele>112</ele>
        <time>2013-09-16T13:14:55.000Z</time>
      </trkpt>
      <trkpt lat="43.20089" lon="6.66921">
        <ele>112</ele>
        <time>2013-09-16T13:14:56.000Z</time>
      </trkpt>
      <trkpt lat="43.20089" lon="6.66917">
        <ele>112</ele>
        <time>2013-09-16T13:14:57.000Z</time>
      </trkpt>
      <trkpt lat="43.20089" lon="6.66914">
        <ele>113</ele>
        <time>2013-09-16T13:14:58.000Z</time>
      </trkpt>
      <trkpt lat="43.20089" lon="6.66911">
        <ele>113</ele>
        <time>2013-09-16T13:14:59.000Z</time>
      </trkpt>
      <trkpt lat="43.20089" lon="6.66908">
        <ele>113</ele>
        <time>2013-09-16T13:15:00.000Z</time>
      </trkpt>
      <trkpt lat="43.20089" lon="6.66906">
        <ele>113</ele>
        <time>2013-09-16T13:15:01.000Z</time>
      </trkpt>
      <trkpt lat="43.20088" lon="6.66904">
        <ele>113</ele>
        <time>2013-09-16T13:15:02.000Z</time>
      </trkpt>
      <trkpt lat="43.20088" lon="6.66901">
        <ele>113</ele>
        <time>2013-09-16T13:15:03.000Z</time>
      </trkpt>
      <trkpt lat="43.20088" lon="6.66898">
        <ele>113</ele>
        <time>2013-09-16T13:15:04.000Z</time>
      </trkpt>
      <trkpt lat="43.20087" lon="6.66895">
        <ele>113</ele>
        <time>2013-09-16T13:15:05.000Z</time>
      </trkpt>
      <trkpt lat="43.20086" lon="6.66891">
        <ele>113</ele>
        <time>2013-09-16T13:15:06.000Z</time>
      </trkpt>
      <trkpt lat="43.20085" lon="6.66888">
        <ele>113</ele>
        <time>2013-09-16T13:15:07.000Z</time>
      </trkpt>
      <trkpt lat="43.20083" lon="6.66885">
        <ele>112</ele>
        <time>2013-09-16T13:15:08.000Z</time>
      </trkpt>
      <trkpt lat="43.20082" lon="6.66881">
        <ele>112</ele>
        <time>2013-09-16T13:15:09.000Z</time>
      </trkpt>
      <trkpt lat="43.2008" lon="6.66878">
        <ele>112</ele>
        <time>2013-09-16T13:15:10.000Z</time>
      </trkpt>
      <trkpt lat="43.20078" lon="6.66874">
        <ele>112</ele>
        <time>2013-09-16T13:15:11.000Z</time>
      </trkpt>
      <trkpt lat="43.20077" lon="6.66871">
        <ele>112</ele>
        <time>2013-09-16T13:15:12.000Z</time>
      </trkpt>
      <trkpt lat="43.20075" lon="6.66868">
        <ele>112</ele>
        <time>2013-09-16T13:15:13.000Z</time>
      </trkpt>
      <trkpt lat="43.20074" lon="6.66865">
        <ele>112</ele>
        <time>2013-09-16T13:15:14.000Z</time>
      </trkpt>
      <trkpt lat="43.20072" lon="6.66861">
        <ele>112</ele>
        <time>2013-09-16T13:15:15.000Z</time>
      </trkpt>
      <trkpt lat="43.20071" lon="6.66858">
        <ele>113</ele>
        <time>2013-09-16T13:15:16.000Z</time>
      </trkpt>
      <trkpt lat="43.2007" lon="6.66855">
        <ele>113</ele>
        <time>2013-09-16T13:15:17.000Z</time>
      </trkpt>
      <trkpt lat="43.20068" lon="6.66852">
        <ele>113</ele>
        <time>2013-09-16T13:15:18.000Z</time>
      </trkpt>
      <trkpt lat="43.20067" lon="6.66849">
        <ele>113</ele>
        <time>2013-09-16T13:15:19.000Z</time>
      </trkpt>
      <trkpt lat="43.20066" lon="6.66846">
        <ele>113</ele>
        <time>2013-09-16T13:15:20.000Z</time>
      </trkpt>
      <trkpt lat="43.20065" lon="6.66843">
        <ele>113</ele>
        <time>2013-09-16T13:15:21.000Z</time>
      </trkpt>
      <trkpt lat="43.20063" lon="6.6684">
        <ele>113</ele>
        <time>2013-09-16T13:15:22.000Z</time>
      </trkpt>
      <trkpt lat="43.20062" lon="6.66837">
        <ele>113</ele>
        <time>2013-09-16T13:15:23.000Z</time>
      </trkpt>
      <trkpt lat="43.20061" lon="6.66834">
        <ele>113</ele>
        <time>2013-09-16T13:15:24.000Z</time>
      </trkpt>
      <trkpt lat="43.20059" lon="6.6683">
        <ele>115</ele>
        <time>2013-09-16T13:15:25.000Z</time>
      </trkpt>
      <trkpt lat="43.20058" lon="6.66827">
        <ele>115</ele>
        <time>2013-09-16T13:15:26.000Z</time>
      </trkpt>
      <trkpt lat="43.20057" lon="6.66823">
        <ele>115</ele>
        <time>2013-09-16T13:15:27.000Z</time>
      </trkpt>
      <trkpt lat="43.20056" lon="6.66819">
        <ele>115</ele>
        <time>2013-09-16T13:15:28.000Z</time>
      </trkpt>
      <trkpt lat="43.20054" lon="6.66814">
        <ele>115</ele>
        <time>2013-09-16T13:15:29.000Z</time>
      </trkpt>
      <trkpt lat="43.20052" lon="6.66809">
        <ele>115</ele>
        <time>2013-09-16T13:15:30.000Z</time>
      </trkpt>
      <trkpt lat="43.20051" lon="6.66804">
        <ele>115</ele>
        <time>2013-09-16T13:15:31.000Z</time>
      </trkpt>
      <trkpt lat="43.20049" lon="6.66799">
        <ele>115</ele>
        <time>2013-09-16T13:15:32.000Z</time>
      </trkpt>
      <trkpt lat="43.20047" lon="6.66795">
        <ele>115</ele>
        <time>2013-09-16T13:15:33.000Z</time>
      </trkpt>
      <trkpt lat="43.20045" lon="6.6679">
        <ele>115</ele>
        <time>2013-09-16T13:15:34.000Z</time>
      </trkpt>
      <trkpt lat="43.20042" lon="6.66786">
        <ele>115</ele>
        <time>2013-09-16T13:15:35.000Z</time>
      </trkpt>
      <trkpt lat="43.2004" lon="6.66781">
        <ele>115</ele>
        <time>2013-09-16T13:15:36.000Z</time>
      </trkpt>
      <trkpt lat="43.20038" lon="6.66776">
        <ele>115</ele>
        <time>2013-09-16T13:15:37.000Z</time>
      </trkpt>
      <trkpt lat="43.20037" lon="6.66771">
        <ele>115</ele>
        <time>2013-09-16T13:15:38.000Z</time>
      </trkpt>
      <trkpt lat="43.20037" lon="6.66766">
        <ele>115</ele>
        <time>2013-09-16T13:15:39.000Z</time>
      </trkpt>
      <trkpt lat="43.20037" lon="6.6676">
        <ele>115</ele>
        <time>2013-09-16T13:15:40.000Z</time>
      </trkpt>
      <trkpt lat="43.20038" lon="6.66753">
        <ele>115</ele>
        <time>2013-09-16T13:15:41.000Z</time>
      </trkpt>
      <trkpt lat="43.20039" lon="6.66747">
        <ele>117</ele>
        <time>2013-09-16T13:15:42.000Z</time>
      </trkpt>
      <trkpt lat="43.20039" lon="6.66741">
        <ele>117</ele>
        <time>2013-09-16T13:15:43.000Z</time>
      </trkpt>
      <trkpt lat="43.20039" lon="6.66735">
        <ele>117</ele>
        <time>2013-09-16T13:15:44.000Z</time>
      </trkpt>
      <trkpt lat="43.20037" lon="6.6673">
        <ele>117</ele>
        <time>2013-09-16T13:15:45.000Z</time>
      </trkpt>
      <trkpt lat="43.20035" lon="6.66725">
        <ele>117</ele>
        <time>2013-09-16T13:15:46.000Z</time>
      </trkpt>
      <trkpt lat="43.20032" lon="6.6672">
        <ele>117</ele>
        <time>2013-09-16T13:15:47.000Z</time>
      </trkpt>
      <trkpt lat="43.2003" lon="6.66715">
        <ele>117</ele>
        <time>2013-09-16T13:15:48.000Z</time>
      </trkpt>
      <trkpt lat="43.20027" lon="6.6671">
        <ele>117</ele>
        <time>2013-09-16T13:15:49.000Z</time>
      </trkpt>
      <trkpt lat="43.20025" lon="6.66705">
        <ele>117</ele>
        <time>2013-09-16T13:15:50.000Z</time>
      </trkpt>
      <trkpt lat="43.20023" lon="6.667">
        <ele>117</ele>
        <time>2013-09-16T13:15:51.000Z</time>
      </trkpt>
      <trkpt lat="43.20022" lon="6.66695">
        <ele>117</ele>
        <time>2013-09-16T13:15:52.000Z</time>
      </trkpt>
      <trkpt lat="43.20021" lon="6.6669">
        <ele>117</ele>
        <time>2013-09-16T13:15:53.000Z</time>
      </trkpt>
      <trkpt lat="43.20019" lon="6.66684">
        <ele>117</ele>
        <time>2013-09-16T13:15:54.000Z</time>
      </trkpt>
      <trkpt lat="43.20018" lon="6.66679">
        <ele>117</ele>
        <time>2013-09-16T13:15:55.000Z</time>
      </trkpt>
      <trkpt lat="43.20016" lon="6.66672">
        <ele>117</ele>
        <time>2013-09-16T13:15:56.000Z</time>
      </trkpt>
      <trkpt lat="43.20014" lon="6.66666">
        <ele>117</ele>
        <time>2013-09-16T13:15:57.000Z</time>
      </trkpt>
      <trkpt lat="43.20011" lon="6.66659">
        <ele>117</ele>
        <time>2013-09-16T13:15:58.000Z</time>
      </trkpt>
      <trkpt lat="43.20008" lon="6.66652">
        <ele>116</ele>
        <time>2013-09-16T13:15:59.000Z</time>
      </trkpt>
      <trkpt lat="43.20005" lon="6.66645">
        <ele>116</ele>
        <time>2013-09-16T13:16:00.000Z</time>
      </trkpt>
      <trkpt lat="43.20003" lon="6.66637">
        <ele>116</ele>
        <time>2013-09-16T13:16:01.000Z</time>
      </trkpt>
      <trkpt lat="43.20002" lon="6.66629">
        <ele>116</ele>
        <time>2013-09-16T13:16:02.000Z</time>
      </trkpt>
      <trkpt lat="43.20001" lon="6.6662">
        <ele>116</ele>
        <time>2013-09-16T13:16:03.000Z</time>
      </trkpt>
      <trkpt lat="43.2" lon="6.66612">
        <ele>116</ele>
        <time>2013-09-16T13:16:04.000Z</time>
      </trkpt>
      <trkpt lat="43.2" lon="6.66603">
        <ele>117</ele>
        <time>2013-09-16T13:16:05.000Z</time>
      </trkpt>
      <trkpt lat="43.2" lon="6.66596">
        <ele>117</ele>
        <time>2013-09-16T13:16:06.000Z</time>
      </trkpt>
      <trkpt lat="43.20001" lon="6.66588">
        <ele>118</ele>
        <time>2013-09-16T13:16:07.000Z</time>
      </trkpt>
      <trkpt lat="43.20003" lon="6.66582">
        <ele>118</ele>
        <time>2013-09-16T13:16:08.000Z</time>
      </trkpt>
      <trkpt lat="43.20006" lon="6.66576">
        <ele>117</ele>
        <time>2013-09-16T13:16:09.000Z</time>
      </trkpt>
      <trkpt lat="43.20011" lon="6.66572">
        <ele>117</ele>
        <time>2013-09-16T13:16:10.000Z</time>
      </trkpt>
      <trkpt lat="43.20015" lon="6.66568">
        <ele>116</ele>
        <time>2013-09-16T13:16:11.000Z</time>
      </trkpt>
      <trkpt lat="43.2002" lon="6.66565">
        <ele>116</ele>
        <time>2013-09-16T13:16:12.000Z</time>
      </trkpt>
      <trkpt lat="43.20025" lon="6.66562">
        <ele>116</ele>
        <time>2013-09-16T13:16:13.000Z</time>
      </trkpt>
      <trkpt lat="43.20031" lon="6.66559">
        <ele>115</ele>
        <time>2013-09-16T13:16:14.000Z</time>
      </trkpt>
      <trkpt lat="43.20036" lon="6.66556">
        <ele>115</ele>
        <time>2013-09-16T13:16:15.000Z</time>
      </trkpt>
      <trkpt lat="43.20042" lon="6.66552">
        <ele>115</ele>
        <time>2013-09-16T13:16:16.000Z</time>
      </trkpt>
      <trkpt lat="43.20048" lon="6.66549">
        <ele>115</ele>
        <time>2013-09-16T13:16:17.000Z</time>
      </trkpt>
      <trkpt lat="43.20054" lon="6.66546">
        <ele>114</ele>
        <time>2013-09-16T13:16:18.000Z</time>
      </trkpt>
      <trkpt lat="43.20061" lon="6.66543">
        <ele>114</ele>
        <time>2013-09-16T13:16:19.000Z</time>
      </trkpt>
      <trkpt lat="43.20068" lon="6.66539">
        <ele>114</ele>
        <time>2013-09-16T13:16:20.000Z</time>
      </trkpt>
      <trkpt lat="43.20074" lon="6.66536">
        <ele>113</ele>
        <time>2013-09-16T13:16:21.000Z</time>
      </trkpt>
      <trkpt lat="43.20081" lon="6.66533">
        <ele>113</ele>
        <time>2013-09-16T13:16:22.000Z</time>
      </trkpt>
      <trkpt lat="43.20087" lon="6.66529">
        <ele>107</ele>
        <time>2013-09-16T13:16:23.000Z</time>
      </trkpt>
      <trkpt lat="43.20093" lon="6.66526">
        <ele>107</ele>
        <time>2013-09-16T13:16:24.000Z</time>
      </trkpt>
      <trkpt lat="43.20099" lon="6.66522">
        <ele>107</ele>
        <time>2013-09-16T13:16:25.000Z</time>
      </trkpt>
      <trkpt lat="43.20103" lon="6.66517">
        <ele>106</ele>
        <time>2013-09-16T13:16:26.000Z</time>
      </trkpt>
      <trkpt lat="43.20107" lon="6.6651">
        <ele>106</ele>
        <time>2013-09-16T13:16:27.000Z</time>
      </trkpt>
      <trkpt lat="43.20109" lon="6.66502">
        <ele>106</ele>
        <time>2013-09-16T13:16:28.000Z</time>
      </trkpt>
      <trkpt lat="43.2011" lon="6.66492">
        <ele>105</ele>
        <time>2013-09-16T13:16:29.000Z</time>
      </trkpt>
      <trkpt lat="43.20111" lon="6.66483">
        <ele>104</ele>
        <time>2013-09-16T13:16:30.000Z</time>
      </trkpt>
      <trkpt lat="43.20113" lon="6.66473">
        <ele>104</ele>
        <time>2013-09-16T13:16:31.000Z</time>
      </trkpt>
      <trkpt lat="43.20115" lon="6.66463">
        <ele>104</ele>
        <time>2013-09-16T13:16:32.000Z</time>
      </trkpt>
      <trkpt lat="43.20119" lon="6.66453">
        <ele>103</ele>
        <time>2013-09-16T13:16:33.000Z</time>
      </trkpt>
      <trkpt lat="43.20123" lon="6.66444">
        <ele>103</ele>
        <time>2013-09-16T13:16:34.000Z</time>
      </trkpt>
      <trkpt lat="43.20127" lon="6.66437">
        <ele>102</ele>
        <time>2013-09-16T13:16:35.000Z</time>
      </trkpt>
      <trkpt lat="43.20131" lon="6.6643">
        <ele>102</ele>
        <time>2013-09-16T13:16:36.000Z</time>
      </trkpt>
      <trkpt lat="43.20134" lon="6.66423">
        <ele>101</ele>
        <time>2013-09-16T13:16:37.000Z</time>
      </trkpt>
      <trkpt lat="43.20135" lon="6.66415">
        <ele>100</ele>
        <time>2013-09-16T13:16:38.000Z</time>
      </trkpt>
      <trkpt lat="43.20134" lon="6.66408">
        <ele>100</ele>
        <time>2013-09-16T13:16:39.000Z</time>
      </trkpt>
      <trkpt lat="43.20131" lon="6.66402">
        <ele>100</ele>
        <time>2013-09-16T13:16:40.000Z</time>
      </trkpt>
      <trkpt lat="43.20126" lon="6.66398">
        <ele>100</ele>
        <time>2013-09-16T13:16:41.000Z</time>
      </trkpt>
      <trkpt lat="43.20121" lon="6.66394">
        <ele>101</ele>
        <time>2013-09-16T13:16:42.000Z</time>
      </trkpt>
      <trkpt lat="43.20116" lon="6.6639">
        <ele>101</ele>
        <time>2013-09-16T13:16:43.000Z</time>
      </trkpt>
      <trkpt lat="43.2011" lon="6.66385">
        <ele>101</ele>
        <time>2013-09-16T13:16:44.000Z</time>
      </trkpt>
      <trkpt lat="43.20106" lon="6.66379">
        <ele>101</ele>
        <time>2013-09-16T13:16:45.000Z</time>
      </trkpt>
      <trkpt lat="43.20103" lon="6.66371">
        <ele>101</ele>
        <time>2013-09-16T13:16:46.000Z</time>
      </trkpt>
      <trkpt lat="43.20102" lon="6.66363">
        <ele>101</ele>
        <time>2013-09-16T13:16:47.000Z</time>
      </trkpt>
      <trkpt lat="43.20104" lon="6.66347">
        <ele>101</ele>
        <time>2013-09-16T13:16:49.000Z</time>
      </trkpt>
      <trkpt lat="43.20108" lon="6.66341">
        <ele>101</ele>
        <time>2013-09-16T13:16:50.000Z</time>
      </trkpt>
      <trkpt lat="43.20113" lon="6.66337">
        <ele>101</ele>
        <time>2013-09-16T13:16:51.000Z</time>
      </trkpt>
      <trkpt lat="43.20119" lon="6.66333">
        <ele>100</ele>
        <time>2013-09-16T13:16:52.000Z</time>
      </trkpt>
      <trkpt lat="43.20125" lon="6.6633">
        <ele>100</ele>
        <time>2013-09-16T13:16:53.000Z</time>
      </trkpt>
      <trkpt lat="43.20132" lon="6.66326">
        <ele>99</ele>
        <time>2013-09-16T13:16:54.000Z</time>
      </trkpt>
      <trkpt lat="43.20139" lon="6.66323">
        <ele>99</ele>
        <time>2013-09-16T13:16:55.000Z</time>
      </trkpt>
      <trkpt lat="43.20146" lon="6.66319">
        <ele>98</ele>
        <time>2013-09-16T13:16:56.000Z</time>
      </trkpt>
      <trkpt lat="43.20153" lon="6.66316">
        <ele>97</ele>
        <time>2013-09-16T13:16:57.000Z</time>
      </trkpt>
      <trkpt lat="43.20161" lon="6.66312">
        <ele>97</ele>
        <time>2013-09-16T13:16:58.000Z</time>
      </trkpt>
      <trkpt lat="43.20169" lon="6.66308">
        <ele>91</ele>
        <time>2013-09-16T13:16:59.000Z</time>
      </trkpt>
      <trkpt lat="43.20177" lon="6.66304">
        <ele>91</ele>
        <time>2013-09-16T13:17:00.000Z</time>
      </trkpt>
      <trkpt lat="43.20185" lon="6.663">
        <ele>91</ele>
        <time>2013-09-16T13:17:01.000Z</time>
      </trkpt>
      <trkpt lat="43.20193" lon="6.66296">
        <ele>90</ele>
        <time>2013-09-16T13:17:02.000Z</time>
      </trkpt>
      <trkpt lat="43.202" lon="6.66293">
        <ele>90</ele>
        <time>2013-09-16T13:17:03.000Z</time>
      </trkpt>
      <trkpt lat="43.20207" lon="6.6629">
        <ele>89</ele>
        <time>2013-09-16T13:17:04.000Z</time>
      </trkpt>
      <trkpt lat="43.20214" lon="6.66287">
        <ele>89</ele>
        <time>2013-09-16T13:17:05.000Z</time>
      </trkpt>
      <trkpt lat="43.2022" lon="6.66283">
        <ele>89</ele>
        <time>2013-09-16T13:17:06.000Z</time>
      </trkpt>
      <trkpt lat="43.20226" lon="6.66278">
        <ele>88</ele>
        <time>2013-09-16T13:17:07.000Z</time>
      </trkpt>
      <trkpt lat="43.2023" lon="6.66271">
        <ele>88</ele>
        <time>2013-09-16T13:17:08.000Z</time>
      </trkpt>
      <trkpt lat="43.20234" lon="6.66263">
        <ele>88</ele>
        <time>2013-09-16T13:17:09.000Z</time>
      </trkpt>
      <trkpt lat="43.20236" lon="6.66255">
        <ele>88</ele>
        <time>2013-09-16T13:17:10.000Z</time>
      </trkpt>
      <trkpt lat="43.20238" lon="6.66245">
        <ele>89</ele>
        <time>2013-09-16T13:17:11.000Z</time>
      </trkpt>
      <trkpt lat="43.20239" lon="6.66236">
        <ele>90</ele>
        <time>2013-09-16T13:17:12.000Z</time>
      </trkpt>
      <trkpt lat="43.2024" lon="6.66227">
        <ele>90</ele>
        <time>2013-09-16T13:17:13.000Z</time>
      </trkpt>
      <trkpt lat="43.20243" lon="6.66218">
        <ele>91</ele>
        <time>2013-09-16T13:17:14.000Z</time>
      </trkpt>
      <trkpt lat="43.20247" lon="6.66211">
        <ele>91</ele>
        <time>2013-09-16T13:17:15.000Z</time>
      </trkpt>
      <trkpt lat="43.20253" lon="6.66207">
        <ele>83</ele>
        <time>2013-09-16T13:17:16.000Z</time>
      </trkpt>
      <trkpt lat="43.20259" lon="6.66205">
        <ele>83</ele>
        <time>2013-09-16T13:17:17.000Z</time>
      </trkpt>
      <trkpt lat="43.20265" lon="6.66203">
        <ele>83</ele>
        <time>2013-09-16T13:17:18.000Z</time>
      </trkpt>
      <trkpt lat="43.20272" lon="6.66201">
        <ele>82</ele>
        <time>2013-09-16T13:17:19.000Z</time>
      </trkpt>
      <trkpt lat="43.20278" lon="6.66198">
        <ele>82</ele>
        <time>2013-09-16T13:17:20.000Z</time>
      </trkpt>
      <trkpt lat="43.20284" lon="6.66195">
        <ele>82</ele>
        <time>2013-09-16T13:17:21.000Z</time>
      </trkpt>
      <trkpt lat="43.2029" lon="6.6619">
        <ele>81</ele>
        <time>2013-09-16T13:17:22.000Z</time>
      </trkpt>
      <trkpt lat="43.20297" lon="6.66186">
        <ele>81</ele>
        <time>2013-09-16T13:17:23.000Z</time>
      </trkpt>
      <trkpt lat="43.20303" lon="6.6618">
        <ele>81</ele>
        <time>2013-09-16T13:17:24.000Z</time>
      </trkpt>
      <trkpt lat="43.20308" lon="6.66174">
        <ele>80</ele>
        <time>2013-09-16T13:17:25.000Z</time>
      </trkpt>
      <trkpt lat="43.20313" lon="6.66167">
        <ele>80</ele>
        <time>2013-09-16T13:17:26.000Z</time>
      </trkpt>
      <trkpt lat="43.20318" lon="6.6616">
        <ele>82</ele>
        <time>2013-09-16T13:17:27.000Z</time>
      </trkpt>
      <trkpt lat="43.20323" lon="6.66152">
        <ele>82</ele>
        <time>2013-09-16T13:17:28.000Z</time>
      </trkpt>
      <trkpt lat="43.20327" lon="6.66145">
        <ele>83</ele>
        <time>2013-09-16T13:17:29.000Z</time>
      </trkpt>
      <trkpt lat="43.2033" lon="6.66137">
        <ele>83</ele>
        <time>2013-09-16T13:17:30.000Z</time>
      </trkpt>
      <trkpt lat="43.20332" lon="6.6613">
        <ele>83</ele>
        <time>2013-09-16T13:17:31.000Z</time>
      </trkpt>
      <trkpt lat="43.20332" lon="6.66122">
        <ele>84</ele>
        <time>2013-09-16T13:17:32.000Z</time>
      </trkpt>
      <trkpt lat="43.20331" lon="6.66113">
        <ele>84</ele>
        <time>2013-09-16T13:17:33.000Z</time>
      </trkpt>
      <trkpt lat="43.2033" lon="6.66104">
        <ele>84</ele>
        <time>2013-09-16T13:17:34.000Z</time>
      </trkpt>
      <trkpt lat="43.2033" lon="6.66094">
        <ele>84</ele>
        <time>2013-09-16T13:17:35.000Z</time>
      </trkpt>
      <trkpt lat="43.2033" lon="6.66084">
        <ele>83</ele>
        <time>2013-09-16T13:17:36.000Z</time>
      </trkpt>
      <trkpt lat="43.20331" lon="6.66074">
        <ele>84</ele>
        <time>2013-09-16T13:17:37.000Z</time>
      </trkpt>
      <trkpt lat="43.20333" lon="6.66065">
        <ele>85</ele>
        <time>2013-09-16T13:17:38.000Z</time>
      </trkpt>
      <trkpt lat="43.20335" lon="6.66057">
        <ele>83</ele>
        <time>2013-09-16T13:17:39.000Z</time>
      </trkpt>
      <trkpt lat="43.20337" lon="6.6605">
        <ele>83</ele>
        <time>2013-09-16T13:17:40.000Z</time>
      </trkpt>
      <trkpt lat="43.2034" lon="6.66043">
        <ele>83</ele>
        <time>2013-09-16T13:17:41.000Z</time>
      </trkpt>
      <trkpt lat="43.20344" lon="6.66039">
        <ele>83</ele>
        <time>2013-09-16T13:17:42.000Z</time>
      </trkpt>
      <trkpt lat="43.20349" lon="6.66036">
        <ele>83</ele>
        <time>2013-09-16T13:17:43.000Z</time>
      </trkpt>
      <trkpt lat="43.20354" lon="6.66034">
        <ele>83</ele>
        <time>2013-09-16T13:17:44.000Z</time>
      </trkpt>
      <trkpt lat="43.20358" lon="6.66034">
        <ele>83</ele>
        <time>2013-09-16T13:17:45.000Z</time>
      </trkpt>
      <trkpt lat="43.20367" lon="6.66034">
        <ele>83</ele>
        <time>2013-09-16T13:17:47.000Z</time>
      </trkpt>
      <trkpt lat="43.20371" lon="6.66034">
        <ele>83</ele>
        <time>2013-09-16T13:17:48.000Z</time>
      </trkpt>
      <trkpt lat="43.20374" lon="6.66035">
        <ele>83</ele>
        <time>2013-09-16T13:17:49.000Z</time>
      </trkpt>
      <trkpt lat="43.20378" lon="6.66035">
        <ele>83</ele>
        <time>2013-09-16T13:17:50.000Z</time>
      </trkpt>
      <trkpt lat="43.20381" lon="6.66036">
        <ele>83</ele>
        <time>2013-09-16T13:17:51.000Z</time>
      </trkpt>
      <trkpt lat="43.20385" lon="6.66036">
        <ele>83</ele>
        <time>2013-09-16T13:17:52.000Z</time>
      </trkpt>
      <trkpt lat="43.20389" lon="6.66037">
        <ele>83</ele>
        <time>2013-09-16T13:17:53.000Z</time>
      </trkpt>
      <trkpt lat="43.20394" lon="6.66039">
        <ele>82</ele>
        <time>2013-09-16T13:17:54.000Z</time>
      </trkpt>
      <trkpt lat="43.20398" lon="6.66041">
        <ele>82</ele>
        <time>2013-09-16T13:17:55.000Z</time>
      </trkpt>
      <trkpt lat="43.20402" lon="6.66044">
        <ele>82</ele>
        <time>2013-09-16T13:17:56.000Z</time>
      </trkpt>
      <trkpt lat="43.20407" lon="6.66046">
        <ele>82</ele>
        <time>2013-09-16T13:17:57.000Z</time>
      </trkpt>
      <trkpt lat="43.20412" lon="6.66047">
        <ele>82</ele>
        <time>2013-09-16T13:17:58.000Z</time>
      </trkpt>
      <trkpt lat="43.20417" lon="6.66048">
        <ele>82</ele>
        <time>2013-09-16T13:17:59.000Z</time>
      </trkpt>
      <trkpt lat="43.20421" lon="6.66049">
        <ele>80</ele>
        <time>2013-09-16T13:18:00.000Z</time>
      </trkpt>
      <trkpt lat="43.20426" lon="6.66048">
        <ele>81</ele>
        <time>2013-09-16T13:18:01.000Z</time>
      </trkpt>
      <trkpt lat="43.20431" lon="6.66046">
        <ele>81</ele>
        <time>2013-09-16T13:18:02.000Z</time>
      </trkpt>
      <trkpt lat="43.20436" lon="6.66045">
        <ele>81</ele>
        <time>2013-09-16T13:18:03.000Z</time>
      </trkpt>
      <trkpt lat="43.2044" lon="6.66042">
        <ele>81</ele>
        <time>2013-09-16T13:18:04.000Z</time>
      </trkpt>
      <trkpt lat="43.20444" lon="6.66038">
        <ele>81</ele>
        <time>2013-09-16T13:18:05.000Z</time>
      </trkpt>
      <trkpt lat="43.20448" lon="6.66034">
        <ele>81</ele>
        <time>2013-09-16T13:18:06.000Z</time>
      </trkpt>
      <trkpt lat="43.20452" lon="6.6603">
        <ele>81</ele>
        <time>2013-09-16T13:18:07.000Z</time>
      </trkpt>
      <trkpt lat="43.20455" lon="6.66025">
        <ele>81</ele>
        <time>2013-09-16T13:18:08.000Z</time>
      </trkpt>
      <trkpt lat="43.20457" lon="6.6602">
        <ele>81</ele>
        <time>2013-09-16T13:18:09.000Z</time>
      </trkpt>
      <trkpt lat="43.2046" lon="6.66015">
        <ele>82</ele>
        <time>2013-09-16T13:18:10.000Z</time>
      </trkpt>
      <trkpt lat="43.20462" lon="6.6601">
        <ele>82</ele>
        <time>2013-09-16T13:18:11.000Z</time>
      </trkpt>
      <trkpt lat="43.20465" lon="6.66005">
        <ele>82</ele>
        <time>2013-09-16T13:18:12.000Z</time>
      </trkpt>
      <trkpt lat="43.20466" lon="6.65999">
        <ele>83</ele>
        <time>2013-09-16T13:18:13.000Z</time>
      </trkpt>
      <trkpt lat="43.20468" lon="6.65993">
        <ele>83</ele>
        <time>2013-09-16T13:18:14.000Z</time>
      </trkpt>
      <trkpt lat="43.20469" lon="6.65987">
        <ele>83</ele>
        <time>2013-09-16T13:18:15.000Z</time>
      </trkpt>
      <trkpt lat="43.20469" lon="6.6598">
        <ele>83</ele>
        <time>2013-09-16T13:18:16.000Z</time>
      </trkpt>
      <trkpt lat="43.2047" lon="6.65975">
        <ele>83</ele>
        <time>2013-09-16T13:18:17.000Z</time>
      </trkpt>
      <trkpt lat="43.20471" lon="6.65969">
        <ele>83</ele>
        <time>2013-09-16T13:18:18.000Z</time>
      </trkpt>
      <trkpt lat="43.20472" lon="6.65963">
        <ele>83</ele>
        <time>2013-09-16T13:18:19.000Z</time>
      </trkpt>
      <trkpt lat="43.20473" lon="6.65957">
        <ele>83</ele>
        <time>2013-09-16T13:18:20.000Z</time>
      </trkpt>
      <trkpt lat="43.20473" lon="6.65951">
        <ele>83</ele>
        <time>2013-09-16T13:18:21.000Z</time>
      </trkpt>
      <trkpt lat="43.20474" lon="6.65945">
        <ele>83</ele>
        <time>2013-09-16T13:18:22.000Z</time>
      </trkpt>
      <trkpt lat="43.20474" lon="6.65938">
        <ele>82</ele>
        <time>2013-09-16T13:18:23.000Z</time>
      </trkpt>
      <trkpt lat="43.20474" lon="6.65931">
        <ele>82</ele>
        <time>2013-09-16T13:18:24.000Z</time>
      </trkpt>
      <trkpt lat="43.20474" lon="6.65916">
        <ele>80</ele>
        <time>2013-09-16T13:18:26.000Z</time>
      </trkpt>
      <trkpt lat="43.20473" lon="6.65907">
        <ele>80</ele>
        <time>2013-09-16T13:18:27.000Z</time>
      </trkpt>
      <trkpt lat="43.20472" lon="6.65898">
        <ele>80</ele>
        <time>2013-09-16T13:18:28.000Z</time>
      </trkpt>
      <trkpt lat="43.20473" lon="6.65879">
        <ele>80</ele>
        <time>2013-09-16T13:18:30.000Z</time>
      </trkpt>
      <trkpt lat="43.20475" lon="6.6587">
        <ele>79</ele>
        <time>2013-09-16T13:18:31.000Z</time>
      </trkpt>
      <trkpt lat="43.20478" lon="6.65861">
        <ele>79</ele>
        <time>2013-09-16T13:18:32.000Z</time>
      </trkpt>
      <trkpt lat="43.20482" lon="6.65853">
        <ele>78</ele>
        <time>2013-09-16T13:18:33.000Z</time>
      </trkpt>
      <trkpt lat="43.20485" lon="6.65845">
        <ele>77</ele>
        <time>2013-09-16T13:18:34.000Z</time>
      </trkpt>
      <trkpt lat="43.20488" lon="6.65838">
        <ele>76</ele>
        <time>2013-09-16T13:18:35.000Z</time>
      </trkpt>
      <trkpt lat="43.20491" lon="6.65831">
        <ele>73</ele>
        <time>2013-09-16T13:18:36.000Z</time>
      </trkpt>
      <trkpt lat="43.20493" lon="6.65824">
        <ele>73</ele>
        <time>2013-09-16T13:18:37.000Z</time>
      </trkpt>
      <trkpt lat="43.20493" lon="6.65817">
        <ele>73</ele>
        <time>2013-09-16T13:18:38.000Z</time>
      </trkpt>
      <trkpt lat="43.20492" lon="6.6581">
        <ele>73</ele>
        <time>2013-09-16T13:18:39.000Z</time>
      </trkpt>
      <trkpt lat="43.20489" lon="6.65804">
        <ele>73</ele>
        <time>2013-09-16T13:18:40.000Z</time>
      </trkpt>
      <trkpt lat="43.20485" lon="6.65799">
        <ele>73</ele>
        <time>2013-09-16T13:18:41.000Z</time>
      </trkpt>
      <trkpt lat="43.2048" lon="6.65796">
        <ele>73</ele>
        <time>2013-09-16T13:18:42.000Z</time>
      </trkpt>
      <trkpt lat="43.20475" lon="6.65793">
        <ele>73</ele>
        <time>2013-09-16T13:18:43.000Z</time>
      </trkpt>
      <trkpt lat="43.2047" lon="6.65788">
        <ele>73</ele>
        <time>2013-09-16T13:18:44.000Z</time>
      </trkpt>
      <trkpt lat="43.20466" lon="6.65781">
        <ele>73</ele>
        <time>2013-09-16T13:18:45.000Z</time>
      </trkpt>
      <trkpt lat="43.20463" lon="6.65772">
        <ele>73</ele>
        <time>2013-09-16T13:18:46.000Z</time>
      </trkpt>
      <trkpt lat="43.20461" lon="6.65764">
        <ele>73</ele>
        <time>2013-09-16T13:18:47.000Z</time>
      </trkpt>
      <trkpt lat="43.20458" lon="6.65756">
        <ele>73</ele>
        <time>2013-09-16T13:18:48.000Z</time>
      </trkpt>
      <trkpt lat="43.20455" lon="6.65749">
        <ele>70</ele>
        <time>2013-09-16T13:18:49.000Z</time>
      </trkpt>
      <trkpt lat="43.20452" lon="6.65743">
        <ele>70</ele>
        <time>2013-09-16T13:18:50.000Z</time>
      </trkpt>
      <trkpt lat="43.20449" lon="6.65739">
        <ele>71</ele>
        <time>2013-09-16T13:18:51.000Z</time>
      </trkpt>
      <trkpt lat="43.20446" lon="6.65734">
        <ele>71</ele>
        <time>2013-09-16T13:18:52.000Z</time>
      </trkpt>
      <trkpt lat="43.20443" lon="6.65729">
        <ele>71</ele>
        <time>2013-09-16T13:18:53.000Z</time>
      </trkpt>
      <trkpt lat="43.2044" lon="6.65723">
        <ele>71</ele>
        <time>2013-09-16T13:18:54.000Z</time>
      </trkpt>
      <trkpt lat="43.20439" lon="6.65716">
        <ele>71</ele>
        <time>2013-09-16T13:18:55.000Z</time>
      </trkpt>
      <trkpt lat="43.20441" lon="6.65708">
        <ele>71</ele>
        <time>2013-09-16T13:18:56.000Z</time>
      </trkpt>
      <trkpt lat="43.20443" lon="6.65701">
        <ele>70</ele>
        <time>2013-09-16T13:18:57.000Z</time>
      </trkpt>
      <trkpt lat="43.20446" lon="6.65693">
        <ele>70</ele>
        <time>2013-09-16T13:18:58.000Z</time>
      </trkpt>
      <trkpt lat="43.20449" lon="6.65686">
        <ele>70</ele>
        <time>2013-09-16T13:18:59.000Z</time>
      </trkpt>
      <trkpt lat="43.20452" lon="6.65679">
        <ele>69</ele>
        <time>2013-09-16T13:19:00.000Z</time>
      </trkpt>
      <trkpt lat="43.20456" lon="6.65673">
        <ele>68</ele>
        <time>2013-09-16T13:19:01.000Z</time>
      </trkpt>
      <trkpt lat="43.2046" lon="6.65666">
        <ele>68</ele>
        <time>2013-09-16T13:19:02.000Z</time>
      </trkpt>
      <trkpt lat="43.20464" lon="6.65659">
        <ele>67</ele>
        <time>2013-09-16T13:19:03.000Z</time>
      </trkpt>
      <trkpt lat="43.20469" lon="6.65653">
        <ele>67</ele>
        <time>2013-09-16T13:19:04.000Z</time>
      </trkpt>
      <trkpt lat="43.20473" lon="6.65647">
        <ele>66</ele>
        <time>2013-09-16T13:19:05.000Z</time>
      </trkpt>
      <trkpt lat="43.20478" lon="6.65641">
        <ele>66</ele>
        <time>2013-09-16T13:19:06.000Z</time>
      </trkpt>
      <trkpt lat="43.20482" lon="6.65634">
        <ele>66</ele>
        <time>2013-09-16T13:19:07.000Z</time>
      </trkpt>
      <trkpt lat="43.20485" lon="6.65627">
        <ele>66</ele>
        <time>2013-09-16T13:19:08.000Z</time>
      </trkpt>
      <trkpt lat="43.20488" lon="6.65619">
        <ele>66</ele>
        <time>2013-09-16T13:19:09.000Z</time>
      </trkpt>
      <trkpt lat="43.2049" lon="6.6561">
        <ele>66</ele>
        <time>2013-09-16T13:19:10.000Z</time>
      </trkpt>
      <trkpt lat="43.20492" lon="6.65601">
        <ele>65</ele>
        <time>2013-09-16T13:19:11.000Z</time>
      </trkpt>
      <trkpt lat="43.20494" lon="6.65592">
        <ele>64</ele>
        <time>2013-09-16T13:19:12.000Z</time>
      </trkpt>
      <trkpt lat="43.20498" lon="6.65583">
        <ele>62</ele>
        <time>2013-09-16T13:19:13.000Z</time>
      </trkpt>
      <trkpt lat="43.20502" lon="6.65574">
        <ele>57</ele>
        <time>2013-09-16T13:19:14.000Z</time>
      </trkpt>
      <trkpt lat="43.20505" lon="6.65564">
        <ele>55</ele>
        <time>2013-09-16T13:19:15.000Z</time>
      </trkpt>
      <trkpt lat="43.20508" lon="6.65554">
        <ele>54</ele>
        <time>2013-09-16T13:19:16.000Z</time>
      </trkpt>
      <trkpt lat="43.20511" lon="6.65543">
        <ele>54</ele>
        <time>2013-09-16T13:19:17.000Z</time>
      </trkpt>
      <trkpt lat="43.20513" lon="6.65533">
        <ele>54</ele>
        <time>2013-09-16T13:19:18.000Z</time>
      </trkpt>
      <trkpt lat="43.20515" lon="6.65523">
        <ele>55</ele>
        <time>2013-09-16T13:19:19.000Z</time>
      </trkpt>
      <trkpt lat="43.20516" lon="6.65513">
        <ele>56</ele>
        <time>2013-09-16T13:19:20.000Z</time>
      </trkpt>
      <trkpt lat="43.20515" lon="6.65503">
        <ele>57</ele>
        <time>2013-09-16T13:19:21.000Z</time>
      </trkpt>
      <trkpt lat="43.20514" lon="6.65493">
        <ele>58</ele>
        <time>2013-09-16T13:19:22.000Z</time>
      </trkpt>
      <trkpt lat="43.20514" lon="6.65482">
        <ele>57</ele>
        <time>2013-09-16T13:19:23.000Z</time>
      </trkpt>
      <trkpt lat="43.20516" lon="6.65471">
        <ele>56</ele>
        <time>2013-09-16T13:19:24.000Z</time>
      </trkpt>
      <trkpt lat="43.20519" lon="6.65461">
        <ele>55</ele>
        <time>2013-09-16T13:19:25.000Z</time>
      </trkpt>
      <trkpt lat="43.20523" lon="6.6545">
        <ele>55</ele>
        <time>2013-09-16T13:19:26.000Z</time>
      </trkpt>
      <trkpt lat="43.20527" lon="6.6544">
        <ele>55</ele>
        <time>2013-09-16T13:19:27.000Z</time>
      </trkpt>
      <trkpt lat="43.20531" lon="6.6543">
        <ele>54</ele>
        <time>2013-09-16T13:19:28.000Z</time>
      </trkpt>
      <trkpt lat="43.20536" lon="6.65419">
        <ele>53</ele>
        <time>2013-09-16T13:19:29.000Z</time>
      </trkpt>
      <trkpt lat="43.20541" lon="6.65408">
        <ele>53</ele>
        <time>2013-09-16T13:19:30.000Z</time>
      </trkpt>
      <trkpt lat="43.20545" lon="6.65397">
        <ele>52</ele>
        <time>2013-09-16T13:19:31.000Z</time>
      </trkpt>
      <trkpt lat="43.20548" lon="6.65385">
        <ele>51</ele>
        <time>2013-09-16T13:19:32.000Z</time>
      </trkpt>
      <trkpt lat="43.2055" lon="6.65372">
        <ele>51</ele>
        <time>2013-09-16T13:19:33.000Z</time>
      </trkpt>
      <trkpt lat="43.20552" lon="6.6536">
        <ele>51</ele>
        <time>2013-09-16T13:19:34.000Z</time>
      </trkpt>
      <trkpt lat="43.20553" lon="6.65348">
        <ele>50</ele>
        <time>2013-09-16T13:19:35.000Z</time>
      </trkpt>
      <trkpt lat="43.20554" lon="6.65337">
        <ele>50</ele>
        <time>2013-09-16T13:19:36.000Z</time>
      </trkpt>
      <trkpt lat="43.20555" lon="6.65328">
        <ele>48</ele>
        <time>2013-09-16T13:19:37.000Z</time>
      </trkpt>
      <trkpt lat="43.20556" lon="6.65318">
        <ele>47</ele>
        <time>2013-09-16T13:19:38.000Z</time>
      </trkpt>
      <trkpt lat="43.20558" lon="6.6531">
        <ele>47</ele>
        <time>2013-09-16T13:19:39.000Z</time>
      </trkpt>
      <trkpt lat="43.20561" lon="6.653">
        <ele>47</ele>
        <time>2013-09-16T13:19:40.000Z</time>
      </trkpt>
      <trkpt lat="43.20565" lon="6.65291">
        <ele>47</ele>
        <time>2013-09-16T13:19:41.000Z</time>
      </trkpt>
      <trkpt lat="43.20568" lon="6.65282">
        <ele>46</ele>
        <time>2013-09-16T13:19:42.000Z</time>
      </trkpt>
      <trkpt lat="43.2057" lon="6.65273">
        <ele>46</ele>
        <time>2013-09-16T13:19:43.000Z</time>
      </trkpt>
      <trkpt lat="43.20571" lon="6.65263">
        <ele>45</ele>
        <time>2013-09-16T13:19:44.000Z</time>
      </trkpt>
      <trkpt lat="43.20571" lon="6.65253">
        <ele>45</ele>
        <time>2013-09-16T13:19:45.000Z</time>
      </trkpt>
      <trkpt lat="43.20569" lon="6.65243">
        <ele>43</ele>
        <time>2013-09-16T13:19:46.000Z</time>
      </trkpt>
      <trkpt lat="43.20566" lon="6.65232">
        <ele>43</ele>
        <time>2013-09-16T13:19:47.000Z</time>
      </trkpt>
      <trkpt lat="43.20563" lon="6.65222">
        <ele>43</ele>
        <time>2013-09-16T13:19:48.000Z</time>
      </trkpt>
      <trkpt lat="43.2056" lon="6.65211">
        <ele>43</ele>
        <time>2013-09-16T13:19:49.000Z</time>
      </trkpt>
      <trkpt lat="43.20558" lon="6.65201">
        <ele>42</ele>
        <time>2013-09-16T13:19:50.000Z</time>
      </trkpt>
      <trkpt lat="43.20558" lon="6.6519">
        <ele>42</ele>
        <time>2013-09-16T13:19:51.000Z</time>
      </trkpt>
      <trkpt lat="43.20559" lon="6.65179">
        <ele>42</ele>
        <time>2013-09-16T13:19:52.000Z</time>
      </trkpt>
      <trkpt lat="43.20561" lon="6.65167">
        <ele>42</ele>
        <time>2013-09-16T13:19:53.000Z</time>
      </trkpt>
      <trkpt lat="43.20563" lon="6.65156">
        <ele>39</ele>
        <time>2013-09-16T13:19:54.000Z</time>
      </trkpt>
      <trkpt lat="43.20565" lon="6.65146">
        <ele>39</ele>
        <time>2013-09-16T13:19:55.000Z</time>
      </trkpt>
      <trkpt lat="43.20567" lon="6.65135">
        <ele>38</ele>
        <time>2013-09-16T13:19:56.000Z</time>
      </trkpt>
      <trkpt lat="43.20568" lon="6.65126">
        <ele>38</ele>
        <time>2013-09-16T13:19:57.000Z</time>
      </trkpt>
      <trkpt lat="43.2057" lon="6.65117">
        <ele>37</ele>
        <time>2013-09-16T13:19:58.000Z</time>
      </trkpt>
      <trkpt lat="43.20572" lon="6.65109">
        <ele>37</ele>
        <time>2013-09-16T13:19:59.000Z</time>
      </trkpt>
      <trkpt lat="43.20574" lon="6.651">
        <ele>37</ele>
        <time>2013-09-16T13:20:00.000Z</time>
      </trkpt>
      <trkpt lat="43.20576" lon="6.65092">
        <ele>36</ele>
        <time>2013-09-16T13:20:01.000Z</time>
      </trkpt>
      <trkpt lat="43.2058" lon="6.65085">
        <ele>35</ele>
        <time>2013-09-16T13:20:02.000Z</time>
      </trkpt>
      <trkpt lat="43.20584" lon="6.65079">
        <ele>35</ele>
        <time>2013-09-16T13:20:03.000Z</time>
      </trkpt>
      <trkpt lat="43.2059" lon="6.65075">
        <ele>34</ele>
        <time>2013-09-16T13:20:04.000Z</time>
      </trkpt>
      <trkpt lat="43.20595" lon="6.65072">
        <ele>34</ele>
        <time>2013-09-16T13:20:05.000Z</time>
      </trkpt>
      <trkpt lat="43.20601" lon="6.6507">
        <ele>34</ele>
        <time>2013-09-16T13:20:06.000Z</time>
      </trkpt>
      <trkpt lat="43.20606" lon="6.65069">
        <ele>34</ele>
        <time>2013-09-16T13:20:07.000Z</time>
      </trkpt>
      <trkpt lat="43.20612" lon="6.65068">
        <ele>33</ele>
        <time>2013-09-16T13:20:08.000Z</time>
      </trkpt>
      <trkpt lat="43.20617" lon="6.65067">
        <ele>33</ele>
        <time>2013-09-16T13:20:09.000Z</time>
      </trkpt>
      <trkpt lat="43.20622" lon="6.65066">
        <ele>33</ele>
        <time>2013-09-16T13:20:10.000Z</time>
      </trkpt>
      <trkpt lat="43.20628" lon="6.65065">
        <ele>33</ele>
        <time>2013-09-16T13:20:11.000Z</time>
      </trkpt>
      <trkpt lat="43.20633" lon="6.65063">
        <ele>33</ele>
        <time>2013-09-16T13:20:12.000Z</time>
      </trkpt>
      <trkpt lat="43.20639" lon="6.65061">
        <ele>32</ele>
        <time>2013-09-16T13:20:13.000Z</time>
      </trkpt>
      <trkpt lat="43.20645" lon="6.65059">
        <ele>32</ele>
        <time>2013-09-16T13:20:14.000Z</time>
      </trkpt>
      <trkpt lat="43.20651" lon="6.65055">
        <ele>32</ele>
        <time>2013-09-16T13:20:15.000Z</time>
      </trkpt>
      <trkpt lat="43.20657" lon="6.65052">
        <ele>32</ele>
        <time>2013-09-16T13:20:16.000Z</time>
      </trkpt>
      <trkpt lat="43.20662" lon="6.65047">
        <ele>32</ele>
        <time>2013-09-16T13:20:17.000Z</time>
      </trkpt>
      <trkpt lat="43.20667" lon="6.65043">
        <ele>30</ele>
        <time>2013-09-16T13:20:18.000Z</time>
      </trkpt>
      <trkpt lat="43.20672" lon="6.65038">
        <ele>30</ele>
        <time>2013-09-16T13:20:19.000Z</time>
      </trkpt>
      <trkpt lat="43.20678" lon="6.65033">
        <ele>30</ele>
        <time>2013-09-16T13:20:20.000Z</time>
      </trkpt>
      <trkpt lat="43.20683" lon="6.65029">
        <ele>30</ele>
        <time>2013-09-16T13:20:21.000Z</time>
      </trkpt>
      <trkpt lat="43.20689" lon="6.65025">
        <ele>30</ele>
        <time>2013-09-16T13:20:22.000Z</time>
      </trkpt>
      <trkpt lat="43.20695" lon="6.65022">
        <ele>30</ele>
        <time>2013-09-16T13:20:23.000Z</time>
      </trkpt>
      <trkpt lat="43.20701" lon="6.65019">
        <ele>29</ele>
        <time>2013-09-16T13:20:24.000Z</time>
      </trkpt>
      <trkpt lat="43.20708" lon="6.65017">
        <ele>29</ele>
        <time>2013-09-16T13:20:25.000Z</time>
      </trkpt>
      <trkpt lat="43.20714" lon="6.65014">
        <ele>29</ele>
        <time>2013-09-16T13:20:26.000Z</time>
      </trkpt>
      <trkpt lat="43.20721" lon="6.65011">
        <ele>29</ele>
        <time>2013-09-16T13:20:27.000Z</time>
      </trkpt>
      <trkpt lat="43.20727" lon="6.65007">
        <ele>28</ele>
        <time>2013-09-16T13:20:28.000Z</time>
      </trkpt>
      <trkpt lat="43.20734" lon="6.65002">
        <ele>28</ele>
        <time>2013-09-16T13:20:29.000Z</time>
      </trkpt>
      <trkpt lat="43.20739" lon="6.64997">
        <ele>29</ele>
        <time>2013-09-16T13:20:30.000Z</time>
      </trkpt>
      <trkpt lat="43.20743" lon="6.6499">
        <ele>29</ele>
        <time>2013-09-16T13:20:31.000Z</time>
      </trkpt>
      <trkpt lat="43.20746" lon="6.64983">
        <ele>29</ele>
        <time>2013-09-16T13:20:32.000Z</time>
      </trkpt>
      <trkpt lat="43.20747" lon="6.64975">
        <ele>29</ele>
        <time>2013-09-16T13:20:33.000Z</time>
      </trkpt>
      <trkpt lat="43.20746" lon="6.64968">
        <ele>29</ele>
        <time>2013-09-16T13:20:34.000Z</time>
      </trkpt>
      <trkpt lat="43.20744" lon="6.64961">
        <ele>29</ele>
        <time>2013-09-16T13:20:35.000Z</time>
      </trkpt>
      <trkpt lat="43.20741" lon="6.64954">
        <ele>29</ele>
        <time>2013-09-16T13:20:36.000Z</time>
      </trkpt>
      <trkpt lat="43.20738" lon="6.64947">
        <ele>28</ele>
        <time>2013-09-16T13:20:37.000Z</time>
      </trkpt>
      <trkpt lat="43.20735" lon="6.6494">
        <ele>28</ele>
        <time>2013-09-16T13:20:38.000Z</time>
      </trkpt>
      <trkpt lat="43.20732" lon="6.64932">
        <ele>28</ele>
        <time>2013-09-16T13:20:39.000Z</time>
      </trkpt>
      <trkpt lat="43.2073" lon="6.64923">
        <ele>28</ele>
        <time>2013-09-16T13:20:40.000Z</time>
      </trkpt>
      <trkpt lat="43.20728" lon="6.64914">
        <ele>26</ele>
        <time>2013-09-16T13:20:41.000Z</time>
      </trkpt>
      <trkpt lat="43.20726" lon="6.64904">
        <ele>26</ele>
        <time>2013-09-16T13:20:42.000Z</time>
      </trkpt>
      <trkpt lat="43.20724" lon="6.64894">
        <ele>26</ele>
        <time>2013-09-16T13:20:43.000Z</time>
      </trkpt>
      <trkpt lat="43.20723" lon="6.64884">
        <ele>25</ele>
        <time>2013-09-16T13:20:44.000Z</time>
      </trkpt>
      <trkpt lat="43.20721" lon="6.64874">
        <ele>25</ele>
        <time>2013-09-16T13:20:45.000Z</time>
      </trkpt>
      <trkpt lat="43.20719" lon="6.64864">
        <ele>25</ele>
        <time>2013-09-16T13:20:46.000Z</time>
      </trkpt>
      <trkpt lat="43.20717" lon="6.64853">
        <ele>24</ele>
        <time>2013-09-16T13:20:47.000Z</time>
      </trkpt>
      <trkpt lat="43.20716" lon="6.64842">
        <ele>24</ele>
        <time>2013-09-16T13:20:48.000Z</time>
      </trkpt>
      <trkpt lat="43.20714" lon="6.6483">
        <ele>21</ele>
        <time>2013-09-16T13:20:49.000Z</time>
      </trkpt>
      <trkpt lat="43.20712" lon="6.64819">
        <ele>20</ele>
        <time>2013-09-16T13:20:50.000Z</time>
      </trkpt>
      <trkpt lat="43.2071" lon="6.64808">
        <ele>20</ele>
        <time>2013-09-16T13:20:51.000Z</time>
      </trkpt>
      <trkpt lat="43.20708" lon="6.64796">
        <ele>20</ele>
        <time>2013-09-16T13:20:52.000Z</time>
      </trkpt>
      <trkpt lat="43.20707" lon="6.64784">
        <ele>20</ele>
        <time>2013-09-16T13:20:53.000Z</time>
      </trkpt>
      <trkpt lat="43.20706" lon="6.64772">
        <ele>19</ele>
        <time>2013-09-16T13:20:54.000Z</time>
      </trkpt>
      <trkpt lat="43.20705" lon="6.6476">
        <ele>19</ele>
        <time>2013-09-16T13:20:55.000Z</time>
      </trkpt>
      <trkpt lat="43.20706" lon="6.64738">
        <ele>16</ele>
        <time>2013-09-16T13:20:57.000Z</time>
      </trkpt>
      <trkpt lat="43.20708" lon="6.64728">
        <ele>15</ele>
        <time>2013-09-16T13:20:58.000Z</time>
      </trkpt>
      <trkpt lat="43.20712" lon="6.64718">
        <ele>15</ele>
        <time>2013-09-16T13:20:59.000Z</time>
      </trkpt>
      <trkpt lat="43.20717" lon="6.64709">
        <ele>15</ele>
        <time>2013-09-16T13:21:00.000Z</time>
      </trkpt>
      <trkpt lat="43.20723" lon="6.64701">
        <ele>14</ele>
        <time>2013-09-16T13:21:01.000Z</time>
      </trkpt>
      <trkpt lat="43.20728" lon="6.64693">
        <ele>14</ele>
        <time>2013-09-16T13:21:02.000Z</time>
      </trkpt>
      <trkpt lat="43.20734" lon="6.64685">
        <ele>13</ele>
        <time>2013-09-16T13:21:03.000Z</time>
      </trkpt>
      <trkpt lat="43.2074" lon="6.64677">
        <ele>13</ele>
        <time>2013-09-16T13:21:04.000Z</time>
      </trkpt>
      <trkpt lat="43.20745" lon="6.64669">
        <ele>12</ele>
        <time>2013-09-16T13:21:05.000Z</time>
      </trkpt>
      <trkpt lat="43.20751" lon="6.64662">
        <ele>11</ele>
        <time>2013-09-16T13:21:06.000Z</time>
      </trkpt>
      <trkpt lat="43.20756" lon="6.64655">
        <ele>11</ele>
        <time>2013-09-16T13:21:07.000Z</time>
      </trkpt>
      <trkpt lat="43.20761" lon="6.64648">
        <ele>11</ele>
        <time>2013-09-16T13:21:08.000Z</time>
      </trkpt>
      <trkpt lat="43.20766" lon="6.64642">
        <ele>11</ele>
        <time>2013-09-16T13:21:09.000Z</time>
      </trkpt>
      <trkpt lat="43.2077" lon="6.64637">
        <ele>11</ele>
        <time>2013-09-16T13:21:10.000Z</time>
      </trkpt>
      <trkpt lat="43.20775" lon="6.64632">
        <ele>11</ele>
        <time>2013-09-16T13:21:11.000Z</time>
      </trkpt>
      <trkpt lat="43.2078" lon="6.64629">
        <ele>11</ele>
        <time>2013-09-16T13:21:12.000Z</time>
      </trkpt>
      <trkpt lat="43.20786" lon="6.64626">
        <ele>11</ele>
        <time>2013-09-16T13:21:13.000Z</time>
      </trkpt>
      <trkpt lat="43.20792" lon="6.64623">
        <ele>11</ele>
        <time>2013-09-16T13:21:14.000Z</time>
      </trkpt>
      <trkpt lat="43.20797" lon="6.64621">
        <ele>11</ele>
        <time>2013-09-16T13:21:15.000Z</time>
      </trkpt>
      <trkpt lat="43.20803" lon="6.64619">
        <ele>11</ele>
        <time>2013-09-16T13:21:16.000Z</time>
      </trkpt>
      <trkpt lat="43.20809" lon="6.64617">
        <ele>11</ele>
        <time>2013-09-16T13:21:17.000Z</time>
      </trkpt>
      <trkpt lat="43.20815" lon="6.64615">
        <ele>12</ele>
        <time>2013-09-16T13:21:18.000Z</time>
      </trkpt>
      <trkpt lat="43.20821" lon="6.64613">
        <ele>12</ele>
        <time>2013-09-16T13:21:19.000Z</time>
      </trkpt>
      <trkpt lat="43.20826" lon="6.64611">
        <ele>12</ele>
        <time>2013-09-16T13:21:20.000Z</time>
      </trkpt>
      <trkpt lat="43.20832" lon="6.64608">
        <ele>12</ele>
        <time>2013-09-16T13:21:21.000Z</time>
      </trkpt>
      <trkpt lat="43.20837" lon="6.64604">
        <ele>12</ele>
        <time>2013-09-16T13:21:22.000Z</time>
      </trkpt>
      <trkpt lat="43.20841" lon="6.64598">
        <ele>12</ele>
        <time>2013-09-16T13:21:23.000Z</time>
      </trkpt>
      <trkpt lat="43.20843" lon="6.64592">
        <ele>12</ele>
        <time>2013-09-16T13:21:24.000Z</time>
      </trkpt>
      <trkpt lat="43.20845" lon="6.64584">
        <ele>12</ele>
        <time>2013-09-16T13:21:25.000Z</time>
      </trkpt>
      <trkpt lat="43.20844" lon="6.64577">
        <ele>13</ele>
        <time>2013-09-16T13:21:26.000Z</time>
      </trkpt>
      <trkpt lat="43.20843" lon="6.64569">
        <ele>12</ele>
        <time>2013-09-16T13:21:27.000Z</time>
      </trkpt>
      <trkpt lat="43.20842" lon="6.64562">
        <ele>12</ele>
        <time>2013-09-16T13:21:28.000Z</time>
      </trkpt>
      <trkpt lat="43.20841" lon="6.64554">
        <ele>12</ele>
        <time>2013-09-16T13:21:29.000Z</time>
      </trkpt>
      <trkpt lat="43.2084" lon="6.64546">
        <ele>12</ele>
        <time>2013-09-16T13:21:30.000Z</time>
      </trkpt>
      <trkpt lat="43.2084" lon="6.64539">
        <ele>12</ele>
        <time>2013-09-16T13:21:31.000Z</time>
      </trkpt>
      <trkpt lat="43.2084" lon="6.64532">
        <ele>12</ele>
        <time>2013-09-16T13:21:32.000Z</time>
      </trkpt>
      <trkpt lat="43.2084" lon="6.64526">
        <ele>12</ele>
        <time>2013-09-16T13:21:33.000Z</time>
      </trkpt>
      <trkpt lat="43.20841" lon="6.64519">
        <ele>12</ele>
        <time>2013-09-16T13:21:34.000Z</time>
      </trkpt>
      <trkpt lat="43.20841" lon="6.64513">
        <ele>12</ele>
        <time>2013-09-16T13:21:35.000Z</time>
      </trkpt>
      <trkpt lat="43.20843" lon="6.64508">
        <ele>12</ele>
        <time>2013-09-16T13:21:36.000Z</time>
      </trkpt>
      <trkpt lat="43.20845" lon="6.64503">
        <ele>12</ele>
        <time>2013-09-16T13:21:37.000Z</time>
      </trkpt>
      <trkpt lat="43.20848" lon="6.64498">
        <ele>12</ele>
        <time>2013-09-16T13:21:38.000Z</time>
      </trkpt>
      <trkpt lat="43.20851" lon="6.64495">
        <ele>12</ele>
        <time>2013-09-16T13:21:39.000Z</time>
      </trkpt>
      <trkpt lat="43.20855" lon="6.64492">
        <ele>12</ele>
        <time>2013-09-16T13:21:40.000Z</time>
      </trkpt>
      <trkpt lat="43.20858" lon="6.6449">
        <ele>12</ele>
        <time>2013-09-16T13:21:41.000Z</time>
      </trkpt>
      <trkpt lat="43.20861" lon="6.64487">
        <ele>12</ele>
        <time>2013-09-16T13:21:42.000Z</time>
      </trkpt>
      <trkpt lat="43.20864" lon="6.64486">
        <ele>12</ele>
        <time>2013-09-16T13:21:43.000Z</time>
      </trkpt>
      <trkpt lat="43.20867" lon="6.64485">
        <ele>12</ele>
        <time>2013-09-16T13:21:44.000Z</time>
      </trkpt>
      <trkpt lat="43.20869" lon="6.64485">
        <ele>12</ele>
        <time>2013-09-16T13:21:45.000Z</time>
      </trkpt>
      <trkpt lat="43.2087" lon="6.64484">
        <ele>12</ele>
        <time>2013-09-16T13:21:46.000Z</time>
      </trkpt>
      <trkpt lat="43.20872" lon="6.64483">
        <ele>12</ele>
        <time>2013-09-16T13:21:47.000Z</time>
      </trkpt>
      <trkpt lat="43.20873" lon="6.64483">
        <ele>12</ele>
        <time>2013-09-16T13:21:48.000Z</time>
      </trkpt>
      <trkpt lat="43.20873" lon="6.64482">
        <ele>12</ele>
        <time>2013-09-16T13:21:51.000Z</time>
      </trkpt>
      <trkpt lat="43.20874" lon="6.64482">
        <ele>12</ele>
        <time>2013-09-16T13:21:53.000Z</time>
      </trkpt>
      <trkpt lat="43.20876" lon="6.64481">
        <ele>11</ele>
        <time>2013-09-16T13:21:54.000Z</time>
      </trkpt>
      <trkpt lat="43.20878" lon="6.6448">
        <ele>11</ele>
        <time>2013-09-16T13:21:55.000Z</time>
      </trkpt>
      <trkpt lat="43.2088" lon="6.64477">
        <ele>11</ele>
        <time>2013-09-16T13:21:56.000Z</time>
      </trkpt>
      <trkpt lat="43.2088" lon="6.64474">
        <ele>11</ele>
        <time>2013-09-16T13:21:57.000Z</time>
      </trkpt>
      <trkpt lat="43.20881" lon="6.64469">
        <ele>11</ele>
        <time>2013-09-16T13:21:58.000Z</time>
      </trkpt>
      <trkpt lat="43.20882" lon="6.64465">
        <ele>11</ele>
        <time>2013-09-16T13:21:59.000Z</time>
      </trkpt>
      <trkpt lat="43.20883" lon="6.6446">
        <ele>11</ele>
        <time>2013-09-16T13:22:00.000Z</time>
      </trkpt>
      <trkpt lat="43.20884" lon="6.64456">
        <ele>11</ele>
        <time>2013-09-16T13:22:01.000Z</time>
      </trkpt>
      <trkpt lat="43.20886" lon="6.64451">
        <ele>11</ele>
        <time>2013-09-16T13:22:02.000Z</time>
      </trkpt>
      <trkpt lat="43.20887" lon="6.64447">
        <ele>11</ele>
        <time>2013-09-16T13:22:03.000Z</time>
      </trkpt>
      <trkpt lat="43.20888" lon="6.64442">
        <ele>11</ele>
        <time>2013-09-16T13:22:04.000Z</time>
      </trkpt>
      <trkpt lat="43.2089" lon="6.64438">
        <ele>11</ele>
        <time>2013-09-16T13:22:05.000Z</time>
      </trkpt>
      <trkpt lat="43.20891" lon="6.64434">
        <ele>11</ele>
        <time>2013-09-16T13:22:06.000Z</time>
      </trkpt>
      <trkpt lat="43.20892" lon="6.6443">
        <ele>11</ele>
        <time>2013-09-16T13:22:07.000Z</time>
      </trkpt>
      <trkpt lat="43.20893" lon="6.64426">
        <ele>11</ele>
        <time>2013-09-16T13:22:08.000Z</time>
      </trkpt>
      <trkpt lat="43.20895" lon="6.64425">
        <ele>11</ele>
        <time>2013-09-16T13:22:09.000Z</time>
      </trkpt>
      <trkpt lat="43.20896" lon="6.64424">
        <ele>11</ele>
        <time>2013-09-16T13:22:10.000Z</time>
      </trkpt>
      <trkpt lat="43.20898" lon="6.64423">
        <ele>11</ele>
        <time>2013-09-16T13:22:11.000Z</time>
      </trkpt>
      <trkpt lat="43.20898" lon="6.64423">
        <ele>11</ele>
        <time>2013-09-16T13:22:12.000Z</time>
      </trkpt>
      <trkpt lat="43.20898" lon="6.64422">
        <ele>11</ele>
        <time>2013-09-16T13:22:13.000Z</time>
      </trkpt>
      <trkpt lat="43.20899" lon="6.64422">
        <ele>11</ele>
        <time>2013-09-16T13:22:16.000Z</time>
      </trkpt>
      <trkpt lat="43.20899" lon="6.64422">
        <ele>11</ele>
        <time>2013-09-16T13:22:24.000Z</time>
      </trkpt>
      <trkpt lat="43.20899" lon="6.64422">
        <ele>11</ele>
        <time>2013-09-16T13:22:27.000Z</time>
      </trkpt>
      <trkpt lat="43.20899" lon="6.64421">
        <ele>11</ele>
        <time>2013-09-16T13:22:36.000Z</time>
      </trkpt>
      <trkpt lat="43.209" lon="6.64421">
        <ele>11</ele>
        <time>2013-09-16T13:22:45.000Z</time>
      </trkpt>
      <trkpt lat="43.209" lon="6.64421">
        <ele>11</ele>
        <time>2013-09-16T13:22:51.000Z</time>
      </trkpt>
      <trkpt lat="43.209" lon="6.64421">
        <ele>11</ele>
        <time>2013-09-16T13:22:54.000Z</time>
      </trkpt>
      <trkpt lat="43.209" lon="6.64421">
        <ele>11</ele>
        <time>2013-09-16T13:22:55.000Z</time>
      </trkpt>
      <trkpt lat="43.209" lon="6.6442">
        <ele>11</ele>
        <time>2013-09-16T13:22:58.000Z</time>
      </trkpt>
      <trkpt lat="43.209" lon="6.6442">
        <ele>11</ele>
        <time>2013-09-16T13:23:02.000Z</time>
      </trkpt>
      <trkpt lat="43.20901" lon="6.6442">
        <ele>11</ele>
        <time>2013-09-16T13:23:07.000Z</time>
      </trkpt>
      <trkpt lat="43.209" lon="6.64419">
        <ele>11</ele>
        <time>2013-09-16T13:23:10.000Z</time>
      </trkpt>
      <trkpt lat="43.209" lon="6.64418">
        <ele>11</ele>
        <time>2013-09-16T13:23:11.000Z</time>
      </trkpt>
      <trkpt lat="43.209" lon="6.64417">
        <ele>11</ele>
        <time>2013-09-16T13:23:12.000Z</time>
      </trkpt>
      <trkpt lat="43.20899" lon="6.64415">
        <ele>11</ele>
        <time>2013-09-16T13:23:13.000Z</time>
      </trkpt>
      <trkpt lat="43.20899" lon="6.64413">
        <ele>11</ele>
        <time>2013-09-16T13:23:14.000Z</time>
      </trkpt>
      <trkpt lat="43.20899" lon="6.64407">
        <ele>11</ele>
        <time>2013-09-16T13:23:16.000Z</time>
      </trkpt>
      <trkpt lat="43.209" lon="6.64403">
        <ele>11</ele>
        <time>2013-09-16T13:23:17.000Z</time>
      </trkpt>
      <trkpt lat="43.209" lon="6.644">
        <ele>11</ele>
        <time>2013-09-16T13:23:18.000Z</time>
      </trkpt>
      <trkpt lat="43.20901" lon="6.64396">
        <ele>11</ele>
        <time>2013-09-16T13:23:19.000Z</time>
      </trkpt>
      <trkpt lat="43.20901" lon="6.64392">
        <ele>11</ele>
        <time>2013-09-16T13:23:20.000Z</time>
      </trkpt>
      <trkpt lat="43.20902" lon="6.64388">
        <ele>11</ele>
        <time>2013-09-16T13:23:21.000Z</time>
      </trkpt>
      <trkpt lat="43.20902" lon="6.64384">
        <ele>11</ele>
        <time>2013-09-16T13:23:22.000Z</time>
      </trkpt>
      <trkpt lat="43.20902" lon="6.64379">
        <ele>11</ele>
        <time>2013-09-16T13:23:23.000Z</time>
      </trkpt>
      <trkpt lat="43.20903" lon="6.64374">
        <ele>11</ele>
        <time>2013-09-16T13:23:24.000Z</time>
      </trkpt>
      <trkpt lat="43.20903" lon="6.64369">
        <ele>11</ele>
        <time>2013-09-16T13:23:25.000Z</time>
      </trkpt>
      <trkpt lat="43.20903" lon="6.64363">
        <ele>11</ele>
        <time>2013-09-16T13:23:26.000Z</time>
      </trkpt>
      <trkpt lat="43.20904" lon="6.64358">
        <ele>11</ele>
        <time>2013-09-16T13:23:27.000Z</time>
      </trkpt>
      <trkpt lat="43.20904" lon="6.64352">
        <ele>11</ele>
        <time>2013-09-16T13:23:28.000Z</time>
      </trkpt>
      <trkpt lat="43.20904" lon="6.64326">
        <ele>11</ele>
        <time>2013-09-16T13:23:33.000Z</time>
      </trkpt>
      <trkpt lat="43.20903" lon="6.64321">
        <ele>11</ele>
        <time>2013-09-16T13:23:34.000Z</time>
      </trkpt>
      <trkpt lat="43.20903" lon="6.64316">
        <ele>11</ele>
        <time>2013-09-16T13:23:35.000Z</time>
      </trkpt>
      <trkpt lat="43.20902" lon="6.6431">
        <ele>11</ele>
        <time>2013-09-16T13:23:36.000Z</time>
      </trkpt>
      <trkpt lat="43.20902" lon="6.64304">
        <ele>11</ele>
        <time>2013-09-16T13:23:37.000Z</time>
      </trkpt>
      <trkpt lat="43.20902" lon="6.64299">
        <ele>11</ele>
        <time>2013-09-16T13:23:38.000Z</time>
      </trkpt>
      <trkpt lat="43.20901" lon="6.64293">
        <ele>11</ele>
        <time>2013-09-16T13:23:39.000Z</time>
      </trkpt>
      <trkpt lat="43.209" lon="6.64287">
        <ele>12</ele>
        <time>2013-09-16T13:23:40.000Z</time>
      </trkpt>
      <trkpt lat="43.209" lon="6.64281">
        <ele>12</ele>
        <time>2013-09-16T13:23:41.000Z</time>
      </trkpt>
      <trkpt lat="43.20899" lon="6.64275">
        <ele>12</ele>
        <time>2013-09-16T13:23:42.000Z</time>
      </trkpt>
      <trkpt lat="43.20898" lon="6.6427">
        <ele>12</ele>
        <time>2013-09-16T13:23:43.000Z</time>
      </trkpt>
      <trkpt lat="43.20897" lon="6.64264">
        <ele>12</ele>
        <time>2013-09-16T13:23:44.000Z</time>
      </trkpt>
      <trkpt lat="43.20896" lon="6.64258">
        <ele>12</ele>
        <time>2013-09-16T13:23:45.000Z</time>
      </trkpt>
      <trkpt lat="43.20895" lon="6.64252">
        <ele>12</ele>
        <time>2013-09-16T13:23:46.000Z</time>
      </trkpt>
      <trkpt lat="43.20894" lon="6.64247">
        <ele>12</ele>
        <time>2013-09-16T13:23:47.000Z</time>
      </trkpt>
      <trkpt lat="43.20893" lon="6.64241">
        <ele>12</ele>
        <time>2013-09-16T13:23:48.000Z</time>
      </trkpt>
      <trkpt lat="43.20893" lon="6.64236">
        <ele>12</ele>
        <time>2013-09-16T13:23:49.000Z</time>
      </trkpt>
      <trkpt lat="43.20892" lon="6.6423">
        <ele>12</ele>
        <time>2013-09-16T13:23:50.000Z</time>
      </trkpt>
      <trkpt lat="43.20892" lon="6.64225">
        <ele>12</ele>
        <time>2013-09-16T13:23:51.000Z</time>
      </trkpt>
      <trkpt lat="43.20891" lon="6.64219">
        <ele>12</ele>
        <time>2013-09-16T13:23:52.000Z</time>
      </trkpt>
      <trkpt lat="43.20891" lon="6.64214">
        <ele>12</ele>
        <time>2013-09-16T13:23:53.000Z</time>
      </trkpt>
      <trkpt lat="43.2089" lon="6.64208">
        <ele>12</ele>
        <time>2013-09-16T13:23:54.000Z</time>
      </trkpt>
      <trkpt lat="43.2089" lon="6.64202">
        <ele>12</ele>
        <time>2013-09-16T13:23:55.000Z</time>
      </trkpt>
      <trkpt lat="43.2089" lon="6.64191">
        <ele>12</ele>
        <time>2013-09-16T13:23:57.000Z</time>
      </trkpt>
      <trkpt lat="43.2089" lon="6.64186">
        <ele>12</ele>
        <time>2013-09-16T13:23:58.000Z</time>
      </trkpt>
      <trkpt lat="43.2089" lon="6.6418">
        <ele>12</ele>
        <time>2013-09-16T13:23:59.000Z</time>
      </trkpt>
      <trkpt lat="43.20891" lon="6.64174">
        <ele>12</ele>
        <time>2013-09-16T13:24:00.000Z</time>
      </trkpt>
      <trkpt lat="43.20891" lon="6.64169">
        <ele>12</ele>
        <time>2013-09-16T13:24:01.000Z</time>
      </trkpt>
      <trkpt lat="43.20891" lon="6.64163">
        <ele>13</ele>
        <time>2013-09-16T13:24:02.000Z</time>
      </trkpt>
      <trkpt lat="43.20891" lon="6.64157">
        <ele>13</ele>
        <time>2013-09-16T13:24:03.000Z</time>
      </trkpt>
      <trkpt lat="43.20892" lon="6.64151">
        <ele>13</ele>
        <time>2013-09-16T13:24:04.000Z</time>
      </trkpt>
      <trkpt lat="43.20892" lon="6.64145">
        <ele>13</ele>
        <time>2013-09-16T13:24:05.000Z</time>
      </trkpt>
      <trkpt lat="43.20892" lon="6.64139">
        <ele>13</ele>
        <time>2013-09-16T13:24:06.000Z</time>
      </trkpt>
      <trkpt lat="43.20893" lon="6.64133">
        <ele>13</ele>
        <time>2013-09-16T13:24:07.000Z</time>
      </trkpt>
      <trkpt lat="43.20893" lon="6.64128">
        <ele>14</ele>
        <time>2013-09-16T13:24:08.000Z</time>
      </trkpt>
      <trkpt lat="43.20893" lon="6.64122">
        <ele>14</ele>
        <time>2013-09-16T13:24:09.000Z</time>
      </trkpt>
      <trkpt lat="43.20894" lon="6.64116">
        <ele>14</ele>
        <time>2013-09-16T13:24:10.000Z</time>
      </trkpt>
      <trkpt lat="43.20894" lon="6.6411">
        <ele>14</ele>
        <time>2013-09-16T13:24:11.000Z</time>
      </trkpt>
      <trkpt lat="43.20894" lon="6.64105">
        <ele>14</ele>
        <time>2013-09-16T13:24:12.000Z</time>
      </trkpt>
      <trkpt lat="43.20895" lon="6.64099">
        <ele>14</ele>
        <time>2013-09-16T13:24:13.000Z</time>
      </trkpt>
      <trkpt lat="43.20895" lon="6.64093">
        <ele>14</ele>
        <time>2013-09-16T13:24:14.000Z</time>
      </trkpt>
      <trkpt lat="43.20895" lon="6.64087">
        <ele>14</ele>
        <time>2013-09-16T13:24:15.000Z</time>
      </trkpt>
      <trkpt lat="43.20896" lon="6.64082">
        <ele>15</ele>
        <time>2013-09-16T13:24:16.000Z</time>
      </trkpt>
      <trkpt lat="43.20897" lon="6.64076">
        <ele>15</ele>
        <time>2013-09-16T13:24:17.000Z</time>
      </trkpt>
      <trkpt lat="43.20897" lon="6.6407">
        <ele>15</ele>
        <time>2013-09-16T13:24:18.000Z</time>
      </trkpt>
      <trkpt lat="43.20898" lon="6.64064">
        <ele>15</ele>
        <time>2013-09-16T13:24:19.000Z</time>
      </trkpt>
      <trkpt lat="43.20898" lon="6.64059">
        <ele>15</ele>
        <time>2013-09-16T13:24:20.000Z</time>
      </trkpt>
      <trkpt lat="43.20899" lon="6.64053">
        <ele>15</ele>
        <time>2013-09-16T13:24:21.000Z</time>
      </trkpt>
      <trkpt lat="43.20899" lon="6.64048">
        <ele>15</ele>
        <time>2013-09-16T13:24:22.000Z</time>
      </trkpt>
      <trkpt lat="43.209" lon="6.64042">
        <ele>15</ele>
        <time>2013-09-16T13:24:23.000Z</time>
      </trkpt>
      <trkpt lat="43.20901" lon="6.64037">
        <ele>15</ele>
        <time>2013-09-16T13:24:24.000Z</time>
      </trkpt>
      <trkpt lat="43.20902" lon="6.64031">
        <ele>15</ele>
        <time>2013-09-16T13:24:25.000Z</time>
      </trkpt>
      <trkpt lat="43.20903" lon="6.64025">
        <ele>15</ele>
        <time>2013-09-16T13:24:26.000Z</time>
      </trkpt>
      <trkpt lat="43.20905" lon="6.6402">
        <ele>15</ele>
        <time>2013-09-16T13:24:27.000Z</time>
      </trkpt>
      <trkpt lat="43.20906" lon="6.64014">
        <ele>15</ele>
        <time>2013-09-16T13:24:28.000Z</time>
      </trkpt>
      <trkpt lat="43.20908" lon="6.64009">
        <ele>15</ele>
        <time>2013-09-16T13:24:29.000Z</time>
      </trkpt>
      <trkpt lat="43.20909" lon="6.64003">
        <ele>16</ele>
        <time>2013-09-16T13:24:30.000Z</time>
      </trkpt>
      <trkpt lat="43.20911" lon="6.63998">
        <ele>16</ele>
        <time>2013-09-16T13:24:31.000Z</time>
      </trkpt>
      <trkpt lat="43.20913" lon="6.63993">
        <ele>16</ele>
        <time>2013-09-16T13:24:32.000Z</time>
      </trkpt>
      <trkpt lat="43.20915" lon="6.63988">
        <ele>16</ele>
        <time>2013-09-16T13:24:33.000Z</time>
      </trkpt>
      <trkpt lat="43.20917" lon="6.63983">
        <ele>16</ele>
        <time>2013-09-16T13:24:34.000Z</time>
      </trkpt>
      <trkpt lat="43.20919" lon="6.63978">
        <ele>16</ele>
        <time>2013-09-16T13:24:35.000Z</time>
      </trkpt>
      <trkpt lat="43.20921" lon="6.63974">
        <ele>15</ele>
        <time>2013-09-16T13:24:36.000Z</time>
      </trkpt>
      <trkpt lat="43.20923" lon="6.63969">
        <ele>15</ele>
        <time>2013-09-16T13:24:37.000Z</time>
      </trkpt>
      <trkpt lat="43.20926" lon="6.63964">
        <ele>15</ele>
        <time>2013-09-16T13:24:38.000Z</time>
      </trkpt>
      <trkpt lat="43.20928" lon="6.6396">
        <ele>15</ele>
        <time>2013-09-16T13:24:39.000Z</time>
      </trkpt>
      <trkpt lat="43.2093" lon="6.63955">
        <ele>15</ele>
        <time>2013-09-16T13:24:40.000Z</time>
      </trkpt>
      <trkpt lat="43.20933" lon="6.63951">
        <ele>15</ele>
        <time>2013-09-16T13:24:41.000Z</time>
      </trkpt>
      <trkpt lat="43.20935" lon="6.63947">
        <ele>15</ele>
        <time>2013-09-16T13:24:42.000Z</time>
      </trkpt>
      <trkpt lat="43.20937" lon="6.63942">
        <ele>15</ele>
        <time>2013-09-16T13:24:43.000Z</time>
      </trkpt>
      <trkpt lat="43.2094" lon="6.63938">
        <ele>15</ele>
        <time>2013-09-16T13:24:44.000Z</time>
      </trkpt>
      <trkpt lat="43.20942" lon="6.63934">
        <ele>15</ele>
        <time>2013-09-16T13:24:45.000Z</time>
      </trkpt>
      <trkpt lat="43.20944" lon="6.6393">
        <ele>15</ele>
        <time>2013-09-16T13:24:46.000Z</time>
      </trkpt>
      <trkpt lat="43.20946" lon="6.63925">
        <ele>15</ele>
        <time>2013-09-16T13:24:47.000Z</time>
      </trkpt>
      <trkpt lat="43.20949" lon="6.63921">
        <ele>15</ele>
        <time>2013-09-16T13:24:48.000Z</time>
      </trkpt>
      <trkpt lat="43.20951" lon="6.63916">
        <ele>15</ele>
        <time>2013-09-16T13:24:49.000Z</time>
      </trkpt>
      <trkpt lat="43.20954" lon="6.63912">
        <ele>15</ele>
        <time>2013-09-16T13:24:50.000Z</time>
      </trkpt>
      <trkpt lat="43.20957" lon="6.63907">
        <ele>15</ele>
        <time>2013-09-16T13:24:51.000Z</time>
      </trkpt>
      <trkpt lat="43.20959" lon="6.63903">
        <ele>15</ele>
        <time>2013-09-16T13:24:52.000Z</time>
      </trkpt>
      <trkpt lat="43.20962" lon="6.63899">
        <ele>15</ele>
        <time>2013-09-16T13:24:53.000Z</time>
      </trkpt>
      <trkpt lat="43.20964" lon="6.63894">
        <ele>15</ele>
        <time>2013-09-16T13:24:54.000Z</time>
      </trkpt>
      <trkpt lat="43.20967" lon="6.6389">
        <ele>15</ele>
        <time>2013-09-16T13:24:55.000Z</time>
      </trkpt>
      <trkpt lat="43.2097" lon="6.63886">
        <ele>15</ele>
        <time>2013-09-16T13:24:56.000Z</time>
      </trkpt>
      <trkpt lat="43.20972" lon="6.63882">
        <ele>15</ele>
        <time>2013-09-16T13:24:57.000Z</time>
      </trkpt>
      <trkpt lat="43.20975" lon="6.63878">
        <ele>15</ele>
        <time>2013-09-16T13:24:58.000Z</time>
      </trkpt>
      <trkpt lat="43.20978" lon="6.63874">
        <ele>15</ele>
        <time>2013-09-16T13:24:59.000Z</time>
      </trkpt>
      <trkpt lat="43.2098" lon="6.63871">
        <ele>15</ele>
        <time>2013-09-16T13:25:00.000Z</time>
      </trkpt>
      <trkpt lat="43.20982" lon="6.63867">
        <ele>15</ele>
        <time>2013-09-16T13:25:01.000Z</time>
      </trkpt>
      <trkpt lat="43.20985" lon="6.63864">
        <ele>15</ele>
        <time>2013-09-16T13:25:02.000Z</time>
      </trkpt>
      <trkpt lat="43.20987" lon="6.6386">
        <ele>15</ele>
        <time>2013-09-16T13:25:03.000Z</time>
      </trkpt>
      <trkpt lat="43.2099" lon="6.63857">
        <ele>15</ele>
        <time>2013-09-16T13:25:04.000Z</time>
      </trkpt>
      <trkpt lat="43.20992" lon="6.63854">
        <ele>16</ele>
        <time>2013-09-16T13:25:05.000Z</time>
      </trkpt>
      <trkpt lat="43.20995" lon="6.6385">
        <ele>16</ele>
        <time>2013-09-16T13:25:06.000Z</time>
      </trkpt>
      <trkpt lat="43.20997" lon="6.63847">
        <ele>16</ele>
        <time>2013-09-16T13:25:07.000Z</time>
      </trkpt>
      <trkpt lat="43.20999" lon="6.63844">
        <ele>16</ele>
        <time>2013-09-16T13:25:08.000Z</time>
      </trkpt>
      <trkpt lat="43.21002" lon="6.63841">
        <ele>16</ele>
        <time>2013-09-16T13:25:09.000Z</time>
      </trkpt>
      <trkpt lat="43.21004" lon="6.63838">
        <ele>16</ele>
        <time>2013-09-16T13:25:10.000Z</time>
      </trkpt>
      <trkpt lat="43.21006" lon="6.63834">
        <ele>16</ele>
        <time>2013-09-16T13:25:11.000Z</time>
      </trkpt>
      <trkpt lat="43.21009" lon="6.63831">
        <ele>17</ele>
        <time>2013-09-16T13:25:12.000Z</time>
      </trkpt>
      <trkpt lat="43.21011" lon="6.63828">
        <ele>17</ele>
        <time>2013-09-16T13:25:13.000Z</time>
      </trkpt>
      <trkpt lat="43.21014" lon="6.63825">
        <ele>17</ele>
        <time>2013-09-16T13:25:14.000Z</time>
      </trkpt>
      <trkpt lat="43.21016" lon="6.63822">
        <ele>17</ele>
        <time>2013-09-16T13:25:15.000Z</time>
      </trkpt>
      <trkpt lat="43.21019" lon="6.63819">
        <ele>17</ele>
        <time>2013-09-16T13:25:16.000Z</time>
      </trkpt>
      <trkpt lat="43.21021" lon="6.63816">
        <ele>17</ele>
        <time>2013-09-16T13:25:17.000Z</time>
      </trkpt>
      <trkpt lat="43.21023" lon="6.63813">
        <ele>18</ele>
        <time>2013-09-16T13:25:18.000Z</time>
      </trkpt>
      <trkpt lat="43.21025" lon="6.63811">
        <ele>18</ele>
        <time>2013-09-16T13:25:19.000Z</time>
      </trkpt>
      <trkpt lat="43.21028" lon="6.63809">
        <ele>18</ele>
        <time>2013-09-16T13:25:20.000Z</time>
      </trkpt>
      <trkpt lat="43.21031" lon="6.63807">
        <ele>18</ele>
        <time>2013-09-16T13:25:21.000Z</time>
      </trkpt>
      <trkpt lat="43.21034" lon="6.63805">
        <ele>18</ele>
        <time>2013-09-16T13:25:22.000Z</time>
      </trkpt>
      <trkpt lat="43.21036" lon="6.63802">
        <ele>18</ele>
        <time>2013-09-16T13:25:23.000Z</time>
      </trkpt>
      <trkpt lat="43.21039" lon="6.638">
        <ele>18</ele>
        <time>2013-09-16T13:25:24.000Z</time>
      </trkpt>
      <trkpt lat="43.21041" lon="6.63798">
        <ele>18</ele>
        <time>2013-09-16T13:25:25.000Z</time>
      </trkpt>
      <trkpt lat="43.21044" lon="6.63796">
        <ele>18</ele>
        <time>2013-09-16T13:25:26.000Z</time>
      </trkpt>
      <trkpt lat="43.21047" lon="6.63794">
        <ele>18</ele>
        <time>2013-09-16T13:25:27.000Z</time>
      </trkpt>
      <trkpt lat="43.21049" lon="6.63791">
        <ele>18</ele>
        <time>2013-09-16T13:25:28.000Z</time>
      </trkpt>
      <trkpt lat="43.21052" lon="6.63789">
        <ele>18</ele>
        <time>2013-09-16T13:25:29.000Z</time>
      </trkpt>
      <trkpt lat="43.21054" lon="6.63787">
        <ele>19</ele>
        <time>2013-09-16T13:25:30.000Z</time>
      </trkpt>
      <trkpt lat="43.21057" lon="6.63784">
        <ele>19</ele>
        <time>2013-09-16T13:25:31.000Z</time>
      </trkpt>
      <trkpt lat="43.2106" lon="6.63782">
        <ele>19</ele>
        <time>2013-09-16T13:25:32.000Z</time>
      </trkpt>
      <trkpt lat="43.21062" lon="6.6378">
        <ele>19</ele>
        <time>2013-09-16T13:25:33.000Z</time>
      </trkpt>
      <trkpt lat="43.21065" lon="6.63778">
        <ele>19</ele>
        <time>2013-09-16T13:25:34.000Z</time>
      </trkpt>
      <trkpt lat="43.21067" lon="6.63776">
        <ele>19</ele>
        <time>2013-09-16T13:25:35.000Z</time>
      </trkpt>
      <trkpt lat="43.21069" lon="6.63774">
        <ele>19</ele>
        <time>2013-09-16T13:25:36.000Z</time>
      </trkpt>
      <trkpt lat="43.21072" lon="6.63771">
        <ele>19</ele>
        <time>2013-09-16T13:25:37.000Z</time>
      </trkpt>
      <trkpt lat="43.21074" lon="6.63769">
        <ele>19</ele>
        <time>2013-09-16T13:25:38.000Z</time>
      </trkpt>
      <trkpt lat="43.21077" lon="6.63767">
        <ele>20</ele>
        <time>2013-09-16T13:25:39.000Z</time>
      </trkpt>
      <trkpt lat="43.21079" lon="6.63765">
        <ele>20</ele>
        <time>2013-09-16T13:25:40.000Z</time>
      </trkpt>
      <trkpt lat="43.21081" lon="6.63763">
        <ele>20</ele>
        <time>2013-09-16T13:25:41.000Z</time>
      </trkpt>
      <trkpt lat="43.21084" lon="6.6376">
        <ele>22</ele>
        <time>2013-09-16T13:25:42.000Z</time>
      </trkpt>
      <trkpt lat="43.21086" lon="6.63758">
        <ele>22</ele>
        <time>2013-09-16T13:25:43.000Z</time>
      </trkpt>
      <trkpt lat="43.21089" lon="6.63756">
        <ele>22</ele>
        <time>2013-09-16T13:25:44.000Z</time>
      </trkpt>
      <trkpt lat="43.21091" lon="6.63753">
        <ele>22</ele>
        <time>2013-09-16T13:25:45.000Z</time>
      </trkpt>
      <trkpt lat="43.21094" lon="6.63751">
        <ele>22</ele>
        <time>2013-09-16T13:25:46.000Z</time>
      </trkpt>
      <trkpt lat="43.21096" lon="6.63748">
        <ele>23</ele>
        <time>2013-09-16T13:25:47.000Z</time>
      </trkpt>
      <trkpt lat="43.21098" lon="6.63746">
        <ele>24</ele>
        <time>2013-09-16T13:25:48.000Z</time>
      </trkpt>
      <trkpt lat="43.211" lon="6.63743">
        <ele>24</ele>
        <time>2013-09-16T13:25:49.000Z</time>
      </trkpt>
      <trkpt lat="43.21102" lon="6.6374">
        <ele>25</ele>
        <time>2013-09-16T13:25:50.000Z</time>
      </trkpt>
      <trkpt lat="43.21104" lon="6.63738">
        <ele>25</ele>
        <time>2013-09-16T13:25:51.000Z</time>
      </trkpt>
      <trkpt lat="43.21105" lon="6.63736">
        <ele>25</ele>
        <time>2013-09-16T13:25:52.000Z</time>
      </trkpt>
      <trkpt lat="43.21107" lon="6.63734">
        <ele>25</ele>
        <time>2013-09-16T13:25:53.000Z</time>
      </trkpt>
      <trkpt lat="43.21109" lon="6.63732">
        <ele>26</ele>
        <time>2013-09-16T13:25:54.000Z</time>
      </trkpt>
      <trkpt lat="43.21111" lon="6.6373">
        <ele>26</ele>
        <time>2013-09-16T13:25:55.000Z</time>
      </trkpt>
      <trkpt lat="43.21113" lon="6.63728">
        <ele>26</ele>
        <time>2013-09-16T13:25:56.000Z</time>
      </trkpt>
      <trkpt lat="43.21114" lon="6.63726">
        <ele>26</ele>
        <time>2013-09-16T13:25:57.000Z</time>
      </trkpt>
      <trkpt lat="43.21116" lon="6.63724">
        <ele>26</ele>
        <time>2013-09-16T13:25:58.000Z</time>
      </trkpt>
      <trkpt lat="43.21118" lon="6.63723">
        <ele>27</ele>
        <time>2013-09-16T13:25:59.000Z</time>
      </trkpt>
      <trkpt lat="43.2112" lon="6.63722">
        <ele>27</ele>
        <time>2013-09-16T13:26:00.000Z</time>
      </trkpt>
      <trkpt lat="43.21122" lon="6.63721">
        <ele>27</ele>
        <time>2013-09-16T13:26:01.000Z</time>
      </trkpt>
      <trkpt lat="43.21124" lon="6.63721">
        <ele>27</ele>
        <time>2013-09-16T13:26:02.000Z</time>
      </trkpt>
      <trkpt lat="43.21128" lon="6.63721">
        <ele>27</ele>
        <time>2013-09-16T13:26:04.000Z</time>
      </trkpt>
      <trkpt lat="43.2113" lon="6.63721">
        <ele>27</ele>
        <time>2013-09-16T13:26:05.000Z</time>
      </trkpt>
      <trkpt lat="43.21132" lon="6.63721">
        <ele>27</ele>
        <time>2013-09-16T13:26:06.000Z</time>
      </trkpt>
      <trkpt lat="43.21133" lon="6.63721">
        <ele>27</ele>
        <time>2013-09-16T13:26:07.000Z</time>
      </trkpt>
      <trkpt lat="43.21135" lon="6.63721">
        <ele>28</ele>
        <time>2013-09-16T13:26:08.000Z</time>
      </trkpt>
      <trkpt lat="43.21138" lon="6.63721">
        <ele>28</ele>
        <time>2013-09-16T13:26:10.000Z</time>
      </trkpt>
      <trkpt lat="43.2114" lon="6.63721">
        <ele>28</ele>
        <time>2013-09-16T13:26:11.000Z</time>
      </trkpt>
      <trkpt lat="43.21141" lon="6.63722">
        <ele>28</ele>
        <time>2013-09-16T13:26:12.000Z</time>
      </trkpt>
      <trkpt lat="43.21142" lon="6.63722">
        <ele>28</ele>
        <time>2013-09-16T13:26:14.000Z</time>
      </trkpt>
      <trkpt lat="43.21143" lon="6.63722">
        <ele>28</ele>
        <time>2013-09-16T13:26:17.000Z</time>
      </trkpt>
      <trkpt lat="43.21143" lon="6.63722">
        <ele>28</ele>
        <time>2013-09-16T13:26:18.000Z</time>
      </trkpt>
      <trkpt lat="43.21145" lon="6.63723">
        <ele>28</ele>
        <time>2013-09-16T13:26:19.000Z</time>
      </trkpt>
      <trkpt lat="43.21146" lon="6.63724">
        <ele>28</ele>
        <time>2013-09-16T13:26:20.000Z</time>
      </trkpt>
      <trkpt lat="43.2115" lon="6.63723">
        <ele>28</ele>
        <time>2013-09-16T13:26:22.000Z</time>
      </trkpt>
      <trkpt lat="43.21152" lon="6.63721">
        <ele>28</ele>
        <time>2013-09-16T13:26:23.000Z</time>
      </trkpt>
      <trkpt lat="43.21154" lon="6.63719">
        <ele>28</ele>
        <time>2013-09-16T13:26:24.000Z</time>
      </trkpt>
      <trkpt lat="43.21155" lon="6.63716">
        <ele>28</ele>
        <time>2013-09-16T13:26:25.000Z</time>
      </trkpt>
      <trkpt lat="43.21156" lon="6.63713">
        <ele>29</ele>
        <time>2013-09-16T13:26:26.000Z</time>
      </trkpt>
      <trkpt lat="43.21157" lon="6.6371">
        <ele>29</ele>
        <time>2013-09-16T13:26:27.000Z</time>
      </trkpt>
      <trkpt lat="43.21157" lon="6.63707">
        <ele>29</ele>
        <time>2013-09-16T13:26:28.000Z</time>
      </trkpt>
      <trkpt lat="43.21157" lon="6.63704">
        <ele>29</ele>
        <time>2013-09-16T13:26:29.000Z</time>
      </trkpt>
      <trkpt lat="43.21158" lon="6.63702">
        <ele>29</ele>
        <time>2013-09-16T13:26:30.000Z</time>
      </trkpt>
      <trkpt lat="43.21159" lon="6.637">
        <ele>29</ele>
        <time>2013-09-16T13:26:31.000Z</time>
      </trkpt>
      <trkpt lat="43.21159" lon="6.63698">
        <ele>29</ele>
        <time>2013-09-16T13:26:32.000Z</time>
      </trkpt>
      <trkpt lat="43.21159" lon="6.63694">
        <ele>29</ele>
        <time>2013-09-16T13:26:34.000Z</time>
      </trkpt>
      <trkpt lat="43.21159" lon="6.63691">
        <ele>30</ele>
        <time>2013-09-16T13:26:35.000Z</time>
      </trkpt>
      <trkpt lat="43.21159" lon="6.63685">
        <ele>30</ele>
        <time>2013-09-16T13:26:37.000Z</time>
      </trkpt>
      <trkpt lat="43.21159" lon="6.63682">
        <ele>30</ele>
        <time>2013-09-16T13:26:38.000Z</time>
      </trkpt>
      <trkpt lat="43.2116" lon="6.63679">
        <ele>31</ele>
        <time>2013-09-16T13:26:39.000Z</time>
      </trkpt>
      <trkpt lat="43.2116" lon="6.63676">
        <ele>31</ele>
        <time>2013-09-16T13:26:40.000Z</time>
      </trkpt>
      <trkpt lat="43.2116" lon="6.63673">
        <ele>31</ele>
        <time>2013-09-16T13:26:41.000Z</time>
      </trkpt>
      <trkpt lat="43.2116" lon="6.6367">
        <ele>32</ele>
        <time>2013-09-16T13:26:42.000Z</time>
      </trkpt>
      <trkpt lat="43.2116" lon="6.63668">
        <ele>32</ele>
        <time>2013-09-16T13:26:43.000Z</time>
      </trkpt>
      <trkpt lat="43.21161" lon="6.63662">
        <ele>32</ele>
        <time>2013-09-16T13:26:45.000Z</time>
      </trkpt>
      <trkpt lat="43.21161" lon="6.63659">
        <ele>32</ele>
        <time>2013-09-16T13:26:46.000Z</time>
      </trkpt>
      <trkpt lat="43.21161" lon="6.63656">
        <ele>32</ele>
        <time>2013-09-16T13:26:47.000Z</time>
      </trkpt>
      <trkpt lat="43.21161" lon="6.63653">
        <ele>32</ele>
        <time>2013-09-16T13:26:48.000Z</time>
      </trkpt>
      <trkpt lat="43.21161" lon="6.6365">
        <ele>32</ele>
        <time>2013-09-16T13:26:49.000Z</time>
      </trkpt>
      <trkpt lat="43.21162" lon="6.63647">
        <ele>32</ele>
        <time>2013-09-16T13:26:50.000Z</time>
      </trkpt>
      <trkpt lat="43.21162" lon="6.63644">
        <ele>32</ele>
        <time>2013-09-16T13:26:51.000Z</time>
      </trkpt>
      <trkpt lat="43.21162" lon="6.63638">
        <ele>32</ele>
        <time>2013-09-16T13:26:53.000Z</time>
      </trkpt>
      <trkpt lat="43.21162" lon="6.63635">
        <ele>32</ele>
        <time>2013-09-16T13:26:54.000Z</time>
      </trkpt>
      <trkpt lat="43.21163" lon="6.63632">
        <ele>33</ele>
        <time>2013-09-16T13:26:55.000Z</time>
      </trkpt>
      <trkpt lat="43.21163" lon="6.63626">
        <ele>33</ele>
        <time>2013-09-16T13:26:57.000Z</time>
      </trkpt>
      <trkpt lat="43.21163" lon="6.63623">
        <ele>33</ele>
        <time>2013-09-16T13:26:58.000Z</time>
      </trkpt>
      <trkpt lat="43.21163" lon="6.6362">
        <ele>33</ele>
        <time>2013-09-16T13:26:59.000Z</time>
      </trkpt>
      <trkpt lat="43.21164" lon="6.63617">
        <ele>33</ele>
        <time>2013-09-16T13:27:00.000Z</time>
      </trkpt>
      <trkpt lat="43.21164" lon="6.63614">
        <ele>34</ele>
        <time>2013-09-16T13:27:01.000Z</time>
      </trkpt>
      <trkpt lat="43.21164" lon="6.63612">
        <ele>34</ele>
        <time>2013-09-16T13:27:02.000Z</time>
      </trkpt>
      <trkpt lat="43.21164" lon="6.63609">
        <ele>34</ele>
        <time>2013-09-16T13:27:03.000Z</time>
      </trkpt>
      <trkpt lat="43.21164" lon="6.63606">
        <ele>34</ele>
        <time>2013-09-16T13:27:04.000Z</time>
      </trkpt>
      <trkpt lat="43.21165" lon="6.63603">
        <ele>35</ele>
        <time>2013-09-16T13:27:05.000Z</time>
      </trkpt>
      <trkpt lat="43.21165" lon="6.636">
        <ele>35</ele>
        <time>2013-09-16T13:27:06.000Z</time>
      </trkpt>
      <trkpt lat="43.21165" lon="6.63598">
        <ele>36</ele>
        <time>2013-09-16T13:27:07.000Z</time>
      </trkpt>
      <trkpt lat="43.21165" lon="6.63595">
        <ele>36</ele>
        <time>2013-09-16T13:27:08.000Z</time>
      </trkpt>
      <trkpt lat="43.21165" lon="6.63592">
        <ele>37</ele>
        <time>2013-09-16T13:27:09.000Z</time>
      </trkpt>
      <trkpt lat="43.21166" lon="6.63589">
        <ele>37</ele>
        <time>2013-09-16T13:27:10.000Z</time>
      </trkpt>
      <trkpt lat="43.21166" lon="6.63587">
        <ele>38</ele>
        <time>2013-09-16T13:27:11.000Z</time>
      </trkpt>
      <trkpt lat="43.21166" lon="6.63584">
        <ele>39</ele>
        <time>2013-09-16T13:27:12.000Z</time>
      </trkpt>
      <trkpt lat="43.21166" lon="6.63582">
        <ele>39</ele>
        <time>2013-09-16T13:27:13.000Z</time>
      </trkpt>
      <trkpt lat="43.21167" lon="6.63574">
        <ele>37</ele>
        <time>2013-09-16T13:27:16.000Z</time>
      </trkpt>
      <trkpt lat="43.21167" lon="6.63571">
        <ele>41</ele>
        <time>2013-09-16T13:27:17.000Z</time>
      </trkpt>
      <trkpt lat="43.21167" lon="6.63569">
        <ele>42</ele>
        <time>2013-09-16T13:27:18.000Z</time>
      </trkpt>
      <trkpt lat="43.21167" lon="6.63566">
        <ele>42</ele>
        <time>2013-09-16T13:27:19.000Z</time>
      </trkpt>
      <trkpt lat="43.21167" lon="6.63553">
        <ele>43</ele>
        <time>2013-09-16T13:27:23.000Z</time>
      </trkpt>
      <trkpt lat="43.21168" lon="6.63547">
        <ele>43</ele>
        <time>2013-09-16T13:27:25.000Z</time>
      </trkpt>
      <trkpt lat="43.21167" lon="6.63544">
        <ele>43</ele>
        <time>2013-09-16T13:27:26.000Z</time>
      </trkpt>
      <trkpt lat="43.21168" lon="6.63541">
        <ele>43</ele>
        <time>2013-09-16T13:27:27.000Z</time>
      </trkpt>
      <trkpt lat="43.21167" lon="6.63537">
        <ele>43</ele>
        <time>2013-09-16T13:27:28.000Z</time>
      </trkpt>
      <trkpt lat="43.21168" lon="6.63534">
        <ele>43</ele>
        <time>2013-09-16T13:27:29.000Z</time>
      </trkpt>
      <trkpt lat="43.21168" lon="6.6353">
        <ele>43</ele>
        <time>2013-09-16T13:27:30.000Z</time>
      </trkpt>
      <trkpt lat="43.21168" lon="6.63508">
        <ele>41</ele>
        <time>2013-09-16T13:27:36.000Z</time>
      </trkpt>
      <trkpt lat="43.21168" lon="6.63498">
        <ele>39</ele>
        <time>2013-09-16T13:27:38.000Z</time>
      </trkpt>
      <trkpt lat="43.21167" lon="6.63492">
        <ele>40</ele>
        <time>2013-09-16T13:27:39.000Z</time>
      </trkpt>
      <trkpt lat="43.21167" lon="6.63486">
        <ele>41</ele>
        <time>2013-09-16T13:27:40.000Z</time>
      </trkpt>
      <trkpt lat="43.21167" lon="6.63479">
        <ele>41</ele>
        <time>2013-09-16T13:27:41.000Z</time>
      </trkpt>
      <trkpt lat="43.21167" lon="6.63471">
        <ele>41</ele>
        <time>2013-09-16T13:27:42.000Z</time>
      </trkpt>
      <trkpt lat="43.21166" lon="6.63463">
        <ele>34</ele>
        <time>2013-09-16T13:27:43.000Z</time>
      </trkpt>
      <trkpt lat="43.21166" lon="6.63455">
        <ele>33</ele>
        <time>2013-09-16T13:27:44.000Z</time>
      </trkpt>
      <trkpt lat="43.21166" lon="6.63446">
        <ele>33</ele>
        <time>2013-09-16T13:27:45.000Z</time>
      </trkpt>
      <trkpt lat="43.21165" lon="6.63437">
        <ele>33</ele>
        <time>2013-09-16T13:27:46.000Z</time>
      </trkpt>
      <trkpt lat="43.21165" lon="6.63427">
        <ele>33</ele>
        <time>2013-09-16T13:27:47.000Z</time>
      </trkpt>
      <trkpt lat="43.21164" lon="6.63418">
        <ele>34</ele>
        <time>2013-09-16T13:27:48.000Z</time>
      </trkpt>
      <trkpt lat="43.21164" lon="6.63408">
        <ele>32</ele>
        <time>2013-09-16T13:27:49.000Z</time>
      </trkpt>
      <trkpt lat="43.21164" lon="6.63397">
        <ele>31</ele>
        <time>2013-09-16T13:27:50.000Z</time>
      </trkpt>
      <trkpt lat="43.21163" lon="6.63387">
        <ele>31</ele>
        <time>2013-09-16T13:27:51.000Z</time>
      </trkpt>
      <trkpt lat="43.21163" lon="6.63377">
        <ele>30</ele>
        <time>2013-09-16T13:27:52.000Z</time>
      </trkpt>
      <trkpt lat="43.21163" lon="6.63366">
        <ele>30</ele>
        <time>2013-09-16T13:27:53.000Z</time>
      </trkpt>
      <trkpt lat="43.21163" lon="6.63356">
        <ele>30</ele>
        <time>2013-09-16T13:27:54.000Z</time>
      </trkpt>
      <trkpt lat="43.21163" lon="6.63326">
        <ele>30</ele>
        <time>2013-09-16T13:27:57.000Z</time>
      </trkpt>
      <trkpt lat="43.21163" lon="6.63316">
        <ele>30</ele>
        <time>2013-09-16T13:27:58.000Z</time>
      </trkpt>
      <trkpt lat="43.21164" lon="6.63307">
        <ele>29</ele>
        <time>2013-09-16T13:27:59.000Z</time>
      </trkpt>
      <trkpt lat="43.21165" lon="6.63298">
        <ele>29</ele>
        <time>2013-09-16T13:28:00.000Z</time>
      </trkpt>
      <trkpt lat="43.21165" lon="6.6329">
        <ele>29</ele>
        <time>2013-09-16T13:28:01.000Z</time>
      </trkpt>
      <trkpt lat="43.21166" lon="6.63282">
        <ele>29</ele>
        <time>2013-09-16T13:28:02.000Z</time>
      </trkpt>
      <trkpt lat="43.21166" lon="6.63274">
        <ele>29</ele>
        <time>2013-09-16T13:28:03.000Z</time>
      </trkpt>
      <trkpt lat="43.21167" lon="6.63266">
        <ele>32</ele>
        <time>2013-09-16T13:28:04.000Z</time>
      </trkpt>
      <trkpt lat="43.21168" lon="6.63259">
        <ele>32</ele>
        <time>2013-09-16T13:28:05.000Z</time>
      </trkpt>
      <trkpt lat="43.21168" lon="6.63251">
        <ele>30</ele>
        <time>2013-09-16T13:28:06.000Z</time>
      </trkpt>
      <trkpt lat="43.21169" lon="6.63244">
        <ele>31</ele>
        <time>2013-09-16T13:28:07.000Z</time>
      </trkpt>
      <trkpt lat="43.2117" lon="6.63237">
        <ele>32</ele>
        <time>2013-09-16T13:28:08.000Z</time>
      </trkpt>
      <trkpt lat="43.2117" lon="6.6323">
        <ele>32</ele>
        <time>2013-09-16T13:28:09.000Z</time>
      </trkpt>
      <trkpt lat="43.21171" lon="6.63223">
        <ele>33</ele>
        <time>2013-09-16T13:28:10.000Z</time>
      </trkpt>
      <trkpt lat="43.21171" lon="6.63216">
        <ele>33</ele>
        <time>2013-09-16T13:28:11.000Z</time>
      </trkpt>
      <trkpt lat="43.21172" lon="6.63209">
        <ele>33</ele>
        <time>2013-09-16T13:28:12.000Z</time>
      </trkpt>
      <trkpt lat="43.21173" lon="6.63201">
        <ele>33</ele>
        <time>2013-09-16T13:28:13.000Z</time>
      </trkpt>
      <trkpt lat="43.21173" lon="6.63194">
        <ele>33</ele>
        <time>2013-09-16T13:28:14.000Z</time>
      </trkpt>
      <trkpt lat="43.21174" lon="6.63187">
        <ele>33</ele>
        <time>2013-09-16T13:28:15.000Z</time>
      </trkpt>
      <trkpt lat="43.21175" lon="6.6318">
        <ele>33</ele>
        <time>2013-09-16T13:28:16.000Z</time>
      </trkpt>
      <trkpt lat="43.21175" lon="6.63173">
        <ele>32</ele>
        <time>2013-09-16T13:28:17.000Z</time>
      </trkpt>
      <trkpt lat="43.21176" lon="6.63166">
        <ele>32</ele>
        <time>2013-09-16T13:28:18.000Z</time>
      </trkpt>
      <trkpt lat="43.21176" lon="6.63158">
        <ele>33</ele>
        <time>2013-09-16T13:28:19.000Z</time>
      </trkpt>
      <trkpt lat="43.21177" lon="6.63151">
        <ele>33</ele>
        <time>2013-09-16T13:28:20.000Z</time>
      </trkpt>
      <trkpt lat="43.21178" lon="6.63144">
        <ele>33</ele>
        <time>2013-09-16T13:28:21.000Z</time>
      </trkpt>
      <trkpt lat="43.21178" lon="6.63137">
        <ele>34</ele>
        <time>2013-09-16T13:28:22.000Z</time>
      </trkpt>
      <trkpt lat="43.21179" lon="6.6313">
        <ele>34</ele>
        <time>2013-09-16T13:28:23.000Z</time>
      </trkpt>
      <trkpt lat="43.2118" lon="6.63122">
        <ele>34</ele>
        <time>2013-09-16T13:28:24.000Z</time>
      </trkpt>
      <trkpt lat="43.2118" lon="6.63115">
        <ele>34</ele>
        <time>2013-09-16T13:28:25.000Z</time>
      </trkpt>
      <trkpt lat="43.21181" lon="6.63108">
        <ele>34</ele>
        <time>2013-09-16T13:28:26.000Z</time>
      </trkpt>
      <trkpt lat="43.21182" lon="6.63101">
        <ele>34</ele>
        <time>2013-09-16T13:28:27.000Z</time>
      </trkpt>
      <trkpt lat="43.21182" lon="6.63093">
        <ele>33</ele>
        <time>2013-09-16T13:28:28.000Z</time>
      </trkpt>
      <trkpt lat="43.21183" lon="6.63086">
        <ele>33</ele>
        <time>2013-09-16T13:28:29.000Z</time>
      </trkpt>
      <trkpt lat="43.21184" lon="6.63079">
        <ele>34</ele>
        <time>2013-09-16T13:28:30.000Z</time>
      </trkpt>
      <trkpt lat="43.21184" lon="6.63072">
        <ele>34</ele>
        <time>2013-09-16T13:28:31.000Z</time>
      </trkpt>
      <trkpt lat="43.21185" lon="6.63065">
        <ele>35</ele>
        <time>2013-09-16T13:28:32.000Z</time>
      </trkpt>
      <trkpt lat="43.21185" lon="6.63058">
        <ele>35</ele>
        <time>2013-09-16T13:28:33.000Z</time>
      </trkpt>
      <trkpt lat="43.21186" lon="6.63051">
        <ele>35</ele>
        <time>2013-09-16T13:28:34.000Z</time>
      </trkpt>
      <trkpt lat="43.21186" lon="6.63044">
        <ele>36</ele>
        <time>2013-09-16T13:28:35.000Z</time>
      </trkpt>
      <trkpt lat="43.21186" lon="6.63037">
        <ele>36</ele>
        <time>2013-09-16T13:28:36.000Z</time>
      </trkpt>
      <trkpt lat="43.21187" lon="6.6303">
        <ele>36</ele>
        <time>2013-09-16T13:28:37.000Z</time>
      </trkpt>
      <trkpt lat="43.21187" lon="6.63023">
        <ele>36</ele>
        <time>2013-09-16T13:28:38.000Z</time>
      </trkpt>
      <trkpt lat="43.21187" lon="6.63016">
        <ele>35</ele>
        <time>2013-09-16T13:28:39.000Z</time>
      </trkpt>
      <trkpt lat="43.21188" lon="6.63003">
        <ele>35</ele>
        <time>2013-09-16T13:28:41.000Z</time>
      </trkpt>
      <trkpt lat="43.21187" lon="6.62989">
        <ele>35</ele>
        <time>2013-09-16T13:28:43.000Z</time>
      </trkpt>
      <trkpt lat="43.21187" lon="6.62982">
        <ele>35</ele>
        <time>2013-09-16T13:28:44.000Z</time>
      </trkpt>
      <trkpt lat="43.21187" lon="6.62975">
        <ele>35</ele>
        <time>2013-09-16T13:28:45.000Z</time>
      </trkpt>
      <trkpt lat="43.21187" lon="6.62968">
        <ele>35</ele>
        <time>2013-09-16T13:28:46.000Z</time>
      </trkpt>
      <trkpt lat="43.21187" lon="6.62962">
        <ele>35</ele>
        <time>2013-09-16T13:28:47.000Z</time>
      </trkpt>
      <trkpt lat="43.21187" lon="6.62934">
        <ele>34</ele>
        <time>2013-09-16T13:28:51.000Z</time>
      </trkpt>
      <trkpt lat="43.21187" lon="6.62927">
        <ele>33</ele>
        <time>2013-09-16T13:28:52.000Z</time>
      </trkpt>
      <trkpt lat="43.21187" lon="6.6292">
        <ele>33</ele>
        <time>2013-09-16T13:28:53.000Z</time>
      </trkpt>
      <trkpt lat="43.21188" lon="6.62913">
        <ele>32</ele>
        <time>2013-09-16T13:28:54.000Z</time>
      </trkpt>
      <trkpt lat="43.21189" lon="6.62905">
        <ele>32</ele>
        <time>2013-09-16T13:28:55.000Z</time>
      </trkpt>
      <trkpt lat="43.2119" lon="6.62897">
        <ele>32</ele>
        <time>2013-09-16T13:28:56.000Z</time>
      </trkpt>
      <trkpt lat="43.21191" lon="6.62889">
        <ele>32</ele>
        <time>2013-09-16T13:28:57.000Z</time>
      </trkpt>
      <trkpt lat="43.21192" lon="6.62881">
        <ele>32</ele>
        <time>2013-09-16T13:28:58.000Z</time>
      </trkpt>
      <trkpt lat="43.21193" lon="6.62874">
        <ele>32</ele>
        <time>2013-09-16T13:28:59.000Z</time>
      </trkpt>
      <trkpt lat="43.21195" lon="6.62866">
        <ele>32</ele>
        <time>2013-09-16T13:29:00.000Z</time>
      </trkpt>
      <trkpt lat="43.21196" lon="6.62858">
        <ele>32</ele>
        <time>2013-09-16T13:29:01.000Z</time>
      </trkpt>
      <trkpt lat="43.21197" lon="6.62851">
        <ele>32</ele>
        <time>2013-09-16T13:29:02.000Z</time>
      </trkpt>
      <trkpt lat="43.21199" lon="6.62843">
        <ele>32</ele>
        <time>2013-09-16T13:29:03.000Z</time>
      </trkpt>
      <trkpt lat="43.212" lon="6.62836">
        <ele>32</ele>
        <time>2013-09-16T13:29:04.000Z</time>
      </trkpt>
      <trkpt lat="43.21201" lon="6.62829">
        <ele>31</ele>
        <time>2013-09-16T13:29:05.000Z</time>
      </trkpt>
      <trkpt lat="43.21201" lon="6.62822">
        <ele>31</ele>
        <time>2013-09-16T13:29:06.000Z</time>
      </trkpt>
      <trkpt lat="43.21202" lon="6.62815">
        <ele>31</ele>
        <time>2013-09-16T13:29:07.000Z</time>
      </trkpt>
      <trkpt lat="43.21202" lon="6.62809">
        <ele>31</ele>
        <time>2013-09-16T13:29:08.000Z</time>
      </trkpt>
      <trkpt lat="43.21203" lon="6.62802">
        <ele>31</ele>
        <time>2013-09-16T13:29:09.000Z</time>
      </trkpt>
      <trkpt lat="43.21203" lon="6.62795">
        <ele>31</ele>
        <time>2013-09-16T13:29:10.000Z</time>
      </trkpt>
      <trkpt lat="43.21203" lon="6.62775">
        <ele>31</ele>
        <time>2013-09-16T13:29:13.000Z</time>
      </trkpt>
      <trkpt lat="43.21202" lon="6.62768">
        <ele>31</ele>
        <time>2013-09-16T13:29:14.000Z</time>
      </trkpt>
      <trkpt lat="43.21202" lon="6.62761">
        <ele>31</ele>
        <time>2013-09-16T13:29:15.000Z</time>
      </trkpt>
      <trkpt lat="43.21202" lon="6.62754">
        <ele>31</ele>
        <time>2013-09-16T13:29:16.000Z</time>
      </trkpt>
      <trkpt lat="43.21201" lon="6.62747">
        <ele>30</ele>
        <time>2013-09-16T13:29:17.000Z</time>
      </trkpt>
      <trkpt lat="43.212" lon="6.6274">
        <ele>30</ele>
        <time>2013-09-16T13:29:18.000Z</time>
      </trkpt>
      <trkpt lat="43.212" lon="6.62733">
        <ele>30</ele>
        <time>2013-09-16T13:29:19.000Z</time>
      </trkpt>
      <trkpt lat="43.21199" lon="6.62726">
        <ele>30</ele>
        <time>2013-09-16T13:29:20.000Z</time>
      </trkpt>
      <trkpt lat="43.21199" lon="6.62718">
        <ele>30</ele>
        <time>2013-09-16T13:29:21.000Z</time>
      </trkpt>
      <trkpt lat="43.21199" lon="6.62711">
        <ele>30</ele>
        <time>2013-09-16T13:29:22.000Z</time>
      </trkpt>
      <trkpt lat="43.21198" lon="6.62704">
        <ele>30</ele>
        <time>2013-09-16T13:29:23.000Z</time>
      </trkpt>
      <trkpt lat="43.21199" lon="6.62696">
        <ele>30</ele>
        <time>2013-09-16T13:29:24.000Z</time>
      </trkpt>
      <trkpt lat="43.21199" lon="6.62689">
        <ele>30</ele>
        <time>2013-09-16T13:29:25.000Z</time>
      </trkpt>
      <trkpt lat="43.212" lon="6.62682">
        <ele>30</ele>
        <time>2013-09-16T13:29:26.000Z</time>
      </trkpt>
      <trkpt lat="43.21201" lon="6.62675">
        <ele>30</ele>
        <time>2013-09-16T13:29:27.000Z</time>
      </trkpt>
      <trkpt lat="43.21202" lon="6.62668">
        <ele>30</ele>
        <time>2013-09-16T13:29:28.000Z</time>
      </trkpt>
      <trkpt lat="43.21204" lon="6.62662">
        <ele>30</ele>
        <time>2013-09-16T13:29:29.000Z</time>
      </trkpt>
      <trkpt lat="43.21205" lon="6.62655">
        <ele>30</ele>
        <time>2013-09-16T13:29:30.000Z</time>
      </trkpt>
      <trkpt lat="43.21207" lon="6.62649">
        <ele>30</ele>
        <time>2013-09-16T13:29:31.000Z</time>
      </trkpt>
      <trkpt lat="43.21209" lon="6.62643">
        <ele>30</ele>
        <time>2013-09-16T13:29:32.000Z</time>
      </trkpt>
      <trkpt lat="43.21211" lon="6.62638">
        <ele>30</ele>
        <time>2013-09-16T13:29:33.000Z</time>
      </trkpt>
      <trkpt lat="43.21213" lon="6.62632">
        <ele>30</ele>
        <time>2013-09-16T13:29:34.000Z</time>
      </trkpt>
      <trkpt lat="43.21216" lon="6.62627">
        <ele>30</ele>
        <time>2013-09-16T13:29:35.000Z</time>
      </trkpt>
      <trkpt lat="43.21219" lon="6.62622">
        <ele>30</ele>
        <time>2013-09-16T13:29:36.000Z</time>
      </trkpt>
      <trkpt lat="43.21221" lon="6.62617">
        <ele>30</ele>
        <time>2013-09-16T13:29:37.000Z</time>
      </trkpt>
      <trkpt lat="43.21224" lon="6.62612">
        <ele>30</ele>
        <time>2013-09-16T13:29:38.000Z</time>
      </trkpt>
      <trkpt lat="43.21227" lon="6.62608">
        <ele>30</ele>
        <time>2013-09-16T13:29:39.000Z</time>
      </trkpt>
      <trkpt lat="43.21229" lon="6.62603">
        <ele>31</ele>
        <time>2013-09-16T13:29:40.000Z</time>
      </trkpt>
      <trkpt lat="43.21232" lon="6.62599">
        <ele>31</ele>
        <time>2013-09-16T13:29:41.000Z</time>
      </trkpt>
      <trkpt lat="43.21234" lon="6.62594">
        <ele>31</ele>
        <time>2013-09-16T13:29:42.000Z</time>
      </trkpt>
      <trkpt lat="43.21237" lon="6.6259">
        <ele>31</ele>
        <time>2013-09-16T13:29:43.000Z</time>
      </trkpt>
      <trkpt lat="43.21239" lon="6.62586">
        <ele>31</ele>
        <time>2013-09-16T13:29:44.000Z</time>
      </trkpt>
      <trkpt lat="43.21242" lon="6.62582">
        <ele>31</ele>
        <time>2013-09-16T13:29:45.000Z</time>
      </trkpt>
      <trkpt lat="43.21244" lon="6.62578">
        <ele>31</ele>
        <time>2013-09-16T13:29:46.000Z</time>
      </trkpt>
      <trkpt lat="43.21247" lon="6.62574">
        <ele>31</ele>
        <time>2013-09-16T13:29:47.000Z</time>
      </trkpt>
      <trkpt lat="43.21249" lon="6.6257">
        <ele>31</ele>
        <time>2013-09-16T13:29:48.000Z</time>
      </trkpt>
      <trkpt lat="43.21251" lon="6.62566">
        <ele>32</ele>
        <time>2013-09-16T13:29:49.000Z</time>
      </trkpt>
      <trkpt lat="43.21254" lon="6.62562">
        <ele>32</ele>
        <time>2013-09-16T13:29:50.000Z</time>
      </trkpt>
      <trkpt lat="43.21256" lon="6.62558">
        <ele>33</ele>
        <time>2013-09-16T13:29:51.000Z</time>
      </trkpt>
      <trkpt lat="43.21258" lon="6.62554">
        <ele>33</ele>
        <time>2013-09-16T13:29:52.000Z</time>
      </trkpt>
      <trkpt lat="43.2126" lon="6.62551">
        <ele>33</ele>
        <time>2013-09-16T13:29:53.000Z</time>
      </trkpt>
      <trkpt lat="43.21261" lon="6.62547">
        <ele>33</ele>
        <time>2013-09-16T13:29:54.000Z</time>
      </trkpt>
      <trkpt lat="43.21263" lon="6.62543">
        <ele>33</ele>
        <time>2013-09-16T13:29:55.000Z</time>
      </trkpt>
      <trkpt lat="43.21265" lon="6.62539">
        <ele>33</ele>
        <time>2013-09-16T13:29:56.000Z</time>
      </trkpt>
      <trkpt lat="43.21266" lon="6.62535">
        <ele>33</ele>
        <time>2013-09-16T13:29:57.000Z</time>
      </trkpt>
      <trkpt lat="43.21268" lon="6.62531">
        <ele>33</ele>
        <time>2013-09-16T13:29:58.000Z</time>
      </trkpt>
      <trkpt lat="43.21269" lon="6.62526">
        <ele>34</ele>
        <time>2013-09-16T13:29:59.000Z</time>
      </trkpt>
      <trkpt lat="43.21271" lon="6.62522">
        <ele>34</ele>
        <time>2013-09-16T13:30:00.000Z</time>
      </trkpt>
      <trkpt lat="43.21272" lon="6.62518">
        <ele>34</ele>
        <time>2013-09-16T13:30:01.000Z</time>
      </trkpt>
      <trkpt lat="43.21273" lon="6.62514">
        <ele>34</ele>
        <time>2013-09-16T13:30:02.000Z</time>
      </trkpt>
      <trkpt lat="43.21274" lon="6.62511">
        <ele>34</ele>
        <time>2013-09-16T13:30:03.000Z</time>
      </trkpt>
      <trkpt lat="43.21275" lon="6.62507">
        <ele>34</ele>
        <time>2013-09-16T13:30:04.000Z</time>
      </trkpt>
      <trkpt lat="43.21276" lon="6.62503">
        <ele>34</ele>
        <time>2013-09-16T13:30:05.000Z</time>
      </trkpt>
      <trkpt lat="43.21276" lon="6.62498">
        <ele>35</ele>
        <time>2013-09-16T13:30:06.000Z</time>
      </trkpt>
      <trkpt lat="43.21277" lon="6.62494">
        <ele>35</ele>
        <time>2013-09-16T13:30:07.000Z</time>
      </trkpt>
      <trkpt lat="43.21278" lon="6.6249">
        <ele>35</ele>
        <time>2013-09-16T13:30:08.000Z</time>
      </trkpt>
      <trkpt lat="43.21279" lon="6.62486">
        <ele>35</ele>
        <time>2013-09-16T13:30:09.000Z</time>
      </trkpt>
      <trkpt lat="43.2128" lon="6.62483">
        <ele>35</ele>
        <time>2013-09-16T13:30:10.000Z</time>
      </trkpt>
      <trkpt lat="43.2128" lon="6.62479">
        <ele>35</ele>
        <time>2013-09-16T13:30:11.000Z</time>
      </trkpt>
      <trkpt lat="43.21281" lon="6.62477">
        <ele>35</ele>
        <time>2013-09-16T13:30:12.000Z</time>
      </trkpt>
      <trkpt lat="43.21282" lon="6.62474">
        <ele>36</ele>
        <time>2013-09-16T13:30:13.000Z</time>
      </trkpt>
      <trkpt lat="43.21283" lon="6.62471">
        <ele>36</ele>
        <time>2013-09-16T13:30:14.000Z</time>
      </trkpt>
      <trkpt lat="43.21285" lon="6.62468">
        <ele>36</ele>
        <time>2013-09-16T13:30:15.000Z</time>
      </trkpt>
      <trkpt lat="43.21286" lon="6.62466">
        <ele>36</ele>
        <time>2013-09-16T13:30:16.000Z</time>
      </trkpt>
      <trkpt lat="43.21288" lon="6.62463">
        <ele>36</ele>
        <time>2013-09-16T13:30:17.000Z</time>
      </trkpt>
      <trkpt lat="43.2129" lon="6.62461">
        <ele>36</ele>
        <time>2013-09-16T13:30:18.000Z</time>
      </trkpt>
      <trkpt lat="43.21291" lon="6.62458">
        <ele>36</ele>
        <time>2013-09-16T13:30:19.000Z</time>
      </trkpt>
      <trkpt lat="43.21293" lon="6.62455">
        <ele>36</ele>
        <time>2013-09-16T13:30:20.000Z</time>
      </trkpt>
      <trkpt lat="43.21293" lon="6.62451">
        <ele>36</ele>
        <time>2013-09-16T13:30:21.000Z</time>
      </trkpt>
      <trkpt lat="43.21294" lon="6.62448">
        <ele>36</ele>
        <time>2013-09-16T13:30:22.000Z</time>
      </trkpt>
      <trkpt lat="43.21295" lon="6.62445">
        <ele>36</ele>
        <time>2013-09-16T13:30:23.000Z</time>
      </trkpt>
      <trkpt lat="43.21294" lon="6.62437">
        <ele>36</ele>
        <time>2013-09-16T13:30:25.000Z</time>
      </trkpt>
      <trkpt lat="43.21292" lon="6.62434">
        <ele>36</ele>
        <time>2013-09-16T13:30:26.000Z</time>
      </trkpt>
      <trkpt lat="43.2129" lon="6.62432">
        <ele>36</ele>
        <time>2013-09-16T13:30:27.000Z</time>
      </trkpt>
      <trkpt lat="43.21288" lon="6.6243">
        <ele>36</ele>
        <time>2013-09-16T13:30:28.000Z</time>
      </trkpt>
      <trkpt lat="43.21286" lon="6.62428">
        <ele>36</ele>
        <time>2013-09-16T13:30:29.000Z</time>
      </trkpt>
      <trkpt lat="43.21283" lon="6.62427">
        <ele>36</ele>
        <time>2013-09-16T13:30:30.000Z</time>
      </trkpt>
      <trkpt lat="43.2128" lon="6.62426">
        <ele>36</ele>
        <time>2013-09-16T13:30:31.000Z</time>
      </trkpt>
      <trkpt lat="43.21277" lon="6.62425">
        <ele>36</ele>
        <time>2013-09-16T13:30:32.000Z</time>
      </trkpt>
      <trkpt lat="43.21275" lon="6.62424">
        <ele>37</ele>
        <time>2013-09-16T13:30:33.000Z</time>
      </trkpt>
      <trkpt lat="43.21272" lon="6.62422">
        <ele>37</ele>
        <time>2013-09-16T13:30:34.000Z</time>
      </trkpt>
      <trkpt lat="43.2127" lon="6.6242">
        <ele>37</ele>
        <time>2013-09-16T13:30:35.000Z</time>
      </trkpt>
      <trkpt lat="43.21269" lon="6.62418">
        <ele>37</ele>
        <time>2013-09-16T13:30:36.000Z</time>
      </trkpt>
      <trkpt lat="43.21267" lon="6.62415">
        <ele>39</ele>
        <time>2013-09-16T13:30:37.000Z</time>
      </trkpt>
      <trkpt lat="43.21265" lon="6.62413">
        <ele>39</ele>
        <time>2013-09-16T13:30:38.000Z</time>
      </trkpt>
      <trkpt lat="43.21264" lon="6.62411">
        <ele>39</ele>
        <time>2013-09-16T13:30:39.000Z</time>
      </trkpt>
      <trkpt lat="43.21262" lon="6.62408">
        <ele>39</ele>
        <time>2013-09-16T13:30:40.000Z</time>
      </trkpt>
      <trkpt lat="43.21261" lon="6.62406">
        <ele>39</ele>
        <time>2013-09-16T13:30:41.000Z</time>
      </trkpt>
      <trkpt lat="43.2126" lon="6.62403">
        <ele>39</ele>
        <time>2013-09-16T13:30:42.000Z</time>
      </trkpt>
      <trkpt lat="43.21259" lon="6.624">
        <ele>39</ele>
        <time>2013-09-16T13:30:43.000Z</time>
      </trkpt>
      <trkpt lat="43.21257" lon="6.62398">
        <ele>39</ele>
        <time>2013-09-16T13:30:44.000Z</time>
      </trkpt>
      <trkpt lat="43.21256" lon="6.62395">
        <ele>39</ele>
        <time>2013-09-16T13:30:45.000Z</time>
      </trkpt>
      <trkpt lat="43.21255" lon="6.62392">
        <ele>39</ele>
        <time>2013-09-16T13:30:46.000Z</time>
      </trkpt>
      <trkpt lat="43.21253" lon="6.6239">
        <ele>40</ele>
        <time>2013-09-16T13:30:47.000Z</time>
      </trkpt>
      <trkpt lat="43.21252" lon="6.62387">
        <ele>40</ele>
        <time>2013-09-16T13:30:48.000Z</time>
      </trkpt>
      <trkpt lat="43.21251" lon="6.62385">
        <ele>40</ele>
        <time>2013-09-16T13:30:49.000Z</time>
      </trkpt>
      <trkpt lat="43.2125" lon="6.62382">
        <ele>39</ele>
        <time>2013-09-16T13:30:50.000Z</time>
      </trkpt>
      <trkpt lat="43.21249" lon="6.62379">
        <ele>40</ele>
        <time>2013-09-16T13:30:51.000Z</time>
      </trkpt>
      <trkpt lat="43.21248" lon="6.62377">
        <ele>40</ele>
        <time>2013-09-16T13:30:52.000Z</time>
      </trkpt>
      <trkpt lat="43.21247" lon="6.62374">
        <ele>40</ele>
        <time>2013-09-16T13:30:53.000Z</time>
      </trkpt>
      <trkpt lat="43.21245" lon="6.62372">
        <ele>40</ele>
        <time>2013-09-16T13:30:54.000Z</time>
      </trkpt>
      <trkpt lat="43.21244" lon="6.62369">
        <ele>40</ele>
        <time>2013-09-16T13:30:55.000Z</time>
      </trkpt>
      <trkpt lat="43.21243" lon="6.62366">
        <ele>40</ele>
        <time>2013-09-16T13:30:56.000Z</time>
      </trkpt>
      <trkpt lat="43.21242" lon="6.62363">
        <ele>40</ele>
        <time>2013-09-16T13:30:57.000Z</time>
      </trkpt>
      <trkpt lat="43.21241" lon="6.62361">
        <ele>40</ele>
        <time>2013-09-16T13:30:58.000Z</time>
      </trkpt>
      <trkpt lat="43.2124" lon="6.62358">
        <ele>40</ele>
        <time>2013-09-16T13:30:59.000Z</time>
      </trkpt>
      <trkpt lat="43.21239" lon="6.62356">
        <ele>41</ele>
        <time>2013-09-16T13:31:00.000Z</time>
      </trkpt>
      <trkpt lat="43.21238" lon="6.62353">
        <ele>41</ele>
        <time>2013-09-16T13:31:01.000Z</time>
      </trkpt>
      <trkpt lat="43.21236" lon="6.6235">
        <ele>41</ele>
        <time>2013-09-16T13:31:02.000Z</time>
      </trkpt>
      <trkpt lat="43.21235" lon="6.62348">
        <ele>41</ele>
        <time>2013-09-16T13:31:03.000Z</time>
      </trkpt>
      <trkpt lat="43.21234" lon="6.62345">
        <ele>41</ele>
        <time>2013-09-16T13:31:04.000Z</time>
      </trkpt>
      <trkpt lat="43.21233" lon="6.62342">
        <ele>41</ele>
        <time>2013-09-16T13:31:05.000Z</time>
      </trkpt>
      <trkpt lat="43.21232" lon="6.6234">
        <ele>41</ele>
        <time>2013-09-16T13:31:06.000Z</time>
      </trkpt>
      <trkpt lat="43.21231" lon="6.62337">
        <ele>41</ele>
        <time>2013-09-16T13:31:07.000Z</time>
      </trkpt>
      <trkpt lat="43.2123" lon="6.62334">
        <ele>41</ele>
        <time>2013-09-16T13:31:08.000Z</time>
      </trkpt>
      <trkpt lat="43.21228" lon="6.62332">
        <ele>43</ele>
        <time>2013-09-16T13:31:09.000Z</time>
      </trkpt>
      <trkpt lat="43.21227" lon="6.62329">
        <ele>43</ele>
        <time>2013-09-16T13:31:10.000Z</time>
      </trkpt>
      <trkpt lat="43.21226" lon="6.62327">
        <ele>43</ele>
        <time>2013-09-16T13:31:11.000Z</time>
      </trkpt>
      <trkpt lat="43.21225" lon="6.62324">
        <ele>43</ele>
        <time>2013-09-16T13:31:12.000Z</time>
      </trkpt>
      <trkpt lat="43.21223" lon="6.62322">
        <ele>43</ele>
        <time>2013-09-16T13:31:13.000Z</time>
      </trkpt>
      <trkpt lat="43.21222" lon="6.62319">
        <ele>43</ele>
        <time>2013-09-16T13:31:14.000Z</time>
      </trkpt>
      <trkpt lat="43.2122" lon="6.62317">
        <ele>43</ele>
        <time>2013-09-16T13:31:15.000Z</time>
      </trkpt>
      <trkpt lat="43.21218" lon="6.62315">
        <ele>43</ele>
        <time>2013-09-16T13:31:16.000Z</time>
      </trkpt>
      <trkpt lat="43.21217" lon="6.62312">
        <ele>43</ele>
        <time>2013-09-16T13:31:17.000Z</time>
      </trkpt>
      <trkpt lat="43.21215" lon="6.6231">
        <ele>43</ele>
        <time>2013-09-16T13:31:18.000Z</time>
      </trkpt>
      <trkpt lat="43.21213" lon="6.62307">
        <ele>43</ele>
        <time>2013-09-16T13:31:19.000Z</time>
      </trkpt>
      <trkpt lat="43.21211" lon="6.62305">
        <ele>43</ele>
        <time>2013-09-16T13:31:20.000Z</time>
      </trkpt>
      <trkpt lat="43.21209" lon="6.62302">
        <ele>43</ele>
        <time>2013-09-16T13:31:21.000Z</time>
      </trkpt>
      <trkpt lat="43.21207" lon="6.623">
        <ele>43</ele>
        <time>2013-09-16T13:31:22.000Z</time>
      </trkpt>
      <trkpt lat="43.21205" lon="6.62298">
        <ele>43</ele>
        <time>2013-09-16T13:31:23.000Z</time>
      </trkpt>
      <trkpt lat="43.21204" lon="6.62296">
        <ele>43</ele>
        <time>2013-09-16T13:31:24.000Z</time>
      </trkpt>
      <trkpt lat="43.21202" lon="6.62294">
        <ele>43</ele>
        <time>2013-09-16T13:31:25.000Z</time>
      </trkpt>
      <trkpt lat="43.21199" lon="6.62292">
        <ele>43</ele>
        <time>2013-09-16T13:31:26.000Z</time>
      </trkpt>
      <trkpt lat="43.21197" lon="6.6229">
        <ele>43</ele>
        <time>2013-09-16T13:31:27.000Z</time>
      </trkpt>
      <trkpt lat="43.21195" lon="6.62288">
        <ele>43</ele>
        <time>2013-09-16T13:31:28.000Z</time>
      </trkpt>
      <trkpt lat="43.21193" lon="6.62286">
        <ele>43</ele>
        <time>2013-09-16T13:31:29.000Z</time>
      </trkpt>
      <trkpt lat="43.21191" lon="6.62284">
        <ele>43</ele>
        <time>2013-09-16T13:31:30.000Z</time>
      </trkpt>
      <trkpt lat="43.21188" lon="6.62282">
        <ele>43</ele>
        <time>2013-09-16T13:31:31.000Z</time>
      </trkpt>
      <trkpt lat="43.21186" lon="6.62281">
        <ele>43</ele>
        <time>2013-09-16T13:31:32.000Z</time>
      </trkpt>
      <trkpt lat="43.21183" lon="6.62279">
        <ele>43</ele>
        <time>2013-09-16T13:31:33.000Z</time>
      </trkpt>
      <trkpt lat="43.2118" lon="6.62277">
        <ele>43</ele>
        <time>2013-09-16T13:31:34.000Z</time>
      </trkpt>
      <trkpt lat="43.21177" lon="6.62276">
        <ele>43</ele>
        <time>2013-09-16T13:31:35.000Z</time>
      </trkpt>
      <trkpt lat="43.21174" lon="6.62274">
        <ele>43</ele>
        <time>2013-09-16T13:31:36.000Z</time>
      </trkpt>
      <trkpt lat="43.21171" lon="6.62273">
        <ele>43</ele>
        <time>2013-09-16T13:31:37.000Z</time>
      </trkpt>
      <trkpt lat="43.21168" lon="6.62272">
        <ele>43</ele>
        <time>2013-09-16T13:31:38.000Z</time>
      </trkpt>
      <trkpt lat="43.21165" lon="6.62271">
        <ele>42</ele>
        <time>2013-09-16T13:31:39.000Z</time>
      </trkpt>
      <trkpt lat="43.21161" lon="6.6227">
        <ele>42</ele>
        <time>2013-09-16T13:31:40.000Z</time>
      </trkpt>
      <trkpt lat="43.21158" lon="6.62268">
        <ele>42</ele>
        <time>2013-09-16T13:31:41.000Z</time>
      </trkpt>
      <trkpt lat="43.21154" lon="6.62267">
        <ele>42</ele>
        <time>2013-09-16T13:31:42.000Z</time>
      </trkpt>
      <trkpt lat="43.2115" lon="6.62266">
        <ele>42</ele>
        <time>2013-09-16T13:31:43.000Z</time>
      </trkpt>
      <trkpt lat="43.21147" lon="6.62264">
        <ele>42</ele>
        <time>2013-09-16T13:31:44.000Z</time>
      </trkpt>
      <trkpt lat="43.21143" lon="6.62263">
        <ele>42</ele>
        <time>2013-09-16T13:31:45.000Z</time>
      </trkpt>
      <trkpt lat="43.2114" lon="6.62261">
        <ele>42</ele>
        <time>2013-09-16T13:31:46.000Z</time>
      </trkpt>
      <trkpt lat="43.21136" lon="6.6226">
        <ele>42</ele>
        <time>2013-09-16T13:31:47.000Z</time>
      </trkpt>
      <trkpt lat="43.21133" lon="6.62259">
        <ele>42</ele>
        <time>2013-09-16T13:31:48.000Z</time>
      </trkpt>
      <trkpt lat="43.2113" lon="6.62257">
        <ele>42</ele>
        <time>2013-09-16T13:31:49.000Z</time>
      </trkpt>
      <trkpt lat="43.21126" lon="6.62256">
        <ele>42</ele>
        <time>2013-09-16T13:31:50.000Z</time>
      </trkpt>
      <trkpt lat="43.21123" lon="6.62255">
        <ele>42</ele>
        <time>2013-09-16T13:31:51.000Z</time>
      </trkpt>
      <trkpt lat="43.21119" lon="6.62254">
        <ele>41</ele>
        <time>2013-09-16T13:31:52.000Z</time>
      </trkpt>
      <trkpt lat="43.21116" lon="6.62252">
        <ele>41</ele>
        <time>2013-09-16T13:31:53.000Z</time>
      </trkpt>
      <trkpt lat="43.21113" lon="6.62251">
        <ele>41</ele>
        <time>2013-09-16T13:31:54.000Z</time>
      </trkpt>
      <trkpt lat="43.2111" lon="6.6225">
        <ele>44</ele>
        <time>2013-09-16T13:31:55.000Z</time>
      </trkpt>
      <trkpt lat="43.21107" lon="6.62249">
        <ele>44</ele>
        <time>2013-09-16T13:31:56.000Z</time>
      </trkpt>
      <trkpt lat="43.21104" lon="6.62247">
        <ele>44</ele>
        <time>2013-09-16T13:31:57.000Z</time>
      </trkpt>
      <trkpt lat="43.21101" lon="6.62246">
        <ele>44</ele>
        <time>2013-09-16T13:31:58.000Z</time>
      </trkpt>
      <trkpt lat="43.21098" lon="6.62245">
        <ele>44</ele>
        <time>2013-09-16T13:31:59.000Z</time>
      </trkpt>
      <trkpt lat="43.21095" lon="6.62243">
        <ele>44</ele>
        <time>2013-09-16T13:32:00.000Z</time>
      </trkpt>
      <trkpt lat="43.21092" lon="6.62242">
        <ele>43</ele>
        <time>2013-09-16T13:32:01.000Z</time>
      </trkpt>
      <trkpt lat="43.21089" lon="6.62241">
        <ele>43</ele>
        <time>2013-09-16T13:32:02.000Z</time>
      </trkpt>
      <trkpt lat="43.21086" lon="6.62239">
        <ele>43</ele>
        <time>2013-09-16T13:32:03.000Z</time>
      </trkpt>
      <trkpt lat="43.21083" lon="6.62237">
        <ele>43</ele>
        <time>2013-09-16T13:32:04.000Z</time>
      </trkpt>
      <trkpt lat="43.21081" lon="6.62236">
        <ele>43</ele>
        <time>2013-09-16T13:32:05.000Z</time>
      </trkpt>
      <trkpt lat="43.21078" lon="6.62234">
        <ele>44</ele>
        <time>2013-09-16T13:32:06.000Z</time>
      </trkpt>
      <trkpt lat="43.21076" lon="6.62233">
        <ele>44</ele>
        <time>2013-09-16T13:32:07.000Z</time>
      </trkpt>
      <trkpt lat="43.21073" lon="6.62231">
        <ele>44</ele>
        <time>2013-09-16T13:32:08.000Z</time>
      </trkpt>
      <trkpt lat="43.21071" lon="6.62229">
        <ele>44</ele>
        <time>2013-09-16T13:32:09.000Z</time>
      </trkpt>
      <trkpt lat="43.21069" lon="6.62228">
        <ele>44</ele>
        <time>2013-09-16T13:32:10.000Z</time>
      </trkpt>
      <trkpt lat="43.21067" lon="6.62226">
        <ele>44</ele>
        <time>2013-09-16T13:32:11.000Z</time>
      </trkpt>
      <trkpt lat="43.21065" lon="6.62224">
        <ele>44</ele>
        <time>2013-09-16T13:32:12.000Z</time>
      </trkpt>
      <trkpt lat="43.21063" lon="6.62223">
        <ele>45</ele>
        <time>2013-09-16T13:32:13.000Z</time>
      </trkpt>
      <trkpt lat="43.21061" lon="6.62221">
        <ele>45</ele>
        <time>2013-09-16T13:32:14.000Z</time>
      </trkpt>
      <trkpt lat="43.21059" lon="6.62219">
        <ele>45</ele>
        <time>2013-09-16T13:32:15.000Z</time>
      </trkpt>
      <trkpt lat="43.21057" lon="6.62217">
        <ele>45</ele>
        <time>2013-09-16T13:32:16.000Z</time>
      </trkpt>
      <trkpt lat="43.21055" lon="6.62215">
        <ele>45</ele>
        <time>2013-09-16T13:32:17.000Z</time>
      </trkpt>
      <trkpt lat="43.21053" lon="6.62213">
        <ele>45</ele>
        <time>2013-09-16T13:32:18.000Z</time>
      </trkpt>
      <trkpt lat="43.21051" lon="6.62211">
        <ele>45</ele>
        <time>2013-09-16T13:32:19.000Z</time>
      </trkpt>
      <trkpt lat="43.21049" lon="6.62209">
        <ele>45</ele>
        <time>2013-09-16T13:32:20.000Z</time>
      </trkpt>
      <trkpt lat="43.21047" lon="6.62206">
        <ele>45</ele>
        <time>2013-09-16T13:32:21.000Z</time>
      </trkpt>
      <trkpt lat="43.21046" lon="6.62204">
        <ele>45</ele>
        <time>2013-09-16T13:32:22.000Z</time>
      </trkpt>
      <trkpt lat="43.21044" lon="6.62202">
        <ele>46</ele>
        <time>2013-09-16T13:32:23.000Z</time>
      </trkpt>
      <trkpt lat="43.21042" lon="6.622">
        <ele>46</ele>
        <time>2013-09-16T13:32:24.000Z</time>
      </trkpt>
      <trkpt lat="43.2104" lon="6.62198">
        <ele>46</ele>
        <time>2013-09-16T13:32:25.000Z</time>
      </trkpt>
      <trkpt lat="43.21039" lon="6.62195">
        <ele>46</ele>
        <time>2013-09-16T13:32:26.000Z</time>
      </trkpt>
      <trkpt lat="43.21037" lon="6.62193">
        <ele>46</ele>
        <time>2013-09-16T13:32:27.000Z</time>
      </trkpt>
      <trkpt lat="43.21036" lon="6.62191">
        <ele>46</ele>
        <time>2013-09-16T13:32:28.000Z</time>
      </trkpt>
      <trkpt lat="43.21034" lon="6.62189">
        <ele>46</ele>
        <time>2013-09-16T13:32:29.000Z</time>
      </trkpt>
      <trkpt lat="43.21033" lon="6.62187">
        <ele>46</ele>
        <time>2013-09-16T13:32:30.000Z</time>
      </trkpt>
      <trkpt lat="43.21031" lon="6.62185">
        <ele>46</ele>
        <time>2013-09-16T13:32:31.000Z</time>
      </trkpt>
      <trkpt lat="43.2103" lon="6.62182">
        <ele>46</ele>
        <time>2013-09-16T13:32:32.000Z</time>
      </trkpt>
      <trkpt lat="43.21028" lon="6.6218">
        <ele>47</ele>
        <time>2013-09-16T13:32:33.000Z</time>
      </trkpt>
      <trkpt lat="43.21027" lon="6.62178">
        <ele>47</ele>
        <time>2013-09-16T13:32:34.000Z</time>
      </trkpt>
      <trkpt lat="43.21025" lon="6.62176">
        <ele>47</ele>
        <time>2013-09-16T13:32:35.000Z</time>
      </trkpt>
      <trkpt lat="43.21024" lon="6.62174">
        <ele>47</ele>
        <time>2013-09-16T13:32:36.000Z</time>
      </trkpt>
      <trkpt lat="43.21022" lon="6.62172">
        <ele>47</ele>
        <time>2013-09-16T13:32:37.000Z</time>
      </trkpt>
      <trkpt lat="43.21021" lon="6.62169">
        <ele>47</ele>
        <time>2013-09-16T13:32:38.000Z</time>
      </trkpt>
      <trkpt lat="43.2102" lon="6.62167">
        <ele>47</ele>
        <time>2013-09-16T13:32:39.000Z</time>
      </trkpt>
      <trkpt lat="43.21018" lon="6.62164">
        <ele>50</ele>
        <time>2013-09-16T13:32:40.000Z</time>
      </trkpt>
      <trkpt lat="43.21016" lon="6.62162">
        <ele>50</ele>
        <time>2013-09-16T13:32:41.000Z</time>
      </trkpt>
      <trkpt lat="43.21015" lon="6.62159">
        <ele>50</ele>
        <time>2013-09-16T13:32:42.000Z</time>
      </trkpt>
      <trkpt lat="43.21013" lon="6.62157">
        <ele>50</ele>
        <time>2013-09-16T13:32:43.000Z</time>
      </trkpt>
      <trkpt lat="43.21011" lon="6.62154">
        <ele>50</ele>
        <time>2013-09-16T13:32:44.000Z</time>
      </trkpt>
      <trkpt lat="43.2101" lon="6.62152">
        <ele>51</ele>
        <time>2013-09-16T13:32:45.000Z</time>
      </trkpt>
      <trkpt lat="43.21008" lon="6.6215">
        <ele>51</ele>
        <time>2013-09-16T13:32:46.000Z</time>
      </trkpt>
      <trkpt lat="43.21007" lon="6.62147">
        <ele>51</ele>
        <time>2013-09-16T13:32:47.000Z</time>
      </trkpt>
      <trkpt lat="43.21005" lon="6.62145">
        <ele>51</ele>
        <time>2013-09-16T13:32:48.000Z</time>
      </trkpt>
      <trkpt lat="43.21004" lon="6.62142">
        <ele>51</ele>
        <time>2013-09-16T13:32:49.000Z</time>
      </trkpt>
      <trkpt lat="43.21002" lon="6.6214">
        <ele>51</ele>
        <time>2013-09-16T13:32:50.000Z</time>
      </trkpt>
      <trkpt lat="43.21" lon="6.62138">
        <ele>51</ele>
        <time>2013-09-16T13:32:51.000Z</time>
      </trkpt>
      <trkpt lat="43.20999" lon="6.62136">
        <ele>51</ele>
        <time>2013-09-16T13:32:52.000Z</time>
      </trkpt>
      <trkpt lat="43.20997" lon="6.62134">
        <ele>51</ele>
        <time>2013-09-16T13:32:53.000Z</time>
      </trkpt>
      <trkpt lat="43.20995" lon="6.62131">
        <ele>51</ele>
        <time>2013-09-16T13:32:54.000Z</time>
      </trkpt>
      <trkpt lat="43.20993" lon="6.62129">
        <ele>51</ele>
        <time>2013-09-16T13:32:55.000Z</time>
      </trkpt>
      <trkpt lat="43.20991" lon="6.62127">
        <ele>51</ele>
        <time>2013-09-16T13:32:56.000Z</time>
      </trkpt>
      <trkpt lat="43.20989" lon="6.62125">
        <ele>51</ele>
        <time>2013-09-16T13:32:57.000Z</time>
      </trkpt>
      <trkpt lat="43.20987" lon="6.62123">
        <ele>51</ele>
        <time>2013-09-16T13:32:58.000Z</time>
      </trkpt>
      <trkpt lat="43.20985" lon="6.62121">
        <ele>51</ele>
        <time>2013-09-16T13:32:59.000Z</time>
      </trkpt>
      <trkpt lat="43.20982" lon="6.6212">
        <ele>52</ele>
        <time>2013-09-16T13:33:00.000Z</time>
      </trkpt>
      <trkpt lat="43.2098" lon="6.62118">
        <ele>52</ele>
        <time>2013-09-16T13:33:01.000Z</time>
      </trkpt>
      <trkpt lat="43.20978" lon="6.62116">
        <ele>52</ele>
        <time>2013-09-16T13:33:02.000Z</time>
      </trkpt>
      <trkpt lat="43.20976" lon="6.62114">
        <ele>52</ele>
        <time>2013-09-16T13:33:03.000Z</time>
      </trkpt>
      <trkpt lat="43.20973" lon="6.62113">
        <ele>52</ele>
        <time>2013-09-16T13:33:04.000Z</time>
      </trkpt>
      <trkpt lat="43.20971" lon="6.62112">
        <ele>52</ele>
        <time>2013-09-16T13:33:05.000Z</time>
      </trkpt>
      <trkpt lat="43.20968" lon="6.62111">
        <ele>52</ele>
        <time>2013-09-16T13:33:06.000Z</time>
      </trkpt>
      <trkpt lat="43.20966" lon="6.62109">
        <ele>52</ele>
        <time>2013-09-16T13:33:07.000Z</time>
      </trkpt>
      <trkpt lat="43.20963" lon="6.62108">
        <ele>52</ele>
        <time>2013-09-16T13:33:08.000Z</time>
      </trkpt>
      <trkpt lat="43.2096" lon="6.62107">
        <ele>52</ele>
        <time>2013-09-16T13:33:09.000Z</time>
      </trkpt>
      <trkpt lat="43.20958" lon="6.62106">
        <ele>52</ele>
        <time>2013-09-16T13:33:10.000Z</time>
      </trkpt>
      <trkpt lat="43.20955" lon="6.62105">
        <ele>52</ele>
        <time>2013-09-16T13:33:11.000Z</time>
      </trkpt>
      <trkpt lat="43.20952" lon="6.62104">
        <ele>52</ele>
        <time>2013-09-16T13:33:12.000Z</time>
      </trkpt>
      <trkpt lat="43.2095" lon="6.62104">
        <ele>52</ele>
        <time>2013-09-16T13:33:13.000Z</time>
      </trkpt>
      <trkpt lat="43.20947" lon="6.62103">
        <ele>52</ele>
        <time>2013-09-16T13:33:14.000Z</time>
      </trkpt>
      <trkpt lat="43.20944" lon="6.62102">
        <ele>52</ele>
        <time>2013-09-16T13:33:15.000Z</time>
      </trkpt>
      <trkpt lat="43.20941" lon="6.62102">
        <ele>52</ele>
        <time>2013-09-16T13:33:16.000Z</time>
      </trkpt>
      <trkpt lat="43.20938" lon="6.62101">
        <ele>52</ele>
        <time>2013-09-16T13:33:17.000Z</time>
      </trkpt>
      <trkpt lat="43.20934" lon="6.62101">
        <ele>52</ele>
        <time>2013-09-16T13:33:18.000Z</time>
      </trkpt>
      <trkpt lat="43.20931" lon="6.621">
        <ele>52</ele>
        <time>2013-09-16T13:33:19.000Z</time>
      </trkpt>
      <trkpt lat="43.20928" lon="6.621">
        <ele>52</ele>
        <time>2013-09-16T13:33:20.000Z</time>
      </trkpt>
      <trkpt lat="43.20924" lon="6.621">
        <ele>52</ele>
        <time>2013-09-16T13:33:21.000Z</time>
      </trkpt>
      <trkpt lat="43.20921" lon="6.621">
        <ele>52</ele>
        <time>2013-09-16T13:33:22.000Z</time>
      </trkpt>
      <trkpt lat="43.20917" lon="6.62101">
        <ele>52</ele>
        <time>2013-09-16T13:33:23.000Z</time>
      </trkpt>
      <trkpt lat="43.20914" lon="6.62101">
        <ele>52</ele>
        <time>2013-09-16T13:33:24.000Z</time>
      </trkpt>
      <trkpt lat="43.2091" lon="6.62102">
        <ele>52</ele>
        <time>2013-09-16T13:33:25.000Z</time>
      </trkpt>
      <trkpt lat="43.20906" lon="6.62104">
        <ele>51</ele>
        <time>2013-09-16T13:33:26.000Z</time>
      </trkpt>
      <trkpt lat="43.20902" lon="6.62105">
        <ele>51</ele>
        <time>2013-09-16T13:33:27.000Z</time>
      </trkpt>
      <trkpt lat="43.20898" lon="6.62107">
        <ele>51</ele>
        <time>2013-09-16T13:33:28.000Z</time>
      </trkpt>
      <trkpt lat="43.20894" lon="6.62109">
        <ele>51</ele>
        <time>2013-09-16T13:33:29.000Z</time>
      </trkpt>
      <trkpt lat="43.2089" lon="6.62111">
        <ele>50</ele>
        <time>2013-09-16T13:33:30.000Z</time>
      </trkpt>
      <trkpt lat="43.20885" lon="6.62114">
        <ele>50</ele>
        <time>2013-09-16T13:33:31.000Z</time>
      </trkpt>
      <trkpt lat="43.20881" lon="6.62117">
        <ele>50</ele>
        <time>2013-09-16T13:33:32.000Z</time>
      </trkpt>
      <trkpt lat="43.20876" lon="6.6212">
        <ele>50</ele>
        <time>2013-09-16T13:33:33.000Z</time>
      </trkpt>
      <trkpt lat="43.20872" lon="6.62123">
        <ele>50</ele>
        <time>2013-09-16T13:33:34.000Z</time>
      </trkpt>
      <trkpt lat="43.20867" lon="6.62127">
        <ele>50</ele>
        <time>2013-09-16T13:33:35.000Z</time>
      </trkpt>
      <trkpt lat="43.20862" lon="6.6213">
        <ele>50</ele>
        <time>2013-09-16T13:33:36.000Z</time>
      </trkpt>
      <trkpt lat="43.20857" lon="6.62134">
        <ele>49</ele>
        <time>2013-09-16T13:33:37.000Z</time>
      </trkpt>
      <trkpt lat="43.20852" lon="6.62137">
        <ele>49</ele>
        <time>2013-09-16T13:33:38.000Z</time>
      </trkpt>
      <trkpt lat="43.20847" lon="6.62141">
        <ele>49</ele>
        <time>2013-09-16T13:33:39.000Z</time>
      </trkpt>
      <trkpt lat="43.20841" lon="6.62145">
        <ele>49</ele>
        <time>2013-09-16T13:33:40.000Z</time>
      </trkpt>
      <trkpt lat="43.20835" lon="6.62149">
        <ele>48</ele>
        <time>2013-09-16T13:33:41.000Z</time>
      </trkpt>
      <trkpt lat="43.2083" lon="6.62153">
        <ele>47</ele>
        <time>2013-09-16T13:33:42.000Z</time>
      </trkpt>
      <trkpt lat="43.20823" lon="6.62156">
        <ele>47</ele>
        <time>2013-09-16T13:33:43.000Z</time>
      </trkpt>
      <trkpt lat="43.20817" lon="6.6216">
        <ele>47</ele>
        <time>2013-09-16T13:33:44.000Z</time>
      </trkpt>
      <trkpt lat="43.20811" lon="6.62164">
        <ele>47</ele>
        <time>2013-09-16T13:33:45.000Z</time>
      </trkpt>
      <trkpt lat="43.20805" lon="6.62168">
        <ele>45</ele>
        <time>2013-09-16T13:33:46.000Z</time>
      </trkpt>
      <trkpt lat="43.20799" lon="6.62172">
        <ele>45</ele>
        <time>2013-09-16T13:33:47.000Z</time>
      </trkpt>
      <trkpt lat="43.20793" lon="6.62176">
        <ele>45</ele>
        <time>2013-09-16T13:33:48.000Z</time>
      </trkpt>
      <trkpt lat="43.20787" lon="6.6218">
        <ele>45</ele>
        <time>2013-09-16T13:33:49.000Z</time>
      </trkpt>
      <trkpt lat="43.2078" lon="6.62184">
        <ele>44</ele>
        <time>2013-09-16T13:33:50.000Z</time>
      </trkpt>
      <trkpt lat="43.20773" lon="6.62188">
        <ele>44</ele>
        <time>2013-09-16T13:33:51.000Z</time>
      </trkpt>
      <trkpt lat="43.20766" lon="6.62191">
        <ele>44</ele>
        <time>2013-09-16T13:33:52.000Z</time>
      </trkpt>
      <trkpt lat="43.20759" lon="6.62194">
        <ele>44</ele>
        <time>2013-09-16T13:33:53.000Z</time>
      </trkpt>
      <trkpt lat="43.20752" lon="6.62197">
        <ele>44</ele>
        <time>2013-09-16T13:33:54.000Z</time>
      </trkpt>
      <trkpt lat="43.20745" lon="6.622">
        <ele>43</ele>
        <time>2013-09-16T13:33:55.000Z</time>
      </trkpt>
      <trkpt lat="43.20738" lon="6.62201">
        <ele>43</ele>
        <time>2013-09-16T13:33:56.000Z</time>
      </trkpt>
      <trkpt lat="43.20731" lon="6.62203">
        <ele>43</ele>
        <time>2013-09-16T13:33:57.000Z</time>
      </trkpt>
      <trkpt lat="43.20723" lon="6.62204">
        <ele>43</ele>
        <time>2013-09-16T13:33:58.000Z</time>
      </trkpt>
      <trkpt lat="43.20716" lon="6.62205">
        <ele>43</ele>
        <time>2013-09-16T13:33:59.000Z</time>
      </trkpt>
      <trkpt lat="43.20709" lon="6.62205">
        <ele>43</ele>
        <time>2013-09-16T13:34:00.000Z</time>
      </trkpt>
      <trkpt lat="43.20702" lon="6.62205">
        <ele>43</ele>
        <time>2013-09-16T13:34:01.000Z</time>
      </trkpt>
      <trkpt lat="43.20694" lon="6.62205">
        <ele>42</ele>
        <time>2013-09-16T13:34:02.000Z</time>
      </trkpt>
      <trkpt lat="43.20687" lon="6.62205">
        <ele>42</ele>
        <time>2013-09-16T13:34:03.000Z</time>
      </trkpt>
      <trkpt lat="43.2068" lon="6.62204">
        <ele>42</ele>
        <time>2013-09-16T13:34:04.000Z</time>
      </trkpt>
      <trkpt lat="43.20674" lon="6.62204">
        <ele>42</ele>
        <time>2013-09-16T13:34:05.000Z</time>
      </trkpt>
      <trkpt lat="43.20667" lon="6.62204">
        <ele>42</ele>
        <time>2013-09-16T13:34:06.000Z</time>
      </trkpt>
      <trkpt lat="43.20661" lon="6.62203">
        <ele>42</ele>
        <time>2013-09-16T13:34:07.000Z</time>
      </trkpt>
      <trkpt lat="43.20655" lon="6.62203">
        <ele>42</ele>
        <time>2013-09-16T13:34:08.000Z</time>
      </trkpt>
      <trkpt lat="43.20649" lon="6.62202">
        <ele>42</ele>
        <time>2013-09-16T13:34:09.000Z</time>
      </trkpt>
      <trkpt lat="43.20643" lon="6.62202">
        <ele>42</ele>
        <time>2013-09-16T13:34:10.000Z</time>
      </trkpt>
      <trkpt lat="43.20638" lon="6.62202">
        <ele>42</ele>
        <time>2013-09-16T13:34:11.000Z</time>
      </trkpt>
      <trkpt lat="43.20633" lon="6.62201">
        <ele>42</ele>
        <time>2013-09-16T13:34:12.000Z</time>
      </trkpt>
      <trkpt lat="43.20628" lon="6.62201">
        <ele>42</ele>
        <time>2013-09-16T13:34:13.000Z</time>
      </trkpt>
      <trkpt lat="43.20623" lon="6.622">
        <ele>42</ele>
        <time>2013-09-16T13:34:14.000Z</time>
      </trkpt>
      <trkpt lat="43.20618" lon="6.622">
        <ele>42</ele>
        <time>2013-09-16T13:34:15.000Z</time>
      </trkpt>
      <trkpt lat="43.20613" lon="6.622">
        <ele>42</ele>
        <time>2013-09-16T13:34:16.000Z</time>
      </trkpt>
      <trkpt lat="43.20608" lon="6.62199">
        <ele>42</ele>
        <time>2013-09-16T13:34:17.000Z</time>
      </trkpt>
      <trkpt lat="43.20603" lon="6.62199">
        <ele>42</ele>
        <time>2013-09-16T13:34:18.000Z</time>
      </trkpt>
      <trkpt lat="43.20598" lon="6.62199">
        <ele>42</ele>
        <time>2013-09-16T13:34:19.000Z</time>
      </trkpt>
      <trkpt lat="43.20594" lon="6.62198">
        <ele>42</ele>
        <time>2013-09-16T13:34:20.000Z</time>
      </trkpt>
      <trkpt lat="43.20589" lon="6.62198">
        <ele>42</ele>
        <time>2013-09-16T13:34:21.000Z</time>
      </trkpt>
      <trkpt lat="43.20585" lon="6.62198">
        <ele>42</ele>
        <time>2013-09-16T13:34:22.000Z</time>
      </trkpt>
      <trkpt lat="43.2058" lon="6.62197">
        <ele>42</ele>
        <time>2013-09-16T13:34:23.000Z</time>
      </trkpt>
      <trkpt lat="43.20576" lon="6.62197">
        <ele>42</ele>
        <time>2013-09-16T13:34:24.000Z</time>
      </trkpt>
      <trkpt lat="43.20571" lon="6.62197">
        <ele>42</ele>
        <time>2013-09-16T13:34:25.000Z</time>
      </trkpt>
      <trkpt lat="43.20566" lon="6.62196">
        <ele>42</ele>
        <time>2013-09-16T13:34:26.000Z</time>
      </trkpt>
      <trkpt lat="43.20562" lon="6.62196">
        <ele>42</ele>
        <time>2013-09-16T13:34:27.000Z</time>
      </trkpt>
      <trkpt lat="43.20557" lon="6.62196">
        <ele>42</ele>
        <time>2013-09-16T13:34:28.000Z</time>
      </trkpt>
      <trkpt lat="43.20552" lon="6.62196">
        <ele>42</ele>
        <time>2013-09-16T13:34:29.000Z</time>
      </trkpt>
      <trkpt lat="43.20548" lon="6.62195">
        <ele>42</ele>
        <time>2013-09-16T13:34:30.000Z</time>
      </trkpt>
      <trkpt lat="43.20543" lon="6.62195">
        <ele>42</ele>
        <time>2013-09-16T13:34:31.000Z</time>
      </trkpt>
      <trkpt lat="43.20538" lon="6.62195">
        <ele>42</ele>
        <time>2013-09-16T13:34:32.000Z</time>
      </trkpt>
      <trkpt lat="43.20534" lon="6.62194">
        <ele>42</ele>
        <time>2013-09-16T13:34:33.000Z</time>
      </trkpt>
      <trkpt lat="43.20529" lon="6.62193">
        <ele>42</ele>
        <time>2013-09-16T13:34:34.000Z</time>
      </trkpt>
      <trkpt lat="43.20524" lon="6.62192">
        <ele>42</ele>
        <time>2013-09-16T13:34:35.000Z</time>
      </trkpt>
      <trkpt lat="43.2052" lon="6.6219">
        <ele>42</ele>
        <time>2013-09-16T13:34:36.000Z</time>
      </trkpt>
      <trkpt lat="43.20515" lon="6.62188">
        <ele>42</ele>
        <time>2013-09-16T13:34:37.000Z</time>
      </trkpt>
      <trkpt lat="43.20511" lon="6.62186">
        <ele>43</ele>
        <time>2013-09-16T13:34:38.000Z</time>
      </trkpt>
      <trkpt lat="43.20507" lon="6.62184">
        <ele>43</ele>
        <time>2013-09-16T13:34:39.000Z</time>
      </trkpt>
      <trkpt lat="43.20503" lon="6.62181">
        <ele>43</ele>
        <time>2013-09-16T13:34:40.000Z</time>
      </trkpt>
      <trkpt lat="43.205" lon="6.62179">
        <ele>43</ele>
        <time>2013-09-16T13:34:41.000Z</time>
      </trkpt>
      <trkpt lat="43.20497" lon="6.62176">
        <ele>44</ele>
        <time>2013-09-16T13:34:42.000Z</time>
      </trkpt>
      <trkpt lat="43.20494" lon="6.62173">
        <ele>44</ele>
        <time>2013-09-16T13:34:43.000Z</time>
      </trkpt>
      <trkpt lat="43.20492" lon="6.62171">
        <ele>44</ele>
        <time>2013-09-16T13:34:44.000Z</time>
      </trkpt>
      <trkpt lat="43.2049" lon="6.62168">
        <ele>44</ele>
        <time>2013-09-16T13:34:45.000Z</time>
      </trkpt>
      <trkpt lat="43.20488" lon="6.62166">
        <ele>45</ele>
        <time>2013-09-16T13:34:46.000Z</time>
      </trkpt>
      <trkpt lat="43.20486" lon="6.62164">
        <ele>45</ele>
        <time>2013-09-16T13:34:47.000Z</time>
      </trkpt>
      <trkpt lat="43.20484" lon="6.62161">
        <ele>45</ele>
        <time>2013-09-16T13:34:48.000Z</time>
      </trkpt>
      <trkpt lat="43.20482" lon="6.62158">
        <ele>46</ele>
        <time>2013-09-16T13:34:49.000Z</time>
      </trkpt>
      <trkpt lat="43.20481" lon="6.62156">
        <ele>46</ele>
        <time>2013-09-16T13:34:50.000Z</time>
      </trkpt>
      <trkpt lat="43.20479" lon="6.62154">
        <ele>46</ele>
        <time>2013-09-16T13:34:51.000Z</time>
      </trkpt>
      <trkpt lat="43.20478" lon="6.62151">
        <ele>46</ele>
        <time>2013-09-16T13:34:52.000Z</time>
      </trkpt>
      <trkpt lat="43.20476" lon="6.62149">
        <ele>46</ele>
        <time>2013-09-16T13:34:53.000Z</time>
      </trkpt>
      <trkpt lat="43.20475" lon="6.62146">
        <ele>46</ele>
        <time>2013-09-16T13:34:54.000Z</time>
      </trkpt>
      <trkpt lat="43.20474" lon="6.62144">
        <ele>46</ele>
        <time>2013-09-16T13:34:55.000Z</time>
      </trkpt>
      <trkpt lat="43.20472" lon="6.62142">
        <ele>46</ele>
        <time>2013-09-16T13:34:56.000Z</time>
      </trkpt>
      <trkpt lat="43.20471" lon="6.6214">
        <ele>46</ele>
        <time>2013-09-16T13:34:57.000Z</time>
      </trkpt>
      <trkpt lat="43.20469" lon="6.62137">
        <ele>47</ele>
        <time>2013-09-16T13:34:58.000Z</time>
      </trkpt>
      <trkpt lat="43.20468" lon="6.62135">
        <ele>47</ele>
        <time>2013-09-16T13:34:59.000Z</time>
      </trkpt>
      <trkpt lat="43.20467" lon="6.62133">
        <ele>47</ele>
        <time>2013-09-16T13:35:00.000Z</time>
      </trkpt>
      <trkpt lat="43.20465" lon="6.6213">
        <ele>47</ele>
        <time>2013-09-16T13:35:01.000Z</time>
      </trkpt>
      <trkpt lat="43.20464" lon="6.62128">
        <ele>47</ele>
        <time>2013-09-16T13:35:02.000Z</time>
      </trkpt>
      <trkpt lat="43.20462" lon="6.62126">
        <ele>47</ele>
        <time>2013-09-16T13:35:03.000Z</time>
      </trkpt>
      <trkpt lat="43.20461" lon="6.62123">
        <ele>47</ele>
        <time>2013-09-16T13:35:04.000Z</time>
      </trkpt>
      <trkpt lat="43.2046" lon="6.6212">
        <ele>47</ele>
        <time>2013-09-16T13:35:05.000Z</time>
      </trkpt>
      <trkpt lat="43.20459" lon="6.62118">
        <ele>47</ele>
        <time>2013-09-16T13:35:06.000Z</time>
      </trkpt>
      <trkpt lat="43.20458" lon="6.62116">
        <ele>47</ele>
        <time>2013-09-16T13:35:07.000Z</time>
      </trkpt>
      <trkpt lat="43.20456" lon="6.62113">
        <ele>47</ele>
        <time>2013-09-16T13:35:08.000Z</time>
      </trkpt>
      <trkpt lat="43.20455" lon="6.62111">
        <ele>47</ele>
        <time>2013-09-16T13:35:09.000Z</time>
      </trkpt>
      <trkpt lat="43.20453" lon="6.62108">
        <ele>47</ele>
        <time>2013-09-16T13:35:10.000Z</time>
      </trkpt>
      <trkpt lat="43.20452" lon="6.62106">
        <ele>48</ele>
        <time>2013-09-16T13:35:11.000Z</time>
      </trkpt>
      <trkpt lat="43.20451" lon="6.62104">
        <ele>48</ele>
        <time>2013-09-16T13:35:12.000Z</time>
      </trkpt>
      <trkpt lat="43.2045" lon="6.62101">
        <ele>48</ele>
        <time>2013-09-16T13:35:13.000Z</time>
      </trkpt>
      <trkpt lat="43.20449" lon="6.62099">
        <ele>48</ele>
        <time>2013-09-16T13:35:14.000Z</time>
      </trkpt>
      <trkpt lat="43.20448" lon="6.62096">
        <ele>48</ele>
        <time>2013-09-16T13:35:15.000Z</time>
      </trkpt>
      <trkpt lat="43.20446" lon="6.62094">
        <ele>48</ele>
        <time>2013-09-16T13:35:16.000Z</time>
      </trkpt>
      <trkpt lat="43.20445" lon="6.62092">
        <ele>48</ele>
        <time>2013-09-16T13:35:17.000Z</time>
      </trkpt>
      <trkpt lat="43.20444" lon="6.6209">
        <ele>48</ele>
        <time>2013-09-16T13:35:18.000Z</time>
      </trkpt>
      <trkpt lat="43.20443" lon="6.62087">
        <ele>48</ele>
        <time>2013-09-16T13:35:19.000Z</time>
      </trkpt>
      <trkpt lat="43.20441" lon="6.62085">
        <ele>48</ele>
        <time>2013-09-16T13:35:20.000Z</time>
      </trkpt>
      <trkpt lat="43.2044" lon="6.62083">
        <ele>51</ele>
        <time>2013-09-16T13:35:21.000Z</time>
      </trkpt>
      <trkpt lat="43.20439" lon="6.6208">
        <ele>51</ele>
        <time>2013-09-16T13:35:22.000Z</time>
      </trkpt>
      <trkpt lat="43.20437" lon="6.62078">
        <ele>51</ele>
        <time>2013-09-16T13:35:23.000Z</time>
      </trkpt>
      <trkpt lat="43.20435" lon="6.62075">
        <ele>51</ele>
        <time>2013-09-16T13:35:24.000Z</time>
      </trkpt>
      <trkpt lat="43.20434" lon="6.62073">
        <ele>51</ele>
        <time>2013-09-16T13:35:25.000Z</time>
      </trkpt>
      <trkpt lat="43.20432" lon="6.6207">
        <ele>51</ele>
        <time>2013-09-16T13:35:26.000Z</time>
      </trkpt>
      <trkpt lat="43.2043" lon="6.62068">
        <ele>51</ele>
        <time>2013-09-16T13:35:27.000Z</time>
      </trkpt>
      <trkpt lat="43.20428" lon="6.62065">
        <ele>52</ele>
        <time>2013-09-16T13:35:28.000Z</time>
      </trkpt>
      <trkpt lat="43.20426" lon="6.62063">
        <ele>52</ele>
        <time>2013-09-16T13:35:29.000Z</time>
      </trkpt>
      <trkpt lat="43.20424" lon="6.6206">
        <ele>52</ele>
        <time>2013-09-16T13:35:30.000Z</time>
      </trkpt>
      <trkpt lat="43.20421" lon="6.62057">
        <ele>52</ele>
        <time>2013-09-16T13:35:31.000Z</time>
      </trkpt>
      <trkpt lat="43.20418" lon="6.62054">
        <ele>52</ele>
        <time>2013-09-16T13:35:32.000Z</time>
      </trkpt>
      <trkpt lat="43.20415" lon="6.62051">
        <ele>51</ele>
        <time>2013-09-16T13:35:33.000Z</time>
      </trkpt>
      <trkpt lat="43.20412" lon="6.62049">
        <ele>51</ele>
        <time>2013-09-16T13:35:34.000Z</time>
      </trkpt>
      <trkpt lat="43.20408" lon="6.62046">
        <ele>51</ele>
        <time>2013-09-16T13:35:35.000Z</time>
      </trkpt>
      <trkpt lat="43.20405" lon="6.62044">
        <ele>51</ele>
        <time>2013-09-16T13:35:36.000Z</time>
      </trkpt>
      <trkpt lat="43.20401" lon="6.62042">
        <ele>51</ele>
        <time>2013-09-16T13:35:37.000Z</time>
      </trkpt>
      <trkpt lat="43.20397" lon="6.6204">
        <ele>51</ele>
        <time>2013-09-16T13:35:38.000Z</time>
      </trkpt>
      <trkpt lat="43.20393" lon="6.62038">
        <ele>51</ele>
        <time>2013-09-16T13:35:39.000Z</time>
      </trkpt>
      <trkpt lat="43.20389" lon="6.62036">
        <ele>51</ele>
        <time>2013-09-16T13:35:40.000Z</time>
      </trkpt>
      <trkpt lat="43.20385" lon="6.62034">
        <ele>51</ele>
        <time>2013-09-16T13:35:41.000Z</time>
      </trkpt>
      <trkpt lat="43.20381" lon="6.62032">
        <ele>51</ele>
        <time>2013-09-16T13:35:42.000Z</time>
      </trkpt>
      <trkpt lat="43.20376" lon="6.6203">
        <ele>51</ele>
        <time>2013-09-16T13:35:43.000Z</time>
      </trkpt>
      <trkpt lat="43.20372" lon="6.62028">
        <ele>51</ele>
        <time>2013-09-16T13:35:44.000Z</time>
      </trkpt>
      <trkpt lat="43.20367" lon="6.62026">
        <ele>51</ele>
        <time>2013-09-16T13:35:45.000Z</time>
      </trkpt>
      <trkpt lat="43.20363" lon="6.62024">
        <ele>51</ele>
        <time>2013-09-16T13:35:46.000Z</time>
      </trkpt>
      <trkpt lat="43.20358" lon="6.62022">
        <ele>50</ele>
        <time>2013-09-16T13:35:47.000Z</time>
      </trkpt>
      <trkpt lat="43.20354" lon="6.6202">
        <ele>50</ele>
        <time>2013-09-16T13:35:48.000Z</time>
      </trkpt>
      <trkpt lat="43.20349" lon="6.62018">
        <ele>50</ele>
        <time>2013-09-16T13:35:49.000Z</time>
      </trkpt>
      <trkpt lat="43.20345" lon="6.62016">
        <ele>50</ele>
        <time>2013-09-16T13:35:50.000Z</time>
      </trkpt>
      <trkpt lat="43.20341" lon="6.62015">
        <ele>50</ele>
        <time>2013-09-16T13:35:51.000Z</time>
      </trkpt>
      <trkpt lat="43.20337" lon="6.62014">
        <ele>50</ele>
        <time>2013-09-16T13:35:52.000Z</time>
      </trkpt>
      <trkpt lat="43.20333" lon="6.62012">
        <ele>49</ele>
        <time>2013-09-16T13:35:53.000Z</time>
      </trkpt>
      <trkpt lat="43.20329" lon="6.62011">
        <ele>49</ele>
        <time>2013-09-16T13:35:54.000Z</time>
      </trkpt>
      <trkpt lat="43.20325" lon="6.62009">
        <ele>49</ele>
        <time>2013-09-16T13:35:55.000Z</time>
      </trkpt>
      <trkpt lat="43.20321" lon="6.62008">
        <ele>49</ele>
        <time>2013-09-16T13:35:56.000Z</time>
      </trkpt>
      <trkpt lat="43.20317" lon="6.62006">
        <ele>48</ele>
        <time>2013-09-16T13:35:57.000Z</time>
      </trkpt>
      <trkpt lat="43.20313" lon="6.62005">
        <ele>48</ele>
        <time>2013-09-16T13:35:58.000Z</time>
      </trkpt>
      <trkpt lat="43.20309" lon="6.62003">
        <ele>48</ele>
        <time>2013-09-16T13:35:59.000Z</time>
      </trkpt>
      <trkpt lat="43.20304" lon="6.62001">
        <ele>48</ele>
        <time>2013-09-16T13:36:00.000Z</time>
      </trkpt>
      <trkpt lat="43.20301" lon="6.62">
        <ele>50</ele>
        <time>2013-09-16T13:36:01.000Z</time>
      </trkpt>
      <trkpt lat="43.20297" lon="6.61998">
        <ele>50</ele>
        <time>2013-09-16T13:36:02.000Z</time>
      </trkpt>
      <trkpt lat="43.20294" lon="6.61997">
        <ele>50</ele>
        <time>2013-09-16T13:36:03.000Z</time>
      </trkpt>
      <trkpt lat="43.2029" lon="6.61995">
        <ele>50</ele>
        <time>2013-09-16T13:36:04.000Z</time>
      </trkpt>
      <trkpt lat="43.20287" lon="6.61994">
        <ele>50</ele>
        <time>2013-09-16T13:36:05.000Z</time>
      </trkpt>
      <trkpt lat="43.20284" lon="6.61992">
        <ele>50</ele>
        <time>2013-09-16T13:36:06.000Z</time>
      </trkpt>
      <trkpt lat="43.20281" lon="6.61991">
        <ele>50</ele>
        <time>2013-09-16T13:36:07.000Z</time>
      </trkpt>
      <trkpt lat="43.20278" lon="6.61989">
        <ele>50</ele>
        <time>2013-09-16T13:36:08.000Z</time>
      </trkpt>
      <trkpt lat="43.20275" lon="6.61988">
        <ele>50</ele>
        <time>2013-09-16T13:36:09.000Z</time>
      </trkpt>
      <trkpt lat="43.20272" lon="6.61986">
        <ele>50</ele>
        <time>2013-09-16T13:36:10.000Z</time>
      </trkpt>
      <trkpt lat="43.20268" lon="6.61985">
        <ele>50</ele>
        <time>2013-09-16T13:36:11.000Z</time>
      </trkpt>
      <trkpt lat="43.20265" lon="6.61983">
        <ele>49</ele>
        <time>2013-09-16T13:36:12.000Z</time>
      </trkpt>
      <trkpt lat="43.20262" lon="6.61981">
        <ele>49</ele>
        <time>2013-09-16T13:36:13.000Z</time>
      </trkpt>
      <trkpt lat="43.20259" lon="6.61978">
        <ele>50</ele>
        <time>2013-09-16T13:36:14.000Z</time>
      </trkpt>
      <trkpt lat="43.20255" lon="6.61976">
        <ele>50</ele>
        <time>2013-09-16T13:36:15.000Z</time>
      </trkpt>
      <trkpt lat="43.20252" lon="6.61974">
        <ele>50</ele>
        <time>2013-09-16T13:36:16.000Z</time>
      </trkpt>
      <trkpt lat="43.20249" lon="6.61972">
        <ele>49</ele>
        <time>2013-09-16T13:36:17.000Z</time>
      </trkpt>
      <trkpt lat="43.20245" lon="6.6197">
        <ele>49</ele>
        <time>2013-09-16T13:36:18.000Z</time>
      </trkpt>
      <trkpt lat="43.20242" lon="6.61967">
        <ele>49</ele>
        <time>2013-09-16T13:36:19.000Z</time>
      </trkpt>
      <trkpt lat="43.20239" lon="6.61965">
        <ele>50</ele>
        <time>2013-09-16T13:36:20.000Z</time>
      </trkpt>
      <trkpt lat="43.20235" lon="6.61963">
        <ele>50</ele>
        <time>2013-09-16T13:36:21.000Z</time>
      </trkpt>
      <trkpt lat="43.20232" lon="6.6196">
        <ele>50</ele>
        <time>2013-09-16T13:36:22.000Z</time>
      </trkpt>
      <trkpt lat="43.20228" lon="6.61958">
        <ele>50</ele>
        <time>2013-09-16T13:36:23.000Z</time>
      </trkpt>
      <trkpt lat="43.20225" lon="6.61956">
        <ele>50</ele>
        <time>2013-09-16T13:36:24.000Z</time>
      </trkpt>
      <trkpt lat="43.20221" lon="6.61953">
        <ele>50</ele>
        <time>2013-09-16T13:36:25.000Z</time>
      </trkpt>
      <trkpt lat="43.20218" lon="6.6195">
        <ele>50</ele>
        <time>2013-09-16T13:36:26.000Z</time>
      </trkpt>
      <trkpt lat="43.20215" lon="6.61947">
        <ele>50</ele>
        <time>2013-09-16T13:36:27.000Z</time>
      </trkpt>
      <trkpt lat="43.20211" lon="6.61944">
        <ele>50</ele>
        <time>2013-09-16T13:36:28.000Z</time>
      </trkpt>
      <trkpt lat="43.20208" lon="6.61941">
        <ele>50</ele>
        <time>2013-09-16T13:36:29.000Z</time>
      </trkpt>
      <trkpt lat="43.20205" lon="6.61938">
        <ele>50</ele>
        <time>2013-09-16T13:36:30.000Z</time>
      </trkpt>
      <trkpt lat="43.20202" lon="6.61934">
        <ele>50</ele>
        <time>2013-09-16T13:36:31.000Z</time>
      </trkpt>
      <trkpt lat="43.20199" lon="6.6193">
        <ele>51</ele>
        <time>2013-09-16T13:36:32.000Z</time>
      </trkpt>
      <trkpt lat="43.20196" lon="6.61925">
        <ele>51</ele>
        <time>2013-09-16T13:36:33.000Z</time>
      </trkpt>
      <trkpt lat="43.20193" lon="6.61921">
        <ele>51</ele>
        <time>2013-09-16T13:36:34.000Z</time>
      </trkpt>
      <trkpt lat="43.2019" lon="6.61917">
        <ele>51</ele>
        <time>2013-09-16T13:36:35.000Z</time>
      </trkpt>
      <trkpt lat="43.20187" lon="6.61913">
        <ele>53</ele>
        <time>2013-09-16T13:36:36.000Z</time>
      </trkpt>
      <trkpt lat="43.20184" lon="6.61909">
        <ele>53</ele>
        <time>2013-09-16T13:36:37.000Z</time>
      </trkpt>
      <trkpt lat="43.20181" lon="6.61905">
        <ele>53</ele>
        <time>2013-09-16T13:36:38.000Z</time>
      </trkpt>
      <trkpt lat="43.20178" lon="6.61902">
        <ele>53</ele>
        <time>2013-09-16T13:36:39.000Z</time>
      </trkpt>
      <trkpt lat="43.20175" lon="6.61899">
        <ele>53</ele>
        <time>2013-09-16T13:36:40.000Z</time>
      </trkpt>
      <trkpt lat="43.20171" lon="6.61896">
        <ele>53</ele>
        <time>2013-09-16T13:36:41.000Z</time>
      </trkpt>
      <trkpt lat="43.20167" lon="6.61893">
        <ele>54</ele>
        <time>2013-09-16T13:36:42.000Z</time>
      </trkpt>
      <trkpt lat="43.20163" lon="6.61891">
        <ele>52</ele>
        <time>2013-09-16T13:36:43.000Z</time>
      </trkpt>
      <trkpt lat="43.20159" lon="6.6189">
        <ele>52</ele>
        <time>2013-09-16T13:36:44.000Z</time>
      </trkpt>
      <trkpt lat="43.20155" lon="6.61888">
        <ele>52</ele>
        <time>2013-09-16T13:36:45.000Z</time>
      </trkpt>
      <trkpt lat="43.20151" lon="6.61886">
        <ele>52</ele>
        <time>2013-09-16T13:36:46.000Z</time>
      </trkpt>
      <trkpt lat="43.20147" lon="6.61886">
        <ele>52</ele>
        <time>2013-09-16T13:36:47.000Z</time>
      </trkpt>
      <trkpt lat="43.20143" lon="6.61884">
        <ele>52</ele>
        <time>2013-09-16T13:36:48.000Z</time>
      </trkpt>
      <trkpt lat="43.20139" lon="6.61882">
        <ele>52</ele>
        <time>2013-09-16T13:36:49.000Z</time>
      </trkpt>
      <trkpt lat="43.20135" lon="6.61881">
        <ele>52</ele>
        <time>2013-09-16T13:36:50.000Z</time>
      </trkpt>
      <trkpt lat="43.20131" lon="6.61879">
        <ele>52</ele>
        <time>2013-09-16T13:36:51.000Z</time>
      </trkpt>
      <trkpt lat="43.20127" lon="6.61876">
        <ele>52</ele>
        <time>2013-09-16T13:36:52.000Z</time>
      </trkpt>
      <trkpt lat="43.20124" lon="6.61874">
        <ele>52</ele>
        <time>2013-09-16T13:36:53.000Z</time>
      </trkpt>
      <trkpt lat="43.2012" lon="6.61871">
        <ele>52</ele>
        <time>2013-09-16T13:36:54.000Z</time>
      </trkpt>
      <trkpt lat="43.20117" lon="6.61868">
        <ele>52</ele>
        <time>2013-09-16T13:36:55.000Z</time>
      </trkpt>
      <trkpt lat="43.20114" lon="6.61864">
        <ele>52</ele>
        <time>2013-09-16T13:36:56.000Z</time>
      </trkpt>
      <trkpt lat="43.20112" lon="6.6186">
        <ele>52</ele>
        <time>2013-09-16T13:36:57.000Z</time>
      </trkpt>
      <trkpt lat="43.2011" lon="6.61856">
        <ele>52</ele>
        <time>2013-09-16T13:36:58.000Z</time>
      </trkpt>
      <trkpt lat="43.20109" lon="6.61852">
        <ele>52</ele>
        <time>2013-09-16T13:36:59.000Z</time>
      </trkpt>
      <trkpt lat="43.20107" lon="6.61849">
        <ele>52</ele>
        <time>2013-09-16T13:37:00.000Z</time>
      </trkpt>
      <trkpt lat="43.20105" lon="6.61845">
        <ele>52</ele>
        <time>2013-09-16T13:37:01.000Z</time>
      </trkpt>
      <trkpt lat="43.20103" lon="6.61841">
        <ele>52</ele>
        <time>2013-09-16T13:37:02.000Z</time>
      </trkpt>
      <trkpt lat="43.201" lon="6.61838">
        <ele>52</ele>
        <time>2013-09-16T13:37:03.000Z</time>
      </trkpt>
      <trkpt lat="43.20098" lon="6.61834">
        <ele>52</ele>
        <time>2013-09-16T13:37:04.000Z</time>
      </trkpt>
      <trkpt lat="43.20096" lon="6.6183">
        <ele>53</ele>
        <time>2013-09-16T13:37:05.000Z</time>
      </trkpt>
      <trkpt lat="43.20094" lon="6.61826">
        <ele>53</ele>
        <time>2013-09-16T13:37:06.000Z</time>
      </trkpt>
      <trkpt lat="43.20091" lon="6.61822">
        <ele>53</ele>
        <time>2013-09-16T13:37:07.000Z</time>
      </trkpt>
      <trkpt lat="43.20089" lon="6.61818">
        <ele>53</ele>
        <time>2013-09-16T13:37:08.000Z</time>
      </trkpt>
      <trkpt lat="43.20086" lon="6.61815">
        <ele>54</ele>
        <time>2013-09-16T13:37:09.000Z</time>
      </trkpt>
      <trkpt lat="43.20084" lon="6.61811">
        <ele>54</ele>
        <time>2013-09-16T13:37:10.000Z</time>
      </trkpt>
      <trkpt lat="43.20081" lon="6.61808">
        <ele>52</ele>
        <time>2013-09-16T13:37:11.000Z</time>
      </trkpt>
      <trkpt lat="43.20079" lon="6.61805">
        <ele>52</ele>
        <time>2013-09-16T13:37:12.000Z</time>
      </trkpt>
      <trkpt lat="43.20076" lon="6.61802">
        <ele>52</ele>
        <time>2013-09-16T13:37:13.000Z</time>
      </trkpt>
      <trkpt lat="43.20074" lon="6.61799">
        <ele>52</ele>
        <time>2013-09-16T13:37:14.000Z</time>
      </trkpt>
      <trkpt lat="43.20071" lon="6.61796">
        <ele>52</ele>
        <time>2013-09-16T13:37:15.000Z</time>
      </trkpt>
      <trkpt lat="43.20069" lon="6.61793">
        <ele>53</ele>
        <time>2013-09-16T13:37:16.000Z</time>
      </trkpt>
      <trkpt lat="43.20067" lon="6.6179">
        <ele>53</ele>
        <time>2013-09-16T13:37:17.000Z</time>
      </trkpt>
      <trkpt lat="43.20064" lon="6.61787">
        <ele>53</ele>
        <time>2013-09-16T13:37:18.000Z</time>
      </trkpt>
      <trkpt lat="43.20062" lon="6.61784">
        <ele>53</ele>
        <time>2013-09-16T13:37:19.000Z</time>
      </trkpt>
      <trkpt lat="43.20059" lon="6.61781">
        <ele>53</ele>
        <time>2013-09-16T13:37:20.000Z</time>
      </trkpt>
      <trkpt lat="43.20057" lon="6.61778">
        <ele>53</ele>
        <time>2013-09-16T13:37:21.000Z</time>
      </trkpt>
      <trkpt lat="43.20054" lon="6.61775">
        <ele>53</ele>
        <time>2013-09-16T13:37:22.000Z</time>
      </trkpt>
      <trkpt lat="43.20052" lon="6.61772">
        <ele>53</ele>
        <time>2013-09-16T13:37:23.000Z</time>
      </trkpt>
      <trkpt lat="43.2005" lon="6.61768">
        <ele>53</ele>
        <time>2013-09-16T13:37:24.000Z</time>
      </trkpt>
      <trkpt lat="43.20047" lon="6.61765">
        <ele>53</ele>
        <time>2013-09-16T13:37:25.000Z</time>
      </trkpt>
      <trkpt lat="43.20045" lon="6.61762">
        <ele>53</ele>
        <time>2013-09-16T13:37:26.000Z</time>
      </trkpt>
      <trkpt lat="43.20043" lon="6.61759">
        <ele>53</ele>
        <time>2013-09-16T13:37:27.000Z</time>
      </trkpt>
      <trkpt lat="43.20041" lon="6.61755">
        <ele>53</ele>
        <time>2013-09-16T13:37:28.000Z</time>
      </trkpt>
      <trkpt lat="43.20039" lon="6.61752">
        <ele>53</ele>
        <time>2013-09-16T13:37:29.000Z</time>
      </trkpt>
      <trkpt lat="43.20037" lon="6.61748">
        <ele>56</ele>
        <time>2013-09-16T13:37:30.000Z</time>
      </trkpt>
      <trkpt lat="43.20035" lon="6.61745">
        <ele>56</ele>
        <time>2013-09-16T13:37:31.000Z</time>
      </trkpt>
      <trkpt lat="43.20033" lon="6.61742">
        <ele>56</ele>
        <time>2013-09-16T13:37:32.000Z</time>
      </trkpt>
      <trkpt lat="43.20031" lon="6.61738">
        <ele>56</ele>
        <time>2013-09-16T13:37:33.000Z</time>
      </trkpt>
      <trkpt lat="43.2003" lon="6.61734">
        <ele>56</ele>
        <time>2013-09-16T13:37:34.000Z</time>
      </trkpt>
      <trkpt lat="43.20028" lon="6.6173">
        <ele>56</ele>
        <time>2013-09-16T13:37:35.000Z</time>
      </trkpt>
      <trkpt lat="43.20027" lon="6.61726">
        <ele>56</ele>
        <time>2013-09-16T13:37:36.000Z</time>
      </trkpt>
      <trkpt lat="43.20026" lon="6.61723">
        <ele>56</ele>
        <time>2013-09-16T13:37:37.000Z</time>
      </trkpt>
      <trkpt lat="43.20025" lon="6.61718">
        <ele>56</ele>
        <time>2013-09-16T13:37:38.000Z</time>
      </trkpt>
      <trkpt lat="43.20024" lon="6.61714">
        <ele>56</ele>
        <time>2013-09-16T13:37:39.000Z</time>
      </trkpt>
      <trkpt lat="43.20024" lon="6.6171">
        <ele>56</ele>
        <time>2013-09-16T13:37:40.000Z</time>
      </trkpt>
      <trkpt lat="43.20023" lon="6.61706">
        <ele>56</ele>
        <time>2013-09-16T13:37:41.000Z</time>
      </trkpt>
      <trkpt lat="43.20023" lon="6.61702">
        <ele>56</ele>
        <time>2013-09-16T13:37:42.000Z</time>
      </trkpt>
      <trkpt lat="43.20023" lon="6.61697">
        <ele>56</ele>
        <time>2013-09-16T13:37:43.000Z</time>
      </trkpt>
      <trkpt lat="43.20023" lon="6.61689">
        <ele>56</ele>
        <time>2013-09-16T13:37:45.000Z</time>
      </trkpt>
      <trkpt lat="43.20024" lon="6.61684">
        <ele>56</ele>
        <time>2013-09-16T13:37:46.000Z</time>
      </trkpt>
      <trkpt lat="43.20024" lon="6.6168">
        <ele>56</ele>
        <time>2013-09-16T13:37:47.000Z</time>
      </trkpt>
      <trkpt lat="43.20025" lon="6.61675">
        <ele>56</ele>
        <time>2013-09-16T13:37:48.000Z</time>
      </trkpt>
      <trkpt lat="43.20026" lon="6.61671">
        <ele>57</ele>
        <time>2013-09-16T13:37:49.000Z</time>
      </trkpt>
      <trkpt lat="43.20026" lon="6.61667">
        <ele>58</ele>
        <time>2013-09-16T13:37:50.000Z</time>
      </trkpt>
      <trkpt lat="43.20027" lon="6.61662">
        <ele>58</ele>
        <time>2013-09-16T13:37:51.000Z</time>
      </trkpt>
      <trkpt lat="43.20028" lon="6.61658">
        <ele>58</ele>
        <time>2013-09-16T13:37:52.000Z</time>
      </trkpt>
      <trkpt lat="43.20029" lon="6.61655">
        <ele>58</ele>
        <time>2013-09-16T13:37:53.000Z</time>
      </trkpt>
      <trkpt lat="43.2003" lon="6.61651">
        <ele>58</ele>
        <time>2013-09-16T13:37:54.000Z</time>
      </trkpt>
      <trkpt lat="43.20032" lon="6.61647">
        <ele>58</ele>
        <time>2013-09-16T13:37:55.000Z</time>
      </trkpt>
      <trkpt lat="43.20033" lon="6.61643">
        <ele>58</ele>
        <time>2013-09-16T13:37:56.000Z</time>
      </trkpt>
      <trkpt lat="43.20034" lon="6.61639">
        <ele>59</ele>
        <time>2013-09-16T13:37:57.000Z</time>
      </trkpt>
      <trkpt lat="43.20035" lon="6.61635">
        <ele>59</ele>
        <time>2013-09-16T13:37:58.000Z</time>
      </trkpt>
      <trkpt lat="43.20036" lon="6.61631">
        <ele>59</ele>
        <time>2013-09-16T13:37:59.000Z</time>
      </trkpt>
      <trkpt lat="43.20038" lon="6.61627">
        <ele>59</ele>
        <time>2013-09-16T13:38:00.000Z</time>
      </trkpt>
      <trkpt lat="43.20039" lon="6.61623">
        <ele>59</ele>
        <time>2013-09-16T13:38:01.000Z</time>
      </trkpt>
      <trkpt lat="43.2004" lon="6.61619">
        <ele>59</ele>
        <time>2013-09-16T13:38:02.000Z</time>
      </trkpt>
      <trkpt lat="43.20042" lon="6.61615">
        <ele>59</ele>
        <time>2013-09-16T13:38:03.000Z</time>
      </trkpt>
      <trkpt lat="43.20043" lon="6.61611">
        <ele>59</ele>
        <time>2013-09-16T13:38:04.000Z</time>
      </trkpt>
      <trkpt lat="43.20044" lon="6.61607">
        <ele>59</ele>
        <time>2013-09-16T13:38:05.000Z</time>
      </trkpt>
      <trkpt lat="43.20046" lon="6.61603">
        <ele>59</ele>
        <time>2013-09-16T13:38:06.000Z</time>
      </trkpt>
      <trkpt lat="43.20048" lon="6.61599">
        <ele>59</ele>
        <time>2013-09-16T13:38:07.000Z</time>
      </trkpt>
      <trkpt lat="43.20049" lon="6.61596">
        <ele>59</ele>
        <time>2013-09-16T13:38:08.000Z</time>
      </trkpt>
      <trkpt lat="43.20051" lon="6.61592">
        <ele>60</ele>
        <time>2013-09-16T13:38:09.000Z</time>
      </trkpt>
      <trkpt lat="43.20053" lon="6.61589">
        <ele>60</ele>
        <time>2013-09-16T13:38:10.000Z</time>
      </trkpt>
      <trkpt lat="43.20055" lon="6.61585">
        <ele>60</ele>
        <time>2013-09-16T13:38:11.000Z</time>
      </trkpt>
      <trkpt lat="43.20057" lon="6.61582">
        <ele>60</ele>
        <time>2013-09-16T13:38:12.000Z</time>
      </trkpt>
      <trkpt lat="43.20059" lon="6.61579">
        <ele>60</ele>
        <time>2013-09-16T13:38:13.000Z</time>
      </trkpt>
      <trkpt lat="43.20061" lon="6.61577">
        <ele>60</ele>
        <time>2013-09-16T13:38:14.000Z</time>
      </trkpt>
      <trkpt lat="43.20063" lon="6.61574">
        <ele>60</ele>
        <time>2013-09-16T13:38:15.000Z</time>
      </trkpt>
      <trkpt lat="43.20065" lon="6.61572">
        <ele>60</ele>
        <time>2013-09-16T13:38:16.000Z</time>
      </trkpt>
      <trkpt lat="43.20067" lon="6.6157">
        <ele>60</ele>
        <time>2013-09-16T13:38:17.000Z</time>
      </trkpt>
      <trkpt lat="43.20069" lon="6.61568">
        <ele>60</ele>
        <time>2013-09-16T13:38:18.000Z</time>
      </trkpt>
      <trkpt lat="43.2007" lon="6.61566">
        <ele>60</ele>
        <time>2013-09-16T13:38:19.000Z</time>
      </trkpt>
      <trkpt lat="43.20072" lon="6.61563">
        <ele>60</ele>
        <time>2013-09-16T13:38:20.000Z</time>
      </trkpt>
      <trkpt lat="43.20074" lon="6.61561">
        <ele>60</ele>
        <time>2013-09-16T13:38:21.000Z</time>
      </trkpt>
      <trkpt lat="43.20076" lon="6.61559">
        <ele>60</ele>
        <time>2013-09-16T13:38:22.000Z</time>
      </trkpt>
      <trkpt lat="43.20078" lon="6.61557">
        <ele>60</ele>
        <time>2013-09-16T13:38:23.000Z</time>
      </trkpt>
      <trkpt lat="43.2008" lon="6.61554">
        <ele>60</ele>
        <time>2013-09-16T13:38:24.000Z</time>
      </trkpt>
      <trkpt lat="43.20082" lon="6.61552">
        <ele>60</ele>
        <time>2013-09-16T13:38:25.000Z</time>
      </trkpt>
      <trkpt lat="43.20084" lon="6.61549">
        <ele>66</ele>
        <time>2013-09-16T13:38:26.000Z</time>
      </trkpt>
      <trkpt lat="43.20086" lon="6.61547">
        <ele>66</ele>
        <time>2013-09-16T13:38:27.000Z</time>
      </trkpt>
      <trkpt lat="43.20088" lon="6.61545">
        <ele>66</ele>
        <time>2013-09-16T13:38:28.000Z</time>
      </trkpt>
      <trkpt lat="43.2009" lon="6.61542">
        <ele>66</ele>
        <time>2013-09-16T13:38:29.000Z</time>
      </trkpt>
      <trkpt lat="43.20092" lon="6.6154">
        <ele>66</ele>
        <time>2013-09-16T13:38:30.000Z</time>
      </trkpt>
      <trkpt lat="43.20094" lon="6.61537">
        <ele>66</ele>
        <time>2013-09-16T13:38:31.000Z</time>
      </trkpt>
      <trkpt lat="43.20096" lon="6.61534">
        <ele>66</ele>
        <time>2013-09-16T13:38:32.000Z</time>
      </trkpt>
      <trkpt lat="43.20097" lon="6.61532">
        <ele>66</ele>
        <time>2013-09-16T13:38:33.000Z</time>
      </trkpt>
      <trkpt lat="43.20099" lon="6.61529">
        <ele>66</ele>
        <time>2013-09-16T13:38:34.000Z</time>
      </trkpt>
      <trkpt lat="43.20101" lon="6.61526">
        <ele>66</ele>
        <time>2013-09-16T13:38:35.000Z</time>
      </trkpt>
      <trkpt lat="43.20103" lon="6.61523">
        <ele>66</ele>
        <time>2013-09-16T13:38:36.000Z</time>
      </trkpt>
      <trkpt lat="43.20104" lon="6.61519">
        <ele>66</ele>
        <time>2013-09-16T13:38:37.000Z</time>
      </trkpt>
      <trkpt lat="43.20106" lon="6.61516">
        <ele>66</ele>
        <time>2013-09-16T13:38:38.000Z</time>
      </trkpt>
      <trkpt lat="43.20107" lon="6.61513">
        <ele>66</ele>
        <time>2013-09-16T13:38:39.000Z</time>
      </trkpt>
      <trkpt lat="43.20109" lon="6.6151">
        <ele>66</ele>
        <time>2013-09-16T13:38:40.000Z</time>
      </trkpt>
      <trkpt lat="43.2011" lon="6.61507">
        <ele>66</ele>
        <time>2013-09-16T13:38:41.000Z</time>
      </trkpt>
      <trkpt lat="43.20112" lon="6.61504">
        <ele>66</ele>
        <time>2013-09-16T13:38:42.000Z</time>
      </trkpt>
      <trkpt lat="43.20113" lon="6.61501">
        <ele>67</ele>
        <time>2013-09-16T13:38:43.000Z</time>
      </trkpt>
      <trkpt lat="43.20115" lon="6.61498">
        <ele>66</ele>
        <time>2013-09-16T13:38:44.000Z</time>
      </trkpt>
      <trkpt lat="43.20116" lon="6.61495">
        <ele>66</ele>
        <time>2013-09-16T13:38:45.000Z</time>
      </trkpt>
      <trkpt lat="43.20117" lon="6.61492">
        <ele>66</ele>
        <time>2013-09-16T13:38:46.000Z</time>
      </trkpt>
      <trkpt lat="43.20119" lon="6.61489">
        <ele>66</ele>
        <time>2013-09-16T13:38:47.000Z</time>
      </trkpt>
      <trkpt lat="43.20121" lon="6.61487">
        <ele>66</ele>
        <time>2013-09-16T13:38:48.000Z</time>
      </trkpt>
      <trkpt lat="43.20122" lon="6.61484">
        <ele>67</ele>
        <time>2013-09-16T13:38:49.000Z</time>
      </trkpt>
      <trkpt lat="43.20124" lon="6.61481">
        <ele>67</ele>
        <time>2013-09-16T13:38:50.000Z</time>
      </trkpt>
      <trkpt lat="43.20125" lon="6.61478">
        <ele>67</ele>
        <time>2013-09-16T13:38:51.000Z</time>
      </trkpt>
      <trkpt lat="43.20127" lon="6.61476">
        <ele>67</ele>
        <time>2013-09-16T13:38:52.000Z</time>
      </trkpt>
      <trkpt lat="43.20128" lon="6.61473">
        <ele>67</ele>
        <time>2013-09-16T13:38:53.000Z</time>
      </trkpt>
      <trkpt lat="43.2013" lon="6.6147">
        <ele>67</ele>
        <time>2013-09-16T13:38:54.000Z</time>
      </trkpt>
      <trkpt lat="43.20131" lon="6.61468">
        <ele>67</ele>
        <time>2013-09-16T13:38:55.000Z</time>
      </trkpt>
      <trkpt lat="43.20132" lon="6.61465">
        <ele>67</ele>
        <time>2013-09-16T13:38:56.000Z</time>
      </trkpt>
      <trkpt lat="43.20134" lon="6.61463">
        <ele>67</ele>
        <time>2013-09-16T13:38:57.000Z</time>
      </trkpt>
      <trkpt lat="43.20135" lon="6.6146">
        <ele>67</ele>
        <time>2013-09-16T13:38:58.000Z</time>
      </trkpt>
      <trkpt lat="43.20136" lon="6.61458">
        <ele>67</ele>
        <time>2013-09-16T13:38:59.000Z</time>
      </trkpt>
      <trkpt lat="43.20137" lon="6.61455">
        <ele>67</ele>
        <time>2013-09-16T13:39:00.000Z</time>
      </trkpt>
      <trkpt lat="43.20138" lon="6.61452">
        <ele>67</ele>
        <time>2013-09-16T13:39:01.000Z</time>
      </trkpt>
      <trkpt lat="43.20139" lon="6.61449">
        <ele>67</ele>
        <time>2013-09-16T13:39:02.000Z</time>
      </trkpt>
      <trkpt lat="43.2014" lon="6.61447">
        <ele>67</ele>
        <time>2013-09-16T13:39:03.000Z</time>
      </trkpt>
      <trkpt lat="43.20141" lon="6.61444">
        <ele>68</ele>
        <time>2013-09-16T13:39:04.000Z</time>
      </trkpt>
      <trkpt lat="43.20141" lon="6.61441">
        <ele>68</ele>
        <time>2013-09-16T13:39:05.000Z</time>
      </trkpt>
      <trkpt lat="43.20142" lon="6.61439">
        <ele>68</ele>
        <time>2013-09-16T13:39:06.000Z</time>
      </trkpt>
      <trkpt lat="43.20143" lon="6.61436">
        <ele>68</ele>
        <time>2013-09-16T13:39:07.000Z</time>
      </trkpt>
      <trkpt lat="43.20144" lon="6.61434">
        <ele>68</ele>
        <time>2013-09-16T13:39:08.000Z</time>
      </trkpt>
      <trkpt lat="43.20144" lon="6.61432">
        <ele>68</ele>
        <time>2013-09-16T13:39:09.000Z</time>
      </trkpt>
      <trkpt lat="43.20145" lon="6.61429">
        <ele>68</ele>
        <time>2013-09-16T13:39:10.000Z</time>
      </trkpt>
      <trkpt lat="43.20146" lon="6.61427">
        <ele>68</ele>
        <time>2013-09-16T13:39:11.000Z</time>
      </trkpt>
      <trkpt lat="43.20147" lon="6.61425">
        <ele>68</ele>
        <time>2013-09-16T13:39:12.000Z</time>
      </trkpt>
      <trkpt lat="43.20148" lon="6.61422">
        <ele>68</ele>
        <time>2013-09-16T13:39:13.000Z</time>
      </trkpt>
      <trkpt lat="43.20149" lon="6.6142">
        <ele>68</ele>
        <time>2013-09-16T13:39:14.000Z</time>
      </trkpt>
      <trkpt lat="43.2015" lon="6.61417">
        <ele>68</ele>
        <time>2013-09-16T13:39:15.000Z</time>
      </trkpt>
      <trkpt lat="43.20151" lon="6.61415">
        <ele>68</ele>
        <time>2013-09-16T13:39:16.000Z</time>
      </trkpt>
      <trkpt lat="43.20151" lon="6.61412">
        <ele>68</ele>
        <time>2013-09-16T13:39:17.000Z</time>
      </trkpt>
      <trkpt lat="43.20152" lon="6.6141">
        <ele>68</ele>
        <time>2013-09-16T13:39:18.000Z</time>
      </trkpt>
      <trkpt lat="43.20153" lon="6.61407">
        <ele>68</ele>
        <time>2013-09-16T13:39:19.000Z</time>
      </trkpt>
      <trkpt lat="43.20154" lon="6.61405">
        <ele>68</ele>
        <time>2013-09-16T13:39:20.000Z</time>
      </trkpt>
      <trkpt lat="43.20155" lon="6.61402">
        <ele>68</ele>
        <time>2013-09-16T13:39:21.000Z</time>
      </trkpt>
      <trkpt lat="43.20155" lon="6.614">
        <ele>68</ele>
        <time>2013-09-16T13:39:22.000Z</time>
      </trkpt>
      <trkpt lat="43.20156" lon="6.61398">
        <ele>68</ele>
        <time>2013-09-16T13:39:23.000Z</time>
      </trkpt>
      <trkpt lat="43.20157" lon="6.61396">
        <ele>68</ele>
        <time>2013-09-16T13:39:24.000Z</time>
      </trkpt>
      <trkpt lat="43.20158" lon="6.61393">
        <ele>68</ele>
        <time>2013-09-16T13:39:25.000Z</time>
      </trkpt>
      <trkpt lat="43.20159" lon="6.61391">
        <ele>68</ele>
        <time>2013-09-16T13:39:26.000Z</time>
      </trkpt>
      <trkpt lat="43.2016" lon="6.61389">
        <ele>68</ele>
        <time>2013-09-16T13:39:27.000Z</time>
      </trkpt>
      <trkpt lat="43.20161" lon="6.61387">
        <ele>68</ele>
        <time>2013-09-16T13:39:28.000Z</time>
      </trkpt>
      <trkpt lat="43.20162" lon="6.61385">
        <ele>68</ele>
        <time>2013-09-16T13:39:29.000Z</time>
      </trkpt>
      <trkpt lat="43.20163" lon="6.61384">
        <ele>68</ele>
        <time>2013-09-16T13:39:30.000Z</time>
      </trkpt>
      <trkpt lat="43.20165" lon="6.61382">
        <ele>68</ele>
        <time>2013-09-16T13:39:31.000Z</time>
      </trkpt>
      <trkpt lat="43.20166" lon="6.6138">
        <ele>68</ele>
        <time>2013-09-16T13:39:32.000Z</time>
      </trkpt>
      <trkpt lat="43.20168" lon="6.61378">
        <ele>74</ele>
        <time>2013-09-16T13:39:33.000Z</time>
      </trkpt>
      <trkpt lat="43.20169" lon="6.61377">
        <ele>75</ele>
        <time>2013-09-16T13:39:34.000Z</time>
      </trkpt>
      <trkpt lat="43.2017" lon="6.61375">
        <ele>75</ele>
        <time>2013-09-16T13:39:35.000Z</time>
      </trkpt>
      <trkpt lat="43.20172" lon="6.61374">
        <ele>75</ele>
        <time>2013-09-16T13:39:36.000Z</time>
      </trkpt>
      <trkpt lat="43.20173" lon="6.61372">
        <ele>75</ele>
        <time>2013-09-16T13:39:37.000Z</time>
      </trkpt>
      <trkpt lat="43.20175" lon="6.6137">
        <ele>75</ele>
        <time>2013-09-16T13:39:38.000Z</time>
      </trkpt>
      <trkpt lat="43.20176" lon="6.61369">
        <ele>75</ele>
        <time>2013-09-16T13:39:39.000Z</time>
      </trkpt>
      <trkpt lat="43.20178" lon="6.61367">
        <ele>75</ele>
        <time>2013-09-16T13:39:40.000Z</time>
      </trkpt>
      <trkpt lat="43.20179" lon="6.61366">
        <ele>75</ele>
        <time>2013-09-16T13:39:41.000Z</time>
      </trkpt>
      <trkpt lat="43.20181" lon="6.61364">
        <ele>75</ele>
        <time>2013-09-16T13:39:42.000Z</time>
      </trkpt>
      <trkpt lat="43.20183" lon="6.61363">
        <ele>75</ele>
        <time>2013-09-16T13:39:43.000Z</time>
      </trkpt>
      <trkpt lat="43.20184" lon="6.61362">
        <ele>75</ele>
        <time>2013-09-16T13:39:44.000Z</time>
      </trkpt>
      <trkpt lat="43.20186" lon="6.6136">
        <ele>75</ele>
        <time>2013-09-16T13:39:45.000Z</time>
      </trkpt>
      <trkpt lat="43.20188" lon="6.61358">
        <ele>75</ele>
        <time>2013-09-16T13:39:46.000Z</time>
      </trkpt>
      <trkpt lat="43.20189" lon="6.61357">
        <ele>75</ele>
        <time>2013-09-16T13:39:47.000Z</time>
      </trkpt>
      <trkpt lat="43.20191" lon="6.61355">
        <ele>75</ele>
        <time>2013-09-16T13:39:48.000Z</time>
      </trkpt>
      <trkpt lat="43.20192" lon="6.61354">
        <ele>75</ele>
        <time>2013-09-16T13:39:49.000Z</time>
      </trkpt>
      <trkpt lat="43.20194" lon="6.61352">
        <ele>75</ele>
        <time>2013-09-16T13:39:50.000Z</time>
      </trkpt>
      <trkpt lat="43.20196" lon="6.6135">
        <ele>76</ele>
        <time>2013-09-16T13:39:51.000Z</time>
      </trkpt>
      <trkpt lat="43.20197" lon="6.61349">
        <ele>76</ele>
        <time>2013-09-16T13:39:52.000Z</time>
      </trkpt>
      <trkpt lat="43.20198" lon="6.61347">
        <ele>76</ele>
        <time>2013-09-16T13:39:53.000Z</time>
      </trkpt>
      <trkpt lat="43.202" lon="6.61345">
        <ele>76</ele>
        <time>2013-09-16T13:39:54.000Z</time>
      </trkpt>
      <trkpt lat="43.20201" lon="6.61343">
        <ele>76</ele>
        <time>2013-09-16T13:39:55.000Z</time>
      </trkpt>
      <trkpt lat="43.20202" lon="6.61341">
        <ele>76</ele>
        <time>2013-09-16T13:39:56.000Z</time>
      </trkpt>
      <trkpt lat="43.20203" lon="6.61338">
        <ele>76</ele>
        <time>2013-09-16T13:39:57.000Z</time>
      </trkpt>
      <trkpt lat="43.20204" lon="6.61336">
        <ele>76</ele>
        <time>2013-09-16T13:39:58.000Z</time>
      </trkpt>
      <trkpt lat="43.20205" lon="6.61333">
        <ele>77</ele>
        <time>2013-09-16T13:39:59.000Z</time>
      </trkpt>
      <trkpt lat="43.20206" lon="6.61331">
        <ele>77</ele>
        <time>2013-09-16T13:40:00.000Z</time>
      </trkpt>
      <trkpt lat="43.20207" lon="6.61328">
        <ele>77</ele>
        <time>2013-09-16T13:40:01.000Z</time>
      </trkpt>
      <trkpt lat="43.20208" lon="6.61325">
        <ele>77</ele>
        <time>2013-09-16T13:40:02.000Z</time>
      </trkpt>
      <trkpt lat="43.20208" lon="6.61323">
        <ele>77</ele>
        <time>2013-09-16T13:40:03.000Z</time>
      </trkpt>
      <trkpt lat="43.20209" lon="6.6132">
        <ele>77</ele>
        <time>2013-09-16T13:40:04.000Z</time>
      </trkpt>
      <trkpt lat="43.20209" lon="6.61318">
        <ele>77</ele>
        <time>2013-09-16T13:40:05.000Z</time>
      </trkpt>
      <trkpt lat="43.20209" lon="6.61309">
        <ele>77</ele>
        <time>2013-09-16T13:40:08.000Z</time>
      </trkpt>
      <trkpt lat="43.20209" lon="6.61306">
        <ele>77</ele>
        <time>2013-09-16T13:40:09.000Z</time>
      </trkpt>
      <trkpt lat="43.20208" lon="6.61303">
        <ele>77</ele>
        <time>2013-09-16T13:40:10.000Z</time>
      </trkpt>
      <trkpt lat="43.20208" lon="6.613">
        <ele>77</ele>
        <time>2013-09-16T13:40:11.000Z</time>
      </trkpt>
      <trkpt lat="43.20207" lon="6.61298">
        <ele>78</ele>
        <time>2013-09-16T13:40:12.000Z</time>
      </trkpt>
      <trkpt lat="43.20207" lon="6.61295">
        <ele>78</ele>
        <time>2013-09-16T13:40:13.000Z</time>
      </trkpt>
      <trkpt lat="43.20206" lon="6.61292">
        <ele>78</ele>
        <time>2013-09-16T13:40:14.000Z</time>
      </trkpt>
      <trkpt lat="43.20205" lon="6.61289">
        <ele>78</ele>
        <time>2013-09-16T13:40:15.000Z</time>
      </trkpt>
      <trkpt lat="43.20204" lon="6.61286">
        <ele>77</ele>
        <time>2013-09-16T13:40:16.000Z</time>
      </trkpt>
      <trkpt lat="43.20203" lon="6.61284">
        <ele>77</ele>
        <time>2013-09-16T13:40:17.000Z</time>
      </trkpt>
      <trkpt lat="43.20203" lon="6.61281">
        <ele>77</ele>
        <time>2013-09-16T13:40:18.000Z</time>
      </trkpt>
      <trkpt lat="43.20202" lon="6.61278">
        <ele>77</ele>
        <time>2013-09-16T13:40:19.000Z</time>
      </trkpt>
      <trkpt lat="43.20202" lon="6.61275">
        <ele>77</ele>
        <time>2013-09-16T13:40:20.000Z</time>
      </trkpt>
      <trkpt lat="43.20201" lon="6.61272">
        <ele>77</ele>
        <time>2013-09-16T13:40:21.000Z</time>
      </trkpt>
      <trkpt lat="43.202" lon="6.6127">
        <ele>77</ele>
        <time>2013-09-16T13:40:22.000Z</time>
      </trkpt>
      <trkpt lat="43.202" lon="6.61267">
        <ele>77</ele>
        <time>2013-09-16T13:40:23.000Z</time>
      </trkpt>
      <trkpt lat="43.20199" lon="6.61264">
        <ele>77</ele>
        <time>2013-09-16T13:40:24.000Z</time>
      </trkpt>
      <trkpt lat="43.20198" lon="6.61262">
        <ele>77</ele>
        <time>2013-09-16T13:40:25.000Z</time>
      </trkpt>
      <trkpt lat="43.20197" lon="6.61259">
        <ele>77</ele>
        <time>2013-09-16T13:40:26.000Z</time>
      </trkpt>
      <trkpt lat="43.20196" lon="6.61257">
        <ele>77</ele>
        <time>2013-09-16T13:40:27.000Z</time>
      </trkpt>
      <trkpt lat="43.20196" lon="6.61254">
        <ele>77</ele>
        <time>2013-09-16T13:40:28.000Z</time>
      </trkpt>
      <trkpt lat="43.20195" lon="6.61251">
        <ele>77</ele>
        <time>2013-09-16T13:40:29.000Z</time>
      </trkpt>
      <trkpt lat="43.20195" lon="6.61248">
        <ele>79</ele>
        <time>2013-09-16T13:40:30.000Z</time>
      </trkpt>
      <trkpt lat="43.20195" lon="6.61245">
        <ele>79</ele>
        <time>2013-09-16T13:40:31.000Z</time>
      </trkpt>
      <trkpt lat="43.20195" lon="6.61242">
        <ele>79</ele>
        <time>2013-09-16T13:40:32.000Z</time>
      </trkpt>
      <trkpt lat="43.20194" lon="6.61239">
        <ele>79</ele>
        <time>2013-09-16T13:40:33.000Z</time>
      </trkpt>
      <trkpt lat="43.20194" lon="6.61236">
        <ele>79</ele>
        <time>2013-09-16T13:40:34.000Z</time>
      </trkpt>
      <trkpt lat="43.20193" lon="6.61233">
        <ele>80</ele>
        <time>2013-09-16T13:40:35.000Z</time>
      </trkpt>
      <trkpt lat="43.20193" lon="6.6123">
        <ele>80</ele>
        <time>2013-09-16T13:40:36.000Z</time>
      </trkpt>
      <trkpt lat="43.20193" lon="6.61228">
        <ele>80</ele>
        <time>2013-09-16T13:40:37.000Z</time>
      </trkpt>
      <trkpt lat="43.20192" lon="6.61225">
        <ele>80</ele>
        <time>2013-09-16T13:40:38.000Z</time>
      </trkpt>
      <trkpt lat="43.20192" lon="6.61222">
        <ele>80</ele>
        <time>2013-09-16T13:40:39.000Z</time>
      </trkpt>
      <trkpt lat="43.20192" lon="6.6122">
        <ele>80</ele>
        <time>2013-09-16T13:40:40.000Z</time>
      </trkpt>
      <trkpt lat="43.20192" lon="6.61213">
        <ele>81</ele>
        <time>2013-09-16T13:40:42.000Z</time>
      </trkpt>
      <trkpt lat="43.20192" lon="6.6121">
        <ele>81</ele>
        <time>2013-09-16T13:40:43.000Z</time>
      </trkpt>
      <trkpt lat="43.20192" lon="6.61207">
        <ele>81</ele>
        <time>2013-09-16T13:40:44.000Z</time>
      </trkpt>
      <trkpt lat="43.20191" lon="6.61204">
        <ele>81</ele>
        <time>2013-09-16T13:40:45.000Z</time>
      </trkpt>
      <trkpt lat="43.20191" lon="6.61202">
        <ele>81</ele>
        <time>2013-09-16T13:40:46.000Z</time>
      </trkpt>
      <trkpt lat="43.20191" lon="6.61199">
        <ele>81</ele>
        <time>2013-09-16T13:40:47.000Z</time>
      </trkpt>
      <trkpt lat="43.20191" lon="6.61197">
        <ele>81</ele>
        <time>2013-09-16T13:40:48.000Z</time>
      </trkpt>
      <trkpt lat="43.2019" lon="6.61194">
        <ele>81</ele>
        <time>2013-09-16T13:40:49.000Z</time>
      </trkpt>
      <trkpt lat="43.2019" lon="6.61191">
        <ele>81</ele>
        <time>2013-09-16T13:40:50.000Z</time>
      </trkpt>
      <trkpt lat="43.2019" lon="6.61188">
        <ele>81</ele>
        <time>2013-09-16T13:40:51.000Z</time>
      </trkpt>
      <trkpt lat="43.20189" lon="6.61186">
        <ele>81</ele>
        <time>2013-09-16T13:40:52.000Z</time>
      </trkpt>
      <trkpt lat="43.20189" lon="6.61184">
        <ele>81</ele>
        <time>2013-09-16T13:40:53.000Z</time>
      </trkpt>
      <trkpt lat="43.20188" lon="6.61181">
        <ele>80</ele>
        <time>2013-09-16T13:40:54.000Z</time>
      </trkpt>
      <trkpt lat="43.20188" lon="6.61178">
        <ele>80</ele>
        <time>2013-09-16T13:40:55.000Z</time>
      </trkpt>
      <trkpt lat="43.20187" lon="6.61175">
        <ele>80</ele>
        <time>2013-09-16T13:40:56.000Z</time>
      </trkpt>
      <trkpt lat="43.20186" lon="6.61172">
        <ele>80</ele>
        <time>2013-09-16T13:40:57.000Z</time>
      </trkpt>
      <trkpt lat="43.20185" lon="6.61169">
        <ele>80</ele>
        <time>2013-09-16T13:40:58.000Z</time>
      </trkpt>
      <trkpt lat="43.20184" lon="6.61166">
        <ele>82</ele>
        <time>2013-09-16T13:40:59.000Z</time>
      </trkpt>
      <trkpt lat="43.20184" lon="6.61163">
        <ele>82</ele>
        <time>2013-09-16T13:41:00.000Z</time>
      </trkpt>
      <trkpt lat="43.20183" lon="6.6116">
        <ele>82</ele>
        <time>2013-09-16T13:41:01.000Z</time>
      </trkpt>
      <trkpt lat="43.20182" lon="6.61158">
        <ele>83</ele>
        <time>2013-09-16T13:41:02.000Z</time>
      </trkpt>
      <trkpt lat="43.20181" lon="6.61155">
        <ele>83</ele>
        <time>2013-09-16T13:41:03.000Z</time>
      </trkpt>
      <trkpt lat="43.2018" lon="6.61152">
        <ele>83</ele>
        <time>2013-09-16T13:41:04.000Z</time>
      </trkpt>
      <trkpt lat="43.2018" lon="6.61149">
        <ele>83</ele>
        <time>2013-09-16T13:41:05.000Z</time>
      </trkpt>
      <trkpt lat="43.20179" lon="6.61146">
        <ele>84</ele>
        <time>2013-09-16T13:41:06.000Z</time>
      </trkpt>
      <trkpt lat="43.20178" lon="6.61144">
        <ele>84</ele>
        <time>2013-09-16T13:41:07.000Z</time>
      </trkpt>
      <trkpt lat="43.20177" lon="6.61141">
        <ele>84</ele>
        <time>2013-09-16T13:41:08.000Z</time>
      </trkpt>
      <trkpt lat="43.20177" lon="6.61139">
        <ele>85</ele>
        <time>2013-09-16T13:41:09.000Z</time>
      </trkpt>
      <trkpt lat="43.20176" lon="6.61136">
        <ele>85</ele>
        <time>2013-09-16T13:41:10.000Z</time>
      </trkpt>
      <trkpt lat="43.20175" lon="6.61134">
        <ele>85</ele>
        <time>2013-09-16T13:41:11.000Z</time>
      </trkpt>
      <trkpt lat="43.20174" lon="6.61131">
        <ele>85</ele>
        <time>2013-09-16T13:41:12.000Z</time>
      </trkpt>
      <trkpt lat="43.20173" lon="6.61127">
        <ele>85</ele>
        <time>2013-09-16T13:41:13.000Z</time>
      </trkpt>
      <trkpt lat="43.20172" lon="6.61124">
        <ele>86</ele>
        <time>2013-09-16T13:41:14.000Z</time>
      </trkpt>
      <trkpt lat="43.20171" lon="6.61121">
        <ele>86</ele>
        <time>2013-09-16T13:41:15.000Z</time>
      </trkpt>
      <trkpt lat="43.2017" lon="6.61118">
        <ele>86</ele>
        <time>2013-09-16T13:41:16.000Z</time>
      </trkpt>
      <trkpt lat="43.20169" lon="6.61115">
        <ele>86</ele>
        <time>2013-09-16T13:41:17.000Z</time>
      </trkpt>
      <trkpt lat="43.20168" lon="6.61111">
        <ele>86</ele>
        <time>2013-09-16T13:41:18.000Z</time>
      </trkpt>
      <trkpt lat="43.20168" lon="6.61108">
        <ele>86</ele>
        <time>2013-09-16T13:41:19.000Z</time>
      </trkpt>
      <trkpt lat="43.20167" lon="6.61105">
        <ele>86</ele>
        <time>2013-09-16T13:41:20.000Z</time>
      </trkpt>
      <trkpt lat="43.20167" lon="6.61101">
        <ele>86</ele>
        <time>2013-09-16T13:41:21.000Z</time>
      </trkpt>
      <trkpt lat="43.20166" lon="6.61098">
        <ele>83</ele>
        <time>2013-09-16T13:41:22.000Z</time>
      </trkpt>
      <trkpt lat="43.20166" lon="6.61095">
        <ele>83</ele>
        <time>2013-09-16T13:41:23.000Z</time>
      </trkpt>
      <trkpt lat="43.20165" lon="6.61092">
        <ele>83</ele>
        <time>2013-09-16T13:41:24.000Z</time>
      </trkpt>
      <trkpt lat="43.20165" lon="6.61088">
        <ele>83</ele>
        <time>2013-09-16T13:41:25.000Z</time>
      </trkpt>
      <trkpt lat="43.20165" lon="6.61085">
        <ele>84</ele>
        <time>2013-09-16T13:41:26.000Z</time>
      </trkpt>
      <trkpt lat="43.20165" lon="6.61081">
        <ele>85</ele>
        <time>2013-09-16T13:41:27.000Z</time>
      </trkpt>
      <trkpt lat="43.20165" lon="6.61079">
        <ele>85</ele>
        <time>2013-09-16T13:41:28.000Z</time>
      </trkpt>
      <trkpt lat="43.20165" lon="6.61076">
        <ele>86</ele>
        <time>2013-09-16T13:41:29.000Z</time>
      </trkpt>
      <trkpt lat="43.20165" lon="6.61072">
        <ele>86</ele>
        <time>2013-09-16T13:41:30.000Z</time>
      </trkpt>
      <trkpt lat="43.20165" lon="6.61069">
        <ele>87</ele>
        <time>2013-09-16T13:41:31.000Z</time>
      </trkpt>
      <trkpt lat="43.20165" lon="6.61066">
        <ele>87</ele>
        <time>2013-09-16T13:41:32.000Z</time>
      </trkpt>
      <trkpt lat="43.20166" lon="6.61063">
        <ele>87</ele>
        <time>2013-09-16T13:41:33.000Z</time>
      </trkpt>
      <trkpt lat="43.20166" lon="6.6106">
        <ele>88</ele>
        <time>2013-09-16T13:41:34.000Z</time>
      </trkpt>
      <trkpt lat="43.20167" lon="6.61057">
        <ele>88</ele>
        <time>2013-09-16T13:41:35.000Z</time>
      </trkpt>
      <trkpt lat="43.20167" lon="6.61054">
        <ele>89</ele>
        <time>2013-09-16T13:41:36.000Z</time>
      </trkpt>
      <trkpt lat="43.20168" lon="6.6105">
        <ele>90</ele>
        <time>2013-09-16T13:41:37.000Z</time>
      </trkpt>
      <trkpt lat="43.20169" lon="6.61047">
        <ele>90</ele>
        <time>2013-09-16T13:41:38.000Z</time>
      </trkpt>
      <trkpt lat="43.20169" lon="6.61044">
        <ele>90</ele>
        <time>2013-09-16T13:41:39.000Z</time>
      </trkpt>
      <trkpt lat="43.2017" lon="6.6104">
        <ele>90</ele>
        <time>2013-09-16T13:41:40.000Z</time>
      </trkpt>
      <trkpt lat="43.2017" lon="6.61037">
        <ele>90</ele>
        <time>2013-09-16T13:41:41.000Z</time>
      </trkpt>
      <trkpt lat="43.20171" lon="6.61033">
        <ele>90</ele>
        <time>2013-09-16T13:41:42.000Z</time>
      </trkpt>
      <trkpt lat="43.20172" lon="6.6103">
        <ele>90</ele>
        <time>2013-09-16T13:41:43.000Z</time>
      </trkpt>
      <trkpt lat="43.20174" lon="6.61027">
        <ele>90</ele>
        <time>2013-09-16T13:41:44.000Z</time>
      </trkpt>
      <trkpt lat="43.20175" lon="6.61024">
        <ele>90</ele>
        <time>2013-09-16T13:41:45.000Z</time>
      </trkpt>
      <trkpt lat="43.20176" lon="6.61021">
        <ele>90</ele>
        <time>2013-09-16T13:41:46.000Z</time>
      </trkpt>
      <trkpt lat="43.20177" lon="6.61018">
        <ele>90</ele>
        <time>2013-09-16T13:41:47.000Z</time>
      </trkpt>
      <trkpt lat="43.20179" lon="6.61016">
        <ele>90</ele>
        <time>2013-09-16T13:41:48.000Z</time>
      </trkpt>
      <trkpt lat="43.2018" lon="6.61013">
        <ele>90</ele>
        <time>2013-09-16T13:41:49.000Z</time>
      </trkpt>
      <trkpt lat="43.20181" lon="6.61011">
        <ele>90</ele>
        <time>2013-09-16T13:41:50.000Z</time>
      </trkpt>
      <trkpt lat="43.20183" lon="6.61009">
        <ele>90</ele>
        <time>2013-09-16T13:41:51.000Z</time>
      </trkpt>
      <trkpt lat="43.20184" lon="6.61007">
        <ele>90</ele>
        <time>2013-09-16T13:41:52.000Z</time>
      </trkpt>
      <trkpt lat="43.20186" lon="6.61005">
        <ele>91</ele>
        <time>2013-09-16T13:41:53.000Z</time>
      </trkpt>
      <trkpt lat="43.20188" lon="6.61003">
        <ele>91</ele>
        <time>2013-09-16T13:41:54.000Z</time>
      </trkpt>
      <trkpt lat="43.2019" lon="6.61001">
        <ele>91</ele>
        <time>2013-09-16T13:41:55.000Z</time>
      </trkpt>
      <trkpt lat="43.20192" lon="6.61">
        <ele>93</ele>
        <time>2013-09-16T13:41:56.000Z</time>
      </trkpt>
      <trkpt lat="43.20194" lon="6.60998">
        <ele>93</ele>
        <time>2013-09-16T13:41:57.000Z</time>
      </trkpt>
      <trkpt lat="43.20196" lon="6.60997">
        <ele>93</ele>
        <time>2013-09-16T13:41:58.000Z</time>
      </trkpt>
      <trkpt lat="43.20198" lon="6.60995">
        <ele>93</ele>
        <time>2013-09-16T13:41:59.000Z</time>
      </trkpt>
      <trkpt lat="43.202" lon="6.60994">
        <ele>94</ele>
        <time>2013-09-16T13:42:00.000Z</time>
      </trkpt>
      <trkpt lat="43.20202" lon="6.60993">
        <ele>94</ele>
        <time>2013-09-16T13:42:01.000Z</time>
      </trkpt>
      <trkpt lat="43.20204" lon="6.60991">
        <ele>94</ele>
        <time>2013-09-16T13:42:02.000Z</time>
      </trkpt>
      <trkpt lat="43.20206" lon="6.6099">
        <ele>94</ele>
        <time>2013-09-16T13:42:03.000Z</time>
      </trkpt>
      <trkpt lat="43.20209" lon="6.60989">
        <ele>94</ele>
        <time>2013-09-16T13:42:04.000Z</time>
      </trkpt>
      <trkpt lat="43.20211" lon="6.60988">
        <ele>95</ele>
        <time>2013-09-16T13:42:05.000Z</time>
      </trkpt>
      <trkpt lat="43.20213" lon="6.60988">
        <ele>95</ele>
        <time>2013-09-16T13:42:06.000Z</time>
      </trkpt>
      <trkpt lat="43.20215" lon="6.60986">
        <ele>95</ele>
        <time>2013-09-16T13:42:07.000Z</time>
      </trkpt>
      <trkpt lat="43.20218" lon="6.60986">
        <ele>95</ele>
        <time>2013-09-16T13:42:08.000Z</time>
      </trkpt>
      <trkpt lat="43.2022" lon="6.60985">
        <ele>95</ele>
        <time>2013-09-16T13:42:09.000Z</time>
      </trkpt>
      <trkpt lat="43.20222" lon="6.60984">
        <ele>95</ele>
        <time>2013-09-16T13:42:10.000Z</time>
      </trkpt>
      <trkpt lat="43.20224" lon="6.60983">
        <ele>95</ele>
        <time>2013-09-16T13:42:11.000Z</time>
      </trkpt>
      <trkpt lat="43.20226" lon="6.60982">
        <ele>95</ele>
        <time>2013-09-16T13:42:12.000Z</time>
      </trkpt>
      <trkpt lat="43.20228" lon="6.60981">
        <ele>95</ele>
        <time>2013-09-16T13:42:13.000Z</time>
      </trkpt>
      <trkpt lat="43.20231" lon="6.6098">
        <ele>95</ele>
        <time>2013-09-16T13:42:14.000Z</time>
      </trkpt>
      <trkpt lat="43.20233" lon="6.60979">
        <ele>96</ele>
        <time>2013-09-16T13:42:15.000Z</time>
      </trkpt>
      <trkpt lat="43.20235" lon="6.60978">
        <ele>96</ele>
        <time>2013-09-16T13:42:16.000Z</time>
      </trkpt>
      <trkpt lat="43.20237" lon="6.60977">
        <ele>96</ele>
        <time>2013-09-16T13:42:17.000Z</time>
      </trkpt>
      <trkpt lat="43.20239" lon="6.60976">
        <ele>96</ele>
        <time>2013-09-16T13:42:18.000Z</time>
      </trkpt>
      <trkpt lat="43.20241" lon="6.60975">
        <ele>96</ele>
        <time>2013-09-16T13:42:19.000Z</time>
      </trkpt>
      <trkpt lat="43.20244" lon="6.60974">
        <ele>96</ele>
        <time>2013-09-16T13:42:20.000Z</time>
      </trkpt>
      <trkpt lat="43.20246" lon="6.60973">
        <ele>96</ele>
        <time>2013-09-16T13:42:21.000Z</time>
      </trkpt>
      <trkpt lat="43.20247" lon="6.60972">
        <ele>96</ele>
        <time>2013-09-16T13:42:22.000Z</time>
      </trkpt>
      <trkpt lat="43.20249" lon="6.6097">
        <ele>96</ele>
        <time>2013-09-16T13:42:23.000Z</time>
      </trkpt>
      <trkpt lat="43.20251" lon="6.60969">
        <ele>100</ele>
        <time>2013-09-16T13:42:24.000Z</time>
      </trkpt>
      <trkpt lat="43.20252" lon="6.60967">
        <ele>100</ele>
        <time>2013-09-16T13:42:25.000Z</time>
      </trkpt>
      <trkpt lat="43.20254" lon="6.60965">
        <ele>100</ele>
        <time>2013-09-16T13:42:26.000Z</time>
      </trkpt>
      <trkpt lat="43.20255" lon="6.60962">
        <ele>100</ele>
        <time>2013-09-16T13:42:27.000Z</time>
      </trkpt>
      <trkpt lat="43.20256" lon="6.60959">
        <ele>100</ele>
        <time>2013-09-16T13:42:28.000Z</time>
      </trkpt>
      <trkpt lat="43.20256" lon="6.60955">
        <ele>100</ele>
        <time>2013-09-16T13:42:29.000Z</time>
      </trkpt>
      <trkpt lat="43.20256" lon="6.60951">
        <ele>100</ele>
        <time>2013-09-16T13:42:30.000Z</time>
      </trkpt>
      <trkpt lat="43.20256" lon="6.60943">
        <ele>99</ele>
        <time>2013-09-16T13:42:32.000Z</time>
      </trkpt>
      <trkpt lat="43.20255" lon="6.60939">
        <ele>99</ele>
        <time>2013-09-16T13:42:33.000Z</time>
      </trkpt>
      <trkpt lat="43.20255" lon="6.60935">
        <ele>99</ele>
        <time>2013-09-16T13:42:34.000Z</time>
      </trkpt>
      <trkpt lat="43.20254" lon="6.60931">
        <ele>98</ele>
        <time>2013-09-16T13:42:35.000Z</time>
      </trkpt>
      <trkpt lat="43.20253" lon="6.60927">
        <ele>98</ele>
        <time>2013-09-16T13:42:36.000Z</time>
      </trkpt>
      <trkpt lat="43.2025" lon="6.60925">
        <ele>97</ele>
        <time>2013-09-16T13:42:37.000Z</time>
      </trkpt>
      <trkpt lat="43.20248" lon="6.60923">
        <ele>96</ele>
        <time>2013-09-16T13:42:38.000Z</time>
      </trkpt>
      <trkpt lat="43.20245" lon="6.60922">
        <ele>96</ele>
        <time>2013-09-16T13:42:39.000Z</time>
      </trkpt>
      <trkpt lat="43.20241" lon="6.60922">
        <ele>96</ele>
        <time>2013-09-16T13:42:40.000Z</time>
      </trkpt>
      <trkpt lat="43.20238" lon="6.60923">
        <ele>96</ele>
        <time>2013-09-16T13:42:41.000Z</time>
      </trkpt>
      <trkpt lat="43.20235" lon="6.60923">
        <ele>96</ele>
        <time>2013-09-16T13:42:42.000Z</time>
      </trkpt>
      <trkpt lat="43.20233" lon="6.60924">
        <ele>96</ele>
        <time>2013-09-16T13:42:43.000Z</time>
      </trkpt>
      <trkpt lat="43.2023" lon="6.60926">
        <ele>96</ele>
        <time>2013-09-16T13:42:44.000Z</time>
      </trkpt>
      <trkpt lat="43.20228" lon="6.60927">
        <ele>96</ele>
        <time>2013-09-16T13:42:45.000Z</time>
      </trkpt>
      <trkpt lat="43.20226" lon="6.60928">
        <ele>96</ele>
        <time>2013-09-16T13:42:46.000Z</time>
      </trkpt>
      <trkpt lat="43.20224" lon="6.60929">
        <ele>96</ele>
        <time>2013-09-16T13:42:47.000Z</time>
      </trkpt>
      <trkpt lat="43.20223" lon="6.60931">
        <ele>96</ele>
        <time>2013-09-16T13:42:48.000Z</time>
      </trkpt>
      <trkpt lat="43.20222" lon="6.60932">
        <ele>96</ele>
        <time>2013-09-16T13:42:49.000Z</time>
      </trkpt>
      <trkpt lat="43.20222" lon="6.60933">
        <ele>96</ele>
        <time>2013-09-16T13:42:51.000Z</time>
      </trkpt>
      <trkpt lat="43.20222" lon="6.60934">
        <ele>96</ele>
        <time>2013-09-16T13:42:53.000Z</time>
      </trkpt>
      <trkpt lat="43.20221" lon="6.60934">
        <ele>96</ele>
        <time>2013-09-16T13:42:54.000Z</time>
      </trkpt>
      <trkpt lat="43.20221" lon="6.60935">
        <ele>96</ele>
        <time>2013-09-16T13:42:55.000Z</time>
      </trkpt>
      <trkpt lat="43.2022" lon="6.60934">
        <ele>96</ele>
        <time>2013-09-16T13:42:59.000Z</time>
      </trkpt>
      <trkpt lat="43.2022" lon="6.60934">
        <ele>96</ele>
        <time>2013-09-16T13:43:02.000Z</time>
      </trkpt>
      <trkpt lat="43.2022" lon="6.60934">
        <ele>96</ele>
        <time>2013-09-16T13:43:04.000Z</time>
      </trkpt>
      <trkpt lat="43.2022" lon="6.60934">
        <ele>96</ele>
        <time>2013-09-16T13:43:07.000Z</time>
      </trkpt>
      <trkpt lat="43.2022" lon="6.60933">
        <ele>96</ele>
        <time>2013-09-16T13:43:10.000Z</time>
      </trkpt>
      <trkpt lat="43.2022" lon="6.60933">
        <ele>96</ele>
        <time>2013-09-16T13:43:13.000Z</time>
      </trkpt>
      <trkpt lat="43.2022" lon="6.60933">
        <ele>96</ele>
        <time>2013-09-16T13:43:15.000Z</time>
      </trkpt>
      <trkpt lat="43.2022" lon="6.60933">
        <ele>96</ele>
        <time>2013-09-16T13:43:18.000Z</time>
      </trkpt>
      <trkpt lat="43.2022" lon="6.60933">
        <ele>96</ele>
        <time>2013-09-16T13:43:24.000Z</time>
      </trkpt>
      <trkpt lat="43.2022" lon="6.60933">
        <ele>96</ele>
        <time>2013-09-16T13:43:32.000Z</time>
      </trkpt>
      <trkpt lat="43.2022" lon="6.60933">
        <ele>96</ele>
        <time>2013-09-16T13:43:38.000Z</time>
      </trkpt>
      <trkpt lat="43.2022" lon="6.60933">
        <ele>96</ele>
        <time>2013-09-16T13:43:42.000Z</time>
      </trkpt>
      <trkpt lat="43.20221" lon="6.60934">
        <ele>96</ele>
        <time>2013-09-16T13:43:45.000Z</time>
      </trkpt>
      <trkpt lat="43.20221" lon="6.60934">
        <ele>96</ele>
        <time>2013-09-16T13:43:51.000Z</time>
      </trkpt>
      <trkpt lat="43.20221" lon="6.60934">
        <ele>96</ele>
        <time>2013-09-16T13:44:00.000Z</time>
      </trkpt>
      <trkpt lat="43.20221" lon="6.60934">
        <ele>96</ele>
        <time>2013-09-16T13:44:28.000Z</time>
      </trkpt>
      <trkpt lat="43.20221" lon="6.60934">
        <ele>96</ele>
        <time>2013-09-16T13:44:31.000Z</time>
      </trkpt>
      <trkpt lat="43.2022" lon="6.60934">
        <ele>96</ele>
        <time>2013-09-16T13:44:33.000Z</time>
      </trkpt>
      <trkpt lat="43.2022" lon="6.60934">
        <ele>96</ele>
        <time>2013-09-16T13:44:38.000Z</time>
      </trkpt>
      <trkpt lat="43.20219" lon="6.60934">
        <ele>96</ele>
        <time>2013-09-16T13:44:53.000Z</time>
      </trkpt>
      <trkpt lat="43.20219" lon="6.60934">
        <ele>96</ele>
        <time>2013-09-16T13:45:10.000Z</time>
      </trkpt>
      <trkpt lat="43.20219" lon="6.60935">
        <ele>96</ele>
        <time>2013-09-16T13:45:22.000Z</time>
      </trkpt>
      <trkpt lat="43.20219" lon="6.60935">
        <ele>96</ele>
        <time>2013-09-16T13:45:23.000Z</time>
      </trkpt>
      <trkpt lat="43.20219" lon="6.60935">
        <ele>96</ele>
        <time>2013-09-16T13:45:25.000Z</time>
      </trkpt>
      <trkpt lat="43.2022" lon="6.60935">
        <ele>96</ele>
        <time>2013-09-16T13:45:30.000Z</time>
      </trkpt>
      <trkpt lat="43.2022" lon="6.60935">
        <ele>96</ele>
        <time>2013-09-16T13:45:33.000Z</time>
      </trkpt>
      <trkpt lat="43.20221" lon="6.60935">
        <ele>96</ele>
        <time>2013-09-16T13:45:36.000Z</time>
      </trkpt>
      <trkpt lat="43.20221" lon="6.60936">
        <ele>96</ele>
        <time>2013-09-16T13:45:38.000Z</time>
      </trkpt>
      <trkpt lat="43.20221" lon="6.60936">
        <ele>96</ele>
        <time>2013-09-16T13:45:40.000Z</time>
      </trkpt>
      <trkpt lat="43.20221" lon="6.60936">
        <ele>96</ele>
        <time>2013-09-16T13:45:42.000Z</time>
      </trkpt>
      <trkpt lat="43.20221" lon="6.60936">
        <ele>96</ele>
        <time>2013-09-16T13:45:45.000Z</time>
      </trkpt>
      <trkpt lat="43.20221" lon="6.60936">
        <ele>96</ele>
        <time>2013-09-16T13:45:46.000Z</time>
      </trkpt>
      <trkpt lat="43.2022" lon="6.60935">
        <ele>96</ele>
        <time>2013-09-16T13:45:47.000Z</time>
      </trkpt>
      <trkpt lat="43.2022" lon="6.60934">
        <ele>96</ele>
        <time>2013-09-16T13:45:48.000Z</time>
      </trkpt>
      <trkpt lat="43.20219" lon="6.60932">
        <ele>96</ele>
        <time>2013-09-16T13:45:49.000Z</time>
      </trkpt>
      <trkpt lat="43.20217" lon="6.6093">
        <ele>96</ele>
        <time>2013-09-16T13:45:50.000Z</time>
      </trkpt>
      <trkpt lat="43.20214" lon="6.60928">
        <ele>96</ele>
        <time>2013-09-16T13:45:51.000Z</time>
      </trkpt>
      <trkpt lat="43.20212" lon="6.60927">
        <ele>96</ele>
        <time>2013-09-16T13:45:52.000Z</time>
      </trkpt>
      <trkpt lat="43.20209" lon="6.60927">
        <ele>96</ele>
        <time>2013-09-16T13:45:53.000Z</time>
      </trkpt>
      <trkpt lat="43.20206" lon="6.60926">
        <ele>96</ele>
        <time>2013-09-16T13:45:54.000Z</time>
      </trkpt>
      <trkpt lat="43.20203" lon="6.60925">
        <ele>96</ele>
        <time>2013-09-16T13:45:55.000Z</time>
      </trkpt>
      <trkpt lat="43.202" lon="6.60924">
        <ele>96</ele>
        <time>2013-09-16T13:45:56.000Z</time>
      </trkpt>
      <trkpt lat="43.20194" lon="6.60925">
        <ele>97</ele>
        <time>2013-09-16T13:45:58.000Z</time>
      </trkpt>
      <trkpt lat="43.20191" lon="6.60926">
        <ele>97</ele>
        <time>2013-09-16T13:45:59.000Z</time>
      </trkpt>
      <trkpt lat="43.20189" lon="6.60927">
        <ele>97</ele>
        <time>2013-09-16T13:46:00.000Z</time>
      </trkpt>
      <trkpt lat="43.20186" lon="6.60929">
        <ele>97</ele>
        <time>2013-09-16T13:46:01.000Z</time>
      </trkpt>
      <trkpt lat="43.20184" lon="6.6093">
        <ele>97</ele>
        <time>2013-09-16T13:46:02.000Z</time>
      </trkpt>
      <trkpt lat="43.20181" lon="6.60933">
        <ele>97</ele>
        <time>2013-09-16T13:46:03.000Z</time>
      </trkpt>
      <trkpt lat="43.20179" lon="6.60935">
        <ele>97</ele>
        <time>2013-09-16T13:46:04.000Z</time>
      </trkpt>
      <trkpt lat="43.20177" lon="6.60938">
        <ele>97</ele>
        <time>2013-09-16T13:46:05.000Z</time>
      </trkpt>
      <trkpt lat="43.20175" lon="6.6094">
        <ele>97</ele>
        <time>2013-09-16T13:46:06.000Z</time>
      </trkpt>
      <trkpt lat="43.20173" lon="6.60942">
        <ele>96</ele>
        <time>2013-09-16T13:46:07.000Z</time>
      </trkpt>
      <trkpt lat="43.20171" lon="6.60944">
        <ele>96</ele>
        <time>2013-09-16T13:46:08.000Z</time>
      </trkpt>
      <trkpt lat="43.20169" lon="6.60946">
        <ele>96</ele>
        <time>2013-09-16T13:46:09.000Z</time>
      </trkpt>
      <trkpt lat="43.20167" lon="6.60947">
        <ele>99</ele>
        <time>2013-09-16T13:46:10.000Z</time>
      </trkpt>
      <trkpt lat="43.20165" lon="6.60949">
        <ele>99</ele>
        <time>2013-09-16T13:46:11.000Z</time>
      </trkpt>
      <trkpt lat="43.20163" lon="6.60951">
        <ele>99</ele>
        <time>2013-09-16T13:46:12.000Z</time>
      </trkpt>
      <trkpt lat="43.2016" lon="6.60953">
        <ele>99</ele>
        <time>2013-09-16T13:46:13.000Z</time>
      </trkpt>
      <trkpt lat="43.20158" lon="6.60954">
        <ele>99</ele>
        <time>2013-09-16T13:46:14.000Z</time>
      </trkpt>
      <trkpt lat="43.20155" lon="6.60957">
        <ele>99</ele>
        <time>2013-09-16T13:46:15.000Z</time>
      </trkpt>
      <trkpt lat="43.20153" lon="6.60959">
        <ele>99</ele>
        <time>2013-09-16T13:46:16.000Z</time>
      </trkpt>
      <trkpt lat="43.2015" lon="6.60961">
        <ele>99</ele>
        <time>2013-09-16T13:46:17.000Z</time>
      </trkpt>
      <trkpt lat="43.20148" lon="6.60963">
        <ele>99</ele>
        <time>2013-09-16T13:46:18.000Z</time>
      </trkpt>
      <trkpt lat="43.20145" lon="6.60965">
        <ele>99</ele>
        <time>2013-09-16T13:46:19.000Z</time>
      </trkpt>
      <trkpt lat="43.20143" lon="6.60967">
        <ele>99</ele>
        <time>2013-09-16T13:46:20.000Z</time>
      </trkpt>
      <trkpt lat="43.2014" lon="6.60969">
        <ele>99</ele>
        <time>2013-09-16T13:46:21.000Z</time>
      </trkpt>
      <trkpt lat="43.20138" lon="6.60971">
        <ele>99</ele>
        <time>2013-09-16T13:46:22.000Z</time>
      </trkpt>
      <trkpt lat="43.20136" lon="6.60973">
        <ele>99</ele>
        <time>2013-09-16T13:46:23.000Z</time>
      </trkpt>
      <trkpt lat="43.20134" lon="6.60976">
        <ele>99</ele>
        <time>2013-09-16T13:46:24.000Z</time>
      </trkpt>
      <trkpt lat="43.20132" lon="6.60978">
        <ele>99</ele>
        <time>2013-09-16T13:46:25.000Z</time>
      </trkpt>
      <trkpt lat="43.2013" lon="6.6098">
        <ele>99</ele>
        <time>2013-09-16T13:46:26.000Z</time>
      </trkpt>
      <trkpt lat="43.20129" lon="6.60982">
        <ele>99</ele>
        <time>2013-09-16T13:46:27.000Z</time>
      </trkpt>
      <trkpt lat="43.20127" lon="6.60984">
        <ele>99</ele>
        <time>2013-09-16T13:46:28.000Z</time>
      </trkpt>
      <trkpt lat="43.20125" lon="6.60986">
        <ele>99</ele>
        <time>2013-09-16T13:46:29.000Z</time>
      </trkpt>
      <trkpt lat="43.20124" lon="6.60989">
        <ele>99</ele>
        <time>2013-09-16T13:46:30.000Z</time>
      </trkpt>
      <trkpt lat="43.20122" lon="6.60991">
        <ele>99</ele>
        <time>2013-09-16T13:46:31.000Z</time>
      </trkpt>
      <trkpt lat="43.2012" lon="6.60993">
        <ele>99</ele>
        <time>2013-09-16T13:46:32.000Z</time>
      </trkpt>
      <trkpt lat="43.20119" lon="6.60995">
        <ele>99</ele>
        <time>2013-09-16T13:46:33.000Z</time>
      </trkpt>
      <trkpt lat="43.20117" lon="6.60997">
        <ele>100</ele>
        <time>2013-09-16T13:46:34.000Z</time>
      </trkpt>
      <trkpt lat="43.20116" lon="6.60999">
        <ele>100</ele>
        <time>2013-09-16T13:46:35.000Z</time>
      </trkpt>
      <trkpt lat="43.20114" lon="6.61001">
        <ele>93</ele>
        <time>2013-09-16T13:46:36.000Z</time>
      </trkpt>
      <trkpt lat="43.20113" lon="6.61003">
        <ele>94</ele>
        <time>2013-09-16T13:46:37.000Z</time>
      </trkpt>
      <trkpt lat="43.20112" lon="6.61005">
        <ele>94</ele>
        <time>2013-09-16T13:46:38.000Z</time>
      </trkpt>
      <trkpt lat="43.20111" lon="6.61007">
        <ele>94</ele>
        <time>2013-09-16T13:46:39.000Z</time>
      </trkpt>
      <trkpt lat="43.20109" lon="6.61009">
        <ele>94</ele>
        <time>2013-09-16T13:46:40.000Z</time>
      </trkpt>
      <trkpt lat="43.20108" lon="6.6101">
        <ele>94</ele>
        <time>2013-09-16T13:46:41.000Z</time>
      </trkpt>
      <trkpt lat="43.20106" lon="6.61012">
        <ele>94</ele>
        <time>2013-09-16T13:46:42.000Z</time>
      </trkpt>
      <trkpt lat="43.20105" lon="6.61014">
        <ele>94</ele>
        <time>2013-09-16T13:46:43.000Z</time>
      </trkpt>
      <trkpt lat="43.20103" lon="6.61016">
        <ele>94</ele>
        <time>2013-09-16T13:46:44.000Z</time>
      </trkpt>
      <trkpt lat="43.20102" lon="6.61018">
        <ele>94</ele>
        <time>2013-09-16T13:46:45.000Z</time>
      </trkpt>
      <trkpt lat="43.201" lon="6.6102">
        <ele>94</ele>
        <time>2013-09-16T13:46:46.000Z</time>
      </trkpt>
      <trkpt lat="43.20099" lon="6.61022">
        <ele>94</ele>
        <time>2013-09-16T13:46:47.000Z</time>
      </trkpt>
      <trkpt lat="43.20098" lon="6.61024">
        <ele>94</ele>
        <time>2013-09-16T13:46:48.000Z</time>
      </trkpt>
      <trkpt lat="43.20097" lon="6.61026">
        <ele>94</ele>
        <time>2013-09-16T13:46:49.000Z</time>
      </trkpt>
      <trkpt lat="43.20095" lon="6.61028">
        <ele>94</ele>
        <time>2013-09-16T13:46:50.000Z</time>
      </trkpt>
      <trkpt lat="43.20094" lon="6.6103">
        <ele>93</ele>
        <time>2013-09-16T13:46:51.000Z</time>
      </trkpt>
      <trkpt lat="43.20093" lon="6.61032">
        <ele>93</ele>
        <time>2013-09-16T13:46:52.000Z</time>
      </trkpt>
      <trkpt lat="43.20092" lon="6.61034">
        <ele>93</ele>
        <time>2013-09-16T13:46:53.000Z</time>
      </trkpt>
      <trkpt lat="43.20091" lon="6.61036">
        <ele>93</ele>
        <time>2013-09-16T13:46:54.000Z</time>
      </trkpt>
      <trkpt lat="43.2009" lon="6.61038">
        <ele>93</ele>
        <time>2013-09-16T13:46:55.000Z</time>
      </trkpt>
      <trkpt lat="43.20089" lon="6.6104">
        <ele>93</ele>
        <time>2013-09-16T13:46:56.000Z</time>
      </trkpt>
      <trkpt lat="43.20088" lon="6.61041">
        <ele>93</ele>
        <time>2013-09-16T13:46:57.000Z</time>
      </trkpt>
      <trkpt lat="43.20086" lon="6.61044">
        <ele>92</ele>
        <time>2013-09-16T13:46:58.000Z</time>
      </trkpt>
      <trkpt lat="43.20085" lon="6.61046">
        <ele>92</ele>
        <time>2013-09-16T13:46:59.000Z</time>
      </trkpt>
      <trkpt lat="43.20084" lon="6.61047">
        <ele>92</ele>
        <time>2013-09-16T13:47:00.000Z</time>
      </trkpt>
      <trkpt lat="43.20082" lon="6.61049">
        <ele>95</ele>
        <time>2013-09-16T13:47:01.000Z</time>
      </trkpt>
      <trkpt lat="43.20081" lon="6.61051">
        <ele>95</ele>
        <time>2013-09-16T13:47:02.000Z</time>
      </trkpt>
      <trkpt lat="43.20079" lon="6.61053">
        <ele>95</ele>
        <time>2013-09-16T13:47:03.000Z</time>
      </trkpt>
      <trkpt lat="43.20077" lon="6.61054">
        <ele>95</ele>
        <time>2013-09-16T13:47:04.000Z</time>
      </trkpt>
      <trkpt lat="43.20075" lon="6.61055">
        <ele>94</ele>
        <time>2013-09-16T13:47:05.000Z</time>
      </trkpt>
      <trkpt lat="43.20074" lon="6.61057">
        <ele>94</ele>
        <time>2013-09-16T13:47:06.000Z</time>
      </trkpt>
      <trkpt lat="43.20072" lon="6.61058">
        <ele>94</ele>
        <time>2013-09-16T13:47:07.000Z</time>
      </trkpt>
      <trkpt lat="43.2007" lon="6.61059">
        <ele>94</ele>
        <time>2013-09-16T13:47:08.000Z</time>
      </trkpt>
      <trkpt lat="43.20068" lon="6.6106">
        <ele>94</ele>
        <time>2013-09-16T13:47:09.000Z</time>
      </trkpt>
      <trkpt lat="43.20066" lon="6.61061">
        <ele>94</ele>
        <time>2013-09-16T13:47:10.000Z</time>
      </trkpt>
      <trkpt lat="43.20065" lon="6.61062">
        <ele>94</ele>
        <time>2013-09-16T13:47:11.000Z</time>
      </trkpt>
      <trkpt lat="43.20063" lon="6.61063">
        <ele>94</ele>
        <time>2013-09-16T13:47:12.000Z</time>
      </trkpt>
      <trkpt lat="43.20061" lon="6.61063">
        <ele>94</ele>
        <time>2013-09-16T13:47:13.000Z</time>
      </trkpt>
      <trkpt lat="43.2006" lon="6.61064">
        <ele>94</ele>
        <time>2013-09-16T13:47:14.000Z</time>
      </trkpt>
      <trkpt lat="43.20058" lon="6.61063">
        <ele>94</ele>
        <time>2013-09-16T13:47:15.000Z</time>
      </trkpt>
      <trkpt lat="43.20056" lon="6.61063">
        <ele>94</ele>
        <time>2013-09-16T13:47:16.000Z</time>
      </trkpt>
      <trkpt lat="43.20055" lon="6.61062">
        <ele>95</ele>
        <time>2013-09-16T13:47:17.000Z</time>
      </trkpt>
      <trkpt lat="43.20053" lon="6.61061">
        <ele>95</ele>
        <time>2013-09-16T13:47:18.000Z</time>
      </trkpt>
      <trkpt lat="43.20051" lon="6.6106">
        <ele>95</ele>
        <time>2013-09-16T13:47:19.000Z</time>
      </trkpt>
      <trkpt lat="43.2005" lon="6.61058">
        <ele>95</ele>
        <time>2013-09-16T13:47:20.000Z</time>
      </trkpt>
      <trkpt lat="43.20048" lon="6.61057">
        <ele>95</ele>
        <time>2013-09-16T13:47:21.000Z</time>
      </trkpt>
      <trkpt lat="43.20047" lon="6.61055">
        <ele>95</ele>
        <time>2013-09-16T13:47:22.000Z</time>
      </trkpt>
      <trkpt lat="43.20046" lon="6.61054">
        <ele>95</ele>
        <time>2013-09-16T13:47:23.000Z</time>
      </trkpt>
      <trkpt lat="43.20045" lon="6.61052">
        <ele>95</ele>
        <time>2013-09-16T13:47:24.000Z</time>
      </trkpt>
      <trkpt lat="43.20044" lon="6.6105">
        <ele>95</ele>
        <time>2013-09-16T13:47:25.000Z</time>
      </trkpt>
      <trkpt lat="43.20043" lon="6.61048">
        <ele>96</ele>
        <time>2013-09-16T13:47:26.000Z</time>
      </trkpt>
      <trkpt lat="43.20042" lon="6.61046">
        <ele>96</ele>
        <time>2013-09-16T13:47:27.000Z</time>
      </trkpt>
      <trkpt lat="43.20041" lon="6.61044">
        <ele>96</ele>
        <time>2013-09-16T13:47:28.000Z</time>
      </trkpt>
      <trkpt lat="43.20041" lon="6.61041">
        <ele>96</ele>
        <time>2013-09-16T13:47:29.000Z</time>
      </trkpt>
      <trkpt lat="43.2004" lon="6.61039">
        <ele>96</ele>
        <time>2013-09-16T13:47:30.000Z</time>
      </trkpt>
      <trkpt lat="43.20039" lon="6.61036">
        <ele>96</ele>
        <time>2013-09-16T13:47:31.000Z</time>
      </trkpt>
      <trkpt lat="43.20039" lon="6.61034">
        <ele>97</ele>
        <time>2013-09-16T13:47:32.000Z</time>
      </trkpt>
      <trkpt lat="43.20038" lon="6.61031">
        <ele>97</ele>
        <time>2013-09-16T13:47:33.000Z</time>
      </trkpt>
      <trkpt lat="43.20038" lon="6.61029">
        <ele>97</ele>
        <time>2013-09-16T13:47:34.000Z</time>
      </trkpt>
      <trkpt lat="43.20037" lon="6.61026">
        <ele>97</ele>
        <time>2013-09-16T13:47:35.000Z</time>
      </trkpt>
      <trkpt lat="43.20036" lon="6.61024">
        <ele>97</ele>
        <time>2013-09-16T13:47:36.000Z</time>
      </trkpt>
      <trkpt lat="43.20036" lon="6.61022">
        <ele>97</ele>
        <time>2013-09-16T13:47:37.000Z</time>
      </trkpt>
      <trkpt lat="43.20036" lon="6.61019">
        <ele>97</ele>
        <time>2013-09-16T13:47:38.000Z</time>
      </trkpt>
      <trkpt lat="43.20035" lon="6.61016">
        <ele>98</ele>
        <time>2013-09-16T13:47:39.000Z</time>
      </trkpt>
      <trkpt lat="43.20034" lon="6.61014">
        <ele>98</ele>
        <time>2013-09-16T13:47:40.000Z</time>
      </trkpt>
      <trkpt lat="43.20033" lon="6.61012">
        <ele>98</ele>
        <time>2013-09-16T13:47:41.000Z</time>
      </trkpt>
      <trkpt lat="43.20033" lon="6.6101">
        <ele>98</ele>
        <time>2013-09-16T13:47:42.000Z</time>
      </trkpt>
      <trkpt lat="43.20033" lon="6.61009">
        <ele>98</ele>
        <time>2013-09-16T13:47:43.000Z</time>
      </trkpt>
      <trkpt lat="43.20033" lon="6.61007">
        <ele>98</ele>
        <time>2013-09-16T13:47:44.000Z</time>
      </trkpt>
      <trkpt lat="43.20032" lon="6.61005">
        <ele>98</ele>
        <time>2013-09-16T13:47:45.000Z</time>
      </trkpt>
      <trkpt lat="43.20031" lon="6.61002">
        <ele>98</ele>
        <time>2013-09-16T13:47:46.000Z</time>
      </trkpt>
      <trkpt lat="43.2003" lon="6.60999">
        <ele>107</ele>
        <time>2013-09-16T13:47:47.000Z</time>
      </trkpt>
      <trkpt lat="43.20029" lon="6.60997">
        <ele>107</ele>
        <time>2013-09-16T13:47:48.000Z</time>
      </trkpt>
      <trkpt lat="43.20028" lon="6.60995">
        <ele>107</ele>
        <time>2013-09-16T13:47:49.000Z</time>
      </trkpt>
      <trkpt lat="43.20026" lon="6.60992">
        <ele>107</ele>
        <time>2013-09-16T13:47:50.000Z</time>
      </trkpt>
      <trkpt lat="43.20025" lon="6.6099">
        <ele>107</ele>
        <time>2013-09-16T13:47:51.000Z</time>
      </trkpt>
      <trkpt lat="43.20024" lon="6.60988">
        <ele>107</ele>
        <time>2013-09-16T13:47:52.000Z</time>
      </trkpt>
      <trkpt lat="43.20022" lon="6.60987">
        <ele>107</ele>
        <time>2013-09-16T13:47:53.000Z</time>
      </trkpt>
      <trkpt lat="43.20021" lon="6.60985">
        <ele>107</ele>
        <time>2013-09-16T13:47:54.000Z</time>
      </trkpt>
      <trkpt lat="43.20019" lon="6.60983">
        <ele>107</ele>
        <time>2013-09-16T13:47:55.000Z</time>
      </trkpt>
      <trkpt lat="43.20017" lon="6.60981">
        <ele>108</ele>
        <time>2013-09-16T13:47:56.000Z</time>
      </trkpt>
      <trkpt lat="43.20015" lon="6.60979">
        <ele>108</ele>
        <time>2013-09-16T13:47:57.000Z</time>
      </trkpt>
      <trkpt lat="43.20013" lon="6.60977">
        <ele>108</ele>
        <time>2013-09-16T13:47:58.000Z</time>
      </trkpt>
      <trkpt lat="43.20011" lon="6.60975">
        <ele>108</ele>
        <time>2013-09-16T13:47:59.000Z</time>
      </trkpt>
      <trkpt lat="43.20009" lon="6.60974">
        <ele>108</ele>
        <time>2013-09-16T13:48:00.000Z</time>
      </trkpt>
      <trkpt lat="43.20007" lon="6.60973">
        <ele>108</ele>
        <time>2013-09-16T13:48:01.000Z</time>
      </trkpt>
      <trkpt lat="43.20005" lon="6.60973">
        <ele>108</ele>
        <time>2013-09-16T13:48:02.000Z</time>
      </trkpt>
      <trkpt lat="43.20001" lon="6.60973">
        <ele>108</ele>
        <time>2013-09-16T13:48:04.000Z</time>
      </trkpt>
      <trkpt lat="43.19999" lon="6.60973">
        <ele>114</ele>
        <time>2013-09-16T13:48:05.000Z</time>
      </trkpt>
      <trkpt lat="43.19997" lon="6.60974">
        <ele>114</ele>
        <time>2013-09-16T13:48:06.000Z</time>
      </trkpt>
      <trkpt lat="43.19995" lon="6.60974">
        <ele>114</ele>
        <time>2013-09-16T13:48:07.000Z</time>
      </trkpt>
      <trkpt lat="43.19993" lon="6.60974">
        <ele>114</ele>
        <time>2013-09-16T13:48:08.000Z</time>
      </trkpt>
      <trkpt lat="43.19991" lon="6.60975">
        <ele>114</ele>
        <time>2013-09-16T13:48:09.000Z</time>
      </trkpt>
      <trkpt lat="43.19989" lon="6.60975">
        <ele>114</ele>
        <time>2013-09-16T13:48:10.000Z</time>
      </trkpt>
      <trkpt lat="43.19988" lon="6.60976">
        <ele>114</ele>
        <time>2013-09-16T13:48:11.000Z</time>
      </trkpt>
      <trkpt lat="43.19986" lon="6.60976">
        <ele>115</ele>
        <time>2013-09-16T13:48:12.000Z</time>
      </trkpt>
      <trkpt lat="43.19984" lon="6.60976">
        <ele>115</ele>
        <time>2013-09-16T13:48:13.000Z</time>
      </trkpt>
      <trkpt lat="43.19982" lon="6.60976">
        <ele>115</ele>
        <time>2013-09-16T13:48:14.000Z</time>
      </trkpt>
      <trkpt lat="43.1998" lon="6.60976">
        <ele>115</ele>
        <time>2013-09-16T13:48:15.000Z</time>
      </trkpt>
      <trkpt lat="43.19978" lon="6.60976">
        <ele>116</ele>
        <time>2013-09-16T13:48:16.000Z</time>
      </trkpt>
      <trkpt lat="43.19977" lon="6.60976">
        <ele>116</ele>
        <time>2013-09-16T13:48:17.000Z</time>
      </trkpt>
      <trkpt lat="43.19975" lon="6.60975">
        <ele>116</ele>
        <time>2013-09-16T13:48:18.000Z</time>
      </trkpt>
      <trkpt lat="43.19973" lon="6.60974">
        <ele>117</ele>
        <time>2013-09-16T13:48:19.000Z</time>
      </trkpt>
      <trkpt lat="43.19972" lon="6.60974">
        <ele>117</ele>
        <time>2013-09-16T13:48:20.000Z</time>
      </trkpt>
      <trkpt lat="43.1997" lon="6.60973">
        <ele>117</ele>
        <time>2013-09-16T13:48:21.000Z</time>
      </trkpt>
      <trkpt lat="43.19968" lon="6.60973">
        <ele>118</ele>
        <time>2013-09-16T13:48:22.000Z</time>
      </trkpt>
      <trkpt lat="43.19966" lon="6.60972">
        <ele>118</ele>
        <time>2013-09-16T13:48:23.000Z</time>
      </trkpt>
      <trkpt lat="43.19964" lon="6.60972">
        <ele>118</ele>
        <time>2013-09-16T13:48:24.000Z</time>
      </trkpt>
      <trkpt lat="43.1996" lon="6.60972">
        <ele>119</ele>
        <time>2013-09-16T13:48:26.000Z</time>
      </trkpt>
      <trkpt lat="43.19958" lon="6.60973">
        <ele>119</ele>
        <time>2013-09-16T13:48:27.000Z</time>
      </trkpt>
      <trkpt lat="43.19956" lon="6.60974">
        <ele>119</ele>
        <time>2013-09-16T13:48:28.000Z</time>
      </trkpt>
      <trkpt lat="43.19954" lon="6.60976">
        <ele>119</ele>
        <time>2013-09-16T13:48:29.000Z</time>
      </trkpt>
      <trkpt lat="43.19953" lon="6.60978">
        <ele>119</ele>
        <time>2013-09-16T13:48:30.000Z</time>
      </trkpt>
      <trkpt lat="43.19951" lon="6.6098">
        <ele>119</ele>
        <time>2013-09-16T13:48:31.000Z</time>
      </trkpt>
      <trkpt lat="43.1995" lon="6.60983">
        <ele>119</ele>
        <time>2013-09-16T13:48:32.000Z</time>
      </trkpt>
      <trkpt lat="43.19948" lon="6.60985">
        <ele>119</ele>
        <time>2013-09-16T13:48:33.000Z</time>
      </trkpt>
      <trkpt lat="43.19947" lon="6.60988">
        <ele>119</ele>
        <time>2013-09-16T13:48:34.000Z</time>
      </trkpt>
      <trkpt lat="43.19946" lon="6.60991">
        <ele>119</ele>
        <time>2013-09-16T13:48:35.000Z</time>
      </trkpt>
      <trkpt lat="43.19945" lon="6.60994">
        <ele>119</ele>
        <time>2013-09-16T13:48:36.000Z</time>
      </trkpt>
      <trkpt lat="43.19944" lon="6.60997">
        <ele>119</ele>
        <time>2013-09-16T13:48:37.000Z</time>
      </trkpt>
      <trkpt lat="43.19943" lon="6.61">
        <ele>110</ele>
        <time>2013-09-16T13:48:38.000Z</time>
      </trkpt>
      <trkpt lat="43.19942" lon="6.61004">
        <ele>110</ele>
        <time>2013-09-16T13:48:39.000Z</time>
      </trkpt>
      <trkpt lat="43.19941" lon="6.61007">
        <ele>110</ele>
        <time>2013-09-16T13:48:40.000Z</time>
      </trkpt>
      <trkpt lat="43.1994" lon="6.61011">
        <ele>110</ele>
        <time>2013-09-16T13:48:41.000Z</time>
      </trkpt>
      <trkpt lat="43.19939" lon="6.61014">
        <ele>110</ele>
        <time>2013-09-16T13:48:42.000Z</time>
      </trkpt>
      <trkpt lat="43.19938" lon="6.61018">
        <ele>109</ele>
        <time>2013-09-16T13:48:43.000Z</time>
      </trkpt>
      <trkpt lat="43.19937" lon="6.61021">
        <ele>109</ele>
        <time>2013-09-16T13:48:44.000Z</time>
      </trkpt>
      <trkpt lat="43.19936" lon="6.61025">
        <ele>109</ele>
        <time>2013-09-16T13:48:45.000Z</time>
      </trkpt>
      <trkpt lat="43.19935" lon="6.61029">
        <ele>108</ele>
        <time>2013-09-16T13:48:46.000Z</time>
      </trkpt>
      <trkpt lat="43.19935" lon="6.61033">
        <ele>108</ele>
        <time>2013-09-16T13:48:47.000Z</time>
      </trkpt>
      <trkpt lat="43.19934" lon="6.61037">
        <ele>107</ele>
        <time>2013-09-16T13:48:48.000Z</time>
      </trkpt>
      <trkpt lat="43.19933" lon="6.61041">
        <ele>107</ele>
        <time>2013-09-16T13:48:49.000Z</time>
      </trkpt>
      <trkpt lat="43.19931" lon="6.61045">
        <ele>107</ele>
        <time>2013-09-16T13:48:50.000Z</time>
      </trkpt>
      <trkpt lat="43.1993" lon="6.61048">
        <ele>106</ele>
        <time>2013-09-16T13:48:51.000Z</time>
      </trkpt>
      <trkpt lat="43.19929" lon="6.61052">
        <ele>106</ele>
        <time>2013-09-16T13:48:52.000Z</time>
      </trkpt>
      <trkpt lat="43.19926" lon="6.61055">
        <ele>106</ele>
        <time>2013-09-16T13:48:53.000Z</time>
      </trkpt>
      <trkpt lat="43.19924" lon="6.61058">
        <ele>106</ele>
        <time>2013-09-16T13:48:54.000Z</time>
      </trkpt>
      <trkpt lat="43.19921" lon="6.61061">
        <ele>106</ele>
        <time>2013-09-16T13:48:55.000Z</time>
      </trkpt>
      <trkpt lat="43.19918" lon="6.61063">
        <ele>106</ele>
        <time>2013-09-16T13:48:56.000Z</time>
      </trkpt>
      <trkpt lat="43.19915" lon="6.61064">
        <ele>112</ele>
        <time>2013-09-16T13:48:57.000Z</time>
      </trkpt>
      <trkpt lat="43.19913" lon="6.61065">
        <ele>112</ele>
        <time>2013-09-16T13:48:58.000Z</time>
      </trkpt>
      <trkpt lat="43.1991" lon="6.61066">
        <ele>112</ele>
        <time>2013-09-16T13:48:59.000Z</time>
      </trkpt>
      <trkpt lat="43.19908" lon="6.61066">
        <ele>112</ele>
        <time>2013-09-16T13:49:00.000Z</time>
      </trkpt>
      <trkpt lat="43.19903" lon="6.61066">
        <ele>113</ele>
        <time>2013-09-16T13:49:02.000Z</time>
      </trkpt>
      <trkpt lat="43.19901" lon="6.61066">
        <ele>113</ele>
        <time>2013-09-16T13:49:03.000Z</time>
      </trkpt>
      <trkpt lat="43.19899" lon="6.61065">
        <ele>113</ele>
        <time>2013-09-16T13:49:04.000Z</time>
      </trkpt>
      <trkpt lat="43.19896" lon="6.61065">
        <ele>114</ele>
        <time>2013-09-16T13:49:05.000Z</time>
      </trkpt>
      <trkpt lat="43.19894" lon="6.61065">
        <ele>114</ele>
        <time>2013-09-16T13:49:06.000Z</time>
      </trkpt>
      <trkpt lat="43.19892" lon="6.61064">
        <ele>114</ele>
        <time>2013-09-16T13:49:07.000Z</time>
      </trkpt>
      <trkpt lat="43.19889" lon="6.61064">
        <ele>115</ele>
        <time>2013-09-16T13:49:08.000Z</time>
      </trkpt>
      <trkpt lat="43.19887" lon="6.61064">
        <ele>115</ele>
        <time>2013-09-16T13:49:09.000Z</time>
      </trkpt>
      <trkpt lat="43.19885" lon="6.61063">
        <ele>115</ele>
        <time>2013-09-16T13:49:10.000Z</time>
      </trkpt>
      <trkpt lat="43.19876" lon="6.61064">
        <ele>116</ele>
        <time>2013-09-16T13:49:14.000Z</time>
      </trkpt>
      <trkpt lat="43.19874" lon="6.61064">
        <ele>116</ele>
        <time>2013-09-16T13:49:15.000Z</time>
      </trkpt>
      <trkpt lat="43.19872" lon="6.61064">
        <ele>116</ele>
        <time>2013-09-16T13:49:16.000Z</time>
      </trkpt>
      <trkpt lat="43.19867" lon="6.61064">
        <ele>116</ele>
        <time>2013-09-16T13:49:18.000Z</time>
      </trkpt>
      <trkpt lat="43.19865" lon="6.61065">
        <ele>116</ele>
        <time>2013-09-16T13:49:19.000Z</time>
      </trkpt>
      <trkpt lat="43.19863" lon="6.61065">
        <ele>116</ele>
        <time>2013-09-16T13:49:20.000Z</time>
      </trkpt>
      <trkpt lat="43.19861" lon="6.61065">
        <ele>116</ele>
        <time>2013-09-16T13:49:21.000Z</time>
      </trkpt>
      <trkpt lat="43.19858" lon="6.61066">
        <ele>116</ele>
        <time>2013-09-16T13:49:22.000Z</time>
      </trkpt>
      <trkpt lat="43.19856" lon="6.61066">
        <ele>116</ele>
        <time>2013-09-16T13:49:23.000Z</time>
      </trkpt>
      <trkpt lat="43.19854" lon="6.61066">
        <ele>116</ele>
        <time>2013-09-16T13:49:24.000Z</time>
      </trkpt>
      <trkpt lat="43.19852" lon="6.61066">
        <ele>116</ele>
        <time>2013-09-16T13:49:25.000Z</time>
      </trkpt>
      <trkpt lat="43.19849" lon="6.61066">
        <ele>116</ele>
        <time>2013-09-16T13:49:26.000Z</time>
      </trkpt>
      <trkpt lat="43.19847" lon="6.61067">
        <ele>116</ele>
        <time>2013-09-16T13:49:27.000Z</time>
      </trkpt>
      <trkpt lat="43.19842" lon="6.61066">
        <ele>116</ele>
        <time>2013-09-16T13:49:29.000Z</time>
      </trkpt>
      <trkpt lat="43.1984" lon="6.61066">
        <ele>116</ele>
        <time>2013-09-16T13:49:30.000Z</time>
      </trkpt>
      <trkpt lat="43.19838" lon="6.61066">
        <ele>116</ele>
        <time>2013-09-16T13:49:31.000Z</time>
      </trkpt>
      <trkpt lat="43.1983" lon="6.61066">
        <ele>117</ele>
        <time>2013-09-16T13:49:34.000Z</time>
      </trkpt>
      <trkpt lat="43.19828" lon="6.61067">
        <ele>117</ele>
        <time>2013-09-16T13:49:35.000Z</time>
      </trkpt>
      <trkpt lat="43.19825" lon="6.61067">
        <ele>117</ele>
        <time>2013-09-16T13:49:36.000Z</time>
      </trkpt>
      <trkpt lat="43.19823" lon="6.61068">
        <ele>117</ele>
        <time>2013-09-16T13:49:37.000Z</time>
      </trkpt>
      <trkpt lat="43.19821" lon="6.61069">
        <ele>117</ele>
        <time>2013-09-16T13:49:38.000Z</time>
      </trkpt>
      <trkpt lat="43.19818" lon="6.6107">
        <ele>117</ele>
        <time>2013-09-16T13:49:39.000Z</time>
      </trkpt>
      <trkpt lat="43.19816" lon="6.61071">
        <ele>118</ele>
        <time>2013-09-16T13:49:40.000Z</time>
      </trkpt>
      <trkpt lat="43.19813" lon="6.61072">
        <ele>118</ele>
        <time>2013-09-16T13:49:41.000Z</time>
      </trkpt>
      <trkpt lat="43.1981" lon="6.61073">
        <ele>118</ele>
        <time>2013-09-16T13:49:42.000Z</time>
      </trkpt>
      <trkpt lat="43.19807" lon="6.61075">
        <ele>118</ele>
        <time>2013-09-16T13:49:43.000Z</time>
      </trkpt>
      <trkpt lat="43.19805" lon="6.61076">
        <ele>118</ele>
        <time>2013-09-16T13:49:44.000Z</time>
      </trkpt>
      <trkpt lat="43.19802" lon="6.61077">
        <ele>118</ele>
        <time>2013-09-16T13:49:45.000Z</time>
      </trkpt>
      <trkpt lat="43.19799" lon="6.61077">
        <ele>118</ele>
        <time>2013-09-16T13:49:46.000Z</time>
      </trkpt>
      <trkpt lat="43.19795" lon="6.61078">
        <ele>118</ele>
        <time>2013-09-16T13:49:47.000Z</time>
      </trkpt>
      <trkpt lat="43.19792" lon="6.61077">
        <ele>118</ele>
        <time>2013-09-16T13:49:48.000Z</time>
      </trkpt>
      <trkpt lat="43.1979" lon="6.61076">
        <ele>118</ele>
        <time>2013-09-16T13:49:49.000Z</time>
      </trkpt>
      <trkpt lat="43.19787" lon="6.61075">
        <ele>118</ele>
        <time>2013-09-16T13:49:50.000Z</time>
      </trkpt>
      <trkpt lat="43.19785" lon="6.61072">
        <ele>118</ele>
        <time>2013-09-16T13:49:51.000Z</time>
      </trkpt>
      <trkpt lat="43.19783" lon="6.6107">
        <ele>118</ele>
        <time>2013-09-16T13:49:52.000Z</time>
      </trkpt>
      <trkpt lat="43.19781" lon="6.61068">
        <ele>118</ele>
        <time>2013-09-16T13:49:53.000Z</time>
      </trkpt>
      <trkpt lat="43.19779" lon="6.61066">
        <ele>118</ele>
        <time>2013-09-16T13:49:54.000Z</time>
      </trkpt>
      <trkpt lat="43.19777" lon="6.61063">
        <ele>118</ele>
        <time>2013-09-16T13:49:55.000Z</time>
      </trkpt>
      <trkpt lat="43.19776" lon="6.61061">
        <ele>118</ele>
        <time>2013-09-16T13:49:56.000Z</time>
      </trkpt>
      <trkpt lat="43.19774" lon="6.61059">
        <ele>118</ele>
        <time>2013-09-16T13:49:57.000Z</time>
      </trkpt>
      <trkpt lat="43.19772" lon="6.61057">
        <ele>119</ele>
        <time>2013-09-16T13:49:58.000Z</time>
      </trkpt>
      <trkpt lat="43.19771" lon="6.61054">
        <ele>119</ele>
        <time>2013-09-16T13:49:59.000Z</time>
      </trkpt>
      <trkpt lat="43.19769" lon="6.61052">
        <ele>119</ele>
        <time>2013-09-16T13:50:00.000Z</time>
      </trkpt>
      <trkpt lat="43.19767" lon="6.6105">
        <ele>120</ele>
        <time>2013-09-16T13:50:01.000Z</time>
      </trkpt>
      <trkpt lat="43.19765" lon="6.61048">
        <ele>120</ele>
        <time>2013-09-16T13:50:02.000Z</time>
      </trkpt>
      <trkpt lat="43.19763" lon="6.61045">
        <ele>121</ele>
        <time>2013-09-16T13:50:03.000Z</time>
      </trkpt>
      <trkpt lat="43.19762" lon="6.61043">
        <ele>121</ele>
        <time>2013-09-16T13:50:04.000Z</time>
      </trkpt>
      <trkpt lat="43.1976" lon="6.6104">
        <ele>122</ele>
        <time>2013-09-16T13:50:05.000Z</time>
      </trkpt>
      <trkpt lat="43.19758" lon="6.61038">
        <ele>122</ele>
        <time>2013-09-16T13:50:06.000Z</time>
      </trkpt>
      <trkpt lat="43.19756" lon="6.61036">
        <ele>123</ele>
        <time>2013-09-16T13:50:07.000Z</time>
      </trkpt>
      <trkpt lat="43.19754" lon="6.61034">
        <ele>123</ele>
        <time>2013-09-16T13:50:08.000Z</time>
      </trkpt>
      <trkpt lat="43.19752" lon="6.61032">
        <ele>124</ele>
        <time>2013-09-16T13:50:09.000Z</time>
      </trkpt>
      <trkpt lat="43.19749" lon="6.6103">
        <ele>120</ele>
        <time>2013-09-16T13:50:10.000Z</time>
      </trkpt>
      <trkpt lat="43.19747" lon="6.61029">
        <ele>120</ele>
        <time>2013-09-16T13:50:11.000Z</time>
      </trkpt>
      <trkpt lat="43.19744" lon="6.61028">
        <ele>120</ele>
        <time>2013-09-16T13:50:12.000Z</time>
      </trkpt>
      <trkpt lat="43.19742" lon="6.61028">
        <ele>120</ele>
        <time>2013-09-16T13:50:13.000Z</time>
      </trkpt>
      <trkpt lat="43.19739" lon="6.61028">
        <ele>120</ele>
        <time>2013-09-16T13:50:14.000Z</time>
      </trkpt>
      <trkpt lat="43.19737" lon="6.61028">
        <ele>120</ele>
        <time>2013-09-16T13:50:15.000Z</time>
      </trkpt>
      <trkpt lat="43.19734" lon="6.61028">
        <ele>120</ele>
        <time>2013-09-16T13:50:16.000Z</time>
      </trkpt>
      <trkpt lat="43.19732" lon="6.61028">
        <ele>119</ele>
        <time>2013-09-16T13:50:17.000Z</time>
      </trkpt>
      <trkpt lat="43.19729" lon="6.61029">
        <ele>119</ele>
        <time>2013-09-16T13:50:18.000Z</time>
      </trkpt>
      <trkpt lat="43.19727" lon="6.61029">
        <ele>119</ele>
        <time>2013-09-16T13:50:19.000Z</time>
      </trkpt>
      <trkpt lat="43.19722" lon="6.61028">
        <ele>118</ele>
        <time>2013-09-16T13:50:21.000Z</time>
      </trkpt>
      <trkpt lat="43.1972" lon="6.61028">
        <ele>118</ele>
        <time>2013-09-16T13:50:22.000Z</time>
      </trkpt>
      <trkpt lat="43.19718" lon="6.61027">
        <ele>118</ele>
        <time>2013-09-16T13:50:23.000Z</time>
      </trkpt>
      <trkpt lat="43.19716" lon="6.61025">
        <ele>118</ele>
        <time>2013-09-16T13:50:24.000Z</time>
      </trkpt>
      <trkpt lat="43.19714" lon="6.61024">
        <ele>118</ele>
        <time>2013-09-16T13:50:25.000Z</time>
      </trkpt>
      <trkpt lat="43.19712" lon="6.61022">
        <ele>118</ele>
        <time>2013-09-16T13:50:26.000Z</time>
      </trkpt>
      <trkpt lat="43.19711" lon="6.6102">
        <ele>118</ele>
        <time>2013-09-16T13:50:27.000Z</time>
      </trkpt>
      <trkpt lat="43.19709" lon="6.61018">
        <ele>118</ele>
        <time>2013-09-16T13:50:28.000Z</time>
      </trkpt>
      <trkpt lat="43.19708" lon="6.61016">
        <ele>119</ele>
        <time>2013-09-16T13:50:29.000Z</time>
      </trkpt>
      <trkpt lat="43.19706" lon="6.61013">
        <ele>119</ele>
        <time>2013-09-16T13:50:30.000Z</time>
      </trkpt>
      <trkpt lat="43.19705" lon="6.61011">
        <ele>119</ele>
        <time>2013-09-16T13:50:31.000Z</time>
      </trkpt>
      <trkpt lat="43.19704" lon="6.61008">
        <ele>119</ele>
        <time>2013-09-16T13:50:32.000Z</time>
      </trkpt>
      <trkpt lat="43.19702" lon="6.61006">
        <ele>119</ele>
        <time>2013-09-16T13:50:33.000Z</time>
      </trkpt>
      <trkpt lat="43.19701" lon="6.61003">
        <ele>119</ele>
        <time>2013-09-16T13:50:34.000Z</time>
      </trkpt>
      <trkpt lat="43.197" lon="6.61001">
        <ele>119</ele>
        <time>2013-09-16T13:50:35.000Z</time>
      </trkpt>
      <trkpt lat="43.19699" lon="6.60999">
        <ele>133</ele>
        <time>2013-09-16T13:50:36.000Z</time>
      </trkpt>
      <trkpt lat="43.19697" lon="6.60997">
        <ele>133</ele>
        <time>2013-09-16T13:50:37.000Z</time>
      </trkpt>
      <trkpt lat="43.19696" lon="6.60995">
        <ele>133</ele>
        <time>2013-09-16T13:50:38.000Z</time>
      </trkpt>
      <trkpt lat="43.19695" lon="6.60993">
        <ele>133</ele>
        <time>2013-09-16T13:50:39.000Z</time>
      </trkpt>
      <trkpt lat="43.19694" lon="6.60991">
        <ele>133</ele>
        <time>2013-09-16T13:50:40.000Z</time>
      </trkpt>
      <trkpt lat="43.19693" lon="6.6099">
        <ele>133</ele>
        <time>2013-09-16T13:50:41.000Z</time>
      </trkpt>
      <trkpt lat="43.19692" lon="6.60988">
        <ele>133</ele>
        <time>2013-09-16T13:50:42.000Z</time>
      </trkpt>
      <trkpt lat="43.1969" lon="6.60987">
        <ele>133</ele>
        <time>2013-09-16T13:50:43.000Z</time>
      </trkpt>
      <trkpt lat="43.19688" lon="6.60985">
        <ele>133</ele>
        <time>2013-09-16T13:50:44.000Z</time>
      </trkpt>
      <trkpt lat="43.19686" lon="6.60984">
        <ele>132</ele>
        <time>2013-09-16T13:50:45.000Z</time>
      </trkpt>
      <trkpt lat="43.19684" lon="6.60984">
        <ele>132</ele>
        <time>2013-09-16T13:50:46.000Z</time>
      </trkpt>
      <trkpt lat="43.19682" lon="6.60983">
        <ele>132</ele>
        <time>2013-09-16T13:50:47.000Z</time>
      </trkpt>
      <trkpt lat="43.19679" lon="6.60984">
        <ele>131</ele>
        <time>2013-09-16T13:50:49.000Z</time>
      </trkpt>
      <trkpt lat="43.19677" lon="6.60984">
        <ele>131</ele>
        <time>2013-09-16T13:50:50.000Z</time>
      </trkpt>
      <trkpt lat="43.19675" lon="6.60985">
        <ele>130</ele>
        <time>2013-09-16T13:50:51.000Z</time>
      </trkpt>
      <trkpt lat="43.19674" lon="6.60986">
        <ele>130</ele>
        <time>2013-09-16T13:50:52.000Z</time>
      </trkpt>
      <trkpt lat="43.19672" lon="6.60987">
        <ele>129</ele>
        <time>2013-09-16T13:50:53.000Z</time>
      </trkpt>
      <trkpt lat="43.1967" lon="6.60987">
        <ele>128</ele>
        <time>2013-09-16T13:50:54.000Z</time>
      </trkpt>
      <trkpt lat="43.19669" lon="6.60988">
        <ele>128</ele>
        <time>2013-09-16T13:50:55.000Z</time>
      </trkpt>
      <trkpt lat="43.19667" lon="6.60989">
        <ele>128</ele>
        <time>2013-09-16T13:50:56.000Z</time>
      </trkpt>
      <trkpt lat="43.19665" lon="6.60989">
        <ele>124</ele>
        <time>2013-09-16T13:50:57.000Z</time>
      </trkpt>
      <trkpt lat="43.19663" lon="6.6099">
        <ele>124</ele>
        <time>2013-09-16T13:50:58.000Z</time>
      </trkpt>
      <trkpt lat="43.19661" lon="6.60991">
        <ele>124</ele>
        <time>2013-09-16T13:50:59.000Z</time>
      </trkpt>
      <trkpt lat="43.19659" lon="6.60991">
        <ele>124</ele>
        <time>2013-09-16T13:51:00.000Z</time>
      </trkpt>
      <trkpt lat="43.19657" lon="6.60992">
        <ele>124</ele>
        <time>2013-09-16T13:51:01.000Z</time>
      </trkpt>
      <trkpt lat="43.19651" lon="6.60991">
        <ele>125</ele>
        <time>2013-09-16T13:51:04.000Z</time>
      </trkpt>
      <trkpt lat="43.1965" lon="6.60991">
        <ele>125</ele>
        <time>2013-09-16T13:51:05.000Z</time>
      </trkpt>
      <trkpt lat="43.19648" lon="6.6099">
        <ele>125</ele>
        <time>2013-09-16T13:51:06.000Z</time>
      </trkpt>
      <trkpt lat="43.19646" lon="6.60988">
        <ele>125</ele>
        <time>2013-09-16T13:51:07.000Z</time>
      </trkpt>
      <trkpt lat="43.19644" lon="6.60987">
        <ele>125</ele>
        <time>2013-09-16T13:51:08.000Z</time>
      </trkpt>
      <trkpt lat="43.19643" lon="6.60986">
        <ele>126</ele>
        <time>2013-09-16T13:51:09.000Z</time>
      </trkpt>
      <trkpt lat="43.19641" lon="6.60984">
        <ele>126</ele>
        <time>2013-09-16T13:51:10.000Z</time>
      </trkpt>
      <trkpt lat="43.1964" lon="6.60983">
        <ele>126</ele>
        <time>2013-09-16T13:51:11.000Z</time>
      </trkpt>
      <trkpt lat="43.19639" lon="6.60982">
        <ele>126</ele>
        <time>2013-09-16T13:51:12.000Z</time>
      </trkpt>
      <trkpt lat="43.19637" lon="6.6098">
        <ele>126</ele>
        <time>2013-09-16T13:51:13.000Z</time>
      </trkpt>
      <trkpt lat="43.19636" lon="6.60978">
        <ele>126</ele>
        <time>2013-09-16T13:51:14.000Z</time>
      </trkpt>
      <trkpt lat="43.19634" lon="6.60977">
        <ele>127</ele>
        <time>2013-09-16T13:51:15.000Z</time>
      </trkpt>
      <trkpt lat="43.19633" lon="6.60975">
        <ele>127</ele>
        <time>2013-09-16T13:51:16.000Z</time>
      </trkpt>
      <trkpt lat="43.19631" lon="6.60973">
        <ele>127</ele>
        <time>2013-09-16T13:51:17.000Z</time>
      </trkpt>
      <trkpt lat="43.1963" lon="6.60972">
        <ele>127</ele>
        <time>2013-09-16T13:51:18.000Z</time>
      </trkpt>
      <trkpt lat="43.19629" lon="6.6097">
        <ele>127</ele>
        <time>2013-09-16T13:51:19.000Z</time>
      </trkpt>
      <trkpt lat="43.19627" lon="6.60968">
        <ele>127</ele>
        <time>2013-09-16T13:51:20.000Z</time>
      </trkpt>
      <trkpt lat="43.19626" lon="6.60966">
        <ele>128</ele>
        <time>2013-09-16T13:51:21.000Z</time>
      </trkpt>
      <trkpt lat="43.19625" lon="6.60964">
        <ele>128</ele>
        <time>2013-09-16T13:51:22.000Z</time>
      </trkpt>
      <trkpt lat="43.19623" lon="6.60963">
        <ele>128</ele>
        <time>2013-09-16T13:51:23.000Z</time>
      </trkpt>
      <trkpt lat="43.19622" lon="6.60961">
        <ele>128</ele>
        <time>2013-09-16T13:51:24.000Z</time>
      </trkpt>
      <trkpt lat="43.19621" lon="6.60959">
        <ele>128</ele>
        <time>2013-09-16T13:51:25.000Z</time>
      </trkpt>
      <trkpt lat="43.19619" lon="6.60957">
        <ele>128</ele>
        <time>2013-09-16T13:51:26.000Z</time>
      </trkpt>
      <trkpt lat="43.19618" lon="6.60956">
        <ele>128</ele>
        <time>2013-09-16T13:51:27.000Z</time>
      </trkpt>
      <trkpt lat="43.19617" lon="6.60954">
        <ele>129</ele>
        <time>2013-09-16T13:51:28.000Z</time>
      </trkpt>
      <trkpt lat="43.19616" lon="6.60952">
        <ele>129</ele>
        <time>2013-09-16T13:51:29.000Z</time>
      </trkpt>
      <trkpt lat="43.19614" lon="6.60951">
        <ele>129</ele>
        <time>2013-09-16T13:51:30.000Z</time>
      </trkpt>
      <trkpt lat="43.19613" lon="6.60949">
        <ele>129</ele>
        <time>2013-09-16T13:51:31.000Z</time>
      </trkpt>
      <trkpt lat="43.19611" lon="6.60948">
        <ele>129</ele>
        <time>2013-09-16T13:51:32.000Z</time>
      </trkpt>
      <trkpt lat="43.1961" lon="6.60946">
        <ele>129</ele>
        <time>2013-09-16T13:51:33.000Z</time>
      </trkpt>
      <trkpt lat="43.19609" lon="6.60945">
        <ele>129</ele>
        <time>2013-09-16T13:51:34.000Z</time>
      </trkpt>
      <trkpt lat="43.19607" lon="6.60943">
        <ele>129</ele>
        <time>2013-09-16T13:51:35.000Z</time>
      </trkpt>
      <trkpt lat="43.19606" lon="6.60942">
        <ele>130</ele>
        <time>2013-09-16T13:51:36.000Z</time>
      </trkpt>
      <trkpt lat="43.19605" lon="6.6094">
        <ele>130</ele>
        <time>2013-09-16T13:51:37.000Z</time>
      </trkpt>
      <trkpt lat="43.19603" lon="6.60939">
        <ele>130</ele>
        <time>2013-09-16T13:51:38.000Z</time>
      </trkpt>
      <trkpt lat="43.19602" lon="6.60937">
        <ele>130</ele>
        <time>2013-09-16T13:51:39.000Z</time>
      </trkpt>
      <trkpt lat="43.196" lon="6.60935">
        <ele>130</ele>
        <time>2013-09-16T13:51:40.000Z</time>
      </trkpt>
      <trkpt lat="43.19599" lon="6.60933">
        <ele>130</ele>
        <time>2013-09-16T13:51:41.000Z</time>
      </trkpt>
      <trkpt lat="43.19597" lon="6.60932">
        <ele>131</ele>
        <time>2013-09-16T13:51:42.000Z</time>
      </trkpt>
      <trkpt lat="43.19596" lon="6.6093">
        <ele>131</ele>
        <time>2013-09-16T13:51:43.000Z</time>
      </trkpt>
      <trkpt lat="43.19594" lon="6.60928">
        <ele>131</ele>
        <time>2013-09-16T13:51:44.000Z</time>
      </trkpt>
      <trkpt lat="43.19593" lon="6.60926">
        <ele>131</ele>
        <time>2013-09-16T13:51:45.000Z</time>
      </trkpt>
      <trkpt lat="43.19592" lon="6.60925">
        <ele>131</ele>
        <time>2013-09-16T13:51:46.000Z</time>
      </trkpt>
      <trkpt lat="43.1959" lon="6.60923">
        <ele>132</ele>
        <time>2013-09-16T13:51:47.000Z</time>
      </trkpt>
      <trkpt lat="43.19589" lon="6.60922">
        <ele>132</ele>
        <time>2013-09-16T13:51:48.000Z</time>
      </trkpt>
      <trkpt lat="43.19587" lon="6.60921">
        <ele>132</ele>
        <time>2013-09-16T13:51:49.000Z</time>
      </trkpt>
      <trkpt lat="43.19586" lon="6.6092">
        <ele>132</ele>
        <time>2013-09-16T13:51:50.000Z</time>
      </trkpt>
      <trkpt lat="43.19585" lon="6.60918">
        <ele>133</ele>
        <time>2013-09-16T13:51:51.000Z</time>
      </trkpt>
      <trkpt lat="43.19583" lon="6.60917">
        <ele>133</ele>
        <time>2013-09-16T13:51:52.000Z</time>
      </trkpt>
      <trkpt lat="43.19582" lon="6.60915">
        <ele>133</ele>
        <time>2013-09-16T13:51:53.000Z</time>
      </trkpt>
      <trkpt lat="43.1958" lon="6.60913">
        <ele>133</ele>
        <time>2013-09-16T13:51:54.000Z</time>
      </trkpt>
      <trkpt lat="43.19579" lon="6.60911">
        <ele>134</ele>
        <time>2013-09-16T13:51:55.000Z</time>
      </trkpt>
      <trkpt lat="43.19578" lon="6.60909">
        <ele>134</ele>
        <time>2013-09-16T13:51:56.000Z</time>
      </trkpt>
      <trkpt lat="43.19576" lon="6.60908">
        <ele>134</ele>
        <time>2013-09-16T13:51:57.000Z</time>
      </trkpt>
      <trkpt lat="43.19575" lon="6.60906">
        <ele>134</ele>
        <time>2013-09-16T13:51:58.000Z</time>
      </trkpt>
      <trkpt lat="43.19573" lon="6.60904">
        <ele>134</ele>
        <time>2013-09-16T13:51:59.000Z</time>
      </trkpt>
      <trkpt lat="43.19572" lon="6.60903">
        <ele>134</ele>
        <time>2013-09-16T13:52:00.000Z</time>
      </trkpt>
      <trkpt lat="43.19571" lon="6.60902">
        <ele>134</ele>
        <time>2013-09-16T13:52:01.000Z</time>
      </trkpt>
      <trkpt lat="43.19569" lon="6.609">
        <ele>135</ele>
        <time>2013-09-16T13:52:02.000Z</time>
      </trkpt>
      <trkpt lat="43.19568" lon="6.60897">
        <ele>135</ele>
        <time>2013-09-16T13:52:03.000Z</time>
      </trkpt>
      <trkpt lat="43.19567" lon="6.60895">
        <ele>135</ele>
        <time>2013-09-16T13:52:04.000Z</time>
      </trkpt>
      <trkpt lat="43.19566" lon="6.60893">
        <ele>135</ele>
        <time>2013-09-16T13:52:05.000Z</time>
      </trkpt>
      <trkpt lat="43.19564" lon="6.60891">
        <ele>135</ele>
        <time>2013-09-16T13:52:06.000Z</time>
      </trkpt>
      <trkpt lat="43.19563" lon="6.60889">
        <ele>135</ele>
        <time>2013-09-16T13:52:07.000Z</time>
      </trkpt>
      <trkpt lat="43.19562" lon="6.60886">
        <ele>135</ele>
        <time>2013-09-16T13:52:08.000Z</time>
      </trkpt>
      <trkpt lat="43.19561" lon="6.60883">
        <ele>135</ele>
        <time>2013-09-16T13:52:09.000Z</time>
      </trkpt>
      <trkpt lat="43.19561" lon="6.60881">
        <ele>135</ele>
        <time>2013-09-16T13:52:10.000Z</time>
      </trkpt>
      <trkpt lat="43.19561" lon="6.60878">
        <ele>135</ele>
        <time>2013-09-16T13:52:11.000Z</time>
      </trkpt>
      <trkpt lat="43.19561" lon="6.60875">
        <ele>135</ele>
        <time>2013-09-16T13:52:12.000Z</time>
      </trkpt>
      <trkpt lat="43.19562" lon="6.60872">
        <ele>135</ele>
        <time>2013-09-16T13:52:13.000Z</time>
      </trkpt>
      <trkpt lat="43.19563" lon="6.60868">
        <ele>135</ele>
        <time>2013-09-16T13:52:14.000Z</time>
      </trkpt>
      <trkpt lat="43.19564" lon="6.60866">
        <ele>135</ele>
        <time>2013-09-16T13:52:15.000Z</time>
      </trkpt>
      <trkpt lat="43.19565" lon="6.60862">
        <ele>135</ele>
        <time>2013-09-16T13:52:16.000Z</time>
      </trkpt>
      <trkpt lat="43.19566" lon="6.60859">
        <ele>135</ele>
        <time>2013-09-16T13:52:17.000Z</time>
      </trkpt>
      <trkpt lat="43.19568" lon="6.60855">
        <ele>135</ele>
        <time>2013-09-16T13:52:18.000Z</time>
      </trkpt>
      <trkpt lat="43.19569" lon="6.60851">
        <ele>135</ele>
        <time>2013-09-16T13:52:19.000Z</time>
      </trkpt>
      <trkpt lat="43.19571" lon="6.60848">
        <ele>135</ele>
        <time>2013-09-16T13:52:20.000Z</time>
      </trkpt>
      <trkpt lat="43.19573" lon="6.60844">
        <ele>135</ele>
        <time>2013-09-16T13:52:21.000Z</time>
      </trkpt>
      <trkpt lat="43.19575" lon="6.6084">
        <ele>136</ele>
        <time>2013-09-16T13:52:22.000Z</time>
      </trkpt>
      <trkpt lat="43.19577" lon="6.60836">
        <ele>136</ele>
        <time>2013-09-16T13:52:23.000Z</time>
      </trkpt>
      <trkpt lat="43.19579" lon="6.60831">
        <ele>134</ele>
        <time>2013-09-16T13:52:24.000Z</time>
      </trkpt>
      <trkpt lat="43.19581" lon="6.60827">
        <ele>133</ele>
        <time>2013-09-16T13:52:25.000Z</time>
      </trkpt>
      <trkpt lat="43.19584" lon="6.60824">
        <ele>136</ele>
        <time>2013-09-16T13:52:26.000Z</time>
      </trkpt>
      <trkpt lat="43.19585" lon="6.6082">
        <ele>136</ele>
        <time>2013-09-16T13:52:27.000Z</time>
      </trkpt>
      <trkpt lat="43.19587" lon="6.60816">
        <ele>135</ele>
        <time>2013-09-16T13:52:28.000Z</time>
      </trkpt>
      <trkpt lat="43.1959" lon="6.60811">
        <ele>135</ele>
        <time>2013-09-16T13:52:29.000Z</time>
      </trkpt>
      <trkpt lat="43.19593" lon="6.60806">
        <ele>135</ele>
        <time>2013-09-16T13:52:30.000Z</time>
      </trkpt>
      <trkpt lat="43.19595" lon="6.60802">
        <ele>134</ele>
        <time>2013-09-16T13:52:31.000Z</time>
      </trkpt>
      <trkpt lat="43.19599" lon="6.60797">
        <ele>134</ele>
        <time>2013-09-16T13:52:32.000Z</time>
      </trkpt>
      <trkpt lat="43.19603" lon="6.60793">
        <ele>134</ele>
        <time>2013-09-16T13:52:33.000Z</time>
      </trkpt>
      <trkpt lat="43.19607" lon="6.60788">
        <ele>134</ele>
        <time>2013-09-16T13:52:34.000Z</time>
      </trkpt>
      <trkpt lat="43.19611" lon="6.60783">
        <ele>134</ele>
        <time>2013-09-16T13:52:35.000Z</time>
      </trkpt>
      <trkpt lat="43.19616" lon="6.6078">
        <ele>134</ele>
        <time>2013-09-16T13:52:36.000Z</time>
      </trkpt>
      <trkpt lat="43.19621" lon="6.60776">
        <ele>134</ele>
        <time>2013-09-16T13:52:37.000Z</time>
      </trkpt>
      <trkpt lat="43.19626" lon="6.60772">
        <ele>134</ele>
        <time>2013-09-16T13:52:38.000Z</time>
      </trkpt>
      <trkpt lat="43.19631" lon="6.60767">
        <ele>134</ele>
        <time>2013-09-16T13:52:39.000Z</time>
      </trkpt>
      <trkpt lat="43.19635" lon="6.60762">
        <ele>135</ele>
        <time>2013-09-16T13:52:40.000Z</time>
      </trkpt>
      <trkpt lat="43.1964" lon="6.60757">
        <ele>135</ele>
        <time>2013-09-16T13:52:41.000Z</time>
      </trkpt>
      <trkpt lat="43.19644" lon="6.60751">
        <ele>135</ele>
        <time>2013-09-16T13:52:42.000Z</time>
      </trkpt>
      <trkpt lat="43.19647" lon="6.60746">
        <ele>127</ele>
        <time>2013-09-16T13:52:43.000Z</time>
      </trkpt>
      <trkpt lat="43.1965" lon="6.6074">
        <ele>127</ele>
        <time>2013-09-16T13:52:44.000Z</time>
      </trkpt>
      <trkpt lat="43.19654" lon="6.60733">
        <ele>126</ele>
        <time>2013-09-16T13:52:45.000Z</time>
      </trkpt>
      <trkpt lat="43.19657" lon="6.60727">
        <ele>125</ele>
        <time>2013-09-16T13:52:46.000Z</time>
      </trkpt>
      <trkpt lat="43.19661" lon="6.60721">
        <ele>124</ele>
        <time>2013-09-16T13:52:47.000Z</time>
      </trkpt>
      <trkpt lat="43.19664" lon="6.60715">
        <ele>123</ele>
        <time>2013-09-16T13:52:48.000Z</time>
      </trkpt>
      <trkpt lat="43.19669" lon="6.60709">
        <ele>134</ele>
        <time>2013-09-16T13:52:49.000Z</time>
      </trkpt>
      <trkpt lat="43.19673" lon="6.60704">
        <ele>134</ele>
        <time>2013-09-16T13:52:50.000Z</time>
      </trkpt>
      <trkpt lat="43.19678" lon="6.60698">
        <ele>133</ele>
        <time>2013-09-16T13:52:51.000Z</time>
      </trkpt>
      <trkpt lat="43.19682" lon="6.60691">
        <ele>132</ele>
        <time>2013-09-16T13:52:52.000Z</time>
      </trkpt>
      <trkpt lat="43.19687" lon="6.60685">
        <ele>132</ele>
        <time>2013-09-16T13:52:53.000Z</time>
      </trkpt>
      <trkpt lat="43.19692" lon="6.60678">
        <ele>132</ele>
        <time>2013-09-16T13:52:54.000Z</time>
      </trkpt>
      <trkpt lat="43.19697" lon="6.60672">
        <ele>132</ele>
        <time>2013-09-16T13:52:55.000Z</time>
      </trkpt>
      <trkpt lat="43.19701" lon="6.60665">
        <ele>123</ele>
        <time>2013-09-16T13:52:56.000Z</time>
      </trkpt>
      <trkpt lat="43.19706" lon="6.60658">
        <ele>124</ele>
        <time>2013-09-16T13:52:57.000Z</time>
      </trkpt>
      <trkpt lat="43.19712" lon="6.60651">
        <ele>124</ele>
        <time>2013-09-16T13:52:58.000Z</time>
      </trkpt>
      <trkpt lat="43.19717" lon="6.60644">
        <ele>125</ele>
        <time>2013-09-16T13:52:59.000Z</time>
      </trkpt>
      <trkpt lat="43.19723" lon="6.60637">
        <ele>125</ele>
        <time>2013-09-16T13:53:00.000Z</time>
      </trkpt>
      <trkpt lat="43.19728" lon="6.6063">
        <ele>125</ele>
        <time>2013-09-16T13:53:01.000Z</time>
      </trkpt>
      <trkpt lat="43.19733" lon="6.60621">
        <ele>124</ele>
        <time>2013-09-16T13:53:02.000Z</time>
      </trkpt>
      <trkpt lat="43.19738" lon="6.60613">
        <ele>124</ele>
        <time>2013-09-16T13:53:03.000Z</time>
      </trkpt>
      <trkpt lat="43.19743" lon="6.60605">
        <ele>123</ele>
        <time>2013-09-16T13:53:04.000Z</time>
      </trkpt>
      <trkpt lat="43.19749" lon="6.60597">
        <ele>123</ele>
        <time>2013-09-16T13:53:05.000Z</time>
      </trkpt>
      <trkpt lat="43.19755" lon="6.60589">
        <ele>129</ele>
        <time>2013-09-16T13:53:06.000Z</time>
      </trkpt>
      <trkpt lat="43.19761" lon="6.60581">
        <ele>125</ele>
        <time>2013-09-16T13:53:07.000Z</time>
      </trkpt>
      <trkpt lat="43.19766" lon="6.60574">
        <ele>126</ele>
        <time>2013-09-16T13:53:08.000Z</time>
      </trkpt>
      <trkpt lat="43.19772" lon="6.60566">
        <ele>127</ele>
        <time>2013-09-16T13:53:09.000Z</time>
      </trkpt>
      <trkpt lat="43.19777" lon="6.60558">
        <ele>127</ele>
        <time>2013-09-16T13:53:10.000Z</time>
      </trkpt>
      <trkpt lat="43.19781" lon="6.60549">
        <ele>127</ele>
        <time>2013-09-16T13:53:11.000Z</time>
      </trkpt>
      <trkpt lat="43.19784" lon="6.60539">
        <ele>126</ele>
        <time>2013-09-16T13:53:12.000Z</time>
      </trkpt>
      <trkpt lat="43.19787" lon="6.60529">
        <ele>126</ele>
        <time>2013-09-16T13:53:13.000Z</time>
      </trkpt>
      <trkpt lat="43.1979" lon="6.60519">
        <ele>125</ele>
        <time>2013-09-16T13:53:14.000Z</time>
      </trkpt>
      <trkpt lat="43.19793" lon="6.60509">
        <ele>125</ele>
        <time>2013-09-16T13:53:15.000Z</time>
      </trkpt>
      <trkpt lat="43.19794" lon="6.60498">
        <ele>119</ele>
        <time>2013-09-16T13:53:16.000Z</time>
      </trkpt>
      <trkpt lat="43.19794" lon="6.60487">
        <ele>118</ele>
        <time>2013-09-16T13:53:17.000Z</time>
      </trkpt>
      <trkpt lat="43.19794" lon="6.60477">
        <ele>118</ele>
        <time>2013-09-16T13:53:18.000Z</time>
      </trkpt>
      <trkpt lat="43.19794" lon="6.60465">
        <ele>118</ele>
        <time>2013-09-16T13:53:19.000Z</time>
      </trkpt>
      <trkpt lat="43.19793" lon="6.60455">
        <ele>117</ele>
        <time>2013-09-16T13:53:20.000Z</time>
      </trkpt>
      <trkpt lat="43.19793" lon="6.60444">
        <ele>117</ele>
        <time>2013-09-16T13:53:21.000Z</time>
      </trkpt>
      <trkpt lat="43.19792" lon="6.60434">
        <ele>116</ele>
        <time>2013-09-16T13:53:22.000Z</time>
      </trkpt>
      <trkpt lat="43.19792" lon="6.60423">
        <ele>116</ele>
        <time>2013-09-16T13:53:23.000Z</time>
      </trkpt>
      <trkpt lat="43.19791" lon="6.60412">
        <ele>112</ele>
        <time>2013-09-16T13:53:24.000Z</time>
      </trkpt>
      <trkpt lat="43.19788" lon="6.60402">
        <ele>111</ele>
        <time>2013-09-16T13:53:25.000Z</time>
      </trkpt>
      <trkpt lat="43.19783" lon="6.60394">
        <ele>110</ele>
        <time>2013-09-16T13:53:26.000Z</time>
      </trkpt>
      <trkpt lat="43.19777" lon="6.60388">
        <ele>110</ele>
        <time>2013-09-16T13:53:27.000Z</time>
      </trkpt>
      <trkpt lat="43.19771" lon="6.60382">
        <ele>109</ele>
        <time>2013-09-16T13:53:28.000Z</time>
      </trkpt>
      <trkpt lat="43.19764" lon="6.60377">
        <ele>109</ele>
        <time>2013-09-16T13:53:29.000Z</time>
      </trkpt>
      <trkpt lat="43.19757" lon="6.60371">
        <ele>108</ele>
        <time>2013-09-16T13:53:30.000Z</time>
      </trkpt>
      <trkpt lat="43.1975" lon="6.60366">
        <ele>98</ele>
        <time>2013-09-16T13:53:31.000Z</time>
      </trkpt>
      <trkpt lat="43.19743" lon="6.60361">
        <ele>98</ele>
        <time>2013-09-16T13:53:32.000Z</time>
      </trkpt>
      <trkpt lat="43.19738" lon="6.60355">
        <ele>98</ele>
        <time>2013-09-16T13:53:33.000Z</time>
      </trkpt>
      <trkpt lat="43.19734" lon="6.60347">
        <ele>98</ele>
        <time>2013-09-16T13:53:34.000Z</time>
      </trkpt>
      <trkpt lat="43.19732" lon="6.60339">
        <ele>99</ele>
        <time>2013-09-16T13:53:35.000Z</time>
      </trkpt>
      <trkpt lat="43.1973" lon="6.6033">
        <ele>99</ele>
        <time>2013-09-16T13:53:36.000Z</time>
      </trkpt>
      <trkpt lat="43.1973" lon="6.6032">
        <ele>98</ele>
        <time>2013-09-16T13:53:37.000Z</time>
      </trkpt>
      <trkpt lat="43.19731" lon="6.60309">
        <ele>97</ele>
        <time>2013-09-16T13:53:38.000Z</time>
      </trkpt>
      <trkpt lat="43.19734" lon="6.60299">
        <ele>97</ele>
        <time>2013-09-16T13:53:39.000Z</time>
      </trkpt>
      <trkpt lat="43.19737" lon="6.60291">
        <ele>96</ele>
        <time>2013-09-16T13:53:40.000Z</time>
      </trkpt>
      <trkpt lat="43.19741" lon="6.60284">
        <ele>96</ele>
        <time>2013-09-16T13:53:41.000Z</time>
      </trkpt>
      <trkpt lat="43.19745" lon="6.60279">
        <ele>96</ele>
        <time>2013-09-16T13:53:42.000Z</time>
      </trkpt>
      <trkpt lat="43.19751" lon="6.60276">
        <ele>99</ele>
        <time>2013-09-16T13:53:43.000Z</time>
      </trkpt>
      <trkpt lat="43.19758" lon="6.60274">
        <ele>99</ele>
        <time>2013-09-16T13:53:44.000Z</time>
      </trkpt>
      <trkpt lat="43.19764" lon="6.60275">
        <ele>99</ele>
        <time>2013-09-16T13:53:45.000Z</time>
      </trkpt>
      <trkpt lat="43.19772" lon="6.60277">
        <ele>100</ele>
        <time>2013-09-16T13:53:46.000Z</time>
      </trkpt>
      <trkpt lat="43.19779" lon="6.6028">
        <ele>100</ele>
        <time>2013-09-16T13:53:47.000Z</time>
      </trkpt>
      <trkpt lat="43.19786" lon="6.60283">
        <ele>100</ele>
        <time>2013-09-16T13:53:48.000Z</time>
      </trkpt>
      <trkpt lat="43.19792" lon="6.60287">
        <ele>100</ele>
        <time>2013-09-16T13:53:49.000Z</time>
      </trkpt>
      <trkpt lat="43.19798" lon="6.60292">
        <ele>101</ele>
        <time>2013-09-16T13:53:50.000Z</time>
      </trkpt>
      <trkpt lat="43.19804" lon="6.60297">
        <ele>101</ele>
        <time>2013-09-16T13:53:51.000Z</time>
      </trkpt>
      <trkpt lat="43.1981" lon="6.60303">
        <ele>102</ele>
        <time>2013-09-16T13:53:52.000Z</time>
      </trkpt>
      <trkpt lat="43.19817" lon="6.60307">
        <ele>102</ele>
        <time>2013-09-16T13:53:53.000Z</time>
      </trkpt>
      <trkpt lat="43.19824" lon="6.6031">
        <ele>103</ele>
        <time>2013-09-16T13:53:54.000Z</time>
      </trkpt>
      <trkpt lat="43.19831" lon="6.60311">
        <ele>104</ele>
        <time>2013-09-16T13:53:55.000Z</time>
      </trkpt>
      <trkpt lat="43.19838" lon="6.6031">
        <ele>104</ele>
        <time>2013-09-16T13:53:56.000Z</time>
      </trkpt>
      <trkpt lat="43.19845" lon="6.60309">
        <ele>104</ele>
        <time>2013-09-16T13:53:57.000Z</time>
      </trkpt>
      <trkpt lat="43.19852" lon="6.60306">
        <ele>103</ele>
        <time>2013-09-16T13:53:58.000Z</time>
      </trkpt>
      <trkpt lat="43.19859" lon="6.60302">
        <ele>103</ele>
        <time>2013-09-16T13:53:59.000Z</time>
      </trkpt>
      <trkpt lat="43.19866" lon="6.60298">
        <ele>102</ele>
        <time>2013-09-16T13:54:00.000Z</time>
      </trkpt>
      <trkpt lat="43.19873" lon="6.60294">
        <ele>102</ele>
        <time>2013-09-16T13:54:01.000Z</time>
      </trkpt>
      <trkpt lat="43.1988" lon="6.6029">
        <ele>102</ele>
        <time>2013-09-16T13:54:02.000Z</time>
      </trkpt>
      <trkpt lat="43.19886" lon="6.60285">
        <ele>101</ele>
        <time>2013-09-16T13:54:03.000Z</time>
      </trkpt>
      <trkpt lat="43.19893" lon="6.60281">
        <ele>101</ele>
        <time>2013-09-16T13:54:04.000Z</time>
      </trkpt>
      <trkpt lat="43.199" lon="6.60276">
        <ele>100</ele>
        <time>2013-09-16T13:54:05.000Z</time>
      </trkpt>
      <trkpt lat="43.19907" lon="6.60272">
        <ele>99</ele>
        <time>2013-09-16T13:54:06.000Z</time>
      </trkpt>
      <trkpt lat="43.19913" lon="6.60267">
        <ele>98</ele>
        <time>2013-09-16T13:54:07.000Z</time>
      </trkpt>
      <trkpt lat="43.1992" lon="6.60263">
        <ele>100</ele>
        <time>2013-09-16T13:54:08.000Z</time>
      </trkpt>
      <trkpt lat="43.19927" lon="6.60259">
        <ele>100</ele>
        <time>2013-09-16T13:54:09.000Z</time>
      </trkpt>
      <trkpt lat="43.19934" lon="6.60256">
        <ele>101</ele>
        <time>2013-09-16T13:54:10.000Z</time>
      </trkpt>
      <trkpt lat="43.19941" lon="6.60253">
        <ele>102</ele>
        <time>2013-09-16T13:54:11.000Z</time>
      </trkpt>
      <trkpt lat="43.19948" lon="6.6025">
        <ele>103</ele>
        <time>2013-09-16T13:54:12.000Z</time>
      </trkpt>
      <trkpt lat="43.19955" lon="6.60248">
        <ele>96</ele>
        <time>2013-09-16T13:54:13.000Z</time>
      </trkpt>
      <trkpt lat="43.19962" lon="6.60245">
        <ele>97</ele>
        <time>2013-09-16T13:54:14.000Z</time>
      </trkpt>
      <trkpt lat="43.19969" lon="6.6024">
        <ele>97</ele>
        <time>2013-09-16T13:54:15.000Z</time>
      </trkpt>
      <trkpt lat="43.19975" lon="6.60235">
        <ele>98</ele>
        <time>2013-09-16T13:54:16.000Z</time>
      </trkpt>
      <trkpt lat="43.19982" lon="6.60229">
        <ele>98</ele>
        <time>2013-09-16T13:54:17.000Z</time>
      </trkpt>
      <trkpt lat="43.19988" lon="6.60222">
        <ele>98</ele>
        <time>2013-09-16T13:54:18.000Z</time>
      </trkpt>
      <trkpt lat="43.19993" lon="6.60216">
        <ele>98</ele>
        <time>2013-09-16T13:54:19.000Z</time>
      </trkpt>
      <trkpt lat="43.19999" lon="6.6021">
        <ele>97</ele>
        <time>2013-09-16T13:54:20.000Z</time>
      </trkpt>
      <trkpt lat="43.20003" lon="6.60204">
        <ele>103</ele>
        <time>2013-09-16T13:54:21.000Z</time>
      </trkpt>
      <trkpt lat="43.20007" lon="6.60198">
        <ele>102</ele>
        <time>2013-09-16T13:54:22.000Z</time>
      </trkpt>
      <trkpt lat="43.20009" lon="6.60191">
        <ele>102</ele>
        <time>2013-09-16T13:54:23.000Z</time>
      </trkpt>
      <trkpt lat="43.2001" lon="6.60184">
        <ele>101</ele>
        <time>2013-09-16T13:54:24.000Z</time>
      </trkpt>
      <trkpt lat="43.20009" lon="6.60177">
        <ele>101</ele>
        <time>2013-09-16T13:54:25.000Z</time>
      </trkpt>
      <trkpt lat="43.20006" lon="6.60171">
        <ele>100</ele>
        <time>2013-09-16T13:54:26.000Z</time>
      </trkpt>
      <trkpt lat="43.20003" lon="6.60166">
        <ele>99</ele>
        <time>2013-09-16T13:54:27.000Z</time>
      </trkpt>
      <trkpt lat="43.19999" lon="6.60163">
        <ele>97</ele>
        <time>2013-09-16T13:54:28.000Z</time>
      </trkpt>
      <trkpt lat="43.19994" lon="6.60161">
        <ele>97</ele>
        <time>2013-09-16T13:54:29.000Z</time>
      </trkpt>
      <trkpt lat="43.1999" lon="6.60161">
        <ele>97</ele>
        <time>2013-09-16T13:54:30.000Z</time>
      </trkpt>
      <trkpt lat="43.19984" lon="6.6016">
        <ele>96</ele>
        <time>2013-09-16T13:54:31.000Z</time>
      </trkpt>
      <trkpt lat="43.19979" lon="6.60161">
        <ele>96</ele>
        <time>2013-09-16T13:54:32.000Z</time>
      </trkpt>
      <trkpt lat="43.19973" lon="6.60161">
        <ele>95</ele>
        <time>2013-09-16T13:54:33.000Z</time>
      </trkpt>
      <trkpt lat="43.19968" lon="6.60161">
        <ele>95</ele>
        <time>2013-09-16T13:54:34.000Z</time>
      </trkpt>
      <trkpt lat="43.19962" lon="6.60161">
        <ele>94</ele>
        <time>2013-09-16T13:54:35.000Z</time>
      </trkpt>
      <trkpt lat="43.19956" lon="6.60161">
        <ele>93</ele>
        <time>2013-09-16T13:54:36.000Z</time>
      </trkpt>
      <trkpt lat="43.1995" lon="6.6016">
        <ele>93</ele>
        <time>2013-09-16T13:54:37.000Z</time>
      </trkpt>
      <trkpt lat="43.19944" lon="6.60158">
        <ele>92</ele>
        <time>2013-09-16T13:54:38.000Z</time>
      </trkpt>
      <trkpt lat="43.19939" lon="6.60154">
        <ele>92</ele>
        <time>2013-09-16T13:54:39.000Z</time>
      </trkpt>
      <trkpt lat="43.19935" lon="6.60149">
        <ele>91</ele>
        <time>2013-09-16T13:54:40.000Z</time>
      </trkpt>
      <trkpt lat="43.19932" lon="6.60143">
        <ele>92</ele>
        <time>2013-09-16T13:54:41.000Z</time>
      </trkpt>
      <trkpt lat="43.19929" lon="6.60136">
        <ele>92</ele>
        <time>2013-09-16T13:54:42.000Z</time>
      </trkpt>
      <trkpt lat="43.19928" lon="6.60128">
        <ele>92</ele>
        <time>2013-09-16T13:54:43.000Z</time>
      </trkpt>
      <trkpt lat="43.19927" lon="6.6012">
        <ele>93</ele>
        <time>2013-09-16T13:54:44.000Z</time>
      </trkpt>
      <trkpt lat="43.19927" lon="6.60112">
        <ele>93</ele>
        <time>2013-09-16T13:54:45.000Z</time>
      </trkpt>
      <trkpt lat="43.19927" lon="6.60104">
        <ele>92</ele>
        <time>2013-09-16T13:54:46.000Z</time>
      </trkpt>
      <trkpt lat="43.19926" lon="6.60096">
        <ele>92</ele>
        <time>2013-09-16T13:54:47.000Z</time>
      </trkpt>
      <trkpt lat="43.19926" lon="6.60087">
        <ele>92</ele>
        <time>2013-09-16T13:54:48.000Z</time>
      </trkpt>
      <trkpt lat="43.19924" lon="6.60079">
        <ele>94</ele>
        <time>2013-09-16T13:54:49.000Z</time>
      </trkpt>
      <trkpt lat="43.1992" lon="6.60072">
        <ele>96</ele>
        <time>2013-09-16T13:54:50.000Z</time>
      </trkpt>
      <trkpt lat="43.19915" lon="6.60067">
        <ele>93</ele>
        <time>2013-09-16T13:54:51.000Z</time>
      </trkpt>
      <trkpt lat="43.19909" lon="6.60065">
        <ele>93</ele>
        <time>2013-09-16T13:54:52.000Z</time>
      </trkpt>
      <trkpt lat="43.19903" lon="6.60064">
        <ele>93</ele>
        <time>2013-09-16T13:54:53.000Z</time>
      </trkpt>
      <trkpt lat="43.19896" lon="6.60065">
        <ele>93</ele>
        <time>2013-09-16T13:54:54.000Z</time>
      </trkpt>
      <trkpt lat="43.1989" lon="6.60065">
        <ele>93</ele>
        <time>2013-09-16T13:54:55.000Z</time>
      </trkpt>
      <trkpt lat="43.19883" lon="6.60066">
        <ele>93</ele>
        <time>2013-09-16T13:54:56.000Z</time>
      </trkpt>
      <trkpt lat="43.19877" lon="6.60065">
        <ele>92</ele>
        <time>2013-09-16T13:54:57.000Z</time>
      </trkpt>
      <trkpt lat="43.1987" lon="6.60065">
        <ele>92</ele>
        <time>2013-09-16T13:54:58.000Z</time>
      </trkpt>
      <trkpt lat="43.19864" lon="6.60064">
        <ele>91</ele>
        <time>2013-09-16T13:54:59.000Z</time>
      </trkpt>
      <trkpt lat="43.19857" lon="6.60064">
        <ele>91</ele>
        <time>2013-09-16T13:55:00.000Z</time>
      </trkpt>
      <trkpt lat="43.19851" lon="6.60063">
        <ele>90</ele>
        <time>2013-09-16T13:55:01.000Z</time>
      </trkpt>
      <trkpt lat="43.19844" lon="6.60062">
        <ele>89</ele>
        <time>2013-09-16T13:55:02.000Z</time>
      </trkpt>
      <trkpt lat="43.19838" lon="6.60061">
        <ele>89</ele>
        <time>2013-09-16T13:55:03.000Z</time>
      </trkpt>
      <trkpt lat="43.19831" lon="6.60059">
        <ele>84</ele>
        <time>2013-09-16T13:55:04.000Z</time>
      </trkpt>
      <trkpt lat="43.19824" lon="6.60056">
        <ele>85</ele>
        <time>2013-09-16T13:55:05.000Z</time>
      </trkpt>
      <trkpt lat="43.19818" lon="6.60052">
        <ele>85</ele>
        <time>2013-09-16T13:55:06.000Z</time>
      </trkpt>
      <trkpt lat="43.19811" lon="6.60049">
        <ele>85</ele>
        <time>2013-09-16T13:55:07.000Z</time>
      </trkpt>
      <trkpt lat="43.19804" lon="6.60046">
        <ele>85</ele>
        <time>2013-09-16T13:55:08.000Z</time>
      </trkpt>
      <trkpt lat="43.19797" lon="6.60044">
        <ele>85</ele>
        <time>2013-09-16T13:55:09.000Z</time>
      </trkpt>
      <trkpt lat="43.1979" lon="6.60043">
        <ele>85</ele>
        <time>2013-09-16T13:55:10.000Z</time>
      </trkpt>
      <trkpt lat="43.19782" lon="6.60042">
        <ele>84</ele>
        <time>2013-09-16T13:55:11.000Z</time>
      </trkpt>
      <trkpt lat="43.19775" lon="6.60042">
        <ele>84</ele>
        <time>2013-09-16T13:55:12.000Z</time>
      </trkpt>
      <trkpt lat="43.19767" lon="6.60041">
        <ele>84</ele>
        <time>2013-09-16T13:55:13.000Z</time>
      </trkpt>
      <trkpt lat="43.1976" lon="6.60041">
        <ele>84</ele>
        <time>2013-09-16T13:55:14.000Z</time>
      </trkpt>
      <trkpt lat="43.19753" lon="6.60041">
        <ele>83</ele>
        <time>2013-09-16T13:55:15.000Z</time>
      </trkpt>
      <trkpt lat="43.19745" lon="6.60041">
        <ele>78</ele>
        <time>2013-09-16T13:55:16.000Z</time>
      </trkpt>
      <trkpt lat="43.19738" lon="6.60041">
        <ele>78</ele>
        <time>2013-09-16T13:55:17.000Z</time>
      </trkpt>
      <trkpt lat="43.1973" lon="6.60041">
        <ele>77</ele>
        <time>2013-09-16T13:55:18.000Z</time>
      </trkpt>
      <trkpt lat="43.19709" lon="6.60041">
        <ele>76</ele>
        <time>2013-09-16T13:55:21.000Z</time>
      </trkpt>
      <trkpt lat="43.19701" lon="6.60041">
        <ele>76</ele>
        <time>2013-09-16T13:55:22.000Z</time>
      </trkpt>
      <trkpt lat="43.19694" lon="6.6004">
        <ele>75</ele>
        <time>2013-09-16T13:55:23.000Z</time>
      </trkpt>
      <trkpt lat="43.19687" lon="6.60039">
        <ele>75</ele>
        <time>2013-09-16T13:55:24.000Z</time>
      </trkpt>
      <trkpt lat="43.19681" lon="6.60038">
        <ele>75</ele>
        <time>2013-09-16T13:55:25.000Z</time>
      </trkpt>
      <trkpt lat="43.19674" lon="6.60036">
        <ele>75</ele>
        <time>2013-09-16T13:55:26.000Z</time>
      </trkpt>
      <trkpt lat="43.19667" lon="6.60035">
        <ele>75</ele>
        <time>2013-09-16T13:55:27.000Z</time>
      </trkpt>
      <trkpt lat="43.19661" lon="6.60035">
        <ele>69</ele>
        <time>2013-09-16T13:55:28.000Z</time>
      </trkpt>
      <trkpt lat="43.19654" lon="6.60035">
        <ele>68</ele>
        <time>2013-09-16T13:55:29.000Z</time>
      </trkpt>
      <trkpt lat="43.19648" lon="6.60036">
        <ele>68</ele>
        <time>2013-09-16T13:55:30.000Z</time>
      </trkpt>
      <trkpt lat="43.19642" lon="6.60037">
        <ele>68</ele>
        <time>2013-09-16T13:55:31.000Z</time>
      </trkpt>
      <trkpt lat="43.19629" lon="6.60036">
        <ele>67</ele>
        <time>2013-09-16T13:55:33.000Z</time>
      </trkpt>
      <trkpt lat="43.19624" lon="6.60033">
        <ele>67</ele>
        <time>2013-09-16T13:55:34.000Z</time>
      </trkpt>
      <trkpt lat="43.19618" lon="6.60029">
        <ele>66</ele>
        <time>2013-09-16T13:55:35.000Z</time>
      </trkpt>
      <trkpt lat="43.19614" lon="6.60024">
        <ele>66</ele>
        <time>2013-09-16T13:55:36.000Z</time>
      </trkpt>
      <trkpt lat="43.19611" lon="6.60019">
        <ele>66</ele>
        <time>2013-09-16T13:55:37.000Z</time>
      </trkpt>
      <trkpt lat="43.1961" lon="6.60012">
        <ele>66</ele>
        <time>2013-09-16T13:55:38.000Z</time>
      </trkpt>
      <trkpt lat="43.1961" lon="6.60005">
        <ele>66</ele>
        <time>2013-09-16T13:55:39.000Z</time>
      </trkpt>
      <trkpt lat="43.19613" lon="6.6">
        <ele>69</ele>
        <time>2013-09-16T13:55:40.000Z</time>
      </trkpt>
      <trkpt lat="43.19617" lon="6.59995">
        <ele>69</ele>
        <time>2013-09-16T13:55:41.000Z</time>
      </trkpt>
      <trkpt lat="43.19621" lon="6.5999">
        <ele>70</ele>
        <time>2013-09-16T13:55:42.000Z</time>
      </trkpt>
      <trkpt lat="43.19626" lon="6.59985">
        <ele>70</ele>
        <time>2013-09-16T13:55:43.000Z</time>
      </trkpt>
      <trkpt lat="43.1963" lon="6.59981">
        <ele>71</ele>
        <time>2013-09-16T13:55:44.000Z</time>
      </trkpt>
      <trkpt lat="43.19635" lon="6.59976">
        <ele>71</ele>
        <time>2013-09-16T13:55:45.000Z</time>
      </trkpt>
      <trkpt lat="43.1964" lon="6.59971">
        <ele>71</ele>
        <time>2013-09-16T13:55:46.000Z</time>
      </trkpt>
      <trkpt lat="43.19644" lon="6.59964">
        <ele>72</ele>
        <time>2013-09-16T13:55:47.000Z</time>
      </trkpt>
      <trkpt lat="43.19648" lon="6.59957">
        <ele>72</ele>
        <time>2013-09-16T13:55:48.000Z</time>
      </trkpt>
      <trkpt lat="43.19652" lon="6.5995">
        <ele>72</ele>
        <time>2013-09-16T13:55:49.000Z</time>
      </trkpt>
      <trkpt lat="43.19655" lon="6.59942">
        <ele>73</ele>
        <time>2013-09-16T13:55:50.000Z</time>
      </trkpt>
      <trkpt lat="43.19659" lon="6.59934">
        <ele>74</ele>
        <time>2013-09-16T13:55:51.000Z</time>
      </trkpt>
      <trkpt lat="43.19662" lon="6.59927">
        <ele>75</ele>
        <time>2013-09-16T13:55:52.000Z</time>
      </trkpt>
      <trkpt lat="43.19666" lon="6.5992">
        <ele>76</ele>
        <time>2013-09-16T13:55:53.000Z</time>
      </trkpt>
      <trkpt lat="43.1967" lon="6.59913">
        <ele>79</ele>
        <time>2013-09-16T13:55:54.000Z</time>
      </trkpt>
      <trkpt lat="43.19674" lon="6.59906">
        <ele>82</ele>
        <time>2013-09-16T13:55:55.000Z</time>
      </trkpt>
      <trkpt lat="43.19678" lon="6.59899">
        <ele>84</ele>
        <time>2013-09-16T13:55:56.000Z</time>
      </trkpt>
      <trkpt lat="43.19681" lon="6.59893">
        <ele>85</ele>
        <time>2013-09-16T13:55:57.000Z</time>
      </trkpt>
      <trkpt lat="43.19684" lon="6.59886">
        <ele>86</ele>
        <time>2013-09-16T13:55:58.000Z</time>
      </trkpt>
      <trkpt lat="43.19686" lon="6.59878">
        <ele>87</ele>
        <time>2013-09-16T13:55:59.000Z</time>
      </trkpt>
      <trkpt lat="43.19687" lon="6.59871">
        <ele>87</ele>
        <time>2013-09-16T13:56:00.000Z</time>
      </trkpt>
      <trkpt lat="43.19686" lon="6.59863">
        <ele>87</ele>
        <time>2013-09-16T13:56:01.000Z</time>
      </trkpt>
      <trkpt lat="43.19684" lon="6.59856">
        <ele>87</ele>
        <time>2013-09-16T13:56:02.000Z</time>
      </trkpt>
      <trkpt lat="43.1968" lon="6.5985">
        <ele>87</ele>
        <time>2013-09-16T13:56:03.000Z</time>
      </trkpt>
      <trkpt lat="43.19675" lon="6.59847">
        <ele>86</ele>
        <time>2013-09-16T13:56:04.000Z</time>
      </trkpt>
      <trkpt lat="43.1967" lon="6.59846">
        <ele>85</ele>
        <time>2013-09-16T13:56:05.000Z</time>
      </trkpt>
      <trkpt lat="43.19664" lon="6.59847">
        <ele>80</ele>
        <time>2013-09-16T13:56:06.000Z</time>
      </trkpt>
      <trkpt lat="43.19659" lon="6.59847">
        <ele>80</ele>
        <time>2013-09-16T13:56:07.000Z</time>
      </trkpt>
      <trkpt lat="43.19653" lon="6.59848">
        <ele>79</ele>
        <time>2013-09-16T13:56:08.000Z</time>
      </trkpt>
      <trkpt lat="43.19648" lon="6.59849">
        <ele>78</ele>
        <time>2013-09-16T13:56:09.000Z</time>
      </trkpt>
      <trkpt lat="43.19642" lon="6.5985">
        <ele>78</ele>
        <time>2013-09-16T13:56:10.000Z</time>
      </trkpt>
      <trkpt lat="43.19637" lon="6.5985">
        <ele>78</ele>
        <time>2013-09-16T13:56:11.000Z</time>
      </trkpt>
      <trkpt lat="43.19631" lon="6.59851">
        <ele>77</ele>
        <time>2013-09-16T13:56:12.000Z</time>
      </trkpt>
      <trkpt lat="43.19627" lon="6.59852">
        <ele>77</ele>
        <time>2013-09-16T13:56:13.000Z</time>
      </trkpt>
      <trkpt lat="43.19623" lon="6.59852">
        <ele>77</ele>
        <time>2013-09-16T13:56:14.000Z</time>
      </trkpt>
      <trkpt lat="43.19618" lon="6.59852">
        <ele>77</ele>
        <time>2013-09-16T13:56:15.000Z</time>
      </trkpt>
      <trkpt lat="43.19613" lon="6.5985">
        <ele>76</ele>
        <time>2013-09-16T13:56:16.000Z</time>
      </trkpt>
      <trkpt lat="43.19608" lon="6.59849">
        <ele>76</ele>
        <time>2013-09-16T13:56:17.000Z</time>
      </trkpt>
      <trkpt lat="43.19602" lon="6.59846">
        <ele>76</ele>
        <time>2013-09-16T13:56:18.000Z</time>
      </trkpt>
      <trkpt lat="43.19597" lon="6.59844">
        <ele>77</ele>
        <time>2013-09-16T13:56:19.000Z</time>
      </trkpt>
      <trkpt lat="43.19592" lon="6.59842">
        <ele>77</ele>
        <time>2013-09-16T13:56:20.000Z</time>
      </trkpt>
      <trkpt lat="43.19587" lon="6.59841">
        <ele>77</ele>
        <time>2013-09-16T13:56:21.000Z</time>
      </trkpt>
      <trkpt lat="43.19582" lon="6.5984">
        <ele>76</ele>
        <time>2013-09-16T13:56:22.000Z</time>
      </trkpt>
      <trkpt lat="43.19576" lon="6.5984">
        <ele>75</ele>
        <time>2013-09-16T13:56:23.000Z</time>
      </trkpt>
      <trkpt lat="43.1957" lon="6.5984">
        <ele>74</ele>
        <time>2013-09-16T13:56:24.000Z</time>
      </trkpt>
      <trkpt lat="43.19565" lon="6.5984">
        <ele>73</ele>
        <time>2013-09-16T13:56:25.000Z</time>
      </trkpt>
      <trkpt lat="43.19559" lon="6.59841">
        <ele>72</ele>
        <time>2013-09-16T13:56:26.000Z</time>
      </trkpt>
      <trkpt lat="43.19553" lon="6.5984">
        <ele>71</ele>
        <time>2013-09-16T13:56:27.000Z</time>
      </trkpt>
      <trkpt lat="43.19548" lon="6.59839">
        <ele>71</ele>
        <time>2013-09-16T13:56:28.000Z</time>
      </trkpt>
      <trkpt lat="43.19542" lon="6.59837">
        <ele>71</ele>
        <time>2013-09-16T13:56:29.000Z</time>
      </trkpt>
      <trkpt lat="43.19537" lon="6.59836">
        <ele>71</ele>
        <time>2013-09-16T13:56:30.000Z</time>
      </trkpt>
      <trkpt lat="43.19531" lon="6.59834">
        <ele>71</ele>
        <time>2013-09-16T13:56:31.000Z</time>
      </trkpt>
      <trkpt lat="43.19526" lon="6.59832">
        <ele>79</ele>
        <time>2013-09-16T13:56:32.000Z</time>
      </trkpt>
      <trkpt lat="43.1952" lon="6.5983">
        <ele>79</ele>
        <time>2013-09-16T13:56:33.000Z</time>
      </trkpt>
      <trkpt lat="43.19515" lon="6.59829">
        <ele>78</ele>
        <time>2013-09-16T13:56:34.000Z</time>
      </trkpt>
      <trkpt lat="43.1951" lon="6.59828">
        <ele>77</ele>
        <time>2013-09-16T13:56:35.000Z</time>
      </trkpt>
      <trkpt lat="43.19505" lon="6.59826">
        <ele>76</ele>
        <time>2013-09-16T13:56:36.000Z</time>
      </trkpt>
      <trkpt lat="43.19493" lon="6.59827">
        <ele>73</ele>
        <time>2013-09-16T13:56:38.000Z</time>
      </trkpt>
      <trkpt lat="43.19487" lon="6.59827">
        <ele>73</ele>
        <time>2013-09-16T13:56:39.000Z</time>
      </trkpt>
      <trkpt lat="43.19481" lon="6.59828">
        <ele>73</ele>
        <time>2013-09-16T13:56:40.000Z</time>
      </trkpt>
      <trkpt lat="43.19475" lon="6.59829">
        <ele>73</ele>
        <time>2013-09-16T13:56:41.000Z</time>
      </trkpt>
      <trkpt lat="43.1947" lon="6.5983">
        <ele>72</ele>
        <time>2013-09-16T13:56:42.000Z</time>
      </trkpt>
      <trkpt lat="43.19465" lon="6.59831">
        <ele>72</ele>
        <time>2013-09-16T13:56:43.000Z</time>
      </trkpt>
      <trkpt lat="43.1946" lon="6.59832">
        <ele>72</ele>
        <time>2013-09-16T13:56:44.000Z</time>
      </trkpt>
      <trkpt lat="43.19455" lon="6.59833">
        <ele>71</ele>
        <time>2013-09-16T13:56:45.000Z</time>
      </trkpt>
      <trkpt lat="43.19451" lon="6.59833">
        <ele>71</ele>
        <time>2013-09-16T13:56:46.000Z</time>
      </trkpt>
      <trkpt lat="43.19447" lon="6.59833">
        <ele>71</ele>
        <time>2013-09-16T13:56:47.000Z</time>
      </trkpt>
      <trkpt lat="43.19438" lon="6.59833">
        <ele>70</ele>
        <time>2013-09-16T13:56:49.000Z</time>
      </trkpt>
      <trkpt lat="43.19434" lon="6.59833">
        <ele>69</ele>
        <time>2013-09-16T13:56:50.000Z</time>
      </trkpt>
      <trkpt lat="43.19429" lon="6.59833">
        <ele>69</ele>
        <time>2013-09-16T13:56:51.000Z</time>
      </trkpt>
      <trkpt lat="43.19424" lon="6.59832">
        <ele>68</ele>
        <time>2013-09-16T13:56:52.000Z</time>
      </trkpt>
      <trkpt lat="43.1942" lon="6.59831">
        <ele>68</ele>
        <time>2013-09-16T13:56:53.000Z</time>
      </trkpt>
      <trkpt lat="43.19416" lon="6.59827">
        <ele>65</ele>
        <time>2013-09-16T13:56:54.000Z</time>
      </trkpt>
      <trkpt lat="43.19413" lon="6.59823">
        <ele>64</ele>
        <time>2013-09-16T13:56:55.000Z</time>
      </trkpt>
      <trkpt lat="43.19412" lon="6.59816">
        <ele>64</ele>
        <time>2013-09-16T13:56:56.000Z</time>
      </trkpt>
      <trkpt lat="43.19413" lon="6.59803">
        <ele>62</ele>
        <time>2013-09-16T13:56:58.000Z</time>
      </trkpt>
      <trkpt lat="43.19414" lon="6.59796">
        <ele>62</ele>
        <time>2013-09-16T13:56:59.000Z</time>
      </trkpt>
      <trkpt lat="43.19415" lon="6.59789">
        <ele>62</ele>
        <time>2013-09-16T13:57:00.000Z</time>
      </trkpt>
      <trkpt lat="43.19417" lon="6.59782">
        <ele>70</ele>
        <time>2013-09-16T13:57:01.000Z</time>
      </trkpt>
      <trkpt lat="43.19419" lon="6.59776">
        <ele>69</ele>
        <time>2013-09-16T13:57:02.000Z</time>
      </trkpt>
      <trkpt lat="43.19422" lon="6.59769">
        <ele>69</ele>
        <time>2013-09-16T13:57:03.000Z</time>
      </trkpt>
      <trkpt lat="43.19426" lon="6.59763">
        <ele>68</ele>
        <time>2013-09-16T13:57:04.000Z</time>
      </trkpt>
      <trkpt lat="43.1943" lon="6.59758">
        <ele>68</ele>
        <time>2013-09-16T13:57:05.000Z</time>
      </trkpt>
      <trkpt lat="43.19434" lon="6.59753">
        <ele>69</ele>
        <time>2013-09-16T13:57:06.000Z</time>
      </trkpt>
      <trkpt lat="43.19439" lon="6.59749">
        <ele>71</ele>
        <time>2013-09-16T13:57:07.000Z</time>
      </trkpt>
      <trkpt lat="43.19444" lon="6.59745">
        <ele>72</ele>
        <time>2013-09-16T13:57:08.000Z</time>
      </trkpt>
      <trkpt lat="43.19448" lon="6.5974">
        <ele>73</ele>
        <time>2013-09-16T13:57:09.000Z</time>
      </trkpt>
      <trkpt lat="43.19452" lon="6.59735">
        <ele>74</ele>
        <time>2013-09-16T13:57:10.000Z</time>
      </trkpt>
      <trkpt lat="43.19456" lon="6.59729">
        <ele>75</ele>
        <time>2013-09-16T13:57:11.000Z</time>
      </trkpt>
      <trkpt lat="43.19458" lon="6.59722">
        <ele>75</ele>
        <time>2013-09-16T13:57:12.000Z</time>
      </trkpt>
      <trkpt lat="43.19461" lon="6.59715">
        <ele>75</ele>
        <time>2013-09-16T13:57:13.000Z</time>
      </trkpt>
      <trkpt lat="43.19463" lon="6.59708">
        <ele>76</ele>
        <time>2013-09-16T13:57:14.000Z</time>
      </trkpt>
      <trkpt lat="43.19466" lon="6.597">
        <ele>76</ele>
        <time>2013-09-16T13:57:15.000Z</time>
      </trkpt>
      <trkpt lat="43.19468" lon="6.59692">
        <ele>76</ele>
        <time>2013-09-16T13:57:16.000Z</time>
      </trkpt>
      <trkpt lat="43.1947" lon="6.59685">
        <ele>77</ele>
        <time>2013-09-16T13:57:17.000Z</time>
      </trkpt>
      <trkpt lat="43.19471" lon="6.59677">
        <ele>77</ele>
        <time>2013-09-16T13:57:18.000Z</time>
      </trkpt>
      <trkpt lat="43.19472" lon="6.59669">
        <ele>78</ele>
        <time>2013-09-16T13:57:19.000Z</time>
      </trkpt>
      <trkpt lat="43.19473" lon="6.59661">
        <ele>79</ele>
        <time>2013-09-16T13:57:20.000Z</time>
      </trkpt>
      <trkpt lat="43.19473" lon="6.59654">
        <ele>79</ele>
        <time>2013-09-16T13:57:21.000Z</time>
      </trkpt>
      <trkpt lat="43.19471" lon="6.59648">
        <ele>78</ele>
        <time>2013-09-16T13:57:22.000Z</time>
      </trkpt>
      <trkpt lat="43.19467" lon="6.59642">
        <ele>78</ele>
        <time>2013-09-16T13:57:23.000Z</time>
      </trkpt>
      <trkpt lat="43.19464" lon="6.59637">
        <ele>77</ele>
        <time>2013-09-16T13:57:24.000Z</time>
      </trkpt>
      <trkpt lat="43.1946" lon="6.59631">
        <ele>77</ele>
        <time>2013-09-16T13:57:25.000Z</time>
      </trkpt>
      <trkpt lat="43.19456" lon="6.59627">
        <ele>76</ele>
        <time>2013-09-16T13:57:26.000Z</time>
      </trkpt>
      <trkpt lat="43.19451" lon="6.59622">
        <ele>76</ele>
        <time>2013-09-16T13:57:27.000Z</time>
      </trkpt>
      <trkpt lat="43.19447" lon="6.59619">
        <ele>76</ele>
        <time>2013-09-16T13:57:28.000Z</time>
      </trkpt>
      <trkpt lat="43.19442" lon="6.59616">
        <ele>75</ele>
        <time>2013-09-16T13:57:29.000Z</time>
      </trkpt>
      <trkpt lat="43.19437" lon="6.59614">
        <ele>75</ele>
        <time>2013-09-16T13:57:30.000Z</time>
      </trkpt>
      <trkpt lat="43.19431" lon="6.59612">
        <ele>75</ele>
        <time>2013-09-16T13:57:31.000Z</time>
      </trkpt>
      <trkpt lat="43.19425" lon="6.5961">
        <ele>74</ele>
        <time>2013-09-16T13:57:32.000Z</time>
      </trkpt>
      <trkpt lat="43.19419" lon="6.59607">
        <ele>74</ele>
        <time>2013-09-16T13:57:33.000Z</time>
      </trkpt>
      <trkpt lat="43.19413" lon="6.59605">
        <ele>66</ele>
        <time>2013-09-16T13:57:34.000Z</time>
      </trkpt>
      <trkpt lat="43.19407" lon="6.59603">
        <ele>66</ele>
        <time>2013-09-16T13:57:35.000Z</time>
      </trkpt>
      <trkpt lat="43.194" lon="6.59601">
        <ele>66</ele>
        <time>2013-09-16T13:57:36.000Z</time>
      </trkpt>
      <trkpt lat="43.19395" lon="6.59598">
        <ele>65</ele>
        <time>2013-09-16T13:57:37.000Z</time>
      </trkpt>
      <trkpt lat="43.1939" lon="6.59595">
        <ele>65</ele>
        <time>2013-09-16T13:57:38.000Z</time>
      </trkpt>
      <trkpt lat="43.19385" lon="6.5959">
        <ele>64</ele>
        <time>2013-09-16T13:57:39.000Z</time>
      </trkpt>
      <trkpt lat="43.19382" lon="6.59584">
        <ele>64</ele>
        <time>2013-09-16T13:57:40.000Z</time>
      </trkpt>
      <trkpt lat="43.1938" lon="6.59578">
        <ele>68</ele>
        <time>2013-09-16T13:57:41.000Z</time>
      </trkpt>
      <trkpt lat="43.19379" lon="6.5957">
        <ele>68</ele>
        <time>2013-09-16T13:57:42.000Z</time>
      </trkpt>
      <trkpt lat="43.19378" lon="6.59563">
        <ele>68</ele>
        <time>2013-09-16T13:57:43.000Z</time>
      </trkpt>
      <trkpt lat="43.19377" lon="6.59555">
        <ele>68</ele>
        <time>2013-09-16T13:57:44.000Z</time>
      </trkpt>
      <trkpt lat="43.19375" lon="6.59549">
        <ele>68</ele>
        <time>2013-09-16T13:57:45.000Z</time>
      </trkpt>
      <trkpt lat="43.19371" lon="6.59544">
        <ele>68</ele>
        <time>2013-09-16T13:57:46.000Z</time>
      </trkpt>
      <trkpt lat="43.19364" lon="6.59543">
        <ele>67</ele>
        <time>2013-09-16T13:57:47.000Z</time>
      </trkpt>
      <trkpt lat="43.19357" lon="6.59543">
        <ele>67</ele>
        <time>2013-09-16T13:57:48.000Z</time>
      </trkpt>
      <trkpt lat="43.1935" lon="6.59545">
        <ele>66</ele>
        <time>2013-09-16T13:57:49.000Z</time>
      </trkpt>
      <trkpt lat="43.19343" lon="6.59547">
        <ele>66</ele>
        <time>2013-09-16T13:57:50.000Z</time>
      </trkpt>
      <trkpt lat="43.19336" lon="6.59548">
        <ele>65</ele>
        <time>2013-09-16T13:57:51.000Z</time>
      </trkpt>
      <trkpt lat="43.19324" lon="6.59547">
        <ele>60</ele>
        <time>2013-09-16T13:57:53.000Z</time>
      </trkpt>
      <trkpt lat="43.19319" lon="6.59544">
        <ele>60</ele>
        <time>2013-09-16T13:57:54.000Z</time>
      </trkpt>
      <trkpt lat="43.19315" lon="6.5954">
        <ele>60</ele>
        <time>2013-09-16T13:57:55.000Z</time>
      </trkpt>
      <trkpt lat="43.19313" lon="6.59535">
        <ele>60</ele>
        <time>2013-09-16T13:57:56.000Z</time>
      </trkpt>
      <trkpt lat="43.19312" lon="6.59529">
        <ele>60</ele>
        <time>2013-09-16T13:57:57.000Z</time>
      </trkpt>
      <trkpt lat="43.19312" lon="6.59522">
        <ele>61</ele>
        <time>2013-09-16T13:57:58.000Z</time>
      </trkpt>
      <trkpt lat="43.19312" lon="6.59515">
        <ele>61</ele>
        <time>2013-09-16T13:57:59.000Z</time>
      </trkpt>
      <trkpt lat="43.19312" lon="6.59509">
        <ele>61</ele>
        <time>2013-09-16T13:58:00.000Z</time>
      </trkpt>
      <trkpt lat="43.19313" lon="6.59501">
        <ele>62</ele>
        <time>2013-09-16T13:58:01.000Z</time>
      </trkpt>
      <trkpt lat="43.19314" lon="6.59494">
        <ele>64</ele>
        <time>2013-09-16T13:58:02.000Z</time>
      </trkpt>
      <trkpt lat="43.19317" lon="6.59487">
        <ele>64</ele>
        <time>2013-09-16T13:58:03.000Z</time>
      </trkpt>
      <trkpt lat="43.19319" lon="6.59481">
        <ele>64</ele>
        <time>2013-09-16T13:58:04.000Z</time>
      </trkpt>
      <trkpt lat="43.19324" lon="6.59475">
        <ele>64</ele>
        <time>2013-09-16T13:58:05.000Z</time>
      </trkpt>
      <trkpt lat="43.19328" lon="6.5947">
        <ele>64</ele>
        <time>2013-09-16T13:58:06.000Z</time>
      </trkpt>
      <trkpt lat="43.19333" lon="6.59464">
        <ele>64</ele>
        <time>2013-09-16T13:58:07.000Z</time>
      </trkpt>
      <trkpt lat="43.19338" lon="6.59459">
        <ele>65</ele>
        <time>2013-09-16T13:58:08.000Z</time>
      </trkpt>
      <trkpt lat="43.19343" lon="6.59453">
        <ele>65</ele>
        <time>2013-09-16T13:58:09.000Z</time>
      </trkpt>
      <trkpt lat="43.19348" lon="6.59448">
        <ele>64</ele>
        <time>2013-09-16T13:58:10.000Z</time>
      </trkpt>
      <trkpt lat="43.19353" lon="6.59443">
        <ele>64</ele>
        <time>2013-09-16T13:58:11.000Z</time>
      </trkpt>
      <trkpt lat="43.19359" lon="6.59437">
        <ele>64</ele>
        <time>2013-09-16T13:58:12.000Z</time>
      </trkpt>
      <trkpt lat="43.19364" lon="6.59431">
        <ele>64</ele>
        <time>2013-09-16T13:58:13.000Z</time>
      </trkpt>
      <trkpt lat="43.1937" lon="6.59425">
        <ele>64</ele>
        <time>2013-09-16T13:58:14.000Z</time>
      </trkpt>
      <trkpt lat="43.19376" lon="6.59419">
        <ele>64</ele>
        <time>2013-09-16T13:58:15.000Z</time>
      </trkpt>
      <trkpt lat="43.19382" lon="6.59413">
        <ele>58</ele>
        <time>2013-09-16T13:58:16.000Z</time>
      </trkpt>
      <trkpt lat="43.19388" lon="6.59407">
        <ele>58</ele>
        <time>2013-09-16T13:58:17.000Z</time>
      </trkpt>
      <trkpt lat="43.19394" lon="6.59401">
        <ele>58</ele>
        <time>2013-09-16T13:58:18.000Z</time>
      </trkpt>
      <trkpt lat="43.19401" lon="6.59396">
        <ele>58</ele>
        <time>2013-09-16T13:58:19.000Z</time>
      </trkpt>
      <trkpt lat="43.19408" lon="6.59391">
        <ele>58</ele>
        <time>2013-09-16T13:58:20.000Z</time>
      </trkpt>
      <trkpt lat="43.19416" lon="6.59387">
        <ele>57</ele>
        <time>2013-09-16T13:58:21.000Z</time>
      </trkpt>
      <trkpt lat="43.19424" lon="6.59384">
        <ele>56</ele>
        <time>2013-09-16T13:58:22.000Z</time>
      </trkpt>
      <trkpt lat="43.19432" lon="6.5938">
        <ele>55</ele>
        <time>2013-09-16T13:58:23.000Z</time>
      </trkpt>
      <trkpt lat="43.1944" lon="6.59377">
        <ele>55</ele>
        <time>2013-09-16T13:58:24.000Z</time>
      </trkpt>
      <trkpt lat="43.19448" lon="6.59373">
        <ele>55</ele>
        <time>2013-09-16T13:58:25.000Z</time>
      </trkpt>
      <trkpt lat="43.19455" lon="6.59371">
        <ele>55</ele>
        <time>2013-09-16T13:58:26.000Z</time>
      </trkpt>
      <trkpt lat="43.19462" lon="6.59369">
        <ele>54</ele>
        <time>2013-09-16T13:58:27.000Z</time>
      </trkpt>
      <trkpt lat="43.19469" lon="6.59368">
        <ele>54</ele>
        <time>2013-09-16T13:58:28.000Z</time>
      </trkpt>
      <trkpt lat="43.19476" lon="6.5937">
        <ele>55</ele>
        <time>2013-09-16T13:58:29.000Z</time>
      </trkpt>
      <trkpt lat="43.19483" lon="6.59373">
        <ele>55</ele>
        <time>2013-09-16T13:58:30.000Z</time>
      </trkpt>
      <trkpt lat="43.1949" lon="6.59375">
        <ele>55</ele>
        <time>2013-09-16T13:58:31.000Z</time>
      </trkpt>
      <trkpt lat="43.19497" lon="6.59377">
        <ele>56</ele>
        <time>2013-09-16T13:58:32.000Z</time>
      </trkpt>
      <trkpt lat="43.19504" lon="6.59375">
        <ele>58</ele>
        <time>2013-09-16T13:58:33.000Z</time>
      </trkpt>
      <trkpt lat="43.19511" lon="6.59373">
        <ele>58</ele>
        <time>2013-09-16T13:58:34.000Z</time>
      </trkpt>
      <trkpt lat="43.19518" lon="6.59369">
        <ele>57</ele>
        <time>2013-09-16T13:58:35.000Z</time>
      </trkpt>
      <trkpt lat="43.19525" lon="6.59366">
        <ele>57</ele>
        <time>2013-09-16T13:58:36.000Z</time>
      </trkpt>
      <trkpt lat="43.19531" lon="6.59364">
        <ele>57</ele>
        <time>2013-09-16T13:58:37.000Z</time>
      </trkpt>
      <trkpt lat="43.19536" lon="6.59363">
        <ele>58</ele>
        <time>2013-09-16T13:58:38.000Z</time>
      </trkpt>
      <trkpt lat="43.19542" lon="6.59364">
        <ele>58</ele>
        <time>2013-09-16T13:58:39.000Z</time>
      </trkpt>
      <trkpt lat="43.19548" lon="6.59363">
        <ele>58</ele>
        <time>2013-09-16T13:58:40.000Z</time>
      </trkpt>
      <trkpt lat="43.19553" lon="6.59359">
        <ele>58</ele>
        <time>2013-09-16T13:58:41.000Z</time>
      </trkpt>
      <trkpt lat="43.19557" lon="6.59354">
        <ele>58</ele>
        <time>2013-09-16T13:58:42.000Z</time>
      </trkpt>
      <trkpt lat="43.19559" lon="6.59348">
        <ele>57</ele>
        <time>2013-09-16T13:58:43.000Z</time>
      </trkpt>
      <trkpt lat="43.19559" lon="6.5934">
        <ele>57</ele>
        <time>2013-09-16T13:58:44.000Z</time>
      </trkpt>
      <trkpt lat="43.19558" lon="6.5933">
        <ele>49</ele>
        <time>2013-09-16T13:58:45.000Z</time>
      </trkpt>
      <trkpt lat="43.19558" lon="6.5932">
        <ele>49</ele>
        <time>2013-09-16T13:58:46.000Z</time>
      </trkpt>
      <trkpt lat="43.19559" lon="6.5931">
        <ele>48</ele>
        <time>2013-09-16T13:58:47.000Z</time>
      </trkpt>
      <trkpt lat="43.19561" lon="6.593">
        <ele>47</ele>
        <time>2013-09-16T13:58:48.000Z</time>
      </trkpt>
      <trkpt lat="43.19564" lon="6.59291">
        <ele>46</ele>
        <time>2013-09-16T13:58:49.000Z</time>
      </trkpt>
      <trkpt lat="43.19569" lon="6.59282">
        <ele>46</ele>
        <time>2013-09-16T13:58:50.000Z</time>
      </trkpt>
      <trkpt lat="43.19574" lon="6.59274">
        <ele>45</ele>
        <time>2013-09-16T13:58:51.000Z</time>
      </trkpt>
      <trkpt lat="43.19581" lon="6.59267">
        <ele>44</ele>
        <time>2013-09-16T13:58:52.000Z</time>
      </trkpt>
      <trkpt lat="43.19587" lon="6.59261">
        <ele>46</ele>
        <time>2013-09-16T13:58:53.000Z</time>
      </trkpt>
      <trkpt lat="43.19595" lon="6.59256">
        <ele>46</ele>
        <time>2013-09-16T13:58:54.000Z</time>
      </trkpt>
      <trkpt lat="43.19602" lon="6.59251">
        <ele>47</ele>
        <time>2013-09-16T13:58:55.000Z</time>
      </trkpt>
      <trkpt lat="43.19609" lon="6.59246">
        <ele>40</ele>
        <time>2013-09-16T13:58:56.000Z</time>
      </trkpt>
      <trkpt lat="43.19617" lon="6.59242">
        <ele>40</ele>
        <time>2013-09-16T13:58:57.000Z</time>
      </trkpt>
      <trkpt lat="43.19625" lon="6.5924">
        <ele>40</ele>
        <time>2013-09-16T13:58:58.000Z</time>
      </trkpt>
      <trkpt lat="43.19633" lon="6.59239">
        <ele>40</ele>
        <time>2013-09-16T13:58:59.000Z</time>
      </trkpt>
      <trkpt lat="43.19641" lon="6.59239">
        <ele>40</ele>
        <time>2013-09-16T13:59:00.000Z</time>
      </trkpt>
      <trkpt lat="43.19649" lon="6.59238">
        <ele>41</ele>
        <time>2013-09-16T13:59:01.000Z</time>
      </trkpt>
      <trkpt lat="43.19658" lon="6.59238">
        <ele>42</ele>
        <time>2013-09-16T13:59:02.000Z</time>
      </trkpt>
      <trkpt lat="43.19666" lon="6.59238">
        <ele>42</ele>
        <time>2013-09-16T13:59:03.000Z</time>
      </trkpt>
      <trkpt lat="43.19682" lon="6.59238">
        <ele>41</ele>
        <time>2013-09-16T13:59:05.000Z</time>
      </trkpt>
      <trkpt lat="43.1969" lon="6.5924">
        <ele>41</ele>
        <time>2013-09-16T13:59:06.000Z</time>
      </trkpt>
      <trkpt lat="43.19698" lon="6.59242">
        <ele>40</ele>
        <time>2013-09-16T13:59:07.000Z</time>
      </trkpt>
      <trkpt lat="43.19706" lon="6.59245">
        <ele>40</ele>
        <time>2013-09-16T13:59:08.000Z</time>
      </trkpt>
      <trkpt lat="43.19714" lon="6.59247">
        <ele>40</ele>
        <time>2013-09-16T13:59:09.000Z</time>
      </trkpt>
      <trkpt lat="43.19722" lon="6.59249">
        <ele>40</ele>
        <time>2013-09-16T13:59:10.000Z</time>
      </trkpt>
      <trkpt lat="43.1973" lon="6.59251">
        <ele>45</ele>
        <time>2013-09-16T13:59:11.000Z</time>
      </trkpt>
      <trkpt lat="43.19738" lon="6.59253">
        <ele>43</ele>
        <time>2013-09-16T13:59:12.000Z</time>
      </trkpt>
      <trkpt lat="43.19746" lon="6.59256">
        <ele>42</ele>
        <time>2013-09-16T13:59:13.000Z</time>
      </trkpt>
      <trkpt lat="43.19754" lon="6.59258">
        <ele>42</ele>
        <time>2013-09-16T13:59:14.000Z</time>
      </trkpt>
      <trkpt lat="43.19761" lon="6.59261">
        <ele>43</ele>
        <time>2013-09-16T13:59:15.000Z</time>
      </trkpt>
      <trkpt lat="43.19769" lon="6.59263">
        <ele>44</ele>
        <time>2013-09-16T13:59:16.000Z</time>
      </trkpt>
      <trkpt lat="43.19783" lon="6.59261">
        <ele>45</ele>
        <time>2013-09-16T13:59:18.000Z</time>
      </trkpt>
      <trkpt lat="43.1979" lon="6.59258">
        <ele>45</ele>
        <time>2013-09-16T13:59:19.000Z</time>
      </trkpt>
      <trkpt lat="43.19797" lon="6.59253">
        <ele>45</ele>
        <time>2013-09-16T13:59:20.000Z</time>
      </trkpt>
      <trkpt lat="43.19803" lon="6.59247">
        <ele>43</ele>
        <time>2013-09-16T13:59:21.000Z</time>
      </trkpt>
      <trkpt lat="43.19807" lon="6.59239">
        <ele>43</ele>
        <time>2013-09-16T13:59:22.000Z</time>
      </trkpt>
      <trkpt lat="43.1981" lon="6.59231">
        <ele>43</ele>
        <time>2013-09-16T13:59:23.000Z</time>
      </trkpt>
      <trkpt lat="43.19812" lon="6.59223">
        <ele>44</ele>
        <time>2013-09-16T13:59:24.000Z</time>
      </trkpt>
      <trkpt lat="43.19812" lon="6.59214">
        <ele>44</ele>
        <time>2013-09-16T13:59:25.000Z</time>
      </trkpt>
      <trkpt lat="43.19811" lon="6.59205">
        <ele>44</ele>
        <time>2013-09-16T13:59:26.000Z</time>
      </trkpt>
      <trkpt lat="43.19809" lon="6.59198">
        <ele>45</ele>
        <time>2013-09-16T13:59:27.000Z</time>
      </trkpt>
      <trkpt lat="43.19806" lon="6.59191">
        <ele>45</ele>
        <time>2013-09-16T13:59:28.000Z</time>
      </trkpt>
      <trkpt lat="43.19802" lon="6.59187">
        <ele>45</ele>
        <time>2013-09-16T13:59:29.000Z</time>
      </trkpt>
      <trkpt lat="43.19797" lon="6.59184">
        <ele>44</ele>
        <time>2013-09-16T13:59:30.000Z</time>
      </trkpt>
      <trkpt lat="43.19793" lon="6.59182">
        <ele>44</ele>
        <time>2013-09-16T13:59:31.000Z</time>
      </trkpt>
      <trkpt lat="43.19789" lon="6.5918">
        <ele>44</ele>
        <time>2013-09-16T13:59:32.000Z</time>
      </trkpt>
      <trkpt lat="43.19785" lon="6.59179">
        <ele>43</ele>
        <time>2013-09-16T13:59:33.000Z</time>
      </trkpt>
      <trkpt lat="43.19782" lon="6.59177">
        <ele>43</ele>
        <time>2013-09-16T13:59:34.000Z</time>
      </trkpt>
      <trkpt lat="43.19778" lon="6.59176">
        <ele>43</ele>
        <time>2013-09-16T13:59:35.000Z</time>
      </trkpt>
      <trkpt lat="43.19774" lon="6.59174">
        <ele>42</ele>
        <time>2013-09-16T13:59:36.000Z</time>
      </trkpt>
      <trkpt lat="43.1977" lon="6.59173">
        <ele>42</ele>
        <time>2013-09-16T13:59:37.000Z</time>
      </trkpt>
      <trkpt lat="43.19767" lon="6.59171">
        <ele>41</ele>
        <time>2013-09-16T13:59:38.000Z</time>
      </trkpt>
      <trkpt lat="43.19763" lon="6.59169">
        <ele>41</ele>
        <time>2013-09-16T13:59:39.000Z</time>
      </trkpt>
      <trkpt lat="43.1976" lon="6.59167">
        <ele>43</ele>
        <time>2013-09-16T13:59:40.000Z</time>
      </trkpt>
      <trkpt lat="43.19757" lon="6.59164">
        <ele>42</ele>
        <time>2013-09-16T13:59:41.000Z</time>
      </trkpt>
      <trkpt lat="43.19754" lon="6.59161">
        <ele>42</ele>
        <time>2013-09-16T13:59:42.000Z</time>
      </trkpt>
      <trkpt lat="43.19751" lon="6.59157">
        <ele>43</ele>
        <time>2013-09-16T13:59:43.000Z</time>
      </trkpt>
      <trkpt lat="43.19748" lon="6.59154">
        <ele>39</ele>
        <time>2013-09-16T13:59:44.000Z</time>
      </trkpt>
      <trkpt lat="43.19746" lon="6.5915">
        <ele>39</ele>
        <time>2013-09-16T13:59:45.000Z</time>
      </trkpt>
      <trkpt lat="43.19744" lon="6.59146">
        <ele>39</ele>
        <time>2013-09-16T13:59:46.000Z</time>
      </trkpt>
      <trkpt lat="43.19742" lon="6.59142">
        <ele>39</ele>
        <time>2013-09-16T13:59:47.000Z</time>
      </trkpt>
      <trkpt lat="43.1974" lon="6.59138">
        <ele>39</ele>
        <time>2013-09-16T13:59:48.000Z</time>
      </trkpt>
      <trkpt lat="43.19738" lon="6.59134">
        <ele>39</ele>
        <time>2013-09-16T13:59:49.000Z</time>
      </trkpt>
      <trkpt lat="43.19736" lon="6.5913">
        <ele>40</ele>
        <time>2013-09-16T13:59:50.000Z</time>
      </trkpt>
      <trkpt lat="43.19734" lon="6.59126">
        <ele>40</ele>
        <time>2013-09-16T13:59:51.000Z</time>
      </trkpt>
      <trkpt lat="43.19731" lon="6.59121">
        <ele>40</ele>
        <time>2013-09-16T13:59:52.000Z</time>
      </trkpt>
      <trkpt lat="43.19729" lon="6.59117">
        <ele>40</ele>
        <time>2013-09-16T13:59:53.000Z</time>
      </trkpt>
      <trkpt lat="43.19728" lon="6.59113">
        <ele>40</ele>
        <time>2013-09-16T13:59:54.000Z</time>
      </trkpt>
      <trkpt lat="43.19726" lon="6.59109">
        <ele>40</ele>
        <time>2013-09-16T13:59:55.000Z</time>
      </trkpt>
      <trkpt lat="43.19724" lon="6.59104">
        <ele>41</ele>
        <time>2013-09-16T13:59:56.000Z</time>
      </trkpt>
      <trkpt lat="43.19722" lon="6.591">
        <ele>41</ele>
        <time>2013-09-16T13:59:57.000Z</time>
      </trkpt>
      <trkpt lat="43.1972" lon="6.59095">
        <ele>41</ele>
        <time>2013-09-16T13:59:58.000Z</time>
      </trkpt>
      <trkpt lat="43.19719" lon="6.5909">
        <ele>41</ele>
        <time>2013-09-16T13:59:59.000Z</time>
      </trkpt>
      <trkpt lat="43.19718" lon="6.59085">
        <ele>41</ele>
        <time>2013-09-16T14:00:00.000Z</time>
      </trkpt>
      <trkpt lat="43.19717" lon="6.59079">
        <ele>42</ele>
        <time>2013-09-16T14:00:01.000Z</time>
      </trkpt>
      <trkpt lat="43.19717" lon="6.59074">
        <ele>42</ele>
        <time>2013-09-16T14:00:02.000Z</time>
      </trkpt>
      <trkpt lat="43.19716" lon="6.59068">
        <ele>42</ele>
        <time>2013-09-16T14:00:03.000Z</time>
      </trkpt>
      <trkpt lat="43.19716" lon="6.59062">
        <ele>42</ele>
        <time>2013-09-16T14:00:04.000Z</time>
      </trkpt>
      <trkpt lat="43.19716" lon="6.59057">
        <ele>42</ele>
        <time>2013-09-16T14:00:05.000Z</time>
      </trkpt>
      <trkpt lat="43.19716" lon="6.59047">
        <ele>42</ele>
        <time>2013-09-16T14:00:07.000Z</time>
      </trkpt>
      <trkpt lat="43.19716" lon="6.59042">
        <ele>42</ele>
        <time>2013-09-16T14:00:08.000Z</time>
      </trkpt>
      <trkpt lat="43.19716" lon="6.59038">
        <ele>42</ele>
        <time>2013-09-16T14:00:09.000Z</time>
      </trkpt>
      <trkpt lat="43.19716" lon="6.59034">
        <ele>42</ele>
        <time>2013-09-16T14:00:10.000Z</time>
      </trkpt>
      <trkpt lat="43.19716" lon="6.59029">
        <ele>42</ele>
        <time>2013-09-16T14:00:11.000Z</time>
      </trkpt>
      <trkpt lat="43.19716" lon="6.59025">
        <ele>42</ele>
        <time>2013-09-16T14:00:12.000Z</time>
      </trkpt>
      <trkpt lat="43.19717" lon="6.59021">
        <ele>42</ele>
        <time>2013-09-16T14:00:13.000Z</time>
      </trkpt>
      <trkpt lat="43.19718" lon="6.59017">
        <ele>43</ele>
        <time>2013-09-16T14:00:14.000Z</time>
      </trkpt>
      <trkpt lat="43.19719" lon="6.59013">
        <ele>43</ele>
        <time>2013-09-16T14:00:15.000Z</time>
      </trkpt>
      <trkpt lat="43.1972" lon="6.59008">
        <ele>43</ele>
        <time>2013-09-16T14:00:16.000Z</time>
      </trkpt>
      <trkpt lat="43.1972" lon="6.59004">
        <ele>43</ele>
        <time>2013-09-16T14:00:17.000Z</time>
      </trkpt>
      <trkpt lat="43.1972" lon="6.59">
        <ele>43</ele>
        <time>2013-09-16T14:00:18.000Z</time>
      </trkpt>
      <trkpt lat="43.19722" lon="6.58995">
        <ele>43</ele>
        <time>2013-09-16T14:00:19.000Z</time>
      </trkpt>
      <trkpt lat="43.19723" lon="6.58991">
        <ele>43</ele>
        <time>2013-09-16T14:00:20.000Z</time>
      </trkpt>
      <trkpt lat="43.19724" lon="6.58987">
        <ele>43</ele>
        <time>2013-09-16T14:00:21.000Z</time>
      </trkpt>
      <trkpt lat="43.19726" lon="6.58983">
        <ele>43</ele>
        <time>2013-09-16T14:00:22.000Z</time>
      </trkpt>
      <trkpt lat="43.19728" lon="6.58979">
        <ele>43</ele>
        <time>2013-09-16T14:00:23.000Z</time>
      </trkpt>
      <trkpt lat="43.1973" lon="6.58975">
        <ele>43</ele>
        <time>2013-09-16T14:00:24.000Z</time>
      </trkpt>
      <trkpt lat="43.19732" lon="6.58971">
        <ele>43</ele>
        <time>2013-09-16T14:00:25.000Z</time>
      </trkpt>
      <trkpt lat="43.19734" lon="6.58967">
        <ele>43</ele>
        <time>2013-09-16T14:00:26.000Z</time>
      </trkpt>
      <trkpt lat="43.19736" lon="6.58963">
        <ele>43</ele>
        <time>2013-09-16T14:00:27.000Z</time>
      </trkpt>
      <trkpt lat="43.19739" lon="6.58959">
        <ele>43</ele>
        <time>2013-09-16T14:00:28.000Z</time>
      </trkpt>
      <trkpt lat="43.19741" lon="6.58956">
        <ele>43</ele>
        <time>2013-09-16T14:00:29.000Z</time>
      </trkpt>
      <trkpt lat="43.19744" lon="6.58951">
        <ele>42</ele>
        <time>2013-09-16T14:00:30.000Z</time>
      </trkpt>
      <trkpt lat="43.19746" lon="6.58947">
        <ele>42</ele>
        <time>2013-09-16T14:00:31.000Z</time>
      </trkpt>
      <trkpt lat="43.19749" lon="6.58943">
        <ele>42</ele>
        <time>2013-09-16T14:00:32.000Z</time>
      </trkpt>
      <trkpt lat="43.19751" lon="6.58939">
        <ele>48</ele>
        <time>2013-09-16T14:00:33.000Z</time>
      </trkpt>
      <trkpt lat="43.19754" lon="6.58935">
        <ele>48</ele>
        <time>2013-09-16T14:00:34.000Z</time>
      </trkpt>
      <trkpt lat="43.19756" lon="6.5893">
        <ele>47</ele>
        <time>2013-09-16T14:00:35.000Z</time>
      </trkpt>
      <trkpt lat="43.19759" lon="6.58926">
        <ele>47</ele>
        <time>2013-09-16T14:00:36.000Z</time>
      </trkpt>
      <trkpt lat="43.19761" lon="6.58922">
        <ele>47</ele>
        <time>2013-09-16T14:00:37.000Z</time>
      </trkpt>
      <trkpt lat="43.19764" lon="6.58917">
        <ele>47</ele>
        <time>2013-09-16T14:00:38.000Z</time>
      </trkpt>
      <trkpt lat="43.19767" lon="6.58913">
        <ele>47</ele>
        <time>2013-09-16T14:00:39.000Z</time>
      </trkpt>
      <trkpt lat="43.19769" lon="6.58908">
        <ele>47</ele>
        <time>2013-09-16T14:00:40.000Z</time>
      </trkpt>
      <trkpt lat="43.19771" lon="6.58902">
        <ele>48</ele>
        <time>2013-09-16T14:00:41.000Z</time>
      </trkpt>
      <trkpt lat="43.19773" lon="6.58897">
        <ele>48</ele>
        <time>2013-09-16T14:00:42.000Z</time>
      </trkpt>
      <trkpt lat="43.19773" lon="6.58891">
        <ele>49</ele>
        <time>2013-09-16T14:00:43.000Z</time>
      </trkpt>
      <trkpt lat="43.19773" lon="6.58885">
        <ele>49</ele>
        <time>2013-09-16T14:00:44.000Z</time>
      </trkpt>
      <trkpt lat="43.19772" lon="6.5888">
        <ele>49</ele>
        <time>2013-09-16T14:00:45.000Z</time>
      </trkpt>
      <trkpt lat="43.19769" lon="6.58875">
        <ele>49</ele>
        <time>2013-09-16T14:00:46.000Z</time>
      </trkpt>
      <trkpt lat="43.19766" lon="6.58871">
        <ele>49</ele>
        <time>2013-09-16T14:00:47.000Z</time>
      </trkpt>
      <trkpt lat="43.19762" lon="6.58868">
        <ele>49</ele>
        <time>2013-09-16T14:00:48.000Z</time>
      </trkpt>
      <trkpt lat="43.19757" lon="6.58867">
        <ele>49</ele>
        <time>2013-09-16T14:00:49.000Z</time>
      </trkpt>
      <trkpt lat="43.19749" lon="6.58868">
        <ele>45</ele>
        <time>2013-09-16T14:00:51.000Z</time>
      </trkpt>
      <trkpt lat="43.19745" lon="6.58869">
        <ele>45</ele>
        <time>2013-09-16T14:00:52.000Z</time>
      </trkpt>
      <trkpt lat="43.19741" lon="6.5887">
        <ele>45</ele>
        <time>2013-09-16T14:00:53.000Z</time>
      </trkpt>
      <trkpt lat="43.19736" lon="6.58871">
        <ele>45</ele>
        <time>2013-09-16T14:00:54.000Z</time>
      </trkpt>
      <trkpt lat="43.19732" lon="6.58872">
        <ele>45</ele>
        <time>2013-09-16T14:00:55.000Z</time>
      </trkpt>
      <trkpt lat="43.19728" lon="6.58873">
        <ele>45</ele>
        <time>2013-09-16T14:00:56.000Z</time>
      </trkpt>
      <trkpt lat="43.19725" lon="6.58873">
        <ele>45</ele>
        <time>2013-09-16T14:00:57.000Z</time>
      </trkpt>
      <trkpt lat="43.19721" lon="6.58874">
        <ele>45</ele>
        <time>2013-09-16T14:00:58.000Z</time>
      </trkpt>
      <trkpt lat="43.19716" lon="6.58874">
        <ele>44</ele>
        <time>2013-09-16T14:00:59.000Z</time>
      </trkpt>
      <trkpt lat="43.19712" lon="6.58875">
        <ele>44</ele>
        <time>2013-09-16T14:01:00.000Z</time>
      </trkpt>
      <trkpt lat="43.19704" lon="6.58874">
        <ele>44</ele>
        <time>2013-09-16T14:01:02.000Z</time>
      </trkpt>
      <trkpt lat="43.197" lon="6.58874">
        <ele>44</ele>
        <time>2013-09-16T14:01:03.000Z</time>
      </trkpt>
      <trkpt lat="43.19696" lon="6.58873">
        <ele>44</ele>
        <time>2013-09-16T14:01:04.000Z</time>
      </trkpt>
      <trkpt lat="43.19692" lon="6.58872">
        <ele>44</ele>
        <time>2013-09-16T14:01:05.000Z</time>
      </trkpt>
      <trkpt lat="43.19688" lon="6.58872">
        <ele>44</ele>
        <time>2013-09-16T14:01:06.000Z</time>
      </trkpt>
      <trkpt lat="43.19684" lon="6.58871">
        <ele>44</ele>
        <time>2013-09-16T14:01:07.000Z</time>
      </trkpt>
      <trkpt lat="43.19681" lon="6.5887">
        <ele>44</ele>
        <time>2013-09-16T14:01:08.000Z</time>
      </trkpt>
      <trkpt lat="43.19677" lon="6.58868">
        <ele>44</ele>
        <time>2013-09-16T14:01:09.000Z</time>
      </trkpt>
      <trkpt lat="43.19673" lon="6.58867">
        <ele>44</ele>
        <time>2013-09-16T14:01:10.000Z</time>
      </trkpt>
      <trkpt lat="43.19669" lon="6.58866">
        <ele>44</ele>
        <time>2013-09-16T14:01:11.000Z</time>
      </trkpt>
      <trkpt lat="43.19665" lon="6.58863">
        <ele>42</ele>
        <time>2013-09-16T14:01:12.000Z</time>
      </trkpt>
      <trkpt lat="43.19661" lon="6.58861">
        <ele>42</ele>
        <time>2013-09-16T14:01:13.000Z</time>
      </trkpt>
      <trkpt lat="43.19657" lon="6.58858">
        <ele>42</ele>
        <time>2013-09-16T14:01:14.000Z</time>
      </trkpt>
      <trkpt lat="43.19653" lon="6.58854">
        <ele>42</ele>
        <time>2013-09-16T14:01:15.000Z</time>
      </trkpt>
      <trkpt lat="43.1965" lon="6.58851">
        <ele>42</ele>
        <time>2013-09-16T14:01:16.000Z</time>
      </trkpt>
      <trkpt lat="43.19646" lon="6.58848">
        <ele>42</ele>
        <time>2013-09-16T14:01:17.000Z</time>
      </trkpt>
      <trkpt lat="43.19643" lon="6.58845">
        <ele>42</ele>
        <time>2013-09-16T14:01:18.000Z</time>
      </trkpt>
      <trkpt lat="43.19639" lon="6.58843">
        <ele>42</ele>
        <time>2013-09-16T14:01:19.000Z</time>
      </trkpt>
      <trkpt lat="43.19635" lon="6.5884">
        <ele>41</ele>
        <time>2013-09-16T14:01:20.000Z</time>
      </trkpt>
      <trkpt lat="43.19631" lon="6.58838">
        <ele>41</ele>
        <time>2013-09-16T14:01:21.000Z</time>
      </trkpt>
      <trkpt lat="43.19628" lon="6.58837">
        <ele>41</ele>
        <time>2013-09-16T14:01:22.000Z</time>
      </trkpt>
      <trkpt lat="43.19624" lon="6.58835">
        <ele>40</ele>
        <time>2013-09-16T14:01:23.000Z</time>
      </trkpt>
      <trkpt lat="43.1962" lon="6.58834">
        <ele>40</ele>
        <time>2013-09-16T14:01:24.000Z</time>
      </trkpt>
      <trkpt lat="43.19617" lon="6.58832">
        <ele>43</ele>
        <time>2013-09-16T14:01:25.000Z</time>
      </trkpt>
      <trkpt lat="43.19613" lon="6.5883">
        <ele>43</ele>
        <time>2013-09-16T14:01:26.000Z</time>
      </trkpt>
      <trkpt lat="43.19609" lon="6.58828">
        <ele>42</ele>
        <time>2013-09-16T14:01:27.000Z</time>
      </trkpt>
      <trkpt lat="43.19606" lon="6.58824">
        <ele>42</ele>
        <time>2013-09-16T14:01:28.000Z</time>
      </trkpt>
      <trkpt lat="43.19603" lon="6.5882">
        <ele>42</ele>
        <time>2013-09-16T14:01:29.000Z</time>
      </trkpt>
      <trkpt lat="43.19601" lon="6.58815">
        <ele>42</ele>
        <time>2013-09-16T14:01:30.000Z</time>
      </trkpt>
      <trkpt lat="43.196" lon="6.5881">
        <ele>42</ele>
        <time>2013-09-16T14:01:31.000Z</time>
      </trkpt>
      <trkpt lat="43.19601" lon="6.58804">
        <ele>42</ele>
        <time>2013-09-16T14:01:32.000Z</time>
      </trkpt>
      <trkpt lat="43.19602" lon="6.58798">
        <ele>43</ele>
        <time>2013-09-16T14:01:33.000Z</time>
      </trkpt>
      <trkpt lat="43.19604" lon="6.58793">
        <ele>43</ele>
        <time>2013-09-16T14:01:34.000Z</time>
      </trkpt>
      <trkpt lat="43.19605" lon="6.58788">
        <ele>43</ele>
        <time>2013-09-16T14:01:35.000Z</time>
      </trkpt>
      <trkpt lat="43.19607" lon="6.58783">
        <ele>43</ele>
        <time>2013-09-16T14:01:36.000Z</time>
      </trkpt>
      <trkpt lat="43.1961" lon="6.58778">
        <ele>43</ele>
        <time>2013-09-16T14:01:37.000Z</time>
      </trkpt>
      <trkpt lat="43.19612" lon="6.58774">
        <ele>43</ele>
        <time>2013-09-16T14:01:38.000Z</time>
      </trkpt>
      <trkpt lat="43.19614" lon="6.58769">
        <ele>43</ele>
        <time>2013-09-16T14:01:39.000Z</time>
      </trkpt>
      <trkpt lat="43.19616" lon="6.58764">
        <ele>44</ele>
        <time>2013-09-16T14:01:40.000Z</time>
      </trkpt>
      <trkpt lat="43.19617" lon="6.58758">
        <ele>44</ele>
        <time>2013-09-16T14:01:41.000Z</time>
      </trkpt>
      <trkpt lat="43.19619" lon="6.58753">
        <ele>44</ele>
        <time>2013-09-16T14:01:42.000Z</time>
      </trkpt>
      <trkpt lat="43.1962" lon="6.58748">
        <ele>46</ele>
        <time>2013-09-16T14:01:43.000Z</time>
      </trkpt>
      <trkpt lat="43.19622" lon="6.58742">
        <ele>46</ele>
        <time>2013-09-16T14:01:44.000Z</time>
      </trkpt>
      <trkpt lat="43.19624" lon="6.58737">
        <ele>46</ele>
        <time>2013-09-16T14:01:45.000Z</time>
      </trkpt>
      <trkpt lat="43.19626" lon="6.58732">
        <ele>47</ele>
        <time>2013-09-16T14:01:46.000Z</time>
      </trkpt>
      <trkpt lat="43.19628" lon="6.58727">
        <ele>47</ele>
        <time>2013-09-16T14:01:47.000Z</time>
      </trkpt>
      <trkpt lat="43.1963" lon="6.58722">
        <ele>47</ele>
        <time>2013-09-16T14:01:48.000Z</time>
      </trkpt>
      <trkpt lat="43.19632" lon="6.58716">
        <ele>47</ele>
        <time>2013-09-16T14:01:49.000Z</time>
      </trkpt>
      <trkpt lat="43.19635" lon="6.58712">
        <ele>48</ele>
        <time>2013-09-16T14:01:50.000Z</time>
      </trkpt>
      <trkpt lat="43.19637" lon="6.58707">
        <ele>48</ele>
        <time>2013-09-16T14:01:51.000Z</time>
      </trkpt>
      <trkpt lat="43.19639" lon="6.58702">
        <ele>48</ele>
        <time>2013-09-16T14:01:52.000Z</time>
      </trkpt>
      <trkpt lat="43.19642" lon="6.58697">
        <ele>48</ele>
        <time>2013-09-16T14:01:53.000Z</time>
      </trkpt>
      <trkpt lat="43.19644" lon="6.58693">
        <ele>49</ele>
        <time>2013-09-16T14:01:54.000Z</time>
      </trkpt>
      <trkpt lat="43.19647" lon="6.58688">
        <ele>49</ele>
        <time>2013-09-16T14:01:55.000Z</time>
      </trkpt>
      <trkpt lat="43.19649" lon="6.58684">
        <ele>50</ele>
        <time>2013-09-16T14:01:56.000Z</time>
      </trkpt>
      <trkpt lat="43.19651" lon="6.5868">
        <ele>50</ele>
        <time>2013-09-16T14:01:57.000Z</time>
      </trkpt>
      <trkpt lat="43.19653" lon="6.58675">
        <ele>51</ele>
        <time>2013-09-16T14:01:58.000Z</time>
      </trkpt>
      <trkpt lat="43.19655" lon="6.5867">
        <ele>51</ele>
        <time>2013-09-16T14:01:59.000Z</time>
      </trkpt>
      <trkpt lat="43.19657" lon="6.58664">
        <ele>53</ele>
        <time>2013-09-16T14:02:00.000Z</time>
      </trkpt>
      <trkpt lat="43.19659" lon="6.58659">
        <ele>53</ele>
        <time>2013-09-16T14:02:01.000Z</time>
      </trkpt>
      <trkpt lat="43.19661" lon="6.58653">
        <ele>53</ele>
        <time>2013-09-16T14:02:02.000Z</time>
      </trkpt>
      <trkpt lat="43.19662" lon="6.58648">
        <ele>53</ele>
        <time>2013-09-16T14:02:03.000Z</time>
      </trkpt>
      <trkpt lat="43.19663" lon="6.58643">
        <ele>53</ele>
        <time>2013-09-16T14:02:04.000Z</time>
      </trkpt>
      <trkpt lat="43.19663" lon="6.58638">
        <ele>53</ele>
        <time>2013-09-16T14:02:05.000Z</time>
      </trkpt>
      <trkpt lat="43.19663" lon="6.58633">
        <ele>53</ele>
        <time>2013-09-16T14:02:06.000Z</time>
      </trkpt>
      <trkpt lat="43.19663" lon="6.58628">
        <ele>53</ele>
        <time>2013-09-16T14:02:07.000Z</time>
      </trkpt>
      <trkpt lat="43.19662" lon="6.58623">
        <ele>54</ele>
        <time>2013-09-16T14:02:08.000Z</time>
      </trkpt>
      <trkpt lat="43.19661" lon="6.58619">
        <ele>54</ele>
        <time>2013-09-16T14:02:09.000Z</time>
      </trkpt>
      <trkpt lat="43.1966" lon="6.58615">
        <ele>54</ele>
        <time>2013-09-16T14:02:10.000Z</time>
      </trkpt>
      <trkpt lat="43.19659" lon="6.58611">
        <ele>54</ele>
        <time>2013-09-16T14:02:11.000Z</time>
      </trkpt>
      <trkpt lat="43.19658" lon="6.58607">
        <ele>55</ele>
        <time>2013-09-16T14:02:12.000Z</time>
      </trkpt>
      <trkpt lat="43.19656" lon="6.58603">
        <ele>55</ele>
        <time>2013-09-16T14:02:13.000Z</time>
      </trkpt>
      <trkpt lat="43.19654" lon="6.586">
        <ele>55</ele>
        <time>2013-09-16T14:02:14.000Z</time>
      </trkpt>
      <trkpt lat="43.19652" lon="6.58597">
        <ele>55</ele>
        <time>2013-09-16T14:02:15.000Z</time>
      </trkpt>
      <trkpt lat="43.19649" lon="6.58596">
        <ele>55</ele>
        <time>2013-09-16T14:02:16.000Z</time>
      </trkpt>
      <trkpt lat="43.19646" lon="6.58594">
        <ele>55</ele>
        <time>2013-09-16T14:02:17.000Z</time>
      </trkpt>
      <trkpt lat="43.19643" lon="6.58593">
        <ele>55</ele>
        <time>2013-09-16T14:02:18.000Z</time>
      </trkpt>
      <trkpt lat="43.1964" lon="6.58592">
        <ele>55</ele>
        <time>2013-09-16T14:02:19.000Z</time>
      </trkpt>
      <trkpt lat="43.19637" lon="6.58592">
        <ele>54</ele>
        <time>2013-09-16T14:02:20.000Z</time>
      </trkpt>
      <trkpt lat="43.19634" lon="6.58591">
        <ele>54</ele>
        <time>2013-09-16T14:02:21.000Z</time>
      </trkpt>
      <trkpt lat="43.1963" lon="6.58591">
        <ele>54</ele>
        <time>2013-09-16T14:02:22.000Z</time>
      </trkpt>
      <trkpt lat="43.19627" lon="6.58592">
        <ele>54</ele>
        <time>2013-09-16T14:02:23.000Z</time>
      </trkpt>
      <trkpt lat="43.19624" lon="6.58592">
        <ele>53</ele>
        <time>2013-09-16T14:02:24.000Z</time>
      </trkpt>
      <trkpt lat="43.19621" lon="6.58593">
        <ele>53</ele>
        <time>2013-09-16T14:02:25.000Z</time>
      </trkpt>
      <trkpt lat="43.19618" lon="6.58594">
        <ele>53</ele>
        <time>2013-09-16T14:02:26.000Z</time>
      </trkpt>
      <trkpt lat="43.19615" lon="6.58596">
        <ele>53</ele>
        <time>2013-09-16T14:02:27.000Z</time>
      </trkpt>
      <trkpt lat="43.19612" lon="6.58598">
        <ele>53</ele>
        <time>2013-09-16T14:02:28.000Z</time>
      </trkpt>
      <trkpt lat="43.19609" lon="6.586">
        <ele>53</ele>
        <time>2013-09-16T14:02:29.000Z</time>
      </trkpt>
      <trkpt lat="43.19606" lon="6.58602">
        <ele>53</ele>
        <time>2013-09-16T14:02:30.000Z</time>
      </trkpt>
      <trkpt lat="43.19603" lon="6.58604">
        <ele>52</ele>
        <time>2013-09-16T14:02:31.000Z</time>
      </trkpt>
      <trkpt lat="43.196" lon="6.58606">
        <ele>52</ele>
        <time>2013-09-16T14:02:32.000Z</time>
      </trkpt>
      <trkpt lat="43.19597" lon="6.58607">
        <ele>52</ele>
        <time>2013-09-16T14:02:33.000Z</time>
      </trkpt>
      <trkpt lat="43.19594" lon="6.58609">
        <ele>52</ele>
        <time>2013-09-16T14:02:34.000Z</time>
      </trkpt>
      <trkpt lat="43.19591" lon="6.5861">
        <ele>52</ele>
        <time>2013-09-16T14:02:35.000Z</time>
      </trkpt>
      <trkpt lat="43.19588" lon="6.58611">
        <ele>52</ele>
        <time>2013-09-16T14:02:36.000Z</time>
      </trkpt>
      <trkpt lat="43.19585" lon="6.58611">
        <ele>52</ele>
        <time>2013-09-16T14:02:37.000Z</time>
      </trkpt>
      <trkpt lat="43.19582" lon="6.58611">
        <ele>48</ele>
        <time>2013-09-16T14:02:38.000Z</time>
      </trkpt>
      <trkpt lat="43.19579" lon="6.5861">
        <ele>48</ele>
        <time>2013-09-16T14:02:39.000Z</time>
      </trkpt>
      <trkpt lat="43.19576" lon="6.58609">
        <ele>48</ele>
        <time>2013-09-16T14:02:40.000Z</time>
      </trkpt>
      <trkpt lat="43.19573" lon="6.58608">
        <ele>48</ele>
        <time>2013-09-16T14:02:41.000Z</time>
      </trkpt>
      <trkpt lat="43.19571" lon="6.58607">
        <ele>48</ele>
        <time>2013-09-16T14:02:42.000Z</time>
      </trkpt>
      <trkpt lat="43.19568" lon="6.58605">
        <ele>48</ele>
        <time>2013-09-16T14:02:43.000Z</time>
      </trkpt>
      <trkpt lat="43.19565" lon="6.58603">
        <ele>48</ele>
        <time>2013-09-16T14:02:44.000Z</time>
      </trkpt>
      <trkpt lat="43.19562" lon="6.58602">
        <ele>48</ele>
        <time>2013-09-16T14:02:45.000Z</time>
      </trkpt>
      <trkpt lat="43.19559" lon="6.58601">
        <ele>48</ele>
        <time>2013-09-16T14:02:46.000Z</time>
      </trkpt>
      <trkpt lat="43.19556" lon="6.586">
        <ele>48</ele>
        <time>2013-09-16T14:02:47.000Z</time>
      </trkpt>
      <trkpt lat="43.19549" lon="6.58601">
        <ele>47</ele>
        <time>2013-09-16T14:02:49.000Z</time>
      </trkpt>
      <trkpt lat="43.19546" lon="6.58602">
        <ele>47</ele>
        <time>2013-09-16T14:02:50.000Z</time>
      </trkpt>
      <trkpt lat="43.19543" lon="6.58602">
        <ele>47</ele>
        <time>2013-09-16T14:02:51.000Z</time>
      </trkpt>
      <trkpt lat="43.19539" lon="6.58603">
        <ele>47</ele>
        <time>2013-09-16T14:02:52.000Z</time>
      </trkpt>
      <trkpt lat="43.19536" lon="6.58604">
        <ele>47</ele>
        <time>2013-09-16T14:02:53.000Z</time>
      </trkpt>
      <trkpt lat="43.19533" lon="6.58604">
        <ele>47</ele>
        <time>2013-09-16T14:02:54.000Z</time>
      </trkpt>
      <trkpt lat="43.1953" lon="6.58604">
        <ele>47</ele>
        <time>2013-09-16T14:02:55.000Z</time>
      </trkpt>
      <trkpt lat="43.19526" lon="6.58603">
        <ele>47</ele>
        <time>2013-09-16T14:02:56.000Z</time>
      </trkpt>
      <trkpt lat="43.19523" lon="6.58602">
        <ele>47</ele>
        <time>2013-09-16T14:02:57.000Z</time>
      </trkpt>
      <trkpt lat="43.1952" lon="6.58601">
        <ele>47</ele>
        <time>2013-09-16T14:02:58.000Z</time>
      </trkpt>
      <trkpt lat="43.19517" lon="6.586">
        <ele>47</ele>
        <time>2013-09-16T14:02:59.000Z</time>
      </trkpt>
      <trkpt lat="43.19514" lon="6.58598">
        <ele>48</ele>
        <time>2013-09-16T14:03:00.000Z</time>
      </trkpt>
      <trkpt lat="43.19511" lon="6.58595">
        <ele>48</ele>
        <time>2013-09-16T14:03:01.000Z</time>
      </trkpt>
      <trkpt lat="43.19508" lon="6.58593">
        <ele>49</ele>
        <time>2013-09-16T14:03:02.000Z</time>
      </trkpt>
      <trkpt lat="43.19506" lon="6.58589">
        <ele>49</ele>
        <time>2013-09-16T14:03:03.000Z</time>
      </trkpt>
      <trkpt lat="43.19504" lon="6.58585">
        <ele>50</ele>
        <time>2013-09-16T14:03:04.000Z</time>
      </trkpt>
      <trkpt lat="43.19503" lon="6.58581">
        <ele>52</ele>
        <time>2013-09-16T14:03:05.000Z</time>
      </trkpt>
      <trkpt lat="43.19501" lon="6.58577">
        <ele>53</ele>
        <time>2013-09-16T14:03:06.000Z</time>
      </trkpt>
      <trkpt lat="43.19499" lon="6.58573">
        <ele>51</ele>
        <time>2013-09-16T14:03:07.000Z</time>
      </trkpt>
      <trkpt lat="43.19498" lon="6.58569">
        <ele>51</ele>
        <time>2013-09-16T14:03:08.000Z</time>
      </trkpt>
      <trkpt lat="43.19496" lon="6.58565">
        <ele>51</ele>
        <time>2013-09-16T14:03:09.000Z</time>
      </trkpt>
      <trkpt lat="43.19494" lon="6.58561">
        <ele>52</ele>
        <time>2013-09-16T14:03:10.000Z</time>
      </trkpt>
      <trkpt lat="43.19492" lon="6.58558">
        <ele>52</ele>
        <time>2013-09-16T14:03:11.000Z</time>
      </trkpt>
      <trkpt lat="43.1949" lon="6.58554">
        <ele>52</ele>
        <time>2013-09-16T14:03:12.000Z</time>
      </trkpt>
      <trkpt lat="43.19487" lon="6.58551">
        <ele>52</ele>
        <time>2013-09-16T14:03:13.000Z</time>
      </trkpt>
      <trkpt lat="43.19485" lon="6.58548">
        <ele>52</ele>
        <time>2013-09-16T14:03:14.000Z</time>
      </trkpt>
      <trkpt lat="43.19482" lon="6.58545">
        <ele>52</ele>
        <time>2013-09-16T14:03:15.000Z</time>
      </trkpt>
      <trkpt lat="43.1948" lon="6.58542">
        <ele>52</ele>
        <time>2013-09-16T14:03:16.000Z</time>
      </trkpt>
      <trkpt lat="43.19477" lon="6.58539">
        <ele>52</ele>
        <time>2013-09-16T14:03:17.000Z</time>
      </trkpt>
      <trkpt lat="43.19474" lon="6.58537">
        <ele>52</ele>
        <time>2013-09-16T14:03:18.000Z</time>
      </trkpt>
      <trkpt lat="43.19471" lon="6.58535">
        <ele>52</ele>
        <time>2013-09-16T14:03:19.000Z</time>
      </trkpt>
      <trkpt lat="43.19467" lon="6.58533">
        <ele>52</ele>
        <time>2013-09-16T14:03:20.000Z</time>
      </trkpt>
      <trkpt lat="43.19464" lon="6.58532">
        <ele>52</ele>
        <time>2013-09-16T14:03:21.000Z</time>
      </trkpt>
      <trkpt lat="43.19461" lon="6.58533">
        <ele>52</ele>
        <time>2013-09-16T14:03:22.000Z</time>
      </trkpt>
      <trkpt lat="43.19458" lon="6.58533">
        <ele>51</ele>
        <time>2013-09-16T14:03:23.000Z</time>
      </trkpt>
      <trkpt lat="43.19454" lon="6.58535">
        <ele>51</ele>
        <time>2013-09-16T14:03:24.000Z</time>
      </trkpt>
      <trkpt lat="43.19451" lon="6.58537">
        <ele>51</ele>
        <time>2013-09-16T14:03:25.000Z</time>
      </trkpt>
      <trkpt lat="43.19448" lon="6.58539">
        <ele>51</ele>
        <time>2013-09-16T14:03:26.000Z</time>
      </trkpt>
      <trkpt lat="43.19445" lon="6.58541">
        <ele>50</ele>
        <time>2013-09-16T14:03:27.000Z</time>
      </trkpt>
      <trkpt lat="43.19442" lon="6.58543">
        <ele>50</ele>
        <time>2013-09-16T14:03:28.000Z</time>
      </trkpt>
      <trkpt lat="43.19439" lon="6.58544">
        <ele>50</ele>
        <time>2013-09-16T14:03:29.000Z</time>
      </trkpt>
      <trkpt lat="43.19435" lon="6.58545">
        <ele>50</ele>
        <time>2013-09-16T14:03:30.000Z</time>
      </trkpt>
      <trkpt lat="43.19432" lon="6.58545">
        <ele>49</ele>
        <time>2013-09-16T14:03:31.000Z</time>
      </trkpt>
      <trkpt lat="43.19428" lon="6.58544">
        <ele>49</ele>
        <time>2013-09-16T14:03:32.000Z</time>
      </trkpt>
      <trkpt lat="43.19425" lon="6.58542">
        <ele>49</ele>
        <time>2013-09-16T14:03:33.000Z</time>
      </trkpt>
      <trkpt lat="43.19423" lon="6.5854">
        <ele>49</ele>
        <time>2013-09-16T14:03:34.000Z</time>
      </trkpt>
      <trkpt lat="43.19421" lon="6.58537">
        <ele>49</ele>
        <time>2013-09-16T14:03:35.000Z</time>
      </trkpt>
      <trkpt lat="43.19419" lon="6.58533">
        <ele>50</ele>
        <time>2013-09-16T14:03:36.000Z</time>
      </trkpt>
      <trkpt lat="43.19419" lon="6.58529">
        <ele>50</ele>
        <time>2013-09-16T14:03:37.000Z</time>
      </trkpt>
      <trkpt lat="43.19418" lon="6.58525">
        <ele>50</ele>
        <time>2013-09-16T14:03:38.000Z</time>
      </trkpt>
      <trkpt lat="43.19419" lon="6.58521">
        <ele>50</ele>
        <time>2013-09-16T14:03:39.000Z</time>
      </trkpt>
      <trkpt lat="43.19419" lon="6.58517">
        <ele>50</ele>
        <time>2013-09-16T14:03:40.000Z</time>
      </trkpt>
      <trkpt lat="43.1942" lon="6.58513">
        <ele>50</ele>
        <time>2013-09-16T14:03:41.000Z</time>
      </trkpt>
      <trkpt lat="43.19421" lon="6.5851">
        <ele>50</ele>
        <time>2013-09-16T14:03:42.000Z</time>
      </trkpt>
      <trkpt lat="43.19422" lon="6.58507">
        <ele>50</ele>
        <time>2013-09-16T14:03:43.000Z</time>
      </trkpt>
      <trkpt lat="43.19423" lon="6.58503">
        <ele>50</ele>
        <time>2013-09-16T14:03:44.000Z</time>
      </trkpt>
      <trkpt lat="43.19424" lon="6.58499">
        <ele>51</ele>
        <time>2013-09-16T14:03:45.000Z</time>
      </trkpt>
      <trkpt lat="43.19426" lon="6.58495">
        <ele>51</ele>
        <time>2013-09-16T14:03:46.000Z</time>
      </trkpt>
      <trkpt lat="43.19427" lon="6.58492">
        <ele>51</ele>
        <time>2013-09-16T14:03:47.000Z</time>
      </trkpt>
      <trkpt lat="43.19429" lon="6.58488">
        <ele>52</ele>
        <time>2013-09-16T14:03:48.000Z</time>
      </trkpt>
      <trkpt lat="43.1943" lon="6.58484">
        <ele>52</ele>
        <time>2013-09-16T14:03:49.000Z</time>
      </trkpt>
      <trkpt lat="43.19432" lon="6.5848">
        <ele>53</ele>
        <time>2013-09-16T14:03:50.000Z</time>
      </trkpt>
      <trkpt lat="43.19434" lon="6.58476">
        <ele>53</ele>
        <time>2013-09-16T14:03:51.000Z</time>
      </trkpt>
      <trkpt lat="43.19436" lon="6.58473">
        <ele>53</ele>
        <time>2013-09-16T14:03:52.000Z</time>
      </trkpt>
      <trkpt lat="43.19437" lon="6.58469">
        <ele>53</ele>
        <time>2013-09-16T14:03:53.000Z</time>
      </trkpt>
      <trkpt lat="43.19439" lon="6.58465">
        <ele>53</ele>
        <time>2013-09-16T14:03:54.000Z</time>
      </trkpt>
      <trkpt lat="43.19442" lon="6.58462">
        <ele>54</ele>
        <time>2013-09-16T14:03:55.000Z</time>
      </trkpt>
      <trkpt lat="43.19444" lon="6.58458">
        <ele>54</ele>
        <time>2013-09-16T14:03:56.000Z</time>
      </trkpt>
      <trkpt lat="43.19446" lon="6.58455">
        <ele>54</ele>
        <time>2013-09-16T14:03:57.000Z</time>
      </trkpt>
      <trkpt lat="43.19448" lon="6.58452">
        <ele>54</ele>
        <time>2013-09-16T14:03:58.000Z</time>
      </trkpt>
      <trkpt lat="43.19451" lon="6.58449">
        <ele>54</ele>
        <time>2013-09-16T14:03:59.000Z</time>
      </trkpt>
      <trkpt lat="43.19453" lon="6.58446">
        <ele>54</ele>
        <time>2013-09-16T14:04:00.000Z</time>
      </trkpt>
      <trkpt lat="43.19456" lon="6.58444">
        <ele>54</ele>
        <time>2013-09-16T14:04:01.000Z</time>
      </trkpt>
      <trkpt lat="43.19458" lon="6.58441">
        <ele>55</ele>
        <time>2013-09-16T14:04:02.000Z</time>
      </trkpt>
      <trkpt lat="43.19461" lon="6.58439">
        <ele>55</ele>
        <time>2013-09-16T14:04:03.000Z</time>
      </trkpt>
      <trkpt lat="43.19464" lon="6.58436">
        <ele>55</ele>
        <time>2013-09-16T14:04:04.000Z</time>
      </trkpt>
      <trkpt lat="43.19467" lon="6.58433">
        <ele>55</ele>
        <time>2013-09-16T14:04:05.000Z</time>
      </trkpt>
      <trkpt lat="43.19469" lon="6.5843">
        <ele>56</ele>
        <time>2013-09-16T14:04:06.000Z</time>
      </trkpt>
      <trkpt lat="43.19472" lon="6.58427">
        <ele>56</ele>
        <time>2013-09-16T14:04:07.000Z</time>
      </trkpt>
      <trkpt lat="43.19474" lon="6.58425">
        <ele>56</ele>
        <time>2013-09-16T14:04:08.000Z</time>
      </trkpt>
      <trkpt lat="43.19477" lon="6.58422">
        <ele>57</ele>
        <time>2013-09-16T14:04:09.000Z</time>
      </trkpt>
      <trkpt lat="43.1948" lon="6.5842">
        <ele>57</ele>
        <time>2013-09-16T14:04:10.000Z</time>
      </trkpt>
      <trkpt lat="43.19483" lon="6.58417">
        <ele>57</ele>
        <time>2013-09-16T14:04:11.000Z</time>
      </trkpt>
      <trkpt lat="43.19485" lon="6.58414">
        <ele>57</ele>
        <time>2013-09-16T14:04:12.000Z</time>
      </trkpt>
      <trkpt lat="43.19488" lon="6.58411">
        <ele>58</ele>
        <time>2013-09-16T14:04:13.000Z</time>
      </trkpt>
      <trkpt lat="43.1949" lon="6.58408">
        <ele>58</ele>
        <time>2013-09-16T14:04:14.000Z</time>
      </trkpt>
      <trkpt lat="43.19492" lon="6.58404">
        <ele>57</ele>
        <time>2013-09-16T14:04:15.000Z</time>
      </trkpt>
      <trkpt lat="43.19493" lon="6.58399">
        <ele>57</ele>
        <time>2013-09-16T14:04:16.000Z</time>
      </trkpt>
      <trkpt lat="43.19493" lon="6.58395">
        <ele>57</ele>
        <time>2013-09-16T14:04:17.000Z</time>
      </trkpt>
      <trkpt lat="43.19493" lon="6.5839">
        <ele>57</ele>
        <time>2013-09-16T14:04:18.000Z</time>
      </trkpt>
      <trkpt lat="43.19492" lon="6.58385">
        <ele>56</ele>
        <time>2013-09-16T14:04:19.000Z</time>
      </trkpt>
      <trkpt lat="43.19491" lon="6.58381">
        <ele>56</ele>
        <time>2013-09-16T14:04:20.000Z</time>
      </trkpt>
      <trkpt lat="43.1949" lon="6.58377">
        <ele>56</ele>
        <time>2013-09-16T14:04:21.000Z</time>
      </trkpt>
      <trkpt lat="43.1949" lon="6.58372">
        <ele>56</ele>
        <time>2013-09-16T14:04:22.000Z</time>
      </trkpt>
      <trkpt lat="43.1949" lon="6.58368">
        <ele>56</ele>
        <time>2013-09-16T14:04:23.000Z</time>
      </trkpt>
      <trkpt lat="43.19491" lon="6.58363">
        <ele>56</ele>
        <time>2013-09-16T14:04:24.000Z</time>
      </trkpt>
      <trkpt lat="43.19492" lon="6.58358">
        <ele>56</ele>
        <time>2013-09-16T14:04:25.000Z</time>
      </trkpt>
      <trkpt lat="43.19493" lon="6.58354">
        <ele>56</ele>
        <time>2013-09-16T14:04:26.000Z</time>
      </trkpt>
      <trkpt lat="43.19495" lon="6.58349">
        <ele>56</ele>
        <time>2013-09-16T14:04:27.000Z</time>
      </trkpt>
      <trkpt lat="43.19496" lon="6.58345">
        <ele>57</ele>
        <time>2013-09-16T14:04:28.000Z</time>
      </trkpt>
      <trkpt lat="43.19498" lon="6.58341">
        <ele>57</ele>
        <time>2013-09-16T14:04:29.000Z</time>
      </trkpt>
      <trkpt lat="43.195" lon="6.58336">
        <ele>59</ele>
        <time>2013-09-16T14:04:30.000Z</time>
      </trkpt>
      <trkpt lat="43.19502" lon="6.58332">
        <ele>59</ele>
        <time>2013-09-16T14:04:31.000Z</time>
      </trkpt>
      <trkpt lat="43.19505" lon="6.58329">
        <ele>60</ele>
        <time>2013-09-16T14:04:32.000Z</time>
      </trkpt>
      <trkpt lat="43.19507" lon="6.58325">
        <ele>61</ele>
        <time>2013-09-16T14:04:33.000Z</time>
      </trkpt>
      <trkpt lat="43.1951" lon="6.58322">
        <ele>62</ele>
        <time>2013-09-16T14:04:34.000Z</time>
      </trkpt>
      <trkpt lat="43.19513" lon="6.58319">
        <ele>63</ele>
        <time>2013-09-16T14:04:35.000Z</time>
      </trkpt>
      <trkpt lat="43.19515" lon="6.58316">
        <ele>64</ele>
        <time>2013-09-16T14:04:36.000Z</time>
      </trkpt>
      <trkpt lat="43.19518" lon="6.58312">
        <ele>64</ele>
        <time>2013-09-16T14:04:37.000Z</time>
      </trkpt>
      <trkpt lat="43.1952" lon="6.58308">
        <ele>65</ele>
        <time>2013-09-16T14:04:38.000Z</time>
      </trkpt>
      <trkpt lat="43.19522" lon="6.58305">
        <ele>65</ele>
        <time>2013-09-16T14:04:39.000Z</time>
      </trkpt>
      <trkpt lat="43.19524" lon="6.58301">
        <ele>65</ele>
        <time>2013-09-16T14:04:40.000Z</time>
      </trkpt>
      <trkpt lat="43.19525" lon="6.58297">
        <ele>66</ele>
        <time>2013-09-16T14:04:41.000Z</time>
      </trkpt>
      <trkpt lat="43.19526" lon="6.58293">
        <ele>66</ele>
        <time>2013-09-16T14:04:42.000Z</time>
      </trkpt>
      <trkpt lat="43.19528" lon="6.58289">
        <ele>66</ele>
        <time>2013-09-16T14:04:43.000Z</time>
      </trkpt>
      <trkpt lat="43.19529" lon="6.58285">
        <ele>66</ele>
        <time>2013-09-16T14:04:44.000Z</time>
      </trkpt>
      <trkpt lat="43.1953" lon="6.58281">
        <ele>66</ele>
        <time>2013-09-16T14:04:45.000Z</time>
      </trkpt>
      <trkpt lat="43.19532" lon="6.58276">
        <ele>66</ele>
        <time>2013-09-16T14:04:46.000Z</time>
      </trkpt>
      <trkpt lat="43.19533" lon="6.58272">
        <ele>66</ele>
        <time>2013-09-16T14:04:47.000Z</time>
      </trkpt>
      <trkpt lat="43.19534" lon="6.58268">
        <ele>66</ele>
        <time>2013-09-16T14:04:48.000Z</time>
      </trkpt>
      <trkpt lat="43.19535" lon="6.58263">
        <ele>66</ele>
        <time>2013-09-16T14:04:49.000Z</time>
      </trkpt>
      <trkpt lat="43.19537" lon="6.58259">
        <ele>67</ele>
        <time>2013-09-16T14:04:50.000Z</time>
      </trkpt>
      <trkpt lat="43.19538" lon="6.58255">
        <ele>67</ele>
        <time>2013-09-16T14:04:51.000Z</time>
      </trkpt>
      <trkpt lat="43.1954" lon="6.58251">
        <ele>67</ele>
        <time>2013-09-16T14:04:52.000Z</time>
      </trkpt>
      <trkpt lat="43.19542" lon="6.58247">
        <ele>68</ele>
        <time>2013-09-16T14:04:53.000Z</time>
      </trkpt>
      <trkpt lat="43.19545" lon="6.58244">
        <ele>68</ele>
        <time>2013-09-16T14:04:54.000Z</time>
      </trkpt>
      <trkpt lat="43.19547" lon="6.5824">
        <ele>69</ele>
        <time>2013-09-16T14:04:55.000Z</time>
      </trkpt>
      <trkpt lat="43.19549" lon="6.58237">
        <ele>69</ele>
        <time>2013-09-16T14:04:56.000Z</time>
      </trkpt>
      <trkpt lat="43.19552" lon="6.58234">
        <ele>69</ele>
        <time>2013-09-16T14:04:57.000Z</time>
      </trkpt>
      <trkpt lat="43.19554" lon="6.58232">
        <ele>69</ele>
        <time>2013-09-16T14:04:58.000Z</time>
      </trkpt>
      <trkpt lat="43.19555" lon="6.58229">
        <ele>69</ele>
        <time>2013-09-16T14:04:59.000Z</time>
      </trkpt>
      <trkpt lat="43.19557" lon="6.58227">
        <ele>69</ele>
        <time>2013-09-16T14:05:00.000Z</time>
      </trkpt>
      <trkpt lat="43.19559" lon="6.58224">
        <ele>69</ele>
        <time>2013-09-16T14:05:01.000Z</time>
      </trkpt>
      <trkpt lat="43.19561" lon="6.58221">
        <ele>69</ele>
        <time>2013-09-16T14:05:02.000Z</time>
      </trkpt>
      <trkpt lat="43.19563" lon="6.58217">
        <ele>70</ele>
        <time>2013-09-16T14:05:03.000Z</time>
      </trkpt>
      <trkpt lat="43.19564" lon="6.58213">
        <ele>70</ele>
        <time>2013-09-16T14:05:04.000Z</time>
      </trkpt>
      <trkpt lat="43.19565" lon="6.58208">
        <ele>70</ele>
        <time>2013-09-16T14:05:05.000Z</time>
      </trkpt>
      <trkpt lat="43.19564" lon="6.58198">
        <ele>70</ele>
        <time>2013-09-16T14:05:07.000Z</time>
      </trkpt>
      <trkpt lat="43.19562" lon="6.58194">
        <ele>70</ele>
        <time>2013-09-16T14:05:08.000Z</time>
      </trkpt>
      <trkpt lat="43.19559" lon="6.58189">
        <ele>70</ele>
        <time>2013-09-16T14:05:09.000Z</time>
      </trkpt>
      <trkpt lat="43.19556" lon="6.58185">
        <ele>70</ele>
        <time>2013-09-16T14:05:10.000Z</time>
      </trkpt>
      <trkpt lat="43.19553" lon="6.58182">
        <ele>70</ele>
        <time>2013-09-16T14:05:11.000Z</time>
      </trkpt>
      <trkpt lat="43.1955" lon="6.5818">
        <ele>69</ele>
        <time>2013-09-16T14:05:12.000Z</time>
      </trkpt>
      <trkpt lat="43.19546" lon="6.58178">
        <ele>69</ele>
        <time>2013-09-16T14:05:13.000Z</time>
      </trkpt>
      <trkpt lat="43.19543" lon="6.58177">
        <ele>69</ele>
        <time>2013-09-16T14:05:14.000Z</time>
      </trkpt>
      <trkpt lat="43.19535" lon="6.58178">
        <ele>69</ele>
        <time>2013-09-16T14:05:16.000Z</time>
      </trkpt>
      <trkpt lat="43.19532" lon="6.58179">
        <ele>68</ele>
        <time>2013-09-16T14:05:17.000Z</time>
      </trkpt>
      <trkpt lat="43.19528" lon="6.58181">
        <ele>68</ele>
        <time>2013-09-16T14:05:18.000Z</time>
      </trkpt>
      <trkpt lat="43.19525" lon="6.58183">
        <ele>68</ele>
        <time>2013-09-16T14:05:19.000Z</time>
      </trkpt>
      <trkpt lat="43.19522" lon="6.58185">
        <ele>68</ele>
        <time>2013-09-16T14:05:20.000Z</time>
      </trkpt>
      <trkpt lat="43.19519" lon="6.58188">
        <ele>68</ele>
        <time>2013-09-16T14:05:21.000Z</time>
      </trkpt>
      <trkpt lat="43.19515" lon="6.5819">
        <ele>68</ele>
        <time>2013-09-16T14:05:22.000Z</time>
      </trkpt>
      <trkpt lat="43.19512" lon="6.58192">
        <ele>68</ele>
        <time>2013-09-16T14:05:23.000Z</time>
      </trkpt>
      <trkpt lat="43.19509" lon="6.58195">
        <ele>67</ele>
        <time>2013-09-16T14:05:24.000Z</time>
      </trkpt>
      <trkpt lat="43.19506" lon="6.58197">
        <ele>67</ele>
        <time>2013-09-16T14:05:25.000Z</time>
      </trkpt>
      <trkpt lat="43.19503" lon="6.58199">
        <ele>67</ele>
        <time>2013-09-16T14:05:26.000Z</time>
      </trkpt>
      <trkpt lat="43.19499" lon="6.582">
        <ele>64</ele>
        <time>2013-09-16T14:05:27.000Z</time>
      </trkpt>
      <trkpt lat="43.19495" lon="6.58201">
        <ele>64</ele>
        <time>2013-09-16T14:05:28.000Z</time>
      </trkpt>
      <trkpt lat="43.19492" lon="6.58201">
        <ele>64</ele>
        <time>2013-09-16T14:05:29.000Z</time>
      </trkpt>
      <trkpt lat="43.19489" lon="6.58201">
        <ele>64</ele>
        <time>2013-09-16T14:05:30.000Z</time>
      </trkpt>
      <trkpt lat="43.19486" lon="6.58202">
        <ele>64</ele>
        <time>2013-09-16T14:05:31.000Z</time>
      </trkpt>
      <trkpt lat="43.19483" lon="6.58202">
        <ele>64</ele>
        <time>2013-09-16T14:05:32.000Z</time>
      </trkpt>
      <trkpt lat="43.19479" lon="6.58202">
        <ele>64</ele>
        <time>2013-09-16T14:05:33.000Z</time>
      </trkpt>
      <trkpt lat="43.19476" lon="6.58202">
        <ele>64</ele>
        <time>2013-09-16T14:05:34.000Z</time>
      </trkpt>
      <trkpt lat="43.19473" lon="6.58201">
        <ele>64</ele>
        <time>2013-09-16T14:05:35.000Z</time>
      </trkpt>
      <trkpt lat="43.1947" lon="6.58201">
        <ele>64</ele>
        <time>2013-09-16T14:05:36.000Z</time>
      </trkpt>
      <trkpt lat="43.19467" lon="6.582">
        <ele>64</ele>
        <time>2013-09-16T14:05:37.000Z</time>
      </trkpt>
      <trkpt lat="43.19464" lon="6.58199">
        <ele>64</ele>
        <time>2013-09-16T14:05:38.000Z</time>
      </trkpt>
      <trkpt lat="43.19462" lon="6.58197">
        <ele>64</ele>
        <time>2013-09-16T14:05:39.000Z</time>
      </trkpt>
      <trkpt lat="43.19459" lon="6.58195">
        <ele>64</ele>
        <time>2013-09-16T14:05:40.000Z</time>
      </trkpt>
      <trkpt lat="43.19457" lon="6.58193">
        <ele>64</ele>
        <time>2013-09-16T14:05:41.000Z</time>
      </trkpt>
      <trkpt lat="43.19455" lon="6.5819">
        <ele>64</ele>
        <time>2013-09-16T14:05:42.000Z</time>
      </trkpt>
      <trkpt lat="43.19454" lon="6.58187">
        <ele>64</ele>
        <time>2013-09-16T14:05:43.000Z</time>
      </trkpt>
      <trkpt lat="43.19453" lon="6.58183">
        <ele>64</ele>
        <time>2013-09-16T14:05:44.000Z</time>
      </trkpt>
      <trkpt lat="43.19452" lon="6.5818">
        <ele>65</ele>
        <time>2013-09-16T14:05:45.000Z</time>
      </trkpt>
      <trkpt lat="43.19451" lon="6.58176">
        <ele>65</ele>
        <time>2013-09-16T14:05:46.000Z</time>
      </trkpt>
      <trkpt lat="43.19451" lon="6.58172">
        <ele>65</ele>
        <time>2013-09-16T14:05:47.000Z</time>
      </trkpt>
      <trkpt lat="43.19451" lon="6.58164">
        <ele>67</ele>
        <time>2013-09-16T14:05:49.000Z</time>
      </trkpt>
      <trkpt lat="43.19451" lon="6.58161">
        <ele>68</ele>
        <time>2013-09-16T14:05:50.000Z</time>
      </trkpt>
      <trkpt lat="43.19452" lon="6.58157">
        <ele>68</ele>
        <time>2013-09-16T14:05:51.000Z</time>
      </trkpt>
      <trkpt lat="43.19452" lon="6.58154">
        <ele>68</ele>
        <time>2013-09-16T14:05:52.000Z</time>
      </trkpt>
      <trkpt lat="43.19453" lon="6.5815">
        <ele>68</ele>
        <time>2013-09-16T14:05:53.000Z</time>
      </trkpt>
      <trkpt lat="43.19453" lon="6.58147">
        <ele>68</ele>
        <time>2013-09-16T14:05:54.000Z</time>
      </trkpt>
      <trkpt lat="43.19453" lon="6.58143">
        <ele>68</ele>
        <time>2013-09-16T14:05:55.000Z</time>
      </trkpt>
      <trkpt lat="43.19454" lon="6.5814">
        <ele>68</ele>
        <time>2013-09-16T14:05:56.000Z</time>
      </trkpt>
      <trkpt lat="43.19454" lon="6.58136">
        <ele>68</ele>
        <time>2013-09-16T14:05:57.000Z</time>
      </trkpt>
      <trkpt lat="43.19454" lon="6.58134">
        <ele>68</ele>
        <time>2013-09-16T14:05:58.000Z</time>
      </trkpt>
      <trkpt lat="43.19455" lon="6.58132">
        <ele>68</ele>
        <time>2013-09-16T14:05:59.000Z</time>
      </trkpt>
      <trkpt lat="43.19455" lon="6.58132">
        <ele>68</ele>
        <time>2013-09-16T14:06:01.000Z</time>
      </trkpt>
      <trkpt lat="43.19455" lon="6.58131">
        <ele>68</ele>
        <time>2013-09-16T14:06:06.000Z</time>
      </trkpt>
      <trkpt lat="43.19455" lon="6.58131">
        <ele>68</ele>
        <time>2013-09-16T14:06:11.000Z</time>
      </trkpt>
      <trkpt lat="43.19454" lon="6.58131">
        <ele>68</ele>
        <time>2013-09-16T14:06:15.000Z</time>
      </trkpt>
      <trkpt lat="43.19454" lon="6.58131">
        <ele>68</ele>
        <time>2013-09-16T14:06:16.000Z</time>
      </trkpt>
      <trkpt lat="43.19453" lon="6.58131">
        <ele>68</ele>
        <time>2013-09-16T14:06:26.000Z</time>
      </trkpt>
      <trkpt lat="43.19453" lon="6.58131">
        <ele>68</ele>
        <time>2013-09-16T14:06:27.000Z</time>
      </trkpt>
      <trkpt lat="43.19453" lon="6.58131">
        <ele>68</ele>
        <time>2013-09-16T14:06:31.000Z</time>
      </trkpt>
      <trkpt lat="43.19453" lon="6.58131">
        <ele>68</ele>
        <time>2013-09-16T14:06:35.000Z</time>
      </trkpt>
      <trkpt lat="43.19453" lon="6.5813">
        <ele>68</ele>
        <time>2013-09-16T14:06:39.000Z</time>
      </trkpt>
      <trkpt lat="43.19453" lon="6.58131">
        <ele>68</ele>
        <time>2013-09-16T14:06:55.000Z</time>
      </trkpt>
      <trkpt lat="43.19453" lon="6.58131">
        <ele>68</ele>
        <time>2013-09-16T14:06:56.000Z</time>
      </trkpt>
      <trkpt lat="43.19453" lon="6.5813">
        <ele>68</ele>
        <time>2013-09-16T14:06:58.000Z</time>
      </trkpt>
      <trkpt lat="43.19453" lon="6.58129">
        <ele>68</ele>
        <time>2013-09-16T14:06:59.000Z</time>
      </trkpt>
      <trkpt lat="43.19453" lon="6.58124">
        <ele>68</ele>
        <time>2013-09-16T14:07:02.000Z</time>
      </trkpt>
      <trkpt lat="43.19453" lon="6.58121">
        <ele>68</ele>
        <time>2013-09-16T14:07:03.000Z</time>
      </trkpt>
      <trkpt lat="43.19453" lon="6.58119">
        <ele>68</ele>
        <time>2013-09-16T14:07:04.000Z</time>
      </trkpt>
      <trkpt lat="43.19454" lon="6.58116">
        <ele>68</ele>
        <time>2013-09-16T14:07:05.000Z</time>
      </trkpt>
      <trkpt lat="43.19454" lon="6.58113">
        <ele>68</ele>
        <time>2013-09-16T14:07:06.000Z</time>
      </trkpt>
      <trkpt lat="43.19454" lon="6.5811">
        <ele>68</ele>
        <time>2013-09-16T14:07:07.000Z</time>
      </trkpt>
      <trkpt lat="43.19455" lon="6.58107">
        <ele>68</ele>
        <time>2013-09-16T14:07:08.000Z</time>
      </trkpt>
      <trkpt lat="43.19455" lon="6.58104">
        <ele>69</ele>
        <time>2013-09-16T14:07:09.000Z</time>
      </trkpt>
      <trkpt lat="43.19456" lon="6.58101">
        <ele>69</ele>
        <time>2013-09-16T14:07:10.000Z</time>
      </trkpt>
      <trkpt lat="43.19457" lon="6.58098">
        <ele>69</ele>
        <time>2013-09-16T14:07:11.000Z</time>
      </trkpt>
      <trkpt lat="43.19458" lon="6.58096">
        <ele>69</ele>
        <time>2013-09-16T14:07:12.000Z</time>
      </trkpt>
      <trkpt lat="43.19459" lon="6.58093">
        <ele>69</ele>
        <time>2013-09-16T14:07:13.000Z</time>
      </trkpt>
      <trkpt lat="43.19461" lon="6.5809">
        <ele>69</ele>
        <time>2013-09-16T14:07:14.000Z</time>
      </trkpt>
      <trkpt lat="43.19462" lon="6.58088">
        <ele>69</ele>
        <time>2013-09-16T14:07:15.000Z</time>
      </trkpt>
      <trkpt lat="43.19463" lon="6.58085">
        <ele>69</ele>
        <time>2013-09-16T14:07:16.000Z</time>
      </trkpt>
      <trkpt lat="43.19465" lon="6.58083">
        <ele>70</ele>
        <time>2013-09-16T14:07:17.000Z</time>
      </trkpt>
      <trkpt lat="43.19466" lon="6.58081">
        <ele>70</ele>
        <time>2013-09-16T14:07:18.000Z</time>
      </trkpt>
      <trkpt lat="43.19468" lon="6.58079">
        <ele>70</ele>
        <time>2013-09-16T14:07:19.000Z</time>
      </trkpt>
      <trkpt lat="43.19469" lon="6.58077">
        <ele>70</ele>
        <time>2013-09-16T14:07:20.000Z</time>
      </trkpt>
      <trkpt lat="43.19471" lon="6.58075">
        <ele>71</ele>
        <time>2013-09-16T14:07:21.000Z</time>
      </trkpt>
      <trkpt lat="43.19472" lon="6.58073">
        <ele>71</ele>
        <time>2013-09-16T14:07:22.000Z</time>
      </trkpt>
      <trkpt lat="43.19474" lon="6.58071">
        <ele>71</ele>
        <time>2013-09-16T14:07:23.000Z</time>
      </trkpt>
      <trkpt lat="43.19475" lon="6.58069">
        <ele>71</ele>
        <time>2013-09-16T14:07:24.000Z</time>
      </trkpt>
      <trkpt lat="43.19477" lon="6.58067">
        <ele>71</ele>
        <time>2013-09-16T14:07:25.000Z</time>
      </trkpt>
      <trkpt lat="43.19478" lon="6.58065">
        <ele>71</ele>
        <time>2013-09-16T14:07:26.000Z</time>
      </trkpt>
      <trkpt lat="43.1948" lon="6.58063">
        <ele>71</ele>
        <time>2013-09-16T14:07:27.000Z</time>
      </trkpt>
      <trkpt lat="43.19481" lon="6.58061">
        <ele>71</ele>
        <time>2013-09-16T14:07:28.000Z</time>
      </trkpt>
      <trkpt lat="43.19483" lon="6.58059">
        <ele>71</ele>
        <time>2013-09-16T14:07:29.000Z</time>
      </trkpt>
      <trkpt lat="43.19485" lon="6.58057">
        <ele>71</ele>
        <time>2013-09-16T14:07:30.000Z</time>
      </trkpt>
      <trkpt lat="43.19486" lon="6.58055">
        <ele>71</ele>
        <time>2013-09-16T14:07:31.000Z</time>
      </trkpt>
      <trkpt lat="43.19488" lon="6.58052">
        <ele>71</ele>
        <time>2013-09-16T14:07:32.000Z</time>
      </trkpt>
      <trkpt lat="43.19489" lon="6.5805">
        <ele>71</ele>
        <time>2013-09-16T14:07:33.000Z</time>
      </trkpt>
      <trkpt lat="43.19491" lon="6.58048">
        <ele>71</ele>
        <time>2013-09-16T14:07:34.000Z</time>
      </trkpt>
      <trkpt lat="43.19492" lon="6.58046">
        <ele>71</ele>
        <time>2013-09-16T14:07:35.000Z</time>
      </trkpt>
      <trkpt lat="43.19494" lon="6.58044">
        <ele>71</ele>
        <time>2013-09-16T14:07:36.000Z</time>
      </trkpt>
      <trkpt lat="43.19495" lon="6.58041">
        <ele>71</ele>
        <time>2013-09-16T14:07:37.000Z</time>
      </trkpt>
      <trkpt lat="43.19496" lon="6.58039">
        <ele>71</ele>
        <time>2013-09-16T14:07:38.000Z</time>
      </trkpt>
      <trkpt lat="43.19497" lon="6.58036">
        <ele>71</ele>
        <time>2013-09-16T14:07:39.000Z</time>
      </trkpt>
      <trkpt lat="43.19499" lon="6.58033">
        <ele>71</ele>
        <time>2013-09-16T14:07:40.000Z</time>
      </trkpt>
      <trkpt lat="43.19499" lon="6.58031">
        <ele>71</ele>
        <time>2013-09-16T14:07:41.000Z</time>
      </trkpt>
      <trkpt lat="43.195" lon="6.58028">
        <ele>77</ele>
        <time>2013-09-16T14:07:42.000Z</time>
      </trkpt>
      <trkpt lat="43.19501" lon="6.58026">
        <ele>76</ele>
        <time>2013-09-16T14:07:43.000Z</time>
      </trkpt>
      <trkpt lat="43.19502" lon="6.58024">
        <ele>76</ele>
        <time>2013-09-16T14:07:44.000Z</time>
      </trkpt>
      <trkpt lat="43.19503" lon="6.58021">
        <ele>76</ele>
        <time>2013-09-16T14:07:45.000Z</time>
      </trkpt>
      <trkpt lat="43.19504" lon="6.58019">
        <ele>76</ele>
        <time>2013-09-16T14:07:46.000Z</time>
      </trkpt>
      <trkpt lat="43.19505" lon="6.58016">
        <ele>76</ele>
        <time>2013-09-16T14:07:47.000Z</time>
      </trkpt>
      <trkpt lat="43.19506" lon="6.58013">
        <ele>76</ele>
        <time>2013-09-16T14:07:48.000Z</time>
      </trkpt>
      <trkpt lat="43.19507" lon="6.58011">
        <ele>76</ele>
        <time>2013-09-16T14:07:49.000Z</time>
      </trkpt>
      <trkpt lat="43.19507" lon="6.58008">
        <ele>76</ele>
        <time>2013-09-16T14:07:50.000Z</time>
      </trkpt>
      <trkpt lat="43.19508" lon="6.58005">
        <ele>76</ele>
        <time>2013-09-16T14:07:51.000Z</time>
      </trkpt>
      <trkpt lat="43.19509" lon="6.58002">
        <ele>75</ele>
        <time>2013-09-16T14:07:52.000Z</time>
      </trkpt>
      <trkpt lat="43.1951" lon="6.58">
        <ele>77</ele>
        <time>2013-09-16T14:07:53.000Z</time>
      </trkpt>
      <trkpt lat="43.1951" lon="6.57997">
        <ele>77</ele>
        <time>2013-09-16T14:07:54.000Z</time>
      </trkpt>
      <trkpt lat="43.19511" lon="6.57994">
        <ele>78</ele>
        <time>2013-09-16T14:07:55.000Z</time>
      </trkpt>
      <trkpt lat="43.19512" lon="6.57992">
        <ele>78</ele>
        <time>2013-09-16T14:07:56.000Z</time>
      </trkpt>
      <trkpt lat="43.19513" lon="6.57989">
        <ele>78</ele>
        <time>2013-09-16T14:07:57.000Z</time>
      </trkpt>
      <trkpt lat="43.19513" lon="6.57987">
        <ele>79</ele>
        <time>2013-09-16T14:07:58.000Z</time>
      </trkpt>
      <trkpt lat="43.19514" lon="6.57984">
        <ele>79</ele>
        <time>2013-09-16T14:07:59.000Z</time>
      </trkpt>
      <trkpt lat="43.19514" lon="6.57981">
        <ele>79</ele>
        <time>2013-09-16T14:08:00.000Z</time>
      </trkpt>
      <trkpt lat="43.19515" lon="6.57979">
        <ele>80</ele>
        <time>2013-09-16T14:08:01.000Z</time>
      </trkpt>
      <trkpt lat="43.19516" lon="6.57976">
        <ele>80</ele>
        <time>2013-09-16T14:08:02.000Z</time>
      </trkpt>
      <trkpt lat="43.19517" lon="6.57974">
        <ele>80</ele>
        <time>2013-09-16T14:08:03.000Z</time>
      </trkpt>
      <trkpt lat="43.19517" lon="6.57971">
        <ele>81</ele>
        <time>2013-09-16T14:08:04.000Z</time>
      </trkpt>
      <trkpt lat="43.19518" lon="6.57968">
        <ele>81</ele>
        <time>2013-09-16T14:08:05.000Z</time>
      </trkpt>
      <trkpt lat="43.19519" lon="6.57965">
        <ele>81</ele>
        <time>2013-09-16T14:08:06.000Z</time>
      </trkpt>
      <trkpt lat="43.19519" lon="6.57962">
        <ele>81</ele>
        <time>2013-09-16T14:08:07.000Z</time>
      </trkpt>
      <trkpt lat="43.1952" lon="6.5796">
        <ele>81</ele>
        <time>2013-09-16T14:08:08.000Z</time>
      </trkpt>
      <trkpt lat="43.19521" lon="6.57957">
        <ele>81</ele>
        <time>2013-09-16T14:08:09.000Z</time>
      </trkpt>
      <trkpt lat="43.19521" lon="6.57954">
        <ele>81</ele>
        <time>2013-09-16T14:08:10.000Z</time>
      </trkpt>
      <trkpt lat="43.19521" lon="6.57951">
        <ele>82</ele>
        <time>2013-09-16T14:08:11.000Z</time>
      </trkpt>
      <trkpt lat="43.19522" lon="6.57948">
        <ele>82</ele>
        <time>2013-09-16T14:08:12.000Z</time>
      </trkpt>
      <trkpt lat="43.19522" lon="6.57945">
        <ele>82</ele>
        <time>2013-09-16T14:08:13.000Z</time>
      </trkpt>
      <trkpt lat="43.19521" lon="6.57938">
        <ele>82</ele>
        <time>2013-09-16T14:08:15.000Z</time>
      </trkpt>
      <trkpt lat="43.19521" lon="6.57935">
        <ele>82</ele>
        <time>2013-09-16T14:08:16.000Z</time>
      </trkpt>
      <trkpt lat="43.1952" lon="6.57932">
        <ele>81</ele>
        <time>2013-09-16T14:08:17.000Z</time>
      </trkpt>
      <trkpt lat="43.19519" lon="6.57929">
        <ele>81</ele>
        <time>2013-09-16T14:08:18.000Z</time>
      </trkpt>
      <trkpt lat="43.19518" lon="6.57926">
        <ele>81</ele>
        <time>2013-09-16T14:08:19.000Z</time>
      </trkpt>
      <trkpt lat="43.19517" lon="6.57923">
        <ele>81</ele>
        <time>2013-09-16T14:08:20.000Z</time>
      </trkpt>
      <trkpt lat="43.19516" lon="6.5792">
        <ele>81</ele>
        <time>2013-09-16T14:08:21.000Z</time>
      </trkpt>
      <trkpt lat="43.19515" lon="6.57918">
        <ele>81</ele>
        <time>2013-09-16T14:08:22.000Z</time>
      </trkpt>
      <trkpt lat="43.19514" lon="6.57915">
        <ele>82</ele>
        <time>2013-09-16T14:08:23.000Z</time>
      </trkpt>
      <trkpt lat="43.19513" lon="6.57912">
        <ele>82</ele>
        <time>2013-09-16T14:08:24.000Z</time>
      </trkpt>
      <trkpt lat="43.19512" lon="6.57909">
        <ele>82</ele>
        <time>2013-09-16T14:08:25.000Z</time>
      </trkpt>
      <trkpt lat="43.19511" lon="6.57906">
        <ele>82</ele>
        <time>2013-09-16T14:08:26.000Z</time>
      </trkpt>
      <trkpt lat="43.19511" lon="6.57903">
        <ele>82</ele>
        <time>2013-09-16T14:08:27.000Z</time>
      </trkpt>
      <trkpt lat="43.1951" lon="6.579">
        <ele>82</ele>
        <time>2013-09-16T14:08:28.000Z</time>
      </trkpt>
      <trkpt lat="43.1951" lon="6.57897">
        <ele>83</ele>
        <time>2013-09-16T14:08:29.000Z</time>
      </trkpt>
      <trkpt lat="43.19509" lon="6.57894">
        <ele>83</ele>
        <time>2013-09-16T14:08:30.000Z</time>
      </trkpt>
      <trkpt lat="43.19509" lon="6.57888">
        <ele>83</ele>
        <time>2013-09-16T14:08:32.000Z</time>
      </trkpt>
      <trkpt lat="43.1951" lon="6.57885">
        <ele>83</ele>
        <time>2013-09-16T14:08:33.000Z</time>
      </trkpt>
      <trkpt lat="43.19511" lon="6.57882">
        <ele>84</ele>
        <time>2013-09-16T14:08:34.000Z</time>
      </trkpt>
      <trkpt lat="43.19511" lon="6.5788">
        <ele>84</ele>
        <time>2013-09-16T14:08:35.000Z</time>
      </trkpt>
      <trkpt lat="43.19512" lon="6.57877">
        <ele>84</ele>
        <time>2013-09-16T14:08:36.000Z</time>
      </trkpt>
      <trkpt lat="43.19513" lon="6.57874">
        <ele>84</ele>
        <time>2013-09-16T14:08:37.000Z</time>
      </trkpt>
      <trkpt lat="43.19515" lon="6.57871">
        <ele>84</ele>
        <time>2013-09-16T14:08:38.000Z</time>
      </trkpt>
      <trkpt lat="43.19516" lon="6.57869">
        <ele>84</ele>
        <time>2013-09-16T14:08:39.000Z</time>
      </trkpt>
      <trkpt lat="43.19517" lon="6.57867">
        <ele>84</ele>
        <time>2013-09-16T14:08:40.000Z</time>
      </trkpt>
      <trkpt lat="43.19518" lon="6.57864">
        <ele>84</ele>
        <time>2013-09-16T14:08:41.000Z</time>
      </trkpt>
      <trkpt lat="43.19519" lon="6.57862">
        <ele>84</ele>
        <time>2013-09-16T14:08:42.000Z</time>
      </trkpt>
      <trkpt lat="43.1952" lon="6.57859">
        <ele>84</ele>
        <time>2013-09-16T14:08:43.000Z</time>
      </trkpt>
      <trkpt lat="43.19522" lon="6.57857">
        <ele>85</ele>
        <time>2013-09-16T14:08:44.000Z</time>
      </trkpt>
      <trkpt lat="43.19523" lon="6.57855">
        <ele>85</ele>
        <time>2013-09-16T14:08:45.000Z</time>
      </trkpt>
      <trkpt lat="43.19524" lon="6.57853">
        <ele>85</ele>
        <time>2013-09-16T14:08:46.000Z</time>
      </trkpt>
      <trkpt lat="43.19525" lon="6.5785">
        <ele>85</ele>
        <time>2013-09-16T14:08:47.000Z</time>
      </trkpt>
      <trkpt lat="43.19526" lon="6.57848">
        <ele>85</ele>
        <time>2013-09-16T14:08:48.000Z</time>
      </trkpt>
      <trkpt lat="43.19527" lon="6.57846">
        <ele>85</ele>
        <time>2013-09-16T14:08:49.000Z</time>
      </trkpt>
      <trkpt lat="43.19528" lon="6.57843">
        <ele>85</ele>
        <time>2013-09-16T14:08:50.000Z</time>
      </trkpt>
      <trkpt lat="43.1953" lon="6.57841">
        <ele>85</ele>
        <time>2013-09-16T14:08:51.000Z</time>
      </trkpt>
      <trkpt lat="43.19531" lon="6.57839">
        <ele>85</ele>
        <time>2013-09-16T14:08:52.000Z</time>
      </trkpt>
      <trkpt lat="43.19532" lon="6.57837">
        <ele>85</ele>
        <time>2013-09-16T14:08:53.000Z</time>
      </trkpt>
      <trkpt lat="43.19533" lon="6.57835">
        <ele>85</ele>
        <time>2013-09-16T14:08:54.000Z</time>
      </trkpt>
      <trkpt lat="43.19534" lon="6.57833">
        <ele>86</ele>
        <time>2013-09-16T14:08:55.000Z</time>
      </trkpt>
      <trkpt lat="43.19535" lon="6.57831">
        <ele>86</ele>
        <time>2013-09-16T14:08:56.000Z</time>
      </trkpt>
      <trkpt lat="43.19536" lon="6.57829">
        <ele>86</ele>
        <time>2013-09-16T14:08:57.000Z</time>
      </trkpt>
      <trkpt lat="43.19537" lon="6.57827">
        <ele>86</ele>
        <time>2013-09-16T14:08:58.000Z</time>
      </trkpt>
      <trkpt lat="43.19538" lon="6.57825">
        <ele>86</ele>
        <time>2013-09-16T14:08:59.000Z</time>
      </trkpt>
      <trkpt lat="43.1954" lon="6.57823">
        <ele>86</ele>
        <time>2013-09-16T14:09:00.000Z</time>
      </trkpt>
      <trkpt lat="43.19541" lon="6.57821">
        <ele>87</ele>
        <time>2013-09-16T14:09:01.000Z</time>
      </trkpt>
      <trkpt lat="43.19542" lon="6.57819">
        <ele>87</ele>
        <time>2013-09-16T14:09:02.000Z</time>
      </trkpt>
      <trkpt lat="43.19543" lon="6.57816">
        <ele>87</ele>
        <time>2013-09-16T14:09:03.000Z</time>
      </trkpt>
      <trkpt lat="43.19544" lon="6.57814">
        <ele>87</ele>
        <time>2013-09-16T14:09:04.000Z</time>
      </trkpt>
      <trkpt lat="43.19545" lon="6.57812">
        <ele>87</ele>
        <time>2013-09-16T14:09:05.000Z</time>
      </trkpt>
      <trkpt lat="43.19546" lon="6.5781">
        <ele>87</ele>
        <time>2013-09-16T14:09:06.000Z</time>
      </trkpt>
      <trkpt lat="43.19548" lon="6.57808">
        <ele>87</ele>
        <time>2013-09-16T14:09:07.000Z</time>
      </trkpt>
      <trkpt lat="43.19549" lon="6.57806">
        <ele>87</ele>
        <time>2013-09-16T14:09:08.000Z</time>
      </trkpt>
      <trkpt lat="43.1955" lon="6.57804">
        <ele>87</ele>
        <time>2013-09-16T14:09:09.000Z</time>
      </trkpt>
      <trkpt lat="43.19552" lon="6.57802">
        <ele>87</ele>
        <time>2013-09-16T14:09:10.000Z</time>
      </trkpt>
      <trkpt lat="43.19552" lon="6.578">
        <ele>87</ele>
        <time>2013-09-16T14:09:11.000Z</time>
      </trkpt>
      <trkpt lat="43.19554" lon="6.57798">
        <ele>87</ele>
        <time>2013-09-16T14:09:12.000Z</time>
      </trkpt>
      <trkpt lat="43.19555" lon="6.57796">
        <ele>87</ele>
        <time>2013-09-16T14:09:13.000Z</time>
      </trkpt>
      <trkpt lat="43.19556" lon="6.57794">
        <ele>88</ele>
        <time>2013-09-16T14:09:14.000Z</time>
      </trkpt>
      <trkpt lat="43.19558" lon="6.57792">
        <ele>88</ele>
        <time>2013-09-16T14:09:15.000Z</time>
      </trkpt>
      <trkpt lat="43.19559" lon="6.5779">
        <ele>88</ele>
        <time>2013-09-16T14:09:16.000Z</time>
      </trkpt>
      <trkpt lat="43.19561" lon="6.57788">
        <ele>88</ele>
        <time>2013-09-16T14:09:17.000Z</time>
      </trkpt>
      <trkpt lat="43.19562" lon="6.57786">
        <ele>88</ele>
        <time>2013-09-16T14:09:18.000Z</time>
      </trkpt>
      <trkpt lat="43.19564" lon="6.57784">
        <ele>88</ele>
        <time>2013-09-16T14:09:19.000Z</time>
      </trkpt>
      <trkpt lat="43.19565" lon="6.57783">
        <ele>88</ele>
        <time>2013-09-16T14:09:20.000Z</time>
      </trkpt>
      <trkpt lat="43.19567" lon="6.57781">
        <ele>88</ele>
        <time>2013-09-16T14:09:21.000Z</time>
      </trkpt>
      <trkpt lat="43.19568" lon="6.5778">
        <ele>88</ele>
        <time>2013-09-16T14:09:22.000Z</time>
      </trkpt>
      <trkpt lat="43.19569" lon="6.57778">
        <ele>88</ele>
        <time>2013-09-16T14:09:23.000Z</time>
      </trkpt>
      <trkpt lat="43.19571" lon="6.57777">
        <ele>88</ele>
        <time>2013-09-16T14:09:24.000Z</time>
      </trkpt>
      <trkpt lat="43.19572" lon="6.57775">
        <ele>88</ele>
        <time>2013-09-16T14:09:25.000Z</time>
      </trkpt>
      <trkpt lat="43.19574" lon="6.57774">
        <ele>89</ele>
        <time>2013-09-16T14:09:26.000Z</time>
      </trkpt>
      <trkpt lat="43.19575" lon="6.57772">
        <ele>89</ele>
        <time>2013-09-16T14:09:27.000Z</time>
      </trkpt>
      <trkpt lat="43.19576" lon="6.57771">
        <ele>89</ele>
        <time>2013-09-16T14:09:28.000Z</time>
      </trkpt>
      <trkpt lat="43.19578" lon="6.57769">
        <ele>89</ele>
        <time>2013-09-16T14:09:29.000Z</time>
      </trkpt>
      <trkpt lat="43.19579" lon="6.57767">
        <ele>89</ele>
        <time>2013-09-16T14:09:30.000Z</time>
      </trkpt>
      <trkpt lat="43.19581" lon="6.57765">
        <ele>89</ele>
        <time>2013-09-16T14:09:31.000Z</time>
      </trkpt>
      <trkpt lat="43.19582" lon="6.57763">
        <ele>89</ele>
        <time>2013-09-16T14:09:32.000Z</time>
      </trkpt>
      <trkpt lat="43.19583" lon="6.57761">
        <ele>90</ele>
        <time>2013-09-16T14:09:33.000Z</time>
      </trkpt>
      <trkpt lat="43.19584" lon="6.57759">
        <ele>93</ele>
        <time>2013-09-16T14:09:34.000Z</time>
      </trkpt>
      <trkpt lat="43.19586" lon="6.57757">
        <ele>92</ele>
        <time>2013-09-16T14:09:35.000Z</time>
      </trkpt>
      <trkpt lat="43.19587" lon="6.57754">
        <ele>92</ele>
        <time>2013-09-16T14:09:36.000Z</time>
      </trkpt>
      <trkpt lat="43.19588" lon="6.57752">
        <ele>92</ele>
        <time>2013-09-16T14:09:37.000Z</time>
      </trkpt>
      <trkpt lat="43.19589" lon="6.5775">
        <ele>92</ele>
        <time>2013-09-16T14:09:38.000Z</time>
      </trkpt>
      <trkpt lat="43.1959" lon="6.57748">
        <ele>92</ele>
        <time>2013-09-16T14:09:39.000Z</time>
      </trkpt>
      <trkpt lat="43.19591" lon="6.57746">
        <ele>92</ele>
        <time>2013-09-16T14:09:40.000Z</time>
      </trkpt>
      <trkpt lat="43.19592" lon="6.57743">
        <ele>92</ele>
        <time>2013-09-16T14:09:41.000Z</time>
      </trkpt>
      <trkpt lat="43.19592" lon="6.57741">
        <ele>92</ele>
        <time>2013-09-16T14:09:42.000Z</time>
      </trkpt>
      <trkpt lat="43.19593" lon="6.57738">
        <ele>93</ele>
        <time>2013-09-16T14:09:43.000Z</time>
      </trkpt>
      <trkpt lat="43.19594" lon="6.57736">
        <ele>93</ele>
        <time>2013-09-16T14:09:44.000Z</time>
      </trkpt>
      <trkpt lat="43.19595" lon="6.57733">
        <ele>93</ele>
        <time>2013-09-16T14:09:45.000Z</time>
      </trkpt>
      <trkpt lat="43.19595" lon="6.5773">
        <ele>93</ele>
        <time>2013-09-16T14:09:46.000Z</time>
      </trkpt>
      <trkpt lat="43.19595" lon="6.57728">
        <ele>93</ele>
        <time>2013-09-16T14:09:47.000Z</time>
      </trkpt>
      <trkpt lat="43.19596" lon="6.57725">
        <ele>93</ele>
        <time>2013-09-16T14:09:48.000Z</time>
      </trkpt>
      <trkpt lat="43.19596" lon="6.57723">
        <ele>93</ele>
        <time>2013-09-16T14:09:49.000Z</time>
      </trkpt>
      <trkpt lat="43.19597" lon="6.5772">
        <ele>93</ele>
        <time>2013-09-16T14:09:50.000Z</time>
      </trkpt>
      <trkpt lat="43.19597" lon="6.57717">
        <ele>93</ele>
        <time>2013-09-16T14:09:51.000Z</time>
      </trkpt>
      <trkpt lat="43.19597" lon="6.57714">
        <ele>93</ele>
        <time>2013-09-16T14:09:52.000Z</time>
      </trkpt>
      <trkpt lat="43.19598" lon="6.57711">
        <ele>93</ele>
        <time>2013-09-16T14:09:53.000Z</time>
      </trkpt>
      <trkpt lat="43.19598" lon="6.57709">
        <ele>93</ele>
        <time>2013-09-16T14:09:54.000Z</time>
      </trkpt>
      <trkpt lat="43.19598" lon="6.57706">
        <ele>93</ele>
        <time>2013-09-16T14:09:55.000Z</time>
      </trkpt>
      <trkpt lat="43.19599" lon="6.57703">
        <ele>93</ele>
        <time>2013-09-16T14:09:56.000Z</time>
      </trkpt>
      <trkpt lat="43.19599" lon="6.577">
        <ele>93</ele>
        <time>2013-09-16T14:09:57.000Z</time>
      </trkpt>
      <trkpt lat="43.19599" lon="6.57697">
        <ele>93</ele>
        <time>2013-09-16T14:09:58.000Z</time>
      </trkpt>
      <trkpt lat="43.19599" lon="6.57694">
        <ele>93</ele>
        <time>2013-09-16T14:09:59.000Z</time>
      </trkpt>
      <trkpt lat="43.196" lon="6.57691">
        <ele>93</ele>
        <time>2013-09-16T14:10:00.000Z</time>
      </trkpt>
      <trkpt lat="43.196" lon="6.57688">
        <ele>93</ele>
        <time>2013-09-16T14:10:01.000Z</time>
      </trkpt>
      <trkpt lat="43.19601" lon="6.57685">
        <ele>93</ele>
        <time>2013-09-16T14:10:02.000Z</time>
      </trkpt>
      <trkpt lat="43.19601" lon="6.57682">
        <ele>93</ele>
        <time>2013-09-16T14:10:03.000Z</time>
      </trkpt>
      <trkpt lat="43.19601" lon="6.57678">
        <ele>93</ele>
        <time>2013-09-16T14:10:04.000Z</time>
      </trkpt>
      <trkpt lat="43.19602" lon="6.57676">
        <ele>93</ele>
        <time>2013-09-16T14:10:05.000Z</time>
      </trkpt>
      <trkpt lat="43.19602" lon="6.57673">
        <ele>93</ele>
        <time>2013-09-16T14:10:06.000Z</time>
      </trkpt>
      <trkpt lat="43.19602" lon="6.5767">
        <ele>93</ele>
        <time>2013-09-16T14:10:07.000Z</time>
      </trkpt>
      <trkpt lat="43.19603" lon="6.57667">
        <ele>93</ele>
        <time>2013-09-16T14:10:08.000Z</time>
      </trkpt>
      <trkpt lat="43.19603" lon="6.57664">
        <ele>92</ele>
        <time>2013-09-16T14:10:09.000Z</time>
      </trkpt>
      <trkpt lat="43.19603" lon="6.57661">
        <ele>92</ele>
        <time>2013-09-16T14:10:10.000Z</time>
      </trkpt>
      <trkpt lat="43.19604" lon="6.57658">
        <ele>92</ele>
        <time>2013-09-16T14:10:11.000Z</time>
      </trkpt>
      <trkpt lat="43.19605" lon="6.57655">
        <ele>92</ele>
        <time>2013-09-16T14:10:12.000Z</time>
      </trkpt>
      <trkpt lat="43.19606" lon="6.57652">
        <ele>92</ele>
        <time>2013-09-16T14:10:13.000Z</time>
      </trkpt>
      <trkpt lat="43.19607" lon="6.5765">
        <ele>92</ele>
        <time>2013-09-16T14:10:14.000Z</time>
      </trkpt>
      <trkpt lat="43.19608" lon="6.57647">
        <ele>92</ele>
        <time>2013-09-16T14:10:15.000Z</time>
      </trkpt>
      <trkpt lat="43.1961" lon="6.57645">
        <ele>92</ele>
        <time>2013-09-16T14:10:16.000Z</time>
      </trkpt>
      <trkpt lat="43.19612" lon="6.57643">
        <ele>92</ele>
        <time>2013-09-16T14:10:17.000Z</time>
      </trkpt>
      <trkpt lat="43.19614" lon="6.57641">
        <ele>92</ele>
        <time>2013-09-16T14:10:18.000Z</time>
      </trkpt>
      <trkpt lat="43.19616" lon="6.5764">
        <ele>92</ele>
        <time>2013-09-16T14:10:19.000Z</time>
      </trkpt>
      <trkpt lat="43.19618" lon="6.57638">
        <ele>92</ele>
        <time>2013-09-16T14:10:20.000Z</time>
      </trkpt>
      <trkpt lat="43.19621" lon="6.57638">
        <ele>92</ele>
        <time>2013-09-16T14:10:21.000Z</time>
      </trkpt>
      <trkpt lat="43.19623" lon="6.57637">
        <ele>92</ele>
        <time>2013-09-16T14:10:22.000Z</time>
      </trkpt>
      <trkpt lat="43.19626" lon="6.57637">
        <ele>92</ele>
        <time>2013-09-16T14:10:23.000Z</time>
      </trkpt>
      <trkpt lat="43.19628" lon="6.57636">
        <ele>92</ele>
        <time>2013-09-16T14:10:24.000Z</time>
      </trkpt>
      <trkpt lat="43.19631" lon="6.57636">
        <ele>92</ele>
        <time>2013-09-16T14:10:25.000Z</time>
      </trkpt>
      <trkpt lat="43.19636" lon="6.57636">
        <ele>92</ele>
        <time>2013-09-16T14:10:27.000Z</time>
      </trkpt>
      <trkpt lat="43.19638" lon="6.57636">
        <ele>92</ele>
        <time>2013-09-16T14:10:28.000Z</time>
      </trkpt>
      <trkpt lat="43.19641" lon="6.57637">
        <ele>92</ele>
        <time>2013-09-16T14:10:29.000Z</time>
      </trkpt>
      <trkpt lat="43.19643" lon="6.57637">
        <ele>92</ele>
        <time>2013-09-16T14:10:30.000Z</time>
      </trkpt>
      <trkpt lat="43.19653" lon="6.57637">
        <ele>92</ele>
        <time>2013-09-16T14:10:34.000Z</time>
      </trkpt>
      <trkpt lat="43.19659" lon="6.57637">
        <ele>93</ele>
        <time>2013-09-16T14:10:36.000Z</time>
      </trkpt>
      <trkpt lat="43.19661" lon="6.57637">
        <ele>93</ele>
        <time>2013-09-16T14:10:37.000Z</time>
      </trkpt>
      <trkpt lat="43.19671" lon="6.57637">
        <ele>94</ele>
        <time>2013-09-16T14:10:41.000Z</time>
      </trkpt>
      <trkpt lat="43.19678" lon="6.57637">
        <ele>94</ele>
        <time>2013-09-16T14:10:44.000Z</time>
      </trkpt>
      <trkpt lat="43.19681" lon="6.57638">
        <ele>94</ele>
        <time>2013-09-16T14:10:45.000Z</time>
      </trkpt>
      <trkpt lat="43.19683" lon="6.57638">
        <ele>94</ele>
        <time>2013-09-16T14:10:46.000Z</time>
      </trkpt>
      <trkpt lat="43.19686" lon="6.57638">
        <ele>94</ele>
        <time>2013-09-16T14:10:47.000Z</time>
      </trkpt>
      <trkpt lat="43.19688" lon="6.57638">
        <ele>94</ele>
        <time>2013-09-16T14:10:48.000Z</time>
      </trkpt>
      <trkpt lat="43.19691" lon="6.57639">
        <ele>94</ele>
        <time>2013-09-16T14:10:49.000Z</time>
      </trkpt>
      <trkpt lat="43.19693" lon="6.5764">
        <ele>94</ele>
        <time>2013-09-16T14:10:50.000Z</time>
      </trkpt>
      <trkpt lat="43.19696" lon="6.57641">
        <ele>94</ele>
        <time>2013-09-16T14:10:51.000Z</time>
      </trkpt>
      <trkpt lat="43.19698" lon="6.57642">
        <ele>94</ele>
        <time>2013-09-16T14:10:52.000Z</time>
      </trkpt>
      <trkpt lat="43.197" lon="6.57643">
        <ele>94</ele>
        <time>2013-09-16T14:10:53.000Z</time>
      </trkpt>
      <trkpt lat="43.19702" lon="6.57645">
        <ele>94</ele>
        <time>2013-09-16T14:10:54.000Z</time>
      </trkpt>
      <trkpt lat="43.19704" lon="6.57647">
        <ele>94</ele>
        <time>2013-09-16T14:10:55.000Z</time>
      </trkpt>
      <trkpt lat="43.19706" lon="6.57649">
        <ele>94</ele>
        <time>2013-09-16T14:10:56.000Z</time>
      </trkpt>
      <trkpt lat="43.19708" lon="6.57651">
        <ele>95</ele>
        <time>2013-09-16T14:10:57.000Z</time>
      </trkpt>
      <trkpt lat="43.19711" lon="6.57653">
        <ele>95</ele>
        <time>2013-09-16T14:10:58.000Z</time>
      </trkpt>
      <trkpt lat="43.19713" lon="6.57655">
        <ele>95</ele>
        <time>2013-09-16T14:10:59.000Z</time>
      </trkpt>
      <trkpt lat="43.19715" lon="6.57657">
        <ele>95</ele>
        <time>2013-09-16T14:11:00.000Z</time>
      </trkpt>
      <trkpt lat="43.19717" lon="6.57659">
        <ele>95</ele>
        <time>2013-09-16T14:11:01.000Z</time>
      </trkpt>
      <trkpt lat="43.19719" lon="6.5766">
        <ele>95</ele>
        <time>2013-09-16T14:11:02.000Z</time>
      </trkpt>
      <trkpt lat="43.19721" lon="6.57661">
        <ele>96</ele>
        <time>2013-09-16T14:11:03.000Z</time>
      </trkpt>
      <trkpt lat="43.19724" lon="6.57662">
        <ele>96</ele>
        <time>2013-09-16T14:11:04.000Z</time>
      </trkpt>
      <trkpt lat="43.19726" lon="6.57663">
        <ele>96</ele>
        <time>2013-09-16T14:11:05.000Z</time>
      </trkpt>
      <trkpt lat="43.19729" lon="6.57663">
        <ele>96</ele>
        <time>2013-09-16T14:11:06.000Z</time>
      </trkpt>
      <trkpt lat="43.19731" lon="6.57663">
        <ele>96</ele>
        <time>2013-09-16T14:11:07.000Z</time>
      </trkpt>
      <trkpt lat="43.19734" lon="6.57664">
        <ele>97</ele>
        <time>2013-09-16T14:11:08.000Z</time>
      </trkpt>
      <trkpt lat="43.19739" lon="6.57664">
        <ele>97</ele>
        <time>2013-09-16T14:11:10.000Z</time>
      </trkpt>
      <trkpt lat="43.19742" lon="6.57664">
        <ele>98</ele>
        <time>2013-09-16T14:11:11.000Z</time>
      </trkpt>
      <trkpt lat="43.19745" lon="6.57663">
        <ele>98</ele>
        <time>2013-09-16T14:11:12.000Z</time>
      </trkpt>
      <trkpt lat="43.19747" lon="6.57662">
        <ele>99</ele>
        <time>2013-09-16T14:11:13.000Z</time>
      </trkpt>
      <trkpt lat="43.1975" lon="6.57662">
        <ele>99</ele>
        <time>2013-09-16T14:11:14.000Z</time>
      </trkpt>
      <trkpt lat="43.19753" lon="6.57661">
        <ele>99</ele>
        <time>2013-09-16T14:11:15.000Z</time>
      </trkpt>
      <trkpt lat="43.19756" lon="6.5766">
        <ele>99</ele>
        <time>2013-09-16T14:11:16.000Z</time>
      </trkpt>
      <trkpt lat="43.19759" lon="6.57659">
        <ele>98</ele>
        <time>2013-09-16T14:11:17.000Z</time>
      </trkpt>
      <trkpt lat="43.19762" lon="6.57658">
        <ele>98</ele>
        <time>2013-09-16T14:11:18.000Z</time>
      </trkpt>
      <trkpt lat="43.19765" lon="6.57657">
        <ele>98</ele>
        <time>2013-09-16T14:11:19.000Z</time>
      </trkpt>
      <trkpt lat="43.19768" lon="6.57656">
        <ele>98</ele>
        <time>2013-09-16T14:11:20.000Z</time>
      </trkpt>
      <trkpt lat="43.19771" lon="6.57655">
        <ele>98</ele>
        <time>2013-09-16T14:11:21.000Z</time>
      </trkpt>
      <trkpt lat="43.19774" lon="6.57654">
        <ele>97</ele>
        <time>2013-09-16T14:11:22.000Z</time>
      </trkpt>
      <trkpt lat="43.19776" lon="6.57654">
        <ele>97</ele>
        <time>2013-09-16T14:11:23.000Z</time>
      </trkpt>
      <trkpt lat="43.19779" lon="6.57653">
        <ele>97</ele>
        <time>2013-09-16T14:11:24.000Z</time>
      </trkpt>
      <trkpt lat="43.19782" lon="6.57652">
        <ele>97</ele>
        <time>2013-09-16T14:11:25.000Z</time>
      </trkpt>
      <trkpt lat="43.19785" lon="6.57651">
        <ele>97</ele>
        <time>2013-09-16T14:11:26.000Z</time>
      </trkpt>
      <trkpt lat="43.19788" lon="6.57651">
        <ele>97</ele>
        <time>2013-09-16T14:11:27.000Z</time>
      </trkpt>
      <trkpt lat="43.19791" lon="6.5765">
        <ele>97</ele>
        <time>2013-09-16T14:11:28.000Z</time>
      </trkpt>
      <trkpt lat="43.19794" lon="6.5765">
        <ele>97</ele>
        <time>2013-09-16T14:11:29.000Z</time>
      </trkpt>
      <trkpt lat="43.19797" lon="6.57649">
        <ele>97</ele>
        <time>2013-09-16T14:11:30.000Z</time>
      </trkpt>
      <trkpt lat="43.198" lon="6.57649">
        <ele>98</ele>
        <time>2013-09-16T14:11:31.000Z</time>
      </trkpt>
      <trkpt lat="43.19803" lon="6.57649">
        <ele>98</ele>
        <time>2013-09-16T14:11:32.000Z</time>
      </trkpt>
      <trkpt lat="43.19807" lon="6.5765">
        <ele>98</ele>
        <time>2013-09-16T14:11:33.000Z</time>
      </trkpt>
      <trkpt lat="43.1981" lon="6.57651">
        <ele>98</ele>
        <time>2013-09-16T14:11:34.000Z</time>
      </trkpt>
      <trkpt lat="43.19813" lon="6.57654">
        <ele>99</ele>
        <time>2013-09-16T14:11:35.000Z</time>
      </trkpt>
      <trkpt lat="43.19816" lon="6.57657">
        <ele>99</ele>
        <time>2013-09-16T14:11:36.000Z</time>
      </trkpt>
      <trkpt lat="43.19818" lon="6.5766">
        <ele>100</ele>
        <time>2013-09-16T14:11:37.000Z</time>
      </trkpt>
      <trkpt lat="43.19821" lon="6.57663">
        <ele>100</ele>
        <time>2013-09-16T14:11:38.000Z</time>
      </trkpt>
      <trkpt lat="43.19823" lon="6.57666">
        <ele>101</ele>
        <time>2013-09-16T14:11:39.000Z</time>
      </trkpt>
      <trkpt lat="43.19825" lon="6.57669">
        <ele>104</ele>
        <time>2013-09-16T14:11:40.000Z</time>
      </trkpt>
      <trkpt lat="43.19827" lon="6.57672">
        <ele>104</ele>
        <time>2013-09-16T14:11:41.000Z</time>
      </trkpt>
      <trkpt lat="43.19829" lon="6.57675">
        <ele>104</ele>
        <time>2013-09-16T14:11:42.000Z</time>
      </trkpt>
      <trkpt lat="43.19832" lon="6.57678">
        <ele>104</ele>
        <time>2013-09-16T14:11:43.000Z</time>
      </trkpt>
      <trkpt lat="43.19835" lon="6.5768">
        <ele>108</ele>
        <time>2013-09-16T14:11:44.000Z</time>
      </trkpt>
      <trkpt lat="43.19838" lon="6.57682">
        <ele>108</ele>
        <time>2013-09-16T14:11:45.000Z</time>
      </trkpt>
      <trkpt lat="43.19842" lon="6.57682">
        <ele>109</ele>
        <time>2013-09-16T14:11:46.000Z</time>
      </trkpt>
      <trkpt lat="43.19846" lon="6.57682">
        <ele>109</ele>
        <time>2013-09-16T14:11:47.000Z</time>
      </trkpt>
      <trkpt lat="43.1985" lon="6.57681">
        <ele>110</ele>
        <time>2013-09-16T14:11:48.000Z</time>
      </trkpt>
      <trkpt lat="43.19854" lon="6.57679">
        <ele>110</ele>
        <time>2013-09-16T14:11:49.000Z</time>
      </trkpt>
      <trkpt lat="43.19858" lon="6.57676">
        <ele>110</ele>
        <time>2013-09-16T14:11:50.000Z</time>
      </trkpt>
      <trkpt lat="43.19861" lon="6.57672">
        <ele>111</ele>
        <time>2013-09-16T14:11:51.000Z</time>
      </trkpt>
      <trkpt lat="43.19864" lon="6.57669">
        <ele>111</ele>
        <time>2013-09-16T14:11:52.000Z</time>
      </trkpt>
      <trkpt lat="43.19866" lon="6.57665">
        <ele>104</ele>
        <time>2013-09-16T14:11:53.000Z</time>
      </trkpt>
      <trkpt lat="43.19869" lon="6.57661">
        <ele>104</ele>
        <time>2013-09-16T14:11:54.000Z</time>
      </trkpt>
      <trkpt lat="43.19871" lon="6.57658">
        <ele>104</ele>
        <time>2013-09-16T14:11:55.000Z</time>
      </trkpt>
      <trkpt lat="43.19874" lon="6.57655">
        <ele>104</ele>
        <time>2013-09-16T14:11:56.000Z</time>
      </trkpt>
      <trkpt lat="43.19877" lon="6.57651">
        <ele>104</ele>
        <time>2013-09-16T14:11:57.000Z</time>
      </trkpt>
      <trkpt lat="43.1988" lon="6.57647">
        <ele>104</ele>
        <time>2013-09-16T14:11:58.000Z</time>
      </trkpt>
      <trkpt lat="43.19883" lon="6.57643">
        <ele>104</ele>
        <time>2013-09-16T14:11:59.000Z</time>
      </trkpt>
      <trkpt lat="43.19886" lon="6.57639">
        <ele>104</ele>
        <time>2013-09-16T14:12:00.000Z</time>
      </trkpt>
      <trkpt lat="43.19889" lon="6.57635">
        <ele>104</ele>
        <time>2013-09-16T14:12:01.000Z</time>
      </trkpt>
      <trkpt lat="43.19892" lon="6.57631">
        <ele>103</ele>
        <time>2013-09-16T14:12:02.000Z</time>
      </trkpt>
      <trkpt lat="43.19895" lon="6.57628">
        <ele>103</ele>
        <time>2013-09-16T14:12:03.000Z</time>
      </trkpt>
      <trkpt lat="43.19898" lon="6.57624">
        <ele>103</ele>
        <time>2013-09-16T14:12:04.000Z</time>
      </trkpt>
      <trkpt lat="43.19901" lon="6.57621">
        <ele>103</ele>
        <time>2013-09-16T14:12:05.000Z</time>
      </trkpt>
      <trkpt lat="43.19904" lon="6.57617">
        <ele>103</ele>
        <time>2013-09-16T14:12:06.000Z</time>
      </trkpt>
      <trkpt lat="43.19907" lon="6.57614">
        <ele>102</ele>
        <time>2013-09-16T14:12:07.000Z</time>
      </trkpt>
      <trkpt lat="43.19911" lon="6.57611">
        <ele>102</ele>
        <time>2013-09-16T14:12:08.000Z</time>
      </trkpt>
      <trkpt lat="43.19914" lon="6.57608">
        <ele>102</ele>
        <time>2013-09-16T14:12:09.000Z</time>
      </trkpt>
      <trkpt lat="43.19918" lon="6.57606">
        <ele>105</ele>
        <time>2013-09-16T14:12:10.000Z</time>
      </trkpt>
      <trkpt lat="43.19921" lon="6.57604">
        <ele>105</ele>
        <time>2013-09-16T14:12:11.000Z</time>
      </trkpt>
      <trkpt lat="43.19925" lon="6.57601">
        <ele>105</ele>
        <time>2013-09-16T14:12:12.000Z</time>
      </trkpt>
      <trkpt lat="43.19929" lon="6.57599">
        <ele>105</ele>
        <time>2013-09-16T14:12:13.000Z</time>
      </trkpt>
      <trkpt lat="43.19933" lon="6.57597">
        <ele>105</ele>
        <time>2013-09-16T14:12:14.000Z</time>
      </trkpt>
      <trkpt lat="43.19937" lon="6.57596">
        <ele>105</ele>
        <time>2013-09-16T14:12:15.000Z</time>
      </trkpt>
      <trkpt lat="43.19941" lon="6.57594">
        <ele>105</ele>
        <time>2013-09-16T14:12:16.000Z</time>
      </trkpt>
      <trkpt lat="43.19945" lon="6.57593">
        <ele>106</ele>
        <time>2013-09-16T14:12:17.000Z</time>
      </trkpt>
      <trkpt lat="43.19948" lon="6.57592">
        <ele>106</ele>
        <time>2013-09-16T14:12:18.000Z</time>
      </trkpt>
      <trkpt lat="43.19952" lon="6.5759">
        <ele>106</ele>
        <time>2013-09-16T14:12:19.000Z</time>
      </trkpt>
      <trkpt lat="43.19957" lon="6.57589">
        <ele>106</ele>
        <time>2013-09-16T14:12:20.000Z</time>
      </trkpt>
      <trkpt lat="43.19961" lon="6.57588">
        <ele>107</ele>
        <time>2013-09-16T14:12:21.000Z</time>
      </trkpt>
      <trkpt lat="43.19965" lon="6.57587">
        <ele>107</ele>
        <time>2013-09-16T14:12:22.000Z</time>
      </trkpt>
      <trkpt lat="43.19969" lon="6.57586">
        <ele>107</ele>
        <time>2013-09-16T14:12:23.000Z</time>
      </trkpt>
      <trkpt lat="43.19973" lon="6.57584">
        <ele>106</ele>
        <time>2013-09-16T14:12:24.000Z</time>
      </trkpt>
      <trkpt lat="43.19977" lon="6.57583">
        <ele>98</ele>
        <time>2013-09-16T14:12:25.000Z</time>
      </trkpt>
      <trkpt lat="43.1998" lon="6.57582">
        <ele>99</ele>
        <time>2013-09-16T14:12:26.000Z</time>
      </trkpt>
      <trkpt lat="43.19984" lon="6.57581">
        <ele>99</ele>
        <time>2013-09-16T14:12:27.000Z</time>
      </trkpt>
      <trkpt lat="43.19988" lon="6.5758">
        <ele>100</ele>
        <time>2013-09-16T14:12:28.000Z</time>
      </trkpt>
      <trkpt lat="43.19992" lon="6.5758">
        <ele>101</ele>
        <time>2013-09-16T14:12:29.000Z</time>
      </trkpt>
      <trkpt lat="43.19996" lon="6.57579">
        <ele>101</ele>
        <time>2013-09-16T14:12:30.000Z</time>
      </trkpt>
      <trkpt lat="43.20001" lon="6.57579">
        <ele>102</ele>
        <time>2013-09-16T14:12:31.000Z</time>
      </trkpt>
      <trkpt lat="43.20009" lon="6.5758">
        <ele>101</ele>
        <time>2013-09-16T14:12:33.000Z</time>
      </trkpt>
      <trkpt lat="43.20013" lon="6.57581">
        <ele>101</ele>
        <time>2013-09-16T14:12:34.000Z</time>
      </trkpt>
      <trkpt lat="43.20017" lon="6.57583">
        <ele>101</ele>
        <time>2013-09-16T14:12:35.000Z</time>
      </trkpt>
      <trkpt lat="43.20022" lon="6.57584">
        <ele>108</ele>
        <time>2013-09-16T14:12:36.000Z</time>
      </trkpt>
      <trkpt lat="43.20026" lon="6.57585">
        <ele>109</ele>
        <time>2013-09-16T14:12:37.000Z</time>
      </trkpt>
      <trkpt lat="43.2003" lon="6.57585">
        <ele>109</ele>
        <time>2013-09-16T14:12:38.000Z</time>
      </trkpt>
      <trkpt lat="43.20035" lon="6.57585">
        <ele>110</ele>
        <time>2013-09-16T14:12:39.000Z</time>
      </trkpt>
      <trkpt lat="43.20039" lon="6.57583">
        <ele>100</ele>
        <time>2013-09-16T14:12:40.000Z</time>
      </trkpt>
      <trkpt lat="43.20043" lon="6.5758">
        <ele>100</ele>
        <time>2013-09-16T14:12:41.000Z</time>
      </trkpt>
      <trkpt lat="43.20047" lon="6.57577">
        <ele>100</ele>
        <time>2013-09-16T14:12:42.000Z</time>
      </trkpt>
      <trkpt lat="43.20051" lon="6.57574">
        <ele>100</ele>
        <time>2013-09-16T14:12:43.000Z</time>
      </trkpt>
      <trkpt lat="43.20054" lon="6.57571">
        <ele>100</ele>
        <time>2013-09-16T14:12:44.000Z</time>
      </trkpt>
      <trkpt lat="43.20057" lon="6.57567">
        <ele>100</ele>
        <time>2013-09-16T14:12:45.000Z</time>
      </trkpt>
      <trkpt lat="43.2006" lon="6.57563">
        <ele>100</ele>
        <time>2013-09-16T14:12:46.000Z</time>
      </trkpt>
      <trkpt lat="43.20063" lon="6.5756">
        <ele>100</ele>
        <time>2013-09-16T14:12:47.000Z</time>
      </trkpt>
      <trkpt lat="43.20066" lon="6.57557">
        <ele>100</ele>
        <time>2013-09-16T14:12:48.000Z</time>
      </trkpt>
      <trkpt lat="43.20069" lon="6.57554">
        <ele>100</ele>
        <time>2013-09-16T14:12:49.000Z</time>
      </trkpt>
      <trkpt lat="43.20073" lon="6.57552">
        <ele>99</ele>
        <time>2013-09-16T14:12:50.000Z</time>
      </trkpt>
      <trkpt lat="43.20076" lon="6.57549">
        <ele>99</ele>
        <time>2013-09-16T14:12:51.000Z</time>
      </trkpt>
      <trkpt lat="43.20079" lon="6.57547">
        <ele>99</ele>
        <time>2013-09-16T14:12:52.000Z</time>
      </trkpt>
      <trkpt lat="43.20082" lon="6.57546">
        <ele>99</ele>
        <time>2013-09-16T14:12:53.000Z</time>
      </trkpt>
      <trkpt lat="43.20085" lon="6.57545">
        <ele>99</ele>
        <time>2013-09-16T14:12:54.000Z</time>
      </trkpt>
      <trkpt lat="43.20088" lon="6.57545">
        <ele>99</ele>
        <time>2013-09-16T14:12:55.000Z</time>
      </trkpt>
      <trkpt lat="43.20092" lon="6.57545">
        <ele>99</ele>
        <time>2013-09-16T14:12:56.000Z</time>
      </trkpt>
      <trkpt lat="43.20095" lon="6.57546">
        <ele>99</ele>
        <time>2013-09-16T14:12:57.000Z</time>
      </trkpt>
      <trkpt lat="43.20098" lon="6.57548">
        <ele>99</ele>
        <time>2013-09-16T14:12:58.000Z</time>
      </trkpt>
      <trkpt lat="43.20101" lon="6.57549">
        <ele>100</ele>
        <time>2013-09-16T14:12:59.000Z</time>
      </trkpt>
      <trkpt lat="43.20104" lon="6.57552">
        <ele>100</ele>
        <time>2013-09-16T14:13:00.000Z</time>
      </trkpt>
      <trkpt lat="43.20106" lon="6.57556">
        <ele>100</ele>
        <time>2013-09-16T14:13:01.000Z</time>
      </trkpt>
      <trkpt lat="43.20109" lon="6.5756">
        <ele>101</ele>
        <time>2013-09-16T14:13:02.000Z</time>
      </trkpt>
      <trkpt lat="43.2011" lon="6.57563">
        <ele>101</ele>
        <time>2013-09-16T14:13:03.000Z</time>
      </trkpt>
      <trkpt lat="43.20112" lon="6.57567">
        <ele>101</ele>
        <time>2013-09-16T14:13:04.000Z</time>
      </trkpt>
      <trkpt lat="43.20112" lon="6.5757">
        <ele>101</ele>
        <time>2013-09-16T14:13:05.000Z</time>
      </trkpt>
      <trkpt lat="43.20113" lon="6.57573">
        <ele>102</ele>
        <time>2013-09-16T14:13:06.000Z</time>
      </trkpt>
      <trkpt lat="43.20114" lon="6.57576">
        <ele>102</ele>
        <time>2013-09-16T14:13:07.000Z</time>
      </trkpt>
      <trkpt lat="43.20115" lon="6.57578">
        <ele>102</ele>
        <time>2013-09-16T14:13:08.000Z</time>
      </trkpt>
      <trkpt lat="43.20115" lon="6.57581">
        <ele>102</ele>
        <time>2013-09-16T14:13:09.000Z</time>
      </trkpt>
      <trkpt lat="43.20116" lon="6.57584">
        <ele>112</ele>
        <time>2013-09-16T14:13:10.000Z</time>
      </trkpt>
      <trkpt lat="43.20118" lon="6.57587">
        <ele>112</ele>
        <time>2013-09-16T14:13:11.000Z</time>
      </trkpt>
      <trkpt lat="43.20119" lon="6.5759">
        <ele>112</ele>
        <time>2013-09-16T14:13:12.000Z</time>
      </trkpt>
      <trkpt lat="43.20121" lon="6.57593">
        <ele>112</ele>
        <time>2013-09-16T14:13:13.000Z</time>
      </trkpt>
      <trkpt lat="43.20123" lon="6.57596">
        <ele>113</ele>
        <time>2013-09-16T14:13:14.000Z</time>
      </trkpt>
      <trkpt lat="43.20125" lon="6.57599">
        <ele>113</ele>
        <time>2013-09-16T14:13:15.000Z</time>
      </trkpt>
      <trkpt lat="43.20127" lon="6.57601">
        <ele>113</ele>
        <time>2013-09-16T14:13:16.000Z</time>
      </trkpt>
      <trkpt lat="43.20129" lon="6.57603">
        <ele>113</ele>
        <time>2013-09-16T14:13:17.000Z</time>
      </trkpt>
      <trkpt lat="43.20132" lon="6.57605">
        <ele>113</ele>
        <time>2013-09-16T14:13:18.000Z</time>
      </trkpt>
      <trkpt lat="43.20134" lon="6.57606">
        <ele>113</ele>
        <time>2013-09-16T14:13:19.000Z</time>
      </trkpt>
      <trkpt lat="43.20137" lon="6.57608">
        <ele>114</ele>
        <time>2013-09-16T14:13:20.000Z</time>
      </trkpt>
      <trkpt lat="43.2014" lon="6.57608">
        <ele>114</ele>
        <time>2013-09-16T14:13:21.000Z</time>
      </trkpt>
      <trkpt lat="43.20143" lon="6.57609">
        <ele>114</ele>
        <time>2013-09-16T14:13:22.000Z</time>
      </trkpt>
      <trkpt lat="43.20146" lon="6.57609">
        <ele>114</ele>
        <time>2013-09-16T14:13:23.000Z</time>
      </trkpt>
      <trkpt lat="43.20149" lon="6.5761">
        <ele>114</ele>
        <time>2013-09-16T14:13:24.000Z</time>
      </trkpt>
      <trkpt lat="43.20152" lon="6.57609">
        <ele>113</ele>
        <time>2013-09-16T14:13:25.000Z</time>
      </trkpt>
      <trkpt lat="43.20155" lon="6.57609">
        <ele>113</ele>
        <time>2013-09-16T14:13:26.000Z</time>
      </trkpt>
      <trkpt lat="43.20159" lon="6.57608">
        <ele>113</ele>
        <time>2013-09-16T14:13:27.000Z</time>
      </trkpt>
      <trkpt lat="43.20162" lon="6.57607">
        <ele>113</ele>
        <time>2013-09-16T14:13:28.000Z</time>
      </trkpt>
      <trkpt lat="43.20165" lon="6.57606">
        <ele>113</ele>
        <time>2013-09-16T14:13:29.000Z</time>
      </trkpt>
      <trkpt lat="43.20168" lon="6.57605">
        <ele>113</ele>
        <time>2013-09-16T14:13:30.000Z</time>
      </trkpt>
      <trkpt lat="43.20171" lon="6.57604">
        <ele>113</ele>
        <time>2013-09-16T14:13:31.000Z</time>
      </trkpt>
      <trkpt lat="43.20174" lon="6.57602">
        <ele>113</ele>
        <time>2013-09-16T14:13:32.000Z</time>
      </trkpt>
      <trkpt lat="43.20177" lon="6.57601">
        <ele>113</ele>
        <time>2013-09-16T14:13:33.000Z</time>
      </trkpt>
      <trkpt lat="43.2018" lon="6.576">
        <ele>113</ele>
        <time>2013-09-16T14:13:34.000Z</time>
      </trkpt>
      <trkpt lat="43.20183" lon="6.57598">
        <ele>113</ele>
        <time>2013-09-16T14:13:35.000Z</time>
      </trkpt>
      <trkpt lat="43.20186" lon="6.57597">
        <ele>113</ele>
        <time>2013-09-16T14:13:36.000Z</time>
      </trkpt>
      <trkpt lat="43.20189" lon="6.57596">
        <ele>113</ele>
        <time>2013-09-16T14:13:37.000Z</time>
      </trkpt>
      <trkpt lat="43.20192" lon="6.57595">
        <ele>114</ele>
        <time>2013-09-16T14:13:38.000Z</time>
      </trkpt>
      <trkpt lat="43.20195" lon="6.57594">
        <ele>114</ele>
        <time>2013-09-16T14:13:39.000Z</time>
      </trkpt>
      <trkpt lat="43.20198" lon="6.57593">
        <ele>114</ele>
        <time>2013-09-16T14:13:40.000Z</time>
      </trkpt>
      <trkpt lat="43.20202" lon="6.57593">
        <ele>114</ele>
        <time>2013-09-16T14:13:41.000Z</time>
      </trkpt>
      <trkpt lat="43.20208" lon="6.57594">
        <ele>114</ele>
        <time>2013-09-16T14:13:43.000Z</time>
      </trkpt>
      <trkpt lat="43.20211" lon="6.57595">
        <ele>115</ele>
        <time>2013-09-16T14:13:44.000Z</time>
      </trkpt>
      <trkpt lat="43.20214" lon="6.57596">
        <ele>115</ele>
        <time>2013-09-16T14:13:45.000Z</time>
      </trkpt>
      <trkpt lat="43.20217" lon="6.57598">
        <ele>115</ele>
        <time>2013-09-16T14:13:46.000Z</time>
      </trkpt>
      <trkpt lat="43.2022" lon="6.576">
        <ele>115</ele>
        <time>2013-09-16T14:13:47.000Z</time>
      </trkpt>
      <trkpt lat="43.20223" lon="6.57602">
        <ele>115</ele>
        <time>2013-09-16T14:13:48.000Z</time>
      </trkpt>
      <trkpt lat="43.20226" lon="6.57604">
        <ele>115</ele>
        <time>2013-09-16T14:13:49.000Z</time>
      </trkpt>
      <trkpt lat="43.20229" lon="6.57605">
        <ele>115</ele>
        <time>2013-09-16T14:13:50.000Z</time>
      </trkpt>
      <trkpt lat="43.20231" lon="6.57607">
        <ele>115</ele>
        <time>2013-09-16T14:13:51.000Z</time>
      </trkpt>
      <trkpt lat="43.20234" lon="6.57608">
        <ele>115</ele>
        <time>2013-09-16T14:13:52.000Z</time>
      </trkpt>
      <trkpt lat="43.20237" lon="6.57609">
        <ele>115</ele>
        <time>2013-09-16T14:13:53.000Z</time>
      </trkpt>
      <trkpt lat="43.2024" lon="6.5761">
        <ele>115</ele>
        <time>2013-09-16T14:13:54.000Z</time>
      </trkpt>
      <trkpt lat="43.20243" lon="6.57609">
        <ele>115</ele>
        <time>2013-09-16T14:13:55.000Z</time>
      </trkpt>
      <trkpt lat="43.20246" lon="6.57609">
        <ele>115</ele>
        <time>2013-09-16T14:13:56.000Z</time>
      </trkpt>
      <trkpt lat="43.20249" lon="6.57607">
        <ele>115</ele>
        <time>2013-09-16T14:13:57.000Z</time>
      </trkpt>
      <trkpt lat="43.20252" lon="6.57605">
        <ele>116</ele>
        <time>2013-09-16T14:13:58.000Z</time>
      </trkpt>
      <trkpt lat="43.20255" lon="6.57602">
        <ele>116</ele>
        <time>2013-09-16T14:13:59.000Z</time>
      </trkpt>
      <trkpt lat="43.20257" lon="6.57599">
        <ele>116</ele>
        <time>2013-09-16T14:14:00.000Z</time>
      </trkpt>
      <trkpt lat="43.20259" lon="6.57596">
        <ele>115</ele>
        <time>2013-09-16T14:14:01.000Z</time>
      </trkpt>
      <trkpt lat="43.20261" lon="6.57592">
        <ele>115</ele>
        <time>2013-09-16T14:14:02.000Z</time>
      </trkpt>
      <trkpt lat="43.20263" lon="6.57588">
        <ele>115</ele>
        <time>2013-09-16T14:14:03.000Z</time>
      </trkpt>
      <trkpt lat="43.20265" lon="6.57585">
        <ele>115</ele>
        <time>2013-09-16T14:14:04.000Z</time>
      </trkpt>
      <trkpt lat="43.20267" lon="6.57581">
        <ele>110</ele>
        <time>2013-09-16T14:14:05.000Z</time>
      </trkpt>
      <trkpt lat="43.20269" lon="6.57578">
        <ele>110</ele>
        <time>2013-09-16T14:14:06.000Z</time>
      </trkpt>
      <trkpt lat="43.20272" lon="6.57575">
        <ele>110</ele>
        <time>2013-09-16T14:14:07.000Z</time>
      </trkpt>
      <trkpt lat="43.20275" lon="6.57574">
        <ele>110</ele>
        <time>2013-09-16T14:14:08.000Z</time>
      </trkpt>
      <trkpt lat="43.20278" lon="6.57573">
        <ele>110</ele>
        <time>2013-09-16T14:14:09.000Z</time>
      </trkpt>
      <trkpt lat="43.20281" lon="6.57572">
        <ele>110</ele>
        <time>2013-09-16T14:14:10.000Z</time>
      </trkpt>
      <trkpt lat="43.20284" lon="6.57572">
        <ele>111</ele>
        <time>2013-09-16T14:14:11.000Z</time>
      </trkpt>
      <trkpt lat="43.20287" lon="6.57573">
        <ele>111</ele>
        <time>2013-09-16T14:14:12.000Z</time>
      </trkpt>
      <trkpt lat="43.2029" lon="6.57575">
        <ele>111</ele>
        <time>2013-09-16T14:14:13.000Z</time>
      </trkpt>
      <trkpt lat="43.20293" lon="6.57576">
        <ele>111</ele>
        <time>2013-09-16T14:14:14.000Z</time>
      </trkpt>
      <trkpt lat="43.20296" lon="6.57577">
        <ele>111</ele>
        <time>2013-09-16T14:14:15.000Z</time>
      </trkpt>
      <trkpt lat="43.20299" lon="6.57578">
        <ele>111</ele>
        <time>2013-09-16T14:14:16.000Z</time>
      </trkpt>
      <trkpt lat="43.20302" lon="6.5758">
        <ele>111</ele>
        <time>2013-09-16T14:14:17.000Z</time>
      </trkpt>
      <trkpt lat="43.20305" lon="6.57581">
        <ele>112</ele>
        <time>2013-09-16T14:14:18.000Z</time>
      </trkpt>
      <trkpt lat="43.20308" lon="6.57582">
        <ele>112</ele>
        <time>2013-09-16T14:14:19.000Z</time>
      </trkpt>
      <trkpt lat="43.20311" lon="6.57583">
        <ele>112</ele>
        <time>2013-09-16T14:14:20.000Z</time>
      </trkpt>
      <trkpt lat="43.20314" lon="6.57585">
        <ele>118</ele>
        <time>2013-09-16T14:14:21.000Z</time>
      </trkpt>
      <trkpt lat="43.20317" lon="6.57585">
        <ele>117</ele>
        <time>2013-09-16T14:14:22.000Z</time>
      </trkpt>
      <trkpt lat="43.20321" lon="6.57586">
        <ele>117</ele>
        <time>2013-09-16T14:14:23.000Z</time>
      </trkpt>
      <trkpt lat="43.20324" lon="6.57587">
        <ele>117</ele>
        <time>2013-09-16T14:14:24.000Z</time>
      </trkpt>
      <trkpt lat="43.20327" lon="6.57586">
        <ele>116</ele>
        <time>2013-09-16T14:14:25.000Z</time>
      </trkpt>
      <trkpt lat="43.2033" lon="6.57585">
        <ele>116</ele>
        <time>2013-09-16T14:14:26.000Z</time>
      </trkpt>
      <trkpt lat="43.20332" lon="6.57584">
        <ele>115</ele>
        <time>2013-09-16T14:14:27.000Z</time>
      </trkpt>
      <trkpt lat="43.20335" lon="6.57582">
        <ele>116</ele>
        <time>2013-09-16T14:14:28.000Z</time>
      </trkpt>
      <trkpt lat="43.20338" lon="6.5758">
        <ele>116</ele>
        <time>2013-09-16T14:14:29.000Z</time>
      </trkpt>
      <trkpt lat="43.20341" lon="6.57577">
        <ele>117</ele>
        <time>2013-09-16T14:14:30.000Z</time>
      </trkpt>
      <trkpt lat="43.20343" lon="6.57574">
        <ele>117</ele>
        <time>2013-09-16T14:14:31.000Z</time>
      </trkpt>
      <trkpt lat="43.20345" lon="6.5757">
        <ele>118</ele>
        <time>2013-09-16T14:14:32.000Z</time>
      </trkpt>
      <trkpt lat="43.20347" lon="6.57566">
        <ele>118</ele>
        <time>2013-09-16T14:14:33.000Z</time>
      </trkpt>
      <trkpt lat="43.20349" lon="6.57562">
        <ele>118</ele>
        <time>2013-09-16T14:14:34.000Z</time>
      </trkpt>
      <trkpt lat="43.2035" lon="6.57558">
        <ele>119</ele>
        <time>2013-09-16T14:14:35.000Z</time>
      </trkpt>
      <trkpt lat="43.2035" lon="6.57553">
        <ele>119</ele>
        <time>2013-09-16T14:14:36.000Z</time>
      </trkpt>
      <trkpt lat="43.20349" lon="6.57549">
        <ele>119</ele>
        <time>2013-09-16T14:14:37.000Z</time>
      </trkpt>
      <trkpt lat="43.20349" lon="6.57544">
        <ele>119</ele>
        <time>2013-09-16T14:14:38.000Z</time>
      </trkpt>
      <trkpt lat="43.20347" lon="6.5754">
        <ele>118</ele>
        <time>2013-09-16T14:14:39.000Z</time>
      </trkpt>
      <trkpt lat="43.20346" lon="6.57535">
        <ele>118</ele>
        <time>2013-09-16T14:14:40.000Z</time>
      </trkpt>
      <trkpt lat="43.20344" lon="6.57531">
        <ele>118</ele>
        <time>2013-09-16T14:14:41.000Z</time>
      </trkpt>
      <trkpt lat="43.20342" lon="6.57527">
        <ele>117</ele>
        <time>2013-09-16T14:14:42.000Z</time>
      </trkpt>
      <trkpt lat="43.2034" lon="6.57523">
        <ele>117</ele>
        <time>2013-09-16T14:14:43.000Z</time>
      </trkpt>
      <trkpt lat="43.20338" lon="6.57518">
        <ele>116</ele>
        <time>2013-09-16T14:14:44.000Z</time>
      </trkpt>
      <trkpt lat="43.20335" lon="6.57514">
        <ele>116</ele>
        <time>2013-09-16T14:14:45.000Z</time>
      </trkpt>
      <trkpt lat="43.20333" lon="6.5751">
        <ele>111</ele>
        <time>2013-09-16T14:14:46.000Z</time>
      </trkpt>
      <trkpt lat="43.20331" lon="6.57506">
        <ele>111</ele>
        <time>2013-09-16T14:14:47.000Z</time>
      </trkpt>
      <trkpt lat="43.20329" lon="6.57501">
        <ele>112</ele>
        <time>2013-09-16T14:14:48.000Z</time>
      </trkpt>
      <trkpt lat="43.20326" lon="6.57496">
        <ele>111</ele>
        <time>2013-09-16T14:14:49.000Z</time>
      </trkpt>
      <trkpt lat="43.20324" lon="6.57492">
        <ele>110</ele>
        <time>2013-09-16T14:14:50.000Z</time>
      </trkpt>
      <trkpt lat="43.20322" lon="6.57487">
        <ele>109</ele>
        <time>2013-09-16T14:14:51.000Z</time>
      </trkpt>
      <trkpt lat="43.20319" lon="6.57482">
        <ele>109</ele>
        <time>2013-09-16T14:14:52.000Z</time>
      </trkpt>
      <trkpt lat="43.20317" lon="6.57477">
        <ele>109</ele>
        <time>2013-09-16T14:14:53.000Z</time>
      </trkpt>
      <trkpt lat="43.20315" lon="6.57472">
        <ele>108</ele>
        <time>2013-09-16T14:14:54.000Z</time>
      </trkpt>
      <trkpt lat="43.20313" lon="6.57466">
        <ele>108</ele>
        <time>2013-09-16T14:14:55.000Z</time>
      </trkpt>
      <trkpt lat="43.20311" lon="6.57461">
        <ele>108</ele>
        <time>2013-09-16T14:14:56.000Z</time>
      </trkpt>
      <trkpt lat="43.20309" lon="6.57456">
        <ele>108</ele>
        <time>2013-09-16T14:14:57.000Z</time>
      </trkpt>
      <trkpt lat="43.20308" lon="6.5745">
        <ele>108</ele>
        <time>2013-09-16T14:14:58.000Z</time>
      </trkpt>
      <trkpt lat="43.20307" lon="6.57444">
        <ele>108</ele>
        <time>2013-09-16T14:14:59.000Z</time>
      </trkpt>
      <trkpt lat="43.20308" lon="6.57438">
        <ele>108</ele>
        <time>2013-09-16T14:15:00.000Z</time>
      </trkpt>
      <trkpt lat="43.20309" lon="6.57431">
        <ele>109</ele>
        <time>2013-09-16T14:15:01.000Z</time>
      </trkpt>
      <trkpt lat="43.20312" lon="6.57424">
        <ele>109</ele>
        <time>2013-09-16T14:15:02.000Z</time>
      </trkpt>
      <trkpt lat="43.20316" lon="6.57419">
        <ele>110</ele>
        <time>2013-09-16T14:15:03.000Z</time>
      </trkpt>
      <trkpt lat="43.20321" lon="6.57414">
        <ele>109</ele>
        <time>2013-09-16T14:15:04.000Z</time>
      </trkpt>
      <trkpt lat="43.20326" lon="6.5741">
        <ele>109</ele>
        <time>2013-09-16T14:15:05.000Z</time>
      </trkpt>
      <trkpt lat="43.20331" lon="6.57407">
        <ele>109</ele>
        <time>2013-09-16T14:15:06.000Z</time>
      </trkpt>
      <trkpt lat="43.20336" lon="6.57403">
        <ele>113</ele>
        <time>2013-09-16T14:15:07.000Z</time>
      </trkpt>
      <trkpt lat="43.20341" lon="6.57398">
        <ele>113</ele>
        <time>2013-09-16T14:15:08.000Z</time>
      </trkpt>
      <trkpt lat="43.20346" lon="6.57394">
        <ele>113</ele>
        <time>2013-09-16T14:15:09.000Z</time>
      </trkpt>
      <trkpt lat="43.20351" lon="6.57388">
        <ele>113</ele>
        <time>2013-09-16T14:15:10.000Z</time>
      </trkpt>
      <trkpt lat="43.20355" lon="6.57382">
        <ele>113</ele>
        <time>2013-09-16T14:15:11.000Z</time>
      </trkpt>
      <trkpt lat="43.20359" lon="6.57374">
        <ele>113</ele>
        <time>2013-09-16T14:15:12.000Z</time>
      </trkpt>
      <trkpt lat="43.20362" lon="6.57367">
        <ele>113</ele>
        <time>2013-09-16T14:15:13.000Z</time>
      </trkpt>
      <trkpt lat="43.20364" lon="6.57358">
        <ele>113</ele>
        <time>2013-09-16T14:15:14.000Z</time>
      </trkpt>
      <trkpt lat="43.20365" lon="6.57349">
        <ele>112</ele>
        <time>2013-09-16T14:15:15.000Z</time>
      </trkpt>
      <trkpt lat="43.20366" lon="6.5734">
        <ele>112</ele>
        <time>2013-09-16T14:15:16.000Z</time>
      </trkpt>
      <trkpt lat="43.20365" lon="6.57331">
        <ele>107</ele>
        <time>2013-09-16T14:15:17.000Z</time>
      </trkpt>
      <trkpt lat="43.20364" lon="6.57321">
        <ele>107</ele>
        <time>2013-09-16T14:15:18.000Z</time>
      </trkpt>
      <trkpt lat="43.20361" lon="6.57312">
        <ele>107</ele>
        <time>2013-09-16T14:15:19.000Z</time>
      </trkpt>
      <trkpt lat="43.20359" lon="6.57303">
        <ele>106</ele>
        <time>2013-09-16T14:15:20.000Z</time>
      </trkpt>
      <trkpt lat="43.20358" lon="6.57294">
        <ele>106</ele>
        <time>2013-09-16T14:15:21.000Z</time>
      </trkpt>
      <trkpt lat="43.20358" lon="6.57285">
        <ele>105</ele>
        <time>2013-09-16T14:15:22.000Z</time>
      </trkpt>
      <trkpt lat="43.20359" lon="6.57277">
        <ele>105</ele>
        <time>2013-09-16T14:15:23.000Z</time>
      </trkpt>
      <trkpt lat="43.20361" lon="6.57268">
        <ele>105</ele>
        <time>2013-09-16T14:15:24.000Z</time>
      </trkpt>
      <trkpt lat="43.20365" lon="6.57261">
        <ele>105</ele>
        <time>2013-09-16T14:15:25.000Z</time>
      </trkpt>
      <trkpt lat="43.20369" lon="6.57254">
        <ele>105</ele>
        <time>2013-09-16T14:15:26.000Z</time>
      </trkpt>
      <trkpt lat="43.20374" lon="6.57249">
        <ele>100</ele>
        <time>2013-09-16T14:15:27.000Z</time>
      </trkpt>
      <trkpt lat="43.2038" lon="6.57244">
        <ele>100</ele>
        <time>2013-09-16T14:15:28.000Z</time>
      </trkpt>
      <trkpt lat="43.20386" lon="6.57241">
        <ele>101</ele>
        <time>2013-09-16T14:15:29.000Z</time>
      </trkpt>
      <trkpt lat="43.20391" lon="6.57238">
        <ele>102</ele>
        <time>2013-09-16T14:15:30.000Z</time>
      </trkpt>
      <trkpt lat="43.20397" lon="6.57236">
        <ele>103</ele>
        <time>2013-09-16T14:15:31.000Z</time>
      </trkpt>
      <trkpt lat="43.20403" lon="6.57235">
        <ele>104</ele>
        <time>2013-09-16T14:15:32.000Z</time>
      </trkpt>
      <trkpt lat="43.20409" lon="6.57235">
        <ele>104</ele>
        <time>2013-09-16T14:15:33.000Z</time>
      </trkpt>
      <trkpt lat="43.20415" lon="6.57236">
        <ele>105</ele>
        <time>2013-09-16T14:15:34.000Z</time>
      </trkpt>
      <trkpt lat="43.2042" lon="6.57237">
        <ele>110</ele>
        <time>2013-09-16T14:15:35.000Z</time>
      </trkpt>
      <trkpt lat="43.20426" lon="6.57238">
        <ele>110</ele>
        <time>2013-09-16T14:15:36.000Z</time>
      </trkpt>
      <trkpt lat="43.20431" lon="6.57239">
        <ele>110</ele>
        <time>2013-09-16T14:15:37.000Z</time>
      </trkpt>
      <trkpt lat="43.20441" lon="6.57238">
        <ele>110</ele>
        <time>2013-09-16T14:15:39.000Z</time>
      </trkpt>
      <trkpt lat="43.20446" lon="6.57235">
        <ele>111</ele>
        <time>2013-09-16T14:15:40.000Z</time>
      </trkpt>
      <trkpt lat="43.20449" lon="6.5723">
        <ele>110</ele>
        <time>2013-09-16T14:15:41.000Z</time>
      </trkpt>
      <trkpt lat="43.20451" lon="6.57223">
        <ele>110</ele>
        <time>2013-09-16T14:15:42.000Z</time>
      </trkpt>
      <trkpt lat="43.20452" lon="6.57216">
        <ele>110</ele>
        <time>2013-09-16T14:15:43.000Z</time>
      </trkpt>
      <trkpt lat="43.20453" lon="6.57208">
        <ele>109</ele>
        <time>2013-09-16T14:15:44.000Z</time>
      </trkpt>
      <trkpt lat="43.20454" lon="6.57201">
        <ele>109</ele>
        <time>2013-09-16T14:15:45.000Z</time>
      </trkpt>
      <trkpt lat="43.20456" lon="6.57193">
        <ele>109</ele>
        <time>2013-09-16T14:15:46.000Z</time>
      </trkpt>
      <trkpt lat="43.20457" lon="6.57184">
        <ele>108</ele>
        <time>2013-09-16T14:15:47.000Z</time>
      </trkpt>
      <trkpt lat="43.2046" lon="6.57178">
        <ele>108</ele>
        <time>2013-09-16T14:15:48.000Z</time>
      </trkpt>
      <trkpt lat="43.20465" lon="6.57173">
        <ele>109</ele>
        <time>2013-09-16T14:15:49.000Z</time>
      </trkpt>
      <trkpt lat="43.20469" lon="6.5717">
        <ele>109</ele>
        <time>2013-09-16T14:15:50.000Z</time>
      </trkpt>
      <trkpt lat="43.20474" lon="6.57167">
        <ele>110</ele>
        <time>2013-09-16T14:15:51.000Z</time>
      </trkpt>
      <trkpt lat="43.20479" lon="6.57164">
        <ele>105</ele>
        <time>2013-09-16T14:15:52.000Z</time>
      </trkpt>
      <trkpt lat="43.20484" lon="6.57161">
        <ele>106</ele>
        <time>2013-09-16T14:15:53.000Z</time>
      </trkpt>
      <trkpt lat="43.20489" lon="6.57156">
        <ele>106</ele>
        <time>2013-09-16T14:15:54.000Z</time>
      </trkpt>
      <trkpt lat="43.20492" lon="6.57151">
        <ele>106</ele>
        <time>2013-09-16T14:15:55.000Z</time>
      </trkpt>
      <trkpt lat="43.20494" lon="6.57145">
        <ele>105</ele>
        <time>2013-09-16T14:15:56.000Z</time>
      </trkpt>
      <trkpt lat="43.20495" lon="6.57138">
        <ele>104</ele>
        <time>2013-09-16T14:15:57.000Z</time>
      </trkpt>
      <trkpt lat="43.20495" lon="6.57131">
        <ele>103</ele>
        <time>2013-09-16T14:15:58.000Z</time>
      </trkpt>
      <trkpt lat="43.20494" lon="6.57124">
        <ele>102</ele>
        <time>2013-09-16T14:15:59.000Z</time>
      </trkpt>
      <trkpt lat="43.20492" lon="6.57117">
        <ele>102</ele>
        <time>2013-09-16T14:16:00.000Z</time>
      </trkpt>
      <trkpt lat="43.20491" lon="6.5711">
        <ele>102</ele>
        <time>2013-09-16T14:16:01.000Z</time>
      </trkpt>
      <trkpt lat="43.2049" lon="6.57102">
        <ele>101</ele>
        <time>2013-09-16T14:16:02.000Z</time>
      </trkpt>
      <trkpt lat="43.2049" lon="6.57094">
        <ele>102</ele>
        <time>2013-09-16T14:16:03.000Z</time>
      </trkpt>
      <trkpt lat="43.2049" lon="6.57085">
        <ele>102</ele>
        <time>2013-09-16T14:16:04.000Z</time>
      </trkpt>
      <trkpt lat="43.20491" lon="6.57077">
        <ele>99</ele>
        <time>2013-09-16T14:16:05.000Z</time>
      </trkpt>
      <trkpt lat="43.20494" lon="6.57069">
        <ele>97</ele>
        <time>2013-09-16T14:16:06.000Z</time>
      </trkpt>
      <trkpt lat="43.20497" lon="6.57061">
        <ele>96</ele>
        <time>2013-09-16T14:16:07.000Z</time>
      </trkpt>
      <trkpt lat="43.20501" lon="6.57055">
        <ele>102</ele>
        <time>2013-09-16T14:16:08.000Z</time>
      </trkpt>
      <trkpt lat="43.20506" lon="6.5705">
        <ele>101</ele>
        <time>2013-09-16T14:16:09.000Z</time>
      </trkpt>
      <trkpt lat="43.20512" lon="6.57047">
        <ele>101</ele>
        <time>2013-09-16T14:16:10.000Z</time>
      </trkpt>
      <trkpt lat="43.20518" lon="6.57046">
        <ele>101</ele>
        <time>2013-09-16T14:16:11.000Z</time>
      </trkpt>
      <trkpt lat="43.20524" lon="6.57046">
        <ele>102</ele>
        <time>2013-09-16T14:16:12.000Z</time>
      </trkpt>
      <trkpt lat="43.20529" lon="6.57047">
        <ele>102</ele>
        <time>2013-09-16T14:16:13.000Z</time>
      </trkpt>
      <trkpt lat="43.20534" lon="6.57048">
        <ele>102</ele>
        <time>2013-09-16T14:16:14.000Z</time>
      </trkpt>
      <trkpt lat="43.2054" lon="6.57051">
        <ele>103</ele>
        <time>2013-09-16T14:16:15.000Z</time>
      </trkpt>
      <trkpt lat="43.20545" lon="6.57053">
        <ele>103</ele>
        <time>2013-09-16T14:16:16.000Z</time>
      </trkpt>
      <trkpt lat="43.2055" lon="6.57054">
        <ele>103</ele>
        <time>2013-09-16T14:16:17.000Z</time>
      </trkpt>
      <trkpt lat="43.20556" lon="6.57052">
        <ele>104</ele>
        <time>2013-09-16T14:16:18.000Z</time>
      </trkpt>
      <trkpt lat="43.20561" lon="6.5705">
        <ele>104</ele>
        <time>2013-09-16T14:16:19.000Z</time>
      </trkpt>
      <trkpt lat="43.20566" lon="6.57046">
        <ele>104</ele>
        <time>2013-09-16T14:16:20.000Z</time>
      </trkpt>
      <trkpt lat="43.2057" lon="6.57042">
        <ele>104</ele>
        <time>2013-09-16T14:16:21.000Z</time>
      </trkpt>
      <trkpt lat="43.20573" lon="6.57036">
        <ele>103</ele>
        <time>2013-09-16T14:16:22.000Z</time>
      </trkpt>
      <trkpt lat="43.20576" lon="6.5703">
        <ele>103</ele>
        <time>2013-09-16T14:16:23.000Z</time>
      </trkpt>
      <trkpt lat="43.20577" lon="6.57024">
        <ele>103</ele>
        <time>2013-09-16T14:16:24.000Z</time>
      </trkpt>
      <trkpt lat="43.20579" lon="6.57017">
        <ele>103</ele>
        <time>2013-09-16T14:16:25.000Z</time>
      </trkpt>
      <trkpt lat="43.2058" lon="6.57011">
        <ele>103</ele>
        <time>2013-09-16T14:16:26.000Z</time>
      </trkpt>
      <trkpt lat="43.20581" lon="6.57003">
        <ele>103</ele>
        <time>2013-09-16T14:16:27.000Z</time>
      </trkpt>
      <trkpt lat="43.20581" lon="6.56996">
        <ele>101</ele>
        <time>2013-09-16T14:16:28.000Z</time>
      </trkpt>
      <trkpt lat="43.20582" lon="6.56988">
        <ele>100</ele>
        <time>2013-09-16T14:16:29.000Z</time>
      </trkpt>
      <trkpt lat="43.20583" lon="6.5698">
        <ele>98</ele>
        <time>2013-09-16T14:16:30.000Z</time>
      </trkpt>
      <trkpt lat="43.20584" lon="6.56972">
        <ele>104</ele>
        <time>2013-09-16T14:16:31.000Z</time>
      </trkpt>
      <trkpt lat="43.20586" lon="6.56964">
        <ele>104</ele>
        <time>2013-09-16T14:16:32.000Z</time>
      </trkpt>
      <trkpt lat="43.20589" lon="6.56957">
        <ele>103</ele>
        <time>2013-09-16T14:16:33.000Z</time>
      </trkpt>
      <trkpt lat="43.20593" lon="6.56951">
        <ele>103</ele>
        <time>2013-09-16T14:16:34.000Z</time>
      </trkpt>
      <trkpt lat="43.20597" lon="6.56944">
        <ele>103</ele>
        <time>2013-09-16T14:16:35.000Z</time>
      </trkpt>
      <trkpt lat="43.20601" lon="6.56939">
        <ele>103</ele>
        <time>2013-09-16T14:16:36.000Z</time>
      </trkpt>
      <trkpt lat="43.20606" lon="6.56935">
        <ele>103</ele>
        <time>2013-09-16T14:16:37.000Z</time>
      </trkpt>
      <trkpt lat="43.20611" lon="6.56933">
        <ele>103</ele>
        <time>2013-09-16T14:16:38.000Z</time>
      </trkpt>
      <trkpt lat="43.20616" lon="6.56932">
        <ele>104</ele>
        <time>2013-09-16T14:16:39.000Z</time>
      </trkpt>
      <trkpt lat="43.20621" lon="6.56931">
        <ele>104</ele>
        <time>2013-09-16T14:16:40.000Z</time>
      </trkpt>
      <trkpt lat="43.20625" lon="6.56931">
        <ele>104</ele>
        <time>2013-09-16T14:16:41.000Z</time>
      </trkpt>
      <trkpt lat="43.20629" lon="6.56931">
        <ele>105</ele>
        <time>2013-09-16T14:16:42.000Z</time>
      </trkpt>
      <trkpt lat="43.20633" lon="6.5693">
        <ele>105</ele>
        <time>2013-09-16T14:16:43.000Z</time>
      </trkpt>
      <trkpt lat="43.20637" lon="6.5693">
        <ele>105</ele>
        <time>2013-09-16T14:16:44.000Z</time>
      </trkpt>
      <trkpt lat="43.20641" lon="6.5693">
        <ele>105</ele>
        <time>2013-09-16T14:16:45.000Z</time>
      </trkpt>
      <trkpt lat="43.20644" lon="6.56929">
        <ele>106</ele>
        <time>2013-09-16T14:16:46.000Z</time>
      </trkpt>
      <trkpt lat="43.20648" lon="6.56927">
        <ele>106</ele>
        <time>2013-09-16T14:16:47.000Z</time>
      </trkpt>
      <trkpt lat="43.20652" lon="6.56924">
        <ele>106</ele>
        <time>2013-09-16T14:16:48.000Z</time>
      </trkpt>
      <trkpt lat="43.20655" lon="6.56921">
        <ele>106</ele>
        <time>2013-09-16T14:16:49.000Z</time>
      </trkpt>
      <trkpt lat="43.20658" lon="6.56916">
        <ele>104</ele>
        <time>2013-09-16T14:16:50.000Z</time>
      </trkpt>
      <trkpt lat="43.2066" lon="6.56911">
        <ele>104</ele>
        <time>2013-09-16T14:16:51.000Z</time>
      </trkpt>
      <trkpt lat="43.20663" lon="6.56906">
        <ele>104</ele>
        <time>2013-09-16T14:16:52.000Z</time>
      </trkpt>
      <trkpt lat="43.20666" lon="6.56901">
        <ele>103</ele>
        <time>2013-09-16T14:16:53.000Z</time>
      </trkpt>
      <trkpt lat="43.2067" lon="6.56897">
        <ele>107</ele>
        <time>2013-09-16T14:16:54.000Z</time>
      </trkpt>
      <trkpt lat="43.20674" lon="6.56894">
        <ele>107</ele>
        <time>2013-09-16T14:16:55.000Z</time>
      </trkpt>
      <trkpt lat="43.20677" lon="6.5689">
        <ele>107</ele>
        <time>2013-09-16T14:16:56.000Z</time>
      </trkpt>
      <trkpt lat="43.2068" lon="6.56885">
        <ele>106</ele>
        <time>2013-09-16T14:16:57.000Z</time>
      </trkpt>
      <trkpt lat="43.20682" lon="6.56879">
        <ele>106</ele>
        <time>2013-09-16T14:16:58.000Z</time>
      </trkpt>
      <trkpt lat="43.20682" lon="6.56872">
        <ele>106</ele>
        <time>2013-09-16T14:16:59.000Z</time>
      </trkpt>
      <trkpt lat="43.20681" lon="6.56865">
        <ele>105</ele>
        <time>2013-09-16T14:17:00.000Z</time>
      </trkpt>
      <trkpt lat="43.20681" lon="6.56858">
        <ele>105</ele>
        <time>2013-09-16T14:17:01.000Z</time>
      </trkpt>
      <trkpt lat="43.20681" lon="6.56852">
        <ele>104</ele>
        <time>2013-09-16T14:17:02.000Z</time>
      </trkpt>
      <trkpt lat="43.20682" lon="6.56846">
        <ele>104</ele>
        <time>2013-09-16T14:17:03.000Z</time>
      </trkpt>
      <trkpt lat="43.20684" lon="6.5684">
        <ele>104</ele>
        <time>2013-09-16T14:17:04.000Z</time>
      </trkpt>
      <trkpt lat="43.20686" lon="6.56835">
        <ele>104</ele>
        <time>2013-09-16T14:17:05.000Z</time>
      </trkpt>
      <trkpt lat="43.20687" lon="6.56831">
        <ele>103</ele>
        <time>2013-09-16T14:17:06.000Z</time>
      </trkpt>
      <trkpt lat="43.20688" lon="6.56826">
        <ele>103</ele>
        <time>2013-09-16T14:17:07.000Z</time>
      </trkpt>
      <trkpt lat="43.20688" lon="6.56819">
        <ele>103</ele>
        <time>2013-09-16T14:17:09.000Z</time>
      </trkpt>
      <trkpt lat="43.20687" lon="6.56815">
        <ele>103</ele>
        <time>2013-09-16T14:17:10.000Z</time>
      </trkpt>
      <trkpt lat="43.20687" lon="6.56812">
        <ele>103</ele>
        <time>2013-09-16T14:17:11.000Z</time>
      </trkpt>
      <trkpt lat="43.20687" lon="6.56809">
        <ele>103</ele>
        <time>2013-09-16T14:17:12.000Z</time>
      </trkpt>
      <trkpt lat="43.20686" lon="6.56805">
        <ele>103</ele>
        <time>2013-09-16T14:17:13.000Z</time>
      </trkpt>
      <trkpt lat="43.20686" lon="6.56802">
        <ele>104</ele>
        <time>2013-09-16T14:17:14.000Z</time>
      </trkpt>
      <trkpt lat="43.20685" lon="6.56799">
        <ele>104</ele>
        <time>2013-09-16T14:17:15.000Z</time>
      </trkpt>
      <trkpt lat="43.20684" lon="6.56796">
        <ele>104</ele>
        <time>2013-09-16T14:17:16.000Z</time>
      </trkpt>
      <trkpt lat="43.20683" lon="6.56793">
        <ele>104</ele>
        <time>2013-09-16T14:17:17.000Z</time>
      </trkpt>
      <trkpt lat="43.20682" lon="6.56791">
        <ele>104</ele>
        <time>2013-09-16T14:17:18.000Z</time>
      </trkpt>
      <trkpt lat="43.2068" lon="6.56789">
        <ele>103</ele>
        <time>2013-09-16T14:17:19.000Z</time>
      </trkpt>
      <trkpt lat="43.20678" lon="6.56788">
        <ele>103</ele>
        <time>2013-09-16T14:17:20.000Z</time>
      </trkpt>
      <trkpt lat="43.20676" lon="6.56788">
        <ele>103</ele>
        <time>2013-09-16T14:17:21.000Z</time>
      </trkpt>
      <trkpt lat="43.20672" lon="6.56789">
        <ele>103</ele>
        <time>2013-09-16T14:17:23.000Z</time>
      </trkpt>
      <trkpt lat="43.20671" lon="6.56791">
        <ele>103</ele>
        <time>2013-09-16T14:17:24.000Z</time>
      </trkpt>
      <trkpt lat="43.20671" lon="6.56793">
        <ele>103</ele>
        <time>2013-09-16T14:17:25.000Z</time>
      </trkpt>
      <trkpt lat="43.20672" lon="6.56795">
        <ele>103</ele>
        <time>2013-09-16T14:17:26.000Z</time>
      </trkpt>
      <trkpt lat="43.20673" lon="6.56797">
        <ele>103</ele>
        <time>2013-09-16T14:17:27.000Z</time>
      </trkpt>
      <trkpt lat="43.20673" lon="6.56797">
        <ele>103</ele>
        <time>2013-09-16T14:17:28.000Z</time>
      </trkpt>
      <trkpt lat="43.20673" lon="6.56797">
        <ele>103</ele>
        <time>2013-09-16T14:17:32.000Z</time>
      </trkpt>
      <trkpt lat="43.20673" lon="6.56797">
        <ele>103</ele>
        <time>2013-09-16T14:17:36.000Z</time>
      </trkpt>
      <trkpt lat="43.20673" lon="6.56797">
        <ele>103</ele>
        <time>2013-09-16T14:17:40.000Z</time>
      </trkpt>
      <trkpt lat="43.20673" lon="6.56797">
        <ele>103</ele>
        <time>2013-09-16T14:17:43.000Z</time>
      </trkpt>
      <trkpt lat="43.20673" lon="6.56796">
        <ele>103</ele>
        <time>2013-09-16T14:17:49.000Z</time>
      </trkpt>
      <trkpt lat="43.20672" lon="6.56795">
        <ele>103</ele>
        <time>2013-09-16T14:17:52.000Z</time>
      </trkpt>
      <trkpt lat="43.20672" lon="6.56794">
        <ele>103</ele>
        <time>2013-09-16T14:17:54.000Z</time>
      </trkpt>
      <trkpt lat="43.20672" lon="6.56794">
        <ele>103</ele>
        <time>2013-09-16T14:17:56.000Z</time>
      </trkpt>
      <trkpt lat="43.20672" lon="6.56793">
        <ele>103</ele>
        <time>2013-09-16T14:17:57.000Z</time>
      </trkpt>
      <trkpt lat="43.20672" lon="6.56793">
        <ele>103</ele>
        <time>2013-09-16T14:17:59.000Z</time>
      </trkpt>
      <trkpt lat="43.20672" lon="6.56792">
        <ele>103</ele>
        <time>2013-09-16T14:18:01.000Z</time>
      </trkpt>
      <trkpt lat="43.20671" lon="6.56792">
        <ele>103</ele>
        <time>2013-09-16T14:18:03.000Z</time>
      </trkpt>
      <trkpt lat="43.20671" lon="6.56792">
        <ele>103</ele>
        <time>2013-09-16T14:18:04.000Z</time>
      </trkpt>
      <trkpt lat="43.20671" lon="6.56792">
        <ele>103</ele>
        <time>2013-09-16T14:18:05.000Z</time>
      </trkpt>
      <trkpt lat="43.20671" lon="6.56791">
        <ele>103</ele>
        <time>2013-09-16T14:18:06.000Z</time>
      </trkpt>
      <trkpt lat="43.2067" lon="6.56792">
        <ele>103</ele>
        <time>2013-09-16T14:18:13.000Z</time>
      </trkpt>
      <trkpt lat="43.2067" lon="6.56792">
        <ele>103</ele>
        <time>2013-09-16T14:18:14.000Z</time>
      </trkpt>
      <trkpt lat="43.20669" lon="6.56792">
        <ele>103</ele>
        <time>2013-09-16T14:18:17.000Z</time>
      </trkpt>
      <trkpt lat="43.20668" lon="6.56792">
        <ele>103</ele>
        <time>2013-09-16T14:18:20.000Z</time>
      </trkpt>
      <trkpt lat="43.20668" lon="6.56792">
        <ele>103</ele>
        <time>2013-09-16T14:18:21.000Z</time>
      </trkpt>
      <trkpt lat="43.20668" lon="6.56792">
        <ele>103</ele>
        <time>2013-09-16T14:18:22.000Z</time>
      </trkpt>
      <trkpt lat="43.20668" lon="6.56792">
        <ele>103</ele>
        <time>2013-09-16T14:18:23.000Z</time>
      </trkpt>
      <trkpt lat="43.20667" lon="6.56791">
        <ele>103</ele>
        <time>2013-09-16T14:18:26.000Z</time>
      </trkpt>
      <trkpt lat="43.20667" lon="6.56789">
        <ele>103</ele>
        <time>2013-09-16T14:18:28.000Z</time>
      </trkpt>
      <trkpt lat="43.20666" lon="6.56787">
        <ele>97</ele>
        <time>2013-09-16T14:18:29.000Z</time>
      </trkpt>
      <trkpt lat="43.20666" lon="6.56786">
        <ele>97</ele>
        <time>2013-09-16T14:18:30.000Z</time>
      </trkpt>
      <trkpt lat="43.20665" lon="6.56786">
        <ele>97</ele>
        <time>2013-09-16T14:18:31.000Z</time>
      </trkpt>
      <trkpt lat="43.2066" lon="6.56787">
        <ele>97</ele>
        <time>2013-09-16T14:18:33.000Z</time>
      </trkpt>
      <trkpt lat="43.20658" lon="6.56787">
        <ele>97</ele>
        <time>2013-09-16T14:18:34.000Z</time>
      </trkpt>
      <trkpt lat="43.20654" lon="6.56788">
        <ele>97</ele>
        <time>2013-09-16T14:18:35.000Z</time>
      </trkpt>
      <trkpt lat="43.20651" lon="6.56788">
        <ele>97</ele>
        <time>2013-09-16T14:18:36.000Z</time>
      </trkpt>
      <trkpt lat="43.20647" lon="6.56787">
        <ele>96</ele>
        <time>2013-09-16T14:18:37.000Z</time>
      </trkpt>
      <trkpt lat="43.20643" lon="6.56785">
        <ele>96</ele>
        <time>2013-09-16T14:18:38.000Z</time>
      </trkpt>
      <trkpt lat="43.20638" lon="6.56781">
        <ele>96</ele>
        <time>2013-09-16T14:18:39.000Z</time>
      </trkpt>
      <trkpt lat="43.20635" lon="6.56776">
        <ele>96</ele>
        <time>2013-09-16T14:18:40.000Z</time>
      </trkpt>
      <trkpt lat="43.20631" lon="6.5677">
        <ele>96</ele>
        <time>2013-09-16T14:18:41.000Z</time>
      </trkpt>
      <trkpt lat="43.20629" lon="6.56764">
        <ele>95</ele>
        <time>2013-09-16T14:18:42.000Z</time>
      </trkpt>
      <trkpt lat="43.20626" lon="6.56758">
        <ele>95</ele>
        <time>2013-09-16T14:18:43.000Z</time>
      </trkpt>
      <trkpt lat="43.20624" lon="6.56752">
        <ele>95</ele>
        <time>2013-09-16T14:18:44.000Z</time>
      </trkpt>
      <trkpt lat="43.20623" lon="6.56747">
        <ele>94</ele>
        <time>2013-09-16T14:18:45.000Z</time>
      </trkpt>
      <trkpt lat="43.20621" lon="6.56742">
        <ele>94</ele>
        <time>2013-09-16T14:18:46.000Z</time>
      </trkpt>
      <trkpt lat="43.2062" lon="6.56736">
        <ele>94</ele>
        <time>2013-09-16T14:18:47.000Z</time>
      </trkpt>
      <trkpt lat="43.20619" lon="6.5673">
        <ele>94</ele>
        <time>2013-09-16T14:18:48.000Z</time>
      </trkpt>
      <trkpt lat="43.20619" lon="6.56724">
        <ele>94</ele>
        <time>2013-09-16T14:18:49.000Z</time>
      </trkpt>
      <trkpt lat="43.20619" lon="6.56717">
        <ele>93</ele>
        <time>2013-09-16T14:18:50.000Z</time>
      </trkpt>
      <trkpt lat="43.20618" lon="6.56711">
        <ele>93</ele>
        <time>2013-09-16T14:18:51.000Z</time>
      </trkpt>
      <trkpt lat="43.20618" lon="6.56704">
        <ele>93</ele>
        <time>2013-09-16T14:18:52.000Z</time>
      </trkpt>
      <trkpt lat="43.20618" lon="6.56697">
        <ele>93</ele>
        <time>2013-09-16T14:18:53.000Z</time>
      </trkpt>
      <trkpt lat="43.20619" lon="6.56691">
        <ele>93</ele>
        <time>2013-09-16T14:18:54.000Z</time>
      </trkpt>
      <trkpt lat="43.20619" lon="6.56687">
        <ele>93</ele>
        <time>2013-09-16T14:18:55.000Z</time>
      </trkpt>
      <trkpt lat="43.2062" lon="6.56684">
        <ele>93</ele>
        <time>2013-09-16T14:18:56.000Z</time>
      </trkpt>
      <trkpt lat="43.20621" lon="6.56681">
        <ele>93</ele>
        <time>2013-09-16T14:18:57.000Z</time>
      </trkpt>
      <trkpt lat="43.20622" lon="6.56678">
        <ele>93</ele>
        <time>2013-09-16T14:18:58.000Z</time>
      </trkpt>
      <trkpt lat="43.20624" lon="6.56675">
        <ele>93</ele>
        <time>2013-09-16T14:18:59.000Z</time>
      </trkpt>
      <trkpt lat="43.20624" lon="6.56667">
        <ele>93</ele>
        <time>2013-09-16T14:19:04.000Z</time>
      </trkpt>
      <trkpt lat="43.20624" lon="6.56667">
        <ele>91</ele>
        <time>2013-09-16T14:19:09.000Z</time>
      </trkpt>
    </trkseg>
  </trk>
</gpx>